<?xml version='1.0' encoding='UTF-8'?><gpx version="1.1" creator="JPX - https://github.com/jenetics/jpx" xmlns="http://www.topografix.com/GPX/1/1"><trk><trkseg><trkpt lat="46.464924" lon="10.3672803"><ele>1191.0</ele><time>2026-04-26T12:01:31.367Z</time></trkpt><trkpt lat="46.4649177" lon="10.3674923"><ele>1191.0</ele><time>2026-04-26T12:01:33.364Z</time></trkpt><trkpt lat="46.464871" lon="10.3675992"><ele>1191.0</ele><time>2026-04-26T12:01:35.366Z</time></trkpt><trkpt lat="46.4648294" lon="10.3676835"><ele>1191.0</ele><time>2026-04-26T12:01:39.369Z</time></trkpt><trkpt lat="46.4648435" lon="10.3678142"><ele>1191.0</ele><time>2026-04-26T12:01:41.358Z</time></trkpt><trkpt lat="46.4648899" lon="10.3679075"><ele>1191.0</ele><time>2026-04-26T12:01:42.37Z</time></trkpt><trkpt lat="46.464961" lon="10.3680187"><ele>1191.0</ele><time>2026-04-26T12:01:43.366Z</time></trkpt><trkpt lat="46.4650375" lon="10.3681541"><ele>1191.0</ele><time>2026-04-26T12:01:44.361Z</time></trkpt><trkpt lat="46.4651137" lon="10.3682924"><ele>1191.0</ele><time>2026-04-26T12:01:45.362Z</time></trkpt><trkpt lat="46.4651901" lon="10.3684618"><ele>1191.6666666666667</ele><time>2026-04-26T12:01:46.361Z</time></trkpt><trkpt lat="46.465279" lon="10.3686455"><ele>1192.3333333333335</ele><time>2026-04-26T12:01:47.366Z</time></trkpt><trkpt lat="46.4653835" lon="10.368846"><ele>1193.0</ele><time>2026-04-26T12:01:48.358Z</time></trkpt><trkpt lat="46.465496" lon="10.3690794"><ele>1193.6666666666667</ele><time>2026-04-26T12:01:49.357Z</time></trkpt><trkpt lat="46.4656055" lon="10.3693237"><ele>1194.3333333333333</ele><time>2026-04-26T12:01:50.362Z</time></trkpt><trkpt lat="46.465718" lon="10.3695334"><ele>1195.0</ele><time>2026-04-26T12:01:51.358Z</time></trkpt><trkpt lat="46.4658159" lon="10.3697283"><ele>1195.25</ele><time>2026-04-26T12:01:52.374Z</time></trkpt><trkpt lat="46.465904" lon="10.369902"><ele>1195.5</ele><time>2026-04-26T12:01:53.361Z</time></trkpt><trkpt lat="46.4659753" lon="10.3700663"><ele>1195.75</ele><time>2026-04-26T12:01:54.358Z</time></trkpt><trkpt lat="46.4660474" lon="10.3702281"><ele>1196.0</ele><time>2026-04-26T12:01:55.358Z</time></trkpt><trkpt lat="46.4661239" lon="10.3703649"><ele>1196.0</ele><time>2026-04-26T12:01:56.361Z</time></trkpt><trkpt lat="46.4661869" lon="10.3704927"><ele>1196.0</ele><time>2026-04-26T12:01:57.359Z</time></trkpt><trkpt lat="46.4662403" lon="10.3705958"><ele>1196.0</ele><time>2026-04-26T12:01:58.36Z</time></trkpt><trkpt lat="46.4662961" lon="10.3706916"><ele>1196.0</ele><time>2026-04-26T12:01:59.366Z</time></trkpt><trkpt lat="46.4663406" lon="10.370777"><ele>1196.0</ele><time>2026-04-26T12:02:00.37Z</time></trkpt><trkpt lat="46.4663857" lon="10.3708685"><ele>1196.0</ele><time>2026-04-26T12:02:01.36Z</time></trkpt><trkpt lat="46.4664309" lon="10.3709595"><ele>1196.5</ele><time>2026-04-26T12:02:02.36Z</time></trkpt><trkpt lat="46.466474" lon="10.3710699"><ele>1197.0</ele><time>2026-04-26T12:02:03.36Z</time></trkpt><trkpt lat="46.4665128" lon="10.3711849"><ele>1197.5</ele><time>2026-04-26T12:02:04.359Z</time></trkpt><trkpt lat="46.4665514" lon="10.3713027"><ele>1198.0</ele><time>2026-04-26T12:02:05.361Z</time></trkpt><trkpt lat="46.4665895" lon="10.3714202"><ele>1198.5</ele><time>2026-04-26T12:02:06.36Z</time></trkpt><trkpt lat="46.4665622" lon="10.3715337"><ele>1199.0</ele><time>2026-04-26T12:02:07.362Z</time></trkpt><trkpt lat="46.4665334" lon="10.3716537"><ele>1199.6000000000001</ele><time>2026-04-26T12:02:08.359Z</time></trkpt><trkpt lat="46.4664943" lon="10.371782"><ele>1200.2</ele><time>2026-04-26T12:02:09.36Z</time></trkpt><trkpt lat="46.4664443" lon="10.3719237"><ele>1200.8000000000002</ele><time>2026-04-26T12:02:10.361Z</time></trkpt><trkpt lat="46.4664042" lon="10.3720691"><ele>1201.4</ele><time>2026-04-26T12:02:11.364Z</time></trkpt><trkpt lat="46.4663732" lon="10.3721954"><ele>1202.0</ele><time>2026-04-26T12:02:12.357Z</time></trkpt><trkpt lat="46.466343" lon="10.3723029"><ele>1202.0</ele><time>2026-04-26T12:02:13.365Z</time></trkpt><trkpt lat="46.4663132" lon="10.3723955"><ele>1202.0</ele><time>2026-04-26T12:02:14.361Z</time></trkpt><trkpt lat="46.4662745" lon="10.3724728"><ele>1202.0</ele><time>2026-04-26T12:02:15.359Z</time></trkpt><trkpt lat="46.4662176" lon="10.3725294"><ele>1202.0</ele><time>2026-04-26T12:02:16.362Z</time></trkpt><trkpt lat="46.4661444" lon="10.3725658"><ele>1202.0</ele><time>2026-04-26T12:02:17.362Z</time></trkpt><trkpt lat="46.4660768" lon="10.372589"><ele>1202.0</ele><time>2026-04-26T12:02:18.361Z</time></trkpt><trkpt lat="46.4660112" lon="10.3726106"><ele>1202.0</ele><time>2026-04-26T12:02:19.359Z</time></trkpt><trkpt lat="46.4659333" lon="10.3726369"><ele>1201.5</ele><time>2026-04-26T12:02:20.365Z</time></trkpt><trkpt lat="46.4658486" lon="10.3726549"><ele>1201.0</ele><time>2026-04-26T12:02:21.366Z</time></trkpt><trkpt lat="46.465762" lon="10.3726812"><ele>1200.5</ele><time>2026-04-26T12:02:22.368Z</time></trkpt><trkpt lat="46.4656643" lon="10.3727013"><ele>1200.0</ele><time>2026-04-26T12:02:23.364Z</time></trkpt><trkpt lat="46.465572" lon="10.3727217"><ele>1199.5</ele><time>2026-04-26T12:02:24.366Z</time></trkpt><trkpt lat="46.4654952" lon="10.3727417"><ele>1199.0</ele><time>2026-04-26T12:02:25.362Z</time></trkpt><trkpt lat="46.4654213" lon="10.3727623"><ele>1198.4</ele><time>2026-04-26T12:02:26.362Z</time></trkpt><trkpt lat="46.4653503" lon="10.3727855"><ele>1197.8000000000002</ele><time>2026-04-26T12:02:27.361Z</time></trkpt><trkpt lat="46.4652652" lon="10.3728154"><ele>1197.1999999999998</ele><time>2026-04-26T12:02:28.361Z</time></trkpt><trkpt lat="46.4651732" lon="10.3728531"><ele>1196.6</ele><time>2026-04-26T12:02:29.361Z</time></trkpt><trkpt lat="46.4650711" lon="10.372887"><ele>1196.0</ele><time>2026-04-26T12:02:30.363Z</time></trkpt><trkpt lat="46.4649666" lon="10.3729181"><ele>1196.0</ele><time>2026-04-26T12:02:31.36Z</time></trkpt><trkpt lat="46.4648538" lon="10.3729485"><ele>1196.0</ele><time>2026-04-26T12:02:32.362Z</time></trkpt><trkpt lat="46.4647437" lon="10.3729557"><ele>1196.0</ele><time>2026-04-26T12:02:33.361Z</time></trkpt><trkpt lat="46.4646452" lon="10.3729351"><ele>1196.0</ele><time>2026-04-26T12:02:34.366Z</time></trkpt><trkpt lat="46.4645748" lon="10.3728539"><ele>1196.0</ele><time>2026-04-26T12:02:35.358Z</time></trkpt><trkpt lat="46.4645105" lon="10.3727525"><ele>1196.2</ele><time>2026-04-26T12:02:36.385Z</time></trkpt><trkpt lat="46.4644701" lon="10.3726131"><ele>1196.3999999999999</ele><time>2026-04-26T12:02:37.366Z</time></trkpt><trkpt lat="46.4644254" lon="10.3724633"><ele>1196.6</ele><time>2026-04-26T12:02:38.36Z</time></trkpt><trkpt lat="46.4643851" lon="10.3723314"><ele>1196.8</ele><time>2026-04-26T12:02:39.359Z</time></trkpt><trkpt lat="46.4643406" lon="10.3722171"><ele>1197.0</ele><time>2026-04-26T12:02:40.361Z</time></trkpt><trkpt lat="46.4642971" lon="10.3721305"><ele>1197.0</ele><time>2026-04-26T12:02:41.372Z</time></trkpt><trkpt lat="46.4641946" lon="10.3720707"><ele>1197.0</ele><time>2026-04-26T12:02:43.374Z</time></trkpt><trkpt lat="46.4641492" lon="10.3721914"><ele>1197.0</ele><time>2026-04-26T12:02:45.362Z</time></trkpt><trkpt lat="46.4641822" lon="10.3722878"><ele>1197.0</ele><time>2026-04-26T12:02:46.362Z</time></trkpt><trkpt lat="46.4642336" lon="10.3724003"><ele>1197.0</ele><time>2026-04-26T12:02:47.366Z</time></trkpt><trkpt lat="46.4642998" lon="10.3725308"><ele>1197.5</ele><time>2026-04-26T12:02:48.368Z</time></trkpt><trkpt lat="46.4643614" lon="10.3726834"><ele>1198.0</ele><time>2026-04-26T12:02:49.379Z</time></trkpt><trkpt lat="46.4644015" lon="10.3728618"><ele>1198.5</ele><time>2026-04-26T12:02:50.359Z</time></trkpt><trkpt lat="46.4644229" lon="10.3730398"><ele>1199.0</ele><time>2026-04-26T12:02:51.365Z</time></trkpt><trkpt lat="46.4644322" lon="10.373185"><ele>1200.0</ele><time>2026-04-26T12:02:52.364Z</time></trkpt><trkpt lat="46.4644367" lon="10.3733173"><ele>1201.0</ele><time>2026-04-26T12:02:53.359Z</time></trkpt><trkpt lat="46.4643454" lon="10.3734108"><ele>1202.0</ele><time>2026-04-26T12:02:54.362Z</time></trkpt><trkpt lat="46.4642548" lon="10.3735276"><ele>1203.0</ele><time>2026-04-26T12:02:55.36Z</time></trkpt><trkpt lat="46.4641395" lon="10.3736534"><ele>1203.0</ele><time>2026-04-26T12:02:56.368Z</time></trkpt><trkpt lat="46.4640263" lon="10.3737876"><ele>1203.0</ele><time>2026-04-26T12:02:57.365Z</time></trkpt><trkpt lat="46.4639405" lon="10.3739237"><ele>1203.0</ele><time>2026-04-26T12:02:58.362Z</time></trkpt><trkpt lat="46.4638669" lon="10.3740373"><ele>1203.0</ele><time>2026-04-26T12:02:59.362Z</time></trkpt><trkpt lat="46.4638001" lon="10.3741119"><ele>1203.2</ele><time>2026-04-26T12:03:00.365Z</time></trkpt><trkpt lat="46.4637358" lon="10.3741667"><ele>1203.4</ele><time>2026-04-26T12:03:01.387Z</time></trkpt><trkpt lat="46.46368" lon="10.3742283"><ele>1203.6000000000001</ele><time>2026-04-26T12:03:02.384Z</time></trkpt><trkpt lat="46.4637106" lon="10.3743941"><ele>1203.8</ele><time>2026-04-26T12:03:04.378Z</time></trkpt><trkpt lat="46.4637565" lon="10.3745008"><ele>1204.0</ele><time>2026-04-26T12:03:05.368Z</time></trkpt><trkpt lat="46.4637965" lon="10.3746435"><ele>1204.5</ele><time>2026-04-26T12:03:06.368Z</time></trkpt><trkpt lat="46.4638332" lon="10.3747996"><ele>1205.0</ele><time>2026-04-26T12:03:07.361Z</time></trkpt><trkpt lat="46.4638623" lon="10.3749795"><ele>1205.5</ele><time>2026-04-26T12:03:08.363Z</time></trkpt><trkpt lat="46.4638992" lon="10.3751665"><ele>1206.0</ele><time>2026-04-26T12:03:09.36Z</time></trkpt><trkpt lat="46.4639431" lon="10.3753593"><ele>1206.5</ele><time>2026-04-26T12:03:10.366Z</time></trkpt><trkpt lat="46.4639872" lon="10.37556"><ele>1207.0</ele><time>2026-04-26T12:03:11.36Z</time></trkpt><trkpt lat="46.4640294" lon="10.3757322"><ele>1207.5</ele><time>2026-04-26T12:03:12.364Z</time></trkpt><trkpt lat="46.4640645" lon="10.3759034"><ele>1208.0</ele><time>2026-04-26T12:03:13.358Z</time></trkpt><trkpt lat="46.4640936" lon="10.3760798"><ele>1208.0</ele><time>2026-04-26T12:03:14.36Z</time></trkpt><trkpt lat="46.4641293" lon="10.3762589"><ele>1208.0</ele><time>2026-04-26T12:03:15.369Z</time></trkpt><trkpt lat="46.4641708" lon="10.3764437"><ele>1208.0</ele><time>2026-04-26T12:03:16.357Z</time></trkpt><trkpt lat="46.4642159" lon="10.3766316"><ele>1208.0</ele><time>2026-04-26T12:03:17.364Z</time></trkpt><trkpt lat="46.4642578" lon="10.3768288"><ele>1208.75</ele><time>2026-04-26T12:03:18.364Z</time></trkpt><trkpt lat="46.4642989" lon="10.377033"><ele>1209.5</ele><time>2026-04-26T12:03:19.36Z</time></trkpt><trkpt lat="46.4643402" lon="10.3772311"><ele>1210.25</ele><time>2026-04-26T12:03:20.371Z</time></trkpt><trkpt lat="46.4643839" lon="10.3774214"><ele>1211.0</ele><time>2026-04-26T12:03:21.358Z</time></trkpt><trkpt lat="46.4644305" lon="10.37762"><ele>1211.5</ele><time>2026-04-26T12:03:22.363Z</time></trkpt><trkpt lat="46.4644754" lon="10.3777996"><ele>1212.0</ele><time>2026-04-26T12:03:23.36Z</time></trkpt><trkpt lat="46.4645131" lon="10.3779695"><ele>1212.5</ele><time>2026-04-26T12:03:24.36Z</time></trkpt><trkpt lat="46.4645508" lon="10.3781362"><ele>1213.0</ele><time>2026-04-26T12:03:25.361Z</time></trkpt><trkpt lat="46.4645952" lon="10.3782873"><ele>1213.6</ele><time>2026-04-26T12:03:26.366Z</time></trkpt><trkpt lat="46.4646345" lon="10.3784315"><ele>1214.1999999999998</ele><time>2026-04-26T12:03:27.36Z</time></trkpt><trkpt lat="46.4646721" lon="10.3785725"><ele>1214.8</ele><time>2026-04-26T12:03:28.36Z</time></trkpt><trkpt lat="46.4647143" lon="10.3787155"><ele>1215.3999999999999</ele><time>2026-04-26T12:03:29.369Z</time></trkpt><trkpt lat="46.4647571" lon="10.3788534"><ele>1216.0</ele><time>2026-04-26T12:03:30.359Z</time></trkpt><trkpt lat="46.4648004" lon="10.3789947"><ele>1216.1666666666665</ele><time>2026-04-26T12:03:31.362Z</time></trkpt><trkpt lat="46.464843" lon="10.3791301"><ele>1216.3333333333333</ele><time>2026-04-26T12:03:32.36Z</time></trkpt><trkpt lat="46.4648813" lon="10.3792533"><ele>1216.5</ele><time>2026-04-26T12:03:33.362Z</time></trkpt><trkpt lat="46.4649118" lon="10.3793675"><ele>1216.6666666666667</ele><time>2026-04-26T12:03:34.36Z</time></trkpt><trkpt lat="46.4649457" lon="10.3794652"><ele>1216.8333333333335</ele><time>2026-04-26T12:03:35.364Z</time></trkpt><trkpt lat="46.4649989" lon="10.379548"><ele>1217.0</ele><time>2026-04-26T12:03:36.358Z</time></trkpt><trkpt lat="46.465069" lon="10.3796338"><ele>1217.6</ele><time>2026-04-26T12:03:37.365Z</time></trkpt><trkpt lat="46.4651418" lon="10.3797242"><ele>1218.2</ele><time>2026-04-26T12:03:38.368Z</time></trkpt><trkpt lat="46.465218" lon="10.3798155"><ele>1218.8</ele><time>2026-04-26T12:03:39.363Z</time></trkpt><trkpt lat="46.4652888" lon="10.3798885"><ele>1219.4</ele><time>2026-04-26T12:03:40.362Z</time></trkpt><trkpt lat="46.4653471" lon="10.3799406"><ele>1220.0</ele><time>2026-04-26T12:03:41.362Z</time></trkpt><trkpt lat="46.4654333" lon="10.3800773"><ele>1219.5</ele><time>2026-04-26T12:03:43.364Z</time></trkpt><trkpt lat="46.4654767" lon="10.3801523"><ele>1219.0</ele><time>2026-04-26T12:03:44.367Z</time></trkpt><trkpt lat="46.4655393" lon="10.380267"><ele>1218.5</ele><time>2026-04-26T12:03:46.364Z</time></trkpt><trkpt lat="46.4655226" lon="10.380362"><ele>1218.0</ele><time>2026-04-26T12:03:48.362Z</time></trkpt><trkpt lat="46.4654469" lon="10.3805107"><ele>1217.5</ele><time>2026-04-26T12:03:50.363Z</time></trkpt><trkpt lat="46.4654021" lon="10.3806137"><ele>1217.0</ele><time>2026-04-26T12:03:51.371Z</time></trkpt><trkpt lat="46.4653635" lon="10.3807282"><ele>1218.8333333333335</ele><time>2026-04-26T12:03:52.362Z</time></trkpt><trkpt lat="46.4653345" lon="10.380846"><ele>1220.6666666666667</ele><time>2026-04-26T12:03:53.361Z</time></trkpt><trkpt lat="46.4653175" lon="10.3809483"><ele>1222.5</ele><time>2026-04-26T12:03:54.358Z</time></trkpt><trkpt lat="46.4652843" lon="10.3810574"><ele>1224.3333333333333</ele><time>2026-04-26T12:03:56.361Z</time></trkpt><trkpt lat="46.4652038" lon="10.3810909"><ele>1226.1666666666665</ele><time>2026-04-26T12:03:58.362Z</time></trkpt><trkpt lat="46.4651376" lon="10.3810726"><ele>1228.0</ele><time>2026-04-26T12:03:59.372Z</time></trkpt><trkpt lat="46.4650482" lon="10.3810504"><ele>1228.0</ele><time>2026-04-26T12:04:00.363Z</time></trkpt><trkpt lat="46.4649485" lon="10.381023"><ele>1228.0</ele><time>2026-04-26T12:04:01.363Z</time></trkpt><trkpt lat="46.4648433" lon="10.3809763"><ele>1228.0</ele><time>2026-04-26T12:04:02.363Z</time></trkpt><trkpt lat="46.4647179" lon="10.3809013"><ele>1228.0</ele><time>2026-04-26T12:04:03.364Z</time></trkpt><trkpt lat="46.4645924" lon="10.3808341"><ele>1228.25</ele><time>2026-04-26T12:04:04.362Z</time></trkpt><trkpt lat="46.4644693" lon="10.3807642"><ele>1228.5</ele><time>2026-04-26T12:04:05.368Z</time></trkpt><trkpt lat="46.4643448" lon="10.380676"><ele>1228.75</ele><time>2026-04-26T12:04:06.364Z</time></trkpt><trkpt lat="46.4642548" lon="10.3805598"><ele>1229.0</ele><time>2026-04-26T12:04:07.365Z</time></trkpt><trkpt lat="46.4641498" lon="10.3804461"><ele>1229.0</ele><time>2026-04-26T12:04:08.361Z</time></trkpt><trkpt lat="46.464036" lon="10.3803462"><ele>1229.0</ele><time>2026-04-26T12:04:09.365Z</time></trkpt><trkpt lat="46.4639099" lon="10.3802414"><ele>1229.0</ele><time>2026-04-26T12:04:10.366Z</time></trkpt><trkpt lat="46.4637819" lon="10.3801281"><ele>1229.0</ele><time>2026-04-26T12:04:11.361Z</time></trkpt><trkpt lat="46.4636615" lon="10.3800046"><ele>1234.75</ele><time>2026-04-26T12:04:12.358Z</time></trkpt><trkpt lat="46.4635558" lon="10.3798897"><ele>1240.5</ele><time>2026-04-26T12:04:13.366Z</time></trkpt><trkpt lat="46.4634522" lon="10.3798009"><ele>1246.25</ele><time>2026-04-26T12:04:14.361Z</time></trkpt><trkpt lat="46.4633411" lon="10.3797373"><ele>1252.0</ele><time>2026-04-26T12:04:15.365Z</time></trkpt><trkpt lat="46.463235" lon="10.3796553"><ele>1252.0</ele><time>2026-04-26T12:04:16.36Z</time></trkpt><trkpt lat="46.4631559" lon="10.3795626"><ele>1252.0</ele><time>2026-04-26T12:04:17.365Z</time></trkpt><trkpt lat="46.463117" lon="10.379474"><ele>1252.0</ele><time>2026-04-26T12:04:18.362Z</time></trkpt><trkpt lat="46.4630187" lon="10.37945"><ele>1252.0</ele><time>2026-04-26T12:04:20.359Z</time></trkpt><trkpt lat="46.4630215" lon="10.3795896"><ele>1252.0</ele><time>2026-04-26T12:04:22.364Z</time></trkpt><trkpt lat="46.4630342" lon="10.3796793"><ele>1252.0</ele><time>2026-04-26T12:04:23.366Z</time></trkpt><trkpt lat="46.4630568" lon="10.379798"><ele>1253.8</ele><time>2026-04-26T12:04:24.368Z</time></trkpt><trkpt lat="46.4631131" lon="10.3799789"><ele>1255.6</ele><time>2026-04-26T12:04:25.362Z</time></trkpt><trkpt lat="46.4631587" lon="10.3801013"><ele>1257.3999999999999</ele><time>2026-04-26T12:04:26.359Z</time></trkpt><trkpt lat="46.4632107" lon="10.3802024"><ele>1259.2</ele><time>2026-04-26T12:04:27.363Z</time></trkpt><trkpt lat="46.4632668" lon="10.380315"><ele>1261.0</ele><time>2026-04-26T12:04:28.361Z</time></trkpt><trkpt lat="46.4633131" lon="10.380434"><ele>1264.75</ele><time>2026-04-26T12:04:29.363Z</time></trkpt><trkpt lat="46.4633462" lon="10.3805595"><ele>1268.5</ele><time>2026-04-26T12:04:30.361Z</time></trkpt><trkpt lat="46.4633666" lon="10.3807243"><ele>1272.25</ele><time>2026-04-26T12:04:31.361Z</time></trkpt><trkpt lat="46.4633866" lon="10.3808999"><ele>1276.0</ele><time>2026-04-26T12:04:32.362Z</time></trkpt><trkpt lat="46.4634113" lon="10.3810911"><ele>1276.0</ele><time>2026-04-26T12:04:33.364Z</time></trkpt><trkpt lat="46.463421" lon="10.3812772"><ele>1276.0</ele><time>2026-04-26T12:04:34.366Z</time></trkpt><trkpt lat="46.4634242" lon="10.3814855"><ele>1276.0</ele><time>2026-04-26T12:04:35.364Z</time></trkpt><trkpt lat="46.4634319" lon="10.3816947"><ele>1276.0</ele><time>2026-04-26T12:04:36.367Z</time></trkpt><trkpt lat="46.4634475" lon="10.3819004"><ele>1277.8</ele><time>2026-04-26T12:04:37.36Z</time></trkpt><trkpt lat="46.4634821" lon="10.3820849"><ele>1279.6</ele><time>2026-04-26T12:04:38.363Z</time></trkpt><trkpt lat="46.4635259" lon="10.3822461"><ele>1281.4</ele><time>2026-04-26T12:04:39.36Z</time></trkpt><trkpt lat="46.4635614" lon="10.3823904"><ele>1283.2</ele><time>2026-04-26T12:04:40.361Z</time></trkpt><trkpt lat="46.4635821" lon="10.3825077"><ele>1285.0</ele><time>2026-04-26T12:04:41.361Z</time></trkpt><trkpt lat="46.4635299" lon="10.3827166"><ele>1286.5</ele><time>2026-04-26T12:04:43.368Z</time></trkpt><trkpt lat="46.4634879" lon="10.3828408"><ele>1288.0</ele><time>2026-04-26T12:04:44.359Z</time></trkpt><trkpt lat="46.4634501" lon="10.382967"><ele>1289.5</ele><time>2026-04-26T12:04:45.363Z</time></trkpt><trkpt lat="46.4633886" lon="10.3831396"><ele>1291.0</ele><time>2026-04-26T12:04:46.369Z</time></trkpt><trkpt lat="46.4632915" lon="10.3833802"><ele>1291.75</ele><time>2026-04-26T12:04:47.36Z</time></trkpt><trkpt lat="46.4632384" lon="10.383547"><ele>1292.5</ele><time>2026-04-26T12:04:48.361Z</time></trkpt><trkpt lat="46.4631892" lon="10.3837204"><ele>1293.25</ele><time>2026-04-26T12:04:49.368Z</time></trkpt><trkpt lat="46.4631798" lon="10.3838917"><ele>1294.0</ele><time>2026-04-26T12:04:50.359Z</time></trkpt><trkpt lat="46.463203" lon="10.3840796"><ele>1294.5</ele><time>2026-04-26T12:04:51.364Z</time></trkpt><trkpt lat="46.4632201" lon="10.3842562"><ele>1295.0</ele><time>2026-04-26T12:04:52.361Z</time></trkpt><trkpt lat="46.463239" lon="10.3844322"><ele>1295.5</ele><time>2026-04-26T12:04:53.358Z</time></trkpt><trkpt lat="46.4632433" lon="10.3846238"><ele>1296.0</ele><time>2026-04-26T12:04:54.359Z</time></trkpt><trkpt lat="46.4632359" lon="10.3848024"><ele>1298.5</ele><time>2026-04-26T12:04:55.357Z</time></trkpt><trkpt lat="46.4632079" lon="10.3849659"><ele>1301.0</ele><time>2026-04-26T12:04:56.36Z</time></trkpt><trkpt lat="46.4632085" lon="10.385127"><ele>1303.5</ele><time>2026-04-26T12:04:57.359Z</time></trkpt><trkpt lat="46.4632213" lon="10.3853181"><ele>1306.0</ele><time>2026-04-26T12:04:58.359Z</time></trkpt><trkpt lat="46.4632228" lon="10.3855484"><ele>1309.6666666666665</ele><time>2026-04-26T12:04:59.362Z</time></trkpt><trkpt lat="46.463197" lon="10.3857384"><ele>1313.3333333333333</ele><time>2026-04-26T12:05:00.361Z</time></trkpt><trkpt lat="46.4631963" lon="10.3859584"><ele>1317.0</ele><time>2026-04-26T12:05:01.359Z</time></trkpt><trkpt lat="46.4631762" lon="10.3861981"><ele>1320.3333333333333</ele><time>2026-04-26T12:05:02.359Z</time></trkpt><trkpt lat="46.4630748" lon="10.3864488"><ele>1323.6666666666665</ele><time>2026-04-26T12:05:03.364Z</time></trkpt><trkpt lat="46.4630383" lon="10.3866659"><ele>1327.0</ele><time>2026-04-26T12:05:04.36Z</time></trkpt><trkpt lat="46.463028" lon="10.3869081"><ele>1327.0</ele><time>2026-04-26T12:05:05.362Z</time></trkpt><trkpt lat="46.4629864" lon="10.3871093"><ele>1327.0</ele><time>2026-04-26T12:05:06.361Z</time></trkpt><trkpt lat="46.4629722" lon="10.3872211"><ele>1327.0</ele><time>2026-04-26T12:05:07.365Z</time></trkpt><trkpt lat="46.4629751" lon="10.3873445"><ele>1327.0</ele><time>2026-04-26T12:05:08.363Z</time></trkpt><trkpt lat="46.4629497" lon="10.387464"><ele>1327.0</ele><time>2026-04-26T12:05:09.362Z</time></trkpt><trkpt lat="46.4629499" lon="10.3875874"><ele>1337.0</ele><time>2026-04-26T12:05:10.361Z</time></trkpt><trkpt lat="46.4629041" lon="10.3877037"><ele>1347.0</ele><time>2026-04-26T12:05:11.361Z</time></trkpt><trkpt lat="46.4628525" lon="10.3878385"><ele>1357.0</ele><time>2026-04-26T12:05:12.361Z</time></trkpt><trkpt lat="46.462821" lon="10.3879957"><ele>1367.0</ele><time>2026-04-26T12:05:13.367Z</time></trkpt><trkpt lat="46.462783" lon="10.3881687"><ele>1377.0</ele><time>2026-04-26T12:05:14.359Z</time></trkpt><trkpt lat="46.4627371" lon="10.3883786"><ele>1377.0</ele><time>2026-04-26T12:05:15.362Z</time></trkpt><trkpt lat="46.4626353" lon="10.3885339"><ele>1377.0</ele><time>2026-04-26T12:05:16.371Z</time></trkpt><trkpt lat="46.4625384" lon="10.3886748"><ele>1377.0</ele><time>2026-04-26T12:05:17.368Z</time></trkpt><trkpt lat="46.4624754" lon="10.3888556"><ele>1377.0</ele><time>2026-04-26T12:05:18.36Z</time></trkpt><trkpt lat="46.4624199" lon="10.3890935"><ele>1377.0</ele><time>2026-04-26T12:05:19.365Z</time></trkpt><trkpt lat="46.4623716" lon="10.3892915"><ele>1377.0</ele><time>2026-04-26T12:05:20.361Z</time></trkpt><trkpt lat="46.4623119" lon="10.3895229"><ele>1377.0</ele><time>2026-04-26T12:05:21.359Z</time></trkpt><trkpt lat="46.4622531" lon="10.3897234"><ele>1377.0</ele><time>2026-04-26T12:05:22.364Z</time></trkpt><trkpt lat="46.4621798" lon="10.3899277"><ele>1377.0</ele><time>2026-04-26T12:05:23.361Z</time></trkpt><trkpt lat="46.4621152" lon="10.3901116"><ele>1377.0</ele><time>2026-04-26T12:05:24.365Z</time></trkpt><trkpt lat="46.4619825" lon="10.3902005"><ele>1377.0</ele><time>2026-04-26T12:05:25.362Z</time></trkpt><trkpt lat="46.4618747" lon="10.3903217"><ele>1391.0</ele><time>2026-04-26T12:05:26.365Z</time></trkpt><trkpt lat="46.4617544" lon="10.3904866"><ele>1405.0</ele><time>2026-04-26T12:05:27.362Z</time></trkpt><trkpt lat="46.4616415" lon="10.3906601"><ele>1419.0</ele><time>2026-04-26T12:05:28.365Z</time></trkpt><trkpt lat="46.4615586" lon="10.3908187"><ele>1419.0</ele><time>2026-04-26T12:05:29.366Z</time></trkpt><trkpt lat="46.4614581" lon="10.3909677"><ele>1419.0</ele><time>2026-04-26T12:05:30.363Z</time></trkpt><trkpt lat="46.4613863" lon="10.3911186"><ele>1419.0</ele><time>2026-04-26T12:05:31.362Z</time></trkpt><trkpt lat="46.4613176" lon="10.3912707"><ele>1419.0</ele><time>2026-04-26T12:05:32.361Z</time></trkpt><trkpt lat="46.4612552" lon="10.3914061"><ele>1424.2</ele><time>2026-04-26T12:05:33.36Z</time></trkpt><trkpt lat="46.4611931" lon="10.3915255"><ele>1429.4</ele><time>2026-04-26T12:05:34.364Z</time></trkpt><trkpt lat="46.4611105" lon="10.3916229"><ele>1434.6</ele><time>2026-04-26T12:05:35.367Z</time></trkpt><trkpt lat="46.4610233" lon="10.391694"><ele>1439.8</ele><time>2026-04-26T12:05:36.361Z</time></trkpt><trkpt lat="46.4609151" lon="10.3917596"><ele>1445.0</ele><time>2026-04-26T12:05:37.367Z</time></trkpt><trkpt lat="46.4608315" lon="10.3917664"><ele>1445.0</ele><time>2026-04-26T12:05:38.364Z</time></trkpt><trkpt lat="46.4607439" lon="10.3917897"><ele>1445.0</ele><time>2026-04-26T12:05:39.366Z</time></trkpt><trkpt lat="46.4606624" lon="10.3918178"><ele>1445.0</ele><time>2026-04-26T12:05:40.363Z</time></trkpt><trkpt lat="46.460588" lon="10.3918442"><ele>1445.0</ele><time>2026-04-26T12:05:41.362Z</time></trkpt><trkpt lat="46.4605059" lon="10.3918854"><ele>1445.0</ele><time>2026-04-26T12:05:42.364Z</time></trkpt><trkpt lat="46.4604356" lon="10.3919775"><ele>1445.0</ele><time>2026-04-26T12:05:43.364Z</time></trkpt><trkpt lat="46.4603764" lon="10.3921446"><ele>1448.8</ele><time>2026-04-26T12:05:44.363Z</time></trkpt><trkpt lat="46.4603464" lon="10.3923115"><ele>1452.6</ele><time>2026-04-26T12:05:45.366Z</time></trkpt><trkpt lat="46.4603288" lon="10.3924434"><ele>1456.4</ele><time>2026-04-26T12:05:46.359Z</time></trkpt><trkpt lat="46.460316" lon="10.3925501"><ele>1460.2</ele><time>2026-04-26T12:05:47.362Z</time></trkpt><trkpt lat="46.4602627" lon="10.3926003"><ele>1464.0</ele><time>2026-04-26T12:05:49.366Z</time></trkpt><trkpt lat="46.4601298" lon="10.3926049"><ele>1464.0</ele><time>2026-04-26T12:05:51.369Z</time></trkpt><trkpt lat="46.4600376" lon="10.3926147"><ele>1464.0</ele><time>2026-04-26T12:05:52.367Z</time></trkpt><trkpt lat="46.4599446" lon="10.392627"><ele>1464.0</ele><time>2026-04-26T12:05:53.358Z</time></trkpt><trkpt lat="46.45985" lon="10.3926306"><ele>1464.0</ele><time>2026-04-26T12:05:54.36Z</time></trkpt><trkpt lat="46.4597495" lon="10.3926156"><ele>1464.0</ele><time>2026-04-26T12:05:55.363Z</time></trkpt><trkpt lat="46.4596502" lon="10.3925852"><ele>1470.0</ele><time>2026-04-26T12:05:56.363Z</time></trkpt><trkpt lat="46.4595447" lon="10.3925519"><ele>1476.0</ele><time>2026-04-26T12:05:57.366Z</time></trkpt><trkpt lat="46.4594579" lon="10.3925283"><ele>1482.0</ele><time>2026-04-26T12:05:58.361Z</time></trkpt><trkpt lat="46.4593438" lon="10.3925557"><ele>1488.0</ele><time>2026-04-26T12:06:00.361Z</time></trkpt><trkpt lat="46.459283" lon="10.3925897"><ele>1494.0</ele><time>2026-04-26T12:06:01.365Z</time></trkpt><trkpt lat="46.4591952" lon="10.3927044"><ele>1494.0</ele><time>2026-04-26T12:06:03.359Z</time></trkpt><trkpt lat="46.4591715" lon="10.3927995"><ele>1494.0</ele><time>2026-04-26T12:06:04.361Z</time></trkpt><trkpt lat="46.4591446" lon="10.392938"><ele>1494.0</ele><time>2026-04-26T12:06:05.36Z</time></trkpt><trkpt lat="46.4591078" lon="10.3931095"><ele>1494.0</ele><time>2026-04-26T12:06:06.368Z</time></trkpt><trkpt lat="46.4590733" lon="10.3933323"><ele>1496.0</ele><time>2026-04-26T12:06:07.362Z</time></trkpt><trkpt lat="46.459039" lon="10.3935705"><ele>1498.0</ele><time>2026-04-26T12:06:08.363Z</time></trkpt><trkpt lat="46.4589927" lon="10.3937975"><ele>1500.0</ele><time>2026-04-26T12:06:09.363Z</time></trkpt><trkpt lat="46.4589547" lon="10.3940145"><ele>1502.25</ele><time>2026-04-26T12:06:10.36Z</time></trkpt><trkpt lat="46.4589456" lon="10.3942343"><ele>1504.5</ele><time>2026-04-26T12:06:11.364Z</time></trkpt><trkpt lat="46.4589515" lon="10.3944493"><ele>1506.75</ele><time>2026-04-26T12:06:12.367Z</time></trkpt><trkpt lat="46.4589606" lon="10.394637"><ele>1509.0</ele><time>2026-04-26T12:06:13.361Z</time></trkpt><trkpt lat="46.4589628" lon="10.3947992"><ele>1510.6</ele><time>2026-04-26T12:06:14.361Z</time></trkpt><trkpt lat="46.4589728" lon="10.3949403"><ele>1512.2</ele><time>2026-04-26T12:06:15.365Z</time></trkpt><trkpt lat="46.4589762" lon="10.3950473"><ele>1513.8</ele><time>2026-04-26T12:06:16.359Z</time></trkpt><trkpt lat="46.4588888" lon="10.3951598"><ele>1515.3999999999999</ele><time>2026-04-26T12:06:18.364Z</time></trkpt><trkpt lat="46.4587938" lon="10.3952241"><ele>1517.0</ele><time>2026-04-26T12:06:19.366Z</time></trkpt><trkpt lat="46.4587293" lon="10.3953053"><ele>1521.8</ele><time>2026-04-26T12:06:20.368Z</time></trkpt><trkpt lat="46.4586917" lon="10.3954019"><ele>1526.6</ele><time>2026-04-26T12:06:21.364Z</time></trkpt><trkpt lat="46.4586612" lon="10.3955278"><ele>1531.3999999999999</ele><time>2026-04-26T12:06:22.358Z</time></trkpt><trkpt lat="46.4586306" lon="10.3956886"><ele>1536.1999999999998</ele><time>2026-04-26T12:06:23.358Z</time></trkpt><trkpt lat="46.4586175" lon="10.3959164"><ele>1541.0</ele><time>2026-04-26T12:06:24.366Z</time></trkpt><trkpt lat="46.4586031" lon="10.3961682"><ele>1541.6666666666665</ele><time>2026-04-26T12:06:25.361Z</time></trkpt><trkpt lat="46.4585864" lon="10.3964188"><ele>1542.3333333333335</ele><time>2026-04-26T12:06:26.361Z</time></trkpt><trkpt lat="46.45857" lon="10.3966489"><ele>1543.0</ele><time>2026-04-26T12:06:27.368Z</time></trkpt><trkpt lat="46.4585423" lon="10.3968439"><ele>1543.0</ele><time>2026-04-26T12:06:28.361Z</time></trkpt><trkpt lat="46.4585025" lon="10.3970339"><ele>1543.0</ele><time>2026-04-26T12:06:29.361Z</time></trkpt><trkpt lat="46.4584117" lon="10.3971629"><ele>1543.0</ele><time>2026-04-26T12:06:30.36Z</time></trkpt><trkpt lat="46.4583309" lon="10.3972804"><ele>1543.0</ele><time>2026-04-26T12:06:31.363Z</time></trkpt><trkpt lat="46.4582903" lon="10.3974047"><ele>1544.0</ele><time>2026-04-26T12:06:34.361Z</time></trkpt><trkpt lat="46.4582743" lon="10.3975071"><ele>1545.0</ele><time>2026-04-26T12:06:35.367Z</time></trkpt><trkpt lat="46.4582543" lon="10.3976565"><ele>1546.0</ele><time>2026-04-26T12:06:36.368Z</time></trkpt><trkpt lat="46.4582435" lon="10.3978118"><ele>1547.0</ele><time>2026-04-26T12:06:37.359Z</time></trkpt><trkpt lat="46.4582615" lon="10.3979808"><ele>1548.0</ele><time>2026-04-26T12:06:38.361Z</time></trkpt><trkpt lat="46.4583007" lon="10.3981594"><ele>1548.0</ele><time>2026-04-26T12:06:39.368Z</time></trkpt><trkpt lat="46.4583515" lon="10.3983566"><ele>1548.0</ele><time>2026-04-26T12:06:40.364Z</time></trkpt><trkpt lat="46.4584" lon="10.3985276"><ele>1548.0</ele><time>2026-04-26T12:06:41.36Z</time></trkpt><trkpt lat="46.4584258" lon="10.3986937"><ele>1548.0</ele><time>2026-04-26T12:06:42.358Z</time></trkpt><trkpt lat="46.4584472" lon="10.3988972"><ele>1551.75</ele><time>2026-04-26T12:06:43.37Z</time></trkpt><trkpt lat="46.4584711" lon="10.3991242"><ele>1555.5</ele><time>2026-04-26T12:06:44.362Z</time></trkpt><trkpt lat="46.4584949" lon="10.3993342"><ele>1559.25</ele><time>2026-04-26T12:06:45.366Z</time></trkpt><trkpt lat="46.4585167" lon="10.3995265"><ele>1563.0</ele><time>2026-04-26T12:06:46.363Z</time></trkpt><trkpt lat="46.4585387" lon="10.3997059"><ele>1564.2</ele><time>2026-04-26T12:06:47.365Z</time></trkpt><trkpt lat="46.4585487" lon="10.3998702"><ele>1565.4</ele><time>2026-04-26T12:06:48.365Z</time></trkpt><trkpt lat="46.4585573" lon="10.4000098"><ele>1566.6000000000001</ele><time>2026-04-26T12:06:49.372Z</time></trkpt><trkpt lat="46.45853" lon="10.400137"><ele>1567.8000000000002</ele><time>2026-04-26T12:06:50.364Z</time></trkpt><trkpt lat="46.4584826" lon="10.4002393"><ele>1569.0</ele><time>2026-04-26T12:06:51.367Z</time></trkpt><trkpt lat="46.458419" lon="10.4003375"><ele>1569.0</ele><time>2026-04-26T12:06:52.367Z</time></trkpt><trkpt lat="46.4582562" lon="10.4004435"><ele>1569.0</ele><time>2026-04-26T12:06:53.361Z</time></trkpt><trkpt lat="46.4581216" lon="10.4005686"><ele>1569.0</ele><time>2026-04-26T12:06:54.365Z</time></trkpt><trkpt lat="46.4580045" lon="10.400716"><ele>1577.6666666666665</ele><time>2026-04-26T12:06:55.363Z</time></trkpt><trkpt lat="46.457914" lon="10.4008782"><ele>1586.3333333333333</ele><time>2026-04-26T12:06:56.375Z</time></trkpt><trkpt lat="46.4578196" lon="10.4010495"><ele>1595.0</ele><time>2026-04-26T12:06:57.361Z</time></trkpt><trkpt lat="46.4577115" lon="10.4012175"><ele>1590.3333333333333</ele><time>2026-04-26T12:06:58.361Z</time></trkpt><trkpt lat="46.4576034" lon="10.4014087"><ele>1585.6666666666665</ele><time>2026-04-26T12:06:59.362Z</time></trkpt><trkpt lat="46.4575048" lon="10.4016033"><ele>1581.0</ele><time>2026-04-26T12:07:00.361Z</time></trkpt><trkpt lat="46.4574187" lon="10.4017611"><ele>1581.0</ele><time>2026-04-26T12:07:01.366Z</time></trkpt><trkpt lat="46.4573451" lon="10.4018746"><ele>1581.0</ele><time>2026-04-26T12:07:02.361Z</time></trkpt><trkpt lat="46.4572759" lon="10.4019579"><ele>1581.0</ele><time>2026-04-26T12:07:03.362Z</time></trkpt><trkpt lat="46.4572036" lon="10.4020126"><ele>1581.0</ele><time>2026-04-26T12:07:04.362Z</time></trkpt><trkpt lat="46.4570923" lon="10.4020202"><ele>1581.0</ele><time>2026-04-26T12:07:06.364Z</time></trkpt><trkpt lat="46.4569716" lon="10.4020753"><ele>1584.0</ele><time>2026-04-26T12:07:08.358Z</time></trkpt><trkpt lat="46.4569065" lon="10.402136"><ele>1587.0</ele><time>2026-04-26T12:07:09.365Z</time></trkpt><trkpt lat="46.4568622" lon="10.4022272"><ele>1590.0</ele><time>2026-04-26T12:07:10.363Z</time></trkpt><trkpt lat="46.456817" lon="10.4023335"><ele>1593.0</ele><time>2026-04-26T12:07:11.361Z</time></trkpt><trkpt lat="46.4567748" lon="10.4024595"><ele>1596.0</ele><time>2026-04-26T12:07:12.361Z</time></trkpt><trkpt lat="46.4567255" lon="10.402577"><ele>1599.0</ele><time>2026-04-26T12:07:13.368Z</time></trkpt><trkpt lat="46.4566705" lon="10.4026848"><ele>1599.0</ele><time>2026-04-26T12:07:14.361Z</time></trkpt><trkpt lat="46.4566072" lon="10.4027782"><ele>1599.0</ele><time>2026-04-26T12:07:15.362Z</time></trkpt><trkpt lat="46.4565339" lon="10.4028615"><ele>1599.0</ele><time>2026-04-26T12:07:16.364Z</time></trkpt><trkpt lat="46.4564673" lon="10.4029569"><ele>1599.0</ele><time>2026-04-26T12:07:17.361Z</time></trkpt><trkpt lat="46.4564044" lon="10.4030554"><ele>1599.0</ele><time>2026-04-26T12:07:18.363Z</time></trkpt><trkpt lat="46.4563286" lon="10.4031896"><ele>1606.25</ele><time>2026-04-26T12:07:19.36Z</time></trkpt><trkpt lat="46.4562398" lon="10.4033637"><ele>1613.5</ele><time>2026-04-26T12:07:20.361Z</time></trkpt><trkpt lat="46.4561539" lon="10.4035347"><ele>1620.75</ele><time>2026-04-26T12:07:21.364Z</time></trkpt><trkpt lat="46.4560838" lon="10.403681"><ele>1628.0</ele><time>2026-04-26T12:07:22.36Z</time></trkpt><trkpt lat="46.4560257" lon="10.4038003"><ele>1627.9999999999998</ele><time>2026-04-26T12:07:23.362Z</time></trkpt><trkpt lat="46.4559445" lon="10.4038147"><ele>1628.0</ele><time>2026-04-26T12:07:25.366Z</time></trkpt><trkpt lat="46.4558657" lon="10.4038502"><ele>1628.0</ele><time>2026-04-26T12:07:27.362Z</time></trkpt><trkpt lat="46.4558471" lon="10.4039423"><ele>1628.0</ele><time>2026-04-26T12:07:30.359Z</time></trkpt><trkpt lat="46.4558544" lon="10.4040576"><ele>1627.9999999999998</ele><time>2026-04-26T12:07:33.367Z</time></trkpt><trkpt lat="46.4558619" lon="10.4041689"><ele>1628.0</ele><time>2026-04-26T12:07:36.36Z</time></trkpt><trkpt lat="46.4559815" lon="10.4044348"><ele>1625.0</ele><time>2026-04-26T12:07:38.367Z</time></trkpt><trkpt lat="46.4561047" lon="10.4049109"><ele>1622.0</ele><time>2026-04-26T12:07:39.358Z</time></trkpt><trkpt lat="46.4562589" lon="10.4052783"><ele>1613.0</ele><time>2026-04-26T12:07:40.359Z</time></trkpt><trkpt lat="46.4563936" lon="10.4055353"><ele>1604.0</ele><time>2026-04-26T12:07:41.356Z</time></trkpt><trkpt lat="46.4564985" lon="10.4057248"><ele>1595.0</ele><time>2026-04-26T12:07:42.367Z</time></trkpt><trkpt lat="46.4565841" lon="10.405891"><ele>1595.0</ele><time>2026-04-26T12:07:43.361Z</time></trkpt><trkpt lat="46.4566678" lon="10.4060429"><ele>1595.0</ele><time>2026-04-26T12:07:44.367Z</time></trkpt><trkpt lat="46.45675" lon="10.4062076"><ele>1595.0</ele><time>2026-04-26T12:07:45.365Z</time></trkpt><trkpt lat="46.4568323" lon="10.4063505"><ele>1595.0</ele><time>2026-04-26T12:07:46.365Z</time></trkpt><trkpt lat="46.4569229" lon="10.4064644"><ele>1598.4999999999998</ele><time>2026-04-26T12:07:47.359Z</time></trkpt><trkpt lat="46.4570076" lon="10.4065418"><ele>1602.0</ele><time>2026-04-26T12:07:48.361Z</time></trkpt><trkpt lat="46.4570709" lon="10.4065979"><ele>1605.5</ele><time>2026-04-26T12:07:49.359Z</time></trkpt><trkpt lat="46.4571291" lon="10.4066624"><ele>1609.0</ele><time>2026-04-26T12:07:50.362Z</time></trkpt><trkpt lat="46.4571884" lon="10.4067584"><ele>1612.4999999999998</ele><time>2026-04-26T12:07:51.36Z</time></trkpt><trkpt lat="46.457196" lon="10.4068797"><ele>1616.0</ele><time>2026-04-26T12:07:52.358Z</time></trkpt><trkpt lat="46.457196" lon="10.4070032"><ele>1609.6</ele><time>2026-04-26T12:07:53.36Z</time></trkpt><trkpt lat="46.4571768" lon="10.4071382"><ele>1603.1999999999998</ele><time>2026-04-26T12:07:54.369Z</time></trkpt><trkpt lat="46.4571813" lon="10.4072745"><ele>1596.8000000000002</ele><time>2026-04-26T12:07:55.36Z</time></trkpt><trkpt lat="46.4572151" lon="10.4074347"><ele>1590.4</ele><time>2026-04-26T12:07:56.361Z</time></trkpt><trkpt lat="46.4572712" lon="10.407592"><ele>1584.0</ele><time>2026-04-26T12:07:57.366Z</time></trkpt><trkpt lat="46.4573277" lon="10.4077251"><ele>1584.0</ele><time>2026-04-26T12:07:58.367Z</time></trkpt><trkpt lat="46.457342" lon="10.4078436"><ele>1584.0</ele><time>2026-04-26T12:07:59.36Z</time></trkpt><trkpt lat="46.4573312" lon="10.4079707"><ele>1584.0</ele><time>2026-04-26T12:08:00.367Z</time></trkpt><trkpt lat="46.4573082" lon="10.4081194"><ele>1584.0</ele><time>2026-04-26T12:08:01.373Z</time></trkpt><trkpt lat="46.4572756" lon="10.4082843"><ele>1584.0</ele><time>2026-04-26T12:08:02.367Z</time></trkpt><trkpt lat="46.4572133" lon="10.4084575"><ele>1583.5</ele><time>2026-04-26T12:08:03.361Z</time></trkpt><trkpt lat="46.4571301" lon="10.4086537"><ele>1583.0</ele><time>2026-04-26T12:08:04.361Z</time></trkpt><trkpt lat="46.4570582" lon="10.4088493"><ele>1582.5</ele><time>2026-04-26T12:08:05.363Z</time></trkpt><trkpt lat="46.4570071" lon="10.4090193"><ele>1582.0</ele><time>2026-04-26T12:08:06.362Z</time></trkpt><trkpt lat="46.4569762" lon="10.4091959"><ele>1585.75</ele><time>2026-04-26T12:08:07.362Z</time></trkpt><trkpt lat="46.4569547" lon="10.4093966"><ele>1589.5</ele><time>2026-04-26T12:08:08.36Z</time></trkpt><trkpt lat="46.4569343" lon="10.4096079"><ele>1593.25</ele><time>2026-04-26T12:08:09.361Z</time></trkpt><trkpt lat="46.4569098" lon="10.4098244"><ele>1597.0</ele><time>2026-04-26T12:08:10.358Z</time></trkpt><trkpt lat="46.4569069" lon="10.4100001"><ele>1597.0</ele><time>2026-04-26T12:08:11.361Z</time></trkpt><trkpt lat="46.4569136" lon="10.4101438"><ele>1597.0</ele><time>2026-04-26T12:08:12.362Z</time></trkpt><trkpt lat="46.456916" lon="10.410248"><ele>1597.0</ele><time>2026-04-26T12:08:13.36Z</time></trkpt><trkpt lat="46.4568599" lon="10.4104173"><ele>1597.0</ele><time>2026-04-26T12:08:15.362Z</time></trkpt><trkpt lat="46.4567997" lon="10.4104952"><ele>1597.0</ele><time>2026-04-26T12:08:16.365Z</time></trkpt><trkpt lat="46.4567266" lon="10.4105568"><ele>1595.3999999999999</ele><time>2026-04-26T12:08:17.36Z</time></trkpt><trkpt lat="46.4566197" lon="10.4106347"><ele>1593.8</ele><time>2026-04-26T12:08:18.361Z</time></trkpt><trkpt lat="46.4565169" lon="10.4107249"><ele>1592.2</ele><time>2026-04-26T12:08:19.363Z</time></trkpt><trkpt lat="46.4564482" lon="10.4108136"><ele>1590.6</ele><time>2026-04-26T12:08:20.362Z</time></trkpt><trkpt lat="46.4564038" lon="10.4108989"><ele>1589.0</ele><time>2026-04-26T12:08:21.364Z</time></trkpt><trkpt lat="46.4563855" lon="10.4110079"><ele>1589.0</ele><time>2026-04-26T12:08:22.361Z</time></trkpt><trkpt lat="46.4563984" lon="10.4111496"><ele>1589.0</ele><time>2026-04-26T12:08:23.362Z</time></trkpt><trkpt lat="46.4564492" lon="10.4113275"><ele>1589.0</ele><time>2026-04-26T12:08:24.364Z</time></trkpt><trkpt lat="46.4566152" lon="10.4114824"><ele>1589.0</ele><time>2026-04-26T12:08:25.363Z</time></trkpt><trkpt lat="46.4567253" lon="10.4116123"><ele>1588.75</ele><time>2026-04-26T12:08:26.363Z</time></trkpt><trkpt lat="46.4567878" lon="10.4117391"><ele>1588.5</ele><time>2026-04-26T12:08:27.361Z</time></trkpt><trkpt lat="46.4568243" lon="10.4118893"><ele>1588.25</ele><time>2026-04-26T12:08:28.363Z</time></trkpt><trkpt lat="46.4568544" lon="10.4120573"><ele>1588.0</ele><time>2026-04-26T12:08:29.364Z</time></trkpt><trkpt lat="46.4568894" lon="10.4122552"><ele>1588.0</ele><time>2026-04-26T12:08:30.365Z</time></trkpt><trkpt lat="46.4569814" lon="10.41245"><ele>1588.0</ele><time>2026-04-26T12:08:31.366Z</time></trkpt><trkpt lat="46.4570764" lon="10.412609"><ele>1588.0</ele><time>2026-04-26T12:08:32.36Z</time></trkpt><trkpt lat="46.4571506" lon="10.4127366"><ele>1588.0</ele><time>2026-04-26T12:08:33.361Z</time></trkpt><trkpt lat="46.4571978" lon="10.412862"><ele>1580.0</ele><time>2026-04-26T12:08:34.359Z</time></trkpt><trkpt lat="46.457227" lon="10.4129801"><ele>1572.0</ele><time>2026-04-26T12:08:35.365Z</time></trkpt><trkpt lat="46.4572241" lon="10.4131391"><ele>1564.0</ele><time>2026-04-26T12:08:36.366Z</time></trkpt><trkpt lat="46.4572165" lon="10.4132825"><ele>1556.0</ele><time>2026-04-26T12:08:37.362Z</time></trkpt><trkpt lat="46.4572162" lon="10.41342"><ele>1548.0</ele><time>2026-04-26T12:08:38.362Z</time></trkpt><trkpt lat="46.4572754" lon="10.4135401"><ele>1548.0</ele><time>2026-04-26T12:08:39.366Z</time></trkpt><trkpt lat="46.4573607" lon="10.4136596"><ele>1548.0</ele><time>2026-04-26T12:08:40.361Z</time></trkpt><trkpt lat="46.4574485" lon="10.4138059"><ele>1548.0</ele><time>2026-04-26T12:08:41.36Z</time></trkpt><trkpt lat="46.4575427" lon="10.4139627"><ele>1548.0</ele><time>2026-04-26T12:08:42.361Z</time></trkpt><trkpt lat="46.4576348" lon="10.4141178"><ele>1547.8333333333333</ele><time>2026-04-26T12:08:43.363Z</time></trkpt><trkpt lat="46.4577129" lon="10.4142293"><ele>1547.6666666666665</ele><time>2026-04-26T12:08:44.362Z</time></trkpt><trkpt lat="46.4577645" lon="10.4143231"><ele>1547.5</ele><time>2026-04-26T12:08:45.363Z</time></trkpt><trkpt lat="46.4578042" lon="10.4144026"><ele>1547.3333333333333</ele><time>2026-04-26T12:08:46.365Z</time></trkpt><trkpt lat="46.4577844" lon="10.4145344"><ele>1547.1666666666665</ele><time>2026-04-26T12:08:48.36Z</time></trkpt><trkpt lat="46.4577491" lon="10.4146245"><ele>1547.0</ele><time>2026-04-26T12:08:49.366Z</time></trkpt><trkpt lat="46.4576702" lon="10.4147065"><ele>1541.25</ele><time>2026-04-26T12:08:50.364Z</time></trkpt><trkpt lat="46.457579" lon="10.4147783"><ele>1535.5</ele><time>2026-04-26T12:08:51.371Z</time></trkpt><trkpt lat="46.4574359" lon="10.4148492"><ele>1529.75</ele><time>2026-04-26T12:08:52.365Z</time></trkpt><trkpt lat="46.4573024" lon="10.4149338"><ele>1524.0</ele><time>2026-04-26T12:08:53.364Z</time></trkpt><trkpt lat="46.4571859" lon="10.4150715"><ele>1526.6</ele><time>2026-04-26T12:08:54.365Z</time></trkpt><trkpt lat="46.4570852" lon="10.4151399"><ele>1529.2</ele><time>2026-04-26T12:08:55.359Z</time></trkpt><trkpt lat="46.4569815" lon="10.415192"><ele>1531.8</ele><time>2026-04-26T12:08:56.364Z</time></trkpt><trkpt lat="46.4569022" lon="10.4152266"><ele>1534.3999999999999</ele><time>2026-04-26T12:08:57.362Z</time></trkpt><trkpt lat="46.4568152" lon="10.4152466"><ele>1537.0</ele><time>2026-04-26T12:08:58.366Z</time></trkpt><trkpt lat="46.4567143" lon="10.4152253"><ele>1537.0</ele><time>2026-04-26T12:08:59.364Z</time></trkpt><trkpt lat="46.4565841" lon="10.4152031"><ele>1537.0</ele><time>2026-04-26T12:09:00.361Z</time></trkpt><trkpt lat="46.4564526" lon="10.4151547"><ele>1537.0</ele><time>2026-04-26T12:09:01.364Z</time></trkpt><trkpt lat="46.4563434" lon="10.4151326"><ele>1537.0</ele><time>2026-04-26T12:09:02.363Z</time></trkpt><trkpt lat="46.45624" lon="10.4151411"><ele>1538.5</ele><time>2026-04-26T12:09:03.36Z</time></trkpt><trkpt lat="46.4561232" lon="10.4151884"><ele>1540.0</ele><time>2026-04-26T12:09:04.366Z</time></trkpt><trkpt lat="46.4560237" lon="10.4151822"><ele>1541.5</ele><time>2026-04-26T12:09:05.363Z</time></trkpt><trkpt lat="46.4558839" lon="10.4152364"><ele>1543.0</ele><time>2026-04-26T12:09:06.363Z</time></trkpt><trkpt lat="46.4556932" lon="10.4153624"><ele>1543.0</ele><time>2026-04-26T12:09:07.36Z</time></trkpt><trkpt lat="46.4555327" lon="10.4154237"><ele>1543.0</ele><time>2026-04-26T12:09:08.365Z</time></trkpt><trkpt lat="46.455389" lon="10.4154913"><ele>1543.0</ele><time>2026-04-26T12:09:09.36Z</time></trkpt><trkpt lat="46.4552882" lon="10.4155532"><ele>1543.0</ele><time>2026-04-26T12:09:10.361Z</time></trkpt><trkpt lat="46.4551662" lon="10.4155902"><ele>1541.6666666666667</ele><time>2026-04-26T12:09:11.358Z</time></trkpt><trkpt lat="46.4550694" lon="10.4155982"><ele>1540.3333333333335</ele><time>2026-04-26T12:09:12.359Z</time></trkpt><trkpt lat="46.4549921" lon="10.4156043"><ele>1539.0</ele><time>2026-04-26T12:09:13.36Z</time></trkpt><trkpt lat="46.4549102" lon="10.4156152"><ele>1537.6666666666667</ele><time>2026-04-26T12:09:14.361Z</time></trkpt><trkpt lat="46.4548253" lon="10.4156326"><ele>1536.3333333333335</ele><time>2026-04-26T12:09:16.369Z</time></trkpt><trkpt lat="46.4547375" lon="10.4156508"><ele>1535.0</ele><time>2026-04-26T12:09:17.361Z</time></trkpt><trkpt lat="46.4546598" lon="10.4157661"><ele>1535.0</ele><time>2026-04-26T12:09:19.361Z</time></trkpt><trkpt lat="46.4546765" lon="10.4159756"><ele>1535.0</ele><time>2026-04-26T12:09:21.36Z</time></trkpt><trkpt lat="46.4547144" lon="10.4161319"><ele>1535.0</ele><time>2026-04-26T12:09:22.36Z</time></trkpt><trkpt lat="46.4547947" lon="10.4162754"><ele>1535.0</ele><time>2026-04-26T12:09:23.358Z</time></trkpt><trkpt lat="46.4549076" lon="10.4164118"><ele>1535.0</ele><time>2026-04-26T12:09:24.361Z</time></trkpt><trkpt lat="46.4550246" lon="10.416403"><ele>1535.0</ele><time>2026-04-26T12:09:25.361Z</time></trkpt><trkpt lat="46.4551739" lon="10.4163204"><ele>1535.0</ele><time>2026-04-26T12:09:26.359Z</time></trkpt><trkpt lat="46.4552879" lon="10.4162951"><ele>1535.0</ele><time>2026-04-26T12:09:27.359Z</time></trkpt><trkpt lat="46.4554039" lon="10.4163016"><ele>1530.0</ele><time>2026-04-26T12:09:28.358Z</time></trkpt><trkpt lat="46.4554848" lon="10.4162699"><ele>1525.0</ele><time>2026-04-26T12:09:29.36Z</time></trkpt><trkpt lat="46.4555927" lon="10.4162946"><ele>1520.0</ele><time>2026-04-26T12:09:30.358Z</time></trkpt><trkpt lat="46.4556598" lon="10.4163704"><ele>1515.0</ele><time>2026-04-26T12:09:31.36Z</time></trkpt><trkpt lat="46.4557605" lon="10.4165743"><ele>1515.0</ele><time>2026-04-26T12:09:32.368Z</time></trkpt><trkpt lat="46.4558661" lon="10.4167045"><ele>1515.0</ele><time>2026-04-26T12:09:33.359Z</time></trkpt><trkpt lat="46.4559672" lon="10.4168518"><ele>1515.0</ele><time>2026-04-26T12:09:34.361Z</time></trkpt><trkpt lat="46.4560755" lon="10.416958"><ele>1515.0</ele><time>2026-04-26T12:09:35.361Z</time></trkpt><trkpt lat="46.4561508" lon="10.4170468"><ele>1511.0</ele><time>2026-04-26T12:09:36.362Z</time></trkpt><trkpt lat="46.4562213" lon="10.4171986"><ele>1507.0</ele><time>2026-04-26T12:09:37.366Z</time></trkpt><trkpt lat="46.4563034" lon="10.4173213"><ele>1503.0</ele><time>2026-04-26T12:09:38.365Z</time></trkpt><trkpt lat="46.45643" lon="10.4174976"><ele>1499.0</ele><time>2026-04-26T12:09:39.358Z</time></trkpt><trkpt lat="46.4565249" lon="10.417678"><ele>1499.0</ele><time>2026-04-26T12:09:40.358Z</time></trkpt><trkpt lat="46.4566432" lon="10.4178084"><ele>1499.0</ele><time>2026-04-26T12:09:41.362Z</time></trkpt><trkpt lat="46.4567546" lon="10.4179521"><ele>1499.0</ele><time>2026-04-26T12:09:42.365Z</time></trkpt><trkpt lat="46.4568405" lon="10.4180907"><ele>1499.0</ele><time>2026-04-26T12:09:43.363Z</time></trkpt><trkpt lat="46.4568902" lon="10.4182262"><ele>1501.4</ele><time>2026-04-26T12:09:44.365Z</time></trkpt><trkpt lat="46.4569384" lon="10.418331"><ele>1503.8000000000002</ele><time>2026-04-26T12:09:45.36Z</time></trkpt><trkpt lat="46.4569418" lon="10.4184878"><ele>1506.1999999999998</ele><time>2026-04-26T12:09:46.363Z</time></trkpt><trkpt lat="46.4569068" lon="10.4186187"><ele>1508.6</ele><time>2026-04-26T12:09:47.36Z</time></trkpt><trkpt lat="46.4568316" lon="10.4187248"><ele>1511.0</ele><time>2026-04-26T12:09:48.372Z</time></trkpt><trkpt lat="46.4567463" lon="10.4188078"><ele>1509.25</ele><time>2026-04-26T12:09:49.362Z</time></trkpt><trkpt lat="46.4565986" lon="10.4189129"><ele>1507.5</ele><time>2026-04-26T12:09:50.36Z</time></trkpt><trkpt lat="46.4564782" lon="10.4190962"><ele>1505.75</ele><time>2026-04-26T12:09:51.362Z</time></trkpt><trkpt lat="46.4564221" lon="10.419228"><ele>1504.0</ele><time>2026-04-26T12:09:52.365Z</time></trkpt><trkpt lat="46.4563721" lon="10.4193077"><ele>1510.25</ele><time>2026-04-26T12:09:53.364Z</time></trkpt><trkpt lat="46.4562641" lon="10.4194184"><ele>1516.5</ele><time>2026-04-26T12:09:54.362Z</time></trkpt><trkpt lat="46.4561635" lon="10.4195375"><ele>1522.75</ele><time>2026-04-26T12:09:55.358Z</time></trkpt><trkpt lat="46.4560707" lon="10.4196903"><ele>1529.0</ele><time>2026-04-26T12:09:56.36Z</time></trkpt><trkpt lat="46.4559663" lon="10.419861"><ele>1529.0</ele><time>2026-04-26T12:09:57.359Z</time></trkpt><trkpt lat="46.455889" lon="10.4199915"><ele>1529.0</ele><time>2026-04-26T12:09:58.361Z</time></trkpt><trkpt lat="46.4557968" lon="10.4201084"><ele>1529.0</ele><time>2026-04-26T12:09:59.36Z</time></trkpt><trkpt lat="46.4557046" lon="10.4202119"><ele>1529.0</ele><time>2026-04-26T12:10:00.366Z</time></trkpt><trkpt lat="46.4556126" lon="10.4203018"><ele>1529.0</ele><time>2026-04-26T12:10:01.363Z</time></trkpt><trkpt lat="46.4555177" lon="10.4203846"><ele>1529.0</ele><time>2026-04-26T12:10:02.375Z</time></trkpt><trkpt lat="46.4553932" lon="10.4204485"><ele>1529.0</ele><time>2026-04-26T12:10:03.362Z</time></trkpt><trkpt lat="46.4551878" lon="10.4205525"><ele>1531.5</ele><time>2026-04-26T12:10:04.366Z</time></trkpt><trkpt lat="46.4550592" lon="10.4206346"><ele>1534.0</ele><time>2026-04-26T12:10:05.362Z</time></trkpt><trkpt lat="46.4549432" lon="10.4207034"><ele>1536.5</ele><time>2026-04-26T12:10:06.361Z</time></trkpt><trkpt lat="46.4548779" lon="10.4208154"><ele>1539.0</ele><time>2026-04-26T12:10:07.364Z</time></trkpt><trkpt lat="46.4548252" lon="10.4209287"><ele>1539.0</ele><time>2026-04-26T12:10:08.357Z</time></trkpt><trkpt lat="46.454765" lon="10.4210308"><ele>1539.0</ele><time>2026-04-26T12:10:09.365Z</time></trkpt><trkpt lat="46.4547211" lon="10.4211196"><ele>1539.0</ele><time>2026-04-26T12:10:10.36Z</time></trkpt><trkpt lat="46.4546576" lon="10.421248"><ele>1539.0</ele><time>2026-04-26T12:10:11.363Z</time></trkpt><trkpt lat="46.4547472" lon="10.4214516"><ele>1539.0</ele><time>2026-04-26T12:10:12.368Z</time></trkpt><trkpt lat="46.4547495" lon="10.4216154"><ele>1537.5</ele><time>2026-04-26T12:10:13.368Z</time></trkpt><trkpt lat="46.4547326" lon="10.4218317"><ele>1536.0</ele><time>2026-04-26T12:10:14.358Z</time></trkpt><trkpt lat="46.4547167" lon="10.4220015"><ele>1534.5</ele><time>2026-04-26T12:10:15.365Z</time></trkpt><trkpt lat="46.4546999" lon="10.4222275"><ele>1533.0</ele><time>2026-04-26T12:10:16.362Z</time></trkpt><trkpt lat="46.4546696" lon="10.4224114"><ele>1532.4</ele><time>2026-04-26T12:10:17.366Z</time></trkpt><trkpt lat="46.4546599" lon="10.4225459"><ele>1531.8000000000002</ele><time>2026-04-26T12:10:18.36Z</time></trkpt><trkpt lat="46.4546458" lon="10.4226801"><ele>1531.2</ele><time>2026-04-26T12:10:19.362Z</time></trkpt><trkpt lat="46.4546102" lon="10.4228669"><ele>1530.6</ele><time>2026-04-26T12:10:20.367Z</time></trkpt><trkpt lat="46.4545864" lon="10.423033"><ele>1530.0</ele><time>2026-04-26T12:10:21.363Z</time></trkpt><trkpt lat="46.4545183" lon="10.423208"><ele>1534.0</ele><time>2026-04-26T12:10:22.373Z</time></trkpt><trkpt lat="46.4544677" lon="10.4233437"><ele>1538.0</ele><time>2026-04-26T12:10:23.365Z</time></trkpt><trkpt lat="46.4544296" lon="10.4234513"><ele>1542.0</ele><time>2026-04-26T12:10:24.361Z</time></trkpt><trkpt lat="46.4543465" lon="10.4235796"><ele>1546.0</ele><time>2026-04-26T12:10:25.362Z</time></trkpt><trkpt lat="46.4542718" lon="10.4237165"><ele>1550.0</ele><time>2026-04-26T12:10:26.357Z</time></trkpt><trkpt lat="46.4541452" lon="10.4238925"><ele>1550.0</ele><time>2026-04-26T12:10:27.363Z</time></trkpt><trkpt lat="46.4540477" lon="10.4240753"><ele>1550.0</ele><time>2026-04-26T12:10:28.366Z</time></trkpt><trkpt lat="46.4539777" lon="10.4242532"><ele>1550.0</ele><time>2026-04-26T12:10:29.36Z</time></trkpt><trkpt lat="46.453906" lon="10.4243602"><ele>1550.0</ele><time>2026-04-26T12:10:30.362Z</time></trkpt><trkpt lat="46.4538303" lon="10.4244503"><ele>1554.2</ele><time>2026-04-26T12:10:31.368Z</time></trkpt><trkpt lat="46.4537603" lon="10.4245114"><ele>1558.4</ele><time>2026-04-26T12:10:32.36Z</time></trkpt><trkpt lat="46.4536339" lon="10.4245332"><ele>1562.6</ele><time>2026-04-26T12:10:33.363Z</time></trkpt><trkpt lat="46.453533" lon="10.4245711"><ele>1566.8</ele><time>2026-04-26T12:10:34.364Z</time></trkpt><trkpt lat="46.4534664" lon="10.4246335"><ele>1571.0</ele><time>2026-04-26T12:10:35.36Z</time></trkpt><trkpt lat="46.4534004" lon="10.4246848"><ele>1571.0</ele><time>2026-04-26T12:10:36.362Z</time></trkpt><trkpt lat="46.4533432" lon="10.4247642"><ele>1571.0</ele><time>2026-04-26T12:10:37.367Z</time></trkpt><trkpt lat="46.4532801" lon="10.4248845"><ele>1571.0</ele><time>2026-04-26T12:10:38.358Z</time></trkpt><trkpt lat="46.4532204" lon="10.4250154"><ele>1571.0</ele><time>2026-04-26T12:10:39.361Z</time></trkpt><trkpt lat="46.4532999" lon="10.4253357"><ele>1568.4</ele><time>2026-04-26T12:10:40.37Z</time></trkpt><trkpt lat="46.4532732" lon="10.425483"><ele>1565.8</ele><time>2026-04-26T12:10:41.361Z</time></trkpt><trkpt lat="46.4532904" lon="10.4256366"><ele>1563.2</ele><time>2026-04-26T12:10:42.359Z</time></trkpt><trkpt lat="46.4532835" lon="10.4257526"><ele>1560.6000000000001</ele><time>2026-04-26T12:10:43.359Z</time></trkpt><trkpt lat="46.4532742" lon="10.4258688"><ele>1558.0</ele><time>2026-04-26T12:10:45.361Z</time></trkpt><trkpt lat="46.4531954" lon="10.4258248"><ele>1558.0</ele><time>2026-04-26T12:10:46.362Z</time></trkpt><trkpt lat="46.4531346" lon="10.4258609"><ele>1558.0</ele><time>2026-04-26T12:10:50.363Z</time></trkpt><trkpt lat="46.4530419" lon="10.4266202"><ele>1560.0</ele><time>2026-04-26T12:10:53.359Z</time></trkpt><trkpt lat="46.4530371" lon="10.4267164"><ele>1562.0</ele><time>2026-04-26T12:10:54.36Z</time></trkpt><trkpt lat="46.4529734" lon="10.4268054"><ele>1564.0</ele><time>2026-04-26T12:10:55.373Z</time></trkpt><trkpt lat="46.4529296" lon="10.4269048"><ele>1566.0</ele><time>2026-04-26T12:10:56.368Z</time></trkpt><trkpt lat="46.4528129" lon="10.4270166"><ele>1568.0</ele><time>2026-04-26T12:10:57.368Z</time></trkpt><trkpt lat="46.4527161" lon="10.427105"><ele>1568.0</ele><time>2026-04-26T12:10:58.359Z</time></trkpt><trkpt lat="46.4526441" lon="10.427177"><ele>1568.0</ele><time>2026-04-26T12:10:59.358Z</time></trkpt><trkpt lat="46.4525676" lon="10.4271489"><ele>1568.0</ele><time>2026-04-26T12:11:00.361Z</time></trkpt><trkpt lat="46.4524721" lon="10.4271728"><ele>1568.0</ele><time>2026-04-26T12:11:01.365Z</time></trkpt><trkpt lat="46.4523463" lon="10.4271887"><ele>1568.0</ele><time>2026-04-26T12:11:02.364Z</time></trkpt><trkpt lat="46.4521988" lon="10.4271126"><ele>1570.5</ele><time>2026-04-26T12:11:03.368Z</time></trkpt><trkpt lat="46.4520492" lon="10.4271157"><ele>1573.0</ele><time>2026-04-26T12:11:04.364Z</time></trkpt><trkpt lat="46.4519032" lon="10.4271266"><ele>1575.5</ele><time>2026-04-26T12:11:05.362Z</time></trkpt><trkpt lat="46.4517518" lon="10.427139"><ele>1578.0</ele><time>2026-04-26T12:11:06.362Z</time></trkpt><trkpt lat="46.4516152" lon="10.4271562"><ele>1578.0</ele><time>2026-04-26T12:11:07.362Z</time></trkpt><trkpt lat="46.4514777" lon="10.4271513"><ele>1578.0</ele><time>2026-04-26T12:11:08.361Z</time></trkpt><trkpt lat="46.4513987" lon="10.4271205"><ele>1578.0</ele><time>2026-04-26T12:11:09.361Z</time></trkpt><trkpt lat="46.4512842" lon="10.4271026"><ele>1578.0</ele><time>2026-04-26T12:11:10.36Z</time></trkpt><trkpt lat="46.4511913" lon="10.4270165"><ele>1578.0</ele><time>2026-04-26T12:11:11.363Z</time></trkpt><trkpt lat="46.4511128" lon="10.4269701"><ele>1578.4</ele><time>2026-04-26T12:11:12.362Z</time></trkpt><trkpt lat="46.4510269" lon="10.4268999"><ele>1578.8000000000002</ele><time>2026-04-26T12:11:13.357Z</time></trkpt><trkpt lat="46.4509231" lon="10.4268433"><ele>1579.2</ele><time>2026-04-26T12:11:14.364Z</time></trkpt><trkpt lat="46.4508241" lon="10.4267944"><ele>1579.6</ele><time>2026-04-26T12:11:15.366Z</time></trkpt><trkpt lat="46.4507105" lon="10.426735"><ele>1580.0</ele><time>2026-04-26T12:11:16.366Z</time></trkpt><trkpt lat="46.4506045" lon="10.4267567"><ele>1580.0</ele><time>2026-04-26T12:11:17.361Z</time></trkpt><trkpt lat="46.4505475" lon="10.4268503"><ele>1580.0</ele><time>2026-04-26T12:11:18.361Z</time></trkpt><trkpt lat="46.4504787" lon="10.4269126"><ele>1580.0</ele><time>2026-04-26T12:11:19.361Z</time></trkpt><trkpt lat="46.4504031" lon="10.4270052"><ele>1580.0</ele><time>2026-04-26T12:11:20.363Z</time></trkpt><trkpt lat="46.4503377" lon="10.4271482"><ele>1580.0</ele><time>2026-04-26T12:11:21.367Z</time></trkpt><trkpt lat="46.4503014" lon="10.4272739"><ele>1586.75</ele><time>2026-04-26T12:11:22.363Z</time></trkpt><trkpt lat="46.450287" lon="10.4274359"><ele>1593.5</ele><time>2026-04-26T12:11:23.362Z</time></trkpt><trkpt lat="46.4502597" lon="10.4275942"><ele>1600.25</ele><time>2026-04-26T12:11:24.361Z</time></trkpt><trkpt lat="46.4502425" lon="10.4277685"><ele>1607.0</ele><time>2026-04-26T12:11:25.362Z</time></trkpt><trkpt lat="46.4502249" lon="10.4279313"><ele>1604.5</ele><time>2026-04-26T12:11:26.36Z</time></trkpt><trkpt lat="46.4501987" lon="10.4281056"><ele>1602.0</ele><time>2026-04-26T12:11:27.366Z</time></trkpt><trkpt lat="46.4501747" lon="10.4282588"><ele>1599.5</ele><time>2026-04-26T12:11:28.363Z</time></trkpt><trkpt lat="46.4501428" lon="10.4284048"><ele>1597.0</ele><time>2026-04-26T12:11:29.362Z</time></trkpt><trkpt lat="46.450131" lon="10.4286023"><ele>1597.0</ele><time>2026-04-26T12:11:30.361Z</time></trkpt><trkpt lat="46.4500927" lon="10.4287614"><ele>1597.0</ele><time>2026-04-26T12:11:31.359Z</time></trkpt><trkpt lat="46.4500756" lon="10.4288667"><ele>1597.0</ele><time>2026-04-26T12:11:32.366Z</time></trkpt><trkpt lat="46.4500107" lon="10.4289459"><ele>1597.0</ele><time>2026-04-26T12:11:33.362Z</time></trkpt><trkpt lat="46.4499676" lon="10.4290564"><ele>1597.0</ele><time>2026-04-26T12:11:34.365Z</time></trkpt><trkpt lat="46.4498695" lon="10.4291762"><ele>1596.0</ele><time>2026-04-26T12:11:35.361Z</time></trkpt><trkpt lat="46.4498337" lon="10.429327"><ele>1595.0</ele><time>2026-04-26T12:11:36.363Z</time></trkpt><trkpt lat="46.4497911" lon="10.4295223"><ele>1594.0</ele><time>2026-04-26T12:11:37.361Z</time></trkpt><trkpt lat="46.4497768" lon="10.4296739"><ele>1593.0</ele><time>2026-04-26T12:11:38.363Z</time></trkpt><trkpt lat="46.4497544" lon="10.4298012"><ele>1592.0</ele><time>2026-04-26T12:11:39.363Z</time></trkpt><trkpt lat="46.4497007" lon="10.4299194"><ele>1589.75</ele><time>2026-04-26T12:11:40.365Z</time></trkpt><trkpt lat="46.4496318" lon="10.4300872"><ele>1587.5</ele><time>2026-04-26T12:11:41.363Z</time></trkpt><trkpt lat="46.4495892" lon="10.4302956"><ele>1585.25</ele><time>2026-04-26T12:11:42.362Z</time></trkpt><trkpt lat="46.4495714" lon="10.4304901"><ele>1583.0</ele><time>2026-04-26T12:11:43.364Z</time></trkpt><trkpt lat="46.4495493" lon="10.4306739"><ele>1589.75</ele><time>2026-04-26T12:11:44.368Z</time></trkpt><trkpt lat="46.4495185" lon="10.4308191"><ele>1596.5</ele><time>2026-04-26T12:11:45.362Z</time></trkpt><trkpt lat="46.4494514" lon="10.4309256"><ele>1603.25</ele><time>2026-04-26T12:11:46.361Z</time></trkpt><trkpt lat="46.449379" lon="10.4310277"><ele>1610.0</ele><time>2026-04-26T12:11:47.359Z</time></trkpt><trkpt lat="46.4492313" lon="10.4310823"><ele>1610.0</ele><time>2026-04-26T12:11:48.359Z</time></trkpt><trkpt lat="46.4491546" lon="10.4311723"><ele>1610.0</ele><time>2026-04-26T12:11:50.365Z</time></trkpt><trkpt lat="46.4490623" lon="10.4312322"><ele>1610.0</ele><time>2026-04-26T12:11:51.364Z</time></trkpt><trkpt lat="46.448937" lon="10.4312551"><ele>1610.0</ele><time>2026-04-26T12:11:52.365Z</time></trkpt><trkpt lat="46.448853" lon="10.4313231"><ele>1610.0</ele><time>2026-04-26T12:11:53.359Z</time></trkpt><trkpt lat="46.4487594" lon="10.4313891"><ele>1609.0</ele><time>2026-04-26T12:11:54.362Z</time></trkpt><trkpt lat="46.4486294" lon="10.4314758"><ele>1608.0</ele><time>2026-04-26T12:11:56.363Z</time></trkpt><trkpt lat="46.44851" lon="10.4315229"><ele>1607.0</ele><time>2026-04-26T12:11:57.363Z</time></trkpt><trkpt lat="46.4484075" lon="10.4315405"><ele>1606.0</ele><time>2026-04-26T12:11:58.36Z</time></trkpt><trkpt lat="46.4483029" lon="10.4315143"><ele>1606.0</ele><time>2026-04-26T12:11:59.361Z</time></trkpt><trkpt lat="46.4482045" lon="10.4315141"><ele>1606.0</ele><time>2026-04-26T12:12:00.364Z</time></trkpt><trkpt lat="46.4481422" lon="10.4314972"><ele>1606.0</ele><time>2026-04-26T12:12:01.364Z</time></trkpt><trkpt lat="46.4480517" lon="10.4315022"><ele>1606.0</ele><time>2026-04-26T12:12:02.359Z</time></trkpt><trkpt lat="46.4479897" lon="10.4316136"><ele>1606.0</ele><time>2026-04-26T12:12:03.358Z</time></trkpt><trkpt lat="46.4479054" lon="10.4317134"><ele>1610.5</ele><time>2026-04-26T12:12:04.361Z</time></trkpt><trkpt lat="46.4478272" lon="10.4317651"><ele>1615.0</ele><time>2026-04-26T12:12:06.365Z</time></trkpt><trkpt lat="46.4476714" lon="10.4318135"><ele>1619.5</ele><time>2026-04-26T12:12:08.362Z</time></trkpt><trkpt lat="46.4475753" lon="10.4318311"><ele>1624.0</ele><time>2026-04-26T12:12:09.368Z</time></trkpt><trkpt lat="46.4474619" lon="10.4318375"><ele>1624.0</ele><time>2026-04-26T12:12:10.371Z</time></trkpt><trkpt lat="46.4473193" lon="10.4318898"><ele>1624.0</ele><time>2026-04-26T12:12:11.362Z</time></trkpt><trkpt lat="46.447158" lon="10.4319454"><ele>1624.0</ele><time>2026-04-26T12:12:12.357Z</time></trkpt><trkpt lat="46.4470388" lon="10.4320751"><ele>1621.0</ele><time>2026-04-26T12:12:13.366Z</time></trkpt><trkpt lat="46.4469334" lon="10.4321541"><ele>1618.0</ele><time>2026-04-26T12:12:14.36Z</time></trkpt><trkpt lat="46.4467971" lon="10.4322258"><ele>1615.0</ele><time>2026-04-26T12:12:15.365Z</time></trkpt><trkpt lat="46.4466506" lon="10.4322948"><ele>1612.0</ele><time>2026-04-26T12:12:16.358Z</time></trkpt><trkpt lat="46.4465306" lon="10.4323528"><ele>1612.0</ele><time>2026-04-26T12:12:17.359Z</time></trkpt><trkpt lat="46.4464309" lon="10.4324023"><ele>1612.0</ele><time>2026-04-26T12:12:18.36Z</time></trkpt><trkpt lat="46.4463318" lon="10.4324584"><ele>1612.0</ele><time>2026-04-26T12:12:19.361Z</time></trkpt><trkpt lat="46.4462208" lon="10.4324184"><ele>1612.0</ele><time>2026-04-26T12:12:20.363Z</time></trkpt><trkpt lat="46.4460898" lon="10.4324293"><ele>1617.25</ele><time>2026-04-26T12:12:21.359Z</time></trkpt><trkpt lat="46.4459454" lon="10.4324361"><ele>1622.5</ele><time>2026-04-26T12:12:22.358Z</time></trkpt><trkpt lat="46.4458055" lon="10.4324448"><ele>1627.75</ele><time>2026-04-26T12:12:23.358Z</time></trkpt><trkpt lat="46.4456675" lon="10.432455"><ele>1633.0</ele><time>2026-04-26T12:12:24.362Z</time></trkpt><trkpt lat="46.4455394" lon="10.4324725"><ele>1636.0</ele><time>2026-04-26T12:12:25.358Z</time></trkpt><trkpt lat="46.4454194" lon="10.4325208"><ele>1639.0</ele><time>2026-04-26T12:12:26.357Z</time></trkpt><trkpt lat="46.4454609" lon="10.432687"><ele>1642.0</ele><time>2026-04-26T12:12:27.366Z</time></trkpt><trkpt lat="46.4454436" lon="10.4327783"><ele>1645.0</ele><time>2026-04-26T12:12:28.367Z</time></trkpt><trkpt lat="46.4453556" lon="10.4328337"><ele>1648.0</ele><time>2026-04-26T12:12:29.362Z</time></trkpt><trkpt lat="46.445275" lon="10.4328757"><ele>1648.0</ele><time>2026-04-26T12:12:30.37Z</time></trkpt><trkpt lat="46.4451879" lon="10.4328992"><ele>1648.0</ele><time>2026-04-26T12:12:31.364Z</time></trkpt><trkpt lat="46.4450738" lon="10.4329244"><ele>1648.0</ele><time>2026-04-26T12:12:32.366Z</time></trkpt><trkpt lat="46.4449504" lon="10.4329428"><ele>1648.0</ele><time>2026-04-26T12:12:33.36Z</time></trkpt><trkpt lat="46.4448745" lon="10.4329338"><ele>1648.0</ele><time>2026-04-26T12:12:34.37Z</time></trkpt><trkpt lat="46.4447898" lon="10.4328832"><ele>1648.0</ele><time>2026-04-26T12:12:35.363Z</time></trkpt><trkpt lat="46.4446641" lon="10.4326973"><ele>1648.0</ele><time>2026-04-26T12:12:36.363Z</time></trkpt><trkpt lat="46.4445612" lon="10.4326195"><ele>1648.0</ele><time>2026-04-26T12:12:37.36Z</time></trkpt><trkpt lat="46.4444652" lon="10.4325053"><ele>1648.0</ele><time>2026-04-26T12:12:38.36Z</time></trkpt><trkpt lat="46.4444068" lon="10.4324444"><ele>1649.1666666666667</ele><time>2026-04-26T12:12:39.372Z</time></trkpt><trkpt lat="46.4443175" lon="10.4323974"><ele>1650.3333333333335</ele><time>2026-04-26T12:12:40.368Z</time></trkpt><trkpt lat="46.4442521" lon="10.4324134"><ele>1651.5</ele><time>2026-04-26T12:12:41.359Z</time></trkpt><trkpt lat="46.4441684" lon="10.4324576"><ele>1652.6666666666665</ele><time>2026-04-26T12:12:42.364Z</time></trkpt><trkpt lat="46.4440956" lon="10.4325336"><ele>1653.8333333333333</ele><time>2026-04-26T12:12:43.362Z</time></trkpt><trkpt lat="46.4440291" lon="10.4326182"><ele>1655.0</ele><time>2026-04-26T12:12:44.359Z</time></trkpt><trkpt lat="46.4439756" lon="10.4327464"><ele>1655.0</ele><time>2026-04-26T12:12:45.358Z</time></trkpt><trkpt lat="46.443896" lon="10.432876"><ele>1655.0</ele><time>2026-04-26T12:12:46.361Z</time></trkpt><trkpt lat="46.4438236" lon="10.4330068"><ele>1655.0</ele><time>2026-04-26T12:12:47.361Z</time></trkpt><trkpt lat="46.443744" lon="10.4331119"><ele>1655.0</ele><time>2026-04-26T12:12:48.361Z</time></trkpt><trkpt lat="46.443597" lon="10.4332413"><ele>1657.5</ele><time>2026-04-26T12:12:49.37Z</time></trkpt><trkpt lat="46.4435155" lon="10.4333599"><ele>1660.0</ele><time>2026-04-26T12:12:50.363Z</time></trkpt><trkpt lat="46.4434418" lon="10.4334714"><ele>1662.5</ele><time>2026-04-26T12:12:51.359Z</time></trkpt><trkpt lat="46.4433568" lon="10.4336435"><ele>1665.0</ele><time>2026-04-26T12:12:52.361Z</time></trkpt><trkpt lat="46.4433838" lon="10.4338464"><ele>1660.4</ele><time>2026-04-26T12:12:53.362Z</time></trkpt><trkpt lat="46.4433628" lon="10.4339878"><ele>1655.8</ele><time>2026-04-26T12:12:54.361Z</time></trkpt><trkpt lat="46.4433322" lon="10.4341153"><ele>1651.1999999999998</ele><time>2026-04-26T12:12:55.362Z</time></trkpt><trkpt lat="46.4432783" lon="10.4342019"><ele>1646.6</ele><time>2026-04-26T12:12:58.362Z</time></trkpt><trkpt lat="46.4431931" lon="10.4342537"><ele>1642.0</ele><time>2026-04-26T12:13:00.367Z</time></trkpt><trkpt lat="46.4431162" lon="10.4343085"><ele>1642.0</ele><time>2026-04-26T12:13:04.369Z</time></trkpt><trkpt lat="46.4430227" lon="10.4343733"><ele>1642.0</ele><time>2026-04-26T12:13:06.367Z</time></trkpt><trkpt lat="46.4421114" lon="10.4341817"><ele>1650.0000000000002</ele><time>2026-04-26T12:13:07.364Z</time></trkpt><trkpt lat="46.442033" lon="10.4341328"><ele>1658.0</ele><time>2026-04-26T12:13:08.361Z</time></trkpt><trkpt lat="46.4419408" lon="10.4341277"><ele>1666.0</ele><time>2026-04-26T12:13:10.366Z</time></trkpt><trkpt lat="46.441871" lon="10.4341259"><ele>1674.0</ele><time>2026-04-26T12:13:11.367Z</time></trkpt><trkpt lat="46.4418444" lon="10.4342109"><ele>1682.0000000000002</ele><time>2026-04-26T12:13:12.362Z</time></trkpt><trkpt lat="46.441823" lon="10.4343125"><ele>1690.0</ele><time>2026-04-26T12:13:13.365Z</time></trkpt><trkpt lat="46.4418055" lon="10.4344968"><ele>1689.0</ele><time>2026-04-26T12:13:14.37Z</time></trkpt><trkpt lat="46.4417672" lon="10.4346775"><ele>1688.0</ele><time>2026-04-26T12:13:15.367Z</time></trkpt><trkpt lat="46.4417774" lon="10.4348426"><ele>1687.0</ele><time>2026-04-26T12:13:16.364Z</time></trkpt><trkpt lat="46.4417943" lon="10.4350035"><ele>1686.0</ele><time>2026-04-26T12:13:17.372Z</time></trkpt><trkpt lat="46.4418041" lon="10.4351769"><ele>1686.0</ele><time>2026-04-26T12:13:18.36Z</time></trkpt><trkpt lat="46.4418402" lon="10.4353528"><ele>1686.0</ele><time>2026-04-26T12:13:19.358Z</time></trkpt><trkpt lat="46.4418377" lon="10.4355526"><ele>1686.0</ele><time>2026-04-26T12:13:20.364Z</time></trkpt><trkpt lat="46.4418378" lon="10.4357173"><ele>1686.0</ele><time>2026-04-26T12:13:21.361Z</time></trkpt><trkpt lat="46.4418322" lon="10.4359078"><ele>1689.0</ele><time>2026-04-26T12:13:22.659Z</time></trkpt><trkpt lat="46.4417781" lon="10.4363428"><ele>1692.0</ele><time>2026-04-26T12:13:24.36Z</time></trkpt><trkpt lat="46.4417809" lon="10.436514"><ele>1695.0</ele><time>2026-04-26T12:13:25.36Z</time></trkpt><trkpt lat="46.441801" lon="10.4366961"><ele>1695.0</ele><time>2026-04-26T12:13:26.361Z</time></trkpt><trkpt lat="46.4418114" lon="10.4368407"><ele>1695.0</ele><time>2026-04-26T12:13:27.366Z</time></trkpt><trkpt lat="46.441821" lon="10.4369752"><ele>1695.0</ele><time>2026-04-26T12:13:28.364Z</time></trkpt><trkpt lat="46.4418232" lon="10.4371232"><ele>1695.0</ele><time>2026-04-26T12:13:29.362Z</time></trkpt><trkpt lat="46.4418272" lon="10.4372635"><ele>1695.0</ele><time>2026-04-26T12:13:30.367Z</time></trkpt><trkpt lat="46.4418265" lon="10.4373969"><ele>1693.75</ele><time>2026-04-26T12:13:31.362Z</time></trkpt><trkpt lat="46.4418091" lon="10.4375036"><ele>1692.5</ele><time>2026-04-26T12:13:32.382Z</time></trkpt><trkpt lat="46.441729" lon="10.4376692"><ele>1691.25</ele><time>2026-04-26T12:13:41.369Z</time></trkpt><trkpt lat="46.4416496" lon="10.4378011"><ele>1690.0</ele><time>2026-04-26T12:13:42.366Z</time></trkpt><trkpt lat="46.4415637" lon="10.4379651"><ele>1684.6666666666667</ele><time>2026-04-26T12:13:43.359Z</time></trkpt><trkpt lat="46.4414534" lon="10.4381696"><ele>1679.3333333333335</ele><time>2026-04-26T12:13:44.366Z</time></trkpt><trkpt lat="46.4413524" lon="10.4383629"><ele>1674.0</ele><time>2026-04-26T12:13:45.361Z</time></trkpt><trkpt lat="46.4412458" lon="10.4385499"><ele>1678.25</ele><time>2026-04-26T12:13:46.359Z</time></trkpt><trkpt lat="46.441158" lon="10.4387285"><ele>1682.5</ele><time>2026-04-26T12:13:47.366Z</time></trkpt><trkpt lat="46.4410777" lon="10.4388757"><ele>1686.75</ele><time>2026-04-26T12:13:48.359Z</time></trkpt><trkpt lat="46.4410098" lon="10.4390106"><ele>1691.0</ele><time>2026-04-26T12:13:49.359Z</time></trkpt><trkpt lat="46.4409673" lon="10.4390842"><ele>1690.9999999999998</ele><time>2026-04-26T12:13:50.361Z</time></trkpt><trkpt lat="46.4408972" lon="10.4390866"><ele>1691.0</ele><time>2026-04-26T12:13:52.366Z</time></trkpt><trkpt lat="46.440896" lon="10.4389811"><ele>1691.0</ele><time>2026-04-26T12:13:54.365Z</time></trkpt><trkpt lat="46.4409346" lon="10.4388615"><ele>1691.0</ele><time>2026-04-26T12:13:57.365Z</time></trkpt><trkpt lat="46.4409574" lon="10.4387441"><ele>1690.9999999999998</ele><time>2026-04-26T12:13:59.359Z</time></trkpt><trkpt lat="46.4409603" lon="10.4386526"><ele>1691.0</ele><time>2026-04-26T12:14:00.36Z</time></trkpt><trkpt lat="46.4409882" lon="10.4382687"><ele>1728.0</ele><time>2026-04-26T12:14:01.362Z</time></trkpt><trkpt lat="46.4411815" lon="10.4374499"><ele>1728.0</ele><time>2026-04-26T12:14:03.361Z</time></trkpt><trkpt lat="46.4412555" lon="10.4373256"><ele>1728.0</ele><time>2026-04-26T12:14:04.357Z</time></trkpt><trkpt lat="46.4412813" lon="10.437158"><ele>1728.0</ele><time>2026-04-26T12:14:05.357Z</time></trkpt><trkpt lat="46.4412986" lon="10.4369718"><ele>1728.0</ele><time>2026-04-26T12:14:06.361Z</time></trkpt><trkpt lat="46.4413021" lon="10.4368208"><ele>1730.75</ele><time>2026-04-26T12:14:07.362Z</time></trkpt><trkpt lat="46.4412801" lon="10.4366848"><ele>1733.5</ele><time>2026-04-26T12:14:08.364Z</time></trkpt><trkpt lat="46.4412561" lon="10.4365363"><ele>1736.25</ele><time>2026-04-26T12:14:09.362Z</time></trkpt><trkpt lat="46.4412284" lon="10.4363706"><ele>1739.0</ele><time>2026-04-26T12:14:10.362Z</time></trkpt><trkpt lat="46.4411119" lon="10.4361095"><ele>1740.8000000000002</ele><time>2026-04-26T12:14:11.363Z</time></trkpt><trkpt lat="46.4410696" lon="10.4358873"><ele>1742.6000000000001</ele><time>2026-04-26T12:14:12.358Z</time></trkpt><trkpt lat="46.4410359" lon="10.43574"><ele>1744.4</ele><time>2026-04-26T12:14:13.366Z</time></trkpt><trkpt lat="46.441109" lon="10.4356178"><ele>1746.2</ele><time>2026-04-26T12:14:14.363Z</time></trkpt><trkpt lat="46.4410569" lon="10.43555"><ele>1748.0</ele><time>2026-04-26T12:14:16.36Z</time></trkpt><trkpt lat="46.4409966" lon="10.4356038"><ele>1748.0</ele><time>2026-04-26T12:14:18.373Z</time></trkpt><trkpt lat="46.4409479" lon="10.435688"><ele>1748.0</ele><time>2026-04-26T12:14:19.361Z</time></trkpt><trkpt lat="46.4408964" lon="10.435817"><ele>1748.0</ele><time>2026-04-26T12:14:20.367Z</time></trkpt><trkpt lat="46.4408379" lon="10.4359927"><ele>1748.0</ele><time>2026-04-26T12:14:21.363Z</time></trkpt><trkpt lat="46.4407962" lon="10.4361855"><ele>1746.2</ele><time>2026-04-26T12:14:22.361Z</time></trkpt><trkpt lat="46.4407757" lon="10.436373"><ele>1744.4</ele><time>2026-04-26T12:14:23.361Z</time></trkpt><trkpt lat="46.4407757" lon="10.436529"><ele>1742.6000000000001</ele><time>2026-04-26T12:14:24.362Z</time></trkpt><trkpt lat="46.4407723" lon="10.4366723"><ele>1740.8000000000002</ele><time>2026-04-26T12:14:25.359Z</time></trkpt><trkpt lat="46.4407706" lon="10.4368083"><ele>1739.0</ele><time>2026-04-26T12:14:26.362Z</time></trkpt><trkpt lat="46.4407632" lon="10.436946"><ele>1739.0</ele><time>2026-04-26T12:14:27.364Z</time></trkpt><trkpt lat="46.4407394" lon="10.4370636"><ele>1739.0</ele><time>2026-04-26T12:14:28.358Z</time></trkpt><trkpt lat="46.4406723" lon="10.4371651"><ele>1739.0</ele><time>2026-04-26T12:14:29.364Z</time></trkpt><trkpt lat="46.440631" lon="10.4372874"><ele>1739.0</ele><time>2026-04-26T12:14:30.365Z</time></trkpt><trkpt lat="46.4405546" lon="10.4374368"><ele>1739.0</ele><time>2026-04-26T12:14:31.36Z</time></trkpt><trkpt lat="46.4404512" lon="10.4376144"><ele>1743.0</ele><time>2026-04-26T12:14:32.365Z</time></trkpt><trkpt lat="46.4403118" lon="10.4378294"><ele>1747.0</ele><time>2026-04-26T12:14:33.361Z</time></trkpt><trkpt lat="46.4402264" lon="10.4379955"><ele>1751.0</ele><time>2026-04-26T12:14:34.366Z</time></trkpt><trkpt lat="46.4401375" lon="10.438127"><ele>1750.9999999999998</ele><time>2026-04-26T12:14:35.359Z</time></trkpt><trkpt lat="46.4400551" lon="10.4382302"><ele>1751.0</ele><time>2026-04-26T12:14:36.361Z</time></trkpt><trkpt lat="46.4400035" lon="10.4383181"><ele>1751.0</ele><time>2026-04-26T12:14:37.359Z</time></trkpt><trkpt lat="46.4399526" lon="10.4383899"><ele>1751.0</ele><time>2026-04-26T12:14:38.364Z</time></trkpt><trkpt lat="46.4399062" lon="10.4383224"><ele>1750.9999999999998</ele><time>2026-04-26T12:14:40.367Z</time></trkpt><trkpt lat="46.4399031" lon="10.4382224"><ele>1751.0</ele><time>2026-04-26T12:14:41.364Z</time></trkpt><trkpt lat="46.439925" lon="10.4381175"><ele>1751.0</ele><time>2026-04-26T12:14:42.366Z</time></trkpt><trkpt lat="46.439944" lon="10.4379821"><ele>1751.0</ele><time>2026-04-26T12:14:43.366Z</time></trkpt><trkpt lat="46.4399663" lon="10.4378094"><ele>1751.0</ele><time>2026-04-26T12:14:44.373Z</time></trkpt><trkpt lat="46.4399984" lon="10.437592"><ele>1751.0</ele><time>2026-04-26T12:14:45.361Z</time></trkpt><trkpt lat="46.4400438" lon="10.4374147"><ele>1754.6</ele><time>2026-04-26T12:14:46.364Z</time></trkpt><trkpt lat="46.4400691" lon="10.4372741"><ele>1758.1999999999998</ele><time>2026-04-26T12:14:47.362Z</time></trkpt><trkpt lat="46.4400523" lon="10.4371375"><ele>1761.8000000000002</ele><time>2026-04-26T12:14:49.362Z</time></trkpt><trkpt lat="46.4399835" lon="10.4372065"><ele>1765.4</ele><time>2026-04-26T12:14:52.366Z</time></trkpt><trkpt lat="46.4399504" lon="10.4373415"><ele>1769.0</ele><time>2026-04-26T12:14:53.363Z</time></trkpt><trkpt lat="46.4399231" lon="10.4374725"><ele>1769.0</ele><time>2026-04-26T12:14:54.365Z</time></trkpt><trkpt lat="46.4398518" lon="10.4375551"><ele>1769.0</ele><time>2026-04-26T12:14:55.36Z</time></trkpt><trkpt lat="46.439803" lon="10.4376589"><ele>1769.0</ele><time>2026-04-26T12:14:56.365Z</time></trkpt><trkpt lat="46.4396585" lon="10.4377103"><ele>1769.0</ele><time>2026-04-26T12:14:57.363Z</time></trkpt><trkpt lat="46.4395141" lon="10.4377734"><ele>1775.0</ele><time>2026-04-26T12:14:58.36Z</time></trkpt><trkpt lat="46.4393391" lon="10.4378714"><ele>1781.0</ele><time>2026-04-26T12:14:59.363Z</time></trkpt><trkpt lat="46.4391744" lon="10.4379811"><ele>1787.0</ele><time>2026-04-26T12:15:00.364Z</time></trkpt><trkpt lat="46.4390201" lon="10.4380898"><ele>1787.0</ele><time>2026-04-26T12:15:01.362Z</time></trkpt><trkpt lat="46.438908" lon="10.4381839"><ele>1787.0</ele><time>2026-04-26T12:15:02.366Z</time></trkpt><trkpt lat="46.4388035" lon="10.4383237"><ele>1787.0</ele><time>2026-04-26T12:15:03.363Z</time></trkpt><trkpt lat="46.4386977" lon="10.4384641"><ele>1787.0</ele><time>2026-04-26T12:15:04.359Z</time></trkpt><trkpt lat="46.4385847" lon="10.4386193"><ele>1792.0</ele><time>2026-04-26T12:15:05.363Z</time></trkpt><trkpt lat="46.4384525" lon="10.438806"><ele>1797.0</ele><time>2026-04-26T12:15:06.366Z</time></trkpt><trkpt lat="46.4383077" lon="10.4389651"><ele>1802.0</ele><time>2026-04-26T12:15:07.367Z</time></trkpt><trkpt lat="46.4381721" lon="10.4391051"><ele>1802.0</ele><time>2026-04-26T12:15:08.363Z</time></trkpt><trkpt lat="46.438095" lon="10.439249"><ele>1802.0</ele><time>2026-04-26T12:15:09.363Z</time></trkpt><trkpt lat="46.4380092" lon="10.4393874"><ele>1802.0</ele><time>2026-04-26T12:15:10.361Z</time></trkpt><trkpt lat="46.4379285" lon="10.4395495"><ele>1802.0</ele><time>2026-04-26T12:15:11.359Z</time></trkpt><trkpt lat="46.4378745" lon="10.4397159"><ele>1804.0</ele><time>2026-04-26T12:15:12.359Z</time></trkpt><trkpt lat="46.4378214" lon="10.4398875"><ele>1805.9999999999998</ele><time>2026-04-26T12:15:13.365Z</time></trkpt><trkpt lat="46.4377877" lon="10.4400496"><ele>1807.9999999999998</ele><time>2026-04-26T12:15:14.361Z</time></trkpt><trkpt lat="46.4377569" lon="10.4401986"><ele>1810.0</ele><time>2026-04-26T12:15:15.363Z</time></trkpt><trkpt lat="46.4376897" lon="10.4402657"><ele>1812.0</ele><time>2026-04-26T12:15:16.363Z</time></trkpt><trkpt lat="46.4376413" lon="10.4403529"><ele>1811.9999999999998</ele><time>2026-04-26T12:15:17.363Z</time></trkpt><trkpt lat="46.4376013" lon="10.4404312"><ele>1812.0</ele><time>2026-04-26T12:15:18.361Z</time></trkpt><trkpt lat="46.4375519" lon="10.4405113"><ele>1811.9999999999998</ele><time>2026-04-26T12:15:19.364Z</time></trkpt><trkpt lat="46.4375159" lon="10.4405929"><ele>1811.9999999999998</ele><time>2026-04-26T12:15:20.359Z</time></trkpt><trkpt lat="46.4374732" lon="10.4406858"><ele>1812.0</ele><time>2026-04-26T12:15:21.36Z</time></trkpt><trkpt lat="46.4374477" lon="10.4407851"><ele>1811.9999999999998</ele><time>2026-04-26T12:15:22.366Z</time></trkpt><trkpt lat="46.4374103" lon="10.440896"><ele>1811.9999999999998</ele><time>2026-04-26T12:15:23.358Z</time></trkpt><trkpt lat="46.4373652" lon="10.4409921"><ele>1807.5</ele><time>2026-04-26T12:15:24.36Z</time></trkpt><trkpt lat="46.437303" lon="10.4411142"><ele>1803.0</ele><time>2026-04-26T12:15:25.365Z</time></trkpt><trkpt lat="46.4372234" lon="10.4412598"><ele>1798.5</ele><time>2026-04-26T12:15:26.365Z</time></trkpt><trkpt lat="46.4371484" lon="10.4414055"><ele>1794.0</ele><time>2026-04-26T12:15:27.36Z</time></trkpt><trkpt lat="46.4370634" lon="10.4415665"><ele>1793.3333333333335</ele><time>2026-04-26T12:15:28.362Z</time></trkpt><trkpt lat="46.436942" lon="10.4417466"><ele>1792.6666666666667</ele><time>2026-04-26T12:15:29.361Z</time></trkpt><trkpt lat="46.4367893" lon="10.4419131"><ele>1792.0</ele><time>2026-04-26T12:15:30.361Z</time></trkpt><trkpt lat="46.4366604" lon="10.4420588"><ele>1793.0</ele><time>2026-04-26T12:15:31.359Z</time></trkpt><trkpt lat="46.4365122" lon="10.4422249"><ele>1794.0</ele><time>2026-04-26T12:15:32.358Z</time></trkpt><trkpt lat="46.4363706" lon="10.4423873"><ele>1795.0</ele><time>2026-04-26T12:15:33.365Z</time></trkpt><trkpt lat="46.436241" lon="10.4425025"><ele>1795.0</ele><time>2026-04-26T12:15:34.366Z</time></trkpt><trkpt lat="46.4361158" lon="10.4425971"><ele>1795.0</ele><time>2026-04-26T12:15:35.362Z</time></trkpt><trkpt lat="46.4359993" lon="10.4427041"><ele>1795.0</ele><time>2026-04-26T12:15:36.362Z</time></trkpt><trkpt lat="46.4358898" lon="10.4427702"><ele>1795.0</ele><time>2026-04-26T12:15:37.363Z</time></trkpt><trkpt lat="46.4357898" lon="10.4428178"><ele>1789.5</ele><time>2026-04-26T12:15:38.359Z</time></trkpt><trkpt lat="46.4357119" lon="10.4429931"><ele>1784.0</ele><time>2026-04-26T12:15:40.358Z</time></trkpt><trkpt lat="46.4356823" lon="10.4431078"><ele>1778.5</ele><time>2026-04-26T12:15:41.368Z</time></trkpt><trkpt lat="46.4356514" lon="10.4432934"><ele>1773.0</ele><time>2026-04-26T12:15:42.361Z</time></trkpt><trkpt lat="46.4356399" lon="10.4434504"><ele>1773.0</ele><time>2026-04-26T12:15:43.362Z</time></trkpt><trkpt lat="46.4356035" lon="10.44359"><ele>1773.0</ele><time>2026-04-26T12:15:44.36Z</time></trkpt><trkpt lat="46.4355592" lon="10.4437446"><ele>1773.0</ele><time>2026-04-26T12:15:45.361Z</time></trkpt><trkpt lat="46.4354787" lon="10.4438469"><ele>1773.0</ele><time>2026-04-26T12:15:46.359Z</time></trkpt><trkpt lat="46.4353558" lon="10.4439337"><ele>1781.0</ele><time>2026-04-26T12:15:47.36Z</time></trkpt><trkpt lat="46.4352224" lon="10.4441323"><ele>1789.0</ele><time>2026-04-26T12:15:48.362Z</time></trkpt><trkpt lat="46.435129" lon="10.4443364"><ele>1797.0</ele><time>2026-04-26T12:15:49.362Z</time></trkpt><trkpt lat="46.4350163" lon="10.4445274"><ele>1791.3333333333335</ele><time>2026-04-26T12:15:50.371Z</time></trkpt><trkpt lat="46.4349384" lon="10.4447582"><ele>1785.6666666666667</ele><time>2026-04-26T12:15:51.361Z</time></trkpt><trkpt lat="46.434865" lon="10.4449569"><ele>1780.0</ele><time>2026-04-26T12:15:52.361Z</time></trkpt><trkpt lat="46.4347944" lon="10.4451242"><ele>1780.0</ele><time>2026-04-26T12:15:53.359Z</time></trkpt><trkpt lat="46.4347041" lon="10.4452607"><ele>1780.0</ele><time>2026-04-26T12:15:54.359Z</time></trkpt><trkpt lat="46.4346256" lon="10.4453992"><ele>1780.0</ele><time>2026-04-26T12:15:55.362Z</time></trkpt><trkpt lat="46.4345041" lon="10.4455533"><ele>1780.0</ele><time>2026-04-26T12:15:56.371Z</time></trkpt><trkpt lat="46.4343739" lon="10.4457396"><ele>1785.6666666666667</ele><time>2026-04-26T12:15:57.364Z</time></trkpt><trkpt lat="46.4341957" lon="10.4459436"><ele>1791.3333333333335</ele><time>2026-04-26T12:15:58.368Z</time></trkpt><trkpt lat="46.4340374" lon="10.4461147"><ele>1797.0</ele><time>2026-04-26T12:15:59.365Z</time></trkpt><trkpt lat="46.4339066" lon="10.4461931"><ele>1797.0</ele><time>2026-04-26T12:16:00.36Z</time></trkpt><trkpt lat="46.4337695" lon="10.4463054"><ele>1797.0</ele><time>2026-04-26T12:16:01.362Z</time></trkpt><trkpt lat="46.4336715" lon="10.4464008"><ele>1797.0</ele><time>2026-04-26T12:16:02.359Z</time></trkpt><trkpt lat="46.4335571" lon="10.4464701"><ele>1797.0</ele><time>2026-04-26T12:16:03.364Z</time></trkpt><trkpt lat="46.4334166" lon="10.4465558"><ele>1797.0</ele><time>2026-04-26T12:16:04.366Z</time></trkpt><trkpt lat="46.4332773" lon="10.4466429"><ele>1797.0</ele><time>2026-04-26T12:16:05.365Z</time></trkpt><trkpt lat="46.4331512" lon="10.446781"><ele>1797.0</ele><time>2026-04-26T12:16:06.362Z</time></trkpt><trkpt lat="46.4329643" lon="10.4469649"><ele>1794.6666666666665</ele><time>2026-04-26T12:16:07.361Z</time></trkpt><trkpt lat="46.4327873" lon="10.4470932"><ele>1792.3333333333333</ele><time>2026-04-26T12:16:08.362Z</time></trkpt><trkpt lat="46.4326164" lon="10.4472198"><ele>1790.0</ele><time>2026-04-26T12:16:09.366Z</time></trkpt><trkpt lat="46.4324544" lon="10.4473519"><ele>1790.0</ele><time>2026-04-26T12:16:10.364Z</time></trkpt><trkpt lat="46.4323298" lon="10.4475067"><ele>1790.0</ele><time>2026-04-26T12:16:11.363Z</time></trkpt><trkpt lat="46.432222" lon="10.4476814"><ele>1790.0</ele><time>2026-04-26T12:16:12.368Z</time></trkpt><trkpt lat="46.432139" lon="10.4478214"><ele>1788.5</ele><time>2026-04-26T12:16:13.359Z</time></trkpt><trkpt lat="46.4320319" lon="10.4479588"><ele>1787.0</ele><time>2026-04-26T12:16:14.36Z</time></trkpt><trkpt lat="46.4319464" lon="10.4480589"><ele>1785.5</ele><time>2026-04-26T12:16:15.364Z</time></trkpt><trkpt lat="46.4318355" lon="10.448163"><ele>1784.0</ele><time>2026-04-26T12:16:16.363Z</time></trkpt><trkpt lat="46.4317243" lon="10.4482325"><ele>1784.0</ele><time>2026-04-26T12:16:17.367Z</time></trkpt><trkpt lat="46.4316052" lon="10.448338"><ele>1784.0</ele><time>2026-04-26T12:16:18.364Z</time></trkpt><trkpt lat="46.4314833" lon="10.4484618"><ele>1784.0</ele><time>2026-04-26T12:16:19.362Z</time></trkpt><trkpt lat="46.4313186" lon="10.4486103"><ele>1781.0</ele><time>2026-04-26T12:16:20.363Z</time></trkpt><trkpt lat="46.431181" lon="10.4487347"><ele>1778.0</ele><time>2026-04-26T12:16:21.362Z</time></trkpt><trkpt lat="46.431101" lon="10.4488721"><ele>1775.0</ele><time>2026-04-26T12:16:22.365Z</time></trkpt><trkpt lat="46.4310106" lon="10.448988"><ele>1772.0</ele><time>2026-04-26T12:16:23.364Z</time></trkpt><trkpt lat="46.43093" lon="10.4490731"><ele>1772.0</ele><time>2026-04-26T12:16:24.364Z</time></trkpt><trkpt lat="46.4308424" lon="10.449114"><ele>1772.0</ele><time>2026-04-26T12:16:25.365Z</time></trkpt><trkpt lat="46.4307362" lon="10.4491622"><ele>1772.0</ele><time>2026-04-26T12:16:27.363Z</time></trkpt><trkpt lat="46.4309439" lon="10.4492075"><ele>1772.0</ele><time>2026-04-26T12:16:30.366Z</time></trkpt><trkpt lat="46.4310391" lon="10.4492154"><ele>1772.0</ele><time>2026-04-26T12:16:31.37Z</time></trkpt><trkpt lat="46.4311638" lon="10.4491775"><ele>1772.0</ele><time>2026-04-26T12:16:32.367Z</time></trkpt><trkpt lat="46.4313046" lon="10.4491507"><ele>1772.0</ele><time>2026-04-26T12:16:33.361Z</time></trkpt><trkpt lat="46.4314242" lon="10.4491227"><ele>1772.0</ele><time>2026-04-26T12:16:34.359Z</time></trkpt><trkpt lat="46.4315199" lon="10.4490586"><ele>1767.75</ele><time>2026-04-26T12:16:35.362Z</time></trkpt><trkpt lat="46.431625" lon="10.4490171"><ele>1763.5</ele><time>2026-04-26T12:16:37.362Z</time></trkpt><trkpt lat="46.4316243" lon="10.4491446"><ele>1759.25</ele><time>2026-04-26T12:16:39.362Z</time></trkpt><trkpt lat="46.4315374" lon="10.4493318"><ele>1755.0</ele><time>2026-04-26T12:16:41.374Z</time></trkpt><trkpt lat="46.4314378" lon="10.4494246"><ele>1755.0</ele><time>2026-04-26T12:16:42.369Z</time></trkpt><trkpt lat="46.4313546" lon="10.4495405"><ele>1755.0</ele><time>2026-04-26T12:16:43.36Z</time></trkpt><trkpt lat="46.4312571" lon="10.449663"><ele>1755.0</ele><time>2026-04-26T12:16:44.36Z</time></trkpt><trkpt lat="46.4311168" lon="10.4497703"><ele>1755.0</ele><time>2026-04-26T12:16:45.36Z</time></trkpt><trkpt lat="46.4309561" lon="10.4498787"><ele>1757.3333333333335</ele><time>2026-04-26T12:16:46.36Z</time></trkpt><trkpt lat="46.430773" lon="10.4497937"><ele>1759.6666666666667</ele><time>2026-04-26T12:16:47.363Z</time></trkpt><trkpt lat="46.4306329" lon="10.4497993"><ele>1762.0</ele><time>2026-04-26T12:16:48.366Z</time></trkpt><trkpt lat="46.4304743" lon="10.4498519"><ele>1762.0</ele><time>2026-04-26T12:16:49.358Z</time></trkpt><trkpt lat="46.4303492" lon="10.4499862"><ele>1762.0</ele><time>2026-04-26T12:16:50.359Z</time></trkpt><trkpt lat="46.430224" lon="10.4501139"><ele>1762.0</ele><time>2026-04-26T12:16:51.358Z</time></trkpt><trkpt lat="46.4301198" lon="10.4502456"><ele>1762.0</ele><time>2026-04-26T12:16:52.359Z</time></trkpt><trkpt lat="46.4300131" lon="10.4503454"><ele>1762.0</ele><time>2026-04-26T12:16:53.358Z</time></trkpt><trkpt lat="46.4298974" lon="10.4504434"><ele>1762.0</ele><time>2026-04-26T12:16:54.358Z</time></trkpt><trkpt lat="46.4297415" lon="10.4505807"><ele>1762.0</ele><time>2026-04-26T12:16:55.359Z</time></trkpt><trkpt lat="46.4296053" lon="10.4507206"><ele>1760.3333333333335</ele><time>2026-04-26T12:16:56.361Z</time></trkpt><trkpt lat="46.42946" lon="10.4508409"><ele>1758.6666666666665</ele><time>2026-04-26T12:16:57.362Z</time></trkpt><trkpt lat="46.4293236" lon="10.4509121"><ele>1757.0</ele><time>2026-04-26T12:16:58.363Z</time></trkpt><trkpt lat="46.4291676" lon="10.4509699"><ele>1757.0</ele><time>2026-04-26T12:16:59.367Z</time></trkpt><trkpt lat="46.4290262" lon="10.4510689"><ele>1757.0</ele><time>2026-04-26T12:17:00.359Z</time></trkpt><trkpt lat="46.428913" lon="10.4511633"><ele>1757.0</ele><time>2026-04-26T12:17:01.361Z</time></trkpt><trkpt lat="46.4288081" lon="10.4512191"><ele>1757.0</ele><time>2026-04-26T12:17:02.36Z</time></trkpt><trkpt lat="46.4287149" lon="10.4512605"><ele>1756.3999999999999</ele><time>2026-04-26T12:17:03.362Z</time></trkpt><trkpt lat="46.4286559" lon="10.4513786"><ele>1755.7999999999997</ele><time>2026-04-26T12:17:06.364Z</time></trkpt><trkpt lat="46.4285796" lon="10.4513948"><ele>1755.2</ele><time>2026-04-26T12:17:08.361Z</time></trkpt><trkpt lat="46.4284988" lon="10.4514502"><ele>1754.6</ele><time>2026-04-26T12:17:09.367Z</time></trkpt><trkpt lat="46.428402" lon="10.4515093"><ele>1754.0</ele><time>2026-04-26T12:17:10.371Z</time></trkpt><trkpt lat="46.428265" lon="10.4515865"><ele>1753.9999999999998</ele><time>2026-04-26T12:17:11.366Z</time></trkpt><trkpt lat="46.428166" lon="10.4516329"><ele>1754.0</ele><time>2026-04-26T12:17:12.363Z</time></trkpt><trkpt lat="46.4280976" lon="10.4516263"><ele>1754.0</ele><time>2026-04-26T12:17:13.36Z</time></trkpt><trkpt lat="46.4280274" lon="10.4515979"><ele>1754.0</ele><time>2026-04-26T12:17:14.36Z</time></trkpt><trkpt lat="46.4279642" lon="10.45155"><ele>1753.9999999999998</ele><time>2026-04-26T12:17:15.36Z</time></trkpt><trkpt lat="46.4278712" lon="10.451511"><ele>1754.0</ele><time>2026-04-26T12:17:16.367Z</time></trkpt><trkpt lat="46.4277745" lon="10.451464"><ele>1754.6666666666665</ele><time>2026-04-26T12:17:17.363Z</time></trkpt><trkpt lat="46.427643" lon="10.4514763"><ele>1755.3333333333335</ele><time>2026-04-26T12:17:18.363Z</time></trkpt><trkpt lat="46.4274435" lon="10.4514497"><ele>1756.0</ele><time>2026-04-26T12:17:19.36Z</time></trkpt><trkpt lat="46.4273034" lon="10.4514041"><ele>1756.0</ele><time>2026-04-26T12:17:20.371Z</time></trkpt><trkpt lat="46.427176" lon="10.4513471"><ele>1756.0</ele><time>2026-04-26T12:17:21.361Z</time></trkpt><trkpt lat="46.427025" lon="10.4513341"><ele>1756.0</ele><time>2026-04-26T12:17:22.363Z</time></trkpt><trkpt lat="46.4268618" lon="10.4512357"><ele>1762.25</ele><time>2026-04-26T12:17:23.363Z</time></trkpt><trkpt lat="46.4267255" lon="10.4511895"><ele>1768.5</ele><time>2026-04-26T12:17:24.365Z</time></trkpt><trkpt lat="46.426584" lon="10.4511126"><ele>1774.75</ele><time>2026-04-26T12:17:25.364Z</time></trkpt><trkpt lat="46.4264531" lon="10.4510622"><ele>1781.0</ele><time>2026-04-26T12:17:26.363Z</time></trkpt><trkpt lat="46.4263828" lon="10.4510525"><ele>1778.1999999999998</ele><time>2026-04-26T12:17:27.361Z</time></trkpt><trkpt lat="46.4262994" lon="10.4510444"><ele>1775.3999999999999</ele><time>2026-04-26T12:17:28.366Z</time></trkpt><trkpt lat="46.4262161" lon="10.451004"><ele>1772.6</ele><time>2026-04-26T12:17:29.359Z</time></trkpt><trkpt lat="46.4261307" lon="10.4509435"><ele>1769.8</ele><time>2026-04-26T12:17:30.364Z</time></trkpt><trkpt lat="46.4260287" lon="10.4508541"><ele>1767.0</ele><time>2026-04-26T12:17:31.363Z</time></trkpt><trkpt lat="46.4259264" lon="10.4507274"><ele>1767.0</ele><time>2026-04-26T12:17:32.365Z</time></trkpt><trkpt lat="46.4257043" lon="10.4506194"><ele>1767.0</ele><time>2026-04-26T12:17:33.362Z</time></trkpt><trkpt lat="46.4255569" lon="10.4505248"><ele>1767.0</ele><time>2026-04-26T12:17:34.37Z</time></trkpt><trkpt lat="46.4254118" lon="10.4504495"><ele>1771.1999999999998</ele><time>2026-04-26T12:17:35.366Z</time></trkpt><trkpt lat="46.4253241" lon="10.4503914"><ele>1775.3999999999999</ele><time>2026-04-26T12:17:36.362Z</time></trkpt><trkpt lat="46.425224" lon="10.4503077"><ele>1779.6000000000001</ele><time>2026-04-26T12:17:37.362Z</time></trkpt><trkpt lat="46.425122" lon="10.4502296"><ele>1783.8000000000002</ele><time>2026-04-26T12:17:38.361Z</time></trkpt><trkpt lat="46.425037" lon="10.450183"><ele>1788.0</ele><time>2026-04-26T12:17:39.361Z</time></trkpt><trkpt lat="46.4249219" lon="10.4501045"><ele>1788.0</ele><time>2026-04-26T12:17:40.362Z</time></trkpt><trkpt lat="46.4248058" lon="10.4500447"><ele>1788.0000000000002</ele><time>2026-04-26T12:17:41.364Z</time></trkpt><trkpt lat="46.4247307" lon="10.4499682"><ele>1788.0000000000002</ele><time>2026-04-26T12:17:42.363Z</time></trkpt><trkpt lat="46.4246513" lon="10.449939"><ele>1788.0</ele><time>2026-04-26T12:17:43.361Z</time></trkpt><trkpt lat="46.4245786" lon="10.4498926"><ele>1788.0</ele><time>2026-04-26T12:17:44.367Z</time></trkpt><trkpt lat="46.4245123" lon="10.4498276"><ele>1788.8333333333333</ele><time>2026-04-26T12:17:45.363Z</time></trkpt><trkpt lat="46.4244616" lon="10.4497607"><ele>1789.6666666666665</ele><time>2026-04-26T12:17:46.367Z</time></trkpt><trkpt lat="46.424386" lon="10.4496907"><ele>1790.5</ele><time>2026-04-26T12:17:48.365Z</time></trkpt><trkpt lat="46.424285" lon="10.4497077"><ele>1791.3333333333333</ele><time>2026-04-26T12:17:51.366Z</time></trkpt><trkpt lat="46.4242145" lon="10.4497418"><ele>1792.1666666666665</ele><time>2026-04-26T12:17:53.367Z</time></trkpt><trkpt lat="46.4241582" lon="10.4498074"><ele>1793.0</ele><time>2026-04-26T12:17:55.367Z</time></trkpt><trkpt lat="46.4241358" lon="10.4499107"><ele>1792.9999999999998</ele><time>2026-04-26T12:17:58.366Z</time></trkpt><trkpt lat="46.4241242" lon="10.4500156"><ele>1793.0</ele><time>2026-04-26T12:18:13.369Z</time></trkpt><trkpt lat="46.4241228" lon="10.4501225"><ele>1793.0</ele><time>2026-04-26T12:18:17.359Z</time></trkpt><trkpt lat="46.4241324" lon="10.4502382"><ele>1793.0</ele><time>2026-04-26T12:18:23.358Z</time></trkpt><trkpt lat="46.4241575" lon="10.4503493"><ele>1792.9999999999998</ele><time>2026-04-26T12:18:27.361Z</time></trkpt><trkpt lat="46.4241795" lon="10.4504577"><ele>1793.0</ele><time>2026-04-26T12:18:30.366Z</time></trkpt><trkpt lat="46.424208" lon="10.4506012"><ele>1792.6666666666665</ele><time>2026-04-26T12:18:32.36Z</time></trkpt><trkpt lat="46.4242316" lon="10.4506999"><ele>1792.3333333333333</ele><time>2026-04-26T12:18:33.359Z</time></trkpt><trkpt lat="46.4242595" lon="10.4508029"><ele>1792.0</ele><time>2026-04-26T12:18:34.364Z</time></trkpt><trkpt lat="46.4242946" lon="10.4509171"><ele>1791.6666666666665</ele><time>2026-04-26T12:18:35.36Z</time></trkpt><trkpt lat="46.4243294" lon="10.4510512"><ele>1791.3333333333333</ele><time>2026-04-26T12:18:36.37Z</time></trkpt><trkpt lat="46.4243679" lon="10.4511999"><ele>1791.0</ele><time>2026-04-26T12:18:37.357Z</time></trkpt><trkpt lat="46.4244007" lon="10.4513475"><ele>1791.8</ele><time>2026-04-26T12:18:38.36Z</time></trkpt><trkpt lat="46.4244253" lon="10.4515044"><ele>1792.6</ele><time>2026-04-26T12:18:39.369Z</time></trkpt><trkpt lat="46.4244311" lon="10.4516518"><ele>1793.4</ele><time>2026-04-26T12:18:40.364Z</time></trkpt><trkpt lat="46.4244261" lon="10.4517677"><ele>1794.2</ele><time>2026-04-26T12:18:41.36Z</time></trkpt><trkpt lat="46.4244021" lon="10.4518698"><ele>1795.0</ele><time>2026-04-26T12:18:42.36Z</time></trkpt><trkpt lat="46.424372" lon="10.4519836"><ele>1795.0</ele><time>2026-04-26T12:18:43.36Z</time></trkpt><trkpt lat="46.4243171" lon="10.4521091"><ele>1795.0</ele><time>2026-04-26T12:18:44.36Z</time></trkpt><trkpt lat="46.4242858" lon="10.4522375"><ele>1795.0</ele><time>2026-04-26T12:18:45.358Z</time></trkpt><trkpt lat="46.4242791" lon="10.4523572"><ele>1795.0</ele><time>2026-04-26T12:18:46.363Z</time></trkpt><trkpt lat="46.4243049" lon="10.4524896"><ele>1795.0</ele><time>2026-04-26T12:18:47.36Z</time></trkpt><trkpt lat="46.4243394" lon="10.4526539"><ele>1797.0</ele><time>2026-04-26T12:18:48.361Z</time></trkpt><trkpt lat="46.4243681" lon="10.4528456"><ele>1799.0</ele><time>2026-04-26T12:18:49.36Z</time></trkpt><trkpt lat="46.4243992" lon="10.4530371"><ele>1801.0</ele><time>2026-04-26T12:18:50.36Z</time></trkpt><trkpt lat="46.4244329" lon="10.4531945"><ele>1803.0</ele><time>2026-04-26T12:18:51.358Z</time></trkpt><trkpt lat="46.42449" lon="10.4533376"><ele>1805.5</ele><time>2026-04-26T12:18:52.358Z</time></trkpt><trkpt lat="46.4245636" lon="10.4534884"><ele>1808.0</ele><time>2026-04-26T12:18:53.365Z</time></trkpt><trkpt lat="46.4246428" lon="10.4536496"><ele>1810.5</ele><time>2026-04-26T12:18:54.361Z</time></trkpt><trkpt lat="46.4247074" lon="10.4538283"><ele>1813.0</ele><time>2026-04-26T12:18:55.361Z</time></trkpt><trkpt lat="46.4247631" lon="10.4539965"><ele>1805.4</ele><time>2026-04-26T12:18:56.363Z</time></trkpt><trkpt lat="46.4248154" lon="10.4541433"><ele>1797.8000000000002</ele><time>2026-04-26T12:18:57.361Z</time></trkpt><trkpt lat="46.4248617" lon="10.454262"><ele>1790.2</ele><time>2026-04-26T12:18:58.36Z</time></trkpt><trkpt lat="46.4249044" lon="10.4543769"><ele>1782.6</ele><time>2026-04-26T12:18:59.36Z</time></trkpt><trkpt lat="46.4249579" lon="10.4545145"><ele>1775.0</ele><time>2026-04-26T12:19:00.366Z</time></trkpt><trkpt lat="46.4250188" lon="10.4546779"><ele>1775.0</ele><time>2026-04-26T12:19:01.36Z</time></trkpt><trkpt lat="46.4250729" lon="10.4548414"><ele>1775.0</ele><time>2026-04-26T12:19:02.364Z</time></trkpt><trkpt lat="46.4251085" lon="10.4549912"><ele>1775.0</ele><time>2026-04-26T12:19:03.36Z</time></trkpt><trkpt lat="46.4251378" lon="10.45513"><ele>1775.0</ele><time>2026-04-26T12:19:04.36Z</time></trkpt><trkpt lat="46.42516" lon="10.4552683"><ele>1775.0</ele><time>2026-04-26T12:19:05.371Z</time></trkpt><trkpt lat="46.4251671" lon="10.4554253"><ele>1773.0</ele><time>2026-04-26T12:19:06.36Z</time></trkpt><trkpt lat="46.4251533" lon="10.4555794"><ele>1771.0</ele><time>2026-04-26T12:19:07.361Z</time></trkpt><trkpt lat="46.4250978" lon="10.4557409"><ele>1769.0</ele><time>2026-04-26T12:19:08.373Z</time></trkpt><trkpt lat="46.4249985" lon="10.4559238"><ele>1767.0</ele><time>2026-04-26T12:19:09.359Z</time></trkpt><trkpt lat="46.4249365" lon="10.4560932"><ele>1767.0</ele><time>2026-04-26T12:19:10.363Z</time></trkpt><trkpt lat="46.4248761" lon="10.4562438"><ele>1767.0</ele><time>2026-04-26T12:19:11.367Z</time></trkpt><trkpt lat="46.4248261" lon="10.4563993"><ele>1767.0</ele><time>2026-04-26T12:19:12.363Z</time></trkpt><trkpt lat="46.4247684" lon="10.4565709"><ele>1767.0</ele><time>2026-04-26T12:19:13.362Z</time></trkpt><trkpt lat="46.4247286" lon="10.4567422"><ele>1769.1999999999998</ele><time>2026-04-26T12:19:14.365Z</time></trkpt><trkpt lat="46.4246873" lon="10.4568922"><ele>1771.3999999999999</ele><time>2026-04-26T12:19:15.361Z</time></trkpt><trkpt lat="46.4246509" lon="10.4569926"><ele>1773.6000000000001</ele><time>2026-04-26T12:19:16.364Z</time></trkpt><trkpt lat="46.4245923" lon="10.4570838"><ele>1775.8000000000002</ele><time>2026-04-26T12:19:17.359Z</time></trkpt><trkpt lat="46.4244996" lon="10.4571956"><ele>1778.0</ele><time>2026-04-26T12:19:18.363Z</time></trkpt><trkpt lat="46.4244085" lon="10.4573243"><ele>1778.0</ele><time>2026-04-26T12:19:19.362Z</time></trkpt><trkpt lat="46.4243244" lon="10.4574602"><ele>1778.0</ele><time>2026-04-26T12:19:20.366Z</time></trkpt><trkpt lat="46.4242339" lon="10.4575816"><ele>1778.0</ele><time>2026-04-26T12:19:21.36Z</time></trkpt><trkpt lat="46.424135" lon="10.4576519"><ele>1778.0</ele><time>2026-04-26T12:19:22.361Z</time></trkpt><trkpt lat="46.4240473" lon="10.4577619"><ele>1778.0</ele><time>2026-04-26T12:19:23.365Z</time></trkpt><trkpt lat="46.4239521" lon="10.4578696"><ele>1778.0</ele><time>2026-04-26T12:19:24.363Z</time></trkpt><trkpt lat="46.4238531" lon="10.4579787"><ele>1778.0</ele><time>2026-04-26T12:19:25.369Z</time></trkpt><trkpt lat="46.4237562" lon="10.4580929"><ele>1778.0</ele><time>2026-04-26T12:19:26.362Z</time></trkpt><trkpt lat="46.4236707" lon="10.4582796"><ele>1781.3333333333333</ele><time>2026-04-26T12:19:27.362Z</time></trkpt><trkpt lat="46.4235815" lon="10.4584669"><ele>1784.6666666666665</ele><time>2026-04-26T12:19:28.363Z</time></trkpt><trkpt lat="46.4234869" lon="10.4586516"><ele>1788.0</ele><time>2026-04-26T12:19:29.363Z</time></trkpt><trkpt lat="46.423403" lon="10.4588293"><ele>1788.0</ele><time>2026-04-26T12:19:30.365Z</time></trkpt><trkpt lat="46.4233153" lon="10.4589691"><ele>1788.0</ele><time>2026-04-26T12:19:31.36Z</time></trkpt><trkpt lat="46.4232156" lon="10.4591109"><ele>1788.0</ele><time>2026-04-26T12:19:32.368Z</time></trkpt><trkpt lat="46.4230966" lon="10.4592674"><ele>1788.0</ele><time>2026-04-26T12:19:33.362Z</time></trkpt><trkpt lat="46.4229603" lon="10.4594455"><ele>1796.6666666666665</ele><time>2026-04-26T12:19:34.36Z</time></trkpt><trkpt lat="46.4228297" lon="10.4596388"><ele>1805.3333333333333</ele><time>2026-04-26T12:19:35.369Z</time></trkpt><trkpt lat="46.4227195" lon="10.4598179"><ele>1814.0</ele><time>2026-04-26T12:19:36.36Z</time></trkpt><trkpt lat="46.4226335" lon="10.4600034"><ele>1814.0</ele><time>2026-04-26T12:19:37.362Z</time></trkpt><trkpt lat="46.4225703" lon="10.4601833"><ele>1814.0</ele><time>2026-04-26T12:19:38.364Z</time></trkpt><trkpt lat="46.4225283" lon="10.460333"><ele>1814.0</ele><time>2026-04-26T12:19:39.363Z</time></trkpt><trkpt lat="46.4224755" lon="10.4604395"><ele>1814.0</ele><time>2026-04-26T12:19:40.363Z</time></trkpt><trkpt lat="46.4224182" lon="10.4605246"><ele>1814.0</ele><time>2026-04-26T12:19:41.359Z</time></trkpt><trkpt lat="46.4223493" lon="10.4605988"><ele>1809.8000000000002</ele><time>2026-04-26T12:19:42.362Z</time></trkpt><trkpt lat="46.4222389" lon="10.4606792"><ele>1805.6000000000001</ele><time>2026-04-26T12:19:43.363Z</time></trkpt><trkpt lat="46.4221543" lon="10.46077"><ele>1801.4</ele><time>2026-04-26T12:19:44.364Z</time></trkpt><trkpt lat="46.4221024" lon="10.4608843"><ele>1797.2</ele><time>2026-04-26T12:19:45.363Z</time></trkpt><trkpt lat="46.4220516" lon="10.4609983"><ele>1793.0</ele><time>2026-04-26T12:19:46.363Z</time></trkpt><trkpt lat="46.4220139" lon="10.4611299"><ele>1797.9999999999998</ele><time>2026-04-26T12:19:47.361Z</time></trkpt><trkpt lat="46.4220025" lon="10.4612574"><ele>1803.0</ele><time>2026-04-26T12:19:48.363Z</time></trkpt><trkpt lat="46.4220003" lon="10.4613821"><ele>1808.0</ele><time>2026-04-26T12:19:49.358Z</time></trkpt><trkpt lat="46.4220291" lon="10.4614931"><ele>1813.0</ele><time>2026-04-26T12:19:50.361Z</time></trkpt><trkpt lat="46.4220199" lon="10.4615888"><ele>1817.9999999999998</ele><time>2026-04-26T12:19:51.36Z</time></trkpt><trkpt lat="46.4220057" lon="10.4616973"><ele>1823.0</ele><time>2026-04-26T12:19:52.362Z</time></trkpt><trkpt lat="46.4219848" lon="10.4617926"><ele>1823.0</ele><time>2026-04-26T12:19:53.369Z</time></trkpt><trkpt lat="46.4219404" lon="10.4618691"><ele>1823.0</ele><time>2026-04-26T12:19:54.36Z</time></trkpt><trkpt lat="46.4218539" lon="10.4619927"><ele>1823.0</ele><time>2026-04-26T12:19:55.371Z</time></trkpt><trkpt lat="46.4217218" lon="10.4621636"><ele>1823.0</ele><time>2026-04-26T12:19:56.371Z</time></trkpt><trkpt lat="46.4216383" lon="10.4623502"><ele>1820.0</ele><time>2026-04-26T12:19:57.36Z</time></trkpt><trkpt lat="46.4215982" lon="10.4625231"><ele>1817.0000000000002</ele><time>2026-04-26T12:19:58.36Z</time></trkpt><trkpt lat="46.4215646" lon="10.4626595"><ele>1814.0000000000002</ele><time>2026-04-26T12:19:59.359Z</time></trkpt><trkpt lat="46.421505" lon="10.4627399"><ele>1811.0</ele><time>2026-04-26T12:20:00.361Z</time></trkpt><trkpt lat="46.4214253" lon="10.4628194"><ele>1808.0</ele><time>2026-04-26T12:20:01.357Z</time></trkpt><trkpt lat="46.421317" lon="10.4629055"><ele>1814.75</ele><time>2026-04-26T12:20:02.358Z</time></trkpt><trkpt lat="46.4212019" lon="10.4629819"><ele>1821.5</ele><time>2026-04-26T12:20:03.368Z</time></trkpt><trkpt lat="46.4211052" lon="10.4631019"><ele>1828.25</ele><time>2026-04-26T12:20:04.368Z</time></trkpt><trkpt lat="46.4210337" lon="10.4632503"><ele>1835.0</ele><time>2026-04-26T12:20:05.362Z</time></trkpt><trkpt lat="46.4209754" lon="10.4634179"><ele>1835.0</ele><time>2026-04-26T12:20:06.366Z</time></trkpt><trkpt lat="46.4209125" lon="10.4635685"><ele>1835.0</ele><time>2026-04-26T12:20:07.361Z</time></trkpt><trkpt lat="46.420853" lon="10.4637155"><ele>1835.0</ele><time>2026-04-26T12:20:08.36Z</time></trkpt><trkpt lat="46.4208435" lon="10.4638182"><ele>1835.0</ele><time>2026-04-26T12:20:09.36Z</time></trkpt><trkpt lat="46.4208414" lon="10.4639319"><ele>1835.0</ele><time>2026-04-26T12:20:10.359Z</time></trkpt><trkpt lat="46.4208333" lon="10.4640536"><ele>1829.75</ele><time>2026-04-26T12:20:11.356Z</time></trkpt><trkpt lat="46.4208088" lon="10.4641931"><ele>1824.5</ele><time>2026-04-26T12:20:12.364Z</time></trkpt><trkpt lat="46.420758" lon="10.4643735"><ele>1819.25</ele><time>2026-04-26T12:20:13.371Z</time></trkpt><trkpt lat="46.4206756" lon="10.4645323"><ele>1814.0</ele><time>2026-04-26T12:20:14.362Z</time></trkpt><trkpt lat="46.4205983" lon="10.4646878"><ele>1806.3333333333333</ele><time>2026-04-26T12:20:15.359Z</time></trkpt><trkpt lat="46.4205053" lon="10.4648551"><ele>1798.6666666666665</ele><time>2026-04-26T12:20:16.365Z</time></trkpt><trkpt lat="46.4204181" lon="10.465081"><ele>1791.0</ele><time>2026-04-26T12:20:17.363Z</time></trkpt><trkpt lat="46.4203353" lon="10.4652904"><ele>1803.3333333333335</ele><time>2026-04-26T12:20:18.361Z</time></trkpt><trkpt lat="46.4202448" lon="10.465493"><ele>1815.6666666666667</ele><time>2026-04-26T12:20:19.363Z</time></trkpt><trkpt lat="46.4201445" lon="10.4657266"><ele>1828.0</ele><time>2026-04-26T12:20:20.363Z</time></trkpt><trkpt lat="46.420038" lon="10.465941"><ele>1828.0</ele><time>2026-04-26T12:20:21.359Z</time></trkpt><trkpt lat="46.4199348" lon="10.4661501"><ele>1828.0</ele><time>2026-04-26T12:20:22.36Z</time></trkpt><trkpt lat="46.4198408" lon="10.4663637"><ele>1828.0</ele><time>2026-04-26T12:20:23.359Z</time></trkpt><trkpt lat="46.4197946" lon="10.4665823"><ele>1829.5</ele><time>2026-04-26T12:20:24.358Z</time></trkpt><trkpt lat="46.4197642" lon="10.4668035"><ele>1831.0</ele><time>2026-04-26T12:20:25.362Z</time></trkpt><trkpt lat="46.4197267" lon="10.4670027"><ele>1832.5</ele><time>2026-04-26T12:20:26.362Z</time></trkpt><trkpt lat="46.4196716" lon="10.4672068"><ele>1834.0</ele><time>2026-04-26T12:20:27.362Z</time></trkpt><trkpt lat="46.4195513" lon="10.4674292"><ele>1834.0</ele><time>2026-04-26T12:20:28.362Z</time></trkpt><trkpt lat="46.419428" lon="10.4676545"><ele>1834.0</ele><time>2026-04-26T12:20:29.362Z</time></trkpt><trkpt lat="46.4192787" lon="10.4678727"><ele>1834.0</ele><time>2026-04-26T12:20:30.359Z</time></trkpt><trkpt lat="46.4191539" lon="10.4680979"><ele>1827.6666666666667</ele><time>2026-04-26T12:20:31.36Z</time></trkpt><trkpt lat="46.4190395" lon="10.4683438"><ele>1821.3333333333335</ele><time>2026-04-26T12:20:32.363Z</time></trkpt><trkpt lat="46.4189328" lon="10.4685912"><ele>1815.0</ele><time>2026-04-26T12:20:33.358Z</time></trkpt><trkpt lat="46.4188513" lon="10.4688325"><ele>1825.0</ele><time>2026-04-26T12:20:34.358Z</time></trkpt><trkpt lat="46.4187878" lon="10.4690457"><ele>1835.0</ele><time>2026-04-26T12:20:35.363Z</time></trkpt><trkpt lat="46.4187294" lon="10.4692397"><ele>1845.0</ele><time>2026-04-26T12:20:36.359Z</time></trkpt><trkpt lat="46.4187051" lon="10.4693875"><ele>1855.0</ele><time>2026-04-26T12:20:37.363Z</time></trkpt><trkpt lat="46.4186844" lon="10.4694998"><ele>1850.25</ele><time>2026-04-26T12:20:38.359Z</time></trkpt><trkpt lat="46.4186443" lon="10.4696241"><ele>1845.5</ele><time>2026-04-26T12:20:39.364Z</time></trkpt><trkpt lat="46.4185826" lon="10.4697882"><ele>1840.75</ele><time>2026-04-26T12:20:40.362Z</time></trkpt><trkpt lat="46.4185188" lon="10.4699734"><ele>1836.0</ele><time>2026-04-26T12:20:41.36Z</time></trkpt><trkpt lat="46.4184533" lon="10.4701544"><ele>1836.0</ele><time>2026-04-26T12:20:42.358Z</time></trkpt><trkpt lat="46.4184012" lon="10.4702998"><ele>1836.0</ele><time>2026-04-26T12:20:43.359Z</time></trkpt><trkpt lat="46.4183605" lon="10.4704124"><ele>1836.0</ele><time>2026-04-26T12:20:44.361Z</time></trkpt><trkpt lat="46.4182747" lon="10.4705157"><ele>1836.0</ele><time>2026-04-26T12:20:45.365Z</time></trkpt><trkpt lat="46.4181654" lon="10.4706881"><ele>1839.3333333333335</ele><time>2026-04-26T12:20:46.365Z</time></trkpt><trkpt lat="46.4180267" lon="10.4709512"><ele>1842.6666666666667</ele><time>2026-04-26T12:20:47.36Z</time></trkpt><trkpt lat="46.417925" lon="10.4711744"><ele>1846.0</ele><time>2026-04-26T12:20:48.365Z</time></trkpt><trkpt lat="46.4178543" lon="10.4713393"><ele>1846.0</ele><time>2026-04-26T12:20:49.365Z</time></trkpt><trkpt lat="46.417798" lon="10.4715168"><ele>1846.0</ele><time>2026-04-26T12:20:50.36Z</time></trkpt><trkpt lat="46.4177608" lon="10.4717004"><ele>1846.0</ele><time>2026-04-26T12:20:51.36Z</time></trkpt><trkpt lat="46.4177227" lon="10.4718753"><ele>1846.0</ele><time>2026-04-26T12:20:52.359Z</time></trkpt><trkpt lat="46.417691" lon="10.4720479"><ele>1843.6</ele><time>2026-04-26T12:20:53.359Z</time></trkpt><trkpt lat="46.4176896" lon="10.4721975"><ele>1841.1999999999998</ele><time>2026-04-26T12:20:55.362Z</time></trkpt><trkpt lat="46.4176654" lon="10.4722915"><ele>1838.8000000000002</ele><time>2026-04-26T12:20:56.361Z</time></trkpt><trkpt lat="46.4176346" lon="10.4723977"><ele>1836.4</ele><time>2026-04-26T12:20:57.363Z</time></trkpt><trkpt lat="46.4175906" lon="10.4725933"><ele>1834.0</ele><time>2026-04-26T12:20:58.361Z</time></trkpt><trkpt lat="46.4175168" lon="10.4727745"><ele>1830.25</ele><time>2026-04-26T12:20:59.36Z</time></trkpt><trkpt lat="46.4174572" lon="10.4729482"><ele>1826.5</ele><time>2026-04-26T12:21:00.36Z</time></trkpt><trkpt lat="46.417391" lon="10.4731164"><ele>1822.75</ele><time>2026-04-26T12:21:01.362Z</time></trkpt><trkpt lat="46.4172776" lon="10.4732951"><ele>1819.0</ele><time>2026-04-26T12:21:02.365Z</time></trkpt><trkpt lat="46.4171737" lon="10.4734821"><ele>1824.0</ele><time>2026-04-26T12:21:03.365Z</time></trkpt><trkpt lat="46.4170912" lon="10.4736591"><ele>1829.0</ele><time>2026-04-26T12:21:04.365Z</time></trkpt><trkpt lat="46.417001" lon="10.4738344"><ele>1834.0</ele><time>2026-04-26T12:21:05.36Z</time></trkpt><trkpt lat="46.4169219" lon="10.4739986"><ele>1839.0</ele><time>2026-04-26T12:21:06.364Z</time></trkpt><trkpt lat="46.4169367" lon="10.4741063"><ele>1839.0</ele><time>2026-04-26T12:21:07.362Z</time></trkpt><trkpt lat="46.4169175" lon="10.4742069"><ele>1839.0</ele><time>2026-04-26T12:21:08.363Z</time></trkpt><trkpt lat="46.4168947" lon="10.4742998"><ele>1839.0</ele><time>2026-04-26T12:21:09.364Z</time></trkpt><trkpt lat="46.4168607" lon="10.4744097"><ele>1839.0</ele><time>2026-04-26T12:21:10.366Z</time></trkpt><trkpt lat="46.4167922" lon="10.4745577"><ele>1839.0</ele><time>2026-04-26T12:21:11.36Z</time></trkpt><trkpt lat="46.4167072" lon="10.4747341"><ele>1832.6666666666665</ele><time>2026-04-26T12:21:12.365Z</time></trkpt><trkpt lat="46.4165653" lon="10.4749419"><ele>1826.3333333333333</ele><time>2026-04-26T12:21:13.366Z</time></trkpt><trkpt lat="46.41646" lon="10.4751197"><ele>1820.0</ele><time>2026-04-26T12:21:14.365Z</time></trkpt><trkpt lat="46.416389" lon="10.4752645"><ele>1823.75</ele><time>2026-04-26T12:21:15.364Z</time></trkpt><trkpt lat="46.4162618" lon="10.4753029"><ele>1827.5</ele><time>2026-04-26T12:21:16.367Z</time></trkpt><trkpt lat="46.4161618" lon="10.4754092"><ele>1831.25</ele><time>2026-04-26T12:21:17.358Z</time></trkpt><trkpt lat="46.4160336" lon="10.4755359"><ele>1835.0</ele><time>2026-04-26T12:21:18.364Z</time></trkpt><trkpt lat="46.4159282" lon="10.4756374"><ele>1835.0</ele><time>2026-04-26T12:21:19.363Z</time></trkpt><trkpt lat="46.4158509" lon="10.4757601"><ele>1835.0</ele><time>2026-04-26T12:21:20.365Z</time></trkpt><trkpt lat="46.4157862" lon="10.4758209"><ele>1835.0</ele><time>2026-04-26T12:21:21.359Z</time></trkpt><trkpt lat="46.4157913" lon="10.4759285"><ele>1835.0</ele><time>2026-04-26T12:21:22.36Z</time></trkpt><trkpt lat="46.4158002" lon="10.4760494"><ele>1835.0</ele><time>2026-04-26T12:21:23.362Z</time></trkpt><trkpt lat="46.4157683" lon="10.4762276"><ele>1833.4</ele><time>2026-04-26T12:21:27.361Z</time></trkpt><trkpt lat="46.4157358" lon="10.4763244"><ele>1831.8</ele><time>2026-04-26T12:21:28.369Z</time></trkpt><trkpt lat="46.4157535" lon="10.4765071"><ele>1830.1999999999998</ele><time>2026-04-26T12:21:30.358Z</time></trkpt><trkpt lat="46.415706" lon="10.4765864"><ele>1828.6</ele><time>2026-04-26T12:21:31.367Z</time></trkpt><trkpt lat="46.4156475" lon="10.476702"><ele>1827.0</ele><time>2026-04-26T12:21:32.367Z</time></trkpt><trkpt lat="46.4155623" lon="10.4768346"><ele>1833.25</ele><time>2026-04-26T12:21:33.358Z</time></trkpt><trkpt lat="46.4154632" lon="10.4769971"><ele>1839.5</ele><time>2026-04-26T12:21:34.36Z</time></trkpt><trkpt lat="46.4153843" lon="10.4771193"><ele>1845.75</ele><time>2026-04-26T12:21:35.358Z</time></trkpt><trkpt lat="46.4153002" lon="10.4772812"><ele>1852.0</ele><time>2026-04-26T12:21:36.361Z</time></trkpt><trkpt lat="46.4152644" lon="10.4774863"><ele>1852.0</ele><time>2026-04-26T12:21:37.36Z</time></trkpt><trkpt lat="46.4152373" lon="10.4776511"><ele>1852.0</ele><time>2026-04-26T12:21:38.359Z</time></trkpt><trkpt lat="46.4152829" lon="10.4778142"><ele>1852.0</ele><time>2026-04-26T12:21:39.36Z</time></trkpt><trkpt lat="46.4154693" lon="10.4778745"><ele>1852.0</ele><time>2026-04-26T12:21:40.36Z</time></trkpt><trkpt lat="46.4155515" lon="10.4779769"><ele>1845.8</ele><time>2026-04-26T12:21:41.36Z</time></trkpt><trkpt lat="46.4156333" lon="10.478061"><ele>1839.6</ele><time>2026-04-26T12:21:42.361Z</time></trkpt><trkpt lat="46.4157015" lon="10.4781531"><ele>1833.3999999999999</ele><time>2026-04-26T12:21:43.362Z</time></trkpt><trkpt lat="46.4157134" lon="10.4783005"><ele>1827.1999999999998</ele><time>2026-04-26T12:21:44.362Z</time></trkpt><trkpt lat="46.4157166" lon="10.4784377"><ele>1821.0</ele><time>2026-04-26T12:21:45.365Z</time></trkpt><trkpt lat="46.4156646" lon="10.4785513"><ele>1821.0</ele><time>2026-04-26T12:21:46.363Z</time></trkpt><trkpt lat="46.4155708" lon="10.47864"><ele>1821.0</ele><time>2026-04-26T12:21:47.361Z</time></trkpt><trkpt lat="46.415498" lon="10.4787334"><ele>1821.0</ele><time>2026-04-26T12:21:48.363Z</time></trkpt><trkpt lat="46.4154093" lon="10.4788358"><ele>1821.0</ele><time>2026-04-26T12:21:49.359Z</time></trkpt><trkpt lat="46.4153618" lon="10.4789827"><ele>1821.0</ele><time>2026-04-26T12:21:50.364Z</time></trkpt><trkpt lat="46.4153115" lon="10.4791778"><ele>1821.5</ele><time>2026-04-26T12:21:51.36Z</time></trkpt><trkpt lat="46.4152587" lon="10.4793727"><ele>1822.0</ele><time>2026-04-26T12:21:52.358Z</time></trkpt><trkpt lat="46.4152345" lon="10.4795734"><ele>1822.5</ele><time>2026-04-26T12:21:53.361Z</time></trkpt><trkpt lat="46.4151987" lon="10.4797684"><ele>1823.0</ele><time>2026-04-26T12:21:54.36Z</time></trkpt><trkpt lat="46.4151775" lon="10.4799277"><ele>1823.0</ele><time>2026-04-26T12:21:55.363Z</time></trkpt><trkpt lat="46.4151113" lon="10.4800839"><ele>1823.0000000000002</ele><time>2026-04-26T12:21:56.361Z</time></trkpt><trkpt lat="46.4150547" lon="10.4799691"><ele>1823.0000000000002</ele><time>2026-04-26T12:21:57.362Z</time></trkpt><trkpt lat="46.4149942" lon="10.4800266"><ele>1823.0</ele><time>2026-04-26T12:21:58.359Z</time></trkpt><trkpt lat="46.4148982" lon="10.4800849"><ele>1823.0</ele><time>2026-04-26T12:21:59.364Z</time></trkpt><trkpt lat="46.4147676" lon="10.4801169"><ele>1823.0</ele><time>2026-04-26T12:22:00.36Z</time></trkpt><trkpt lat="46.4146607" lon="10.4801498"><ele>1823.0000000000002</ele><time>2026-04-26T12:22:01.36Z</time></trkpt><trkpt lat="46.4145647" lon="10.4801391"><ele>1823.0000000000002</ele><time>2026-04-26T12:22:02.36Z</time></trkpt><trkpt lat="46.4144758" lon="10.4801211"><ele>1823.0</ele><time>2026-04-26T12:22:03.36Z</time></trkpt><trkpt lat="46.4143886" lon="10.4801007"><ele>1823.0</ele><time>2026-04-26T12:22:04.36Z</time></trkpt><trkpt lat="46.4143094" lon="10.4800677"><ele>1825.4999999999998</ele><time>2026-04-26T12:22:05.361Z</time></trkpt><trkpt lat="46.4142423" lon="10.4800556"><ele>1828.0</ele><time>2026-04-26T12:22:06.361Z</time></trkpt><trkpt lat="46.4141715" lon="10.4801593"><ele>1830.5</ele><time>2026-04-26T12:22:08.363Z</time></trkpt><trkpt lat="46.4141394" lon="10.4802431"><ele>1833.0</ele><time>2026-04-26T12:22:10.363Z</time></trkpt><trkpt lat="46.414138" lon="10.4803657"><ele>1835.4999999999998</ele><time>2026-04-26T12:22:12.375Z</time></trkpt><trkpt lat="46.4141458" lon="10.4804598"><ele>1838.0</ele><time>2026-04-26T12:22:14.365Z</time></trkpt><trkpt lat="46.4141634" lon="10.4806069"><ele>1838.0</ele><time>2026-04-26T12:22:18.361Z</time></trkpt><trkpt lat="46.4142325" lon="10.4807955"><ele>1838.0</ele><time>2026-04-26T12:22:19.36Z</time></trkpt><trkpt lat="46.4142931" lon="10.4809223"><ele>1838.0</ele><time>2026-04-26T12:22:20.365Z</time></trkpt><trkpt lat="46.4143699" lon="10.4810658"><ele>1838.0</ele><time>2026-04-26T12:22:21.357Z</time></trkpt><trkpt lat="46.4144144" lon="10.481157"><ele>1837.2</ele><time>2026-04-26T12:22:22.361Z</time></trkpt><trkpt lat="46.4144609" lon="10.4812746"><ele>1836.4</ele><time>2026-04-26T12:22:23.359Z</time></trkpt><trkpt lat="46.4144804" lon="10.4814179"><ele>1835.6000000000001</ele><time>2026-04-26T12:22:24.366Z</time></trkpt><trkpt lat="46.4144747" lon="10.4815776"><ele>1834.8000000000002</ele><time>2026-04-26T12:22:25.366Z</time></trkpt><trkpt lat="46.4144591" lon="10.4816925"><ele>1834.0</ele><time>2026-04-26T12:22:26.368Z</time></trkpt><trkpt lat="46.4144156" lon="10.4818208"><ele>1834.0</ele><time>2026-04-26T12:22:27.362Z</time></trkpt><trkpt lat="46.4142902" lon="10.4819084"><ele>1834.0</ele><time>2026-04-26T12:22:28.363Z</time></trkpt><trkpt lat="46.4142023" lon="10.4820443"><ele>1834.0</ele><time>2026-04-26T12:22:29.365Z</time></trkpt><trkpt lat="46.4141083" lon="10.4821936"><ele>1834.0</ele><time>2026-04-26T12:22:30.363Z</time></trkpt><trkpt lat="46.4140211" lon="10.4823758"><ele>1830.75</ele><time>2026-04-26T12:22:31.364Z</time></trkpt><trkpt lat="46.4139731" lon="10.4825465"><ele>1827.5</ele><time>2026-04-26T12:22:32.36Z</time></trkpt><trkpt lat="46.4139203" lon="10.4827416"><ele>1824.25</ele><time>2026-04-26T12:22:33.361Z</time></trkpt><trkpt lat="46.413882" lon="10.4829225"><ele>1821.0</ele><time>2026-04-26T12:22:34.362Z</time></trkpt><trkpt lat="46.413866" lon="10.4830955"><ele>1821.4</ele><time>2026-04-26T12:22:35.358Z</time></trkpt><trkpt lat="46.4138363" lon="10.4832971"><ele>1821.8</ele><time>2026-04-26T12:22:36.359Z</time></trkpt><trkpt lat="46.4137794" lon="10.4834372"><ele>1822.2000000000003</ele><time>2026-04-26T12:22:37.359Z</time></trkpt><trkpt lat="46.4137372" lon="10.4835597"><ele>1822.6000000000001</ele><time>2026-04-26T12:22:38.364Z</time></trkpt><trkpt lat="46.4136994" lon="10.483683"><ele>1823.0</ele><time>2026-04-26T12:22:39.367Z</time></trkpt><trkpt lat="46.4136795" lon="10.4838204"><ele>1822.9999999999998</ele><time>2026-04-26T12:22:40.363Z</time></trkpt><trkpt lat="46.4136827" lon="10.4840015"><ele>1823.0</ele><time>2026-04-26T12:22:41.363Z</time></trkpt><trkpt lat="46.4136996" lon="10.4841089"><ele>1823.0</ele><time>2026-04-26T12:22:43.363Z</time></trkpt><trkpt lat="46.4136476" lon="10.4841698"><ele>1823.0</ele><time>2026-04-26T12:22:44.361Z</time></trkpt><trkpt lat="46.4135971" lon="10.4842573"><ele>1822.9999999999998</ele><time>2026-04-26T12:22:45.362Z</time></trkpt><trkpt lat="46.4135541" lon="10.4843669"><ele>1823.0</ele><time>2026-04-26T12:22:46.36Z</time></trkpt><trkpt lat="46.4134859" lon="10.484444"><ele>1822.9999999999998</ele><time>2026-04-26T12:22:47.369Z</time></trkpt><trkpt lat="46.4134403" lon="10.484549"><ele>1823.0</ele><time>2026-04-26T12:22:48.364Z</time></trkpt><trkpt lat="46.4134225" lon="10.4846434"><ele>1823.0</ele><time>2026-04-26T12:22:49.36Z</time></trkpt><trkpt lat="46.4134147" lon="10.4847723"><ele>1823.0</ele><time>2026-04-26T12:22:52.358Z</time></trkpt><trkpt lat="46.4133872" lon="10.4849304"><ele>1822.9999999999998</ele><time>2026-04-26T12:22:54.358Z</time></trkpt><trkpt lat="46.4133841" lon="10.4850325"><ele>1823.0</ele><time>2026-04-26T12:22:55.366Z</time></trkpt><trkpt lat="46.4133562" lon="10.4852278"><ele>1821.2</ele><time>2026-04-26T12:22:57.36Z</time></trkpt><trkpt lat="46.4132925" lon="10.4853964"><ele>1819.4</ele><time>2026-04-26T12:22:59.362Z</time></trkpt><trkpt lat="46.4132538" lon="10.4854873"><ele>1817.6000000000001</ele><time>2026-04-26T12:23:00.36Z</time></trkpt><trkpt lat="46.4132034" lon="10.4855779"><ele>1815.8000000000002</ele><time>2026-04-26T12:23:01.36Z</time></trkpt><trkpt lat="46.4131612" lon="10.4856949"><ele>1814.0</ele><time>2026-04-26T12:23:02.36Z</time></trkpt><trkpt lat="46.4131257" lon="10.4858219"><ele>1815.4</ele><time>2026-04-26T12:23:03.359Z</time></trkpt><trkpt lat="46.4130896" lon="10.4859508"><ele>1816.8000000000002</ele><time>2026-04-26T12:23:04.365Z</time></trkpt><trkpt lat="46.4130468" lon="10.4860763"><ele>1818.1999999999998</ele><time>2026-04-26T12:23:05.362Z</time></trkpt><trkpt lat="46.4130035" lon="10.486194"><ele>1819.6</ele><time>2026-04-26T12:23:06.362Z</time></trkpt><trkpt lat="46.4129878" lon="10.4862974"><ele>1821.0</ele><time>2026-04-26T12:23:07.364Z</time></trkpt><trkpt lat="46.4129569" lon="10.4864397"><ele>1821.0</ele><time>2026-04-26T12:23:08.361Z</time></trkpt><trkpt lat="46.4129348" lon="10.4865429"><ele>1821.0</ele><time>2026-04-26T12:23:09.36Z</time></trkpt><trkpt lat="46.4129016" lon="10.4866426"><ele>1821.0</ele><time>2026-04-26T12:23:10.36Z</time></trkpt><trkpt lat="46.4129065" lon="10.4867347"><ele>1821.0</ele><time>2026-04-26T12:23:11.362Z</time></trkpt><trkpt lat="46.4129217" lon="10.4868237"><ele>1821.0</ele><time>2026-04-26T12:23:12.36Z</time></trkpt><trkpt lat="46.4128811" lon="10.4869819"><ele>1821.0</ele><time>2026-04-26T12:23:14.364Z</time></trkpt><trkpt lat="46.4128721" lon="10.4870831"><ele>1817.6</ele><time>2026-04-26T12:23:15.358Z</time></trkpt><trkpt lat="46.4128453" lon="10.4872243"><ele>1814.1999999999998</ele><time>2026-04-26T12:23:16.366Z</time></trkpt><trkpt lat="46.4128253" lon="10.4873703"><ele>1810.8000000000002</ele><time>2026-04-26T12:23:17.371Z</time></trkpt><trkpt lat="46.4128037" lon="10.4875265"><ele>1807.4</ele><time>2026-04-26T12:23:18.358Z</time></trkpt><trkpt lat="46.4127768" lon="10.4876484"><ele>1804.0</ele><time>2026-04-26T12:23:19.36Z</time></trkpt><trkpt lat="46.4127544" lon="10.4877686"><ele>1804.0000000000002</ele><time>2026-04-26T12:23:20.364Z</time></trkpt><trkpt lat="46.4127487" lon="10.4878821"><ele>1804.0</ele><time>2026-04-26T12:23:21.364Z</time></trkpt><trkpt lat="46.4127476" lon="10.4879878"><ele>1804.0</ele><time>2026-04-26T12:23:22.36Z</time></trkpt><trkpt lat="46.4127556" lon="10.4880838"><ele>1804.0</ele><time>2026-04-26T12:23:23.362Z</time></trkpt><trkpt lat="46.4127718" lon="10.4881788"><ele>1804.0000000000002</ele><time>2026-04-26T12:23:24.365Z</time></trkpt><trkpt lat="46.4127836" lon="10.4882717"><ele>1804.0</ele><time>2026-04-26T12:23:25.361Z</time></trkpt><trkpt lat="46.4127723" lon="10.4884434"><ele>1802.1666666666667</ele><time>2026-04-26T12:23:27.361Z</time></trkpt><trkpt lat="46.4127594" lon="10.4885912"><ele>1800.3333333333335</ele><time>2026-04-26T12:23:29.36Z</time></trkpt><trkpt lat="46.4127612" lon="10.4887118"><ele>1798.5</ele><time>2026-04-26T12:23:32.366Z</time></trkpt><trkpt lat="46.4127907" lon="10.4888098"><ele>1796.6666666666665</ele><time>2026-04-26T12:24:20.36Z</time></trkpt><trkpt lat="46.4128316" lon="10.4887244"><ele>1794.8333333333333</ele><time>2026-04-26T12:24:27.362Z</time></trkpt><trkpt lat="46.4128023" lon="10.4885708"><ele>1793.0</ele><time>2026-04-26T12:24:28.366Z</time></trkpt><trkpt lat="46.4128118" lon="10.488424"><ele>1793.0</ele><time>2026-04-26T12:24:29.367Z</time></trkpt><trkpt lat="46.4128164" lon="10.4882732"><ele>1793.0</ele><time>2026-04-26T12:24:30.36Z</time></trkpt><trkpt lat="46.4128117" lon="10.4880791"><ele>1793.0</ele><time>2026-04-26T12:24:31.36Z</time></trkpt><trkpt lat="46.4128033" lon="10.4879148"><ele>1793.0</ele><time>2026-04-26T12:24:32.365Z</time></trkpt><trkpt lat="46.4128114" lon="10.4877716"><ele>1795.75</ele><time>2026-04-26T12:24:33.361Z</time></trkpt><trkpt lat="46.4128298" lon="10.4876097"><ele>1798.5</ele><time>2026-04-26T12:24:34.36Z</time></trkpt><trkpt lat="46.412875" lon="10.4874129"><ele>1801.25</ele><time>2026-04-26T12:24:35.361Z</time></trkpt><trkpt lat="46.4129079" lon="10.487234"><ele>1804.0</ele><time>2026-04-26T12:24:36.364Z</time></trkpt><trkpt lat="46.4129443" lon="10.487077"><ele>1801.5000000000002</ele><time>2026-04-26T12:24:37.36Z</time></trkpt><trkpt lat="46.4129852" lon="10.4869564"><ele>1799.0</ele><time>2026-04-26T12:24:38.366Z</time></trkpt><trkpt lat="46.4130074" lon="10.4868465"><ele>1796.5</ele><time>2026-04-26T12:24:39.36Z</time></trkpt><trkpt lat="46.4130075" lon="10.4867307"><ele>1794.0</ele><time>2026-04-26T12:24:40.361Z</time></trkpt><trkpt lat="46.4129957" lon="10.486591"><ele>1791.5000000000002</ele><time>2026-04-26T12:24:41.369Z</time></trkpt><trkpt lat="46.4129814" lon="10.4864717"><ele>1789.0</ele><time>2026-04-26T12:24:42.359Z</time></trkpt><trkpt lat="46.4129723" lon="10.4863674"><ele>1792.0</ele><time>2026-04-26T12:24:43.364Z</time></trkpt><trkpt lat="46.4129942" lon="10.4862336"><ele>1795.0</ele><time>2026-04-26T12:24:44.367Z</time></trkpt><trkpt lat="46.4130619" lon="10.4860777"><ele>1798.0</ele><time>2026-04-26T12:24:45.36Z</time></trkpt><trkpt lat="46.4131226" lon="10.4859432"><ele>1801.0</ele><time>2026-04-26T12:24:46.359Z</time></trkpt><trkpt lat="46.4131619" lon="10.4857859"><ele>1804.0</ele><time>2026-04-26T12:24:47.364Z</time></trkpt><trkpt lat="46.4132098" lon="10.485643"><ele>1804.0000000000002</ele><time>2026-04-26T12:24:48.362Z</time></trkpt><trkpt lat="46.4132553" lon="10.4855281"><ele>1804.0</ele><time>2026-04-26T12:24:49.364Z</time></trkpt><trkpt lat="46.4132951" lon="10.4854305"><ele>1804.0</ele><time>2026-04-26T12:24:50.363Z</time></trkpt><trkpt lat="46.4133347" lon="10.4853286"><ele>1804.0</ele><time>2026-04-26T12:24:51.362Z</time></trkpt><trkpt lat="46.4133717" lon="10.4852152"><ele>1804.0000000000002</ele><time>2026-04-26T12:24:52.364Z</time></trkpt><trkpt lat="46.4133902" lon="10.485101"><ele>1804.0</ele><time>2026-04-26T12:24:53.359Z</time></trkpt><trkpt lat="46.4134045" lon="10.4849996"><ele>1806.0</ele><time>2026-04-26T12:24:54.365Z</time></trkpt><trkpt lat="46.4134114" lon="10.4849056"><ele>1808.0</ele><time>2026-04-26T12:24:55.364Z</time></trkpt><trkpt lat="46.4134291" lon="10.4847849"><ele>1810.0</ele><time>2026-04-26T12:24:56.362Z</time></trkpt><trkpt lat="46.4134779" lon="10.4846488"><ele>1812.0</ele><time>2026-04-26T12:24:57.361Z</time></trkpt><trkpt lat="46.4135525" lon="10.4844744"><ele>1814.0</ele><time>2026-04-26T12:24:58.364Z</time></trkpt><trkpt lat="46.4136248" lon="10.4843106"><ele>1812.4</ele><time>2026-04-26T12:24:59.358Z</time></trkpt><trkpt lat="46.4136965" lon="10.4841748"><ele>1810.8000000000002</ele><time>2026-04-26T12:25:00.362Z</time></trkpt><trkpt lat="46.4137302" lon="10.4840746"><ele>1809.1999999999998</ele><time>2026-04-26T12:25:01.363Z</time></trkpt><trkpt lat="46.4137952" lon="10.4839666"><ele>1807.6</ele><time>2026-04-26T12:25:02.362Z</time></trkpt><trkpt lat="46.4138214" lon="10.4838148"><ele>1806.0</ele><time>2026-04-26T12:25:03.361Z</time></trkpt><trkpt lat="46.413831" lon="10.4836854"><ele>1806.0</ele><time>2026-04-26T12:25:04.367Z</time></trkpt><trkpt lat="46.4138281" lon="10.4835615"><ele>1806.0</ele><time>2026-04-26T12:25:05.359Z</time></trkpt><trkpt lat="46.4138437" lon="10.4834313"><ele>1806.0</ele><time>2026-04-26T12:25:06.362Z</time></trkpt><trkpt lat="46.4139269" lon="10.4832555"><ele>1806.0</ele><time>2026-04-26T12:25:07.364Z</time></trkpt><trkpt lat="46.4139614" lon="10.4830577"><ele>1809.75</ele><time>2026-04-26T12:25:08.363Z</time></trkpt><trkpt lat="46.4139832" lon="10.4828565"><ele>1813.5</ele><time>2026-04-26T12:25:09.362Z</time></trkpt><trkpt lat="46.4140062" lon="10.4826649"><ele>1817.25</ele><time>2026-04-26T12:25:10.358Z</time></trkpt><trkpt lat="46.4140352" lon="10.4824842"><ele>1821.0</ele><time>2026-04-26T12:25:11.368Z</time></trkpt><trkpt lat="46.4141023" lon="10.482286"><ele>1824.25</ele><time>2026-04-26T12:25:12.363Z</time></trkpt><trkpt lat="46.4141757" lon="10.4820779"><ele>1827.5</ele><time>2026-04-26T12:25:13.361Z</time></trkpt><trkpt lat="46.414241" lon="10.481899"><ele>1830.75</ele><time>2026-04-26T12:25:14.365Z</time></trkpt><trkpt lat="46.414317" lon="10.4817386"><ele>1834.0</ele><time>2026-04-26T12:25:15.365Z</time></trkpt><trkpt lat="46.414372" lon="10.4816581"><ele>1834.0</ele><time>2026-04-26T12:25:16.362Z</time></trkpt><trkpt lat="46.414406" lon="10.4815523"><ele>1834.0</ele><time>2026-04-26T12:25:17.359Z</time></trkpt><trkpt lat="46.4144311" lon="10.4814107"><ele>1834.0</ele><time>2026-04-26T12:25:18.363Z</time></trkpt><trkpt lat="46.4144201" lon="10.48125"><ele>1834.0</ele><time>2026-04-26T12:25:19.362Z</time></trkpt><trkpt lat="46.4144111" lon="10.4811162"><ele>1834.0</ele><time>2026-04-26T12:25:20.363Z</time></trkpt><trkpt lat="46.414364" lon="10.4809954"><ele>1834.8000000000002</ele><time>2026-04-26T12:25:21.358Z</time></trkpt><trkpt lat="46.4143236" lon="10.4808724"><ele>1835.6000000000001</ele><time>2026-04-26T12:25:22.359Z</time></trkpt><trkpt lat="46.41426" lon="10.4807626"><ele>1836.4</ele><time>2026-04-26T12:25:23.363Z</time></trkpt><trkpt lat="46.4142122" lon="10.4806064"><ele>1837.2</ele><time>2026-04-26T12:25:25.368Z</time></trkpt><trkpt lat="46.4141743" lon="10.4804908"><ele>1838.0</ele><time>2026-04-26T12:25:27.362Z</time></trkpt><trkpt lat="46.4141599" lon="10.4803566"><ele>1839.2</ele><time>2026-04-26T12:25:29.365Z</time></trkpt><trkpt lat="46.4141326" lon="10.4802595"><ele>1840.4</ele><time>2026-04-26T12:25:30.368Z</time></trkpt><trkpt lat="46.4141424" lon="10.4801601"><ele>1841.6000000000001</ele><time>2026-04-26T12:25:32.373Z</time></trkpt><trkpt lat="46.4141946" lon="10.4800621"><ele>1842.8000000000002</ele><time>2026-04-26T12:25:34.361Z</time></trkpt><trkpt lat="46.4142849" lon="10.4800493"><ele>1844.0</ele><time>2026-04-26T12:25:36.364Z</time></trkpt><trkpt lat="46.4144128" lon="10.4800965"><ele>1844.0</ele><time>2026-04-26T12:25:38.363Z</time></trkpt><trkpt lat="46.4145002" lon="10.480108"><ele>1844.0</ele><time>2026-04-26T12:25:39.36Z</time></trkpt><trkpt lat="46.4145743" lon="10.4801112"><ele>1844.0</ele><time>2026-04-26T12:25:40.364Z</time></trkpt><trkpt lat="46.4146712" lon="10.480083"><ele>1844.0</ele><time>2026-04-26T12:25:41.361Z</time></trkpt><trkpt lat="46.414782" lon="10.4800331"><ele>1844.0</ele><time>2026-04-26T12:25:42.366Z</time></trkpt><trkpt lat="46.4148923" lon="10.4799767"><ele>1842.4</ele><time>2026-04-26T12:25:43.368Z</time></trkpt><trkpt lat="46.4149844" lon="10.4799447"><ele>1840.8000000000002</ele><time>2026-04-26T12:25:44.361Z</time></trkpt><trkpt lat="46.4150655" lon="10.4799033"><ele>1839.1999999999998</ele><time>2026-04-26T12:25:45.364Z</time></trkpt><trkpt lat="46.4151375" lon="10.4798813"><ele>1837.6</ele><time>2026-04-26T12:25:46.362Z</time></trkpt><trkpt lat="46.41518" lon="10.4796601"><ele>1836.0</ele><time>2026-04-26T12:25:48.366Z</time></trkpt><trkpt lat="46.4151651" lon="10.4795393"><ele>1836.0</ele><time>2026-04-26T12:25:49.364Z</time></trkpt><trkpt lat="46.4151747" lon="10.4793957"><ele>1836.0</ele><time>2026-04-26T12:25:50.366Z</time></trkpt><trkpt lat="46.4152162" lon="10.4792102"><ele>1836.0</ele><time>2026-04-26T12:25:51.36Z</time></trkpt><trkpt lat="46.4152544" lon="10.4790329"><ele>1836.0</ele><time>2026-04-26T12:25:52.364Z</time></trkpt><trkpt lat="46.4152889" lon="10.4788829"><ele>1837.6</ele><time>2026-04-26T12:25:53.366Z</time></trkpt><trkpt lat="46.41533" lon="10.4787217"><ele>1839.1999999999998</ele><time>2026-04-26T12:25:54.366Z</time></trkpt><trkpt lat="46.4153584" lon="10.4785938"><ele>1840.8000000000002</ele><time>2026-04-26T12:25:55.362Z</time></trkpt><trkpt lat="46.4154877" lon="10.4785538"><ele>1842.4</ele><time>2026-04-26T12:25:56.361Z</time></trkpt><trkpt lat="46.4155537" lon="10.4784859"><ele>1844.0</ele><time>2026-04-26T12:25:57.358Z</time></trkpt><trkpt lat="46.4155927" lon="10.4784008"><ele>1845.6</ele><time>2026-04-26T12:25:58.364Z</time></trkpt><trkpt lat="46.4156352" lon="10.4782709"><ele>1847.2</ele><time>2026-04-26T12:25:59.362Z</time></trkpt><trkpt lat="46.4156287" lon="10.4781637"><ele>1848.7999999999997</ele><time>2026-04-26T12:26:00.369Z</time></trkpt><trkpt lat="46.4156033" lon="10.4780638"><ele>1850.3999999999999</ele><time>2026-04-26T12:26:01.362Z</time></trkpt><trkpt lat="46.4155121" lon="10.4779195"><ele>1852.0</ele><time>2026-04-26T12:26:03.363Z</time></trkpt><trkpt lat="46.4154595" lon="10.4778284"><ele>1852.0</ele><time>2026-04-26T12:26:04.36Z</time></trkpt><trkpt lat="46.4154098" lon="10.4777404"><ele>1851.9999999999998</ele><time>2026-04-26T12:26:05.361Z</time></trkpt><trkpt lat="46.4153812" lon="10.4775492"><ele>1851.9999999999998</ele><time>2026-04-26T12:26:06.36Z</time></trkpt><trkpt lat="46.4153823" lon="10.4774273"><ele>1852.0</ele><time>2026-04-26T12:26:07.365Z</time></trkpt><trkpt lat="46.4153651" lon="10.4772865"><ele>1852.0</ele><time>2026-04-26T12:26:08.361Z</time></trkpt><trkpt lat="46.4154802" lon="10.4771865"><ele>1843.6666666666667</ele><time>2026-04-26T12:26:09.363Z</time></trkpt><trkpt lat="46.4155676" lon="10.4770375"><ele>1835.3333333333335</ele><time>2026-04-26T12:26:10.361Z</time></trkpt><trkpt lat="46.4157213" lon="10.4768421"><ele>1827.0</ele><time>2026-04-26T12:26:11.364Z</time></trkpt><trkpt lat="46.4158199" lon="10.4767157"><ele>1827.0</ele><time>2026-04-26T12:26:12.369Z</time></trkpt><trkpt lat="46.4158945" lon="10.476609"><ele>1827.0</ele><time>2026-04-26T12:26:13.361Z</time></trkpt><trkpt lat="46.4159338" lon="10.476525"><ele>1827.0</ele><time>2026-04-26T12:26:14.361Z</time></trkpt><trkpt lat="46.4159757" lon="10.4764239"><ele>1827.0</ele><time>2026-04-26T12:26:15.369Z</time></trkpt><trkpt lat="46.4160121" lon="10.4763119"><ele>1827.0</ele><time>2026-04-26T12:26:16.36Z</time></trkpt><trkpt lat="46.4160519" lon="10.4762035"><ele>1827.0</ele><time>2026-04-26T12:26:17.361Z</time></trkpt><trkpt lat="46.4160978" lon="10.4760866"><ele>1829.0</ele><time>2026-04-26T12:26:18.361Z</time></trkpt><trkpt lat="46.4161153" lon="10.4759733"><ele>1831.0</ele><time>2026-04-26T12:26:20.362Z</time></trkpt><trkpt lat="46.4161049" lon="10.4757285"><ele>1833.0</ele><time>2026-04-26T12:26:22.371Z</time></trkpt><trkpt lat="46.4160547" lon="10.475622"><ele>1835.0</ele><time>2026-04-26T12:26:23.364Z</time></trkpt><trkpt lat="46.4162079" lon="10.4754202"><ele>1831.25</ele><time>2026-04-26T12:26:25.364Z</time></trkpt><trkpt lat="46.4162887" lon="10.4752995"><ele>1827.5</ele><time>2026-04-26T12:26:26.362Z</time></trkpt><trkpt lat="46.4164053" lon="10.4752284"><ele>1823.75</ele><time>2026-04-26T12:26:27.362Z</time></trkpt><trkpt lat="46.4164949" lon="10.4751015"><ele>1820.0</ele><time>2026-04-26T12:26:28.36Z</time></trkpt><trkpt lat="46.4166082" lon="10.4749432"><ele>1820.0</ele><time>2026-04-26T12:26:29.36Z</time></trkpt><trkpt lat="46.416706" lon="10.4747462"><ele>1820.0</ele><time>2026-04-26T12:26:30.364Z</time></trkpt><trkpt lat="46.4167731" lon="10.4745707"><ele>1820.0</ele><time>2026-04-26T12:26:31.361Z</time></trkpt><trkpt lat="46.4168572" lon="10.4744007"><ele>1824.75</ele><time>2026-04-26T12:26:32.36Z</time></trkpt><trkpt lat="46.4169489" lon="10.4742951"><ele>1829.5</ele><time>2026-04-26T12:26:33.361Z</time></trkpt><trkpt lat="46.417013" lon="10.4741748"><ele>1834.25</ele><time>2026-04-26T12:26:34.359Z</time></trkpt><trkpt lat="46.4170501" lon="10.4740098"><ele>1839.0</ele><time>2026-04-26T12:26:35.362Z</time></trkpt><trkpt lat="46.4170941" lon="10.4738186"><ele>1832.3333333333335</ele><time>2026-04-26T12:26:36.367Z</time></trkpt><trkpt lat="46.4171616" lon="10.4736199"><ele>1825.6666666666667</ele><time>2026-04-26T12:26:37.361Z</time></trkpt><trkpt lat="46.417242" lon="10.4734315"><ele>1819.0</ele><time>2026-04-26T12:26:38.363Z</time></trkpt><trkpt lat="46.4173547" lon="10.4732627"><ele>1819.0</ele><time>2026-04-26T12:26:39.36Z</time></trkpt><trkpt lat="46.4174532" lon="10.4731092"><ele>1819.0</ele><time>2026-04-26T12:26:40.36Z</time></trkpt><trkpt lat="46.4175463" lon="10.4728687"><ele>1819.0</ele><time>2026-04-26T12:26:41.362Z</time></trkpt><trkpt lat="46.4176494" lon="10.4726426"><ele>1822.75</ele><time>2026-04-26T12:26:42.362Z</time></trkpt><trkpt lat="46.41772" lon="10.4724432"><ele>1826.5</ele><time>2026-04-26T12:26:43.365Z</time></trkpt><trkpt lat="46.4177878" lon="10.4722671"><ele>1830.25</ele><time>2026-04-26T12:26:44.364Z</time></trkpt><trkpt lat="46.4178253" lon="10.4720982"><ele>1834.0</ele><time>2026-04-26T12:26:45.364Z</time></trkpt><trkpt lat="46.4178635" lon="10.4719422"><ele>1837.0</ele><time>2026-04-26T12:26:46.362Z</time></trkpt><trkpt lat="46.4178868" lon="10.4717738"><ele>1840.0</ele><time>2026-04-26T12:26:47.36Z</time></trkpt><trkpt lat="46.417895" lon="10.4715582"><ele>1843.0</ele><time>2026-04-26T12:26:48.364Z</time></trkpt><trkpt lat="46.4179155" lon="10.4713793"><ele>1846.0</ele><time>2026-04-26T12:26:49.359Z</time></trkpt><trkpt lat="46.4179371" lon="10.4712258"><ele>1851.0</ele><time>2026-04-26T12:26:50.363Z</time></trkpt><trkpt lat="46.4179811" lon="10.4710673"><ele>1856.0</ele><time>2026-04-26T12:26:51.36Z</time></trkpt><trkpt lat="46.4180929" lon="10.4708129"><ele>1861.0</ele><time>2026-04-26T12:26:52.364Z</time></trkpt><trkpt lat="46.4182036" lon="10.470626"><ele>1854.75</ele><time>2026-04-26T12:26:53.361Z</time></trkpt><trkpt lat="46.4183076" lon="10.4704707"><ele>1848.5</ele><time>2026-04-26T12:26:54.362Z</time></trkpt><trkpt lat="46.4184035" lon="10.4703444"><ele>1842.25</ele><time>2026-04-26T12:26:55.361Z</time></trkpt><trkpt lat="46.4184787" lon="10.4702285"><ele>1836.0</ele><time>2026-04-26T12:26:56.361Z</time></trkpt><trkpt lat="46.4185286" lon="10.4700554"><ele>1836.0</ele><time>2026-04-26T12:26:57.362Z</time></trkpt><trkpt lat="46.4185784" lon="10.4698855"><ele>1836.0</ele><time>2026-04-26T12:26:58.365Z</time></trkpt><trkpt lat="46.4186283" lon="10.4697328"><ele>1836.0</ele><time>2026-04-26T12:26:59.361Z</time></trkpt><trkpt lat="46.4186789" lon="10.4695721"><ele>1836.0</ele><time>2026-04-26T12:27:00.364Z</time></trkpt><trkpt lat="46.4187435" lon="10.4694085"><ele>1840.75</ele><time>2026-04-26T12:27:01.361Z</time></trkpt><trkpt lat="46.4187921" lon="10.4692388"><ele>1845.5</ele><time>2026-04-26T12:27:02.362Z</time></trkpt><trkpt lat="46.4188342" lon="10.4690375"><ele>1850.25</ele><time>2026-04-26T12:27:03.361Z</time></trkpt><trkpt lat="46.4188743" lon="10.468827"><ele>1855.0</ele><time>2026-04-26T12:27:04.363Z</time></trkpt><trkpt lat="46.4189271" lon="10.4685937"><ele>1835.0</ele><time>2026-04-26T12:27:05.369Z</time></trkpt><trkpt lat="46.4190238" lon="10.468287"><ele>1815.0</ele><time>2026-04-26T12:27:06.364Z</time></trkpt><trkpt lat="46.419191" lon="10.4679853"><ele>1821.3333333333335</ele><time>2026-04-26T12:27:07.361Z</time></trkpt><trkpt lat="46.4192998" lon="10.4677213"><ele>1827.6666666666667</ele><time>2026-04-26T12:27:08.357Z</time></trkpt><trkpt lat="46.419401" lon="10.4674781"><ele>1834.0</ele><time>2026-04-26T12:27:09.362Z</time></trkpt><trkpt lat="46.4194993" lon="10.4672603"><ele>1839.6666666666667</ele><time>2026-04-26T12:27:10.367Z</time></trkpt><trkpt lat="46.4195781" lon="10.4670886"><ele>1845.3333333333335</ele><time>2026-04-26T12:27:11.361Z</time></trkpt><trkpt lat="46.4196555" lon="10.4668965"><ele>1851.0</ele><time>2026-04-26T12:27:12.359Z</time></trkpt><trkpt lat="46.4197218" lon="10.4666717"><ele>1843.3333333333335</ele><time>2026-04-26T12:27:13.362Z</time></trkpt><trkpt lat="46.4197936" lon="10.4664317"><ele>1835.6666666666667</ele><time>2026-04-26T12:27:14.362Z</time></trkpt><trkpt lat="46.4198621" lon="10.4661994"><ele>1828.0</ele><time>2026-04-26T12:27:15.364Z</time></trkpt><trkpt lat="46.4199569" lon="10.4659905"><ele>1828.0</ele><time>2026-04-26T12:27:16.365Z</time></trkpt><trkpt lat="46.4200507" lon="10.4657766"><ele>1828.0</ele><time>2026-04-26T12:27:17.362Z</time></trkpt><trkpt lat="46.4201585" lon="10.4655654"><ele>1828.0</ele><time>2026-04-26T12:27:18.362Z</time></trkpt><trkpt lat="46.4202412" lon="10.4653814"><ele>1833.5</ele><time>2026-04-26T12:27:19.361Z</time></trkpt><trkpt lat="46.420311" lon="10.465198"><ele>1839.0</ele><time>2026-04-26T12:27:20.361Z</time></trkpt><trkpt lat="46.4203741" lon="10.4650325"><ele>1844.5</ele><time>2026-04-26T12:27:21.362Z</time></trkpt><trkpt lat="46.4204284" lon="10.4648671"><ele>1850.0</ele><time>2026-04-26T12:27:22.359Z</time></trkpt><trkpt lat="46.4204739" lon="10.464758"><ele>1842.8</ele><time>2026-04-26T12:27:23.365Z</time></trkpt><trkpt lat="46.420512" lon="10.4646688"><ele>1835.6</ele><time>2026-04-26T12:27:25.361Z</time></trkpt><trkpt lat="46.4205533" lon="10.4645802"><ele>1828.4</ele><time>2026-04-26T12:27:27.359Z</time></trkpt><trkpt lat="46.4206014" lon="10.464483"><ele>1821.2</ele><time>2026-04-26T12:27:28.365Z</time></trkpt><trkpt lat="46.4206612" lon="10.4643315"><ele>1814.0</ele><time>2026-04-26T12:27:29.366Z</time></trkpt><trkpt lat="46.4207152" lon="10.4641787"><ele>1814.0</ele><time>2026-04-26T12:27:30.368Z</time></trkpt><trkpt lat="46.4207467" lon="10.4640434"><ele>1814.0</ele><time>2026-04-26T12:27:31.36Z</time></trkpt><trkpt lat="46.4207691" lon="10.4639154"><ele>1814.0</ele><time>2026-04-26T12:27:32.363Z</time></trkpt><trkpt lat="46.4207773" lon="10.4638034"><ele>1814.0</ele><time>2026-04-26T12:27:33.362Z</time></trkpt><trkpt lat="46.4207963" lon="10.4636864"><ele>1814.0</ele><time>2026-04-26T12:27:34.364Z</time></trkpt><trkpt lat="46.4208331" lon="10.4635505"><ele>1819.25</ele><time>2026-04-26T12:27:35.363Z</time></trkpt><trkpt lat="46.4208734" lon="10.4634115"><ele>1824.5</ele><time>2026-04-26T12:27:36.359Z</time></trkpt><trkpt lat="46.4209848" lon="10.463225"><ele>1829.75</ele><time>2026-04-26T12:27:37.36Z</time></trkpt><trkpt lat="46.4210604" lon="10.4630643"><ele>1835.0</ele><time>2026-04-26T12:27:38.362Z</time></trkpt><trkpt lat="46.4211317" lon="10.4629033"><ele>1839.2</ele><time>2026-04-26T12:27:39.361Z</time></trkpt><trkpt lat="46.4212519" lon="10.4628172"><ele>1843.4</ele><time>2026-04-26T12:27:40.359Z</time></trkpt><trkpt lat="46.421355" lon="10.4627196"><ele>1847.6</ele><time>2026-04-26T12:27:41.362Z</time></trkpt><trkpt lat="46.421407" lon="10.4626631"><ele>1851.8</ele><time>2026-04-26T12:27:42.36Z</time></trkpt><trkpt lat="46.4214671" lon="10.4625547"><ele>1856.0</ele><time>2026-04-26T12:27:43.367Z</time></trkpt><trkpt lat="46.4214898" lon="10.4623565"><ele>1847.75</ele><time>2026-04-26T12:27:44.364Z</time></trkpt><trkpt lat="46.4215693" lon="10.4621595"><ele>1839.5</ele><time>2026-04-26T12:27:45.364Z</time></trkpt><trkpt lat="46.4216463" lon="10.4619929"><ele>1831.25</ele><time>2026-04-26T12:27:46.362Z</time></trkpt><trkpt lat="46.4217646" lon="10.4618648"><ele>1823.0</ele><time>2026-04-26T12:27:47.364Z</time></trkpt><trkpt lat="46.4218844" lon="10.4617755"><ele>1823.0</ele><time>2026-04-26T12:27:48.362Z</time></trkpt><trkpt lat="46.4219737" lon="10.4616977"><ele>1823.0000000000002</ele><time>2026-04-26T12:27:49.358Z</time></trkpt><trkpt lat="46.4220147" lon="10.4616225"><ele>1823.0000000000002</ele><time>2026-04-26T12:27:50.366Z</time></trkpt><trkpt lat="46.422032" lon="10.4615175"><ele>1823.0</ele><time>2026-04-26T12:27:51.358Z</time></trkpt><trkpt lat="46.4220366" lon="10.46135"><ele>1823.0</ele><time>2026-04-26T12:27:52.36Z</time></trkpt><trkpt lat="46.4220034" lon="10.4611922"><ele>1827.0</ele><time>2026-04-26T12:27:53.362Z</time></trkpt><trkpt lat="46.4219899" lon="10.4610537"><ele>1831.0</ele><time>2026-04-26T12:27:54.358Z</time></trkpt><trkpt lat="46.4219836" lon="10.4609153"><ele>1835.0</ele><time>2026-04-26T12:27:55.359Z</time></trkpt><trkpt lat="46.4220677" lon="10.4607548"><ele>1839.0</ele><time>2026-04-26T12:27:56.361Z</time></trkpt><trkpt lat="46.4221566" lon="10.4605789"><ele>1834.0</ele><time>2026-04-26T12:27:57.359Z</time></trkpt><trkpt lat="46.4222344" lon="10.4604557"><ele>1829.0</ele><time>2026-04-26T12:27:58.362Z</time></trkpt><trkpt lat="46.4223446" lon="10.4604061"><ele>1824.0</ele><time>2026-04-26T12:27:59.361Z</time></trkpt><trkpt lat="46.4224503" lon="10.4603568"><ele>1819.0</ele><time>2026-04-26T12:28:00.363Z</time></trkpt><trkpt lat="46.4225134" lon="10.4602808"><ele>1814.0</ele><time>2026-04-26T12:28:01.359Z</time></trkpt><trkpt lat="46.4225755" lon="10.4601286"><ele>1814.0</ele><time>2026-04-26T12:28:02.361Z</time></trkpt><trkpt lat="46.4226565" lon="10.459945"><ele>1814.0</ele><time>2026-04-26T12:28:03.365Z</time></trkpt><trkpt lat="46.4227627" lon="10.4597511"><ele>1814.0</ele><time>2026-04-26T12:28:04.359Z</time></trkpt><trkpt lat="46.4229043" lon="10.4595404"><ele>1805.3333333333333</ele><time>2026-04-26T12:28:05.359Z</time></trkpt><trkpt lat="46.4230378" lon="10.4593516"><ele>1796.6666666666665</ele><time>2026-04-26T12:28:06.36Z</time></trkpt><trkpt lat="46.4231617" lon="10.4591845"><ele>1788.0</ele><time>2026-04-26T12:28:07.36Z</time></trkpt><trkpt lat="46.4232845" lon="10.459036"><ele>1788.0</ele><time>2026-04-26T12:28:08.361Z</time></trkpt><trkpt lat="46.4234033" lon="10.4588802"><ele>1788.0</ele><time>2026-04-26T12:28:09.364Z</time></trkpt><trkpt lat="46.4234995" lon="10.4587134"><ele>1788.0</ele><time>2026-04-26T12:28:10.363Z</time></trkpt><trkpt lat="46.4236039" lon="10.4585348"><ele>1785.5</ele><time>2026-04-26T12:28:11.361Z</time></trkpt><trkpt lat="46.4237128" lon="10.4583705"><ele>1783.0</ele><time>2026-04-26T12:28:12.36Z</time></trkpt><trkpt lat="46.4237908" lon="10.4581988"><ele>1780.5</ele><time>2026-04-26T12:28:13.359Z</time></trkpt><trkpt lat="46.4238302" lon="10.458071"><ele>1778.0</ele><time>2026-04-26T12:28:14.362Z</time></trkpt><trkpt lat="46.4239275" lon="10.4579389"><ele>1778.0</ele><time>2026-04-26T12:28:15.361Z</time></trkpt><trkpt lat="46.4240426" lon="10.4578769"><ele>1778.0</ele><time>2026-04-26T12:28:16.36Z</time></trkpt><trkpt lat="46.4241452" lon="10.4577703"><ele>1778.0</ele><time>2026-04-26T12:28:17.366Z</time></trkpt><trkpt lat="46.4242475" lon="10.4576668"><ele>1778.0</ele><time>2026-04-26T12:28:18.361Z</time></trkpt><trkpt lat="46.4243193" lon="10.4575603"><ele>1778.0</ele><time>2026-04-26T12:28:19.36Z</time></trkpt><trkpt lat="46.4243677" lon="10.4574003"><ele>1778.0</ele><time>2026-04-26T12:28:20.363Z</time></trkpt><trkpt lat="46.4244212" lon="10.4571983"><ele>1778.0</ele><time>2026-04-26T12:28:21.359Z</time></trkpt><trkpt lat="46.4244862" lon="10.457032"><ele>1778.0</ele><time>2026-04-26T12:28:22.367Z</time></trkpt><trkpt lat="46.4245397" lon="10.4568768"><ele>1775.8000000000002</ele><time>2026-04-26T12:28:23.365Z</time></trkpt><trkpt lat="46.4246202" lon="10.4568606"><ele>1773.6000000000001</ele><time>2026-04-26T12:28:24.365Z</time></trkpt><trkpt lat="46.4246795" lon="10.4567786"><ele>1771.3999999999999</ele><time>2026-04-26T12:28:25.367Z</time></trkpt><trkpt lat="46.4246822" lon="10.4566114"><ele>1769.1999999999998</ele><time>2026-04-26T12:28:26.364Z</time></trkpt><trkpt lat="46.4247155" lon="10.4564165"><ele>1767.0</ele><time>2026-04-26T12:28:27.359Z</time></trkpt><trkpt lat="46.4247864" lon="10.4562398"><ele>1767.0</ele><time>2026-04-26T12:28:28.362Z</time></trkpt><trkpt lat="46.4248357" lon="10.4561268"><ele>1766.9999999999998</ele><time>2026-04-26T12:28:29.363Z</time></trkpt><trkpt lat="46.4248695" lon="10.455972"><ele>1766.9999999999998</ele><time>2026-04-26T12:28:30.36Z</time></trkpt><trkpt lat="46.4248939" lon="10.4557958"><ele>1767.0</ele><time>2026-04-26T12:28:31.361Z</time></trkpt><trkpt lat="46.4249291" lon="10.4556377"><ele>1767.0</ele><time>2026-04-26T12:28:32.364Z</time></trkpt><trkpt lat="46.4250482" lon="10.4554601"><ele>1769.0</ele><time>2026-04-26T12:28:33.366Z</time></trkpt><trkpt lat="46.4250967" lon="10.4552839"><ele>1771.0</ele><time>2026-04-26T12:28:34.357Z</time></trkpt><trkpt lat="46.4251216" lon="10.4551283"><ele>1773.0</ele><time>2026-04-26T12:28:35.36Z</time></trkpt><trkpt lat="46.4251408" lon="10.454975"><ele>1775.0</ele><time>2026-04-26T12:28:36.36Z</time></trkpt><trkpt lat="46.4251454" lon="10.4548223"><ele>1775.0</ele><time>2026-04-26T12:28:37.364Z</time></trkpt><trkpt lat="46.4250511" lon="10.4546539"><ele>1775.0</ele><time>2026-04-26T12:28:38.36Z</time></trkpt><trkpt lat="46.4249891" lon="10.4544692"><ele>1775.0</ele><time>2026-04-26T12:28:39.368Z</time></trkpt><trkpt lat="46.4249132" lon="10.4542891"><ele>1775.0</ele><time>2026-04-26T12:28:40.365Z</time></trkpt><trkpt lat="46.4248645" lon="10.4541357"><ele>1773.25</ele><time>2026-04-26T12:28:41.36Z</time></trkpt><trkpt lat="46.4248114" lon="10.4540326"><ele>1771.5</ele><time>2026-04-26T12:28:42.357Z</time></trkpt><trkpt lat="46.4247759" lon="10.4539492"><ele>1769.75</ele><time>2026-04-26T12:28:43.364Z</time></trkpt><trkpt lat="46.4246919" lon="10.4537148"><ele>1768.0</ele><time>2026-04-26T12:29:25.361Z</time></trkpt><trkpt lat="46.4246329" lon="10.4535682"><ele>1775.0</ele><time>2026-04-26T12:29:26.369Z</time></trkpt><trkpt lat="46.4245547" lon="10.4534081"><ele>1782.0000000000002</ele><time>2026-04-26T12:29:27.367Z</time></trkpt><trkpt lat="46.4244888" lon="10.4532576"><ele>1789.0000000000002</ele><time>2026-04-26T12:29:28.364Z</time></trkpt><trkpt lat="46.4244474" lon="10.4531382"><ele>1796.0</ele><time>2026-04-26T12:29:29.371Z</time></trkpt><trkpt lat="46.4244086" lon="10.4530058"><ele>1803.0</ele><time>2026-04-26T12:29:30.359Z</time></trkpt><trkpt lat="46.424389" lon="10.4528263"><ele>1803.0</ele><time>2026-04-26T12:29:31.36Z</time></trkpt><trkpt lat="46.424362" lon="10.4526114"><ele>1803.0</ele><time>2026-04-26T12:29:32.36Z</time></trkpt><trkpt lat="46.4243371" lon="10.4524029"><ele>1803.0</ele><time>2026-04-26T12:29:33.362Z</time></trkpt><trkpt lat="46.4243197" lon="10.4522518"><ele>1803.0</ele><time>2026-04-26T12:29:34.362Z</time></trkpt><trkpt lat="46.424322" lon="10.4521305"><ele>1801.4</ele><time>2026-04-26T12:29:35.359Z</time></trkpt><trkpt lat="46.4243488" lon="10.4520172"><ele>1799.8000000000002</ele><time>2026-04-26T12:29:36.363Z</time></trkpt><trkpt lat="46.4243973" lon="10.4518763"><ele>1798.2</ele><time>2026-04-26T12:29:37.363Z</time></trkpt><trkpt lat="46.4244272" lon="10.4517513"><ele>1796.6</ele><time>2026-04-26T12:29:38.364Z</time></trkpt><trkpt lat="46.4244536" lon="10.4516268"><ele>1795.0</ele><time>2026-04-26T12:29:39.362Z</time></trkpt><trkpt lat="46.4244505" lon="10.4514435"><ele>1794.2</ele><time>2026-04-26T12:29:40.362Z</time></trkpt><trkpt lat="46.4244304" lon="10.4512787"><ele>1793.4</ele><time>2026-04-26T12:29:41.36Z</time></trkpt><trkpt lat="46.4243869" lon="10.4511101"><ele>1792.6</ele><time>2026-04-26T12:29:42.36Z</time></trkpt><trkpt lat="46.424349" lon="10.4509767"><ele>1791.8</ele><time>2026-04-26T12:29:43.361Z</time></trkpt><trkpt lat="46.4243189" lon="10.4508664"><ele>1791.0</ele><time>2026-04-26T12:29:44.361Z</time></trkpt><trkpt lat="46.4242908" lon="10.4507773"><ele>1791.0</ele><time>2026-04-26T12:29:45.363Z</time></trkpt><trkpt lat="46.4242651" lon="10.4506898"><ele>1791.0</ele><time>2026-04-26T12:29:46.367Z</time></trkpt><trkpt lat="46.4242479" lon="10.450595"><ele>1791.0</ele><time>2026-04-26T12:29:47.365Z</time></trkpt><trkpt lat="46.4242252" lon="10.4505034"><ele>1791.0</ele><time>2026-04-26T12:29:48.365Z</time></trkpt><trkpt lat="46.4241921" lon="10.4503508"><ele>1791.0</ele><time>2026-04-26T12:29:50.364Z</time></trkpt><trkpt lat="46.4241665" lon="10.4502229"><ele>1791.0</ele><time>2026-04-26T12:29:52.362Z</time></trkpt><trkpt lat="46.424148" lon="10.4501267"><ele>1791.3333333333333</ele><time>2026-04-26T12:29:55.359Z</time></trkpt><trkpt lat="46.4241364" lon="10.45003"><ele>1791.6666666666665</ele><time>2026-04-26T12:30:00.366Z</time></trkpt><trkpt lat="46.4241259" lon="10.4499005"><ele>1792.0</ele><time>2026-04-26T12:30:03.361Z</time></trkpt><trkpt lat="46.4241378" lon="10.4498077"><ele>1792.3333333333333</ele><time>2026-04-26T12:30:06.359Z</time></trkpt><trkpt lat="46.4242126" lon="10.4497211"><ele>1792.6666666666665</ele><time>2026-04-26T12:30:09.36Z</time></trkpt><trkpt lat="46.4243336" lon="10.4496803"><ele>1793.0</ele><time>2026-04-26T12:30:11.363Z</time></trkpt><trkpt lat="46.4244025" lon="10.4496951"><ele>1793.0</ele><time>2026-04-26T12:30:12.36Z</time></trkpt><trkpt lat="46.4244667" lon="10.4497879"><ele>1793.0</ele><time>2026-04-26T12:30:13.36Z</time></trkpt><trkpt lat="46.424657" lon="10.4499324"><ele>1793.0</ele><time>2026-04-26T12:30:14.365Z</time></trkpt><trkpt lat="46.4247413" lon="10.4499873"><ele>1793.0</ele><time>2026-04-26T12:30:15.365Z</time></trkpt><trkpt lat="46.4248539" lon="10.4500552"><ele>1792.0</ele><time>2026-04-26T12:30:16.36Z</time></trkpt><trkpt lat="46.4249591" lon="10.4501056"><ele>1791.0000000000002</ele><time>2026-04-26T12:30:17.369Z</time></trkpt><trkpt lat="46.4250317" lon="10.4501583"><ele>1790.0000000000002</ele><time>2026-04-26T12:30:18.366Z</time></trkpt><trkpt lat="46.4251408" lon="10.4502455"><ele>1789.0</ele><time>2026-04-26T12:30:19.362Z</time></trkpt><trkpt lat="46.4252475" lon="10.4503143"><ele>1788.0</ele><time>2026-04-26T12:30:20.361Z</time></trkpt><trkpt lat="46.4253677" lon="10.450381"><ele>1781.0</ele><time>2026-04-26T12:30:21.363Z</time></trkpt><trkpt lat="46.4254988" lon="10.4504672"><ele>1774.0</ele><time>2026-04-26T12:30:22.366Z</time></trkpt><trkpt lat="46.4256378" lon="10.4505773"><ele>1767.0</ele><time>2026-04-26T12:30:23.364Z</time></trkpt><trkpt lat="46.4257691" lon="10.4507033"><ele>1767.0</ele><time>2026-04-26T12:30:24.359Z</time></trkpt><trkpt lat="46.4258827" lon="10.450803"><ele>1767.0</ele><time>2026-04-26T12:30:25.363Z</time></trkpt><trkpt lat="46.4259923" lon="10.4508889"><ele>1767.0</ele><time>2026-04-26T12:30:26.366Z</time></trkpt><trkpt lat="46.4260997" lon="10.4509656"><ele>1767.0</ele><time>2026-04-26T12:30:27.361Z</time></trkpt><trkpt lat="46.4262124" lon="10.4510108"><ele>1771.6666666666665</ele><time>2026-04-26T12:30:28.36Z</time></trkpt><trkpt lat="46.4263366" lon="10.4510425"><ele>1776.3333333333333</ele><time>2026-04-26T12:30:29.365Z</time></trkpt><trkpt lat="46.4265066" lon="10.4511271"><ele>1781.0</ele><time>2026-04-26T12:30:30.366Z</time></trkpt><trkpt lat="46.4266631" lon="10.4511877"><ele>1781.0</ele><time>2026-04-26T12:30:31.371Z</time></trkpt><trkpt lat="46.4268266" lon="10.4512668"><ele>1781.0</ele><time>2026-04-26T12:30:32.36Z</time></trkpt><trkpt lat="46.426975" lon="10.4513302"><ele>1781.0</ele><time>2026-04-26T12:30:33.36Z</time></trkpt><trkpt lat="46.4271302" lon="10.451381"><ele>1772.6666666666665</ele><time>2026-04-26T12:30:34.36Z</time></trkpt><trkpt lat="46.4272843" lon="10.4514544"><ele>1764.3333333333335</ele><time>2026-04-26T12:30:35.359Z</time></trkpt><trkpt lat="46.4274278" lon="10.4514941"><ele>1756.0</ele><time>2026-04-26T12:30:36.366Z</time></trkpt><trkpt lat="46.4275795" lon="10.4515163"><ele>1756.0</ele><time>2026-04-26T12:30:37.364Z</time></trkpt><trkpt lat="46.4277115" lon="10.451536"><ele>1756.0</ele><time>2026-04-26T12:30:38.358Z</time></trkpt><trkpt lat="46.427855" lon="10.4515722"><ele>1756.0</ele><time>2026-04-26T12:30:39.36Z</time></trkpt><trkpt lat="46.4279803" lon="10.451632"><ele>1756.0</ele><time>2026-04-26T12:30:40.36Z</time></trkpt><trkpt lat="46.4281006" lon="10.4517161"><ele>1755.5</ele><time>2026-04-26T12:30:42.361Z</time></trkpt><trkpt lat="46.4281832" lon="10.4516921"><ele>1755.0</ele><time>2026-04-26T12:30:43.36Z</time></trkpt><trkpt lat="46.4282903" lon="10.451647"><ele>1754.5</ele><time>2026-04-26T12:30:44.361Z</time></trkpt><trkpt lat="46.4284267" lon="10.4515836"><ele>1754.0</ele><time>2026-04-26T12:30:45.359Z</time></trkpt><trkpt lat="46.4285527" lon="10.451514"><ele>1753.9999999999998</ele><time>2026-04-26T12:30:46.361Z</time></trkpt><trkpt lat="46.4286659" lon="10.4514468"><ele>1754.0</ele><time>2026-04-26T12:30:47.362Z</time></trkpt><trkpt lat="46.4287273" lon="10.4514099"><ele>1754.0</ele><time>2026-04-26T12:30:48.367Z</time></trkpt><trkpt lat="46.4287893" lon="10.4513576"><ele>1754.0</ele><time>2026-04-26T12:30:49.36Z</time></trkpt><trkpt lat="46.4288484" lon="10.4513043"><ele>1753.9999999999998</ele><time>2026-04-26T12:30:50.36Z</time></trkpt><trkpt lat="46.4288997" lon="10.45124"><ele>1754.0</ele><time>2026-04-26T12:30:51.361Z</time></trkpt><trkpt lat="46.4289376" lon="10.451138"><ele>1754.75</ele><time>2026-04-26T12:30:52.363Z</time></trkpt><trkpt lat="46.4289751" lon="10.4509975"><ele>1755.5</ele><time>2026-04-26T12:30:53.362Z</time></trkpt><trkpt lat="46.4290117" lon="10.4508581"><ele>1756.25</ele><time>2026-04-26T12:30:54.374Z</time></trkpt><trkpt lat="46.4290869" lon="10.4506862"><ele>1757.0</ele><time>2026-04-26T12:30:55.373Z</time></trkpt><trkpt lat="46.4291559" lon="10.4505207"><ele>1761.8</ele><time>2026-04-26T12:30:56.359Z</time></trkpt><trkpt lat="46.429209" lon="10.4503985"><ele>1766.6</ele><time>2026-04-26T12:30:57.362Z</time></trkpt><trkpt lat="46.4292229" lon="10.4502993"><ele>1771.3999999999999</ele><time>2026-04-26T12:30:58.365Z</time></trkpt><trkpt lat="46.4291984" lon="10.4501883"><ele>1776.1999999999998</ele><time>2026-04-26T12:31:00.362Z</time></trkpt><trkpt lat="46.4291289" lon="10.4501531"><ele>1781.0</ele><time>2026-04-26T12:31:01.369Z</time></trkpt><trkpt lat="46.4289799" lon="10.4501034"><ele>1781.0</ele><time>2026-04-26T12:31:03.365Z</time></trkpt><trkpt lat="46.4289112" lon="10.4500637"><ele>1781.0</ele><time>2026-04-26T12:31:05.364Z</time></trkpt><trkpt lat="46.4288806" lon="10.4499555"><ele>1781.0</ele><time>2026-04-26T12:31:07.369Z</time></trkpt><trkpt lat="46.4289244" lon="10.4498737"><ele>1781.0</ele><time>2026-04-26T12:31:10.364Z</time></trkpt><trkpt lat="46.4289816" lon="10.4497749"><ele>1781.0</ele><time>2026-04-26T12:31:13.362Z</time></trkpt><trkpt lat="46.4290386" lon="10.4495667"><ele>1807.0</ele><time>2026-04-26T12:31:14.36Z</time></trkpt><trkpt lat="46.4295295" lon="10.4492438"><ele>1807.0</ele><time>2026-04-26T12:31:15.359Z</time></trkpt><trkpt lat="46.4296251" lon="10.4491543"><ele>1806.9999999999998</ele><time>2026-04-26T12:31:16.357Z</time></trkpt><trkpt lat="46.4297118" lon="10.4490786"><ele>1806.9999999999998</ele><time>2026-04-26T12:31:17.36Z</time></trkpt><trkpt lat="46.429784" lon="10.4489896"><ele>1807.0</ele><time>2026-04-26T12:31:18.366Z</time></trkpt><trkpt lat="46.4298446" lon="10.4488971"><ele>1807.0</ele><time>2026-04-26T12:31:19.363Z</time></trkpt><trkpt lat="46.4299144" lon="10.4487999"><ele>1810.0</ele><time>2026-04-26T12:31:20.366Z</time></trkpt><trkpt lat="46.4300017" lon="10.4486971"><ele>1813.0</ele><time>2026-04-26T12:31:21.369Z</time></trkpt><trkpt lat="46.4300799" lon="10.4485845"><ele>1816.0</ele><time>2026-04-26T12:31:22.364Z</time></trkpt><trkpt lat="46.4301419" lon="10.4484455"><ele>1819.0</ele><time>2026-04-26T12:31:23.363Z</time></trkpt><trkpt lat="46.4302089" lon="10.4482787"><ele>1819.0</ele><time>2026-04-26T12:31:24.362Z</time></trkpt><trkpt lat="46.4302759" lon="10.4481263"><ele>1819.0</ele><time>2026-04-26T12:31:25.362Z</time></trkpt><trkpt lat="46.4303312" lon="10.4479498"><ele>1819.0</ele><time>2026-04-26T12:31:26.366Z</time></trkpt><trkpt lat="46.4303934" lon="10.4477933"><ele>1819.0</ele><time>2026-04-26T12:31:27.362Z</time></trkpt><trkpt lat="46.4304605" lon="10.4476502"><ele>1822.2</ele><time>2026-04-26T12:31:28.368Z</time></trkpt><trkpt lat="46.430548" lon="10.4475064"><ele>1825.4</ele><time>2026-04-26T12:31:29.361Z</time></trkpt><trkpt lat="46.4306077" lon="10.4473829"><ele>1828.6</ele><time>2026-04-26T12:31:30.37Z</time></trkpt><trkpt lat="46.4306504" lon="10.4472504"><ele>1831.8</ele><time>2026-04-26T12:31:31.358Z</time></trkpt><trkpt lat="46.4306763" lon="10.4471149"><ele>1835.0</ele><time>2026-04-26T12:31:32.37Z</time></trkpt><trkpt lat="46.4306981" lon="10.4470119"><ele>1842.0</ele><time>2026-04-26T12:31:33.362Z</time></trkpt><trkpt lat="46.4306743" lon="10.4468961"><ele>1849.0</ele><time>2026-04-26T12:31:35.36Z</time></trkpt><trkpt lat="46.430549" lon="10.446849"><ele>1856.0</ele><time>2026-04-26T12:31:37.362Z</time></trkpt><trkpt lat="46.4304542" lon="10.4468431"><ele>1863.0</ele><time>2026-04-26T12:31:38.366Z</time></trkpt><trkpt lat="46.4303445" lon="10.4468618"><ele>1870.0</ele><time>2026-04-26T12:31:39.365Z</time></trkpt><trkpt lat="46.4302426" lon="10.4468879"><ele>1872.5000000000002</ele><time>2026-04-26T12:31:40.36Z</time></trkpt><trkpt lat="46.4301413" lon="10.4468916"><ele>1875.0</ele><time>2026-04-26T12:31:41.365Z</time></trkpt><trkpt lat="46.4300652" lon="10.4468702"><ele>1877.5</ele><time>2026-04-26T12:31:42.366Z</time></trkpt><trkpt lat="46.4299871" lon="10.4468362"><ele>1880.0</ele><time>2026-04-26T12:31:43.364Z</time></trkpt><trkpt lat="46.4300816" lon="10.4467557"><ele>1882.5000000000002</ele><time>2026-04-26T12:31:44.36Z</time></trkpt><trkpt lat="46.4301206" lon="10.4466621"><ele>1885.0</ele><time>2026-04-26T12:31:45.362Z</time></trkpt><trkpt lat="46.4301771" lon="10.4465411"><ele>1885.0</ele><time>2026-04-26T12:31:46.369Z</time></trkpt><trkpt lat="46.4302626" lon="10.4464219"><ele>1885.0</ele><time>2026-04-26T12:31:47.366Z</time></trkpt><trkpt lat="46.4303627" lon="10.4462986"><ele>1885.0</ele><time>2026-04-26T12:31:48.359Z</time></trkpt><trkpt lat="46.4304637" lon="10.4461809"><ele>1885.0</ele><time>2026-04-26T12:31:49.358Z</time></trkpt><trkpt lat="46.4305615" lon="10.4460629"><ele>1888.2</ele><time>2026-04-26T12:31:50.367Z</time></trkpt><trkpt lat="46.4306666" lon="10.4460528"><ele>1891.4</ele><time>2026-04-26T12:31:51.361Z</time></trkpt><trkpt lat="46.4307472" lon="10.4460111"><ele>1894.6</ele><time>2026-04-26T12:31:52.36Z</time></trkpt><trkpt lat="46.430801" lon="10.4459604"><ele>1897.8</ele><time>2026-04-26T12:31:53.359Z</time></trkpt><trkpt lat="46.4308143" lon="10.4458578"><ele>1901.0</ele><time>2026-04-26T12:31:55.359Z</time></trkpt><trkpt lat="46.4306936" lon="10.4458065"><ele>1901.0</ele><time>2026-04-26T12:31:57.36Z</time></trkpt><trkpt lat="46.4306075" lon="10.4457883"><ele>1901.0</ele><time>2026-04-26T12:31:58.367Z</time></trkpt><trkpt lat="46.4305211" lon="10.4457801"><ele>1901.0</ele><time>2026-04-26T12:31:59.37Z</time></trkpt><trkpt lat="46.4304021" lon="10.4457566"><ele>1901.0</ele><time>2026-04-26T12:32:00.37Z</time></trkpt><trkpt lat="46.4303109" lon="10.4457072"><ele>1901.0</ele><time>2026-04-26T12:32:01.361Z</time></trkpt><trkpt lat="46.4302485" lon="10.4456933"><ele>1903.6</ele><time>2026-04-26T12:32:02.363Z</time></trkpt><trkpt lat="46.4301607" lon="10.4456665"><ele>1906.1999999999998</ele><time>2026-04-26T12:32:03.364Z</time></trkpt><trkpt lat="46.4300779" lon="10.4456469"><ele>1908.8000000000002</ele><time>2026-04-26T12:32:04.366Z</time></trkpt><trkpt lat="46.4300158" lon="10.4456169"><ele>1911.4</ele><time>2026-04-26T12:32:05.363Z</time></trkpt><trkpt lat="46.4300083" lon="10.4454932"><ele>1914.0</ele><time>2026-04-26T12:32:07.36Z</time></trkpt><trkpt lat="46.4300718" lon="10.4453115"><ele>1919.4</ele><time>2026-04-26T12:32:09.36Z</time></trkpt><trkpt lat="46.4301202" lon="10.4451814"><ele>1924.8000000000002</ele><time>2026-04-26T12:32:10.361Z</time></trkpt><trkpt lat="46.4301689" lon="10.4450384"><ele>1930.1999999999998</ele><time>2026-04-26T12:32:11.361Z</time></trkpt><trkpt lat="46.4302148" lon="10.4448999"><ele>1935.6</ele><time>2026-04-26T12:32:12.368Z</time></trkpt><trkpt lat="46.4302498" lon="10.4447659"><ele>1941.0</ele><time>2026-04-26T12:32:13.359Z</time></trkpt><trkpt lat="46.4303068" lon="10.444611"><ele>1941.1999999999998</ele><time>2026-04-26T12:32:14.366Z</time></trkpt><trkpt lat="46.4303742" lon="10.4444639"><ele>1941.3999999999999</ele><time>2026-04-26T12:32:15.359Z</time></trkpt><trkpt lat="46.4304324" lon="10.4443298"><ele>1941.6</ele><time>2026-04-26T12:32:16.367Z</time></trkpt><trkpt lat="46.4304809" lon="10.4441981"><ele>1941.8</ele><time>2026-04-26T12:32:17.362Z</time></trkpt><trkpt lat="46.4305215" lon="10.4440497"><ele>1942.0</ele><time>2026-04-26T12:32:18.36Z</time></trkpt><trkpt lat="46.4305576" lon="10.4438456"><ele>1946.6</ele><time>2026-04-26T12:32:19.361Z</time></trkpt><trkpt lat="46.4305821" lon="10.443651"><ele>1951.1999999999998</ele><time>2026-04-26T12:32:20.373Z</time></trkpt><trkpt lat="46.4305994" lon="10.4434729"><ele>1955.8</ele><time>2026-04-26T12:32:21.361Z</time></trkpt><trkpt lat="46.4306169" lon="10.4433303"><ele>1960.4</ele><time>2026-04-26T12:32:22.367Z</time></trkpt><trkpt lat="46.4306356" lon="10.4432051"><ele>1965.0</ele><time>2026-04-26T12:32:23.36Z</time></trkpt><trkpt lat="46.4305426" lon="10.4431981"><ele>1965.0</ele><time>2026-04-26T12:32:26.364Z</time></trkpt><trkpt lat="46.4304901" lon="10.443275"><ele>1965.0</ele><time>2026-04-26T12:32:27.362Z</time></trkpt><trkpt lat="46.4304456" lon="10.4433588"><ele>1965.0</ele><time>2026-04-26T12:32:28.368Z</time></trkpt><trkpt lat="46.4304209" lon="10.4432048"><ele>1965.0</ele><time>2026-04-26T12:32:32.362Z</time></trkpt><trkpt lat="46.4304322" lon="10.4430951"><ele>1965.0</ele><time>2026-04-26T12:32:33.368Z</time></trkpt><trkpt lat="46.4304505" lon="10.4429614"><ele>1965.0</ele><time>2026-04-26T12:32:34.369Z</time></trkpt><trkpt lat="46.4304751" lon="10.4427759"><ele>1971.0</ele><time>2026-04-26T12:32:35.359Z</time></trkpt><trkpt lat="46.4304979" lon="10.4426012"><ele>1977.0</ele><time>2026-04-26T12:32:36.362Z</time></trkpt><trkpt lat="46.4305263" lon="10.4424483"><ele>1983.0</ele><time>2026-04-26T12:32:37.365Z</time></trkpt><trkpt lat="46.4306153" lon="10.4423065"><ele>1989.0</ele><time>2026-04-26T12:32:38.363Z</time></trkpt><trkpt lat="46.4307021" lon="10.4421744"><ele>1993.6</ele><time>2026-04-26T12:32:39.358Z</time></trkpt><trkpt lat="46.4307761" lon="10.442053"><ele>1998.2</ele><time>2026-04-26T12:32:40.367Z</time></trkpt><trkpt lat="46.4308261" lon="10.4419304"><ele>2002.7999999999997</ele><time>2026-04-26T12:32:41.363Z</time></trkpt><trkpt lat="46.4308638" lon="10.4417859"><ele>2007.3999999999999</ele><time>2026-04-26T12:32:42.364Z</time></trkpt><trkpt lat="46.4308936" lon="10.4416175"><ele>2012.0</ele><time>2026-04-26T12:32:43.366Z</time></trkpt><trkpt lat="46.4309253" lon="10.4414712"><ele>2012.0</ele><time>2026-04-26T12:32:44.363Z</time></trkpt><trkpt lat="46.4309575" lon="10.4413379"><ele>2011.9999999999998</ele><time>2026-04-26T12:32:45.365Z</time></trkpt><trkpt lat="46.4309766" lon="10.4411982"><ele>2011.9999999999998</ele><time>2026-04-26T12:32:46.364Z</time></trkpt><trkpt lat="46.4309929" lon="10.4410643"><ele>2012.0</ele><time>2026-04-26T12:32:47.365Z</time></trkpt><trkpt lat="46.4310256" lon="10.4409377"><ele>2012.0</ele><time>2026-04-26T12:32:48.363Z</time></trkpt><trkpt lat="46.4310677" lon="10.4408328"><ele>2016.1999999999998</ele><time>2026-04-26T12:32:49.363Z</time></trkpt><trkpt lat="46.4311185" lon="10.4407029"><ele>2020.3999999999999</ele><time>2026-04-26T12:32:50.366Z</time></trkpt><trkpt lat="46.4311544" lon="10.4405839"><ele>2024.6000000000001</ele><time>2026-04-26T12:32:51.364Z</time></trkpt><trkpt lat="46.4311966" lon="10.4404625"><ele>2028.8000000000002</ele><time>2026-04-26T12:32:52.364Z</time></trkpt><trkpt lat="46.4312218" lon="10.4403116"><ele>2033.0</ele><time>2026-04-26T12:32:53.362Z</time></trkpt><trkpt lat="46.4312608" lon="10.4401581"><ele>2033.6000000000001</ele><time>2026-04-26T12:32:54.363Z</time></trkpt><trkpt lat="46.4313113" lon="10.4400074"><ele>2034.2000000000003</ele><time>2026-04-26T12:32:55.364Z</time></trkpt><trkpt lat="46.4313713" lon="10.4398779"><ele>2034.8</ele><time>2026-04-26T12:32:56.367Z</time></trkpt><trkpt lat="46.4314371" lon="10.4397423"><ele>2035.4</ele><time>2026-04-26T12:32:57.365Z</time></trkpt><trkpt lat="46.431496" lon="10.4396115"><ele>2036.0</ele><time>2026-04-26T12:32:58.367Z</time></trkpt><trkpt lat="46.4315241" lon="10.4394966"><ele>2042.4</ele><time>2026-04-26T12:32:59.364Z</time></trkpt><trkpt lat="46.4315624" lon="10.4393613"><ele>2048.8</ele><time>2026-04-26T12:33:00.366Z</time></trkpt><trkpt lat="46.4316053" lon="10.4392357"><ele>2055.2000000000003</ele><time>2026-04-26T12:33:01.365Z</time></trkpt><trkpt lat="46.4316422" lon="10.4391595"><ele>2061.6</ele><time>2026-04-26T12:33:02.361Z</time></trkpt><trkpt lat="46.4317111" lon="10.4389825"><ele>2068.0</ele><time>2026-04-26T12:33:04.369Z</time></trkpt><trkpt lat="46.4317657" lon="10.438883"><ele>2072.166666666667</ele><time>2026-04-26T12:33:05.365Z</time></trkpt><trkpt lat="46.4318462" lon="10.4387904"><ele>2076.3333333333335</ele><time>2026-04-26T12:33:06.374Z</time></trkpt><trkpt lat="46.4319257" lon="10.4387062"><ele>2080.5</ele><time>2026-04-26T12:33:07.366Z</time></trkpt><trkpt lat="46.4319922" lon="10.4386142"><ele>2084.6666666666665</ele><time>2026-04-26T12:33:08.36Z</time></trkpt><trkpt lat="46.4320492" lon="10.4385257"><ele>2088.833333333333</ele><time>2026-04-26T12:33:09.367Z</time></trkpt><trkpt lat="46.4320776" lon="10.4384309"><ele>2093.0</ele><time>2026-04-26T12:33:10.36Z</time></trkpt><trkpt lat="46.4321056" lon="10.4383386"><ele>2092.5</ele><time>2026-04-26T12:33:11.365Z</time></trkpt><trkpt lat="46.4321817" lon="10.4382545"><ele>2092.0</ele><time>2026-04-26T12:33:13.368Z</time></trkpt><trkpt lat="46.4322409" lon="10.4381269"><ele>2091.5</ele><time>2026-04-26T12:33:15.36Z</time></trkpt><trkpt lat="46.4322766" lon="10.4380437"><ele>2091.0</ele><time>2026-04-26T12:33:16.366Z</time></trkpt><trkpt lat="46.4323265" lon="10.4379402"><ele>2090.5</ele><time>2026-04-26T12:33:17.366Z</time></trkpt><trkpt lat="46.4323631" lon="10.437841"><ele>2090.0</ele><time>2026-04-26T12:33:18.36Z</time></trkpt><trkpt lat="46.4324057" lon="10.4377326"><ele>2090.0</ele><time>2026-04-26T12:33:19.364Z</time></trkpt><trkpt lat="46.4324533" lon="10.4376428"><ele>2090.0</ele><time>2026-04-26T12:33:20.364Z</time></trkpt><trkpt lat="46.4324504" lon="10.4375102"><ele>2090.0</ele><time>2026-04-26T12:33:22.361Z</time></trkpt><trkpt lat="46.4324692" lon="10.4373759"><ele>2090.0</ele><time>2026-04-26T12:33:24.369Z</time></trkpt><trkpt lat="46.4324912" lon="10.4372851"><ele>2090.0</ele><time>2026-04-26T12:33:25.368Z</time></trkpt><trkpt lat="46.4325226" lon="10.4371961"><ele>2090.0</ele><time>2026-04-26T12:33:26.369Z</time></trkpt><trkpt lat="46.4325596" lon="10.4371158"><ele>2093.0</ele><time>2026-04-26T12:33:27.362Z</time></trkpt><trkpt lat="46.4325952" lon="10.4370393"><ele>2096.0</ele><time>2026-04-26T12:33:28.361Z</time></trkpt><trkpt lat="46.4326498" lon="10.4368959"><ele>2099.0</ele><time>2026-04-26T12:33:30.362Z</time></trkpt><trkpt lat="46.4327181" lon="10.436745"><ele>2102.0</ele><time>2026-04-26T12:33:32.368Z</time></trkpt><trkpt lat="46.4327575" lon="10.4366694"><ele>2105.0</ele><time>2026-04-26T12:33:33.367Z</time></trkpt><trkpt lat="46.4327982" lon="10.4365802"><ele>2108.0</ele><time>2026-04-26T12:33:34.359Z</time></trkpt><trkpt lat="46.4328386" lon="10.4364796"><ele>2108.0</ele><time>2026-04-26T12:33:35.36Z</time></trkpt><trkpt lat="46.4328685" lon="10.4363512"><ele>2108.0</ele><time>2026-04-26T12:33:36.361Z</time></trkpt><trkpt lat="46.432903" lon="10.4362412"><ele>2108.0</ele><time>2026-04-26T12:33:37.362Z</time></trkpt><trkpt lat="46.4329293" lon="10.4361512"><ele>2108.0</ele><time>2026-04-26T12:33:38.371Z</time></trkpt><trkpt lat="46.4330243" lon="10.4360639"><ele>2108.0</ele><time>2026-04-26T12:33:40.361Z</time></trkpt><trkpt lat="46.4330909" lon="10.4359892"><ele>2108.0</ele><time>2026-04-26T12:33:41.367Z</time></trkpt><trkpt lat="46.4331539" lon="10.4358864"><ele>2106.6</ele><time>2026-04-26T12:33:42.374Z</time></trkpt><trkpt lat="46.4331962" lon="10.4357873"><ele>2105.2000000000003</ele><time>2026-04-26T12:33:43.36Z</time></trkpt><trkpt lat="46.4332205" lon="10.435662"><ele>2103.8</ele><time>2026-04-26T12:33:44.366Z</time></trkpt><trkpt lat="46.4332363" lon="10.4355187"><ele>2102.4</ele><time>2026-04-26T12:33:45.371Z</time></trkpt><trkpt lat="46.4332767" lon="10.4353663"><ele>2101.0</ele><time>2026-04-26T12:33:46.365Z</time></trkpt><trkpt lat="46.4333209" lon="10.4352164"><ele>2103.666666666667</ele><time>2026-04-26T12:33:47.362Z</time></trkpt><trkpt lat="46.4333557" lon="10.4350894"><ele>2106.3333333333335</ele><time>2026-04-26T12:33:48.365Z</time></trkpt><trkpt lat="46.4333888" lon="10.4350044"><ele>2109.0</ele><time>2026-04-26T12:33:49.366Z</time></trkpt><trkpt lat="46.4334336" lon="10.4349148"><ele>2111.6666666666665</ele><time>2026-04-26T12:33:50.36Z</time></trkpt><trkpt lat="46.4334638" lon="10.4348224"><ele>2114.333333333333</ele><time>2026-04-26T12:33:51.364Z</time></trkpt><trkpt lat="46.4334881" lon="10.4347031"><ele>2117.0</ele><time>2026-04-26T12:33:52.364Z</time></trkpt><trkpt lat="46.4334968" lon="10.4345638"><ele>2119.6666666666665</ele><time>2026-04-26T12:33:53.366Z</time></trkpt><trkpt lat="46.4335021" lon="10.4344334"><ele>2122.333333333333</ele><time>2026-04-26T12:33:54.364Z</time></trkpt><trkpt lat="46.4335195" lon="10.4343095"><ele>2125.0</ele><time>2026-04-26T12:33:55.364Z</time></trkpt><trkpt lat="46.4335343" lon="10.434218"><ele>2127.6666666666665</ele><time>2026-04-26T12:33:56.362Z</time></trkpt><trkpt lat="46.4335779" lon="10.4341464"><ele>2130.3333333333335</ele><time>2026-04-26T12:33:57.367Z</time></trkpt><trkpt lat="46.4336563" lon="10.4340222"><ele>2133.0</ele><time>2026-04-26T12:33:59.368Z</time></trkpt><trkpt lat="46.4336955" lon="10.4339371"><ele>2133.0</ele><time>2026-04-26T12:34:00.362Z</time></trkpt><trkpt lat="46.433727" lon="10.4338471"><ele>2133.0</ele><time>2026-04-26T12:34:01.362Z</time></trkpt><trkpt lat="46.4337692" lon="10.4337028"><ele>2133.0</ele><time>2026-04-26T12:34:03.359Z</time></trkpt><trkpt lat="46.4338042" lon="10.4335759"><ele>2133.0</ele><time>2026-04-26T12:34:05.365Z</time></trkpt><trkpt lat="46.4338299" lon="10.4334875"><ele>2133.0</ele><time>2026-04-26T12:34:06.362Z</time></trkpt><trkpt lat="46.4338618" lon="10.4333781"><ele>2133.0</ele><time>2026-04-26T12:34:07.368Z</time></trkpt><trkpt lat="46.4338861" lon="10.4332461"><ele>2131.6</ele><time>2026-04-26T12:34:08.366Z</time></trkpt><trkpt lat="46.4339197" lon="10.4330942"><ele>2130.2000000000003</ele><time>2026-04-26T12:34:09.365Z</time></trkpt><trkpt lat="46.4339663" lon="10.432948"><ele>2128.8</ele><time>2026-04-26T12:34:10.364Z</time></trkpt><trkpt lat="46.4340171" lon="10.4328172"><ele>2127.4</ele><time>2026-04-26T12:34:11.375Z</time></trkpt><trkpt lat="46.4340677" lon="10.432699"><ele>2126.0</ele><time>2026-04-26T12:34:12.361Z</time></trkpt><trkpt lat="46.4341098" lon="10.4325846"><ele>2126.0</ele><time>2026-04-26T12:34:13.361Z</time></trkpt><trkpt lat="46.4341407" lon="10.4324865"><ele>2126.0</ele><time>2026-04-26T12:34:14.368Z</time></trkpt><trkpt lat="46.4341621" lon="10.4324005"><ele>2126.0</ele><time>2026-04-26T12:34:15.36Z</time></trkpt><trkpt lat="46.4341647" lon="10.4322812"><ele>2126.0</ele><time>2026-04-26T12:34:18.366Z</time></trkpt><trkpt lat="46.4341961" lon="10.4321763"><ele>2126.0</ele><time>2026-04-26T12:34:22.365Z</time></trkpt><trkpt lat="46.4342244" lon="10.432063"><ele>2126.0</ele><time>2026-04-26T12:34:26.368Z</time></trkpt><trkpt lat="46.4342537" lon="10.4319573"><ele>2129.4</ele><time>2026-04-26T12:34:28.365Z</time></trkpt><trkpt lat="46.4342848" lon="10.4318495"><ele>2132.8</ele><time>2026-04-26T12:34:30.312Z</time></trkpt><trkpt lat="46.4343885" lon="10.4316627"><ele>2136.2000000000003</ele><time>2026-04-26T12:34:31.365Z</time></trkpt><trkpt lat="46.434445" lon="10.4315523"><ele>2139.6</ele><time>2026-04-26T12:34:32.358Z</time></trkpt><trkpt lat="46.4345141" lon="10.4314684"><ele>2143.0</ele><time>2026-04-26T12:34:33.36Z</time></trkpt><trkpt lat="46.4345888" lon="10.4314051"><ele>2140.3333333333335</ele><time>2026-04-26T12:34:34.363Z</time></trkpt><trkpt lat="46.4346491" lon="10.431349"><ele>2137.666666666667</ele><time>2026-04-26T12:34:35.367Z</time></trkpt><trkpt lat="46.4347109" lon="10.4312962"><ele>2135.0</ele><time>2026-04-26T12:34:36.366Z</time></trkpt><trkpt lat="46.4347765" lon="10.4312295"><ele>2132.3333333333335</ele><time>2026-04-26T12:34:37.363Z</time></trkpt><trkpt lat="46.4348376" lon="10.4311421"><ele>2129.6666666666665</ele><time>2026-04-26T12:34:38.361Z</time></trkpt><trkpt lat="46.4348815" lon="10.4310598"><ele>2127.0</ele><time>2026-04-26T12:34:39.364Z</time></trkpt><trkpt lat="46.4349368" lon="10.4309523"><ele>2127.0</ele><time>2026-04-26T12:34:41.37Z</time></trkpt><trkpt lat="46.4349456" lon="10.4308596"><ele>2127.0</ele><time>2026-04-26T12:34:46.369Z</time></trkpt><trkpt lat="46.435" lon="10.4307621"><ele>2127.0</ele><time>2026-04-26T12:34:50.361Z</time></trkpt><trkpt lat="46.4350456" lon="10.430668"><ele>2127.0</ele><time>2026-04-26T12:34:52.364Z</time></trkpt><trkpt lat="46.4351113" lon="10.4305184"><ele>2127.0</ele><time>2026-04-26T12:34:53.36Z</time></trkpt><trkpt lat="46.4352181" lon="10.4303876"><ele>2124.6666666666665</ele><time>2026-04-26T12:34:54.368Z</time></trkpt><trkpt lat="46.4352651" lon="10.4303233"><ele>2122.3333333333335</ele><time>2026-04-26T12:34:55.367Z</time></trkpt><trkpt lat="46.4353607" lon="10.4302092"><ele>2120.0</ele><time>2026-04-26T12:34:57.359Z</time></trkpt><trkpt lat="46.4354223" lon="10.4301417"><ele>2117.666666666667</ele><time>2026-04-26T12:34:58.371Z</time></trkpt><trkpt lat="46.4354764" lon="10.4300562"><ele>2115.3333333333335</ele><time>2026-04-26T12:34:59.376Z</time></trkpt><trkpt lat="46.4355151" lon="10.4299803"><ele>2113.0</ele><time>2026-04-26T12:35:00.361Z</time></trkpt><trkpt lat="46.4355441" lon="10.429894"><ele>2112.9999999999995</ele><time>2026-04-26T12:35:01.368Z</time></trkpt><trkpt lat="46.435576" lon="10.4298098"><ele>2113.0</ele><time>2026-04-26T12:35:02.36Z</time></trkpt><trkpt lat="46.4356083" lon="10.42973"><ele>2113.0</ele><time>2026-04-26T12:35:03.364Z</time></trkpt><trkpt lat="46.435633" lon="10.4296431"><ele>2113.0</ele><time>2026-04-26T12:35:04.36Z</time></trkpt><trkpt lat="46.4356489" lon="10.4295515"><ele>2113.0</ele><time>2026-04-26T12:35:05.359Z</time></trkpt><trkpt lat="46.4356503" lon="10.429439"><ele>2112.9999999999995</ele><time>2026-04-26T12:35:07.359Z</time></trkpt><trkpt lat="46.4356638" lon="10.4293091"><ele>2113.0</ele><time>2026-04-26T12:35:15.364Z</time></trkpt><trkpt lat="46.4356901" lon="10.4292202"><ele>2115.75</ele><time>2026-04-26T12:35:18.362Z</time></trkpt><trkpt lat="46.4357155" lon="10.4290572"><ele>2118.5</ele><time>2026-04-26T12:35:21.36Z</time></trkpt><trkpt lat="46.4357718" lon="10.4287967"><ele>2121.25</ele><time>2026-04-26T12:35:22.361Z</time></trkpt><trkpt lat="46.4358128" lon="10.4286884"><ele>2124.0</ele><time>2026-04-26T12:35:23.359Z</time></trkpt><trkpt lat="46.4358422" lon="10.4285914"><ele>2124.0</ele><time>2026-04-26T12:35:24.361Z</time></trkpt><trkpt lat="46.4358535" lon="10.4284804"><ele>2124.0</ele><time>2026-04-26T12:36:59.36Z</time></trkpt><trkpt lat="46.4357989" lon="10.4285785"><ele>2124.0</ele><time>2026-04-26T12:37:29.364Z</time></trkpt><trkpt lat="46.4357661" lon="10.4287456"><ele>2124.0</ele><time>2026-04-26T12:37:30.36Z</time></trkpt><trkpt lat="46.4357323" lon="10.4288646"><ele>2124.0</ele><time>2026-04-26T12:37:31.366Z</time></trkpt><trkpt lat="46.4357081" lon="10.4289654"><ele>2124.0</ele><time>2026-04-26T12:37:32.368Z</time></trkpt><trkpt lat="46.4356914" lon="10.4291031"><ele>2124.0</ele><time>2026-04-26T12:37:34.366Z</time></trkpt><trkpt lat="46.4356695" lon="10.4292115"><ele>2124.0</ele><time>2026-04-26T12:37:36.365Z</time></trkpt><trkpt lat="46.4356388" lon="10.4293159"><ele>2124.0</ele><time>2026-04-26T12:37:39.364Z</time></trkpt><trkpt lat="46.4356212" lon="10.4294235"><ele>2124.0</ele><time>2026-04-26T12:37:42.363Z</time></trkpt><trkpt lat="46.4355995" lon="10.42953"><ele>2124.0</ele><time>2026-04-26T12:37:43.366Z</time></trkpt><trkpt lat="46.4355701" lon="10.42979"><ele>2122.1666666666665</ele><time>2026-04-26T12:37:44.366Z</time></trkpt><trkpt lat="46.4355479" lon="10.4298825"><ele>2120.3333333333335</ele><time>2026-04-26T12:37:45.359Z</time></trkpt><trkpt lat="46.4354793" lon="10.4300143"><ele>2118.5</ele><time>2026-04-26T12:37:47.372Z</time></trkpt><trkpt lat="46.4354238" lon="10.4301015"><ele>2116.666666666667</ele><time>2026-04-26T12:37:48.368Z</time></trkpt><trkpt lat="46.4353782" lon="10.4301767"><ele>2114.8333333333335</ele><time>2026-04-26T12:37:49.368Z</time></trkpt><trkpt lat="46.4353128" lon="10.4302546"><ele>2113.0</ele><time>2026-04-26T12:37:50.366Z</time></trkpt><trkpt lat="46.4352491" lon="10.4303626"><ele>2115.8</ele><time>2026-04-26T12:37:52.365Z</time></trkpt><trkpt lat="46.4351535" lon="10.4304794"><ele>2118.6000000000004</ele><time>2026-04-26T12:37:54.36Z</time></trkpt><trkpt lat="46.4351035" lon="10.4305562"><ele>2121.3999999999996</ele><time>2026-04-26T12:37:55.366Z</time></trkpt><trkpt lat="46.4350677" lon="10.4306762"><ele>2124.2</ele><time>2026-04-26T12:37:56.361Z</time></trkpt><trkpt lat="46.4349992" lon="10.4307983"><ele>2127.0</ele><time>2026-04-26T12:37:58.372Z</time></trkpt><trkpt lat="46.4349453" lon="10.4308859"><ele>2127.0</ele><time>2026-04-26T12:38:00.363Z</time></trkpt><trkpt lat="46.4348902" lon="10.4309629"><ele>2127.0</ele><time>2026-04-26T12:38:02.365Z</time></trkpt><trkpt lat="46.4348412" lon="10.43106"><ele>2127.0</ele><time>2026-04-26T12:38:07.364Z</time></trkpt><trkpt lat="46.434771" lon="10.4311766"><ele>2127.0</ele><time>2026-04-26T12:38:08.362Z</time></trkpt><trkpt lat="46.4346893" lon="10.4313694"><ele>2127.0</ele><time>2026-04-26T12:38:09.368Z</time></trkpt><trkpt lat="46.4346295" lon="10.4314287"><ele>2129.6666666666665</ele><time>2026-04-26T12:38:10.359Z</time></trkpt><trkpt lat="46.4345693" lon="10.4314796"><ele>2132.3333333333335</ele><time>2026-04-26T12:38:11.359Z</time></trkpt><trkpt lat="46.434504" lon="10.4315672"><ele>2135.0</ele><time>2026-04-26T12:38:12.362Z</time></trkpt><trkpt lat="46.4344239" lon="10.431627"><ele>2137.666666666667</ele><time>2026-04-26T12:38:13.365Z</time></trkpt><trkpt lat="46.4343702" lon="10.4316904"><ele>2140.3333333333335</ele><time>2026-04-26T12:38:14.362Z</time></trkpt><trkpt lat="46.4343164" lon="10.4318251"><ele>2143.0</ele><time>2026-04-26T12:38:16.36Z</time></trkpt><trkpt lat="46.4342907" lon="10.4319278"><ele>2143.0</ele><time>2026-04-26T12:38:19.365Z</time></trkpt><trkpt lat="46.4342492" lon="10.4320365"><ele>2143.0</ele><time>2026-04-26T12:38:22.369Z</time></trkpt><trkpt lat="46.4342173" lon="10.4321268"><ele>2143.0</ele><time>2026-04-26T12:38:25.36Z</time></trkpt><trkpt lat="46.4341762" lon="10.4322875"><ele>2143.0</ele><time>2026-04-26T12:38:27.364Z</time></trkpt><trkpt lat="46.4341423" lon="10.4324358"><ele>2143.0</ele><time>2026-04-26T12:38:28.36Z</time></trkpt><trkpt lat="46.4341288" lon="10.4325321"><ele>2143.0</ele><time>2026-04-26T12:38:29.363Z</time></trkpt><trkpt lat="46.4340753" lon="10.4326626"><ele>2139.6</ele><time>2026-04-26T12:38:31.362Z</time></trkpt><trkpt lat="46.4340264" lon="10.4327482"><ele>2136.2000000000003</ele><time>2026-04-26T12:38:32.362Z</time></trkpt><trkpt lat="46.4339589" lon="10.4328988"><ele>2132.8</ele><time>2026-04-26T12:38:33.369Z</time></trkpt><trkpt lat="46.4339081" lon="10.4330517"><ele>2129.4</ele><time>2026-04-26T12:38:34.368Z</time></trkpt><trkpt lat="46.4338821" lon="10.4331862"><ele>2126.0</ele><time>2026-04-26T12:38:35.363Z</time></trkpt><trkpt lat="46.433856" lon="10.4332917"><ele>2127.1666666666665</ele><time>2026-04-26T12:38:36.362Z</time></trkpt><trkpt lat="46.4338281" lon="10.4333879"><ele>2128.333333333333</ele><time>2026-04-26T12:38:37.368Z</time></trkpt><trkpt lat="46.4338017" lon="10.4334738"><ele>2129.5</ele><time>2026-04-26T12:38:38.36Z</time></trkpt><trkpt lat="46.4337739" lon="10.4336198"><ele>2130.6666666666665</ele><time>2026-04-26T12:38:40.365Z</time></trkpt><trkpt lat="46.4337428" lon="10.4337202"><ele>2131.8333333333335</ele><time>2026-04-26T12:38:42.361Z</time></trkpt><trkpt lat="46.4336921" lon="10.4338288"><ele>2133.0</ele><time>2026-04-26T12:38:45.362Z</time></trkpt><trkpt lat="46.4336262" lon="10.434007"><ele>2133.0</ele><time>2026-04-26T12:38:47.366Z</time></trkpt><trkpt lat="46.4335946" lon="10.434099"><ele>2133.0</ele><time>2026-04-26T12:38:48.367Z</time></trkpt><trkpt lat="46.4335397" lon="10.4341626"><ele>2133.0</ele><time>2026-04-26T12:38:49.362Z</time></trkpt><trkpt lat="46.4335038" lon="10.434247"><ele>2133.0</ele><time>2026-04-26T12:38:50.366Z</time></trkpt><trkpt lat="46.4334536" lon="10.434431"><ele>2133.0</ele><time>2026-04-26T12:38:52.369Z</time></trkpt><trkpt lat="46.4334398" lon="10.434565"><ele>2133.0</ele><time>2026-04-26T12:38:53.361Z</time></trkpt><trkpt lat="46.4334242" lon="10.434697"><ele>2129.8</ele><time>2026-04-26T12:38:54.365Z</time></trkpt><trkpt lat="46.433412" lon="10.4348325"><ele>2126.6000000000004</ele><time>2026-04-26T12:38:55.366Z</time></trkpt><trkpt lat="46.4333669" lon="10.4349541"><ele>2123.3999999999996</ele><time>2026-04-26T12:38:57.362Z</time></trkpt><trkpt lat="46.4333465" lon="10.435074"><ele>2120.2</ele><time>2026-04-26T12:38:58.361Z</time></trkpt><trkpt lat="46.4333141" lon="10.4351785"><ele>2117.0</ele><time>2026-04-26T12:38:59.366Z</time></trkpt><trkpt lat="46.433282" lon="10.4353317"><ele>2117.0</ele><time>2026-04-26T12:39:00.365Z</time></trkpt><trkpt lat="46.4332441" lon="10.4354569"><ele>2117.0</ele><time>2026-04-26T12:39:01.361Z</time></trkpt><trkpt lat="46.4332168" lon="10.4356251"><ele>2117.0</ele><time>2026-04-26T12:39:02.368Z</time></trkpt><trkpt lat="46.4331971" lon="10.4357619"><ele>2117.0</ele><time>2026-04-26T12:39:03.361Z</time></trkpt><trkpt lat="46.4331815" lon="10.4358764"><ele>2117.0</ele><time>2026-04-26T12:39:04.36Z</time></trkpt><trkpt lat="46.4331493" lon="10.4359586"><ele>2118.4</ele><time>2026-04-26T12:39:05.368Z</time></trkpt><trkpt lat="46.4330819" lon="10.4360546"><ele>2119.7999999999997</ele><time>2026-04-26T12:39:06.362Z</time></trkpt><trkpt lat="46.4330313" lon="10.4361619"><ele>2121.2</ele><time>2026-04-26T12:39:07.366Z</time></trkpt><trkpt lat="46.432966" lon="10.4362076"><ele>2122.6</ele><time>2026-04-26T12:39:08.364Z</time></trkpt><trkpt lat="46.4329277" lon="10.4362886"><ele>2124.0</ele><time>2026-04-26T12:39:09.372Z</time></trkpt><trkpt lat="46.4328539" lon="10.4364695"><ele>2120.8</ele><time>2026-04-26T12:39:11.37Z</time></trkpt><trkpt lat="46.4328143" lon="10.436541"><ele>2117.6000000000004</ele><time>2026-04-26T12:39:12.363Z</time></trkpt><trkpt lat="46.4327896" lon="10.4366607"><ele>2114.4</ele><time>2026-04-26T12:39:13.362Z</time></trkpt><trkpt lat="46.4327184" lon="10.4368203"><ele>2111.2000000000003</ele><time>2026-04-26T12:39:15.367Z</time></trkpt><trkpt lat="46.4326566" lon="10.4369372"><ele>2108.0</ele><time>2026-04-26T12:39:17.363Z</time></trkpt><trkpt lat="46.432612" lon="10.4370863"><ele>2105.0</ele><time>2026-04-26T12:39:19.362Z</time></trkpt><trkpt lat="46.4325944" lon="10.4371761"><ele>2102.0</ele><time>2026-04-26T12:39:20.366Z</time></trkpt><trkpt lat="46.4325672" lon="10.4372711"><ele>2099.0</ele><time>2026-04-26T12:39:21.367Z</time></trkpt><trkpt lat="46.43253" lon="10.4373856"><ele>2096.0</ele><time>2026-04-26T12:39:22.362Z</time></trkpt><trkpt lat="46.4325004" lon="10.4374761"><ele>2093.0</ele><time>2026-04-26T12:39:23.361Z</time></trkpt><trkpt lat="46.432464" lon="10.4376"><ele>2090.0</ele><time>2026-04-26T12:39:25.363Z</time></trkpt><trkpt lat="46.4324375" lon="10.4377637"><ele>2090.0</ele><time>2026-04-26T12:39:27.374Z</time></trkpt><trkpt lat="46.4323748" lon="10.4378451"><ele>2090.0</ele><time>2026-04-26T12:39:28.37Z</time></trkpt><trkpt lat="46.4323365" lon="10.4379449"><ele>2090.0</ele><time>2026-04-26T12:39:29.365Z</time></trkpt><trkpt lat="46.4323044" lon="10.4380521"><ele>2090.0</ele><time>2026-04-26T12:39:30.364Z</time></trkpt><trkpt lat="46.4323001" lon="10.4381516"><ele>2090.0</ele><time>2026-04-26T12:39:31.369Z</time></trkpt><trkpt lat="46.4322699" lon="10.4382407"><ele>2090.0</ele><time>2026-04-26T12:39:32.368Z</time></trkpt><trkpt lat="46.4322098" lon="10.4383244"><ele>2090.5</ele><time>2026-04-26T12:39:34.36Z</time></trkpt><trkpt lat="46.4321703" lon="10.4384025"><ele>2091.0</ele><time>2026-04-26T12:39:36.361Z</time></trkpt><trkpt lat="46.4321131" lon="10.4385286"><ele>2091.5</ele><time>2026-04-26T12:39:38.365Z</time></trkpt><trkpt lat="46.4320695" lon="10.4386162"><ele>2092.0</ele><time>2026-04-26T12:39:39.368Z</time></trkpt><trkpt lat="46.4320116" lon="10.4387065"><ele>2092.5</ele><time>2026-04-26T12:39:40.363Z</time></trkpt><trkpt lat="46.4319536" lon="10.4388008"><ele>2093.0</ele><time>2026-04-26T12:39:41.362Z</time></trkpt><trkpt lat="46.431914" lon="10.4388903"><ele>2088.0</ele><time>2026-04-26T12:39:42.361Z</time></trkpt><trkpt lat="46.4318417" lon="10.4389986"><ele>2083.0</ele><time>2026-04-26T12:39:43.365Z</time></trkpt><trkpt lat="46.4317735" lon="10.43911"><ele>2078.0</ele><time>2026-04-26T12:39:44.361Z</time></trkpt><trkpt lat="46.4317415" lon="10.4392203"><ele>2073.0</ele><time>2026-04-26T12:39:45.363Z</time></trkpt><trkpt lat="46.4316522" lon="10.439387"><ele>2068.0</ele><time>2026-04-26T12:39:47.361Z</time></trkpt><trkpt lat="46.4316058" lon="10.4395035"><ele>2068.0</ele><time>2026-04-26T12:39:48.359Z</time></trkpt><trkpt lat="46.4315623" lon="10.439607"><ele>2068.0</ele><time>2026-04-26T12:39:49.362Z</time></trkpt><trkpt lat="46.4315384" lon="10.4397569"><ele>2068.0</ele><time>2026-04-26T12:39:50.362Z</time></trkpt><trkpt lat="46.4314992" lon="10.4398912"><ele>2068.0</ele><time>2026-04-26T12:39:51.366Z</time></trkpt><trkpt lat="46.4314277" lon="10.4400087"><ele>2068.0</ele><time>2026-04-26T12:39:52.36Z</time></trkpt><trkpt lat="46.4313627" lon="10.4400821"><ele>2066.8</ele><time>2026-04-26T12:39:53.362Z</time></trkpt><trkpt lat="46.4312975" lon="10.4401745"><ele>2065.6000000000004</ele><time>2026-04-26T12:39:54.36Z</time></trkpt><trkpt lat="46.4312388" lon="10.4403038"><ele>2064.3999999999996</ele><time>2026-04-26T12:39:55.364Z</time></trkpt><trkpt lat="46.4311972" lon="10.4404244"><ele>2063.2</ele><time>2026-04-26T12:39:56.36Z</time></trkpt><trkpt lat="46.4311789" lon="10.4405538"><ele>2062.0</ele><time>2026-04-26T12:39:57.361Z</time></trkpt><trkpt lat="46.4311847" lon="10.4406964"><ele>2056.2</ele><time>2026-04-26T12:39:58.36Z</time></trkpt><trkpt lat="46.431171" lon="10.440827"><ele>2050.3999999999996</ele><time>2026-04-26T12:39:59.359Z</time></trkpt><trkpt lat="46.4311334" lon="10.4409227"><ele>2044.6000000000001</ele><time>2026-04-26T12:40:00.367Z</time></trkpt><trkpt lat="46.4311052" lon="10.4410439"><ele>2038.8000000000002</ele><time>2026-04-26T12:40:01.362Z</time></trkpt><trkpt lat="46.4310553" lon="10.4411723"><ele>2033.0</ele><time>2026-04-26T12:40:02.363Z</time></trkpt><trkpt lat="46.4310115" lon="10.4413548"><ele>2028.8000000000002</ele><time>2026-04-26T12:40:04.367Z</time></trkpt><trkpt lat="46.4309931" lon="10.4414663"><ele>2024.6000000000001</ele><time>2026-04-26T12:40:05.361Z</time></trkpt><trkpt lat="46.4309589" lon="10.4416071"><ele>2020.3999999999999</ele><time>2026-04-26T12:40:06.359Z</time></trkpt><trkpt lat="46.4309161" lon="10.4417413"><ele>2016.1999999999998</ele><time>2026-04-26T12:40:07.364Z</time></trkpt><trkpt lat="46.4308741" lon="10.4418939"><ele>2012.0</ele><time>2026-04-26T12:40:08.367Z</time></trkpt><trkpt lat="46.4308585" lon="10.4420372"><ele>2007.3999999999999</ele><time>2026-04-26T12:40:09.359Z</time></trkpt><trkpt lat="46.4308141" lon="10.4421654"><ele>2002.7999999999997</ele><time>2026-04-26T12:40:10.36Z</time></trkpt><trkpt lat="46.4307373" lon="10.4422309"><ele>1998.2</ele><time>2026-04-26T12:40:11.36Z</time></trkpt><trkpt lat="46.4306543" lon="10.4423442"><ele>1993.6</ele><time>2026-04-26T12:40:12.364Z</time></trkpt><trkpt lat="46.4305661" lon="10.4424506"><ele>1989.0</ele><time>2026-04-26T12:40:13.365Z</time></trkpt><trkpt lat="46.4305247" lon="10.4425645"><ele>1987.8000000000002</ele><time>2026-04-26T12:40:14.359Z</time></trkpt><trkpt lat="46.4304728" lon="10.4426877"><ele>1986.6000000000001</ele><time>2026-04-26T12:40:15.365Z</time></trkpt><trkpt lat="46.4304406" lon="10.4428185"><ele>1985.4</ele><time>2026-04-26T12:40:16.365Z</time></trkpt><trkpt lat="46.4304307" lon="10.442966"><ele>1984.2</ele><time>2026-04-26T12:40:17.368Z</time></trkpt><trkpt lat="46.4303889" lon="10.4431424"><ele>1983.0</ele><time>2026-04-26T12:40:18.36Z</time></trkpt><trkpt lat="46.4303579" lon="10.4432559"><ele>1983.0</ele><time>2026-04-26T12:40:19.376Z</time></trkpt><trkpt lat="46.4303474" lon="10.4433572"><ele>1983.0000000000002</ele><time>2026-04-26T12:40:20.364Z</time></trkpt><trkpt lat="46.430398" lon="10.4434329"><ele>1983.0000000000002</ele><time>2026-04-26T12:40:22.372Z</time></trkpt><trkpt lat="46.4305196" lon="10.4433336"><ele>1983.0</ele><time>2026-04-26T12:40:24.36Z</time></trkpt><trkpt lat="46.4306119" lon="10.4432572"><ele>1983.0</ele><time>2026-04-26T12:40:26.376Z</time></trkpt><trkpt lat="46.430647" lon="10.4433506"><ele>1979.4</ele><time>2026-04-26T12:40:28.359Z</time></trkpt><trkpt lat="46.4306453" lon="10.4434448"><ele>1975.8000000000002</ele><time>2026-04-26T12:40:29.365Z</time></trkpt><trkpt lat="46.4306419" lon="10.4435433"><ele>1972.2</ele><time>2026-04-26T12:40:31.365Z</time></trkpt><trkpt lat="46.4306339" lon="10.4436452"><ele>1968.6</ele><time>2026-04-26T12:40:34.361Z</time></trkpt><trkpt lat="46.4304937" lon="10.4438272"><ele>1965.0</ele><time>2026-04-26T12:40:36.364Z</time></trkpt><trkpt lat="46.4302647" lon="10.4447016"><ele>1959.0</ele><time>2026-04-26T12:40:37.369Z</time></trkpt><trkpt lat="46.4301933" lon="10.4448584"><ele>1953.0</ele><time>2026-04-26T12:40:38.365Z</time></trkpt><trkpt lat="46.4301586" lon="10.4449941"><ele>1947.0</ele><time>2026-04-26T12:40:39.361Z</time></trkpt><trkpt lat="46.4301122" lon="10.4451441"><ele>1941.0</ele><time>2026-04-26T12:40:40.364Z</time></trkpt><trkpt lat="46.4300488" lon="10.4453362"><ele>1941.0</ele><time>2026-04-26T12:40:41.368Z</time></trkpt><trkpt lat="46.4299552" lon="10.4454029"><ele>1941.0</ele><time>2026-04-26T12:40:42.365Z</time></trkpt><trkpt lat="46.4299019" lon="10.4455005"><ele>1941.0</ele><time>2026-04-26T12:40:43.363Z</time></trkpt><trkpt lat="46.4299297" lon="10.4456147"><ele>1941.0</ele><time>2026-04-26T12:40:45.359Z</time></trkpt><trkpt lat="46.429987" lon="10.44567"><ele>1941.0</ele><time>2026-04-26T12:40:46.361Z</time></trkpt><trkpt lat="46.4300728" lon="10.4457137"><ele>1941.0</ele><time>2026-04-26T12:40:47.37Z</time></trkpt><trkpt lat="46.4301812" lon="10.445733"><ele>1934.25</ele><time>2026-04-26T12:40:48.367Z</time></trkpt><trkpt lat="46.4303039" lon="10.4457749"><ele>1927.5</ele><time>2026-04-26T12:40:49.365Z</time></trkpt><trkpt lat="46.4304342" lon="10.4458121"><ele>1920.75</ele><time>2026-04-26T12:40:50.363Z</time></trkpt><trkpt lat="46.4305524" lon="10.4458299"><ele>1914.0</ele><time>2026-04-26T12:40:51.365Z</time></trkpt><trkpt lat="46.4306564" lon="10.4458467"><ele>1911.4</ele><time>2026-04-26T12:40:52.362Z</time></trkpt><trkpt lat="46.4307546" lon="10.445897"><ele>1908.8000000000002</ele><time>2026-04-26T12:40:53.365Z</time></trkpt><trkpt lat="46.4308281" lon="10.4459256"><ele>1906.1999999999998</ele><time>2026-04-26T12:40:54.361Z</time></trkpt><trkpt lat="46.4308652" lon="10.446004"><ele>1903.6</ele><time>2026-04-26T12:40:56.364Z</time></trkpt><trkpt lat="46.4308002" lon="10.4461228"><ele>1901.0</ele><time>2026-04-26T12:40:58.362Z</time></trkpt><trkpt lat="46.4307169" lon="10.446202"><ele>1901.0</ele><time>2026-04-26T12:40:59.367Z</time></trkpt><trkpt lat="46.4306149" lon="10.4462696"><ele>1901.0</ele><time>2026-04-26T12:41:00.367Z</time></trkpt><trkpt lat="46.4304874" lon="10.4463127"><ele>1901.0</ele><time>2026-04-26T12:41:01.364Z</time></trkpt><trkpt lat="46.4303562" lon="10.4463819"><ele>1901.0</ele><time>2026-04-26T12:41:02.366Z</time></trkpt><trkpt lat="46.4302472" lon="10.4464646"><ele>1897.8</ele><time>2026-04-26T12:41:03.361Z</time></trkpt><trkpt lat="46.4301831" lon="10.4466035"><ele>1894.6</ele><time>2026-04-26T12:41:04.359Z</time></trkpt><trkpt lat="46.4301147" lon="10.4467091"><ele>1891.4</ele><time>2026-04-26T12:41:05.362Z</time></trkpt><trkpt lat="46.4300795" lon="10.4467981"><ele>1888.2</ele><time>2026-04-26T12:41:06.357Z</time></trkpt><trkpt lat="46.4300849" lon="10.4469173"><ele>1885.0</ele><time>2026-04-26T12:41:08.368Z</time></trkpt><trkpt lat="46.4301712" lon="10.4469611"><ele>1885.0</ele><time>2026-04-26T12:41:10.358Z</time></trkpt><trkpt lat="46.4302504" lon="10.446961"><ele>1885.0</ele><time>2026-04-26T12:41:11.36Z</time></trkpt><trkpt lat="46.4304261" lon="10.4470489"><ele>1885.0</ele><time>2026-04-26T12:41:12.364Z</time></trkpt><trkpt lat="46.4305717" lon="10.4470791"><ele>1885.0</ele><time>2026-04-26T12:41:13.37Z</time></trkpt><trkpt lat="46.4306959" lon="10.4471096"><ele>1882.0</ele><time>2026-04-26T12:41:14.371Z</time></trkpt><trkpt lat="46.4307982" lon="10.4471129"><ele>1879.0</ele><time>2026-04-26T12:41:15.363Z</time></trkpt><trkpt lat="46.4308637" lon="10.4471402"><ele>1876.0</ele><time>2026-04-26T12:41:16.367Z</time></trkpt><trkpt lat="46.4308449" lon="10.4473267"><ele>1873.0</ele><time>2026-04-26T12:41:18.364Z</time></trkpt><trkpt lat="46.4307508" lon="10.4473466"><ele>1870.0</ele><time>2026-04-26T12:41:19.367Z</time></trkpt><trkpt lat="46.4306704" lon="10.4475316"><ele>1865.0</ele><time>2026-04-26T12:41:20.377Z</time></trkpt><trkpt lat="46.4305692" lon="10.4476487"><ele>1860.0</ele><time>2026-04-26T12:41:21.358Z</time></trkpt><trkpt lat="46.4304724" lon="10.4478067"><ele>1855.0</ele><time>2026-04-26T12:41:22.365Z</time></trkpt><trkpt lat="46.4303896" lon="10.4479539"><ele>1850.0</ele><time>2026-04-26T12:41:23.365Z</time></trkpt><trkpt lat="46.4303037" lon="10.4480187"><ele>1843.8</ele><time>2026-04-26T12:41:24.364Z</time></trkpt><trkpt lat="46.4302318" lon="10.4481315"><ele>1837.6</ele><time>2026-04-26T12:41:25.367Z</time></trkpt><trkpt lat="46.4301821" lon="10.4482515"><ele>1831.4</ele><time>2026-04-26T12:41:26.361Z</time></trkpt><trkpt lat="46.4301338" lon="10.4483936"><ele>1825.2</ele><time>2026-04-26T12:41:27.365Z</time></trkpt><trkpt lat="46.4300777" lon="10.4485281"><ele>1819.0</ele><time>2026-04-26T12:41:28.359Z</time></trkpt><trkpt lat="46.430001" lon="10.4486486"><ele>1819.0</ele><time>2026-04-26T12:41:29.369Z</time></trkpt><trkpt lat="46.4299173" lon="10.4487791"><ele>1819.0</ele><time>2026-04-26T12:41:30.362Z</time></trkpt><trkpt lat="46.4298349" lon="10.4488899"><ele>1819.0</ele><time>2026-04-26T12:41:31.362Z</time></trkpt><trkpt lat="46.4297711" lon="10.4489784"><ele>1819.0</ele><time>2026-04-26T12:41:32.359Z</time></trkpt><trkpt lat="46.4297071" lon="10.4490661"><ele>1819.0</ele><time>2026-04-26T12:41:33.364Z</time></trkpt><trkpt lat="46.4296261" lon="10.4491443"><ele>1816.0</ele><time>2026-04-26T12:41:34.364Z</time></trkpt><trkpt lat="46.4294753" lon="10.4492896"><ele>1813.0</ele><time>2026-04-26T12:41:36.364Z</time></trkpt><trkpt lat="46.429385" lon="10.4493986"><ele>1810.0</ele><time>2026-04-26T12:41:37.361Z</time></trkpt><trkpt lat="46.4292795" lon="10.4495128"><ele>1807.0</ele><time>2026-04-26T12:41:38.366Z</time></trkpt><trkpt lat="46.4291564" lon="10.4496154"><ele>1805.3999999999999</ele><time>2026-04-26T12:41:39.361Z</time></trkpt><trkpt lat="46.4290344" lon="10.4496924"><ele>1803.7999999999997</ele><time>2026-04-26T12:41:40.364Z</time></trkpt><trkpt lat="46.4289255" lon="10.449775"><ele>1802.2</ele><time>2026-04-26T12:41:41.36Z</time></trkpt><trkpt lat="46.4288282" lon="10.4498873"><ele>1800.6</ele><time>2026-04-26T12:41:42.364Z</time></trkpt><trkpt lat="46.4287874" lon="10.4499577"><ele>1799.0</ele><time>2026-04-26T12:41:43.361Z</time></trkpt><trkpt lat="46.4287882" lon="10.4500578"><ele>1798.9999999999998</ele><time>2026-04-26T12:41:44.362Z</time></trkpt><trkpt lat="46.4287949" lon="10.4501544"><ele>1799.0</ele><time>2026-04-26T12:41:46.36Z</time></trkpt><trkpt lat="46.4288531" lon="10.4502004"><ele>1799.0</ele><time>2026-04-26T12:41:48.363Z</time></trkpt><trkpt lat="46.4289794" lon="10.450241"><ele>1799.0</ele><time>2026-04-26T12:41:49.365Z</time></trkpt><trkpt lat="46.4290829" lon="10.4502654"><ele>1798.9999999999998</ele><time>2026-04-26T12:41:50.372Z</time></trkpt><trkpt lat="46.4291543" lon="10.4503061"><ele>1799.0</ele><time>2026-04-26T12:41:51.366Z</time></trkpt><trkpt lat="46.4291907" lon="10.4504176"><ele>1788.5</ele><time>2026-04-26T12:41:53.36Z</time></trkpt><trkpt lat="46.4291321" lon="10.4505329"><ele>1778.0</ele><time>2026-04-26T12:41:55.367Z</time></trkpt><trkpt lat="46.4290611" lon="10.4507133"><ele>1767.5</ele><time>2026-04-26T12:41:56.366Z</time></trkpt><trkpt lat="46.4289703" lon="10.4509537"><ele>1757.0</ele><time>2026-04-26T12:41:57.361Z</time></trkpt><trkpt lat="46.428904" lon="10.451129"><ele>1756.9999999999998</ele><time>2026-04-26T12:41:58.364Z</time></trkpt><trkpt lat="46.4288501" lon="10.4512425"><ele>1757.0</ele><time>2026-04-26T12:41:59.363Z</time></trkpt><trkpt lat="46.4288002" lon="10.4513031"><ele>1757.0</ele><time>2026-04-26T12:42:01.365Z</time></trkpt><trkpt lat="46.4288752" lon="10.4512829"><ele>1757.0</ele><time>2026-04-26T12:42:09.369Z</time></trkpt><trkpt lat="46.4289302" lon="10.451226"><ele>1756.9999999999998</ele><time>2026-04-26T12:42:10.364Z</time></trkpt><trkpt lat="46.4289852" lon="10.4511721"><ele>1757.0</ele><time>2026-04-26T12:42:11.364Z</time></trkpt><trkpt lat="46.429077" lon="10.4510958"><ele>1757.0</ele><time>2026-04-26T12:42:12.361Z</time></trkpt><trkpt lat="46.4295514" lon="10.4508138"><ele>1758.6666666666665</ele><time>2026-04-26T12:42:13.363Z</time></trkpt><trkpt lat="46.4297182" lon="10.4506917"><ele>1760.3333333333335</ele><time>2026-04-26T12:42:14.359Z</time></trkpt><trkpt lat="46.4298741" lon="10.4505388"><ele>1762.0</ele><time>2026-04-26T12:42:15.358Z</time></trkpt><trkpt lat="46.4299956" lon="10.4504359"><ele>1762.0</ele><time>2026-04-26T12:42:16.365Z</time></trkpt><trkpt lat="46.4301056" lon="10.4503447"><ele>1762.0</ele><time>2026-04-26T12:42:17.368Z</time></trkpt><trkpt lat="46.4301976" lon="10.4502341"><ele>1762.0</ele><time>2026-04-26T12:42:18.365Z</time></trkpt><trkpt lat="46.4303075" lon="10.4500912"><ele>1762.0</ele><time>2026-04-26T12:42:19.362Z</time></trkpt><trkpt lat="46.4304196" lon="10.4499633"><ele>1756.3333333333335</ele><time>2026-04-26T12:42:20.363Z</time></trkpt><trkpt lat="46.4305636" lon="10.4498563"><ele>1750.6666666666665</ele><time>2026-04-26T12:42:21.365Z</time></trkpt><trkpt lat="46.4307118" lon="10.4497948"><ele>1745.0</ele><time>2026-04-26T12:42:22.361Z</time></trkpt><trkpt lat="46.4308473" lon="10.4497347"><ele>1745.0</ele><time>2026-04-26T12:42:23.363Z</time></trkpt><trkpt lat="46.431042" lon="10.4497188"><ele>1745.0</ele><time>2026-04-26T12:42:24.469Z</time></trkpt><trkpt lat="46.4313542" lon="10.4496246"><ele>1747.0</ele><time>2026-04-26T12:42:26.359Z</time></trkpt><trkpt lat="46.4314193" lon="10.4495074"><ele>1749.0</ele><time>2026-04-26T12:42:27.363Z</time></trkpt><trkpt lat="46.4315069" lon="10.4494059"><ele>1751.0</ele><time>2026-04-26T12:42:28.362Z</time></trkpt><trkpt lat="46.4315787" lon="10.4492613"><ele>1753.0</ele><time>2026-04-26T12:42:29.362Z</time></trkpt><trkpt lat="46.4316253" lon="10.4491464"><ele>1755.0</ele><time>2026-04-26T12:42:30.363Z</time></trkpt><trkpt lat="46.4316337" lon="10.4490225"><ele>1755.0</ele><time>2026-04-26T12:42:32.36Z</time></trkpt><trkpt lat="46.4315474" lon="10.4489735"><ele>1755.0</ele><time>2026-04-26T12:42:34.364Z</time></trkpt><trkpt lat="46.4314698" lon="10.4489895"><ele>1755.0</ele><time>2026-04-26T12:42:35.359Z</time></trkpt><trkpt lat="46.4313896" lon="10.4490082"><ele>1755.0</ele><time>2026-04-26T12:42:36.371Z</time></trkpt><trkpt lat="46.4312969" lon="10.4490441"><ele>1755.0</ele><time>2026-04-26T12:42:37.369Z</time></trkpt><trkpt lat="46.4312103" lon="10.4490431"><ele>1755.0</ele><time>2026-04-26T12:42:38.364Z</time></trkpt><trkpt lat="46.4311308" lon="10.4489642"><ele>1758.4</ele><time>2026-04-26T12:42:40.361Z</time></trkpt><trkpt lat="46.4311754" lon="10.4488204"><ele>1761.8</ele><time>2026-04-26T12:42:42.361Z</time></trkpt><trkpt lat="46.4312381" lon="10.4487133"><ele>1765.1999999999998</ele><time>2026-04-26T12:42:43.368Z</time></trkpt><trkpt lat="46.4313203" lon="10.4485883"><ele>1768.6</ele><time>2026-04-26T12:42:44.364Z</time></trkpt><trkpt lat="46.4313836" lon="10.4484746"><ele>1772.0</ele><time>2026-04-26T12:42:45.361Z</time></trkpt><trkpt lat="46.4314675" lon="10.4483716"><ele>1775.0</ele><time>2026-04-26T12:42:46.362Z</time></trkpt><trkpt lat="46.4315541" lon="10.448266"><ele>1778.0</ele><time>2026-04-26T12:42:47.369Z</time></trkpt><trkpt lat="46.4317139" lon="10.4481859"><ele>1781.0</ele><time>2026-04-26T12:42:48.363Z</time></trkpt><trkpt lat="46.4318198" lon="10.4480901"><ele>1784.0</ele><time>2026-04-26T12:42:49.359Z</time></trkpt><trkpt lat="46.4319377" lon="10.4479818"><ele>1786.0</ele><time>2026-04-26T12:42:50.361Z</time></trkpt><trkpt lat="46.4320416" lon="10.4478402"><ele>1788.0</ele><time>2026-04-26T12:42:51.365Z</time></trkpt><trkpt lat="46.432166" lon="10.4476377"><ele>1790.0</ele><time>2026-04-26T12:42:52.361Z</time></trkpt><trkpt lat="46.4322941" lon="10.4474519"><ele>1790.0</ele><time>2026-04-26T12:42:53.362Z</time></trkpt><trkpt lat="46.432416" lon="10.447303"><ele>1790.0</ele><time>2026-04-26T12:42:54.36Z</time></trkpt><trkpt lat="46.4325416" lon="10.4471626"><ele>1790.0</ele><time>2026-04-26T12:42:55.359Z</time></trkpt><trkpt lat="46.4326969" lon="10.447036"><ele>1792.3333333333333</ele><time>2026-04-26T12:42:56.364Z</time></trkpt><trkpt lat="46.4328817" lon="10.446903"><ele>1794.6666666666665</ele><time>2026-04-26T12:42:57.361Z</time></trkpt><trkpt lat="46.433092" lon="10.4467277"><ele>1797.0</ele><time>2026-04-26T12:42:58.368Z</time></trkpt><trkpt lat="46.4332914" lon="10.4465363"><ele>1797.0</ele><time>2026-04-26T12:42:59.362Z</time></trkpt><trkpt lat="46.4334466" lon="10.4464132"><ele>1797.0</ele><time>2026-04-26T12:43:00.359Z</time></trkpt><trkpt lat="46.4335776" lon="10.4463178"><ele>1797.0</ele><time>2026-04-26T12:43:01.366Z</time></trkpt><trkpt lat="46.4336802" lon="10.4462935"><ele>1797.0</ele><time>2026-04-26T12:43:02.367Z</time></trkpt><trkpt lat="46.4337825" lon="10.4462523"><ele>1797.0</ele><time>2026-04-26T12:43:03.359Z</time></trkpt><trkpt lat="46.4339316" lon="10.4461576"><ele>1797.0</ele><time>2026-04-26T12:43:04.362Z</time></trkpt><trkpt lat="46.4341028" lon="10.4460245"><ele>1797.0</ele><time>2026-04-26T12:43:05.366Z</time></trkpt><trkpt lat="46.4342757" lon="10.4458744"><ele>1797.0</ele><time>2026-04-26T12:43:06.359Z</time></trkpt><trkpt lat="46.4344309" lon="10.445677"><ele>1797.0</ele><time>2026-04-26T12:43:07.364Z</time></trkpt><trkpt lat="46.4345709" lon="10.445489"><ele>1797.0</ele><time>2026-04-26T12:43:08.365Z</time></trkpt><trkpt lat="46.4346721" lon="10.4453413"><ele>1791.3333333333335</ele><time>2026-04-26T12:43:09.364Z</time></trkpt><trkpt lat="46.4347574" lon="10.4451857"><ele>1785.6666666666667</ele><time>2026-04-26T12:43:10.363Z</time></trkpt><trkpt lat="46.4348395" lon="10.4449995"><ele>1780.0</ele><time>2026-04-26T12:43:11.366Z</time></trkpt><trkpt lat="46.4349206" lon="10.4447896"><ele>1785.6666666666667</ele><time>2026-04-26T12:43:12.358Z</time></trkpt><trkpt lat="46.4350165" lon="10.4445584"><ele>1791.3333333333335</ele><time>2026-04-26T12:43:13.366Z</time></trkpt><trkpt lat="46.4351095" lon="10.4443361"><ele>1797.0</ele><time>2026-04-26T12:43:14.358Z</time></trkpt><trkpt lat="46.4352098" lon="10.4441226"><ele>1797.0</ele><time>2026-04-26T12:43:15.358Z</time></trkpt><trkpt lat="46.4353203" lon="10.4439619"><ele>1797.0</ele><time>2026-04-26T12:43:16.36Z</time></trkpt><trkpt lat="46.4354372" lon="10.443805"><ele>1797.0</ele><time>2026-04-26T12:43:17.366Z</time></trkpt><trkpt lat="46.435542" lon="10.4436803"><ele>1792.1999999999998</ele><time>2026-04-26T12:43:18.362Z</time></trkpt><trkpt lat="46.4356216" lon="10.4435622"><ele>1787.3999999999999</ele><time>2026-04-26T12:43:19.374Z</time></trkpt><trkpt lat="46.4356156" lon="10.443424"><ele>1782.6000000000001</ele><time>2026-04-26T12:43:20.361Z</time></trkpt><trkpt lat="46.4356187" lon="10.4432718"><ele>1777.8000000000002</ele><time>2026-04-26T12:43:21.364Z</time></trkpt><trkpt lat="46.4356249" lon="10.4431126"><ele>1773.0</ele><time>2026-04-26T12:43:22.361Z</time></trkpt><trkpt lat="46.4356416" lon="10.4429674"><ele>1778.5</ele><time>2026-04-26T12:43:23.36Z</time></trkpt><trkpt lat="46.4356787" lon="10.4428528"><ele>1784.0</ele><time>2026-04-26T12:43:24.36Z</time></trkpt><trkpt lat="46.4357351" lon="10.4427437"><ele>1789.5</ele><time>2026-04-26T12:43:25.359Z</time></trkpt><trkpt lat="46.4358744" lon="10.4426718"><ele>1795.0</ele><time>2026-04-26T12:43:26.365Z</time></trkpt><trkpt lat="46.436003" lon="10.4425739"><ele>1795.0</ele><time>2026-04-26T12:43:27.361Z</time></trkpt><trkpt lat="46.4361642" lon="10.4424519"><ele>1795.0</ele><time>2026-04-26T12:43:28.365Z</time></trkpt><trkpt lat="46.4363358" lon="10.4423177"><ele>1795.0</ele><time>2026-04-26T12:43:29.361Z</time></trkpt><trkpt lat="46.4364948" lon="10.442187"><ele>1794.0</ele><time>2026-04-26T12:43:30.362Z</time></trkpt><trkpt lat="46.4366539" lon="10.4420286"><ele>1793.0</ele><time>2026-04-26T12:43:31.363Z</time></trkpt><trkpt lat="46.4368168" lon="10.4418625"><ele>1792.0</ele><time>2026-04-26T12:43:32.363Z</time></trkpt><trkpt lat="46.4369638" lon="10.4416816"><ele>1792.0</ele><time>2026-04-26T12:43:33.359Z</time></trkpt><trkpt lat="46.4371113" lon="10.4415018"><ele>1792.0</ele><time>2026-04-26T12:43:34.364Z</time></trkpt><trkpt lat="46.4372395" lon="10.4413301"><ele>1792.0</ele><time>2026-04-26T12:43:35.366Z</time></trkpt><trkpt lat="46.4373529" lon="10.4411545"><ele>1792.6666666666667</ele><time>2026-04-26T12:43:36.362Z</time></trkpt><trkpt lat="46.4374614" lon="10.4409488"><ele>1793.3333333333335</ele><time>2026-04-26T12:43:37.364Z</time></trkpt><trkpt lat="46.4375639" lon="10.440733"><ele>1794.0</ele><time>2026-04-26T12:43:38.364Z</time></trkpt><trkpt lat="46.4376746" lon="10.4405609"><ele>1791.0</ele><time>2026-04-26T12:43:39.365Z</time></trkpt><trkpt lat="46.4377625" lon="10.4403991"><ele>1788.0</ele><time>2026-04-26T12:43:40.372Z</time></trkpt><trkpt lat="46.4378328" lon="10.4402181"><ele>1785.0</ele><time>2026-04-26T12:43:41.362Z</time></trkpt><trkpt lat="46.4378961" lon="10.4400178"><ele>1782.0</ele><time>2026-04-26T12:43:42.369Z</time></trkpt><trkpt lat="46.4379726" lon="10.4398234"><ele>1782.0</ele><time>2026-04-26T12:43:43.366Z</time></trkpt><trkpt lat="46.438051" lon="10.4396364"><ele>1782.0</ele><time>2026-04-26T12:43:44.361Z</time></trkpt><trkpt lat="46.4381625" lon="10.4394533"><ele>1782.0</ele><time>2026-04-26T12:43:45.365Z</time></trkpt><trkpt lat="46.4382659" lon="10.4392971"><ele>1788.6666666666665</ele><time>2026-04-26T12:43:46.36Z</time></trkpt><trkpt lat="46.4383962" lon="10.4391459"><ele>1795.3333333333333</ele><time>2026-04-26T12:43:47.363Z</time></trkpt><trkpt lat="46.4385312" lon="10.4389847"><ele>1802.0</ele><time>2026-04-26T12:43:48.364Z</time></trkpt><trkpt lat="46.4386729" lon="10.4388334"><ele>1804.3999999999999</ele><time>2026-04-26T12:43:49.36Z</time></trkpt><trkpt lat="46.4387672" lon="10.4386851"><ele>1806.7999999999997</ele><time>2026-04-26T12:43:50.364Z</time></trkpt><trkpt lat="46.4388482" lon="10.4385485"><ele>1809.2</ele><time>2026-04-26T12:43:51.364Z</time></trkpt><trkpt lat="46.4389112" lon="10.438433"><ele>1811.6</ele><time>2026-04-26T12:43:52.367Z</time></trkpt><trkpt lat="46.438965" lon="10.4383543"><ele>1814.0</ele><time>2026-04-26T12:43:53.362Z</time></trkpt><trkpt lat="46.4390235" lon="10.4382684"><ele>1805.0</ele><time>2026-04-26T12:43:55.36Z</time></trkpt><trkpt lat="46.4391286" lon="10.4381986"><ele>1796.0</ele><time>2026-04-26T12:44:08.366Z</time></trkpt><trkpt lat="46.4392995" lon="10.4380729"><ele>1787.0</ele><time>2026-04-26T12:44:09.367Z</time></trkpt><trkpt lat="46.4394401" lon="10.437984"><ele>1782.5</ele><time>2026-04-26T12:44:10.373Z</time></trkpt><trkpt lat="46.4396012" lon="10.4378976"><ele>1778.0</ele><time>2026-04-26T12:44:11.366Z</time></trkpt><trkpt lat="46.4397076" lon="10.4378223"><ele>1773.5</ele><time>2026-04-26T12:44:12.359Z</time></trkpt><trkpt lat="46.4398067" lon="10.4377543"><ele>1769.0</ele><time>2026-04-26T12:44:13.362Z</time></trkpt><trkpt lat="46.4398883" lon="10.4376542"><ele>1768.9999999999998</ele><time>2026-04-26T12:44:14.37Z</time></trkpt><trkpt lat="46.4399459" lon="10.4375562"><ele>1769.0</ele><time>2026-04-26T12:44:15.364Z</time></trkpt><trkpt lat="46.4399983" lon="10.4374553"><ele>1769.0</ele><time>2026-04-26T12:44:16.362Z</time></trkpt><trkpt lat="46.4400327" lon="10.4373365"><ele>1769.0</ele><time>2026-04-26T12:44:17.36Z</time></trkpt><trkpt lat="46.4400496" lon="10.4372379"><ele>1768.9999999999998</ele><time>2026-04-26T12:44:18.36Z</time></trkpt><trkpt lat="46.4400949" lon="10.4371626"><ele>1769.0</ele><time>2026-04-26T12:44:20.363Z</time></trkpt><trkpt lat="46.4401342" lon="10.4372718"><ele>1769.0</ele><time>2026-04-26T12:44:22.36Z</time></trkpt><trkpt lat="46.4401077" lon="10.4374251"><ele>1769.0</ele><time>2026-04-26T12:44:24.367Z</time></trkpt><trkpt lat="46.4400796" lon="10.4375343"><ele>1769.0</ele><time>2026-04-26T12:44:27.363Z</time></trkpt><trkpt lat="46.4400359" lon="10.4377742"><ele>1769.0</ele><time>2026-04-26T12:44:29.359Z</time></trkpt><trkpt lat="46.4399688" lon="10.4383706"><ele>1769.0</ele><time>2026-04-26T12:44:30.358Z</time></trkpt><trkpt lat="46.4400677" lon="10.4382832"><ele>1769.0</ele><time>2026-04-26T12:44:32.358Z</time></trkpt><trkpt lat="46.4401269" lon="10.4381721"><ele>1769.0</ele><time>2026-04-26T12:44:33.366Z</time></trkpt><trkpt lat="46.4401851" lon="10.4380412"><ele>1769.0</ele><time>2026-04-26T12:44:34.371Z</time></trkpt><trkpt lat="46.4403292" lon="10.4378264"><ele>1769.0</ele><time>2026-04-26T12:44:35.361Z</time></trkpt><trkpt lat="46.4404482" lon="10.4376145"><ele>1769.0</ele><time>2026-04-26T12:44:36.364Z</time></trkpt><trkpt lat="46.4405601" lon="10.4374051"><ele>1769.0</ele><time>2026-04-26T12:44:37.359Z</time></trkpt><trkpt lat="46.4406672" lon="10.4372099"><ele>1763.0</ele><time>2026-04-26T12:44:38.367Z</time></trkpt><trkpt lat="46.4407701" lon="10.437092"><ele>1757.0</ele><time>2026-04-26T12:44:39.361Z</time></trkpt><trkpt lat="46.4408405" lon="10.4369906"><ele>1751.0</ele><time>2026-04-26T12:44:40.36Z</time></trkpt><trkpt lat="46.4408572" lon="10.4368923"><ele>1745.0</ele><time>2026-04-26T12:44:41.359Z</time></trkpt><trkpt lat="46.4408817" lon="10.4367534"><ele>1739.0</ele><time>2026-04-26T12:44:42.367Z</time></trkpt><trkpt lat="46.4408854" lon="10.4366032"><ele>1738.9999999999998</ele><time>2026-04-26T12:44:43.364Z</time></trkpt><trkpt lat="46.4408875" lon="10.4364701"><ele>1739.0</ele><time>2026-04-26T12:44:44.36Z</time></trkpt><trkpt lat="46.4408988" lon="10.4363332"><ele>1739.0</ele><time>2026-04-26T12:44:45.362Z</time></trkpt><trkpt lat="46.4409155" lon="10.4362267"><ele>1739.0</ele><time>2026-04-26T12:44:46.362Z</time></trkpt><trkpt lat="46.4409252" lon="10.4361315"><ele>1738.9999999999998</ele><time>2026-04-26T12:44:47.364Z</time></trkpt><trkpt lat="46.4409587" lon="10.4359992"><ele>1739.0</ele><time>2026-04-26T12:44:49.36Z</time></trkpt><trkpt lat="46.4409778" lon="10.435887"><ele>1740.8000000000002</ele><time>2026-04-26T12:44:56.364Z</time></trkpt><trkpt lat="46.440997" lon="10.435762"><ele>1742.6000000000001</ele><time>2026-04-26T12:44:57.368Z</time></trkpt><trkpt lat="46.4410647" lon="10.435629"><ele>1744.4</ele><time>2026-04-26T12:44:58.37Z</time></trkpt><trkpt lat="46.4411018" lon="10.4355516"><ele>1746.2</ele><time>2026-04-26T12:45:00.364Z</time></trkpt><trkpt lat="46.4411534" lon="10.4356367"><ele>1748.0</ele><time>2026-04-26T12:45:03.362Z</time></trkpt><trkpt lat="46.4411674" lon="10.435963"><ele>1748.0</ele><time>2026-04-26T12:45:05.361Z</time></trkpt><trkpt lat="46.4411919" lon="10.4361763"><ele>1748.0</ele><time>2026-04-26T12:45:06.364Z</time></trkpt><trkpt lat="46.4412507" lon="10.4363613"><ele>1748.0</ele><time>2026-04-26T12:45:07.368Z</time></trkpt><trkpt lat="46.4413158" lon="10.4365521"><ele>1748.0</ele><time>2026-04-26T12:45:08.364Z</time></trkpt><trkpt lat="46.4413739" lon="10.4366933"><ele>1734.75</ele><time>2026-04-26T12:45:09.36Z</time></trkpt><trkpt lat="46.4414038" lon="10.4368086"><ele>1721.5</ele><time>2026-04-26T12:45:10.361Z</time></trkpt><trkpt lat="46.4414319" lon="10.4369583"><ele>1708.25</ele><time>2026-04-26T12:45:11.368Z</time></trkpt><trkpt lat="46.4414512" lon="10.4371914"><ele>1695.0</ele><time>2026-04-26T12:45:12.367Z</time></trkpt><trkpt lat="46.4414577" lon="10.4373958"><ele>1693.75</ele><time>2026-04-26T12:45:13.362Z</time></trkpt><trkpt lat="46.4413924" lon="10.4375252"><ele>1692.5</ele><time>2026-04-26T12:45:14.367Z</time></trkpt><trkpt lat="46.4413245" lon="10.4376694"><ele>1691.25</ele><time>2026-04-26T12:45:15.365Z</time></trkpt><trkpt lat="46.4412691" lon="10.4378672"><ele>1690.0</ele><time>2026-04-26T12:45:16.362Z</time></trkpt><trkpt lat="46.4412343" lon="10.4381245"><ele>1698.3333333333335</ele><time>2026-04-26T12:45:17.358Z</time></trkpt><trkpt lat="46.4411991" lon="10.4383631"><ele>1706.6666666666665</ele><time>2026-04-26T12:45:18.363Z</time></trkpt><trkpt lat="46.4411581" lon="10.4386022"><ele>1715.0</ele><time>2026-04-26T12:45:19.361Z</time></trkpt><trkpt lat="46.4411024" lon="10.4387834"><ele>1710.2</ele><time>2026-04-26T12:45:20.364Z</time></trkpt><trkpt lat="46.4410553" lon="10.4389276"><ele>1705.4</ele><time>2026-04-26T12:45:21.365Z</time></trkpt><trkpt lat="46.4410163" lon="10.4390374"><ele>1700.6</ele><time>2026-04-26T12:45:22.364Z</time></trkpt><trkpt lat="46.4409575" lon="10.4391268"><ele>1695.8</ele><time>2026-04-26T12:45:24.362Z</time></trkpt><trkpt lat="46.4410614" lon="10.4390932"><ele>1691.0</ele><time>2026-04-26T12:45:27.359Z</time></trkpt><trkpt lat="46.4411383" lon="10.4389751"><ele>1691.0</ele><time>2026-04-26T12:45:28.371Z</time></trkpt><trkpt lat="46.4412366" lon="10.4388152"><ele>1691.0</ele><time>2026-04-26T12:45:29.376Z</time></trkpt><trkpt lat="46.4413431" lon="10.4386338"><ele>1691.0</ele><time>2026-04-26T12:45:30.365Z</time></trkpt><trkpt lat="46.4414527" lon="10.4384318"><ele>1690.6666666666665</ele><time>2026-04-26T12:45:31.365Z</time></trkpt><trkpt lat="46.4415582" lon="10.4382367"><ele>1690.3333333333335</ele><time>2026-04-26T12:45:32.361Z</time></trkpt><trkpt lat="46.4416582" lon="10.4380526"><ele>1690.0</ele><time>2026-04-26T12:45:33.363Z</time></trkpt><trkpt lat="46.441748" lon="10.4378815"><ele>1690.0</ele><time>2026-04-26T12:45:34.366Z</time></trkpt><trkpt lat="46.4418123" lon="10.4377513"><ele>1690.0</ele><time>2026-04-26T12:45:35.361Z</time></trkpt><trkpt lat="46.4418588" lon="10.4376564"><ele>1690.0</ele><time>2026-04-26T12:45:36.362Z</time></trkpt><trkpt lat="46.4419198" lon="10.4375924"><ele>1690.0</ele><time>2026-04-26T12:45:38.365Z</time></trkpt><trkpt lat="46.4418992" lon="10.4377646"><ele>1690.0</ele><time>2026-04-26T12:45:41.361Z</time></trkpt><trkpt lat="46.4418625" lon="10.4378802"><ele>1684.6666666666667</ele><time>2026-04-26T12:45:42.367Z</time></trkpt><trkpt lat="46.4418105" lon="10.4380393"><ele>1679.3333333333335</ele><time>2026-04-26T12:45:43.368Z</time></trkpt><trkpt lat="46.4417275" lon="10.4383448"><ele>1674.0</ele><time>2026-04-26T12:45:44.358Z</time></trkpt><trkpt lat="46.4416607" lon="10.4386202"><ele>1668.25</ele><time>2026-04-26T12:45:45.359Z</time></trkpt><trkpt lat="46.4416016" lon="10.4388676"><ele>1662.5</ele><time>2026-04-26T12:45:46.36Z</time></trkpt><trkpt lat="46.4415497" lon="10.4390771"><ele>1656.75</ele><time>2026-04-26T12:45:47.36Z</time></trkpt><trkpt lat="46.4415075" lon="10.439233"><ele>1651.0</ele><time>2026-04-26T12:45:48.359Z</time></trkpt><trkpt lat="46.4414784" lon="10.4393511"><ele>1651.0</ele><time>2026-04-26T12:45:49.366Z</time></trkpt><trkpt lat="46.4414643" lon="10.439467"><ele>1651.0</ele><time>2026-04-26T12:45:51.362Z</time></trkpt><trkpt lat="46.4415805" lon="10.4394079"><ele>1651.0</ele><time>2026-04-26T12:45:54.362Z</time></trkpt><trkpt lat="46.4416622" lon="10.4392908"><ele>1651.0</ele><time>2026-04-26T12:45:55.365Z</time></trkpt><trkpt lat="46.4417678" lon="10.4391031"><ele>1651.0</ele><time>2026-04-26T12:45:56.37Z</time></trkpt><trkpt lat="46.441866" lon="10.4389235"><ele>1651.0</ele><time>2026-04-26T12:45:57.36Z</time></trkpt><trkpt lat="46.4419751" lon="10.4387635"><ele>1651.0</ele><time>2026-04-26T12:45:58.362Z</time></trkpt><trkpt lat="46.4420635" lon="10.4386667"><ele>1651.0</ele><time>2026-04-26T12:45:59.363Z</time></trkpt><trkpt lat="46.442136" lon="10.4385764"><ele>1645.5</ele><time>2026-04-26T12:46:00.36Z</time></trkpt><trkpt lat="46.4422087" lon="10.4384353"><ele>1640.0</ele><time>2026-04-26T12:46:01.365Z</time></trkpt><trkpt lat="46.4422943" lon="10.4382998"><ele>1634.5</ele><time>2026-04-26T12:46:02.364Z</time></trkpt><trkpt lat="46.4423848" lon="10.4381433"><ele>1629.0</ele><time>2026-04-26T12:46:03.362Z</time></trkpt><trkpt lat="46.4424768" lon="10.438"><ele>1631.75</ele><time>2026-04-26T12:46:04.363Z</time></trkpt><trkpt lat="46.4425577" lon="10.4378676"><ele>1634.5</ele><time>2026-04-26T12:46:05.368Z</time></trkpt><trkpt lat="46.442619" lon="10.4377505"><ele>1637.25</ele><time>2026-04-26T12:46:06.361Z</time></trkpt><trkpt lat="46.4426586" lon="10.4376171"><ele>1640.0</ele><time>2026-04-26T12:46:07.361Z</time></trkpt><trkpt lat="46.4426867" lon="10.4374317"><ele>1640.0</ele><time>2026-04-26T12:46:08.365Z</time></trkpt><trkpt lat="46.4427207" lon="10.4372373"><ele>1640.0</ele><time>2026-04-26T12:46:09.363Z</time></trkpt><trkpt lat="46.4427582" lon="10.4370577"><ele>1640.0</ele><time>2026-04-26T12:46:10.36Z</time></trkpt><trkpt lat="46.4427996" lon="10.436924"><ele>1640.0</ele><time>2026-04-26T12:46:11.361Z</time></trkpt><trkpt lat="46.4428576" lon="10.4368211"><ele>1640.0</ele><time>2026-04-26T12:46:12.366Z</time></trkpt><trkpt lat="46.4429424" lon="10.4367088"><ele>1640.0</ele><time>2026-04-26T12:46:14.361Z</time></trkpt><trkpt lat="46.442927" lon="10.4368458"><ele>1640.0</ele><time>2026-04-26T12:46:20.364Z</time></trkpt><trkpt lat="46.4428784" lon="10.4369511"><ele>1640.0</ele><time>2026-04-26T12:46:21.37Z</time></trkpt><trkpt lat="46.4428529" lon="10.4371053"><ele>1640.0</ele><time>2026-04-26T12:46:22.362Z</time></trkpt><trkpt lat="46.4428384" lon="10.4373014"><ele>1640.0</ele><time>2026-04-26T12:46:23.362Z</time></trkpt><trkpt lat="46.4428321" lon="10.4375009"><ele>1640.0</ele><time>2026-04-26T12:46:24.363Z</time></trkpt><trkpt lat="46.4428072" lon="10.4376709"><ele>1640.0</ele><time>2026-04-26T12:46:25.361Z</time></trkpt><trkpt lat="46.4427833" lon="10.4378477"><ele>1640.0</ele><time>2026-04-26T12:46:26.364Z</time></trkpt><trkpt lat="46.4427412" lon="10.4380501"><ele>1637.8</ele><time>2026-04-26T12:46:27.363Z</time></trkpt><trkpt lat="46.4427027" lon="10.438227"><ele>1635.6</ele><time>2026-04-26T12:46:28.358Z</time></trkpt><trkpt lat="46.4426762" lon="10.4383729"><ele>1633.4</ele><time>2026-04-26T12:46:29.356Z</time></trkpt><trkpt lat="46.442654" lon="10.4384941"><ele>1631.2</ele><time>2026-04-26T12:46:30.362Z</time></trkpt><trkpt lat="46.4426163" lon="10.438593"><ele>1629.0</ele><time>2026-04-26T12:46:31.365Z</time></trkpt><trkpt lat="46.4426019" lon="10.4387028"><ele>1624.0</ele><time>2026-04-26T12:46:32.36Z</time></trkpt><trkpt lat="46.4425839" lon="10.4388448"><ele>1619.0</ele><time>2026-04-26T12:46:33.362Z</time></trkpt><trkpt lat="46.4425495" lon="10.4390037"><ele>1614.0</ele><time>2026-04-26T12:46:34.37Z</time></trkpt><trkpt lat="46.4425012" lon="10.4391736"><ele>1609.0</ele><time>2026-04-26T12:46:35.361Z</time></trkpt><trkpt lat="46.4424594" lon="10.4393678"><ele>1609.0</ele><time>2026-04-26T12:46:36.368Z</time></trkpt><trkpt lat="46.4424075" lon="10.4395478"><ele>1609.0</ele><time>2026-04-26T12:46:37.367Z</time></trkpt><trkpt lat="46.4423759" lon="10.4397244"><ele>1609.0</ele><time>2026-04-26T12:46:38.363Z</time></trkpt><trkpt lat="46.4423422" lon="10.439904"><ele>1609.0</ele><time>2026-04-26T12:46:39.366Z</time></trkpt><trkpt lat="46.4422989" lon="10.4400507"><ele>1611.0</ele><time>2026-04-26T12:46:40.367Z</time></trkpt><trkpt lat="46.4422485" lon="10.4402094"><ele>1613.0</ele><time>2026-04-26T12:46:41.364Z</time></trkpt><trkpt lat="46.4421752" lon="10.4403626"><ele>1615.0</ele><time>2026-04-26T12:46:42.364Z</time></trkpt><trkpt lat="46.4420346" lon="10.4404496"><ele>1617.0</ele><time>2026-04-26T12:46:43.36Z</time></trkpt><trkpt lat="46.4419233" lon="10.4405394"><ele>1610.3999999999999</ele><time>2026-04-26T12:46:44.362Z</time></trkpt><trkpt lat="46.4418093" lon="10.4406083"><ele>1603.8</ele><time>2026-04-26T12:46:45.361Z</time></trkpt><trkpt lat="46.4417129" lon="10.4406505"><ele>1597.2</ele><time>2026-04-26T12:46:46.365Z</time></trkpt><trkpt lat="46.4416313" lon="10.4406953"><ele>1590.6</ele><time>2026-04-26T12:46:47.361Z</time></trkpt><trkpt lat="46.4415409" lon="10.4406915"><ele>1584.0</ele><time>2026-04-26T12:46:48.367Z</time></trkpt><trkpt lat="46.4414629" lon="10.4407332"><ele>1584.0</ele><time>2026-04-26T12:46:49.359Z</time></trkpt><trkpt lat="46.4413877" lon="10.4408199"><ele>1584.0</ele><time>2026-04-26T12:46:50.364Z</time></trkpt><trkpt lat="46.4413262" lon="10.4409197"><ele>1584.0</ele><time>2026-04-26T12:46:51.358Z</time></trkpt><trkpt lat="46.4412559" lon="10.441014"><ele>1584.0</ele><time>2026-04-26T12:46:52.363Z</time></trkpt><trkpt lat="46.4412239" lon="10.4411223"><ele>1584.0</ele><time>2026-04-26T12:46:53.361Z</time></trkpt><trkpt lat="46.4413079" lon="10.4411813"><ele>1584.0</ele><time>2026-04-26T12:46:57.361Z</time></trkpt><trkpt lat="46.4413675" lon="10.4411473"><ele>1584.0</ele><time>2026-04-26T12:46:58.365Z</time></trkpt><trkpt lat="46.4414539" lon="10.4411112"><ele>1584.0</ele><time>2026-04-26T12:46:59.367Z</time></trkpt><trkpt lat="46.4415385" lon="10.4410822"><ele>1584.0</ele><time>2026-04-26T12:47:00.363Z</time></trkpt><trkpt lat="46.4416129" lon="10.4410675"><ele>1584.0</ele><time>2026-04-26T12:47:01.367Z</time></trkpt><trkpt lat="46.4416034" lon="10.4411912"><ele>1584.0</ele><time>2026-04-26T12:47:05.358Z</time></trkpt><trkpt lat="46.4415316" lon="10.4412357"><ele>1585.0</ele><time>2026-04-26T12:47:08.361Z</time></trkpt><trkpt lat="46.441448" lon="10.4414101"><ele>1586.0</ele><time>2026-04-26T12:47:11.361Z</time></trkpt><trkpt lat="46.4413198" lon="10.4415511"><ele>1587.0</ele><time>2026-04-26T12:47:12.368Z</time></trkpt><trkpt lat="46.4412807" lon="10.4416883"><ele>1588.0</ele><time>2026-04-26T12:47:13.362Z</time></trkpt><trkpt lat="46.4412249" lon="10.4418078"><ele>1588.0</ele><time>2026-04-26T12:47:14.363Z</time></trkpt><trkpt lat="46.4411662" lon="10.4419579"><ele>1588.0</ele><time>2026-04-26T12:47:15.36Z</time></trkpt><trkpt lat="46.4411048" lon="10.4421296"><ele>1588.0</ele><time>2026-04-26T12:47:16.361Z</time></trkpt><trkpt lat="46.4410421" lon="10.4423126"><ele>1588.0</ele><time>2026-04-26T12:47:17.358Z</time></trkpt><trkpt lat="46.4409683" lon="10.4424361"><ele>1582.75</ele><time>2026-04-26T12:47:18.362Z</time></trkpt><trkpt lat="46.4408988" lon="10.4425826"><ele>1577.5</ele><time>2026-04-26T12:47:19.362Z</time></trkpt><trkpt lat="46.4408257" lon="10.4427632"><ele>1572.25</ele><time>2026-04-26T12:47:20.361Z</time></trkpt><trkpt lat="46.4407517" lon="10.44295"><ele>1567.0</ele><time>2026-04-26T12:47:21.366Z</time></trkpt><trkpt lat="46.4406785" lon="10.4431033"><ele>1562.75</ele><time>2026-04-26T12:47:22.361Z</time></trkpt><trkpt lat="46.4406026" lon="10.443265"><ele>1558.5</ele><time>2026-04-26T12:47:23.361Z</time></trkpt><trkpt lat="46.4405344" lon="10.4434009"><ele>1554.25</ele><time>2026-04-26T12:47:24.366Z</time></trkpt><trkpt lat="46.4404903" lon="10.4435532"><ele>1550.0</ele><time>2026-04-26T12:47:25.36Z</time></trkpt><trkpt lat="46.4404432" lon="10.44371"><ele>1559.3333333333333</ele><time>2026-04-26T12:47:26.36Z</time></trkpt><trkpt lat="46.4403626" lon="10.4438577"><ele>1568.6666666666665</ele><time>2026-04-26T12:47:27.363Z</time></trkpt><trkpt lat="46.4402717" lon="10.4440516"><ele>1578.0</ele><time>2026-04-26T12:47:28.363Z</time></trkpt><trkpt lat="46.4401847" lon="10.4442631"><ele>1578.0</ele><time>2026-04-26T12:47:29.36Z</time></trkpt><trkpt lat="46.4400982" lon="10.4444751"><ele>1578.0</ele><time>2026-04-26T12:47:30.368Z</time></trkpt><trkpt lat="46.4400186" lon="10.4446919"><ele>1578.0</ele><time>2026-04-26T12:47:31.362Z</time></trkpt><trkpt lat="46.4399453" lon="10.4448932"><ele>1573.0</ele><time>2026-04-26T12:47:32.361Z</time></trkpt><trkpt lat="46.4398672" lon="10.4451118"><ele>1568.0</ele><time>2026-04-26T12:47:33.362Z</time></trkpt><trkpt lat="46.4398171" lon="10.4453156"><ele>1563.0</ele><time>2026-04-26T12:47:34.362Z</time></trkpt><trkpt lat="46.4397609" lon="10.445523"><ele>1557.6666666666665</ele><time>2026-04-26T12:47:35.365Z</time></trkpt><trkpt lat="46.4397178" lon="10.4457664"><ele>1552.3333333333333</ele><time>2026-04-26T12:47:36.362Z</time></trkpt><trkpt lat="46.4396198" lon="10.4459682"><ele>1547.0</ele><time>2026-04-26T12:47:37.362Z</time></trkpt><trkpt lat="46.4395488" lon="10.4461585"><ele>1556.3333333333333</ele><time>2026-04-26T12:47:38.368Z</time></trkpt><trkpt lat="46.439482" lon="10.4463367"><ele>1565.6666666666665</ele><time>2026-04-26T12:47:39.359Z</time></trkpt><trkpt lat="46.4394122" lon="10.4465493"><ele>1575.0</ele><time>2026-04-26T12:47:40.359Z</time></trkpt><trkpt lat="46.439337" lon="10.4467538"><ele>1575.0</ele><time>2026-04-26T12:47:41.364Z</time></trkpt><trkpt lat="46.4392632" lon="10.446972"><ele>1575.0</ele><time>2026-04-26T12:47:42.359Z</time></trkpt><trkpt lat="46.439196" lon="10.4471838"><ele>1575.0</ele><time>2026-04-26T12:47:43.358Z</time></trkpt><trkpt lat="46.4391169" lon="10.4473767"><ele>1569.25</ele><time>2026-04-26T12:47:44.36Z</time></trkpt><trkpt lat="46.439044" lon="10.4475537"><ele>1563.5</ele><time>2026-04-26T12:47:45.36Z</time></trkpt><trkpt lat="46.4389818" lon="10.4477045"><ele>1557.75</ele><time>2026-04-26T12:47:46.364Z</time></trkpt><trkpt lat="46.4389022" lon="10.4478128"><ele>1552.0</ele><time>2026-04-26T12:47:47.361Z</time></trkpt><trkpt lat="46.4388269" lon="10.4479496"><ele>1553.5</ele><time>2026-04-26T12:47:48.367Z</time></trkpt><trkpt lat="46.4387322" lon="10.4480771"><ele>1555.0</ele><time>2026-04-26T12:47:49.363Z</time></trkpt><trkpt lat="46.438631" lon="10.4481474"><ele>1556.5</ele><time>2026-04-26T12:47:50.364Z</time></trkpt><trkpt lat="46.4385337" lon="10.4482273"><ele>1558.0</ele><time>2026-04-26T12:47:51.359Z</time></trkpt><trkpt lat="46.4384381" lon="10.4482845"><ele>1558.0</ele><time>2026-04-26T12:47:52.36Z</time></trkpt><trkpt lat="46.4383435" lon="10.4483966"><ele>1558.0</ele><time>2026-04-26T12:47:53.364Z</time></trkpt><trkpt lat="46.4382366" lon="10.448541"><ele>1558.0</ele><time>2026-04-26T12:47:54.362Z</time></trkpt><trkpt lat="46.4381628" lon="10.4486959"><ele>1558.0</ele><time>2026-04-26T12:47:55.365Z</time></trkpt><trkpt lat="46.4380902" lon="10.4488257"><ele>1558.5000000000002</ele><time>2026-04-26T12:47:56.366Z</time></trkpt><trkpt lat="46.4380371" lon="10.4489042"><ele>1559.0</ele><time>2026-04-26T12:47:57.364Z</time></trkpt><trkpt lat="46.437961" lon="10.4489791"><ele>1559.5</ele><time>2026-04-26T12:47:59.364Z</time></trkpt><trkpt lat="46.4379032" lon="10.4490577"><ele>1560.0</ele><time>2026-04-26T12:48:01.374Z</time></trkpt><trkpt lat="46.4378516" lon="10.4491354"><ele>1560.5000000000002</ele><time>2026-04-26T12:48:03.362Z</time></trkpt><trkpt lat="46.437783" lon="10.4491809"><ele>1561.0</ele><time>2026-04-26T12:48:20.369Z</time></trkpt><trkpt lat="46.4377865" lon="10.4490808"><ele>1561.0000000000002</ele><time>2026-04-26T12:48:29.362Z</time></trkpt><trkpt lat="46.4378417" lon="10.4489961"><ele>1561.0</ele><time>2026-04-26T12:48:32.359Z</time></trkpt><trkpt lat="46.4378653" lon="10.4489088"><ele>1561.0</ele><time>2026-04-26T12:48:34.362Z</time></trkpt><trkpt lat="46.4378929" lon="10.4487964"><ele>1561.0</ele><time>2026-04-26T12:48:36.36Z</time></trkpt><trkpt lat="46.437882" lon="10.448687"><ele>1561.0000000000002</ele><time>2026-04-26T12:48:38.36Z</time></trkpt><trkpt lat="46.4378377" lon="10.4487825"><ele>1561.0</ele><time>2026-04-26T12:48:39.359Z</time></trkpt><trkpt lat="46.4377539" lon="10.4487676"><ele>1561.0</ele><time>2026-04-26T12:48:43.359Z</time></trkpt><trkpt lat="46.4376986" lon="10.4487122"><ele>1561.0</ele><time>2026-04-26T12:48:45.36Z</time></trkpt><trkpt lat="46.4375396" lon="10.4487612"><ele>1561.0</ele><time>2026-04-26T12:48:47.364Z</time></trkpt><trkpt lat="46.4373026" lon="10.4489009"><ele>1576.0</ele><time>2026-04-26T12:48:48.358Z</time></trkpt><trkpt lat="46.4370492" lon="10.4490711"><ele>1591.0</ele><time>2026-04-26T12:48:49.361Z</time></trkpt><trkpt lat="46.4368731" lon="10.4491983"><ele>1591.0</ele><time>2026-04-26T12:48:50.36Z</time></trkpt><trkpt lat="46.4367464" lon="10.4493078"><ele>1591.0</ele><time>2026-04-26T12:48:51.361Z</time></trkpt><trkpt lat="46.4366549" lon="10.4493948"><ele>1591.0</ele><time>2026-04-26T12:48:52.366Z</time></trkpt><trkpt lat="46.4365922" lon="10.4494607"><ele>1591.0</ele><time>2026-04-26T12:48:53.368Z</time></trkpt><trkpt lat="46.4364822" lon="10.449545"><ele>1591.0</ele><time>2026-04-26T12:48:55.367Z</time></trkpt><trkpt lat="46.4364165" lon="10.4495881"><ele>1591.0</ele><time>2026-04-26T12:48:56.36Z</time></trkpt><trkpt lat="46.4363311" lon="10.4496395"><ele>1591.0</ele><time>2026-04-26T12:48:57.36Z</time></trkpt><trkpt lat="46.4362331" lon="10.4497022"><ele>1591.0</ele><time>2026-04-26T12:48:58.36Z</time></trkpt><trkpt lat="46.4361199" lon="10.4497759"><ele>1591.0</ele><time>2026-04-26T12:48:59.362Z</time></trkpt><trkpt lat="46.4359955" lon="10.4498564"><ele>1591.6</ele><time>2026-04-26T12:49:00.361Z</time></trkpt><trkpt lat="46.4358879" lon="10.449957"><ele>1592.1999999999998</ele><time>2026-04-26T12:49:01.366Z</time></trkpt><trkpt lat="46.4357977" lon="10.4500718"><ele>1592.8000000000002</ele><time>2026-04-26T12:49:02.368Z</time></trkpt><trkpt lat="46.4357309" lon="10.4501879"><ele>1593.4</ele><time>2026-04-26T12:49:03.363Z</time></trkpt><trkpt lat="46.4356845" lon="10.4502966"><ele>1594.0</ele><time>2026-04-26T12:49:04.362Z</time></trkpt><trkpt lat="46.4356313" lon="10.4503918"><ele>1593.25</ele><time>2026-04-26T12:49:05.361Z</time></trkpt><trkpt lat="46.4355667" lon="10.4504875"><ele>1592.5</ele><time>2026-04-26T12:49:06.366Z</time></trkpt><trkpt lat="46.4354795" lon="10.4505905"><ele>1591.75</ele><time>2026-04-26T12:49:07.361Z</time></trkpt><trkpt lat="46.435326" lon="10.45068"><ele>1591.0</ele><time>2026-04-26T12:49:08.361Z</time></trkpt><trkpt lat="46.4351693" lon="10.4507648"><ele>1591.0</ele><time>2026-04-26T12:49:09.361Z</time></trkpt><trkpt lat="46.4350426" lon="10.4508283"><ele>1591.0</ele><time>2026-04-26T12:49:10.362Z</time></trkpt><trkpt lat="46.4349493" lon="10.4508592"><ele>1591.0</ele><time>2026-04-26T12:49:11.36Z</time></trkpt><trkpt lat="46.4348638" lon="10.4508673"><ele>1591.0</ele><time>2026-04-26T12:49:12.358Z</time></trkpt><trkpt lat="46.4347591" lon="10.450853"><ele>1591.0</ele><time>2026-04-26T12:49:13.36Z</time></trkpt><trkpt lat="46.4346385" lon="10.4508486"><ele>1595.6</ele><time>2026-04-26T12:49:14.363Z</time></trkpt><trkpt lat="46.4345184" lon="10.4508578"><ele>1600.1999999999998</ele><time>2026-04-26T12:49:15.363Z</time></trkpt><trkpt lat="46.4344147" lon="10.4508811"><ele>1604.8000000000002</ele><time>2026-04-26T12:49:16.36Z</time></trkpt><trkpt lat="46.4343276" lon="10.4508973"><ele>1609.4</ele><time>2026-04-26T12:49:17.362Z</time></trkpt><trkpt lat="46.4342525" lon="10.4509242"><ele>1614.0</ele><time>2026-04-26T12:49:18.361Z</time></trkpt><trkpt lat="46.4341664" lon="10.4509733"><ele>1614.0</ele><time>2026-04-26T12:49:19.361Z</time></trkpt><trkpt lat="46.4340821" lon="10.4510355"><ele>1614.0</ele><time>2026-04-26T12:49:20.373Z</time></trkpt><trkpt lat="46.434003" lon="10.4510674"><ele>1614.0</ele><time>2026-04-26T12:49:21.36Z</time></trkpt><trkpt lat="46.4339012" lon="10.4510771"><ele>1614.0</ele><time>2026-04-26T12:49:22.362Z</time></trkpt><trkpt lat="46.4337894" lon="10.4511091"><ele>1614.0</ele><time>2026-04-26T12:49:23.359Z</time></trkpt><trkpt lat="46.4336671" lon="10.4511771"><ele>1614.25</ele><time>2026-04-26T12:49:24.361Z</time></trkpt><trkpt lat="46.4335521" lon="10.4512442"><ele>1614.5</ele><time>2026-04-26T12:49:25.363Z</time></trkpt><trkpt lat="46.4334524" lon="10.4513023"><ele>1614.75</ele><time>2026-04-26T12:49:26.367Z</time></trkpt><trkpt lat="46.4333563" lon="10.4513452"><ele>1615.0</ele><time>2026-04-26T12:49:27.362Z</time></trkpt><trkpt lat="46.4332428" lon="10.4513903"><ele>1615.0</ele><time>2026-04-26T12:49:28.36Z</time></trkpt><trkpt lat="46.4331321" lon="10.4514297"><ele>1615.0</ele><time>2026-04-26T12:49:29.362Z</time></trkpt><trkpt lat="46.4330336" lon="10.4514722"><ele>1615.0</ele><time>2026-04-26T12:49:30.36Z</time></trkpt><trkpt lat="46.4329557" lon="10.4515011"><ele>1615.0</ele><time>2026-04-26T12:49:31.362Z</time></trkpt><trkpt lat="46.4328849" lon="10.4515101"><ele>1615.0</ele><time>2026-04-26T12:49:32.373Z</time></trkpt><trkpt lat="46.4327697" lon="10.451503"><ele>1621.5</ele><time>2026-04-26T12:49:33.366Z</time></trkpt><trkpt lat="46.4326505" lon="10.4514883"><ele>1628.0</ele><time>2026-04-26T12:49:34.361Z</time></trkpt><trkpt lat="46.4325248" lon="10.4514915"><ele>1634.5</ele><time>2026-04-26T12:49:35.361Z</time></trkpt><trkpt lat="46.4324167" lon="10.4515161"><ele>1641.0</ele><time>2026-04-26T12:49:36.359Z</time></trkpt><trkpt lat="46.4323095" lon="10.4515433"><ele>1641.0</ele><time>2026-04-26T12:49:37.364Z</time></trkpt><trkpt lat="46.4321964" lon="10.4515868"><ele>1641.0</ele><time>2026-04-26T12:49:38.361Z</time></trkpt><trkpt lat="46.4320526" lon="10.4516317"><ele>1641.0</ele><time>2026-04-26T12:49:39.364Z</time></trkpt><trkpt lat="46.4319085" lon="10.4516916"><ele>1641.0</ele><time>2026-04-26T12:49:40.362Z</time></trkpt><trkpt lat="46.4317665" lon="10.4517626"><ele>1648.0</ele><time>2026-04-26T12:49:41.365Z</time></trkpt><trkpt lat="46.4316365" lon="10.4518351"><ele>1655.0</ele><time>2026-04-26T12:49:42.366Z</time></trkpt><trkpt lat="46.4315245" lon="10.4519045"><ele>1662.0</ele><time>2026-04-26T12:49:43.361Z</time></trkpt><trkpt lat="46.4314227" lon="10.4519354"><ele>1669.0</ele><time>2026-04-26T12:49:44.358Z</time></trkpt><trkpt lat="46.4313141" lon="10.4519127"><ele>1673.5</ele><time>2026-04-26T12:49:45.363Z</time></trkpt><trkpt lat="46.4311825" lon="10.4518715"><ele>1678.0</ele><time>2026-04-26T12:49:46.368Z</time></trkpt><trkpt lat="46.4310461" lon="10.4518212"><ele>1682.5</ele><time>2026-04-26T12:49:47.36Z</time></trkpt><trkpt lat="46.4309159" lon="10.4517597"><ele>1687.0</ele><time>2026-04-26T12:49:48.364Z</time></trkpt><trkpt lat="46.4307857" lon="10.4516918"><ele>1687.0</ele><time>2026-04-26T12:49:49.359Z</time></trkpt><trkpt lat="46.4306459" lon="10.4516313"><ele>1687.0</ele><time>2026-04-26T12:49:50.36Z</time></trkpt><trkpt lat="46.4304988" lon="10.4515934"><ele>1687.0</ele><time>2026-04-26T12:49:51.358Z</time></trkpt><trkpt lat="46.4303549" lon="10.4515595"><ele>1687.0</ele><time>2026-04-26T12:49:52.361Z</time></trkpt><trkpt lat="46.430235" lon="10.4515529"><ele>1690.8</ele><time>2026-04-26T12:49:53.363Z</time></trkpt><trkpt lat="46.4301441" lon="10.4515614"><ele>1694.6</ele><time>2026-04-26T12:49:54.359Z</time></trkpt><trkpt lat="46.4300513" lon="10.4516064"><ele>1698.3999999999999</ele><time>2026-04-26T12:49:55.361Z</time></trkpt><trkpt lat="46.4299478" lon="10.4516623"><ele>1702.1999999999998</ele><time>2026-04-26T12:49:56.368Z</time></trkpt><trkpt lat="46.4298392" lon="10.4517191"><ele>1706.0</ele><time>2026-04-26T12:49:57.359Z</time></trkpt><trkpt lat="46.4297142" lon="10.451775"><ele>1714.6666666666665</ele><time>2026-04-26T12:49:58.364Z</time></trkpt><trkpt lat="46.4295779" lon="10.4518384"><ele>1723.3333333333335</ele><time>2026-04-26T12:49:59.36Z</time></trkpt><trkpt lat="46.4294333" lon="10.4519124"><ele>1732.0</ele><time>2026-04-26T12:50:00.367Z</time></trkpt><trkpt lat="46.4292791" lon="10.45199"><ele>1732.0</ele><time>2026-04-26T12:50:01.367Z</time></trkpt><trkpt lat="46.4291373" lon="10.4520857"><ele>1732.0</ele><time>2026-04-26T12:50:02.36Z</time></trkpt><trkpt lat="46.4290006" lon="10.4521799"><ele>1732.0</ele><time>2026-04-26T12:50:03.359Z</time></trkpt><trkpt lat="46.4288777" lon="10.4522602"><ele>1732.0</ele><time>2026-04-26T12:50:04.362Z</time></trkpt><trkpt lat="46.4287931" lon="10.4522311"><ele>1730.3999999999999</ele><time>2026-04-26T12:50:05.362Z</time></trkpt><trkpt lat="46.4287054" lon="10.4521532"><ele>1728.7999999999997</ele><time>2026-04-26T12:50:06.363Z</time></trkpt><trkpt lat="46.4286182" lon="10.4520629"><ele>1727.2</ele><time>2026-04-26T12:50:07.359Z</time></trkpt><trkpt lat="46.4285566" lon="10.4519594"><ele>1725.6</ele><time>2026-04-26T12:50:08.364Z</time></trkpt><trkpt lat="46.4285325" lon="10.4518637"><ele>1724.0</ele><time>2026-04-26T12:50:09.363Z</time></trkpt><trkpt lat="46.4285621" lon="10.4517442"><ele>1728.9999999999998</ele><time>2026-04-26T12:50:10.361Z</time></trkpt><trkpt lat="46.4285972" lon="10.4516275"><ele>1734.0</ele><time>2026-04-26T12:50:11.369Z</time></trkpt><trkpt lat="46.4286503" lon="10.4515027"><ele>1739.0</ele><time>2026-04-26T12:50:12.363Z</time></trkpt><trkpt lat="46.4286993" lon="10.4513799"><ele>1744.0</ele><time>2026-04-26T12:50:13.359Z</time></trkpt><trkpt lat="46.4287411" lon="10.4512803"><ele>1748.9999999999998</ele><time>2026-04-26T12:50:14.361Z</time></trkpt><trkpt lat="46.4287773" lon="10.4511997"><ele>1754.0</ele><time>2026-04-26T12:50:15.365Z</time></trkpt><trkpt lat="46.4288148" lon="10.4511231"><ele>1754.75</ele><time>2026-04-26T12:50:16.36Z</time></trkpt><trkpt lat="46.4288693" lon="10.4510435"><ele>1755.5</ele><time>2026-04-26T12:50:17.363Z</time></trkpt><trkpt lat="46.4290022" lon="10.4509744"><ele>1756.25</ele><time>2026-04-26T12:50:18.365Z</time></trkpt><trkpt lat="46.4291501" lon="10.4508863"><ele>1757.0</ele><time>2026-04-26T12:50:19.362Z</time></trkpt><trkpt lat="46.4292866" lon="10.4507961"><ele>1757.0</ele><time>2026-04-26T12:50:20.365Z</time></trkpt><trkpt lat="46.4294376" lon="10.4506982"><ele>1757.0</ele><time>2026-04-26T12:50:21.367Z</time></trkpt><trkpt lat="46.4296145" lon="10.4505548"><ele>1757.0</ele><time>2026-04-26T12:50:22.361Z</time></trkpt><trkpt lat="46.4297999" lon="10.4503906"><ele>1758.25</ele><time>2026-04-26T12:50:23.36Z</time></trkpt><trkpt lat="46.4299622" lon="10.4502383"><ele>1759.5</ele><time>2026-04-26T12:50:24.365Z</time></trkpt><trkpt lat="46.4300943" lon="10.4501468"><ele>1760.75</ele><time>2026-04-26T12:50:25.371Z</time></trkpt><trkpt lat="46.43018" lon="10.4500586"><ele>1762.0</ele><time>2026-04-26T12:50:26.359Z</time></trkpt><trkpt lat="46.4302665" lon="10.4499361"><ele>1762.0</ele><time>2026-04-26T12:50:27.361Z</time></trkpt><trkpt lat="46.4303713" lon="10.4497957"><ele>1762.0</ele><time>2026-04-26T12:50:28.364Z</time></trkpt><trkpt lat="46.4304795" lon="10.4496738"><ele>1762.0</ele><time>2026-04-26T12:50:29.365Z</time></trkpt><trkpt lat="46.4306242" lon="10.4496197"><ele>1762.0</ele><time>2026-04-26T12:50:30.366Z</time></trkpt><trkpt lat="46.4307863" lon="10.4495836"><ele>1765.3333333333335</ele><time>2026-04-26T12:50:31.365Z</time></trkpt><trkpt lat="46.4309682" lon="10.4495577"><ele>1768.6666666666665</ele><time>2026-04-26T12:50:32.362Z</time></trkpt><trkpt lat="46.4311482" lon="10.4495215"><ele>1772.0</ele><time>2026-04-26T12:50:33.362Z</time></trkpt><trkpt lat="46.4312909" lon="10.4494814"><ele>1768.6</ele><time>2026-04-26T12:50:34.362Z</time></trkpt><trkpt lat="46.4313964" lon="10.4494107"><ele>1765.1999999999998</ele><time>2026-04-26T12:50:35.368Z</time></trkpt><trkpt lat="46.4314784" lon="10.4493139"><ele>1761.8</ele><time>2026-04-26T12:50:36.365Z</time></trkpt><trkpt lat="46.4315562" lon="10.4491925"><ele>1758.4</ele><time>2026-04-26T12:50:37.361Z</time></trkpt><trkpt lat="46.4316019" lon="10.449078"><ele>1755.0</ele><time>2026-04-26T12:50:38.365Z</time></trkpt><trkpt lat="46.4316272" lon="10.4489577"><ele>1755.0</ele><time>2026-04-26T12:50:40.363Z</time></trkpt><trkpt lat="46.4315581" lon="10.4489249"><ele>1755.0</ele><time>2026-04-26T12:50:42.359Z</time></trkpt><trkpt lat="46.4314165" lon="10.4489948"><ele>1755.0</ele><time>2026-04-26T12:50:44.372Z</time></trkpt><trkpt lat="46.4313193" lon="10.4490409"><ele>1755.0</ele><time>2026-04-26T12:50:45.369Z</time></trkpt><trkpt lat="46.4312376" lon="10.4490714"><ele>1755.0</ele><time>2026-04-26T12:50:46.361Z</time></trkpt><trkpt lat="46.4311707" lon="10.449064"><ele>1759.25</ele><time>2026-04-26T12:50:47.365Z</time></trkpt><trkpt lat="46.431067" lon="10.4489588"><ele>1763.5</ele><time>2026-04-26T12:50:49.359Z</time></trkpt><trkpt lat="46.4310407" lon="10.4487734"><ele>1767.75</ele><time>2026-04-26T12:50:51.362Z</time></trkpt><trkpt lat="46.4310708" lon="10.4486213"><ele>1772.0</ele><time>2026-04-26T12:50:52.363Z</time></trkpt><trkpt lat="46.4311919" lon="10.4484859"><ele>1776.0</ele><time>2026-04-26T12:50:53.363Z</time></trkpt><trkpt lat="46.4313909" lon="10.4483576"><ele>1780.0</ele><time>2026-04-26T12:50:54.361Z</time></trkpt><trkpt lat="46.4315274" lon="10.4482433"><ele>1784.0</ele><time>2026-04-26T12:50:55.362Z</time></trkpt><trkpt lat="46.4316769" lon="10.4481643"><ele>1784.0</ele><time>2026-04-26T12:50:56.366Z</time></trkpt><trkpt lat="46.4318003" lon="10.4480719"><ele>1784.0</ele><time>2026-04-26T12:50:57.36Z</time></trkpt><trkpt lat="46.4319255" lon="10.4479639"><ele>1784.0</ele><time>2026-04-26T12:50:58.369Z</time></trkpt><trkpt lat="46.4320305" lon="10.4478453"><ele>1784.0</ele><time>2026-04-26T12:50:59.361Z</time></trkpt><trkpt lat="46.4321422" lon="10.4476752"><ele>1786.0</ele><time>2026-04-26T12:51:00.364Z</time></trkpt><trkpt lat="46.4322727" lon="10.4474805"><ele>1788.0</ele><time>2026-04-26T12:51:01.359Z</time></trkpt><trkpt lat="46.4324152" lon="10.4473041"><ele>1790.0</ele><time>2026-04-26T12:51:02.365Z</time></trkpt><trkpt lat="46.4325517" lon="10.4471448"><ele>1792.3333333333333</ele><time>2026-04-26T12:51:03.361Z</time></trkpt><trkpt lat="46.4327033" lon="10.4469896"><ele>1794.6666666666665</ele><time>2026-04-26T12:51:04.362Z</time></trkpt><trkpt lat="46.4329126" lon="10.4468539"><ele>1797.0</ele><time>2026-04-26T12:51:05.361Z</time></trkpt><trkpt lat="46.4331099" lon="10.4467094"><ele>1797.0</ele><time>2026-04-26T12:51:06.363Z</time></trkpt><trkpt lat="46.433278" lon="10.4465718"><ele>1797.0</ele><time>2026-04-26T12:51:07.359Z</time></trkpt><trkpt lat="46.4334206" lon="10.446457"><ele>1797.0</ele><time>2026-04-26T12:51:08.365Z</time></trkpt><trkpt lat="46.4335317" lon="10.4464017"><ele>1797.0</ele><time>2026-04-26T12:51:09.362Z</time></trkpt><trkpt lat="46.4336323" lon="10.4463516"><ele>1797.0</ele><time>2026-04-26T12:51:10.36Z</time></trkpt><trkpt lat="46.4337427" lon="10.4462694"><ele>1797.0</ele><time>2026-04-26T12:51:11.365Z</time></trkpt><trkpt lat="46.4338749" lon="10.4461758"><ele>1797.0</ele><time>2026-04-26T12:51:12.366Z</time></trkpt><trkpt lat="46.4340126" lon="10.4460871"><ele>1797.0</ele><time>2026-04-26T12:51:13.361Z</time></trkpt><trkpt lat="46.4341666" lon="10.445922"><ele>1797.0</ele><time>2026-04-26T12:51:14.364Z</time></trkpt><trkpt lat="46.4343166" lon="10.445703"><ele>1797.0</ele><time>2026-04-26T12:51:15.365Z</time></trkpt><trkpt lat="46.4344736" lon="10.4455104"><ele>1791.3333333333335</ele><time>2026-04-26T12:51:16.361Z</time></trkpt><trkpt lat="46.4346076" lon="10.4453447"><ele>1785.6666666666667</ele><time>2026-04-26T12:51:17.362Z</time></trkpt><trkpt lat="46.4347065" lon="10.4451969"><ele>1780.0</ele><time>2026-04-26T12:51:18.36Z</time></trkpt><trkpt lat="46.4347911" lon="10.4450333"><ele>1780.0</ele><time>2026-04-26T12:51:19.357Z</time></trkpt><trkpt lat="46.4348769" lon="10.4448197"><ele>1780.0</ele><time>2026-04-26T12:51:20.363Z</time></trkpt><trkpt lat="46.4349687" lon="10.4445853"><ele>1780.0</ele><time>2026-04-26T12:51:21.363Z</time></trkpt><trkpt lat="46.4350706" lon="10.4443697"><ele>1785.6666666666667</ele><time>2026-04-26T12:51:22.362Z</time></trkpt><trkpt lat="46.4351745" lon="10.4441793"><ele>1791.3333333333335</ele><time>2026-04-26T12:51:23.362Z</time></trkpt><trkpt lat="46.4352745" lon="10.4440161"><ele>1797.0</ele><time>2026-04-26T12:51:24.361Z</time></trkpt><trkpt lat="46.4353825" lon="10.4438583"><ele>1791.0</ele><time>2026-04-26T12:51:25.36Z</time></trkpt><trkpt lat="46.4354766" lon="10.4437158"><ele>1785.0</ele><time>2026-04-26T12:51:26.36Z</time></trkpt><trkpt lat="46.4355624" lon="10.4435675"><ele>1779.0</ele><time>2026-04-26T12:51:27.363Z</time></trkpt><trkpt lat="46.4355945" lon="10.4434275"><ele>1773.0</ele><time>2026-04-26T12:51:28.363Z</time></trkpt><trkpt lat="46.4356035" lon="10.4432603"><ele>1773.0</ele><time>2026-04-26T12:51:29.362Z</time></trkpt><trkpt lat="46.4356265" lon="10.4430972"><ele>1773.0000000000002</ele><time>2026-04-26T12:51:30.361Z</time></trkpt><trkpt lat="46.4356533" lon="10.4429674"><ele>1773.0000000000002</ele><time>2026-04-26T12:51:31.364Z</time></trkpt><trkpt lat="46.4357029" lon="10.4428611"><ele>1773.0</ele><time>2026-04-26T12:51:32.359Z</time></trkpt><trkpt lat="46.4357729" lon="10.4427835"><ele>1773.0</ele><time>2026-04-26T12:51:33.367Z</time></trkpt><trkpt lat="46.4358666" lon="10.4427055"><ele>1773.0</ele><time>2026-04-26T12:51:34.363Z</time></trkpt><trkpt lat="46.4359816" lon="10.442614"><ele>1773.0</ele><time>2026-04-26T12:51:35.365Z</time></trkpt><trkpt lat="46.4361421" lon="10.4425006"><ele>1773.0</ele><time>2026-04-26T12:51:36.359Z</time></trkpt><trkpt lat="46.4363136" lon="10.4423686"><ele>1773.0</ele><time>2026-04-26T12:51:37.365Z</time></trkpt><trkpt lat="46.436489" lon="10.4422112"><ele>1773.0</ele><time>2026-04-26T12:51:38.364Z</time></trkpt><trkpt lat="46.4366514" lon="10.4420372"><ele>1773.0</ele><time>2026-04-26T12:51:39.361Z</time></trkpt><trkpt lat="46.4368073" lon="10.4418644"><ele>1773.6666666666665</ele><time>2026-04-26T12:51:40.36Z</time></trkpt><trkpt lat="46.4369549" lon="10.4416834"><ele>1774.3333333333333</ele><time>2026-04-26T12:51:41.364Z</time></trkpt><trkpt lat="46.4370799" lon="10.4415106"><ele>1775.0</ele><time>2026-04-26T12:51:42.365Z</time></trkpt><trkpt lat="46.4371907" lon="10.4413583"><ele>1781.3333333333333</ele><time>2026-04-26T12:51:43.359Z</time></trkpt><trkpt lat="46.437294" lon="10.4412238"><ele>1787.6666666666665</ele><time>2026-04-26T12:51:44.36Z</time></trkpt><trkpt lat="46.4373887" lon="10.4410587"><ele>1794.0</ele><time>2026-04-26T12:51:45.366Z</time></trkpt><trkpt lat="46.4374907" lon="10.4408612"><ele>1794.0</ele><time>2026-04-26T12:51:46.359Z</time></trkpt><trkpt lat="46.4376025" lon="10.4406522"><ele>1794.0</ele><time>2026-04-26T12:51:47.367Z</time></trkpt><trkpt lat="46.4377091" lon="10.4404602"><ele>1794.0</ele><time>2026-04-26T12:51:48.363Z</time></trkpt><trkpt lat="46.4377916" lon="10.4402815"><ele>1790.0</ele><time>2026-04-26T12:51:49.362Z</time></trkpt><trkpt lat="46.4378751" lon="10.44009"><ele>1786.0</ele><time>2026-04-26T12:51:50.36Z</time></trkpt><trkpt lat="46.4379465" lon="10.4398682"><ele>1782.0</ele><time>2026-04-26T12:51:51.358Z</time></trkpt><trkpt lat="46.438016" lon="10.4396471"><ele>1788.6666666666665</ele><time>2026-04-26T12:51:52.365Z</time></trkpt><trkpt lat="46.4380869" lon="10.4394347"><ele>1795.3333333333333</ele><time>2026-04-26T12:51:53.369Z</time></trkpt><trkpt lat="46.4381901" lon="10.4392824"><ele>1802.0</ele><time>2026-04-26T12:51:54.36Z</time></trkpt><trkpt lat="46.4383179" lon="10.4391227"><ele>1802.0</ele><time>2026-04-26T12:51:55.357Z</time></trkpt><trkpt lat="46.4384766" lon="10.4389485"><ele>1802.0</ele><time>2026-04-26T12:51:56.371Z</time></trkpt><trkpt lat="46.4386386" lon="10.4387741"><ele>1802.0</ele><time>2026-04-26T12:51:57.37Z</time></trkpt><trkpt lat="46.4387797" lon="10.4386156"><ele>1798.25</ele><time>2026-04-26T12:51:58.365Z</time></trkpt><trkpt lat="46.4388854" lon="10.4384639"><ele>1794.5</ele><time>2026-04-26T12:51:59.369Z</time></trkpt><trkpt lat="46.4389696" lon="10.4383326"><ele>1790.75</ele><time>2026-04-26T12:52:00.36Z</time></trkpt><trkpt lat="46.4390689" lon="10.4382088"><ele>1787.0</ele><time>2026-04-26T12:52:01.36Z</time></trkpt><trkpt lat="46.4391771" lon="10.4381"><ele>1787.0</ele><time>2026-04-26T12:52:02.368Z</time></trkpt><trkpt lat="46.4393455" lon="10.4380165"><ele>1787.0</ele><time>2026-04-26T12:52:03.36Z</time></trkpt><trkpt lat="46.4394989" lon="10.4379178"><ele>1787.0</ele><time>2026-04-26T12:52:04.361Z</time></trkpt><trkpt lat="46.439635" lon="10.4378254"><ele>1783.3999999999999</ele><time>2026-04-26T12:52:05.36Z</time></trkpt><trkpt lat="46.4397473" lon="10.4377444"><ele>1779.7999999999997</ele><time>2026-04-26T12:52:06.359Z</time></trkpt><trkpt lat="46.4398502" lon="10.437662"><ele>1776.2</ele><time>2026-04-26T12:52:07.359Z</time></trkpt><trkpt lat="46.4399343" lon="10.4375851"><ele>1772.6</ele><time>2026-04-26T12:52:08.361Z</time></trkpt><trkpt lat="46.4399962" lon="10.4374926"><ele>1769.0</ele><time>2026-04-26T12:52:09.367Z</time></trkpt><trkpt lat="46.440048" lon="10.4373646"><ele>1769.0</ele><time>2026-04-26T12:52:10.362Z</time></trkpt><trkpt lat="46.4400778" lon="10.4372544"><ele>1769.0</ele><time>2026-04-26T12:52:11.362Z</time></trkpt><trkpt lat="46.440118" lon="10.4371693"><ele>1769.0</ele><time>2026-04-26T12:52:13.359Z</time></trkpt><trkpt lat="46.4401463" lon="10.4373159"><ele>1769.0</ele><time>2026-04-26T12:52:16.36Z</time></trkpt><trkpt lat="46.4401285" lon="10.4374416"><ele>1769.0</ele><time>2026-04-26T12:52:17.372Z</time></trkpt><trkpt lat="46.4400956" lon="10.4376339"><ele>1769.0</ele><time>2026-04-26T12:52:18.367Z</time></trkpt><trkpt lat="46.4400787" lon="10.4378765"><ele>1769.0</ele><time>2026-04-26T12:52:19.368Z</time></trkpt><trkpt lat="46.4400501" lon="10.4380829"><ele>1769.0</ele><time>2026-04-26T12:52:20.361Z</time></trkpt><trkpt lat="46.4400003" lon="10.4381947"><ele>1769.0</ele><time>2026-04-26T12:52:21.364Z</time></trkpt><trkpt lat="46.4399735" lon="10.4382816"><ele>1769.0</ele><time>2026-04-26T12:52:22.359Z</time></trkpt><trkpt lat="46.44007" lon="10.4382744"><ele>1769.0</ele><time>2026-04-26T12:52:26.363Z</time></trkpt><trkpt lat="46.4401476" lon="10.438161"><ele>1769.0</ele><time>2026-04-26T12:52:27.368Z</time></trkpt><trkpt lat="46.4402285" lon="10.4380089"><ele>1769.0</ele><time>2026-04-26T12:52:28.373Z</time></trkpt><trkpt lat="46.4403382" lon="10.4378051"><ele>1769.0</ele><time>2026-04-26T12:52:29.362Z</time></trkpt><trkpt lat="46.4404606" lon="10.4375943"><ele>1769.0</ele><time>2026-04-26T12:52:30.363Z</time></trkpt><trkpt lat="46.4405724" lon="10.4374056"><ele>1769.0</ele><time>2026-04-26T12:52:31.359Z</time></trkpt><trkpt lat="46.4406621" lon="10.4372474"><ele>1763.0</ele><time>2026-04-26T12:52:32.364Z</time></trkpt><trkpt lat="46.4407495" lon="10.4371188"><ele>1757.0</ele><time>2026-04-26T12:52:33.364Z</time></trkpt><trkpt lat="46.4408269" lon="10.4370132"><ele>1751.0</ele><time>2026-04-26T12:52:34.361Z</time></trkpt><trkpt lat="46.4408728" lon="10.4369171"><ele>1745.0</ele><time>2026-04-26T12:52:35.362Z</time></trkpt><trkpt lat="46.440907" lon="10.4367973"><ele>1739.0</ele><time>2026-04-26T12:52:36.364Z</time></trkpt><trkpt lat="46.4409148" lon="10.4366414"><ele>1739.0</ele><time>2026-04-26T12:52:37.365Z</time></trkpt><trkpt lat="46.4409177" lon="10.4364533"><ele>1739.0</ele><time>2026-04-26T12:52:38.358Z</time></trkpt><trkpt lat="46.440926" lon="10.4362501"><ele>1739.0</ele><time>2026-04-26T12:52:39.363Z</time></trkpt><trkpt lat="46.4409358" lon="10.4360578"><ele>1739.0</ele><time>2026-04-26T12:52:40.365Z</time></trkpt><trkpt lat="46.4409487" lon="10.4358954"><ele>1740.4999999999998</ele><time>2026-04-26T12:52:41.363Z</time></trkpt><trkpt lat="46.4409878" lon="10.435759"><ele>1742.0</ele><time>2026-04-26T12:52:42.363Z</time></trkpt><trkpt lat="46.4410443" lon="10.4356435"><ele>1743.5</ele><time>2026-04-26T12:52:43.361Z</time></trkpt><trkpt lat="46.4410832" lon="10.4355541"><ele>1745.0</ele><time>2026-04-26T12:52:44.363Z</time></trkpt><trkpt lat="46.4411432" lon="10.4355235"><ele>1746.4999999999998</ele><time>2026-04-26T12:52:47.363Z</time></trkpt><trkpt lat="46.4411696" lon="10.4356215"><ele>1748.0</ele><time>2026-04-26T12:52:49.36Z</time></trkpt><trkpt lat="46.4411683" lon="10.4357454"><ele>1748.0</ele><time>2026-04-26T12:52:50.367Z</time></trkpt><trkpt lat="46.441179" lon="10.4358562"><ele>1748.0000000000002</ele><time>2026-04-26T12:52:51.364Z</time></trkpt><trkpt lat="46.4411852" lon="10.4359708"><ele>1748.0000000000002</ele><time>2026-04-26T12:52:52.369Z</time></trkpt><trkpt lat="46.4411991" lon="10.4361214"><ele>1748.0</ele><time>2026-04-26T12:52:53.361Z</time></trkpt><trkpt lat="46.4412275" lon="10.4362961"><ele>1748.0</ele><time>2026-04-26T12:52:54.365Z</time></trkpt><trkpt lat="46.4412666" lon="10.4364721"><ele>1737.4</ele><time>2026-04-26T12:52:55.36Z</time></trkpt><trkpt lat="46.4413196" lon="10.4366453"><ele>1726.8000000000002</ele><time>2026-04-26T12:52:56.363Z</time></trkpt><trkpt lat="46.4413575" lon="10.4367762"><ele>1716.2</ele><time>2026-04-26T12:52:57.366Z</time></trkpt><trkpt lat="46.4413719" lon="10.4368863"><ele>1705.6</ele><time>2026-04-26T12:52:58.366Z</time></trkpt><trkpt lat="46.4413904" lon="10.4370403"><ele>1695.0</ele><time>2026-04-26T12:52:59.361Z</time></trkpt><trkpt lat="46.4413837" lon="10.4372316"><ele>1694.0</ele><time>2026-04-26T12:53:00.362Z</time></trkpt><trkpt lat="46.4413354" lon="10.4373622"><ele>1693.0</ele><time>2026-04-26T12:53:01.368Z</time></trkpt><trkpt lat="46.44128" lon="10.4374807"><ele>1692.0</ele><time>2026-04-26T12:53:02.362Z</time></trkpt><trkpt lat="46.4412378" lon="10.4376258"><ele>1691.0</ele><time>2026-04-26T12:53:03.363Z</time></trkpt><trkpt lat="46.4412028" lon="10.4378109"><ele>1690.0</ele><time>2026-04-26T12:53:04.365Z</time></trkpt><trkpt lat="46.4411882" lon="10.4380897"><ele>1698.3333333333335</ele><time>2026-04-26T12:53:05.359Z</time></trkpt><trkpt lat="46.4411458" lon="10.438309"><ele>1706.6666666666665</ele><time>2026-04-26T12:53:06.358Z</time></trkpt><trkpt lat="46.4410937" lon="10.4385269"><ele>1715.0</ele><time>2026-04-26T12:53:07.362Z</time></trkpt><trkpt lat="46.4410501" lon="10.4387202"><ele>1710.2</ele><time>2026-04-26T12:53:08.36Z</time></trkpt><trkpt lat="46.4410064" lon="10.4388689"><ele>1705.4</ele><time>2026-04-26T12:53:09.362Z</time></trkpt><trkpt lat="46.4409748" lon="10.4389755"><ele>1700.6</ele><time>2026-04-26T12:53:10.359Z</time></trkpt><trkpt lat="46.4409387" lon="10.4390572"><ele>1695.8</ele><time>2026-04-26T12:53:11.362Z</time></trkpt><trkpt lat="46.440987" lon="10.4391301"><ele>1691.0</ele><time>2026-04-26T12:53:14.364Z</time></trkpt><trkpt lat="46.4410902" lon="10.4390042"><ele>1691.0</ele><time>2026-04-26T12:53:16.369Z</time></trkpt><trkpt lat="46.441172" lon="10.4388635"><ele>1691.0</ele><time>2026-04-26T12:53:17.364Z</time></trkpt><trkpt lat="46.4412596" lon="10.4386933"><ele>1691.0</ele><time>2026-04-26T12:53:18.369Z</time></trkpt><trkpt lat="46.4413668" lon="10.4384841"><ele>1690.6666666666665</ele><time>2026-04-26T12:53:19.366Z</time></trkpt><trkpt lat="46.4414793" lon="10.4382886"><ele>1690.3333333333335</ele><time>2026-04-26T12:53:20.359Z</time></trkpt><trkpt lat="46.441579" lon="10.4381085"><ele>1690.0</ele><time>2026-04-26T12:53:21.36Z</time></trkpt><trkpt lat="46.4416783" lon="10.4379574"><ele>1690.0</ele><time>2026-04-26T12:53:22.36Z</time></trkpt><trkpt lat="46.4417546" lon="10.4378161"><ele>1690.0</ele><time>2026-04-26T12:53:23.364Z</time></trkpt><trkpt lat="46.4418063" lon="10.4376995"><ele>1690.0</ele><time>2026-04-26T12:53:24.363Z</time></trkpt><trkpt lat="46.441854" lon="10.4376208"><ele>1690.0</ele><time>2026-04-26T12:53:25.36Z</time></trkpt><trkpt lat="46.4419008" lon="10.4375501"><ele>1690.0</ele><time>2026-04-26T12:53:26.361Z</time></trkpt><trkpt lat="46.4419855" lon="10.4374334"><ele>1690.0</ele><time>2026-04-26T12:53:28.359Z</time></trkpt><trkpt lat="46.4420234" lon="10.437267"><ele>1690.0</ele><time>2026-04-26T12:53:30.361Z</time></trkpt><trkpt lat="46.4420025" lon="10.4370571"><ele>1690.0</ele><time>2026-04-26T12:53:31.361Z</time></trkpt><trkpt lat="46.4420014" lon="10.4368638"><ele>1690.0</ele><time>2026-04-26T12:53:32.362Z</time></trkpt><trkpt lat="46.4419841" lon="10.4366805"><ele>1690.75</ele><time>2026-04-26T12:53:33.371Z</time></trkpt><trkpt lat="46.4419798" lon="10.4364835"><ele>1691.5</ele><time>2026-04-26T12:53:34.36Z</time></trkpt><trkpt lat="46.4419789" lon="10.4362872"><ele>1692.25</ele><time>2026-04-26T12:53:35.36Z</time></trkpt><trkpt lat="46.4419835" lon="10.4360879"><ele>1693.0</ele><time>2026-04-26T12:53:36.364Z</time></trkpt><trkpt lat="46.4419941" lon="10.4359034"><ele>1693.0</ele><time>2026-04-26T12:53:37.363Z</time></trkpt><trkpt lat="46.4420259" lon="10.4357317"><ele>1693.0</ele><time>2026-04-26T12:53:38.362Z</time></trkpt><trkpt lat="46.4420303" lon="10.4355408"><ele>1693.0</ele><time>2026-04-26T12:53:39.36Z</time></trkpt><trkpt lat="46.4420231" lon="10.4353435"><ele>1693.0</ele><time>2026-04-26T12:53:40.368Z</time></trkpt><trkpt lat="46.4420066" lon="10.4351551"><ele>1692.25</ele><time>2026-04-26T12:53:41.363Z</time></trkpt><trkpt lat="46.4419719" lon="10.4350009"><ele>1691.5</ele><time>2026-04-26T12:53:42.364Z</time></trkpt><trkpt lat="46.4419509" lon="10.434855"><ele>1690.75</ele><time>2026-04-26T12:53:43.364Z</time></trkpt><trkpt lat="46.4419597" lon="10.4346364"><ele>1690.0</ele><time>2026-04-26T12:53:45.36Z</time></trkpt><trkpt lat="46.4419764" lon="10.4344457"><ele>1690.0000000000002</ele><time>2026-04-26T12:53:46.364Z</time></trkpt><trkpt lat="46.4419883" lon="10.4343408"><ele>1690.0</ele><time>2026-04-26T12:53:47.36Z</time></trkpt><trkpt lat="46.4420268" lon="10.434234"><ele>1690.0</ele><time>2026-04-26T12:53:49.363Z</time></trkpt><trkpt lat="46.442101" lon="10.4342188"><ele>1690.0</ele><time>2026-04-26T12:53:52.365Z</time></trkpt><trkpt lat="46.4421648" lon="10.4342373"><ele>1690.0000000000002</ele><time>2026-04-26T12:53:54.359Z</time></trkpt><trkpt lat="46.4422574" lon="10.4342544"><ele>1690.0</ele><time>2026-04-26T12:53:56.363Z</time></trkpt><trkpt lat="46.4423903" lon="10.4342547"><ele>1676.5</ele><time>2026-04-26T12:53:57.362Z</time></trkpt><trkpt lat="46.4427618" lon="10.4343047"><ele>1663.0</ele><time>2026-04-26T12:53:58.363Z</time></trkpt><trkpt lat="46.4428801" lon="10.4343102"><ele>1657.75</ele><time>2026-04-26T12:53:59.358Z</time></trkpt><trkpt lat="46.4430125" lon="10.4343143"><ele>1652.5</ele><time>2026-04-26T12:54:00.361Z</time></trkpt><trkpt lat="46.4431595" lon="10.4343108"><ele>1647.25</ele><time>2026-04-26T12:54:01.362Z</time></trkpt><trkpt lat="46.4432834" lon="10.4342859"><ele>1642.0</ele><time>2026-04-26T12:54:02.367Z</time></trkpt><trkpt lat="46.4433853" lon="10.4342807"><ele>1642.0</ele><time>2026-04-26T12:54:03.36Z</time></trkpt><trkpt lat="46.4434685" lon="10.4341792"><ele>1642.0</ele><time>2026-04-26T12:54:06.36Z</time></trkpt><trkpt lat="46.4435096" lon="10.4340377"><ele>1642.0</ele><time>2026-04-26T12:54:08.365Z</time></trkpt><trkpt lat="46.4435273" lon="10.4338815"><ele>1642.0</ele><time>2026-04-26T12:54:09.368Z</time></trkpt><trkpt lat="46.4435584" lon="10.4337084"><ele>1642.0</ele><time>2026-04-26T12:54:10.362Z</time></trkpt><trkpt lat="46.4435844" lon="10.4335522"><ele>1638.8</ele><time>2026-04-26T12:54:11.369Z</time></trkpt><trkpt lat="46.4436211" lon="10.4334232"><ele>1635.6</ele><time>2026-04-26T12:54:12.366Z</time></trkpt><trkpt lat="46.4436728" lon="10.4333254"><ele>1632.3999999999999</ele><time>2026-04-26T12:54:13.359Z</time></trkpt><trkpt lat="46.4437435" lon="10.433242"><ele>1629.1999999999998</ele><time>2026-04-26T12:54:14.367Z</time></trkpt><trkpt lat="46.4438148" lon="10.433149"><ele>1626.0</ele><time>2026-04-26T12:54:15.363Z</time></trkpt><trkpt lat="46.443869" lon="10.4330511"><ele>1631.8</ele><time>2026-04-26T12:54:16.364Z</time></trkpt><trkpt lat="46.4439244" lon="10.4329201"><ele>1637.6</ele><time>2026-04-26T12:54:17.36Z</time></trkpt><trkpt lat="46.4439788" lon="10.4327451"><ele>1643.4</ele><time>2026-04-26T12:54:18.364Z</time></trkpt><trkpt lat="46.4440066" lon="10.4326265"><ele>1649.2</ele><time>2026-04-26T12:54:19.359Z</time></trkpt><trkpt lat="46.4440654" lon="10.4325325"><ele>1655.0</ele><time>2026-04-26T12:54:20.365Z</time></trkpt><trkpt lat="46.4441423" lon="10.4324293"><ele>1655.0</ele><time>2026-04-26T12:54:21.358Z</time></trkpt><trkpt lat="46.4442161" lon="10.4323643"><ele>1655.0</ele><time>2026-04-26T12:54:22.36Z</time></trkpt><trkpt lat="46.4443493" lon="10.4323565"><ele>1655.0</ele><time>2026-04-26T12:54:24.359Z</time></trkpt><trkpt lat="46.4444463" lon="10.4323811"><ele>1655.0</ele><time>2026-04-26T12:54:25.364Z</time></trkpt><trkpt lat="46.4445465" lon="10.432598"><ele>1653.6</ele><time>2026-04-26T12:54:26.363Z</time></trkpt><trkpt lat="46.4446419" lon="10.4326953"><ele>1652.2</ele><time>2026-04-26T12:54:27.364Z</time></trkpt><trkpt lat="46.4447253" lon="10.4327672"><ele>1650.8000000000002</ele><time>2026-04-26T12:54:28.363Z</time></trkpt><trkpt lat="46.44481" lon="10.4328113"><ele>1649.4</ele><time>2026-04-26T12:54:29.361Z</time></trkpt><trkpt lat="46.4448953" lon="10.4328364"><ele>1648.0</ele><time>2026-04-26T12:54:30.36Z</time></trkpt><trkpt lat="46.4450081" lon="10.4328439"><ele>1648.0000000000002</ele><time>2026-04-26T12:54:31.364Z</time></trkpt><trkpt lat="46.4451272" lon="10.432858"><ele>1648.0</ele><time>2026-04-26T12:54:32.359Z</time></trkpt><trkpt lat="46.4452082" lon="10.4328504"><ele>1648.0</ele><time>2026-04-26T12:54:33.364Z</time></trkpt><trkpt lat="46.4452935" lon="10.4328397"><ele>1648.0</ele><time>2026-04-26T12:54:34.371Z</time></trkpt><trkpt lat="46.4453565" lon="10.4327709"><ele>1648.0000000000002</ele><time>2026-04-26T12:54:35.364Z</time></trkpt><trkpt lat="46.4454188" lon="10.4326909"><ele>1648.0</ele><time>2026-04-26T12:54:36.362Z</time></trkpt><trkpt lat="46.4454869" lon="10.4325893"><ele>1645.0</ele><time>2026-04-26T12:54:37.365Z</time></trkpt><trkpt lat="46.4455444" lon="10.4325032"><ele>1642.0</ele><time>2026-04-26T12:54:38.367Z</time></trkpt><trkpt lat="46.4456212" lon="10.4324695"><ele>1639.0</ele><time>2026-04-26T12:54:39.363Z</time></trkpt><trkpt lat="46.4457392" lon="10.4324358"><ele>1636.0</ele><time>2026-04-26T12:54:40.364Z</time></trkpt><trkpt lat="46.445848" lon="10.4324493"><ele>1633.0</ele><time>2026-04-26T12:54:41.364Z</time></trkpt><trkpt lat="46.4459891" lon="10.4324653"><ele>1633.0</ele><time>2026-04-26T12:54:42.359Z</time></trkpt><trkpt lat="46.4461122" lon="10.4324737"><ele>1633.0</ele><time>2026-04-26T12:54:43.359Z</time></trkpt><trkpt lat="46.4462125" lon="10.4324632"><ele>1633.0</ele><time>2026-04-26T12:54:44.371Z</time></trkpt><trkpt lat="46.446296" lon="10.4324668"><ele>1633.0</ele><time>2026-04-26T12:54:45.366Z</time></trkpt><trkpt lat="46.4463686" lon="10.4324063"><ele>1633.0</ele><time>2026-04-26T12:54:46.36Z</time></trkpt><trkpt lat="46.4464399" lon="10.4323392"><ele>1635.2</ele><time>2026-04-26T12:54:47.366Z</time></trkpt><trkpt lat="46.4465263" lon="10.4322727"><ele>1637.4</ele><time>2026-04-26T12:54:48.362Z</time></trkpt><trkpt lat="46.4466119" lon="10.4322193"><ele>1639.6000000000001</ele><time>2026-04-26T12:54:49.359Z</time></trkpt><trkpt lat="46.446697" lon="10.4321817"><ele>1641.8000000000002</ele><time>2026-04-26T12:54:50.363Z</time></trkpt><trkpt lat="46.4467757" lon="10.4320898"><ele>1644.0</ele><time>2026-04-26T12:54:51.36Z</time></trkpt><trkpt lat="46.4468703" lon="10.4319643"><ele>1644.0</ele><time>2026-04-26T12:54:52.364Z</time></trkpt><trkpt lat="46.4469748" lon="10.4318673"><ele>1644.0</ele><time>2026-04-26T12:54:53.366Z</time></trkpt><trkpt lat="46.447071" lon="10.4318078"><ele>1644.0</ele><time>2026-04-26T12:54:54.358Z</time></trkpt><trkpt lat="46.4471882" lon="10.4317539"><ele>1644.0</ele><time>2026-04-26T12:54:55.359Z</time></trkpt><trkpt lat="46.447309" lon="10.4316966"><ele>1640.0</ele><time>2026-04-26T12:54:56.359Z</time></trkpt><trkpt lat="46.4474388" lon="10.4316795"><ele>1636.0</ele><time>2026-04-26T12:54:57.368Z</time></trkpt><trkpt lat="46.4475577" lon="10.43171"><ele>1632.0</ele><time>2026-04-26T12:54:58.36Z</time></trkpt><trkpt lat="46.4476304" lon="10.4316999"><ele>1628.0</ele><time>2026-04-26T12:54:59.367Z</time></trkpt><trkpt lat="46.4477049" lon="10.4316291"><ele>1624.0</ele><time>2026-04-26T12:55:02.359Z</time></trkpt><trkpt lat="46.4477772" lon="10.4315112"><ele>1624.0</ele><time>2026-04-26T12:55:03.362Z</time></trkpt><trkpt lat="46.4478614" lon="10.4314466"><ele>1624.0</ele><time>2026-04-26T12:55:04.373Z</time></trkpt><trkpt lat="46.4479347" lon="10.4314616"><ele>1624.0</ele><time>2026-04-26T12:55:05.371Z</time></trkpt><trkpt lat="46.4480068" lon="10.4314627"><ele>1624.0</ele><time>2026-04-26T12:55:06.367Z</time></trkpt><trkpt lat="46.4480969" lon="10.4314642"><ele>1624.0</ele><time>2026-04-26T12:55:07.364Z</time></trkpt><trkpt lat="46.4482316" lon="10.4315188"><ele>1626.8333333333335</ele><time>2026-04-26T12:55:08.364Z</time></trkpt><trkpt lat="46.4483115" lon="10.4315042"><ele>1629.6666666666667</ele><time>2026-04-26T12:55:09.362Z</time></trkpt><trkpt lat="46.4484226" lon="10.4314608"><ele>1632.5</ele><time>2026-04-26T12:55:10.36Z</time></trkpt><trkpt lat="46.4485197" lon="10.4314221"><ele>1635.3333333333335</ele><time>2026-04-26T12:55:11.36Z</time></trkpt><trkpt lat="46.4485998" lon="10.4314045"><ele>1638.1666666666667</ele><time>2026-04-26T12:55:12.358Z</time></trkpt><trkpt lat="46.4486618" lon="10.4313636"><ele>1641.0</ele><time>2026-04-26T12:55:13.36Z</time></trkpt><trkpt lat="46.4487267" lon="10.4312969"><ele>1634.8</ele><time>2026-04-26T12:55:14.364Z</time></trkpt><trkpt lat="46.4488028" lon="10.4312279"><ele>1628.6</ele><time>2026-04-26T12:55:15.361Z</time></trkpt><trkpt lat="46.4489068" lon="10.431197"><ele>1622.4</ele><time>2026-04-26T12:55:16.364Z</time></trkpt><trkpt lat="46.4490172" lon="10.4311631"><ele>1616.2</ele><time>2026-04-26T12:55:17.36Z</time></trkpt><trkpt lat="46.4491032" lon="10.4311304"><ele>1610.0</ele><time>2026-04-26T12:55:18.361Z</time></trkpt><trkpt lat="46.4491794" lon="10.4310667"><ele>1609.9999999999998</ele><time>2026-04-26T12:55:19.36Z</time></trkpt><trkpt lat="46.4492422" lon="10.4309767"><ele>1610.0</ele><time>2026-04-26T12:55:20.361Z</time></trkpt><trkpt lat="46.4492948" lon="10.4308702"><ele>1610.0</ele><time>2026-04-26T12:55:21.363Z</time></trkpt><trkpt lat="46.4493513" lon="10.4308115"><ele>1610.0</ele><time>2026-04-26T12:55:22.364Z</time></trkpt><trkpt lat="46.4494035" lon="10.4307504"><ele>1609.9999999999998</ele><time>2026-04-26T12:55:23.359Z</time></trkpt><trkpt lat="46.4494745" lon="10.4306751"><ele>1610.0</ele><time>2026-04-26T12:55:24.365Z</time></trkpt><trkpt lat="46.449552" lon="10.43058"><ele>1603.25</ele><time>2026-04-26T12:55:25.361Z</time></trkpt><trkpt lat="46.4496294" lon="10.4304661"><ele>1596.5</ele><time>2026-04-26T12:55:26.367Z</time></trkpt><trkpt lat="46.4496722" lon="10.4303165"><ele>1589.75</ele><time>2026-04-26T12:55:27.362Z</time></trkpt><trkpt lat="46.4497205" lon="10.4301319"><ele>1583.0</ele><time>2026-04-26T12:55:28.366Z</time></trkpt><trkpt lat="46.4497866" lon="10.4299481"><ele>1583.0</ele><time>2026-04-26T12:55:29.363Z</time></trkpt><trkpt lat="46.4498333" lon="10.4298221"><ele>1583.0</ele><time>2026-04-26T12:55:30.36Z</time></trkpt><trkpt lat="46.4498812" lon="10.4297295"><ele>1583.0</ele><time>2026-04-26T12:55:31.359Z</time></trkpt><trkpt lat="46.4499187" lon="10.4295795"><ele>1583.0</ele><time>2026-04-26T12:55:32.359Z</time></trkpt><trkpt lat="46.4499522" lon="10.4293793"><ele>1583.0</ele><time>2026-04-26T12:55:33.361Z</time></trkpt><trkpt lat="46.4499804" lon="10.4291883"><ele>1584.8000000000002</ele><time>2026-04-26T12:55:34.365Z</time></trkpt><trkpt lat="46.450028" lon="10.4290353"><ele>1586.6</ele><time>2026-04-26T12:55:35.362Z</time></trkpt><trkpt lat="46.4500812" lon="10.428879"><ele>1588.4</ele><time>2026-04-26T12:55:36.362Z</time></trkpt><trkpt lat="46.4501722" lon="10.4287621"><ele>1590.1999999999998</ele><time>2026-04-26T12:55:38.363Z</time></trkpt><trkpt lat="46.4501967" lon="10.4286628"><ele>1592.0</ele><time>2026-04-26T12:55:39.364Z</time></trkpt><trkpt lat="46.4502305" lon="10.4284951"><ele>1593.0</ele><time>2026-04-26T12:55:40.367Z</time></trkpt><trkpt lat="46.4502669" lon="10.4283505"><ele>1594.0</ele><time>2026-04-26T12:55:41.367Z</time></trkpt><trkpt lat="46.4503003" lon="10.4282014"><ele>1595.0</ele><time>2026-04-26T12:55:42.365Z</time></trkpt><trkpt lat="46.4503377" lon="10.428052"><ele>1596.0</ele><time>2026-04-26T12:55:43.362Z</time></trkpt><trkpt lat="46.4503473" lon="10.4279016"><ele>1597.0</ele><time>2026-04-26T12:55:44.361Z</time></trkpt><trkpt lat="46.4503676" lon="10.4277574"><ele>1599.0</ele><time>2026-04-26T12:55:45.362Z</time></trkpt><trkpt lat="46.4503872" lon="10.4276293"><ele>1601.0</ele><time>2026-04-26T12:55:46.368Z</time></trkpt><trkpt lat="46.4504138" lon="10.4274842"><ele>1603.0</ele><time>2026-04-26T12:55:47.363Z</time></trkpt><trkpt lat="46.4504353" lon="10.4273409"><ele>1605.0</ele><time>2026-04-26T12:55:48.36Z</time></trkpt><trkpt lat="46.4504698" lon="10.4272057"><ele>1607.0</ele><time>2026-04-26T12:55:49.364Z</time></trkpt><trkpt lat="46.4504943" lon="10.4270875"><ele>1600.25</ele><time>2026-04-26T12:55:50.362Z</time></trkpt><trkpt lat="46.4505527" lon="10.4269849"><ele>1593.5</ele><time>2026-04-26T12:55:51.361Z</time></trkpt><trkpt lat="46.4506076" lon="10.4269078"><ele>1586.75</ele><time>2026-04-26T12:55:52.364Z</time></trkpt><trkpt lat="46.4506725" lon="10.4268273"><ele>1580.0</ele><time>2026-04-26T12:55:53.363Z</time></trkpt><trkpt lat="46.4508903" lon="10.4268428"><ele>1580.0</ele><time>2026-04-26T12:55:55.365Z</time></trkpt><trkpt lat="46.4509954" lon="10.426852"><ele>1580.0</ele><time>2026-04-26T12:55:56.36Z</time></trkpt><trkpt lat="46.4510919" lon="10.4268756"><ele>1580.0</ele><time>2026-04-26T12:55:57.363Z</time></trkpt><trkpt lat="46.4512028" lon="10.4269131"><ele>1580.0</ele><time>2026-04-26T12:55:58.358Z</time></trkpt><trkpt lat="46.4512854" lon="10.4270238"><ele>1580.0</ele><time>2026-04-26T12:55:59.367Z</time></trkpt><trkpt lat="46.4513483" lon="10.427093"><ele>1579.6</ele><time>2026-04-26T12:56:00.362Z</time></trkpt><trkpt lat="46.4514263" lon="10.4271399"><ele>1579.2</ele><time>2026-04-26T12:56:01.364Z</time></trkpt><trkpt lat="46.4515106" lon="10.4271425"><ele>1578.8000000000002</ele><time>2026-04-26T12:56:02.363Z</time></trkpt><trkpt lat="46.4516181" lon="10.4271391"><ele>1578.4</ele><time>2026-04-26T12:56:03.36Z</time></trkpt><trkpt lat="46.4517177" lon="10.4271532"><ele>1578.0</ele><time>2026-04-26T12:56:04.372Z</time></trkpt><trkpt lat="46.4518102" lon="10.4271579"><ele>1578.0</ele><time>2026-04-26T12:56:05.361Z</time></trkpt><trkpt lat="46.4518913" lon="10.4271147"><ele>1578.0</ele><time>2026-04-26T12:56:07.364Z</time></trkpt><trkpt lat="46.4519832" lon="10.4270927"><ele>1578.0</ele><time>2026-04-26T12:56:09.361Z</time></trkpt><trkpt lat="46.4520943" lon="10.4271117"><ele>1578.0</ele><time>2026-04-26T12:56:11.364Z</time></trkpt><trkpt lat="46.4522437" lon="10.4271173"><ele>1578.0</ele><time>2026-04-26T12:56:13.363Z</time></trkpt><trkpt lat="46.4523321" lon="10.427115"><ele>1576.0</ele><time>2026-04-26T12:56:14.359Z</time></trkpt><trkpt lat="46.4524538" lon="10.4271369"><ele>1574.0</ele><time>2026-04-26T12:56:15.361Z</time></trkpt><trkpt lat="46.4525548" lon="10.4271585"><ele>1572.0</ele><time>2026-04-26T12:56:16.362Z</time></trkpt><trkpt lat="46.4526442" lon="10.4271618"><ele>1570.0</ele><time>2026-04-26T12:56:17.363Z</time></trkpt><trkpt lat="46.4527104" lon="10.42716"><ele>1568.0</ele><time>2026-04-26T12:56:18.359Z</time></trkpt><trkpt lat="46.4527809" lon="10.4270777"><ele>1568.0</ele><time>2026-04-26T12:56:19.363Z</time></trkpt><trkpt lat="46.4528709" lon="10.4269779"><ele>1568.0</ele><time>2026-04-26T12:56:20.362Z</time></trkpt><trkpt lat="46.452957" lon="10.4268802"><ele>1568.0</ele><time>2026-04-26T12:56:21.367Z</time></trkpt><trkpt lat="46.4529993" lon="10.4268034"><ele>1568.0</ele><time>2026-04-26T12:56:22.366Z</time></trkpt><trkpt lat="46.4530426" lon="10.4266895"><ele>1568.0</ele><time>2026-04-26T12:56:23.361Z</time></trkpt><trkpt lat="46.453089" lon="10.4265749"><ele>1565.5</ele><time>2026-04-26T12:56:24.366Z</time></trkpt><trkpt lat="46.453091" lon="10.4263639"><ele>1563.0</ele><time>2026-04-26T12:56:25.366Z</time></trkpt><trkpt lat="46.4531014" lon="10.4261339"><ele>1560.5</ele><time>2026-04-26T12:56:26.363Z</time></trkpt><trkpt lat="46.4531045" lon="10.425937"><ele>1558.0</ele><time>2026-04-26T12:56:27.366Z</time></trkpt><trkpt lat="46.4531349" lon="10.4257955"><ele>1558.0</ele><time>2026-04-26T12:56:28.361Z</time></trkpt><trkpt lat="46.4531466" lon="10.425659"><ele>1558.0</ele><time>2026-04-26T12:56:29.361Z</time></trkpt><trkpt lat="46.4532677" lon="10.4257313"><ele>1558.0</ele><time>2026-04-26T12:56:30.362Z</time></trkpt><trkpt lat="46.4533398" lon="10.4257737"><ele>1558.0</ele><time>2026-04-26T12:56:31.362Z</time></trkpt><trkpt lat="46.4534272" lon="10.4257712"><ele>1558.0</ele><time>2026-04-26T12:56:32.36Z</time></trkpt><trkpt lat="46.4534916" lon="10.4256874"><ele>1558.0</ele><time>2026-04-26T12:56:34.367Z</time></trkpt><trkpt lat="46.4534962" lon="10.4255897"><ele>1558.0</ele><time>2026-04-26T12:56:35.359Z</time></trkpt><trkpt lat="46.4534937" lon="10.4254319"><ele>1558.0</ele><time>2026-04-26T12:56:36.365Z</time></trkpt><trkpt lat="46.4534988" lon="10.4252407"><ele>1558.0</ele><time>2026-04-26T12:56:37.362Z</time></trkpt><trkpt lat="46.4535146" lon="10.4250999"><ele>1558.0</ele><time>2026-04-26T12:56:38.36Z</time></trkpt><trkpt lat="46.4535368" lon="10.4249805"><ele>1556.6666666666667</ele><time>2026-04-26T12:56:39.363Z</time></trkpt><trkpt lat="46.4535653" lon="10.4248534"><ele>1555.3333333333335</ele><time>2026-04-26T12:56:40.356Z</time></trkpt><trkpt lat="46.45358" lon="10.4247146"><ele>1554.0</ele><time>2026-04-26T12:56:41.358Z</time></trkpt><trkpt lat="46.4535896" lon="10.4246098"><ele>1552.6666666666665</ele><time>2026-04-26T12:56:42.36Z</time></trkpt><trkpt lat="46.453648" lon="10.4244759"><ele>1551.3333333333333</ele><time>2026-04-26T12:56:44.359Z</time></trkpt><trkpt lat="46.453712" lon="10.4244229"><ele>1550.0</ele><time>2026-04-26T12:56:45.364Z</time></trkpt><trkpt lat="46.4538216" lon="10.4243738"><ele>1550.0</ele><time>2026-04-26T12:56:46.377Z</time></trkpt><trkpt lat="46.4539542" lon="10.4242721"><ele>1550.0</ele><time>2026-04-26T12:56:48.365Z</time></trkpt><trkpt lat="46.4540536" lon="10.4241297"><ele>1550.0</ele><time>2026-04-26T12:56:49.359Z</time></trkpt><trkpt lat="46.4541404" lon="10.4239714"><ele>1550.0</ele><time>2026-04-26T12:56:50.359Z</time></trkpt><trkpt lat="46.4542208" lon="10.4237975"><ele>1555.0</ele><time>2026-04-26T12:56:51.359Z</time></trkpt><trkpt lat="46.4543033" lon="10.4236448"><ele>1560.0</ele><time>2026-04-26T12:56:52.36Z</time></trkpt><trkpt lat="46.4543952" lon="10.4235104"><ele>1565.0</ele><time>2026-04-26T12:56:53.36Z</time></trkpt><trkpt lat="46.454456" lon="10.4234107"><ele>1570.0</ele><time>2026-04-26T12:56:54.359Z</time></trkpt><trkpt lat="46.4545307" lon="10.4233188"><ele>1570.0</ele><time>2026-04-26T12:56:55.36Z</time></trkpt><trkpt lat="46.4545886" lon="10.4232051"><ele>1570.0</ele><time>2026-04-26T12:56:56.364Z</time></trkpt><trkpt lat="46.4546326" lon="10.4230472"><ele>1570.0</ele><time>2026-04-26T12:56:57.359Z</time></trkpt><trkpt lat="46.4546819" lon="10.4228974"><ele>1570.0</ele><time>2026-04-26T12:56:58.36Z</time></trkpt><trkpt lat="46.4547301" lon="10.4227428"><ele>1570.0</ele><time>2026-04-26T12:56:59.361Z</time></trkpt><trkpt lat="46.4547663" lon="10.4226228"><ele>1560.75</ele><time>2026-04-26T12:57:00.362Z</time></trkpt><trkpt lat="46.4547965" lon="10.4224804"><ele>1551.5</ele><time>2026-04-26T12:57:01.361Z</time></trkpt><trkpt lat="46.4548205" lon="10.4223113"><ele>1542.25</ele><time>2026-04-26T12:57:02.368Z</time></trkpt><trkpt lat="46.4548471" lon="10.422142"><ele>1533.0</ele><time>2026-04-26T12:57:03.363Z</time></trkpt><trkpt lat="46.4548749" lon="10.421987"><ele>1533.0</ele><time>2026-04-26T12:57:04.367Z</time></trkpt><trkpt lat="46.4548904" lon="10.4218158"><ele>1533.0</ele><time>2026-04-26T12:57:05.358Z</time></trkpt><trkpt lat="46.4549053" lon="10.4216516"><ele>1533.0</ele><time>2026-04-26T12:57:06.359Z</time></trkpt><trkpt lat="46.454919" lon="10.4214615"><ele>1533.0</ele><time>2026-04-26T12:57:07.36Z</time></trkpt><trkpt lat="46.4549291" lon="10.4212699"><ele>1534.2</ele><time>2026-04-26T12:57:08.366Z</time></trkpt><trkpt lat="46.4549093" lon="10.4211328"><ele>1535.4</ele><time>2026-04-26T12:57:09.363Z</time></trkpt><trkpt lat="46.4549079" lon="10.4209887"><ele>1536.6000000000001</ele><time>2026-04-26T12:57:10.365Z</time></trkpt><trkpt lat="46.4549211" lon="10.4208785"><ele>1537.8000000000002</ele><time>2026-04-26T12:57:11.36Z</time></trkpt><trkpt lat="46.4549744" lon="10.4207991"><ele>1539.0</ele><time>2026-04-26T12:57:12.361Z</time></trkpt><trkpt lat="46.4550872" lon="10.4207069"><ele>1539.0</ele><time>2026-04-26T12:57:13.362Z</time></trkpt><trkpt lat="46.455193" lon="10.4206216"><ele>1539.0</ele><time>2026-04-26T12:57:14.361Z</time></trkpt><trkpt lat="46.4553423" lon="10.4205436"><ele>1539.0</ele><time>2026-04-26T12:57:15.362Z</time></trkpt><trkpt lat="46.4554638" lon="10.4205114"><ele>1539.0</ele><time>2026-04-26T12:57:16.364Z</time></trkpt><trkpt lat="46.4555865" lon="10.4204531"><ele>1537.0</ele><time>2026-04-26T12:57:17.361Z</time></trkpt><trkpt lat="46.4556855" lon="10.4203597"><ele>1535.0</ele><time>2026-04-26T12:57:18.366Z</time></trkpt><trkpt lat="46.4557756" lon="10.4203065"><ele>1533.0</ele><time>2026-04-26T12:57:19.363Z</time></trkpt><trkpt lat="46.4558688" lon="10.4202693"><ele>1531.0</ele><time>2026-04-26T12:57:20.365Z</time></trkpt><trkpt lat="46.4559231" lon="10.4202072"><ele>1529.0</ele><time>2026-04-26T12:57:21.365Z</time></trkpt><trkpt lat="46.4559845" lon="10.4200453"><ele>1529.0</ele><time>2026-04-26T12:57:22.364Z</time></trkpt><trkpt lat="46.4560632" lon="10.4198987"><ele>1529.0</ele><time>2026-04-26T12:57:23.366Z</time></trkpt><trkpt lat="46.4561874" lon="10.419706"><ele>1529.0</ele><time>2026-04-26T12:57:24.366Z</time></trkpt><trkpt lat="46.4562952" lon="10.4195363"><ele>1524.0</ele><time>2026-04-26T12:57:25.367Z</time></trkpt><trkpt lat="46.4563804" lon="10.419447"><ele>1519.0</ele><time>2026-04-26T12:57:26.362Z</time></trkpt><trkpt lat="46.4564534" lon="10.4193564"><ele>1514.0</ele><time>2026-04-26T12:57:27.365Z</time></trkpt><trkpt lat="46.4565373" lon="10.4192531"><ele>1509.0</ele><time>2026-04-26T12:57:28.364Z</time></trkpt><trkpt lat="46.4566027" lon="10.4191068"><ele>1504.0</ele><time>2026-04-26T12:57:29.362Z</time></trkpt><trkpt lat="46.4566978" lon="10.4189295"><ele>1505.75</ele><time>2026-04-26T12:57:30.373Z</time></trkpt><trkpt lat="46.456791" lon="10.4187644"><ele>1507.5</ele><time>2026-04-26T12:57:31.36Z</time></trkpt><trkpt lat="46.4568833" lon="10.4185968"><ele>1509.25</ele><time>2026-04-26T12:57:32.363Z</time></trkpt><trkpt lat="46.4569453" lon="10.4185068"><ele>1511.0</ele><time>2026-04-26T12:57:33.364Z</time></trkpt><trkpt lat="46.4569152" lon="10.4183527"><ele>1511.0</ele><time>2026-04-26T12:57:35.364Z</time></trkpt><trkpt lat="46.4568561" lon="10.4182194"><ele>1511.0</ele><time>2026-04-26T12:57:36.361Z</time></trkpt><trkpt lat="46.4568011" lon="10.4180989"><ele>1511.0</ele><time>2026-04-26T12:57:37.365Z</time></trkpt><trkpt lat="46.4567555" lon="10.4179935"><ele>1511.0</ele><time>2026-04-26T12:57:38.363Z</time></trkpt><trkpt lat="46.4567063" lon="10.4178812"><ele>1511.0</ele><time>2026-04-26T12:57:39.371Z</time></trkpt><trkpt lat="46.4565393" lon="10.4177786"><ele>1507.0</ele><time>2026-04-26T12:57:40.363Z</time></trkpt><trkpt lat="46.4564215" lon="10.4176333"><ele>1503.0</ele><time>2026-04-26T12:57:41.366Z</time></trkpt><trkpt lat="46.4563227" lon="10.4174673"><ele>1499.0</ele><time>2026-04-26T12:57:42.365Z</time></trkpt><trkpt lat="46.4562248" lon="10.4173073"><ele>1502.2</ele><time>2026-04-26T12:57:43.362Z</time></trkpt><trkpt lat="46.4561433" lon="10.4172174"><ele>1505.4</ele><time>2026-04-26T12:57:44.361Z</time></trkpt><trkpt lat="46.4560702" lon="10.4171209"><ele>1508.6</ele><time>2026-04-26T12:57:45.362Z</time></trkpt><trkpt lat="46.4559805" lon="10.4170301"><ele>1511.8</ele><time>2026-04-26T12:57:46.366Z</time></trkpt><trkpt lat="46.4558779" lon="10.4169176"><ele>1515.0</ele><time>2026-04-26T12:57:47.366Z</time></trkpt><trkpt lat="46.455793" lon="10.4168016"><ele>1515.0</ele><time>2026-04-26T12:57:48.359Z</time></trkpt><trkpt lat="46.4557269" lon="10.4166054"><ele>1515.0</ele><time>2026-04-26T12:57:49.368Z</time></trkpt><trkpt lat="46.4556474" lon="10.4164725"><ele>1515.0</ele><time>2026-04-26T12:57:50.364Z</time></trkpt><trkpt lat="46.4555279" lon="10.416337"><ele>1515.0</ele><time>2026-04-26T12:57:52.366Z</time></trkpt><trkpt lat="46.4554038" lon="10.4163226"><ele>1523.5</ele><time>2026-04-26T12:57:53.359Z</time></trkpt><trkpt lat="46.4552984" lon="10.4163846"><ele>1532.0</ele><time>2026-04-26T12:57:54.36Z</time></trkpt><trkpt lat="46.4551795" lon="10.4164037"><ele>1540.5</ele><time>2026-04-26T12:57:55.359Z</time></trkpt><trkpt lat="46.4550612" lon="10.4164009"><ele>1549.0</ele><time>2026-04-26T12:57:56.367Z</time></trkpt><trkpt lat="46.4549569" lon="10.4163395"><ele>1546.2</ele><time>2026-04-26T12:57:57.365Z</time></trkpt><trkpt lat="46.4548539" lon="10.4162603"><ele>1543.4</ele><time>2026-04-26T12:57:58.361Z</time></trkpt><trkpt lat="46.4547689" lon="10.4161449"><ele>1540.6</ele><time>2026-04-26T12:57:59.365Z</time></trkpt><trkpt lat="46.4546791" lon="10.4160211"><ele>1537.8</ele><time>2026-04-26T12:58:00.363Z</time></trkpt><trkpt lat="46.4547313" lon="10.4159118"><ele>1535.0</ele><time>2026-04-26T12:58:01.361Z</time></trkpt><trkpt lat="46.4547032" lon="10.4158039"><ele>1535.0</ele><time>2026-04-26T12:58:02.362Z</time></trkpt><trkpt lat="46.4547133" lon="10.4156458"><ele>1535.0</ele><time>2026-04-26T12:58:04.369Z</time></trkpt><trkpt lat="46.4547946" lon="10.4156118"><ele>1535.0</ele><time>2026-04-26T12:58:05.362Z</time></trkpt><trkpt lat="46.4549072" lon="10.4156297"><ele>1535.0</ele><time>2026-04-26T12:58:06.367Z</time></trkpt><trkpt lat="46.4549805" lon="10.4156648"><ele>1535.0</ele><time>2026-04-26T12:58:07.368Z</time></trkpt><trkpt lat="46.4550921" lon="10.4156023"><ele>1535.0</ele><time>2026-04-26T12:58:09.36Z</time></trkpt><trkpt lat="46.4552069" lon="10.415595"><ele>1535.0</ele><time>2026-04-26T12:58:10.362Z</time></trkpt><trkpt lat="46.4552892" lon="10.4155909"><ele>1535.0</ele><time>2026-04-26T12:58:11.359Z</time></trkpt><trkpt lat="46.4553966" lon="10.4155618"><ele>1535.0</ele><time>2026-04-26T12:58:12.362Z</time></trkpt><trkpt lat="46.4555279" lon="10.415529"><ele>1535.0</ele><time>2026-04-26T12:58:13.361Z</time></trkpt><trkpt lat="46.4556749" lon="10.4154768"><ele>1537.6666666666667</ele><time>2026-04-26T12:58:14.362Z</time></trkpt><trkpt lat="46.4558352" lon="10.4154076"><ele>1540.3333333333335</ele><time>2026-04-26T12:58:15.36Z</time></trkpt><trkpt lat="46.4560094" lon="10.4153239"><ele>1543.0</ele><time>2026-04-26T12:58:16.362Z</time></trkpt><trkpt lat="46.4561502" lon="10.415266"><ele>1543.0</ele><time>2026-04-26T12:58:17.361Z</time></trkpt><trkpt lat="46.4562658" lon="10.4152282"><ele>1543.0</ele><time>2026-04-26T12:58:18.361Z</time></trkpt><trkpt lat="46.4563584" lon="10.4151868"><ele>1543.0</ele><time>2026-04-26T12:58:19.358Z</time></trkpt><trkpt lat="46.4564448" lon="10.4151741"><ele>1543.0</ele><time>2026-04-26T12:58:20.361Z</time></trkpt><trkpt lat="46.4565455" lon="10.4151928"><ele>1543.0</ele><time>2026-04-26T12:58:21.364Z</time></trkpt><trkpt lat="46.4566524" lon="10.415241"><ele>1541.8000000000002</ele><time>2026-04-26T12:58:22.363Z</time></trkpt><trkpt lat="46.4567541" lon="10.4152803"><ele>1540.6</ele><time>2026-04-26T12:58:23.363Z</time></trkpt><trkpt lat="46.4568607" lon="10.4152834"><ele>1539.4</ele><time>2026-04-26T12:58:24.36Z</time></trkpt><trkpt lat="46.4569578" lon="10.4152472"><ele>1538.1999999999998</ele><time>2026-04-26T12:58:25.363Z</time></trkpt><trkpt lat="46.4570676" lon="10.4151812"><ele>1537.0</ele><time>2026-04-26T12:58:26.361Z</time></trkpt><trkpt lat="46.4571748" lon="10.4150911"><ele>1533.75</ele><time>2026-04-26T12:58:27.359Z</time></trkpt><trkpt lat="46.4572927" lon="10.414968"><ele>1530.5</ele><time>2026-04-26T12:58:28.358Z</time></trkpt><trkpt lat="46.4573957" lon="10.4148543"><ele>1527.25</ele><time>2026-04-26T12:58:29.364Z</time></trkpt><trkpt lat="46.4575008" lon="10.4147713"><ele>1524.0</ele><time>2026-04-26T12:58:30.365Z</time></trkpt><trkpt lat="46.4576041" lon="10.4146657"><ele>1527.8333333333333</ele><time>2026-04-26T12:58:31.361Z</time></trkpt><trkpt lat="46.4576915" lon="10.4145855"><ele>1531.6666666666665</ele><time>2026-04-26T12:58:32.364Z</time></trkpt><trkpt lat="46.4577481" lon="10.4145258"><ele>1535.5</ele><time>2026-04-26T12:58:33.36Z</time></trkpt><trkpt lat="46.4577923" lon="10.4143936"><ele>1539.3333333333333</ele><time>2026-04-26T12:58:35.363Z</time></trkpt><trkpt lat="46.4577676" lon="10.4142754"><ele>1543.1666666666665</ele><time>2026-04-26T12:58:36.365Z</time></trkpt><trkpt lat="46.4577455" lon="10.4141695"><ele>1547.0</ele><time>2026-04-26T12:58:37.363Z</time></trkpt><trkpt lat="46.4576465" lon="10.4140535"><ele>1547.0</ele><time>2026-04-26T12:58:38.366Z</time></trkpt><trkpt lat="46.4575607" lon="10.4139463"><ele>1547.0</ele><time>2026-04-26T12:58:39.366Z</time></trkpt><trkpt lat="46.4574585" lon="10.4137932"><ele>1547.0</ele><time>2026-04-26T12:58:40.363Z</time></trkpt><trkpt lat="46.4573802" lon="10.4136686"><ele>1547.0</ele><time>2026-04-26T12:58:41.362Z</time></trkpt><trkpt lat="46.4572825" lon="10.4135289"><ele>1547.1999999999998</ele><time>2026-04-26T12:58:42.362Z</time></trkpt><trkpt lat="46.4572055" lon="10.413409"><ele>1547.4</ele><time>2026-04-26T12:58:43.364Z</time></trkpt><trkpt lat="46.4571739" lon="10.4132961"><ele>1547.6</ele><time>2026-04-26T12:58:44.364Z</time></trkpt><trkpt lat="46.4571626" lon="10.4131648"><ele>1547.8000000000002</ele><time>2026-04-26T12:58:45.36Z</time></trkpt><trkpt lat="46.4571653" lon="10.4130186"><ele>1548.0</ele><time>2026-04-26T12:58:46.362Z</time></trkpt><trkpt lat="46.4571572" lon="10.4128731"><ele>1546.5</ele><time>2026-04-26T12:58:47.369Z</time></trkpt><trkpt lat="46.4571282" lon="10.4127392"><ele>1545.0</ele><time>2026-04-26T12:58:48.36Z</time></trkpt><trkpt lat="46.4570866" lon="10.4126187"><ele>1543.5</ele><time>2026-04-26T12:58:49.364Z</time></trkpt><trkpt lat="46.4570348" lon="10.4125076"><ele>1542.0</ele><time>2026-04-26T12:58:50.362Z</time></trkpt><trkpt lat="46.4569178" lon="10.4123011"><ele>1553.0</ele><time>2026-04-26T12:58:51.365Z</time></trkpt><trkpt lat="46.4568663" lon="10.412122"><ele>1564.0</ele><time>2026-04-26T12:58:52.361Z</time></trkpt><trkpt lat="46.4568348" lon="10.4119588"><ele>1575.0</ele><time>2026-04-26T12:58:53.363Z</time></trkpt><trkpt lat="46.4567951" lon="10.4118114"><ele>1586.0</ele><time>2026-04-26T12:58:54.36Z</time></trkpt><trkpt lat="46.4567466" lon="10.4116663"><ele>1586.0</ele><time>2026-04-26T12:58:55.365Z</time></trkpt><trkpt lat="46.4567009" lon="10.4115348"><ele>1586.0</ele><time>2026-04-26T12:58:56.366Z</time></trkpt><trkpt lat="46.4566034" lon="10.4113411"><ele>1586.0</ele><time>2026-04-26T12:58:57.363Z</time></trkpt><trkpt lat="46.456522" lon="10.4111585"><ele>1586.0</ele><time>2026-04-26T12:58:58.36Z</time></trkpt><trkpt lat="46.4564832" lon="10.4109946"><ele>1586.6</ele><time>2026-04-26T12:58:59.362Z</time></trkpt><trkpt lat="46.4564592" lon="10.4108232"><ele>1587.1999999999998</ele><time>2026-04-26T12:59:00.365Z</time></trkpt><trkpt lat="46.4564645" lon="10.4106544"><ele>1587.8000000000002</ele><time>2026-04-26T12:59:01.363Z</time></trkpt><trkpt lat="46.4564938" lon="10.4105531"><ele>1588.4</ele><time>2026-04-26T12:59:02.364Z</time></trkpt><trkpt lat="46.4565462" lon="10.4104511"><ele>1589.0</ele><time>2026-04-26T12:59:03.366Z</time></trkpt><trkpt lat="46.4567223" lon="10.4104241"><ele>1590.6</ele><time>2026-04-26T12:59:04.362Z</time></trkpt><trkpt lat="46.4568087" lon="10.4103863"><ele>1592.2</ele><time>2026-04-26T12:59:05.364Z</time></trkpt><trkpt lat="46.4569117" lon="10.4102216"><ele>1593.8</ele><time>2026-04-26T12:59:07.361Z</time></trkpt><trkpt lat="46.4569765" lon="10.4101315"><ele>1595.3999999999999</ele><time>2026-04-26T12:59:08.365Z</time></trkpt><trkpt lat="46.4569974" lon="10.4100231"><ele>1597.0</ele><time>2026-04-26T12:59:09.36Z</time></trkpt><trkpt lat="46.4570139" lon="10.4098771"><ele>1597.0</ele><time>2026-04-26T12:59:10.361Z</time></trkpt><trkpt lat="46.4570253" lon="10.4096908"><ele>1597.0</ele><time>2026-04-26T12:59:11.363Z</time></trkpt><trkpt lat="46.4570172" lon="10.4094655"><ele>1597.0</ele><time>2026-04-26T12:59:12.366Z</time></trkpt><trkpt lat="46.457015" lon="10.409257"><ele>1597.0</ele><time>2026-04-26T12:59:13.36Z</time></trkpt><trkpt lat="46.457015" lon="10.4090607"><ele>1592.0</ele><time>2026-04-26T12:59:14.36Z</time></trkpt><trkpt lat="46.4570446" lon="10.4088588"><ele>1587.0</ele><time>2026-04-26T12:59:15.366Z</time></trkpt><trkpt lat="46.4570736" lon="10.4086435"><ele>1582.0</ele><time>2026-04-26T12:59:16.373Z</time></trkpt><trkpt lat="46.4571924" lon="10.4084597"><ele>1582.0</ele><time>2026-04-26T12:59:17.366Z</time></trkpt><trkpt lat="46.4572557" lon="10.408273"><ele>1582.0</ele><time>2026-04-26T12:59:18.359Z</time></trkpt><trkpt lat="46.4573039" lon="10.4081228"><ele>1582.0</ele><time>2026-04-26T12:59:19.363Z</time></trkpt><trkpt lat="46.4573438" lon="10.4079771"><ele>1582.0</ele><time>2026-04-26T12:59:20.362Z</time></trkpt><trkpt lat="46.4573616" lon="10.4078562"><ele>1582.5</ele><time>2026-04-26T12:59:21.363Z</time></trkpt><trkpt lat="46.4573202" lon="10.4076227"><ele>1583.0</ele><time>2026-04-26T12:59:23.365Z</time></trkpt><trkpt lat="46.4572815" lon="10.4074706"><ele>1583.5</ele><time>2026-04-26T12:59:24.365Z</time></trkpt><trkpt lat="46.4572228" lon="10.4073266"><ele>1584.0</ele><time>2026-04-26T12:59:25.36Z</time></trkpt><trkpt lat="46.4571844" lon="10.407206"><ele>1582.0</ele><time>2026-04-26T12:59:26.365Z</time></trkpt><trkpt lat="46.4571772" lon="10.4070981"><ele>1580.0</ele><time>2026-04-26T12:59:27.361Z</time></trkpt><trkpt lat="46.4572227" lon="10.4070019"><ele>1578.0</ele><time>2026-04-26T12:59:28.367Z</time></trkpt><trkpt lat="46.4572029" lon="10.4068196"><ele>1576.0</ele><time>2026-04-26T12:59:30.363Z</time></trkpt><trkpt lat="46.4571579" lon="10.4066799"><ele>1574.0</ele><time>2026-04-26T12:59:31.359Z</time></trkpt><trkpt lat="46.4571148" lon="10.4065735"><ele>1579.25</ele><time>2026-04-26T12:59:32.358Z</time></trkpt><trkpt lat="46.4569466" lon="10.4064826"><ele>1584.5</ele><time>2026-04-26T12:59:34.365Z</time></trkpt><trkpt lat="46.4568549" lon="10.4064172"><ele>1589.75</ele><time>2026-04-26T12:59:35.361Z</time></trkpt><trkpt lat="46.456803" lon="10.4062617"><ele>1595.0</ele><time>2026-04-26T12:59:36.359Z</time></trkpt><trkpt lat="46.4567305" lon="10.4061096"><ele>1595.0</ele><time>2026-04-26T12:59:37.36Z</time></trkpt><trkpt lat="46.4566589" lon="10.4059891"><ele>1595.0</ele><time>2026-04-26T12:59:38.364Z</time></trkpt><trkpt lat="46.4565832" lon="10.4058679"><ele>1595.0</ele><time>2026-04-26T12:59:39.36Z</time></trkpt><trkpt lat="46.4564711" lon="10.4057603"><ele>1595.0</ele><time>2026-04-26T12:59:40.358Z</time></trkpt><trkpt lat="46.4563581" lon="10.4056165"><ele>1601.75</ele><time>2026-04-26T12:59:41.362Z</time></trkpt><trkpt lat="46.4562483" lon="10.4054771"><ele>1608.5</ele><time>2026-04-26T12:59:42.363Z</time></trkpt><trkpt lat="46.4561751" lon="10.4053464"><ele>1615.25</ele><time>2026-04-26T12:59:43.366Z</time></trkpt><trkpt lat="46.4560999" lon="10.4052105"><ele>1622.0</ele><time>2026-04-26T12:59:44.36Z</time></trkpt><trkpt lat="46.456029" lon="10.4050951"><ele>1621.9999999999998</ele><time>2026-04-26T12:59:45.359Z</time></trkpt><trkpt lat="46.455965" lon="10.4050229"><ele>1622.0</ele><time>2026-04-26T12:59:46.362Z</time></trkpt><trkpt lat="46.4559099" lon="10.4049419"><ele>1622.0</ele><time>2026-04-26T12:59:47.362Z</time></trkpt><trkpt lat="46.4558743" lon="10.404851"><ele>1622.0</ele><time>2026-04-26T12:59:48.361Z</time></trkpt><trkpt lat="46.4558373" lon="10.4047698"><ele>1621.9999999999998</ele><time>2026-04-26T12:59:49.361Z</time></trkpt><trkpt lat="46.4558016" lon="10.4046304"><ele>1622.0</ele><time>2026-04-26T12:59:51.362Z</time></trkpt><trkpt lat="46.4558012" lon="10.404519"><ele>1621.4999999999998</ele><time>2026-04-26T12:59:53.363Z</time></trkpt><trkpt lat="46.4558596" lon="10.4044187"><ele>1621.0</ele><time>2026-04-26T12:59:55.359Z</time></trkpt><trkpt lat="46.4558934" lon="10.4043185"><ele>1620.5</ele><time>2026-04-26T12:59:56.363Z</time></trkpt><trkpt lat="46.4559142" lon="10.4041794"><ele>1620.0</ele><time>2026-04-26T12:59:57.366Z</time></trkpt><trkpt lat="46.4559341" lon="10.4040304"><ele>1619.4999999999998</ele><time>2026-04-26T12:59:58.363Z</time></trkpt><trkpt lat="46.4559638" lon="10.4039283"><ele>1619.0</ele><time>2026-04-26T12:59:59.365Z</time></trkpt><trkpt lat="46.4560322" lon="10.4038154"><ele>1620.8000000000002</ele><time>2026-04-26T13:00:01.37Z</time></trkpt><trkpt lat="46.4561529" lon="10.4038035"><ele>1622.6000000000001</ele><time>2026-04-26T13:00:03.359Z</time></trkpt><trkpt lat="46.4562455" lon="10.4036821"><ele>1624.4</ele><time>2026-04-26T13:00:05.365Z</time></trkpt><trkpt lat="46.4562859" lon="10.4035928"><ele>1626.2</ele><time>2026-04-26T13:00:06.362Z</time></trkpt><trkpt lat="46.4563347" lon="10.4035038"><ele>1628.0</ele><time>2026-04-26T13:00:07.364Z</time></trkpt><trkpt lat="46.456381" lon="10.4034202"><ele>1622.2</ele><time>2026-04-26T13:00:08.359Z</time></trkpt><trkpt lat="46.4564276" lon="10.4033376"><ele>1616.4</ele><time>2026-04-26T13:00:09.363Z</time></trkpt><trkpt lat="46.4564705" lon="10.4032446"><ele>1610.6000000000001</ele><time>2026-04-26T13:00:10.364Z</time></trkpt><trkpt lat="46.4565122" lon="10.4031711"><ele>1604.8000000000002</ele><time>2026-04-26T13:00:11.366Z</time></trkpt><trkpt lat="46.4565898" lon="10.40304"><ele>1599.0</ele><time>2026-04-26T13:00:13.363Z</time></trkpt><trkpt lat="46.4566745" lon="10.4029204"><ele>1599.0</ele><time>2026-04-26T13:00:15.363Z</time></trkpt><trkpt lat="46.4567727" lon="10.4028168"><ele>1599.0</ele><time>2026-04-26T13:00:17.363Z</time></trkpt><trkpt lat="46.4568189" lon="10.4027515"><ele>1599.0</ele><time>2026-04-26T13:00:18.362Z</time></trkpt><trkpt lat="46.4568626" lon="10.4026812"><ele>1599.0</ele><time>2026-04-26T13:00:19.365Z</time></trkpt><trkpt lat="46.4569081" lon="10.402609"><ele>1599.0</ele><time>2026-04-26T13:00:20.364Z</time></trkpt><trkpt lat="46.4569511" lon="10.4025231"><ele>1599.0</ele><time>2026-04-26T13:00:21.364Z</time></trkpt><trkpt lat="46.4570013" lon="10.4024339"><ele>1599.0</ele><time>2026-04-26T13:00:22.358Z</time></trkpt><trkpt lat="46.4570459" lon="10.4023309"><ele>1599.0</ele><time>2026-04-26T13:00:23.363Z</time></trkpt><trkpt lat="46.4571034" lon="10.4022363"><ele>1599.0</ele><time>2026-04-26T13:00:24.359Z</time></trkpt><trkpt lat="46.457166" lon="10.4021603"><ele>1599.0</ele><time>2026-04-26T13:00:25.36Z</time></trkpt><trkpt lat="46.4572407" lon="10.4021083"><ele>1599.0</ele><time>2026-04-26T13:00:26.366Z</time></trkpt><trkpt lat="46.4573182" lon="10.4020742"><ele>1599.0</ele><time>2026-04-26T13:00:27.36Z</time></trkpt><trkpt lat="46.4573883" lon="10.402053"><ele>1596.4285714285713</ele><time>2026-04-26T13:00:28.36Z</time></trkpt><trkpt lat="46.4574583" lon="10.4020299"><ele>1593.857142857143</ele><time>2026-04-26T13:00:29.358Z</time></trkpt><trkpt lat="46.4575223" lon="10.4019886"><ele>1591.2857142857142</ele><time>2026-04-26T13:00:30.367Z</time></trkpt><trkpt lat="46.4575802" lon="10.4019343"><ele>1588.7142857142858</ele><time>2026-04-26T13:00:31.36Z</time></trkpt><trkpt lat="46.4576392" lon="10.4018751"><ele>1586.142857142857</ele><time>2026-04-26T13:00:32.36Z</time></trkpt><trkpt lat="46.457686" lon="10.4017891"><ele>1583.5714285714284</ele><time>2026-04-26T13:00:33.364Z</time></trkpt><trkpt lat="46.4577334" lon="10.4016961"><ele>1581.0</ele><time>2026-04-26T13:00:34.363Z</time></trkpt><trkpt lat="46.4577822" lon="10.4015994"><ele>1581.0</ele><time>2026-04-26T13:00:35.361Z</time></trkpt><trkpt lat="46.4578356" lon="10.4015001"><ele>1581.0</ele><time>2026-04-26T13:00:36.366Z</time></trkpt><trkpt lat="46.4578941" lon="10.4014062"><ele>1581.0</ele><time>2026-04-26T13:00:37.36Z</time></trkpt><trkpt lat="46.4579486" lon="10.401316"><ele>1581.0</ele><time>2026-04-26T13:00:38.362Z</time></trkpt><trkpt lat="46.4579929" lon="10.4012243"><ele>1581.0</ele><time>2026-04-26T13:00:39.363Z</time></trkpt><trkpt lat="46.4580378" lon="10.4011285"><ele>1581.0</ele><time>2026-04-26T13:00:40.367Z</time></trkpt><trkpt lat="46.4580934" lon="10.4010388"><ele>1579.0</ele><time>2026-04-26T13:00:41.366Z</time></trkpt><trkpt lat="46.4581442" lon="10.4009649"><ele>1577.0</ele><time>2026-04-26T13:00:42.365Z</time></trkpt><trkpt lat="46.4581874" lon="10.4008657"><ele>1575.0</ele><time>2026-04-26T13:00:43.362Z</time></trkpt><trkpt lat="46.4582327" lon="10.4007728"><ele>1573.0</ele><time>2026-04-26T13:00:44.36Z</time></trkpt><trkpt lat="46.4582688" lon="10.4006668"><ele>1571.0</ele><time>2026-04-26T13:00:45.362Z</time></trkpt><trkpt lat="46.4583217" lon="10.4005634"><ele>1569.0</ele><time>2026-04-26T13:00:46.367Z</time></trkpt><trkpt lat="46.4583878" lon="10.4004788"><ele>1569.0</ele><time>2026-04-26T13:00:47.366Z</time></trkpt><trkpt lat="46.4584522" lon="10.4004064"><ele>1569.0</ele><time>2026-04-26T13:00:48.358Z</time></trkpt><trkpt lat="46.4585258" lon="10.4002976"><ele>1569.0</ele><time>2026-04-26T13:00:49.364Z</time></trkpt><trkpt lat="46.4585767" lon="10.4002078"><ele>1569.0</ele><time>2026-04-26T13:00:50.367Z</time></trkpt><trkpt lat="46.458624" lon="10.4001073"><ele>1569.0</ele><time>2026-04-26T13:00:51.365Z</time></trkpt><trkpt lat="46.4586682" lon="10.3999896"><ele>1569.0</ele><time>2026-04-26T13:00:52.365Z</time></trkpt><trkpt lat="46.4587051" lon="10.3998695"><ele>1569.0</ele><time>2026-04-26T13:00:53.361Z</time></trkpt><trkpt lat="46.4587137" lon="10.3997436"><ele>1569.0</ele><time>2026-04-26T13:00:54.365Z</time></trkpt><trkpt lat="46.4586857" lon="10.3995781"><ele>1569.0</ele><time>2026-04-26T13:00:55.365Z</time></trkpt><trkpt lat="46.4586838" lon="10.3994263"><ele>1569.0</ele><time>2026-04-26T13:00:56.359Z</time></trkpt><trkpt lat="46.4586648" lon="10.3992644"><ele>1569.0</ele><time>2026-04-26T13:00:57.36Z</time></trkpt><trkpt lat="46.4586199" lon="10.3990612"><ele>1567.5</ele><time>2026-04-26T13:00:58.361Z</time></trkpt><trkpt lat="46.458608" lon="10.398877"><ele>1566.0</ele><time>2026-04-26T13:00:59.361Z</time></trkpt><trkpt lat="46.4585858" lon="10.3987165"><ele>1564.5</ele><time>2026-04-26T13:01:00.359Z</time></trkpt><trkpt lat="46.4585615" lon="10.3985712"><ele>1563.0</ele><time>2026-04-26T13:01:01.367Z</time></trkpt><trkpt lat="46.4585061" lon="10.3984113"><ele>1560.0</ele><time>2026-04-26T13:01:02.359Z</time></trkpt><trkpt lat="46.4584671" lon="10.3982748"><ele>1557.0</ele><time>2026-04-26T13:01:03.36Z</time></trkpt><trkpt lat="46.4584424" lon="10.3981412"><ele>1554.0</ele><time>2026-04-26T13:01:04.366Z</time></trkpt><trkpt lat="46.4584169" lon="10.3980243"><ele>1551.0</ele><time>2026-04-26T13:01:05.359Z</time></trkpt><trkpt lat="46.4583742" lon="10.3978928"><ele>1548.0</ele><time>2026-04-26T13:01:06.36Z</time></trkpt><trkpt lat="46.4583784" lon="10.3977823"><ele>1547.0</ele><time>2026-04-26T13:01:07.36Z</time></trkpt><trkpt lat="46.4584091" lon="10.3976604"><ele>1546.0</ele><time>2026-04-26T13:01:08.363Z</time></trkpt><trkpt lat="46.4584403" lon="10.3975321"><ele>1545.0</ele><time>2026-04-26T13:01:09.365Z</time></trkpt><trkpt lat="46.4584623" lon="10.3974044"><ele>1544.0</ele><time>2026-04-26T13:01:10.361Z</time></trkpt><trkpt lat="46.4584721" lon="10.3972957"><ele>1543.0</ele><time>2026-04-26T13:01:11.369Z</time></trkpt><trkpt lat="46.4585092" lon="10.3971203"><ele>1543.0</ele><time>2026-04-26T13:01:13.361Z</time></trkpt><trkpt lat="46.4585569" lon="10.3970135"><ele>1543.0</ele><time>2026-04-26T13:01:14.361Z</time></trkpt><trkpt lat="46.4586167" lon="10.3969021"><ele>1543.0</ele><time>2026-04-26T13:01:15.36Z</time></trkpt><trkpt lat="46.4586574" lon="10.3967482"><ele>1543.0</ele><time>2026-04-26T13:01:16.36Z</time></trkpt><trkpt lat="46.4586845" lon="10.3965691"><ele>1543.0</ele><time>2026-04-26T13:01:17.372Z</time></trkpt><trkpt lat="46.4586911" lon="10.3963625"><ele>1542.5</ele><time>2026-04-26T13:01:18.369Z</time></trkpt><trkpt lat="46.4586996" lon="10.3961486"><ele>1542.0</ele><time>2026-04-26T13:01:19.363Z</time></trkpt><trkpt lat="46.4587067" lon="10.3959483"><ele>1541.5</ele><time>2026-04-26T13:01:20.361Z</time></trkpt><trkpt lat="46.4587144" lon="10.3957608"><ele>1541.0</ele><time>2026-04-26T13:01:21.371Z</time></trkpt><trkpt lat="46.4587453" lon="10.3955813"><ele>1541.1999999999998</ele><time>2026-04-26T13:01:22.362Z</time></trkpt><trkpt lat="46.4587797" lon="10.3954189"><ele>1541.3999999999999</ele><time>2026-04-26T13:01:23.362Z</time></trkpt><trkpt lat="46.4587969" lon="10.3952874"><ele>1541.6</ele><time>2026-04-26T13:01:24.362Z</time></trkpt><trkpt lat="46.4588239" lon="10.395174"><ele>1541.8</ele><time>2026-04-26T13:01:25.364Z</time></trkpt><trkpt lat="46.4588637" lon="10.3950827"><ele>1542.0</ele><time>2026-04-26T13:01:26.359Z</time></trkpt><trkpt lat="46.4589821" lon="10.394955"><ele>1537.8333333333333</ele><time>2026-04-26T13:01:28.359Z</time></trkpt><trkpt lat="46.459042" lon="10.3948993"><ele>1533.6666666666667</ele><time>2026-04-26T13:01:29.363Z</time></trkpt><trkpt lat="46.4590965" lon="10.3948268"><ele>1529.5</ele><time>2026-04-26T13:01:30.361Z</time></trkpt><trkpt lat="46.4591653" lon="10.394763"><ele>1525.3333333333335</ele><time>2026-04-26T13:01:31.361Z</time></trkpt><trkpt lat="46.4592158" lon="10.3947074"><ele>1521.1666666666667</ele><time>2026-04-26T13:01:32.361Z</time></trkpt><trkpt lat="46.4592784" lon="10.3946351"><ele>1517.0</ele><time>2026-04-26T13:01:33.363Z</time></trkpt><trkpt lat="46.4592133" lon="10.3944182"><ele>1515.0</ele><time>2026-04-26T13:01:34.363Z</time></trkpt><trkpt lat="46.4591998" lon="10.3942415"><ele>1513.0</ele><time>2026-04-26T13:01:35.362Z</time></trkpt><trkpt lat="46.4591775" lon="10.3940718"><ele>1511.0</ele><time>2026-04-26T13:01:36.361Z</time></trkpt><trkpt lat="46.4591826" lon="10.3938912"><ele>1509.0</ele><time>2026-04-26T13:01:37.362Z</time></trkpt><trkpt lat="46.4591863" lon="10.3936999"><ele>1507.2</ele><time>2026-04-26T13:01:38.365Z</time></trkpt><trkpt lat="46.4592023" lon="10.3935335"><ele>1505.4</ele><time>2026-04-26T13:01:39.36Z</time></trkpt><trkpt lat="46.4592364" lon="10.3933794"><ele>1503.6</ele><time>2026-04-26T13:01:40.364Z</time></trkpt><trkpt lat="46.4592517" lon="10.3932202"><ele>1501.8</ele><time>2026-04-26T13:01:41.362Z</time></trkpt><trkpt lat="46.4592865" lon="10.3930682"><ele>1500.0</ele><time>2026-04-26T13:01:42.36Z</time></trkpt><trkpt lat="46.4593222" lon="10.3929282"><ele>1499.0</ele><time>2026-04-26T13:01:43.366Z</time></trkpt><trkpt lat="46.4593373" lon="10.3928151"><ele>1498.0</ele><time>2026-04-26T13:01:44.364Z</time></trkpt><trkpt lat="46.4593461" lon="10.3927086"><ele>1497.0</ele><time>2026-04-26T13:01:45.36Z</time></trkpt><trkpt lat="46.4593591" lon="10.3925951"><ele>1496.0</ele><time>2026-04-26T13:01:47.364Z</time></trkpt><trkpt lat="46.4593827" lon="10.3924926"><ele>1495.0</ele><time>2026-04-26T13:01:48.364Z</time></trkpt><trkpt lat="46.4593961" lon="10.3923554"><ele>1494.0</ele><time>2026-04-26T13:01:49.369Z</time></trkpt><trkpt lat="46.4593905" lon="10.3922011"><ele>1493.75</ele><time>2026-04-26T13:01:50.365Z</time></trkpt><trkpt lat="46.4593758" lon="10.3920456"><ele>1493.5</ele><time>2026-04-26T13:01:51.363Z</time></trkpt><trkpt lat="46.4593446" lon="10.3918457"><ele>1493.25</ele><time>2026-04-26T13:01:52.365Z</time></trkpt><trkpt lat="46.4593005" lon="10.3916327"><ele>1493.0</ele><time>2026-04-26T13:01:53.36Z</time></trkpt><trkpt lat="46.4592507" lon="10.3914298"><ele>1492.0</ele><time>2026-04-26T13:01:54.365Z</time></trkpt><trkpt lat="46.4592043" lon="10.3912359"><ele>1491.0</ele><time>2026-04-26T13:01:55.363Z</time></trkpt><trkpt lat="46.4591701" lon="10.3910887"><ele>1490.0</ele><time>2026-04-26T13:01:56.36Z</time></trkpt><trkpt lat="46.4591494" lon="10.390967"><ele>1489.0</ele><time>2026-04-26T13:01:57.362Z</time></trkpt><trkpt lat="46.4591559" lon="10.3908496"><ele>1488.0</ele><time>2026-04-26T13:01:58.361Z</time></trkpt><trkpt lat="46.459161" lon="10.3907163"><ele>1488.0</ele><time>2026-04-26T13:01:59.368Z</time></trkpt><trkpt lat="46.459173" lon="10.3905617"><ele>1488.0</ele><time>2026-04-26T13:02:00.367Z</time></trkpt><trkpt lat="46.4591834" lon="10.3904138"><ele>1488.0</ele><time>2026-04-26T13:02:01.364Z</time></trkpt><trkpt lat="46.4591897" lon="10.3902654"><ele>1488.0</ele><time>2026-04-26T13:02:02.367Z</time></trkpt><trkpt lat="46.4591784" lon="10.3901174"><ele>1488.0</ele><time>2026-04-26T13:02:03.36Z</time></trkpt><trkpt lat="46.4591481" lon="10.3899544"><ele>1487.6666666666667</ele><time>2026-04-26T13:02:04.362Z</time></trkpt><trkpt lat="46.4591244" lon="10.3898276"><ele>1487.3333333333333</ele><time>2026-04-26T13:02:05.363Z</time></trkpt><trkpt lat="46.4591323" lon="10.3897118"><ele>1487.0</ele><time>2026-04-26T13:02:06.36Z</time></trkpt><trkpt lat="46.4591653" lon="10.3896021"><ele>1486.6666666666665</ele><time>2026-04-26T13:02:07.365Z</time></trkpt><trkpt lat="46.4592152" lon="10.3894825"><ele>1486.3333333333333</ele><time>2026-04-26T13:02:08.363Z</time></trkpt><trkpt lat="46.4592575" lon="10.389363"><ele>1486.0</ele><time>2026-04-26T13:02:09.364Z</time></trkpt><trkpt lat="46.4592856" lon="10.3892545"><ele>1486.0</ele><time>2026-04-26T13:02:10.366Z</time></trkpt><trkpt lat="46.4593219" lon="10.3891767"><ele>1486.0</ele><time>2026-04-26T13:02:11.365Z</time></trkpt><trkpt lat="46.4594288" lon="10.3890922"><ele>1486.0</ele><time>2026-04-26T13:02:13.357Z</time></trkpt><trkpt lat="46.4594897" lon="10.3890635"><ele>1486.0</ele><time>2026-04-26T13:02:14.363Z</time></trkpt><trkpt lat="46.4595531" lon="10.3890161"><ele>1486.0</ele><time>2026-04-26T13:02:15.37Z</time></trkpt><trkpt lat="46.4596159" lon="10.388943"><ele>1486.0</ele><time>2026-04-26T13:02:16.36Z</time></trkpt><trkpt lat="46.459665" lon="10.3888638"><ele>1482.6</ele><time>2026-04-26T13:02:17.364Z</time></trkpt><trkpt lat="46.4596925" lon="10.3887803"><ele>1479.1999999999998</ele><time>2026-04-26T13:02:18.364Z</time></trkpt><trkpt lat="46.4597059" lon="10.3886603"><ele>1475.8000000000002</ele><time>2026-04-26T13:02:19.359Z</time></trkpt><trkpt lat="46.4597242" lon="10.3885376"><ele>1472.4</ele><time>2026-04-26T13:02:20.362Z</time></trkpt><trkpt lat="46.4597526" lon="10.3883603"><ele>1469.0</ele><time>2026-04-26T13:02:21.363Z</time></trkpt><trkpt lat="46.459787" lon="10.3881979"><ele>1469.0</ele><time>2026-04-26T13:02:22.362Z</time></trkpt><trkpt lat="46.4598085" lon="10.3880497"><ele>1469.0</ele><time>2026-04-26T13:02:23.368Z</time></trkpt><trkpt lat="46.4598192" lon="10.3878861"><ele>1469.0</ele><time>2026-04-26T13:02:24.36Z</time></trkpt><trkpt lat="46.4598137" lon="10.3877222"><ele>1469.0</ele><time>2026-04-26T13:02:25.362Z</time></trkpt><trkpt lat="46.4598318" lon="10.3875513"><ele>1471.25</ele><time>2026-04-26T13:02:26.361Z</time></trkpt><trkpt lat="46.4598485" lon="10.3873763"><ele>1473.5</ele><time>2026-04-26T13:02:27.36Z</time></trkpt><trkpt lat="46.4599041" lon="10.3872331"><ele>1475.75</ele><time>2026-04-26T13:02:28.361Z</time></trkpt><trkpt lat="46.4599324" lon="10.3870555"><ele>1478.0</ele><time>2026-04-26T13:02:29.36Z</time></trkpt><trkpt lat="46.459962" lon="10.3868561"><ele>1478.25</ele><time>2026-04-26T13:02:30.362Z</time></trkpt><trkpt lat="46.4599802" lon="10.3866443"><ele>1478.5</ele><time>2026-04-26T13:02:31.371Z</time></trkpt><trkpt lat="46.4599371" lon="10.3864251"><ele>1478.75</ele><time>2026-04-26T13:02:32.362Z</time></trkpt><trkpt lat="46.4598933" lon="10.3862551"><ele>1479.0</ele><time>2026-04-26T13:02:33.36Z</time></trkpt><trkpt lat="46.4598544" lon="10.3861048"><ele>1480.0</ele><time>2026-04-26T13:02:34.364Z</time></trkpt><trkpt lat="46.4598044" lon="10.3859441"><ele>1481.0</ele><time>2026-04-26T13:02:35.36Z</time></trkpt><trkpt lat="46.4597366" lon="10.3858328"><ele>1482.0</ele><time>2026-04-26T13:02:36.361Z</time></trkpt><trkpt lat="46.4596693" lon="10.3857193"><ele>1483.0</ele><time>2026-04-26T13:02:37.361Z</time></trkpt><trkpt lat="46.4596187" lon="10.3855583"><ele>1484.0</ele><time>2026-04-26T13:02:38.361Z</time></trkpt><trkpt lat="46.4594994" lon="10.3853619"><ele>1484.0</ele><time>2026-04-26T13:02:39.362Z</time></trkpt><trkpt lat="46.4593938" lon="10.3851592"><ele>1484.0</ele><time>2026-04-26T13:02:40.362Z</time></trkpt><trkpt lat="46.4592867" lon="10.3849775"><ele>1484.0</ele><time>2026-04-26T13:02:41.36Z</time></trkpt><trkpt lat="46.4591839" lon="10.3848401"><ele>1484.0</ele><time>2026-04-26T13:02:42.358Z</time></trkpt><trkpt lat="46.4590957" lon="10.3846987"><ele>1484.0</ele><time>2026-04-26T13:02:43.359Z</time></trkpt><trkpt lat="46.459021" lon="10.3845848"><ele>1484.0</ele><time>2026-04-26T13:02:44.363Z</time></trkpt><trkpt lat="46.4589492" lon="10.3844773"><ele>1484.0</ele><time>2026-04-26T13:02:45.362Z</time></trkpt><trkpt lat="46.4589055" lon="10.3843862"><ele>1484.0</ele><time>2026-04-26T13:02:46.37Z</time></trkpt><trkpt lat="46.4588584" lon="10.3842766"><ele>1483.8333333333335</ele><time>2026-04-26T13:02:48.365Z</time></trkpt><trkpt lat="46.4588432" lon="10.3841586"><ele>1483.6666666666667</ele><time>2026-04-26T13:02:51.362Z</time></trkpt><trkpt lat="46.4588198" lon="10.3840688"><ele>1483.5</ele><time>2026-04-26T13:02:52.372Z</time></trkpt><trkpt lat="46.4587846" lon="10.3839543"><ele>1483.3333333333333</ele><time>2026-04-26T13:02:53.36Z</time></trkpt><trkpt lat="46.458746" lon="10.3838493"><ele>1483.1666666666665</ele><time>2026-04-26T13:02:54.366Z</time></trkpt><trkpt lat="46.4587058" lon="10.3837266"><ele>1483.0</ele><time>2026-04-26T13:02:55.358Z</time></trkpt><trkpt lat="46.4586704" lon="10.3835924"><ele>1483.0</ele><time>2026-04-26T13:02:56.364Z</time></trkpt><trkpt lat="46.4586313" lon="10.3834455"><ele>1483.0</ele><time>2026-04-26T13:02:57.363Z</time></trkpt><trkpt lat="46.4585893" lon="10.3832908"><ele>1483.0</ele><time>2026-04-26T13:02:58.369Z</time></trkpt><trkpt lat="46.4585432" lon="10.3831382"><ele>1483.0</ele><time>2026-04-26T13:02:59.36Z</time></trkpt><trkpt lat="46.4584989" lon="10.382982"><ele>1479.6000000000001</ele><time>2026-04-26T13:03:00.36Z</time></trkpt><trkpt lat="46.4584498" lon="10.3828294"><ele>1476.2</ele><time>2026-04-26T13:03:01.361Z</time></trkpt><trkpt lat="46.4583973" lon="10.3827091"><ele>1472.8</ele><time>2026-04-26T13:03:02.367Z</time></trkpt><trkpt lat="46.4583581" lon="10.3825734"><ele>1469.4</ele><time>2026-04-26T13:03:03.359Z</time></trkpt><trkpt lat="46.4583048" lon="10.3824532"><ele>1466.0</ele><time>2026-04-26T13:03:04.362Z</time></trkpt><trkpt lat="46.4582645" lon="10.3823198"><ele>1466.0</ele><time>2026-04-26T13:03:05.364Z</time></trkpt><trkpt lat="46.4582223" lon="10.3821938"><ele>1466.0</ele><time>2026-04-26T13:03:06.361Z</time></trkpt><trkpt lat="46.458165" lon="10.3820956"><ele>1466.0</ele><time>2026-04-26T13:03:07.363Z</time></trkpt><trkpt lat="46.4581161" lon="10.3819938"><ele>1466.0</ele><time>2026-04-26T13:03:08.365Z</time></trkpt><trkpt lat="46.4580608" lon="10.3818795"><ele>1466.0</ele><time>2026-04-26T13:03:09.359Z</time></trkpt><trkpt lat="46.4580162" lon="10.3817603"><ele>1466.0</ele><time>2026-04-26T13:03:10.364Z</time></trkpt><trkpt lat="46.4579613" lon="10.3816284"><ele>1466.0</ele><time>2026-04-26T13:03:11.36Z</time></trkpt><trkpt lat="46.4579152" lon="10.3814927"><ele>1466.0</ele><time>2026-04-26T13:03:12.364Z</time></trkpt><trkpt lat="46.4578733" lon="10.3813713"><ele>1466.0</ele><time>2026-04-26T13:03:13.368Z</time></trkpt><trkpt lat="46.4578283" lon="10.381253"><ele>1466.0</ele><time>2026-04-26T13:03:14.361Z</time></trkpt><trkpt lat="46.4577822" lon="10.3811326"><ele>1466.0</ele><time>2026-04-26T13:03:15.363Z</time></trkpt><trkpt lat="46.4577246" lon="10.3810154"><ele>1466.0</ele><time>2026-04-26T13:03:16.361Z</time></trkpt><trkpt lat="46.4576537" lon="10.3808722"><ele>1466.0</ele><time>2026-04-26T13:03:17.365Z</time></trkpt><trkpt lat="46.4575721" lon="10.3807422"><ele>1466.0</ele><time>2026-04-26T13:03:18.365Z</time></trkpt><trkpt lat="46.4574869" lon="10.3806089"><ele>1466.5</ele><time>2026-04-26T13:03:19.363Z</time></trkpt><trkpt lat="46.4573866" lon="10.3804751"><ele>1467.0</ele><time>2026-04-26T13:03:20.361Z</time></trkpt><trkpt lat="46.4572913" lon="10.3803348"><ele>1467.5</ele><time>2026-04-26T13:03:21.362Z</time></trkpt><trkpt lat="46.4571892" lon="10.3801897"><ele>1468.0</ele><time>2026-04-26T13:03:22.364Z</time></trkpt><trkpt lat="46.4570789" lon="10.3800414"><ele>1468.0</ele><time>2026-04-26T13:03:23.364Z</time></trkpt><trkpt lat="46.4569841" lon="10.3799069"><ele>1468.0</ele><time>2026-04-26T13:03:24.365Z</time></trkpt><trkpt lat="46.4568953" lon="10.3797768"><ele>1468.0</ele><time>2026-04-26T13:03:25.367Z</time></trkpt><trkpt lat="46.4567937" lon="10.3796385"><ele>1468.0</ele><time>2026-04-26T13:03:26.365Z</time></trkpt><trkpt lat="46.4567078" lon="10.3795127"><ele>1461.0</ele><time>2026-04-26T13:03:27.361Z</time></trkpt><trkpt lat="46.4566184" lon="10.3793808"><ele>1454.0</ele><time>2026-04-26T13:03:28.363Z</time></trkpt><trkpt lat="46.4565296" lon="10.3792469"><ele>1447.0</ele><time>2026-04-26T13:03:29.365Z</time></trkpt><trkpt lat="46.4564315" lon="10.3791144"><ele>1440.0</ele><time>2026-04-26T13:03:30.368Z</time></trkpt><trkpt lat="46.4563337" lon="10.3789874"><ele>1441.5</ele><time>2026-04-26T13:03:31.363Z</time></trkpt><trkpt lat="46.4562638" lon="10.3788686"><ele>1443.0</ele><time>2026-04-26T13:03:32.362Z</time></trkpt><trkpt lat="46.4561616" lon="10.378738"><ele>1444.5</ele><time>2026-04-26T13:03:33.364Z</time></trkpt><trkpt lat="46.4561343" lon="10.3785932"><ele>1446.0</ele><time>2026-04-26T13:03:34.359Z</time></trkpt><trkpt lat="46.456114" lon="10.3784476"><ele>1446.0</ele><time>2026-04-26T13:03:35.363Z</time></trkpt><trkpt lat="46.4560652" lon="10.3783069"><ele>1446.0</ele><time>2026-04-26T13:03:36.367Z</time></trkpt><trkpt lat="46.4559972" lon="10.3781938"><ele>1446.0</ele><time>2026-04-26T13:03:37.365Z</time></trkpt><trkpt lat="46.4559144" lon="10.3780818"><ele>1446.0</ele><time>2026-04-26T13:03:38.364Z</time></trkpt><trkpt lat="46.4558096" lon="10.3780012"><ele>1446.0</ele><time>2026-04-26T13:03:39.368Z</time></trkpt><trkpt lat="46.4557544" lon="10.377934"><ele>1444.3333333333333</ele><time>2026-04-26T13:03:40.362Z</time></trkpt><trkpt lat="46.4556958" lon="10.3778611"><ele>1442.6666666666667</ele><time>2026-04-26T13:03:41.366Z</time></trkpt><trkpt lat="46.4556209" lon="10.3778166"><ele>1441.0</ele><time>2026-04-26T13:03:42.363Z</time></trkpt><trkpt lat="46.4555574" lon="10.377776"><ele>1439.3333333333335</ele><time>2026-04-26T13:03:43.362Z</time></trkpt><trkpt lat="46.4554844" lon="10.3777123"><ele>1437.6666666666667</ele><time>2026-04-26T13:03:44.362Z</time></trkpt><trkpt lat="46.4554064" lon="10.37764"><ele>1436.0</ele><time>2026-04-26T13:03:45.369Z</time></trkpt><trkpt lat="46.4553222" lon="10.3775917"><ele>1436.0</ele><time>2026-04-26T13:03:46.362Z</time></trkpt><trkpt lat="46.4552292" lon="10.3775388"><ele>1436.0</ele><time>2026-04-26T13:03:47.364Z</time></trkpt><trkpt lat="46.4551371" lon="10.3774798"><ele>1436.0</ele><time>2026-04-26T13:03:48.358Z</time></trkpt><trkpt lat="46.4550672" lon="10.3774309"><ele>1436.0</ele><time>2026-04-26T13:03:49.36Z</time></trkpt><trkpt lat="46.4549565" lon="10.3773739"><ele>1436.0</ele><time>2026-04-26T13:03:51.367Z</time></trkpt><trkpt lat="46.4548849" lon="10.3773618"><ele>1436.0</ele><time>2026-04-26T13:03:52.365Z</time></trkpt><trkpt lat="46.454788" lon="10.3774314"><ele>1436.0</ele><time>2026-04-26T13:03:54.36Z</time></trkpt><trkpt lat="46.454741" lon="10.3775736"><ele>1436.0</ele><time>2026-04-26T13:03:56.37Z</time></trkpt><trkpt lat="46.454698" lon="10.3776546"><ele>1436.0</ele><time>2026-04-26T13:03:57.368Z</time></trkpt><trkpt lat="46.4545993" lon="10.3777348"><ele>1436.0</ele><time>2026-04-26T13:03:59.357Z</time></trkpt><trkpt lat="46.4544827" lon="10.3777972"><ele>1434.3333333333335</ele><time>2026-04-26T13:04:01.359Z</time></trkpt><trkpt lat="46.4544188" lon="10.3778434"><ele>1432.6666666666667</ele><time>2026-04-26T13:04:02.36Z</time></trkpt><trkpt lat="46.4543544" lon="10.3779057"><ele>1431.0</ele><time>2026-04-26T13:04:03.359Z</time></trkpt><trkpt lat="46.4542856" lon="10.3779859"><ele>1429.3333333333333</ele><time>2026-04-26T13:04:04.365Z</time></trkpt><trkpt lat="46.4542091" lon="10.3780535"><ele>1427.6666666666665</ele><time>2026-04-26T13:04:05.362Z</time></trkpt><trkpt lat="46.4541299" lon="10.3781241"><ele>1426.0</ele><time>2026-04-26T13:04:06.36Z</time></trkpt><trkpt lat="46.4540503" lon="10.378189"><ele>1427.6666666666665</ele><time>2026-04-26T13:04:07.365Z</time></trkpt><trkpt lat="46.4539776" lon="10.37825"><ele>1429.3333333333333</ele><time>2026-04-26T13:04:08.365Z</time></trkpt><trkpt lat="46.4539019" lon="10.3782994"><ele>1431.0</ele><time>2026-04-26T13:04:09.359Z</time></trkpt><trkpt lat="46.4538264" lon="10.3783483"><ele>1432.6666666666667</ele><time>2026-04-26T13:04:10.36Z</time></trkpt><trkpt lat="46.4537627" lon="10.3783906"><ele>1434.3333333333335</ele><time>2026-04-26T13:04:11.361Z</time></trkpt><trkpt lat="46.4537015" lon="10.3784633"><ele>1436.0</ele><time>2026-04-26T13:04:13.36Z</time></trkpt><trkpt lat="46.453676" lon="10.3785607"><ele>1436.0</ele><time>2026-04-26T13:04:15.364Z</time></trkpt><trkpt lat="46.4537228" lon="10.3786949"><ele>1436.0</ele><time>2026-04-26T13:04:17.366Z</time></trkpt><trkpt lat="46.4537317" lon="10.378846"><ele>1436.0</ele><time>2026-04-26T13:04:19.364Z</time></trkpt><trkpt lat="46.4536494" lon="10.3789501"><ele>1436.0</ele><time>2026-04-26T13:04:21.363Z</time></trkpt><trkpt lat="46.4535854" lon="10.3790096"><ele>1436.0</ele><time>2026-04-26T13:04:22.37Z</time></trkpt><trkpt lat="46.4535142" lon="10.379054"><ele>1438.0</ele><time>2026-04-26T13:04:23.36Z</time></trkpt><trkpt lat="46.4534313" lon="10.3790855"><ele>1440.0</ele><time>2026-04-26T13:04:25.362Z</time></trkpt><trkpt lat="46.4533447" lon="10.3790366"><ele>1442.0</ele><time>2026-04-26T13:04:27.361Z</time></trkpt><trkpt lat="46.453282" lon="10.3789992"><ele>1444.0</ele><time>2026-04-26T13:04:28.367Z</time></trkpt><trkpt lat="46.4532195" lon="10.3789669"><ele>1446.0</ele><time>2026-04-26T13:04:29.366Z</time></trkpt><trkpt lat="46.4531583" lon="10.3789412"><ele>1448.0</ele><time>2026-04-26T13:04:30.36Z</time></trkpt><trkpt lat="46.4530968" lon="10.3789071"><ele>1450.0</ele><time>2026-04-26T13:04:31.367Z</time></trkpt><trkpt lat="46.4530337" lon="10.37887"><ele>1447.6666666666665</ele><time>2026-04-26T13:04:32.363Z</time></trkpt><trkpt lat="46.4529648" lon="10.3788337"><ele>1445.3333333333333</ele><time>2026-04-26T13:04:33.366Z</time></trkpt><trkpt lat="46.4529069" lon="10.3787924"><ele>1443.0</ele><time>2026-04-26T13:04:34.361Z</time></trkpt><trkpt lat="46.4528192" lon="10.3786958"><ele>1440.6666666666667</ele><time>2026-04-26T13:04:36.359Z</time></trkpt><trkpt lat="46.4527677" lon="10.378636"><ele>1438.3333333333335</ele><time>2026-04-26T13:04:38.364Z</time></trkpt><trkpt lat="46.4527237" lon="10.3785459"><ele>1436.0</ele><time>2026-04-26T13:04:40.365Z</time></trkpt><trkpt lat="46.4526774" lon="10.3783794"><ele>1434.5</ele><time>2026-04-26T13:04:42.375Z</time></trkpt><trkpt lat="46.4526425" lon="10.3782728"><ele>1433.0</ele><time>2026-04-26T13:04:43.367Z</time></trkpt><trkpt lat="46.452605" lon="10.3781879"><ele>1431.5</ele><time>2026-04-26T13:04:44.362Z</time></trkpt><trkpt lat="46.4525666" lon="10.3781002"><ele>1430.0</ele><time>2026-04-26T13:04:45.362Z</time></trkpt><trkpt lat="46.4525275" lon="10.3779997"><ele>1428.5</ele><time>2026-04-26T13:04:46.369Z</time></trkpt><trkpt lat="46.4524933" lon="10.3779172"><ele>1427.0</ele><time>2026-04-26T13:04:47.364Z</time></trkpt><trkpt lat="46.4524451" lon="10.3778172"><ele>1424.3333333333335</ele><time>2026-04-26T13:04:48.366Z</time></trkpt><trkpt lat="46.4524031" lon="10.3777196"><ele>1421.6666666666667</ele><time>2026-04-26T13:04:49.36Z</time></trkpt><trkpt lat="46.4523643" lon="10.3776161"><ele>1419.0</ele><time>2026-04-26T13:04:50.364Z</time></trkpt><trkpt lat="46.4523315" lon="10.3775164"><ele>1416.3333333333333</ele><time>2026-04-26T13:04:51.364Z</time></trkpt><trkpt lat="46.4523167" lon="10.3774132"><ele>1413.6666666666665</ele><time>2026-04-26T13:04:52.365Z</time></trkpt><trkpt lat="46.4523064" lon="10.3773022"><ele>1411.0</ele><time>2026-04-26T13:04:53.366Z</time></trkpt><trkpt lat="46.4522988" lon="10.3771781"><ele>1407.8</ele><time>2026-04-26T13:04:54.367Z</time></trkpt><trkpt lat="46.4522874" lon="10.3770428"><ele>1404.6</ele><time>2026-04-26T13:04:55.365Z</time></trkpt><trkpt lat="46.4522802" lon="10.3769124"><ele>1401.4</ele><time>2026-04-26T13:04:56.364Z</time></trkpt><trkpt lat="46.4522585" lon="10.376776"><ele>1398.2</ele><time>2026-04-26T13:04:57.36Z</time></trkpt><trkpt lat="46.452233" lon="10.3766388"><ele>1395.0</ele><time>2026-04-26T13:04:58.364Z</time></trkpt><trkpt lat="46.452191" lon="10.3765138"><ele>1395.0</ele><time>2026-04-26T13:04:59.363Z</time></trkpt><trkpt lat="46.4521556" lon="10.3763969"><ele>1395.0</ele><time>2026-04-26T13:05:00.365Z</time></trkpt><trkpt lat="46.452091" lon="10.3762715"><ele>1395.0</ele><time>2026-04-26T13:05:01.36Z</time></trkpt><trkpt lat="46.452007" lon="10.376159"><ele>1395.0</ele><time>2026-04-26T13:05:02.365Z</time></trkpt><trkpt lat="46.4519326" lon="10.3760372"><ele>1395.0</ele><time>2026-04-26T13:05:03.362Z</time></trkpt><trkpt lat="46.4518637" lon="10.3759322"><ele>1391.3333333333333</ele><time>2026-04-26T13:05:04.366Z</time></trkpt><trkpt lat="46.4517925" lon="10.3758311"><ele>1387.6666666666667</ele><time>2026-04-26T13:05:05.365Z</time></trkpt><trkpt lat="46.4517109" lon="10.3757471"><ele>1384.0</ele><time>2026-04-26T13:05:06.367Z</time></trkpt><trkpt lat="46.4516525" lon="10.3756523"><ele>1380.3333333333335</ele><time>2026-04-26T13:05:08.359Z</time></trkpt><trkpt lat="46.4515935" lon="10.3755776"><ele>1376.6666666666667</ele><time>2026-04-26T13:05:11.363Z</time></trkpt><trkpt lat="46.4515662" lon="10.3754676"><ele>1373.0</ele><time>2026-04-26T13:05:14.365Z</time></trkpt><trkpt lat="46.4515663" lon="10.3753645"><ele>1369.8000000000002</ele><time>2026-04-26T13:05:17.358Z</time></trkpt><trkpt lat="46.4515992" lon="10.3752333"><ele>1366.6</ele><time>2026-04-26T13:05:18.365Z</time></trkpt><trkpt lat="46.4516367" lon="10.3750175"><ele>1363.4</ele><time>2026-04-26T13:05:19.364Z</time></trkpt><trkpt lat="46.4516754" lon="10.3749312"><ele>1360.1999999999998</ele><time>2026-04-26T13:05:20.355Z</time></trkpt><trkpt lat="46.4517264" lon="10.3748434"><ele>1357.0</ele><time>2026-04-26T13:05:21.356Z</time></trkpt><trkpt lat="46.4517851" lon="10.3747708"><ele>1357.0</ele><time>2026-04-26T13:05:22.363Z</time></trkpt><trkpt lat="46.4518518" lon="10.3747026"><ele>1357.0</ele><time>2026-04-26T13:05:23.363Z</time></trkpt><trkpt lat="46.4519205" lon="10.3746515"><ele>1357.0</ele><time>2026-04-26T13:05:24.361Z</time></trkpt><trkpt lat="46.4519983" lon="10.3746081"><ele>1357.0</ele><time>2026-04-26T13:05:25.358Z</time></trkpt><trkpt lat="46.452079" lon="10.3745718"><ele>1357.0</ele><time>2026-04-26T13:05:26.362Z</time></trkpt><trkpt lat="46.4521617" lon="10.3745171"><ele>1357.0</ele><time>2026-04-26T13:05:27.37Z</time></trkpt><trkpt lat="46.4522346" lon="10.3744735"><ele>1354.3333333333333</ele><time>2026-04-26T13:05:28.359Z</time></trkpt><trkpt lat="46.4523015" lon="10.3744364"><ele>1351.6666666666665</ele><time>2026-04-26T13:05:29.36Z</time></trkpt><trkpt lat="46.45241" lon="10.3743915"><ele>1349.0</ele><time>2026-04-26T13:05:31.358Z</time></trkpt><trkpt lat="46.4524968" lon="10.3743468"><ele>1346.3333333333333</ele><time>2026-04-26T13:05:33.361Z</time></trkpt><trkpt lat="46.4525147" lon="10.3742337"><ele>1343.6666666666667</ele><time>2026-04-26T13:05:35.365Z</time></trkpt><trkpt lat="46.4525337" lon="10.3741409"><ele>1341.0</ele><time>2026-04-26T13:05:37.365Z</time></trkpt><trkpt lat="46.4525456" lon="10.3740458"><ele>1341.0</ele><time>2026-04-26T13:05:40.361Z</time></trkpt><trkpt lat="46.4525494" lon="10.3739331"><ele>1341.0</ele><time>2026-04-26T13:05:45.359Z</time></trkpt><trkpt lat="46.4525469" lon="10.3738132"><ele>1341.0</ele><time>2026-04-26T13:05:47.36Z</time></trkpt><trkpt lat="46.4525258" lon="10.3736977"><ele>1341.0</ele><time>2026-04-26T13:05:49.361Z</time></trkpt><trkpt lat="46.4524655" lon="10.3736274"><ele>1341.0</ele><time>2026-04-26T13:05:51.359Z</time></trkpt><trkpt lat="46.4523644" lon="10.3736244"><ele>1341.0</ele><time>2026-04-26T13:05:53.36Z</time></trkpt><trkpt lat="46.4522645" lon="10.3736887"><ele>1339.0</ele><time>2026-04-26T13:05:54.359Z</time></trkpt><trkpt lat="46.4521442" lon="10.3736491"><ele>1337.0</ele><time>2026-04-26T13:05:56.364Z</time></trkpt><trkpt lat="46.4520854" lon="10.373608"><ele>1335.0</ele><time>2026-04-26T13:05:57.363Z</time></trkpt><trkpt lat="46.4520165" lon="10.3735642"><ele>1333.0</ele><time>2026-04-26T13:05:58.36Z</time></trkpt><trkpt lat="46.451902" lon="10.3734863"><ele>1331.0</ele><time>2026-04-26T13:06:00.363Z</time></trkpt><trkpt lat="46.4518434" lon="10.3734503"><ele>1330.0</ele><time>2026-04-26T13:06:01.359Z</time></trkpt><trkpt lat="46.4517696" lon="10.3734462"><ele>1329.0</ele><time>2026-04-26T13:06:02.367Z</time></trkpt><trkpt lat="46.4517022" lon="10.3734583"><ele>1328.0</ele><time>2026-04-26T13:06:03.362Z</time></trkpt><trkpt lat="46.4516465" lon="10.3735019"><ele>1327.0</ele><time>2026-04-26T13:06:04.362Z</time></trkpt><trkpt lat="46.4515821" lon="10.3735428"><ele>1326.0</ele><time>2026-04-26T13:06:05.365Z</time></trkpt><trkpt lat="46.4515153" lon="10.3735695"><ele>1325.0</ele><time>2026-04-26T13:06:06.363Z</time></trkpt><trkpt lat="46.4514479" lon="10.373567"><ele>1324.0</ele><time>2026-04-26T13:06:07.363Z</time></trkpt><trkpt lat="46.4513833" lon="10.373573"><ele>1324.0</ele><time>2026-04-26T13:06:08.36Z</time></trkpt><trkpt lat="46.4513065" lon="10.3735521"><ele>1324.0</ele><time>2026-04-26T13:06:09.364Z</time></trkpt><trkpt lat="46.4512288" lon="10.3735337"><ele>1324.0</ele><time>2026-04-26T13:06:10.36Z</time></trkpt><trkpt lat="46.4511493" lon="10.3735013"><ele>1324.0</ele><time>2026-04-26T13:06:11.359Z</time></trkpt><trkpt lat="46.451018" lon="10.3734667"><ele>1324.0</ele><time>2026-04-26T13:06:13.365Z</time></trkpt><trkpt lat="46.450941" lon="10.3734706"><ele>1323.5</ele><time>2026-04-26T13:06:14.362Z</time></trkpt><trkpt lat="46.4508603" lon="10.3734894"><ele>1323.0</ele><time>2026-04-26T13:06:15.362Z</time></trkpt><trkpt lat="46.4507753" lon="10.3735223"><ele>1322.5</ele><time>2026-04-26T13:06:16.363Z</time></trkpt><trkpt lat="46.4506992" lon="10.3735656"><ele>1322.0</ele><time>2026-04-26T13:06:17.365Z</time></trkpt><trkpt lat="46.4506427" lon="10.3736167"><ele>1321.5</ele><time>2026-04-26T13:06:18.362Z</time></trkpt><trkpt lat="46.4505758" lon="10.3736294"><ele>1321.0</ele><time>2026-04-26T13:06:19.363Z</time></trkpt><trkpt lat="46.4505103" lon="10.3736138"><ele>1323.4</ele><time>2026-04-26T13:06:20.364Z</time></trkpt><trkpt lat="46.4504377" lon="10.3735387"><ele>1325.8</ele><time>2026-04-26T13:06:21.36Z</time></trkpt><trkpt lat="46.4503721" lon="10.3734767"><ele>1328.2</ele><time>2026-04-26T13:06:22.364Z</time></trkpt><trkpt lat="46.4502728" lon="10.3733333"><ele>1330.6000000000001</ele><time>2026-04-26T13:06:23.364Z</time></trkpt><trkpt lat="46.4501825" lon="10.373215"><ele>1333.0</ele><time>2026-04-26T13:06:24.363Z</time></trkpt><trkpt lat="46.4500765" lon="10.3731159"><ele>1326.25</ele><time>2026-04-26T13:06:25.364Z</time></trkpt><trkpt lat="46.4499631" lon="10.3730172"><ele>1319.5</ele><time>2026-04-26T13:06:26.361Z</time></trkpt><trkpt lat="46.4498537" lon="10.3729236"><ele>1312.75</ele><time>2026-04-26T13:06:27.364Z</time></trkpt><trkpt lat="46.4497502" lon="10.3728337"><ele>1306.0</ele><time>2026-04-26T13:06:28.361Z</time></trkpt><trkpt lat="46.449642" lon="10.3727438"><ele>1314.25</ele><time>2026-04-26T13:06:29.36Z</time></trkpt><trkpt lat="46.4495354" lon="10.3726626"><ele>1322.5</ele><time>2026-04-26T13:06:30.369Z</time></trkpt><trkpt lat="46.4494268" lon="10.3725838"><ele>1330.75</ele><time>2026-04-26T13:06:31.366Z</time></trkpt><trkpt lat="46.4493171" lon="10.3725104"><ele>1339.0</ele><time>2026-04-26T13:06:32.364Z</time></trkpt><trkpt lat="46.4492141" lon="10.3724327"><ele>1339.0</ele><time>2026-04-26T13:06:33.36Z</time></trkpt><trkpt lat="46.4491158" lon="10.3723569"><ele>1339.0</ele><time>2026-04-26T13:06:34.362Z</time></trkpt><trkpt lat="46.4490207" lon="10.3722735"><ele>1339.0</ele><time>2026-04-26T13:06:35.365Z</time></trkpt><trkpt lat="46.4489303" lon="10.3721826"><ele>1339.0</ele><time>2026-04-26T13:06:36.361Z</time></trkpt><trkpt lat="46.4488416" lon="10.3720826"><ele>1339.0</ele><time>2026-04-26T13:06:37.358Z</time></trkpt><trkpt lat="46.448743" lon="10.3719873"><ele>1340.2</ele><time>2026-04-26T13:06:38.361Z</time></trkpt><trkpt lat="46.4486468" lon="10.3718955"><ele>1341.4</ele><time>2026-04-26T13:06:39.366Z</time></trkpt><trkpt lat="46.4485579" lon="10.3717916"><ele>1342.6</ele><time>2026-04-26T13:06:40.361Z</time></trkpt><trkpt lat="46.4484915" lon="10.3716643"><ele>1343.8</ele><time>2026-04-26T13:06:41.363Z</time></trkpt><trkpt lat="46.4484239" lon="10.3715491"><ele>1345.0</ele><time>2026-04-26T13:06:42.362Z</time></trkpt><trkpt lat="46.4483496" lon="10.3714309"><ele>1345.6</ele><time>2026-04-26T13:06:43.358Z</time></trkpt><trkpt lat="46.4482613" lon="10.371321"><ele>1346.2</ele><time>2026-04-26T13:06:44.361Z</time></trkpt><trkpt lat="46.4481707" lon="10.3712235"><ele>1346.8000000000002</ele><time>2026-04-26T13:06:45.366Z</time></trkpt><trkpt lat="46.4480781" lon="10.3711365"><ele>1347.4</ele><time>2026-04-26T13:06:46.361Z</time></trkpt><trkpt lat="46.4479836" lon="10.3710634"><ele>1348.0</ele><time>2026-04-26T13:06:47.361Z</time></trkpt><trkpt lat="46.4478959" lon="10.3710047"><ele>1348.0</ele><time>2026-04-26T13:06:48.362Z</time></trkpt><trkpt lat="46.4478175" lon="10.3709589"><ele>1348.0</ele><time>2026-04-26T13:06:49.36Z</time></trkpt><trkpt lat="46.4477434" lon="10.3709158"><ele>1348.0</ele><time>2026-04-26T13:06:50.363Z</time></trkpt><trkpt lat="46.4476611" lon="10.3708672"><ele>1348.0</ele><time>2026-04-26T13:06:51.357Z</time></trkpt><trkpt lat="46.447581" lon="10.3708086"><ele>1348.0</ele><time>2026-04-26T13:06:52.363Z</time></trkpt><trkpt lat="46.4475026" lon="10.3707081"><ele>1348.0</ele><time>2026-04-26T13:06:53.362Z</time></trkpt><trkpt lat="46.4474321" lon="10.3705905"><ele>1348.0</ele><time>2026-04-26T13:06:54.358Z</time></trkpt><trkpt lat="46.4473531" lon="10.3704712"><ele>1348.0</ele><time>2026-04-26T13:06:55.361Z</time></trkpt><trkpt lat="46.4472687" lon="10.3703746"><ele>1348.0</ele><time>2026-04-26T13:06:56.359Z</time></trkpt><trkpt lat="46.447163" lon="10.3702987"><ele>1348.0</ele><time>2026-04-26T13:06:57.36Z</time></trkpt><trkpt lat="46.4470471" lon="10.370252"><ele>1348.0</ele><time>2026-04-26T13:06:58.362Z</time></trkpt><trkpt lat="46.4469258" lon="10.37021"><ele>1348.0</ele><time>2026-04-26T13:06:59.359Z</time></trkpt><trkpt lat="46.4468061" lon="10.3701709"><ele>1348.0</ele><time>2026-04-26T13:07:00.363Z</time></trkpt><trkpt lat="46.4466971" lon="10.3701036"><ele>1348.0</ele><time>2026-04-26T13:07:01.357Z</time></trkpt><trkpt lat="46.4465884" lon="10.3700286"><ele>1348.0</ele><time>2026-04-26T13:07:02.36Z</time></trkpt><trkpt lat="46.4464706" lon="10.3699722"><ele>1348.0</ele><time>2026-04-26T13:07:03.359Z</time></trkpt><trkpt lat="46.4463453" lon="10.3699319"><ele>1348.0</ele><time>2026-04-26T13:07:04.359Z</time></trkpt><trkpt lat="46.4462183" lon="10.3699049"><ele>1348.0</ele><time>2026-04-26T13:07:05.358Z</time></trkpt><trkpt lat="46.4460955" lon="10.3698895"><ele>1351.5</ele><time>2026-04-26T13:07:06.36Z</time></trkpt><trkpt lat="46.4459707" lon="10.3698923"><ele>1355.0</ele><time>2026-04-26T13:07:07.359Z</time></trkpt><trkpt lat="46.4458462" lon="10.3699197"><ele>1358.5</ele><time>2026-04-26T13:07:08.359Z</time></trkpt><trkpt lat="46.4457207" lon="10.3699614"><ele>1362.0</ele><time>2026-04-26T13:07:09.36Z</time></trkpt><trkpt lat="46.4456013" lon="10.3700101"><ele>1362.0</ele><time>2026-04-26T13:07:10.359Z</time></trkpt><trkpt lat="46.4454854" lon="10.3700654"><ele>1362.0</ele><time>2026-04-26T13:07:11.36Z</time></trkpt><trkpt lat="46.4453689" lon="10.3701186"><ele>1362.0</ele><time>2026-04-26T13:07:12.361Z</time></trkpt><trkpt lat="46.4452541" lon="10.3701727"><ele>1362.0</ele><time>2026-04-26T13:07:13.362Z</time></trkpt><trkpt lat="46.4451413" lon="10.3702285"><ele>1362.8</ele><time>2026-04-26T13:07:14.372Z</time></trkpt><trkpt lat="46.4450347" lon="10.3702714"><ele>1363.6</ele><time>2026-04-26T13:07:15.363Z</time></trkpt><trkpt lat="46.4449412" lon="10.3703223"><ele>1364.3999999999999</ele><time>2026-04-26T13:07:16.369Z</time></trkpt><trkpt lat="46.4448593" lon="10.3703959"><ele>1365.1999999999998</ele><time>2026-04-26T13:07:17.358Z</time></trkpt><trkpt lat="46.4447797" lon="10.3705027"><ele>1366.0</ele><time>2026-04-26T13:07:18.36Z</time></trkpt><trkpt lat="46.4447013" lon="10.3706196"><ele>1370.6666666666665</ele><time>2026-04-26T13:07:19.358Z</time></trkpt><trkpt lat="46.4446323" lon="10.3707026"><ele>1375.3333333333333</ele><time>2026-04-26T13:07:20.362Z</time></trkpt><trkpt lat="46.4445631" lon="10.3707512"><ele>1380.0</ele><time>2026-04-26T13:07:21.364Z</time></trkpt><trkpt lat="46.4444946" lon="10.3707882"><ele>1384.6666666666667</ele><time>2026-04-26T13:07:22.359Z</time></trkpt><trkpt lat="46.444379" lon="10.3707084"><ele>1389.3333333333335</ele><time>2026-04-26T13:07:24.368Z</time></trkpt><trkpt lat="46.444313" lon="10.3706428"><ele>1394.0</ele><time>2026-04-26T13:07:25.365Z</time></trkpt><trkpt lat="46.4442345" lon="10.37058"><ele>1395.4</ele><time>2026-04-26T13:07:26.36Z</time></trkpt><trkpt lat="46.4441503" lon="10.3705389"><ele>1396.8000000000002</ele><time>2026-04-26T13:07:27.361Z</time></trkpt><trkpt lat="46.4440541" lon="10.3705117"><ele>1398.1999999999998</ele><time>2026-04-26T13:07:28.36Z</time></trkpt><trkpt lat="46.4439639" lon="10.3705004"><ele>1399.6</ele><time>2026-04-26T13:07:29.363Z</time></trkpt><trkpt lat="46.4438836" lon="10.3704921"><ele>1401.0</ele><time>2026-04-26T13:07:30.361Z</time></trkpt><trkpt lat="46.4437696" lon="10.3704969"><ele>1402.0</ele><time>2026-04-26T13:07:32.362Z</time></trkpt><trkpt lat="46.4436693" lon="10.370543"><ele>1403.0</ele><time>2026-04-26T13:07:34.361Z</time></trkpt><trkpt lat="46.4436067" lon="10.3705853"><ele>1404.0</ele><time>2026-04-26T13:07:35.366Z</time></trkpt><trkpt lat="46.4435323" lon="10.37064"><ele>1405.0</ele><time>2026-04-26T13:07:36.362Z</time></trkpt><trkpt lat="46.4434422" lon="10.3706997"><ele>1406.0</ele><time>2026-04-26T13:07:37.364Z</time></trkpt><trkpt lat="46.4433428" lon="10.3707555"><ele>1406.0</ele><time>2026-04-26T13:07:38.359Z</time></trkpt><trkpt lat="46.4432265" lon="10.3708126"><ele>1406.0</ele><time>2026-04-26T13:07:39.362Z</time></trkpt><trkpt lat="46.4431069" lon="10.3708684"><ele>1406.0</ele><time>2026-04-26T13:07:40.363Z</time></trkpt><trkpt lat="46.442997" lon="10.3709078"><ele>1406.0</ele><time>2026-04-26T13:07:41.364Z</time></trkpt><trkpt lat="46.4428941" lon="10.3709466"><ele>1406.0</ele><time>2026-04-26T13:07:42.364Z</time></trkpt><trkpt lat="46.4427852" lon="10.3709724"><ele>1406.0</ele><time>2026-04-26T13:07:43.36Z</time></trkpt><trkpt lat="46.4426838" lon="10.3709963"><ele>1406.0</ele><time>2026-04-26T13:07:44.363Z</time></trkpt><trkpt lat="46.4425969" lon="10.3710051"><ele>1406.0</ele><time>2026-04-26T13:07:45.363Z</time></trkpt><trkpt lat="46.4425237" lon="10.3710237"><ele>1406.0</ele><time>2026-04-26T13:07:46.364Z</time></trkpt><trkpt lat="46.4424518" lon="10.3710233"><ele>1406.0</ele><time>2026-04-26T13:07:47.362Z</time></trkpt><trkpt lat="46.4423764" lon="10.3709876"><ele>1406.0</ele><time>2026-04-26T13:07:48.371Z</time></trkpt><trkpt lat="46.4423181" lon="10.3709343"><ele>1406.0</ele><time>2026-04-26T13:07:49.365Z</time></trkpt><trkpt lat="46.4422546" lon="10.3709066"><ele>1406.0</ele><time>2026-04-26T13:07:50.361Z</time></trkpt><trkpt lat="46.4421822" lon="10.37089"><ele>1406.0</ele><time>2026-04-26T13:07:51.366Z</time></trkpt><trkpt lat="46.4421178" lon="10.3708714"><ele>1406.0</ele><time>2026-04-26T13:07:52.361Z</time></trkpt><trkpt lat="46.4420091" lon="10.3708092"><ele>1406.0</ele><time>2026-04-26T13:07:54.367Z</time></trkpt><trkpt lat="46.4418744" lon="10.3708539"><ele>1408.1999999999998</ele><time>2026-04-26T13:07:56.361Z</time></trkpt><trkpt lat="46.4417775" lon="10.3708769"><ele>1410.3999999999999</ele><time>2026-04-26T13:07:57.365Z</time></trkpt><trkpt lat="46.4416649" lon="10.370906"><ele>1412.6</ele><time>2026-04-26T13:07:58.365Z</time></trkpt><trkpt lat="46.441564" lon="10.3709423"><ele>1414.8</ele><time>2026-04-26T13:07:59.366Z</time></trkpt><trkpt lat="46.4414568" lon="10.3710061"><ele>1417.0</ele><time>2026-04-26T13:08:00.367Z</time></trkpt><trkpt lat="46.4413403" lon="10.3710856"><ele>1425.0</ele><time>2026-04-26T13:08:01.364Z</time></trkpt><trkpt lat="46.4412181" lon="10.3711785"><ele>1433.0</ele><time>2026-04-26T13:08:02.366Z</time></trkpt><trkpt lat="46.4411" lon="10.371265"><ele>1441.0</ele><time>2026-04-26T13:08:03.363Z</time></trkpt><trkpt lat="46.4410066" lon="10.3713378"><ele>1449.0</ele><time>2026-04-26T13:08:04.358Z</time></trkpt><trkpt lat="46.4409369" lon="10.3713778"><ele>1449.0</ele><time>2026-04-26T13:08:05.366Z</time></trkpt><trkpt lat="46.4408773" lon="10.37142"><ele>1449.0</ele><time>2026-04-26T13:08:06.361Z</time></trkpt><trkpt lat="46.4408129" lon="10.371429"><ele>1449.0</ele><time>2026-04-26T13:08:08.362Z</time></trkpt><trkpt lat="46.4407775" lon="10.3713069"><ele>1449.0</ele><time>2026-04-26T13:08:10.361Z</time></trkpt><trkpt lat="46.4407833" lon="10.3711932"><ele>1449.0</ele><time>2026-04-26T13:08:11.366Z</time></trkpt><trkpt lat="46.4408029" lon="10.3711012"><ele>1449.0</ele><time>2026-04-26T13:08:12.365Z</time></trkpt><trkpt lat="46.4408536" lon="10.370913"><ele>1449.0</ele><time>2026-04-26T13:08:14.36Z</time></trkpt><trkpt lat="46.4409051" lon="10.3707827"><ele>1449.0</ele><time>2026-04-26T13:08:15.363Z</time></trkpt><trkpt lat="46.4409448" lon="10.3706585"><ele>1449.0</ele><time>2026-04-26T13:08:16.366Z</time></trkpt><trkpt lat="46.4409696" lon="10.370518"><ele>1449.0</ele><time>2026-04-26T13:08:17.362Z</time></trkpt><trkpt lat="46.4409838" lon="10.3704004"><ele>1449.0</ele><time>2026-04-26T13:08:18.362Z</time></trkpt><trkpt lat="46.4410054" lon="10.3702474"><ele>1448.5</ele><time>2026-04-26T13:08:20.365Z</time></trkpt><trkpt lat="46.4409903" lon="10.3701477"><ele>1448.0</ele><time>2026-04-26T13:08:21.358Z</time></trkpt><trkpt lat="46.4410331" lon="10.3699888"><ele>1447.5</ele><time>2026-04-26T13:08:23.359Z</time></trkpt><trkpt lat="46.4410456" lon="10.369857"><ele>1447.0</ele><time>2026-04-26T13:08:25.372Z</time></trkpt><trkpt lat="46.4410141" lon="10.3697777"><ele>1446.5</ele><time>2026-04-26T13:08:26.367Z</time></trkpt><trkpt lat="46.440971" lon="10.3696757"><ele>1446.0</ele><time>2026-04-26T13:08:27.366Z</time></trkpt><trkpt lat="46.4409354" lon="10.3695853"><ele>1446.0</ele><time>2026-04-26T13:08:28.37Z</time></trkpt><trkpt lat="46.4408516" lon="10.3695035"><ele>1446.0</ele><time>2026-04-26T13:08:30.361Z</time></trkpt><trkpt lat="46.4408012" lon="10.3696219"><ele>1446.0</ele><time>2026-04-26T13:08:33.366Z</time></trkpt><trkpt lat="46.4407899" lon="10.3698232"><ele>1446.0</ele><time>2026-04-26T13:08:35.367Z</time></trkpt><trkpt lat="46.4407716" lon="10.3699629"><ele>1446.0</ele><time>2026-04-26T13:08:36.362Z</time></trkpt><trkpt lat="46.4407514" lon="10.3701188"><ele>1446.0</ele><time>2026-04-26T13:08:37.362Z</time></trkpt><trkpt lat="46.4407378" lon="10.3702362"><ele>1446.0</ele><time>2026-04-26T13:08:38.362Z</time></trkpt><trkpt lat="46.4406965" lon="10.3703373"><ele>1446.0</ele><time>2026-04-26T13:08:40.359Z</time></trkpt><trkpt lat="46.4406149" lon="10.3702737"><ele>1446.0</ele><time>2026-04-26T13:08:43.361Z</time></trkpt><trkpt lat="46.4405659" lon="10.3701814"><ele>1446.0</ele><time>2026-04-26T13:08:44.367Z</time></trkpt><trkpt lat="46.440514" lon="10.3701259"><ele>1446.0</ele><time>2026-04-26T13:08:45.37Z</time></trkpt><trkpt lat="46.440432" lon="10.3701548"><ele>1448.0</ele><time>2026-04-26T13:08:47.357Z</time></trkpt><trkpt lat="46.4404144" lon="10.3703623"><ele>1450.0</ele><time>2026-04-26T13:08:49.365Z</time></trkpt><trkpt lat="46.4404067" lon="10.3704767"><ele>1452.0</ele><time>2026-04-26T13:08:50.361Z</time></trkpt><trkpt lat="46.4403838" lon="10.3705642"><ele>1454.0</ele><time>2026-04-26T13:08:51.358Z</time></trkpt><trkpt lat="46.4403411" lon="10.3706382"><ele>1456.0</ele><time>2026-04-26T13:08:52.363Z</time></trkpt><trkpt lat="46.4402905" lon="10.3706928"><ele>1458.0</ele><time>2026-04-26T13:08:53.36Z</time></trkpt><trkpt lat="46.440218" lon="10.3707322"><ele>1460.4</ele><time>2026-04-26T13:08:54.369Z</time></trkpt><trkpt lat="46.4401291" lon="10.3708048"><ele>1462.8000000000002</ele><time>2026-04-26T13:08:55.369Z</time></trkpt><trkpt lat="46.4400453" lon="10.3709079"><ele>1465.2</ele><time>2026-04-26T13:08:56.362Z</time></trkpt><trkpt lat="46.4399684" lon="10.3710062"><ele>1467.6</ele><time>2026-04-26T13:08:57.363Z</time></trkpt><trkpt lat="46.4398898" lon="10.3710809"><ele>1470.0</ele><time>2026-04-26T13:08:58.362Z</time></trkpt><trkpt lat="46.4398255" lon="10.3711292"><ele>1470.0</ele><time>2026-04-26T13:08:59.36Z</time></trkpt><trkpt lat="46.4397721" lon="10.3711837"><ele>1470.0</ele><time>2026-04-26T13:09:00.359Z</time></trkpt><trkpt lat="46.4397494" lon="10.3713057"><ele>1470.0</ele><time>2026-04-26T13:09:02.362Z</time></trkpt><trkpt lat="46.439811" lon="10.3714052"><ele>1470.0</ele><time>2026-04-26T13:09:04.364Z</time></trkpt><trkpt lat="46.4398453" lon="10.3715021"><ele>1470.0</ele><time>2026-04-26T13:09:06.364Z</time></trkpt><trkpt lat="46.4398707" lon="10.3715982"><ele>1470.0</ele><time>2026-04-26T13:09:09.364Z</time></trkpt><trkpt lat="46.439911" lon="10.3717436"><ele>1472.1666666666667</ele><time>2026-04-26T13:09:11.363Z</time></trkpt><trkpt lat="46.439937" lon="10.3718903"><ele>1474.3333333333333</ele><time>2026-04-26T13:09:12.362Z</time></trkpt><trkpt lat="46.4398635" lon="10.3719285"><ele>1476.5</ele><time>2026-04-26T13:09:14.363Z</time></trkpt><trkpt lat="46.4397968" lon="10.3718877"><ele>1478.6666666666665</ele><time>2026-04-26T13:09:15.364Z</time></trkpt><trkpt lat="46.4397158" lon="10.3718324"><ele>1480.8333333333333</ele><time>2026-04-26T13:09:16.361Z</time></trkpt><trkpt lat="46.439625" lon="10.371777"><ele>1483.0</ele><time>2026-04-26T13:09:17.366Z</time></trkpt><trkpt lat="46.4395473" lon="10.3717359"><ele>1486.6000000000001</ele><time>2026-04-26T13:09:18.364Z</time></trkpt><trkpt lat="46.4394631" lon="10.3716994"><ele>1490.2</ele><time>2026-04-26T13:09:19.361Z</time></trkpt><trkpt lat="46.4393487" lon="10.371643"><ele>1493.8</ele><time>2026-04-26T13:09:20.366Z</time></trkpt><trkpt lat="46.4392428" lon="10.3715861"><ele>1497.4</ele><time>2026-04-26T13:09:21.368Z</time></trkpt><trkpt lat="46.4391523" lon="10.3715442"><ele>1501.0</ele><time>2026-04-26T13:09:22.364Z</time></trkpt><trkpt lat="46.4390864" lon="10.3715327"><ele>1501.0</ele><time>2026-04-26T13:09:23.364Z</time></trkpt><trkpt lat="46.4390134" lon="10.3716004"><ele>1501.0</ele><time>2026-04-26T13:09:25.361Z</time></trkpt><trkpt lat="46.438982" lon="10.371691"><ele>1501.0</ele><time>2026-04-26T13:09:26.364Z</time></trkpt><trkpt lat="46.4389285" lon="10.3718254"><ele>1501.0</ele><time>2026-04-26T13:09:27.37Z</time></trkpt><trkpt lat="46.4388597" lon="10.371957"><ele>1501.0</ele><time>2026-04-26T13:09:28.368Z</time></trkpt><trkpt lat="46.4387717" lon="10.3720912"><ele>1503.4</ele><time>2026-04-26T13:09:29.363Z</time></trkpt><trkpt lat="46.4386868" lon="10.3722349"><ele>1505.8</ele><time>2026-04-26T13:09:30.36Z</time></trkpt><trkpt lat="46.4386047" lon="10.3723342"><ele>1508.2</ele><time>2026-04-26T13:09:31.365Z</time></trkpt><trkpt lat="46.4385355" lon="10.3723889"><ele>1510.6000000000001</ele><time>2026-04-26T13:09:32.364Z</time></trkpt><trkpt lat="46.4384826" lon="10.3724416"><ele>1513.0</ele><time>2026-04-26T13:09:33.37Z</time></trkpt><trkpt lat="46.4383907" lon="10.3725685"><ele>1513.0</ele><time>2026-04-26T13:09:35.366Z</time></trkpt><trkpt lat="46.4383719" lon="10.3727845"><ele>1513.0</ele><time>2026-04-26T13:09:36.364Z</time></trkpt><trkpt lat="46.4383352" lon="10.3729685"><ele>1513.0</ele><time>2026-04-26T13:09:37.365Z</time></trkpt><trkpt lat="46.4382943" lon="10.3731474"><ele>1513.0</ele><time>2026-04-26T13:09:38.361Z</time></trkpt><trkpt lat="46.4382037" lon="10.3732421"><ele>1520.25</ele><time>2026-04-26T13:09:39.365Z</time></trkpt><trkpt lat="46.4381192" lon="10.37336"><ele>1527.5</ele><time>2026-04-26T13:09:40.36Z</time></trkpt><trkpt lat="46.4380444" lon="10.3734632"><ele>1534.75</ele><time>2026-04-26T13:09:41.362Z</time></trkpt><trkpt lat="46.4379214" lon="10.3735061"><ele>1542.0</ele><time>2026-04-26T13:09:43.363Z</time></trkpt><trkpt lat="46.4378032" lon="10.3734558"><ele>1542.25</ele><time>2026-04-26T13:09:44.364Z</time></trkpt><trkpt lat="46.4376686" lon="10.3733912"><ele>1542.5</ele><time>2026-04-26T13:09:45.367Z</time></trkpt><trkpt lat="46.4375297" lon="10.3733315"><ele>1542.75</ele><time>2026-04-26T13:09:46.363Z</time></trkpt><trkpt lat="46.437398" lon="10.3732686"><ele>1543.0</ele><time>2026-04-26T13:09:47.368Z</time></trkpt><trkpt lat="46.4372855" lon="10.3732202"><ele>1543.0</ele><time>2026-04-26T13:09:48.359Z</time></trkpt><trkpt lat="46.4371953" lon="10.3731887"><ele>1543.0</ele><time>2026-04-26T13:09:49.359Z</time></trkpt><trkpt lat="46.4371174" lon="10.373162"><ele>1543.0</ele><time>2026-04-26T13:09:50.361Z</time></trkpt><trkpt lat="46.4370421" lon="10.3731008"><ele>1543.0</ele><time>2026-04-26T13:09:55.357Z</time></trkpt><trkpt lat="46.436965" lon="10.3731115"><ele>1543.0</ele><time>2026-04-26T13:10:00.361Z</time></trkpt><trkpt lat="46.4368673" lon="10.3731971"><ele>1546.3333333333335</ele><time>2026-04-26T13:10:02.367Z</time></trkpt><trkpt lat="46.4366153" lon="10.37332"><ele>1549.6666666666665</ele><time>2026-04-26T13:10:03.357Z</time></trkpt><trkpt lat="46.4364883" lon="10.3733777"><ele>1553.0</ele><time>2026-04-26T13:10:04.36Z</time></trkpt><trkpt lat="46.4363874" lon="10.3734222"><ele>1553.8000000000002</ele><time>2026-04-26T13:10:05.358Z</time></trkpt><trkpt lat="46.4362823" lon="10.3734827"><ele>1554.6</ele><time>2026-04-26T13:10:06.368Z</time></trkpt><trkpt lat="46.4361994" lon="10.3735409"><ele>1555.4</ele><time>2026-04-26T13:10:07.363Z</time></trkpt><trkpt lat="46.4361115" lon="10.3735814"><ele>1556.1999999999998</ele><time>2026-04-26T13:10:08.359Z</time></trkpt><trkpt lat="46.4360223" lon="10.3736052"><ele>1557.0</ele><time>2026-04-26T13:10:09.364Z</time></trkpt><trkpt lat="46.4359512" lon="10.3736386"><ele>1557.0</ele><time>2026-04-26T13:10:10.361Z</time></trkpt><trkpt lat="46.4358691" lon="10.373683"><ele>1557.0</ele><time>2026-04-26T13:10:11.359Z</time></trkpt><trkpt lat="46.4357876" lon="10.3737369"><ele>1557.0</ele><time>2026-04-26T13:10:12.367Z</time></trkpt><trkpt lat="46.4356985" lon="10.3737394"><ele>1557.0</ele><time>2026-04-26T13:10:13.361Z</time></trkpt><trkpt lat="46.4356122" lon="10.3737124"><ele>1557.0</ele><time>2026-04-26T13:10:14.366Z</time></trkpt><trkpt lat="46.4355061" lon="10.3737123"><ele>1560.5</ele><time>2026-04-26T13:10:16.364Z</time></trkpt><trkpt lat="46.4354551" lon="10.3738045"><ele>1564.0</ele><time>2026-04-26T13:10:18.362Z</time></trkpt><trkpt lat="46.4354225" lon="10.3739145"><ele>1567.5</ele><time>2026-04-26T13:10:20.361Z</time></trkpt><trkpt lat="46.4353536" lon="10.3738968"><ele>1571.0</ele><time>2026-04-26T13:10:22.362Z</time></trkpt><trkpt lat="46.4353129" lon="10.3738059"><ele>1574.5</ele><time>2026-04-26T13:10:25.363Z</time></trkpt><trkpt lat="46.4352765" lon="10.3737044"><ele>1578.0</ele><time>2026-04-26T13:10:33.359Z</time></trkpt><trkpt lat="46.4352653" lon="10.3735825"><ele>1578.0</ele><time>2026-04-26T13:10:36.363Z</time></trkpt><trkpt lat="46.4352532" lon="10.3734488"><ele>1578.0</ele><time>2026-04-26T13:10:39.364Z</time></trkpt><trkpt lat="46.4352135" lon="10.37336"><ele>1578.0</ele><time>2026-04-26T13:10:41.364Z</time></trkpt><trkpt lat="46.4351014" lon="10.3732794"><ele>1578.0</ele><time>2026-04-26T13:10:43.366Z</time></trkpt><trkpt lat="46.4348154" lon="10.3730417"><ele>1574.5</ele><time>2026-04-26T13:10:44.36Z</time></trkpt><trkpt lat="46.4346447" lon="10.3728583"><ele>1571.0</ele><time>2026-04-26T13:10:45.366Z</time></trkpt><trkpt lat="46.4345784" lon="10.372734"><ele>1567.5</ele><time>2026-04-26T13:10:46.361Z</time></trkpt><trkpt lat="46.4345383" lon="10.372627"><ele>1564.0</ele><time>2026-04-26T13:10:47.361Z</time></trkpt><trkpt lat="46.434552" lon="10.3724654"><ele>1566.4</ele><time>2026-04-26T13:10:48.367Z</time></trkpt><trkpt lat="46.4345635" lon="10.3723621"><ele>1568.8000000000002</ele><time>2026-04-26T13:10:49.366Z</time></trkpt><trkpt lat="46.4345559" lon="10.3722608"><ele>1571.1999999999998</ele><time>2026-04-26T13:10:50.361Z</time></trkpt><trkpt lat="46.4345382" lon="10.3721345"><ele>1573.6</ele><time>2026-04-26T13:10:51.363Z</time></trkpt><trkpt lat="46.4344232" lon="10.3719756"><ele>1576.0</ele><time>2026-04-26T13:10:52.361Z</time></trkpt><trkpt lat="46.43433" lon="10.3718329"><ele>1576.0</ele><time>2026-04-26T13:10:53.363Z</time></trkpt><trkpt lat="46.434263" lon="10.3716982"><ele>1576.0</ele><time>2026-04-26T13:10:54.365Z</time></trkpt><trkpt lat="46.4342299" lon="10.3715829"><ele>1576.0</ele><time>2026-04-26T13:10:55.366Z</time></trkpt><trkpt lat="46.4341552" lon="10.3714725"><ele>1576.0</ele><time>2026-04-26T13:10:57.364Z</time></trkpt><trkpt lat="46.4340318" lon="10.3714739"><ele>1576.0</ele><time>2026-04-26T13:10:59.361Z</time></trkpt><trkpt lat="46.4339415" lon="10.3715023"><ele>1576.0</ele><time>2026-04-26T13:11:00.361Z</time></trkpt><trkpt lat="46.4338437" lon="10.3715156"><ele>1576.0</ele><time>2026-04-26T13:11:01.363Z</time></trkpt><trkpt lat="46.433741" lon="10.3715236"><ele>1576.0</ele><time>2026-04-26T13:11:02.367Z</time></trkpt><trkpt lat="46.4336355" lon="10.371548"><ele>1576.0</ele><time>2026-04-26T13:11:03.364Z</time></trkpt><trkpt lat="46.4335249" lon="10.3715952"><ele>1576.0</ele><time>2026-04-26T13:11:04.361Z</time></trkpt><trkpt lat="46.4334069" lon="10.3716533"><ele>1576.1999999999998</ele><time>2026-04-26T13:11:05.361Z</time></trkpt><trkpt lat="46.4332968" lon="10.3716924"><ele>1576.3999999999999</ele><time>2026-04-26T13:11:06.366Z</time></trkpt><trkpt lat="46.433216" lon="10.3717195"><ele>1576.6</ele><time>2026-04-26T13:11:07.365Z</time></trkpt><trkpt lat="46.4331422" lon="10.3717355"><ele>1576.8</ele><time>2026-04-26T13:11:08.362Z</time></trkpt><trkpt lat="46.4330688" lon="10.3717293"><ele>1577.0</ele><time>2026-04-26T13:11:09.366Z</time></trkpt><trkpt lat="46.4329708" lon="10.3716469"><ele>1580.8</ele><time>2026-04-26T13:11:11.361Z</time></trkpt><trkpt lat="46.4328797" lon="10.3715398"><ele>1584.6</ele><time>2026-04-26T13:11:13.362Z</time></trkpt><trkpt lat="46.4327941" lon="10.3715169"><ele>1588.3999999999999</ele><time>2026-04-26T13:11:15.367Z</time></trkpt><trkpt lat="46.4326995" lon="10.3715567"><ele>1592.1999999999998</ele><time>2026-04-26T13:11:17.368Z</time></trkpt><trkpt lat="46.4325821" lon="10.3715761"><ele>1596.0</ele><time>2026-04-26T13:11:19.366Z</time></trkpt><trkpt lat="46.432492" lon="10.3715375"><ele>1596.0</ele><time>2026-04-26T13:11:21.362Z</time></trkpt><trkpt lat="46.43245" lon="10.3714649"><ele>1596.0</ele><time>2026-04-26T13:11:23.359Z</time></trkpt><trkpt lat="46.4324081" lon="10.371392"><ele>1596.0</ele><time>2026-04-26T13:11:25.369Z</time></trkpt><trkpt lat="46.4324152" lon="10.3712855"><ele>1596.0</ele><time>2026-04-26T13:11:28.371Z</time></trkpt><trkpt lat="46.4324145" lon="10.3711593"><ele>1596.0</ele><time>2026-04-26T13:11:31.361Z</time></trkpt><trkpt lat="46.4323949" lon="10.3710305"><ele>1596.0</ele><time>2026-04-26T13:11:33.362Z</time></trkpt><trkpt lat="46.4323921" lon="10.3708684"><ele>1585.75</ele><time>2026-04-26T13:11:35.366Z</time></trkpt><trkpt lat="46.432391" lon="10.3704843"><ele>1575.5</ele><time>2026-04-26T13:11:37.363Z</time></trkpt><trkpt lat="46.4324178" lon="10.3703892"><ele>1565.25</ele><time>2026-04-26T13:11:39.355Z</time></trkpt><trkpt lat="46.4324407" lon="10.370304"><ele>1555.0</ele><time>2026-04-26T13:11:41.374Z</time></trkpt><trkpt lat="46.4324469" lon="10.3702008"><ele>1555.0</ele><time>2026-04-26T13:11:45.36Z</time></trkpt><trkpt lat="46.4324491" lon="10.3700893"><ele>1555.0</ele><time>2026-04-26T13:11:49.36Z</time></trkpt><trkpt lat="46.4324352" lon="10.3699992"><ele>1555.0</ele><time>2026-04-26T13:11:52.361Z</time></trkpt><trkpt lat="46.4324061" lon="10.3699162"><ele>1555.0</ele><time>2026-04-26T13:11:55.36Z</time></trkpt><trkpt lat="46.4324052" lon="10.3698218"><ele>1555.0</ele><time>2026-04-26T13:11:59.359Z</time></trkpt><trkpt lat="46.4323608" lon="10.3696963"><ele>1555.0</ele><time>2026-04-26T13:12:02.366Z</time></trkpt><trkpt lat="46.4323311" lon="10.3696094"><ele>1555.0</ele><time>2026-04-26T13:12:03.364Z</time></trkpt><trkpt lat="46.4323021" lon="10.369512"><ele>1550.2</ele><time>2026-04-26T13:12:04.362Z</time></trkpt><trkpt lat="46.4322304" lon="10.3693187"><ele>1545.4</ele><time>2026-04-26T13:12:05.361Z</time></trkpt><trkpt lat="46.4322142" lon="10.3692237"><ele>1540.6</ele><time>2026-04-26T13:12:06.365Z</time></trkpt><trkpt lat="46.432232" lon="10.3690725"><ele>1535.8</ele><time>2026-04-26T13:12:08.359Z</time></trkpt><trkpt lat="46.4322512" lon="10.3689365"><ele>1531.0</ele><time>2026-04-26T13:12:10.361Z</time></trkpt><trkpt lat="46.4321884" lon="10.3688521"><ele>1530.8</ele><time>2026-04-26T13:12:12.365Z</time></trkpt><trkpt lat="46.4321132" lon="10.3687808"><ele>1530.6</ele><time>2026-04-26T13:12:13.364Z</time></trkpt><trkpt lat="46.4320489" lon="10.3686875"><ele>1530.4</ele><time>2026-04-26T13:12:14.374Z</time></trkpt><trkpt lat="46.4319918" lon="10.3685607"><ele>1530.2</ele><time>2026-04-26T13:12:15.363Z</time></trkpt><trkpt lat="46.4319241" lon="10.3684114"><ele>1530.0</ele><time>2026-04-26T13:12:16.36Z</time></trkpt><trkpt lat="46.4318548" lon="10.3682578"><ele>1530.0</ele><time>2026-04-26T13:12:17.362Z</time></trkpt><trkpt lat="46.431786" lon="10.3680819"><ele>1530.0</ele><time>2026-04-26T13:12:18.363Z</time></trkpt><trkpt lat="46.4317263" lon="10.3679492"><ele>1530.0</ele><time>2026-04-26T13:12:19.36Z</time></trkpt><trkpt lat="46.4316692" lon="10.3677967"><ele>1530.0</ele><time>2026-04-26T13:12:20.365Z</time></trkpt><trkpt lat="46.4316099" lon="10.3676314"><ele>1525.75</ele><time>2026-04-26T13:12:21.366Z</time></trkpt><trkpt lat="46.4315387" lon="10.3674794"><ele>1521.5</ele><time>2026-04-26T13:12:22.36Z</time></trkpt><trkpt lat="46.4315154" lon="10.367358"><ele>1517.25</ele><time>2026-04-26T13:12:23.365Z</time></trkpt><trkpt lat="46.4314399" lon="10.3672326"><ele>1513.0</ele><time>2026-04-26T13:12:24.361Z</time></trkpt><trkpt lat="46.4313477" lon="10.3671056"><ele>1511.2</ele><time>2026-04-26T13:12:25.375Z</time></trkpt><trkpt lat="46.4312692" lon="10.3669664"><ele>1509.4</ele><time>2026-04-26T13:12:26.367Z</time></trkpt><trkpt lat="46.4311865" lon="10.3668378"><ele>1507.6000000000001</ele><time>2026-04-26T13:12:27.367Z</time></trkpt><trkpt lat="46.4311298" lon="10.366752"><ele>1505.8000000000002</ele><time>2026-04-26T13:12:28.365Z</time></trkpt><trkpt lat="46.4310611" lon="10.3666866"><ele>1504.0</ele><time>2026-04-26T13:12:29.362Z</time></trkpt><trkpt lat="46.430994" lon="10.3666316"><ele>1504.0</ele><time>2026-04-26T13:12:30.365Z</time></trkpt><trkpt lat="46.4309498" lon="10.3665614"><ele>1504.0</ele><time>2026-04-26T13:12:32.361Z</time></trkpt><trkpt lat="46.4310191" lon="10.3665134"><ele>1504.0</ele><time>2026-04-26T13:12:35.362Z</time></trkpt><trkpt lat="46.4311124" lon="10.3665348"><ele>1504.0</ele><time>2026-04-26T13:12:38.36Z</time></trkpt><trkpt lat="46.4311872" lon="10.3665749"><ele>1504.0</ele><time>2026-04-26T13:12:40.364Z</time></trkpt><trkpt lat="46.4313626" lon="10.3667902"><ele>1469.0</ele><time>2026-04-26T13:12:42.36Z</time></trkpt><trkpt lat="46.432177" lon="10.366796"><ele>1469.0</ele><time>2026-04-26T13:12:43.358Z</time></trkpt><trkpt lat="46.4323263" lon="10.3666869"><ele>1469.0</ele><time>2026-04-26T13:12:44.354Z</time></trkpt><trkpt lat="46.4324542" lon="10.3666306"><ele>1469.0</ele><time>2026-04-26T13:12:45.37Z</time></trkpt><trkpt lat="46.43259" lon="10.366644"><ele>1469.0</ele><time>2026-04-26T13:12:46.37Z</time></trkpt><trkpt lat="46.4327162" lon="10.3666684"><ele>1469.0</ele><time>2026-04-26T13:12:47.365Z</time></trkpt><trkpt lat="46.4328324" lon="10.3666914"><ele>1469.0</ele><time>2026-04-26T13:12:48.361Z</time></trkpt><trkpt lat="46.4329382" lon="10.3666953"><ele>1469.0</ele><time>2026-04-26T13:12:49.366Z</time></trkpt><trkpt lat="46.4330096" lon="10.366687"><ele>1469.0</ele><time>2026-04-26T13:12:50.364Z</time></trkpt><trkpt lat="46.433085" lon="10.3667372"><ele>1469.0</ele><time>2026-04-26T13:12:52.359Z</time></trkpt><trkpt lat="46.4330991" lon="10.3666372"><ele>1469.0</ele><time>2026-04-26T13:12:54.368Z</time></trkpt><trkpt lat="46.4330629" lon="10.3665304"><ele>1465.4</ele><time>2026-04-26T13:12:55.366Z</time></trkpt><trkpt lat="46.4330219" lon="10.366405"><ele>1461.8000000000002</ele><time>2026-04-26T13:12:56.364Z</time></trkpt><trkpt lat="46.4329543" lon="10.3662897"><ele>1458.1999999999998</ele><time>2026-04-26T13:12:57.37Z</time></trkpt><trkpt lat="46.4328712" lon="10.3661647"><ele>1454.6</ele><time>2026-04-26T13:12:58.363Z</time></trkpt><trkpt lat="46.4327921" lon="10.3660502"><ele>1451.0</ele><time>2026-04-26T13:12:59.366Z</time></trkpt><trkpt lat="46.4326921" lon="10.3660203"><ele>1448.6</ele><time>2026-04-26T13:13:00.366Z</time></trkpt><trkpt lat="46.4326064" lon="10.3659726"><ele>1446.1999999999998</ele><time>2026-04-26T13:13:01.364Z</time></trkpt><trkpt lat="46.4325315" lon="10.3659335"><ele>1443.8000000000002</ele><time>2026-04-26T13:13:02.363Z</time></trkpt><trkpt lat="46.4324355" lon="10.3659137"><ele>1441.4</ele><time>2026-04-26T13:13:03.36Z</time></trkpt><trkpt lat="46.4323323" lon="10.3658154"><ele>1439.0</ele><time>2026-04-26T13:13:04.364Z</time></trkpt><trkpt lat="46.4322425" lon="10.3656956"><ele>1439.0</ele><time>2026-04-26T13:13:05.364Z</time></trkpt><trkpt lat="46.4321558" lon="10.3656031"><ele>1439.0</ele><time>2026-04-26T13:13:06.366Z</time></trkpt><trkpt lat="46.4320712" lon="10.3655017"><ele>1439.0</ele><time>2026-04-26T13:13:07.359Z</time></trkpt><trkpt lat="46.4319901" lon="10.3654149"><ele>1439.0</ele><time>2026-04-26T13:13:08.361Z</time></trkpt><trkpt lat="46.4318848" lon="10.3653535"><ele>1439.0</ele><time>2026-04-26T13:13:09.362Z</time></trkpt><trkpt lat="46.4317148" lon="10.3652332"><ele>1434.3333333333335</ele><time>2026-04-26T13:13:10.364Z</time></trkpt><trkpt lat="46.4316201" lon="10.3651464"><ele>1429.6666666666667</ele><time>2026-04-26T13:13:11.359Z</time></trkpt><trkpt lat="46.4315429" lon="10.365096"><ele>1425.0</ele><time>2026-04-26T13:13:12.367Z</time></trkpt><trkpt lat="46.4314681" lon="10.3650631"><ele>1420.3333333333333</ele><time>2026-04-26T13:13:13.37Z</time></trkpt><trkpt lat="46.4314115" lon="10.3650226"><ele>1415.6666666666665</ele><time>2026-04-26T13:13:14.36Z</time></trkpt><trkpt lat="46.4314829" lon="10.364976"><ele>1411.0</ele><time>2026-04-26T13:13:17.362Z</time></trkpt><trkpt lat="46.4315788" lon="10.3649865"><ele>1411.0</ele><time>2026-04-26T13:13:19.372Z</time></trkpt><trkpt lat="46.4316682" lon="10.3649543"><ele>1411.0</ele><time>2026-04-26T13:13:20.365Z</time></trkpt><trkpt lat="46.4317501" lon="10.3649247"><ele>1411.0</ele><time>2026-04-26T13:13:22.367Z</time></trkpt><trkpt lat="46.4318174" lon="10.3649237"><ele>1411.0</ele><time>2026-04-26T13:13:24.36Z</time></trkpt><trkpt lat="46.4319206" lon="10.3649612"><ele>1411.0</ele><time>2026-04-26T13:13:25.363Z</time></trkpt><trkpt lat="46.4324371" lon="10.36485"><ele>1409.4</ele><time>2026-04-26T13:13:26.36Z</time></trkpt><trkpt lat="46.4325363" lon="10.3647879"><ele>1407.8</ele><time>2026-04-26T13:13:27.358Z</time></trkpt><trkpt lat="46.4326013" lon="10.3647549"><ele>1406.2</ele><time>2026-04-26T13:13:28.364Z</time></trkpt><trkpt lat="46.4324633" lon="10.3647148"><ele>1404.6000000000001</ele><time>2026-04-26T13:13:31.36Z</time></trkpt><trkpt lat="46.4323619" lon="10.3647179"><ele>1403.0</ele><time>2026-04-26T13:13:32.359Z</time></trkpt><trkpt lat="46.4322628" lon="10.3647256"><ele>1403.0</ele><time>2026-04-26T13:13:33.365Z</time></trkpt><trkpt lat="46.4321792" lon="10.3647213"><ele>1403.0</ele><time>2026-04-26T13:13:34.372Z</time></trkpt><trkpt lat="46.4321905" lon="10.3645867"><ele>1403.0</ele><time>2026-04-26T13:13:37.361Z</time></trkpt><trkpt lat="46.4322302" lon="10.3644743"><ele>1403.0</ele><time>2026-04-26T13:13:39.363Z</time></trkpt><trkpt lat="46.4323097" lon="10.3644798"><ele>1403.0</ele><time>2026-04-26T13:13:40.365Z</time></trkpt><trkpt lat="46.4324053" lon="10.3644171"><ele>1403.0</ele><time>2026-04-26T13:13:41.362Z</time></trkpt><trkpt lat="46.4324934" lon="10.3643752"><ele>1396.6000000000001</ele><time>2026-04-26T13:13:43.364Z</time></trkpt><trkpt lat="46.4324072" lon="10.3643585"><ele>1390.2</ele><time>2026-04-26T13:13:45.363Z</time></trkpt><trkpt lat="46.4323274" lon="10.3643724"><ele>1383.8</ele><time>2026-04-26T13:13:46.367Z</time></trkpt><trkpt lat="46.4322452" lon="10.3643712"><ele>1377.4</ele><time>2026-04-26T13:13:47.363Z</time></trkpt><trkpt lat="46.432151" lon="10.3643321"><ele>1371.0</ele><time>2026-04-26T13:13:48.363Z</time></trkpt><trkpt lat="46.4320336" lon="10.36424"><ele>1371.0</ele><time>2026-04-26T13:13:49.362Z</time></trkpt><trkpt lat="46.4319124" lon="10.3641084"><ele>1371.0</ele><time>2026-04-26T13:13:50.372Z</time></trkpt><trkpt lat="46.4317297" lon="10.3640305"><ele>1371.0</ele><time>2026-04-26T13:13:51.364Z</time></trkpt><trkpt lat="46.4316031" lon="10.3639575"><ele>1371.0</ele><time>2026-04-26T13:13:52.361Z</time></trkpt><trkpt lat="46.4315143" lon="10.363872"><ele>1371.0</ele><time>2026-04-26T13:13:53.36Z</time></trkpt><trkpt lat="46.4314453" lon="10.3638299"><ele>1371.0</ele><time>2026-04-26T13:13:54.361Z</time></trkpt><trkpt lat="46.4313799" lon="10.3637647"><ele>1371.0</ele><time>2026-04-26T13:13:55.364Z</time></trkpt><trkpt lat="46.4314848" lon="10.3637965"><ele>1371.0</ele><time>2026-04-26T13:13:56.362Z</time></trkpt><trkpt lat="46.4316057" lon="10.3638806"><ele>1371.0</ele><time>2026-04-26T13:13:59.368Z</time></trkpt><trkpt lat="46.431714" lon="10.3638825"><ele>1371.0</ele><time>2026-04-26T13:14:00.367Z</time></trkpt><trkpt lat="46.4318766" lon="10.3638543"><ele>1371.0</ele><time>2026-04-26T13:14:01.368Z</time></trkpt><trkpt lat="46.4320344" lon="10.3638455"><ele>1371.0</ele><time>2026-04-26T13:14:02.372Z</time></trkpt><trkpt lat="46.432146" lon="10.3638325"><ele>1358.0</ele><time>2026-04-26T13:14:03.365Z</time></trkpt><trkpt lat="46.4322995" lon="10.3638223"><ele>1345.0</ele><time>2026-04-26T13:14:04.368Z</time></trkpt><trkpt lat="46.4324229" lon="10.3637399"><ele>1332.0</ele><time>2026-04-26T13:14:05.36Z</time></trkpt><trkpt lat="46.4325428" lon="10.3636962"><ele>1319.0</ele><time>2026-04-26T13:14:06.36Z</time></trkpt><trkpt lat="46.4326444" lon="10.3636933"><ele>1319.0</ele><time>2026-04-26T13:14:07.368Z</time></trkpt><trkpt lat="46.4327272" lon="10.363635"><ele>1319.0</ele><time>2026-04-26T13:14:08.361Z</time></trkpt><trkpt lat="46.4328047" lon="10.3636047"><ele>1319.0</ele><time>2026-04-26T13:14:09.362Z</time></trkpt><trkpt lat="46.432929" lon="10.363591"><ele>1319.0</ele><time>2026-04-26T13:14:11.359Z</time></trkpt><trkpt lat="46.432991" lon="10.3635363"><ele>1319.0</ele><time>2026-04-26T13:14:12.362Z</time></trkpt><trkpt lat="46.4330866" lon="10.3634663"><ele>1318.4</ele><time>2026-04-26T13:14:14.362Z</time></trkpt><trkpt lat="46.4331681" lon="10.3634894"><ele>1317.8000000000002</ele><time>2026-04-26T13:14:16.36Z</time></trkpt><trkpt lat="46.433277" lon="10.3635043"><ele>1317.1999999999998</ele><time>2026-04-26T13:14:18.365Z</time></trkpt><trkpt lat="46.4333722" lon="10.3634758"><ele>1316.6</ele><time>2026-04-26T13:14:20.368Z</time></trkpt><trkpt lat="46.4334458" lon="10.363452"><ele>1316.0</ele><time>2026-04-26T13:14:22.365Z</time></trkpt><trkpt lat="46.4335442" lon="10.3634228"><ele>1316.0</ele><time>2026-04-26T13:14:24.362Z</time></trkpt><trkpt lat="46.4336772" lon="10.3633508"><ele>1316.0</ele><time>2026-04-26T13:14:26.363Z</time></trkpt><trkpt lat="46.4337765" lon="10.363306"><ele>1316.0</ele><time>2026-04-26T13:14:27.367Z</time></trkpt><trkpt lat="46.4338934" lon="10.3632623"><ele>1316.0</ele><time>2026-04-26T13:14:28.359Z</time></trkpt><trkpt lat="46.4340233" lon="10.3632211"><ele>1315.8333333333335</ele><time>2026-04-26T13:14:29.362Z</time></trkpt><trkpt lat="46.4341143" lon="10.3631953"><ele>1315.6666666666667</ele><time>2026-04-26T13:14:30.363Z</time></trkpt><trkpt lat="46.4342002" lon="10.3631836"><ele>1315.5</ele><time>2026-04-26T13:14:31.359Z</time></trkpt><trkpt lat="46.4342676" lon="10.3631772"><ele>1315.3333333333333</ele><time>2026-04-26T13:14:32.36Z</time></trkpt><trkpt lat="46.4343356" lon="10.3631829"><ele>1315.1666666666665</ele><time>2026-04-26T13:14:33.359Z</time></trkpt><trkpt lat="46.4344196" lon="10.363202"><ele>1315.0</ele><time>2026-04-26T13:14:34.368Z</time></trkpt><trkpt lat="46.4345118" lon="10.3632319"><ele>1315.0</ele><time>2026-04-26T13:14:35.36Z</time></trkpt><trkpt lat="46.4345995" lon="10.3632567"><ele>1315.0</ele><time>2026-04-26T13:14:36.361Z</time></trkpt><trkpt lat="46.434726" lon="10.3632731"><ele>1315.0</ele><time>2026-04-26T13:14:37.361Z</time></trkpt><trkpt lat="46.4348021" lon="10.3633428"><ele>1315.0</ele><time>2026-04-26T13:14:38.361Z</time></trkpt><trkpt lat="46.4348589" lon="10.3634207"><ele>1315.0</ele><time>2026-04-26T13:14:39.36Z</time></trkpt><trkpt lat="46.4349135" lon="10.3634841"><ele>1312.75</ele><time>2026-04-26T13:14:40.36Z</time></trkpt><trkpt lat="46.4350103" lon="10.3635726"><ele>1310.5</ele><time>2026-04-26T13:14:41.36Z</time></trkpt><trkpt lat="46.4351399" lon="10.3635977"><ele>1308.25</ele><time>2026-04-26T13:14:42.358Z</time></trkpt><trkpt lat="46.4352427" lon="10.3636254"><ele>1306.0</ele><time>2026-04-26T13:14:43.362Z</time></trkpt><trkpt lat="46.4353563" lon="10.3636411"><ele>1306.0</ele><time>2026-04-26T13:14:44.358Z</time></trkpt><trkpt lat="46.4354474" lon="10.363662"><ele>1306.0</ele><time>2026-04-26T13:14:45.357Z</time></trkpt><trkpt lat="46.4355429" lon="10.3636996"><ele>1306.0</ele><time>2026-04-26T13:14:46.362Z</time></trkpt><trkpt lat="46.4356408" lon="10.3637575"><ele>1306.0</ele><time>2026-04-26T13:14:47.36Z</time></trkpt><trkpt lat="46.4357672" lon="10.3637807"><ele>1306.0</ele><time>2026-04-26T13:14:48.36Z</time></trkpt><trkpt lat="46.4358819" lon="10.3638171"><ele>1305.8333333333333</ele><time>2026-04-26T13:14:49.362Z</time></trkpt><trkpt lat="46.4359626" lon="10.3638658"><ele>1305.6666666666665</ele><time>2026-04-26T13:14:50.36Z</time></trkpt><trkpt lat="46.4360457" lon="10.363908"><ele>1305.5</ele><time>2026-04-26T13:14:51.365Z</time></trkpt><trkpt lat="46.4361388" lon="10.3639121"><ele>1305.3333333333333</ele><time>2026-04-26T13:14:52.359Z</time></trkpt><trkpt lat="46.4362425" lon="10.3639122"><ele>1305.1666666666667</ele><time>2026-04-26T13:14:53.361Z</time></trkpt><trkpt lat="46.4363176" lon="10.363924"><ele>1305.0</ele><time>2026-04-26T13:14:54.36Z</time></trkpt><trkpt lat="46.4364507" lon="10.3639543"><ele>1299.4</ele><time>2026-04-26T13:14:56.36Z</time></trkpt><trkpt lat="46.4365365" lon="10.3639253"><ele>1293.8</ele><time>2026-04-26T13:14:57.359Z</time></trkpt><trkpt lat="46.4366353" lon="10.3639138"><ele>1288.2</ele><time>2026-04-26T13:14:58.362Z</time></trkpt><trkpt lat="46.436778" lon="10.3639094"><ele>1282.6</ele><time>2026-04-26T13:15:00.368Z</time></trkpt><trkpt lat="46.4368693" lon="10.3639738"><ele>1277.0</ele><time>2026-04-26T13:15:01.361Z</time></trkpt><trkpt lat="46.4369595" lon="10.364045"><ele>1277.0</ele><time>2026-04-26T13:15:02.365Z</time></trkpt><trkpt lat="46.4370424" lon="10.3640812"><ele>1277.0</ele><time>2026-04-26T13:15:03.363Z</time></trkpt><trkpt lat="46.4371344" lon="10.3641347"><ele>1277.0</ele><time>2026-04-26T13:15:04.36Z</time></trkpt><trkpt lat="46.437223" lon="10.3641424"><ele>1277.0</ele><time>2026-04-26T13:15:05.363Z</time></trkpt><trkpt lat="46.4372924" lon="10.3640878"><ele>1277.0</ele><time>2026-04-26T13:15:06.359Z</time></trkpt><trkpt lat="46.4373999" lon="10.3641129"><ele>1272.0</ele><time>2026-04-26T13:15:08.36Z</time></trkpt><trkpt lat="46.4374652" lon="10.3641376"><ele>1267.0</ele><time>2026-04-26T13:15:09.361Z</time></trkpt><trkpt lat="46.4375492" lon="10.3641755"><ele>1262.0</ele><time>2026-04-26T13:15:10.361Z</time></trkpt><trkpt lat="46.4376565" lon="10.3642065"><ele>1257.0</ele><time>2026-04-26T13:15:11.364Z</time></trkpt><trkpt lat="46.4377606" lon="10.3642335"><ele>1252.0</ele><time>2026-04-26T13:15:12.36Z</time></trkpt><trkpt lat="46.4378248" lon="10.3642575"><ele>1247.0</ele><time>2026-04-26T13:15:13.364Z</time></trkpt><trkpt lat="46.4378994" lon="10.3643101"><ele>1247.0</ele><time>2026-04-26T13:15:14.361Z</time></trkpt><trkpt lat="46.4379539" lon="10.3643961"><ele>1247.0</ele><time>2026-04-26T13:15:15.362Z</time></trkpt><trkpt lat="46.4380326" lon="10.3644707"><ele>1247.0</ele><time>2026-04-26T13:15:17.36Z</time></trkpt><trkpt lat="46.4380769" lon="10.3643356"><ele>1247.0</ele><time>2026-04-26T13:15:20.363Z</time></trkpt><trkpt lat="46.4380834" lon="10.3642017"><ele>1247.0</ele><time>2026-04-26T13:15:21.362Z</time></trkpt><trkpt lat="46.4380667" lon="10.3640482"><ele>1244.25</ele><time>2026-04-26T13:15:22.364Z</time></trkpt><trkpt lat="46.4380699" lon="10.3638834"><ele>1241.5</ele><time>2026-04-26T13:15:23.365Z</time></trkpt><trkpt lat="46.4380667" lon="10.3637084"><ele>1238.75</ele><time>2026-04-26T13:15:24.368Z</time></trkpt><trkpt lat="46.4380859" lon="10.3635218"><ele>1236.0</ele><time>2026-04-26T13:15:25.36Z</time></trkpt><trkpt lat="46.43807" lon="10.3633487"><ele>1231.25</ele><time>2026-04-26T13:15:26.364Z</time></trkpt><trkpt lat="46.4380643" lon="10.3631561"><ele>1226.5</ele><time>2026-04-26T13:15:27.368Z</time></trkpt><trkpt lat="46.4380632" lon="10.3629559"><ele>1221.75</ele><time>2026-04-26T13:15:28.36Z</time></trkpt><trkpt lat="46.4380472" lon="10.3627522"><ele>1217.0</ele><time>2026-04-26T13:15:29.366Z</time></trkpt><trkpt lat="46.4380332" lon="10.3625505"><ele>1212.75</ele><time>2026-04-26T13:15:30.365Z</time></trkpt><trkpt lat="46.4380416" lon="10.3623351"><ele>1208.5</ele><time>2026-04-26T13:15:31.364Z</time></trkpt><trkpt lat="46.438048" lon="10.3621139"><ele>1204.25</ele><time>2026-04-26T13:15:32.359Z</time></trkpt><trkpt lat="46.4380389" lon="10.3619044"><ele>1200.0</ele><time>2026-04-26T13:15:33.361Z</time></trkpt><trkpt lat="46.4380442" lon="10.3616668"><ele>1196.6666666666667</ele><time>2026-04-26T13:15:34.363Z</time></trkpt><trkpt lat="46.4380548" lon="10.3614171"><ele>1193.3333333333335</ele><time>2026-04-26T13:15:35.363Z</time></trkpt><trkpt lat="46.438078" lon="10.3611778"><ele>1190.0</ele><time>2026-04-26T13:15:36.362Z</time></trkpt><trkpt lat="46.4381015" lon="10.3609519"><ele>1186.3333333333335</ele><time>2026-04-26T13:15:37.364Z</time></trkpt><trkpt lat="46.4381326" lon="10.3607197"><ele>1182.6666666666667</ele><time>2026-04-26T13:15:38.363Z</time></trkpt><trkpt lat="46.4381598" lon="10.3604961"><ele>1179.0</ele><time>2026-04-26T13:15:39.362Z</time></trkpt><trkpt lat="46.4382055" lon="10.3602694"><ele>1177.5</ele><time>2026-04-26T13:15:40.363Z</time></trkpt><trkpt lat="46.4382421" lon="10.3600504"><ele>1176.0</ele><time>2026-04-26T13:15:41.361Z</time></trkpt><trkpt lat="46.4382804" lon="10.3598348"><ele>1174.5</ele><time>2026-04-26T13:15:42.362Z</time></trkpt><trkpt lat="46.4383046" lon="10.3596349"><ele>1173.0</ele><time>2026-04-26T13:15:43.363Z</time></trkpt><trkpt lat="46.4383285" lon="10.3594439"><ele>1170.75</ele><time>2026-04-26T13:15:44.362Z</time></trkpt><trkpt lat="46.438354" lon="10.3592804"><ele>1168.5</ele><time>2026-04-26T13:15:45.362Z</time></trkpt><trkpt lat="46.4383938" lon="10.3591281"><ele>1166.25</ele><time>2026-04-26T13:15:46.363Z</time></trkpt><trkpt lat="46.4384611" lon="10.3589861"><ele>1164.0</ele><time>2026-04-26T13:15:47.369Z</time></trkpt><trkpt lat="46.43853" lon="10.3588295"><ele>1161.2</ele><time>2026-04-26T13:15:48.363Z</time></trkpt><trkpt lat="46.4385987" lon="10.3586798"><ele>1158.4</ele><time>2026-04-26T13:15:49.358Z</time></trkpt><trkpt lat="46.4386481" lon="10.3585526"><ele>1155.6</ele><time>2026-04-26T13:15:50.364Z</time></trkpt><trkpt lat="46.4386772" lon="10.3584394"><ele>1152.8</ele><time>2026-04-26T13:15:51.367Z</time></trkpt><trkpt lat="46.4387075" lon="10.3582765"><ele>1150.0</ele><time>2026-04-26T13:15:53.363Z</time></trkpt><trkpt lat="46.4387285" lon="10.3581653"><ele>1150.0</ele><time>2026-04-26T13:15:55.361Z</time></trkpt><trkpt lat="46.43874" lon="10.3580593"><ele>1150.0</ele><time>2026-04-26T13:16:13.361Z</time></trkpt><trkpt lat="46.4388587" lon="10.3580175"><ele>1150.0</ele><time>2026-04-26T13:16:16.362Z</time></trkpt><trkpt lat="46.4389487" lon="10.3580175"><ele>1150.0</ele><time>2026-04-26T13:16:17.365Z</time></trkpt><trkpt lat="46.4390385" lon="10.3580207"><ele>1150.0</ele><time>2026-04-26T13:16:18.368Z</time></trkpt><trkpt lat="46.4391342" lon="10.3580356"><ele>1149.8</ele><time>2026-04-26T13:16:19.36Z</time></trkpt><trkpt lat="46.4392306" lon="10.3580725"><ele>1149.6</ele><time>2026-04-26T13:16:20.361Z</time></trkpt><trkpt lat="46.4393364" lon="10.3581203"><ele>1149.4</ele><time>2026-04-26T13:16:21.363Z</time></trkpt><trkpt lat="46.4394483" lon="10.3581656"><ele>1149.2</ele><time>2026-04-26T13:16:22.364Z</time></trkpt><trkpt lat="46.4395593" lon="10.3582209"><ele>1149.0</ele><time>2026-04-26T13:16:23.36Z</time></trkpt><trkpt lat="46.4396599" lon="10.3582746"><ele>1149.0</ele><time>2026-04-26T13:16:24.361Z</time></trkpt><trkpt lat="46.4397483" lon="10.3583208"><ele>1149.0</ele><time>2026-04-26T13:16:25.362Z</time></trkpt><trkpt lat="46.439822" lon="10.3583508"><ele>1149.0</ele><time>2026-04-26T13:16:26.36Z</time></trkpt><trkpt lat="46.4399233" lon="10.3583327"><ele>1149.0</ele><time>2026-04-26T13:16:28.361Z</time></trkpt><trkpt lat="46.4399279" lon="10.3582155"><ele>1149.0</ele><time>2026-04-26T13:16:30.364Z</time></trkpt><trkpt lat="46.4398774" lon="10.3581602"><ele>1149.0</ele><time>2026-04-26T13:16:31.366Z</time></trkpt><trkpt lat="46.4398001" lon="10.358119"><ele>1149.0</ele><time>2026-04-26T13:16:32.373Z</time></trkpt><trkpt lat="46.4397013" lon="10.3580697"><ele>1149.0</ele><time>2026-04-26T13:16:33.371Z</time></trkpt><trkpt lat="46.4395948" lon="10.3580053"><ele>1149.0</ele><time>2026-04-26T13:16:34.36Z</time></trkpt><trkpt lat="46.4394933" lon="10.3579161"><ele>1149.0</ele><time>2026-04-26T13:16:35.365Z</time></trkpt><trkpt lat="46.4394148" lon="10.357812"><ele>1149.0</ele><time>2026-04-26T13:16:36.364Z</time></trkpt><trkpt lat="46.4393492" lon="10.3576959"><ele>1148.2</ele><time>2026-04-26T13:16:37.362Z</time></trkpt><trkpt lat="46.4392961" lon="10.3575813"><ele>1147.4</ele><time>2026-04-26T13:16:38.361Z</time></trkpt><trkpt lat="46.4392661" lon="10.3574621"><ele>1146.6</ele><time>2026-04-26T13:16:39.361Z</time></trkpt><trkpt lat="46.439246" lon="10.3573346"><ele>1145.8</ele><time>2026-04-26T13:16:40.36Z</time></trkpt><trkpt lat="46.4392297" lon="10.3572051"><ele>1145.0</ele><time>2026-04-26T13:16:41.366Z</time></trkpt><trkpt lat="46.4392108" lon="10.3570683"><ele>1145.0</ele><time>2026-04-26T13:16:42.362Z</time></trkpt><trkpt lat="46.439192" lon="10.3569294"><ele>1145.0</ele><time>2026-04-26T13:16:43.366Z</time></trkpt><trkpt lat="46.4391757" lon="10.3568097"><ele>1145.0</ele><time>2026-04-26T13:16:44.359Z</time></trkpt><trkpt lat="46.4391634" lon="10.3566952"><ele>1145.0</ele><time>2026-04-26T13:16:45.362Z</time></trkpt><trkpt lat="46.4391529" lon="10.3565961"><ele>1145.0</ele><time>2026-04-26T13:16:46.359Z</time></trkpt><trkpt lat="46.4391066" lon="10.3564657"><ele>1145.0</ele><time>2026-04-26T13:16:48.362Z</time></trkpt><trkpt lat="46.4389818" lon="10.3564753"><ele>1145.0</ele><time>2026-04-26T13:16:50.366Z</time></trkpt><trkpt lat="46.4388967" lon="10.3565016"><ele>1145.0</ele><time>2026-04-26T13:16:51.36Z</time></trkpt><trkpt lat="46.4388181" lon="10.3565234"><ele>1145.0</ele><time>2026-04-26T13:16:52.363Z</time></trkpt><trkpt lat="46.4387457" lon="10.3565171"><ele>1145.0</ele><time>2026-04-26T13:16:53.361Z</time></trkpt><trkpt lat="46.438683" lon="10.3564726"><ele>1145.0</ele><time>2026-04-26T13:16:54.359Z</time></trkpt><trkpt lat="46.4386437" lon="10.3563819"><ele>1145.0</ele><time>2026-04-26T13:16:55.367Z</time></trkpt><trkpt lat="46.4385928" lon="10.3562667"><ele>1147.8</ele><time>2026-04-26T13:16:56.367Z</time></trkpt><trkpt lat="46.4385367" lon="10.3561293"><ele>1150.6</ele><time>2026-04-26T13:16:57.361Z</time></trkpt><trkpt lat="46.4384737" lon="10.3560233"><ele>1153.4</ele><time>2026-04-26T13:16:58.362Z</time></trkpt><trkpt lat="46.4384112" lon="10.3559081"><ele>1156.2</ele><time>2026-04-26T13:16:59.363Z</time></trkpt><trkpt lat="46.4383547" lon="10.3558062"><ele>1159.0</ele><time>2026-04-26T13:17:00.364Z</time></trkpt><trkpt lat="46.4383027" lon="10.3557084"><ele>1159.0</ele><time>2026-04-26T13:17:01.358Z</time></trkpt><trkpt lat="46.4382463" lon="10.3556167"><ele>1159.0</ele><time>2026-04-26T13:17:02.36Z</time></trkpt><trkpt lat="46.4381943" lon="10.3555189"><ele>1159.0</ele><time>2026-04-26T13:17:03.365Z</time></trkpt><trkpt lat="46.4381435" lon="10.3554154"><ele>1159.0</ele><time>2026-04-26T13:17:04.365Z</time></trkpt><trkpt lat="46.4380976" lon="10.3553069"><ele>1159.0</ele><time>2026-04-26T13:17:05.363Z</time></trkpt><trkpt lat="46.4380573" lon="10.3551936"><ele>1159.0</ele><time>2026-04-26T13:17:06.365Z</time></trkpt><trkpt lat="46.4380092" lon="10.3550848"><ele>1162.4</ele><time>2026-04-26T13:17:07.367Z</time></trkpt><trkpt lat="46.437945" lon="10.3549759"><ele>1165.8000000000002</ele><time>2026-04-26T13:17:08.362Z</time></trkpt><trkpt lat="46.43788" lon="10.3548798"><ele>1169.1999999999998</ele><time>2026-04-26T13:17:09.364Z</time></trkpt><trkpt lat="46.4378093" lon="10.3547781"><ele>1172.6</ele><time>2026-04-26T13:17:10.369Z</time></trkpt><trkpt lat="46.4377434" lon="10.3546779"><ele>1176.0</ele><time>2026-04-26T13:17:11.364Z</time></trkpt><trkpt lat="46.4376697" lon="10.3545753"><ele>1179.8</ele><time>2026-04-26T13:17:12.361Z</time></trkpt><trkpt lat="46.4376" lon="10.354484"><ele>1183.6</ele><time>2026-04-26T13:17:13.359Z</time></trkpt><trkpt lat="46.4375295" lon="10.3543888"><ele>1187.4</ele><time>2026-04-26T13:17:14.361Z</time></trkpt><trkpt lat="46.4374657" lon="10.3542827"><ele>1191.2</ele><time>2026-04-26T13:17:15.363Z</time></trkpt><trkpt lat="46.4373951" lon="10.3541749"><ele>1195.0</ele><time>2026-04-26T13:17:16.371Z</time></trkpt><trkpt lat="46.4373347" lon="10.3540679"><ele>1195.0</ele><time>2026-04-26T13:17:17.364Z</time></trkpt><trkpt lat="46.4372559" lon="10.3539624"><ele>1195.0</ele><time>2026-04-26T13:17:18.364Z</time></trkpt><trkpt lat="46.437179" lon="10.3538588"><ele>1195.0</ele><time>2026-04-26T13:17:19.363Z</time></trkpt><trkpt lat="46.4371031" lon="10.3537688"><ele>1195.0</ele><time>2026-04-26T13:17:20.358Z</time></trkpt><trkpt lat="46.4370279" lon="10.3536828"><ele>1195.0</ele><time>2026-04-26T13:17:21.363Z</time></trkpt><trkpt lat="46.4369521" lon="10.3536046"><ele>1197.0</ele><time>2026-04-26T13:17:22.366Z</time></trkpt><trkpt lat="46.4368757" lon="10.3535243"><ele>1199.0</ele><time>2026-04-26T13:17:23.358Z</time></trkpt><trkpt lat="46.4367927" lon="10.3534569"><ele>1201.0</ele><time>2026-04-26T13:17:24.358Z</time></trkpt><trkpt lat="46.4367182" lon="10.3534004"><ele>1203.0</ele><time>2026-04-26T13:17:25.363Z</time></trkpt><trkpt lat="46.4366521" lon="10.3533551"><ele>1205.0</ele><time>2026-04-26T13:17:26.366Z</time></trkpt><trkpt lat="46.4366009" lon="10.3533003"><ele>1207.0</ele><time>2026-04-26T13:17:27.367Z</time></trkpt><trkpt lat="46.4365712" lon="10.3532169"><ele>1207.0</ele><time>2026-04-26T13:17:28.361Z</time></trkpt><trkpt lat="46.4366011" lon="10.3531346"><ele>1207.0</ele><time>2026-04-26T13:17:29.36Z</time></trkpt><trkpt lat="46.4367382" lon="10.3530548"><ele>1207.0</ele><time>2026-04-26T13:17:31.364Z</time></trkpt><trkpt lat="46.4368435" lon="10.3530414"><ele>1207.0</ele><time>2026-04-26T13:17:32.359Z</time></trkpt><trkpt lat="46.4369669" lon="10.3530509"><ele>1207.0</ele><time>2026-04-26T13:17:33.359Z</time></trkpt><trkpt lat="46.4370922" lon="10.3530524"><ele>1209.6</ele><time>2026-04-26T13:17:34.361Z</time></trkpt><trkpt lat="46.4372217" lon="10.3530692"><ele>1212.2</ele><time>2026-04-26T13:17:35.36Z</time></trkpt><trkpt lat="46.4373371" lon="10.3530965"><ele>1214.8</ele><time>2026-04-26T13:17:36.366Z</time></trkpt><trkpt lat="46.4374216" lon="10.3531267"><ele>1217.4</ele><time>2026-04-26T13:17:37.363Z</time></trkpt><trkpt lat="46.4375031" lon="10.3531255"><ele>1220.0</ele><time>2026-04-26T13:17:38.362Z</time></trkpt><trkpt lat="46.4376072" lon="10.3531129"><ele>1220.0</ele><time>2026-04-26T13:17:39.362Z</time></trkpt><trkpt lat="46.4377184" lon="10.3530935"><ele>1220.0</ele><time>2026-04-26T13:17:40.362Z</time></trkpt><trkpt lat="46.4378236" lon="10.3530797"><ele>1220.0</ele><time>2026-04-26T13:17:41.36Z</time></trkpt><trkpt lat="46.4379105" lon="10.3530466"><ele>1220.0</ele><time>2026-04-26T13:17:42.368Z</time></trkpt><trkpt lat="46.4380098" lon="10.3529976"><ele>1220.0</ele><time>2026-04-26T13:17:43.365Z</time></trkpt><trkpt lat="46.4381281" lon="10.3529466"><ele>1231.0</ele><time>2026-04-26T13:17:44.36Z</time></trkpt><trkpt lat="46.4382508" lon="10.352913"><ele>1242.0</ele><time>2026-04-26T13:17:45.361Z</time></trkpt><trkpt lat="46.438388" lon="10.3528763"><ele>1253.0</ele><time>2026-04-26T13:17:46.368Z</time></trkpt><trkpt lat="46.4385196" lon="10.3528548"><ele>1264.0</ele><time>2026-04-26T13:17:47.361Z</time></trkpt><trkpt lat="46.4386488" lon="10.3528885"><ele>1264.0</ele><time>2026-04-26T13:17:48.364Z</time></trkpt><trkpt lat="46.438786" lon="10.3529136"><ele>1264.0</ele><time>2026-04-26T13:17:49.358Z</time></trkpt><trkpt lat="46.4388988" lon="10.3529315"><ele>1264.0</ele><time>2026-04-26T13:17:50.364Z</time></trkpt><trkpt lat="46.4389694" lon="10.3529818"><ele>1264.0</ele><time>2026-04-26T13:17:51.366Z</time></trkpt><trkpt lat="46.4390386" lon="10.3529756"><ele>1264.0</ele><time>2026-04-26T13:17:52.36Z</time></trkpt><trkpt lat="46.4391605" lon="10.3529336"><ele>1265.5</ele><time>2026-04-26T13:17:54.361Z</time></trkpt><trkpt lat="46.439219" lon="10.3528491"><ele>1267.0</ele><time>2026-04-26T13:17:55.363Z</time></trkpt><trkpt lat="46.4392861" lon="10.3527982"><ele>1268.5</ele><time>2026-04-26T13:17:56.364Z</time></trkpt><trkpt lat="46.4393737" lon="10.3527516"><ele>1270.0</ele><time>2026-04-26T13:17:57.362Z</time></trkpt><trkpt lat="46.4394424" lon="10.3527103"><ele>1271.5</ele><time>2026-04-26T13:17:58.362Z</time></trkpt><trkpt lat="46.4394774" lon="10.3526086"><ele>1273.0</ele><time>2026-04-26T13:18:00.362Z</time></trkpt><trkpt lat="46.4394168" lon="10.3525656"><ele>1273.0</ele><time>2026-04-26T13:18:02.362Z</time></trkpt><trkpt lat="46.4393328" lon="10.352528"><ele>1273.0</ele><time>2026-04-26T13:18:04.368Z</time></trkpt><trkpt lat="46.4394268" lon="10.3524019"><ele>1273.0</ele><time>2026-04-26T13:18:10.363Z</time></trkpt><trkpt lat="46.4395034" lon="10.3523236"><ele>1273.0</ele><time>2026-04-26T13:18:11.36Z</time></trkpt><trkpt lat="46.4395678" lon="10.3522316"><ele>1273.0</ele><time>2026-04-26T13:18:12.364Z</time></trkpt><trkpt lat="46.4396058" lon="10.3520785"><ele>1279.5</ele><time>2026-04-26T13:18:13.359Z</time></trkpt><trkpt lat="46.4396911" lon="10.351961"><ele>1286.0</ele><time>2026-04-26T13:18:14.361Z</time></trkpt><trkpt lat="46.4397925" lon="10.3518518"><ele>1292.5</ele><time>2026-04-26T13:18:15.364Z</time></trkpt><trkpt lat="46.4398883" lon="10.3517559"><ele>1299.0</ele><time>2026-04-26T13:18:16.358Z</time></trkpt><trkpt lat="46.4399747" lon="10.3516644"><ele>1299.0</ele><time>2026-04-26T13:18:17.369Z</time></trkpt><trkpt lat="46.4400675" lon="10.3515631"><ele>1299.0</ele><time>2026-04-26T13:18:18.362Z</time></trkpt><trkpt lat="46.4401536" lon="10.3514771"><ele>1299.0</ele><time>2026-04-26T13:18:19.358Z</time></trkpt><trkpt lat="46.4402223" lon="10.3514362"><ele>1299.0</ele><time>2026-04-26T13:18:20.367Z</time></trkpt><trkpt lat="46.4402928" lon="10.3514239"><ele>1299.0</ele><time>2026-04-26T13:18:21.362Z</time></trkpt><trkpt lat="46.4403627" lon="10.3513926"><ele>1299.0</ele><time>2026-04-26T13:18:22.363Z</time></trkpt><trkpt lat="46.440429" lon="10.3513186"><ele>1301.1666666666667</ele><time>2026-04-26T13:18:23.362Z</time></trkpt><trkpt lat="46.4405013" lon="10.3512437"><ele>1303.3333333333333</ele><time>2026-04-26T13:18:24.364Z</time></trkpt><trkpt lat="46.4405557" lon="10.3511938"><ele>1305.5</ele><time>2026-04-26T13:18:25.364Z</time></trkpt><trkpt lat="46.440629" lon="10.3512145"><ele>1307.6666666666665</ele><time>2026-04-26T13:18:27.368Z</time></trkpt><trkpt lat="46.4406613" lon="10.3513213"><ele>1309.8333333333333</ele><time>2026-04-26T13:18:30.369Z</time></trkpt><trkpt lat="46.4407081" lon="10.3514025"><ele>1312.0</ele><time>2026-04-26T13:18:33.366Z</time></trkpt><trkpt lat="46.4407872" lon="10.3514458"><ele>1312.0</ele><time>2026-04-26T13:18:36.365Z</time></trkpt><trkpt lat="46.4412812" lon="10.3516197"><ele>1319.25</ele><time>2026-04-26T13:18:39.367Z</time></trkpt><trkpt lat="46.4414981" lon="10.3517173"><ele>1326.5</ele><time>2026-04-26T13:18:40.359Z</time></trkpt><trkpt lat="46.4416291" lon="10.3517908"><ele>1333.75</ele><time>2026-04-26T13:18:41.364Z</time></trkpt><trkpt lat="46.4417026" lon="10.3518311"><ele>1341.0</ele><time>2026-04-26T13:18:42.364Z</time></trkpt><trkpt lat="46.4417869" lon="10.3518612"><ele>1341.0</ele><time>2026-04-26T13:18:43.365Z</time></trkpt><trkpt lat="46.4419043" lon="10.3518806"><ele>1341.0</ele><time>2026-04-26T13:18:44.367Z</time></trkpt><trkpt lat="46.4420148" lon="10.351918"><ele>1341.0</ele><time>2026-04-26T13:18:45.362Z</time></trkpt><trkpt lat="46.4420925" lon="10.3519494"><ele>1341.0</ele><time>2026-04-26T13:18:46.363Z</time></trkpt><trkpt lat="46.4421863" lon="10.3519077"><ele>1341.0</ele><time>2026-04-26T13:18:48.368Z</time></trkpt><trkpt lat="46.4422793" lon="10.3517773"><ele>1343.6666666666667</ele><time>2026-04-26T13:18:50.369Z</time></trkpt><trkpt lat="46.4423217" lon="10.351703"><ele>1346.3333333333333</ele><time>2026-04-26T13:18:51.366Z</time></trkpt><trkpt lat="46.4423812" lon="10.3516405"><ele>1349.0</ele><time>2026-04-26T13:18:52.366Z</time></trkpt><trkpt lat="46.44245" lon="10.351584"><ele>1351.6666666666665</ele><time>2026-04-26T13:18:53.365Z</time></trkpt><trkpt lat="46.44253" lon="10.3515509"><ele>1354.3333333333333</ele><time>2026-04-26T13:18:54.362Z</time></trkpt><trkpt lat="46.4426192" lon="10.3516077"><ele>1357.0</ele><time>2026-04-26T13:18:55.363Z</time></trkpt><trkpt lat="46.4427028" lon="10.3516397"><ele>1357.0</ele><time>2026-04-26T13:18:56.364Z</time></trkpt><trkpt lat="46.4427914" lon="10.3516808"><ele>1357.0</ele><time>2026-04-26T13:18:57.364Z</time></trkpt><trkpt lat="46.4428841" lon="10.3517627"><ele>1357.0</ele><time>2026-04-26T13:18:58.365Z</time></trkpt><trkpt lat="46.4429452" lon="10.3518117"><ele>1357.0</ele><time>2026-04-26T13:18:59.366Z</time></trkpt><trkpt lat="46.443052" lon="10.3518133"><ele>1357.0</ele><time>2026-04-26T13:19:01.365Z</time></trkpt><trkpt lat="46.4431309" lon="10.3517979"><ele>1361.25</ele><time>2026-04-26T13:19:02.362Z</time></trkpt><trkpt lat="46.4432427" lon="10.3517537"><ele>1365.5</ele><time>2026-04-26T13:19:03.361Z</time></trkpt><trkpt lat="46.4433732" lon="10.3517161"><ele>1369.75</ele><time>2026-04-26T13:19:04.367Z</time></trkpt><trkpt lat="46.4434892" lon="10.351692"><ele>1374.0</ele><time>2026-04-26T13:19:05.367Z</time></trkpt><trkpt lat="46.4435788" lon="10.3516733"><ele>1374.0</ele><time>2026-04-26T13:19:06.363Z</time></trkpt><trkpt lat="46.4436641" lon="10.3516697"><ele>1374.0</ele><time>2026-04-26T13:19:07.362Z</time></trkpt><trkpt lat="46.443755" lon="10.3516395"><ele>1374.0</ele><time>2026-04-26T13:19:08.358Z</time></trkpt><trkpt lat="46.4438257" lon="10.3515735"><ele>1374.0</ele><time>2026-04-26T13:19:09.36Z</time></trkpt><trkpt lat="46.4439078" lon="10.3514887"><ele>1374.0</ele><time>2026-04-26T13:19:10.358Z</time></trkpt><trkpt lat="46.4439867" lon="10.3514002"><ele>1374.4</ele><time>2026-04-26T13:19:11.36Z</time></trkpt><trkpt lat="46.4440582" lon="10.3513513"><ele>1374.8000000000002</ele><time>2026-04-26T13:19:12.361Z</time></trkpt><trkpt lat="46.4441476" lon="10.351393"><ele>1375.1999999999998</ele><time>2026-04-26T13:19:13.373Z</time></trkpt><trkpt lat="46.4442127" lon="10.3513871"><ele>1375.6</ele><time>2026-04-26T13:19:14.366Z</time></trkpt><trkpt lat="46.4443242" lon="10.3513291"><ele>1376.0</ele><time>2026-04-26T13:19:15.403Z</time></trkpt><trkpt lat="46.444457" lon="10.3513574"><ele>1381.5</ele><time>2026-04-26T13:19:16.361Z</time></trkpt><trkpt lat="46.4445878" lon="10.3513204"><ele>1387.0</ele><time>2026-04-26T13:19:17.361Z</time></trkpt><trkpt lat="46.4447244" lon="10.3513002"><ele>1392.5</ele><time>2026-04-26T13:19:18.36Z</time></trkpt><trkpt lat="46.4448951" lon="10.3513137"><ele>1398.0</ele><time>2026-04-26T13:19:19.36Z</time></trkpt><trkpt lat="46.4450587" lon="10.3513148"><ele>1398.0</ele><time>2026-04-26T13:19:20.359Z</time></trkpt><trkpt lat="46.445203" lon="10.3513634"><ele>1398.0</ele><time>2026-04-26T13:19:21.359Z</time></trkpt><trkpt lat="46.4453467" lon="10.3513928"><ele>1398.0</ele><time>2026-04-26T13:19:22.363Z</time></trkpt><trkpt lat="46.4455007" lon="10.3514092"><ele>1398.0</ele><time>2026-04-26T13:19:23.36Z</time></trkpt><trkpt lat="46.4456609" lon="10.3514063"><ele>1399.0</ele><time>2026-04-26T13:19:24.361Z</time></trkpt><trkpt lat="46.4458111" lon="10.3514102"><ele>1400.0</ele><time>2026-04-26T13:19:25.362Z</time></trkpt><trkpt lat="46.4459619" lon="10.351407"><ele>1401.0</ele><time>2026-04-26T13:19:26.36Z</time></trkpt><trkpt lat="46.4460427" lon="10.3513913"><ele>1402.0</ele><time>2026-04-26T13:19:27.362Z</time></trkpt><trkpt lat="46.4461638" lon="10.3513504"><ele>1402.75</ele><time>2026-04-26T13:19:28.36Z</time></trkpt><trkpt lat="46.4462969" lon="10.3512996"><ele>1403.5</ele><time>2026-04-26T13:19:29.358Z</time></trkpt><trkpt lat="46.44643" lon="10.3512513"><ele>1404.25</ele><time>2026-04-26T13:19:30.36Z</time></trkpt><trkpt lat="46.4465332" lon="10.3512013"><ele>1405.0</ele><time>2026-04-26T13:19:31.365Z</time></trkpt><trkpt lat="46.4466449" lon="10.3512155"><ele>1405.0</ele><time>2026-04-26T13:19:32.361Z</time></trkpt><trkpt lat="46.446766" lon="10.3511891"><ele>1405.0</ele><time>2026-04-26T13:19:33.367Z</time></trkpt><trkpt lat="46.446881" lon="10.3511848"><ele>1405.0</ele><time>2026-04-26T13:19:34.359Z</time></trkpt><trkpt lat="46.4469798" lon="10.3511624"><ele>1405.0</ele><time>2026-04-26T13:19:35.368Z</time></trkpt><trkpt lat="46.4470512" lon="10.3510939"><ele>1405.0</ele><time>2026-04-26T13:19:36.359Z</time></trkpt><trkpt lat="46.4471241" lon="10.3510179"><ele>1403.0</ele><time>2026-04-26T13:19:37.362Z</time></trkpt><trkpt lat="46.4472111" lon="10.3509549"><ele>1401.0</ele><time>2026-04-26T13:19:38.36Z</time></trkpt><trkpt lat="46.4472817" lon="10.3508987"><ele>1399.0</ele><time>2026-04-26T13:19:39.361Z</time></trkpt><trkpt lat="46.4473343" lon="10.3510205"><ele>1397.0</ele><time>2026-04-26T13:19:40.362Z</time></trkpt><trkpt lat="46.4474597" lon="10.3511073"><ele>1395.0</ele><time>2026-04-26T13:19:42.358Z</time></trkpt><trkpt lat="46.4475196" lon="10.3511379"><ele>1395.0</ele><time>2026-04-26T13:19:43.359Z</time></trkpt><trkpt lat="46.4475826" lon="10.351162"><ele>1395.0</ele><time>2026-04-26T13:19:44.364Z</time></trkpt><trkpt lat="46.4476553" lon="10.3512006"><ele>1395.0</ele><time>2026-04-26T13:19:45.361Z</time></trkpt><trkpt lat="46.4477278" lon="10.3512224"><ele>1395.0</ele><time>2026-04-26T13:19:46.363Z</time></trkpt><trkpt lat="46.447809" lon="10.3512297"><ele>1395.0</ele><time>2026-04-26T13:19:47.36Z</time></trkpt><trkpt lat="46.4478899" lon="10.3512454"><ele>1395.0</ele><time>2026-04-26T13:19:48.36Z</time></trkpt><trkpt lat="46.4479781" lon="10.3512539"><ele>1396.2</ele><time>2026-04-26T13:19:49.361Z</time></trkpt><trkpt lat="46.4480943" lon="10.351261"><ele>1397.4</ele><time>2026-04-26T13:19:50.37Z</time></trkpt><trkpt lat="46.4481948" lon="10.351255"><ele>1398.6</ele><time>2026-04-26T13:19:51.362Z</time></trkpt><trkpt lat="46.4482855" lon="10.3512216"><ele>1399.8</ele><time>2026-04-26T13:19:52.364Z</time></trkpt><trkpt lat="46.4483893" lon="10.3511587"><ele>1401.0</ele><time>2026-04-26T13:19:53.36Z</time></trkpt><trkpt lat="46.4485143" lon="10.3510759"><ele>1401.0</ele><time>2026-04-26T13:19:54.361Z</time></trkpt><trkpt lat="46.4486509" lon="10.3509771"><ele>1401.0</ele><time>2026-04-26T13:19:55.367Z</time></trkpt><trkpt lat="46.4487838" lon="10.3508564"><ele>1401.0</ele><time>2026-04-26T13:19:56.362Z</time></trkpt><trkpt lat="46.4489102" lon="10.350748"><ele>1403.1999999999998</ele><time>2026-04-26T13:19:57.363Z</time></trkpt><trkpt lat="46.4490231" lon="10.3506524"><ele>1405.3999999999999</ele><time>2026-04-26T13:19:58.366Z</time></trkpt><trkpt lat="46.4491" lon="10.3506655"><ele>1407.6</ele><time>2026-04-26T13:19:59.362Z</time></trkpt><trkpt lat="46.449174" lon="10.3506463"><ele>1409.8</ele><time>2026-04-26T13:20:00.363Z</time></trkpt><trkpt lat="46.4492647" lon="10.3506784"><ele>1412.0</ele><time>2026-04-26T13:20:01.362Z</time></trkpt><trkpt lat="46.4493479" lon="10.3507059"><ele>1412.0</ele><time>2026-04-26T13:20:02.363Z</time></trkpt><trkpt lat="46.4494381" lon="10.3507188"><ele>1412.0</ele><time>2026-04-26T13:20:03.364Z</time></trkpt><trkpt lat="46.4495155" lon="10.3507122"><ele>1412.0</ele><time>2026-04-26T13:20:04.365Z</time></trkpt><trkpt lat="46.4496042" lon="10.3506863"><ele>1412.0</ele><time>2026-04-26T13:20:05.363Z</time></trkpt><trkpt lat="46.4497062" lon="10.3505477"><ele>1412.0</ele><time>2026-04-26T13:20:06.363Z</time></trkpt><trkpt lat="46.4498132" lon="10.35045"><ele>1418.75</ele><time>2026-04-26T13:20:07.36Z</time></trkpt><trkpt lat="46.4498569" lon="10.3503"><ele>1425.5</ele><time>2026-04-26T13:20:08.365Z</time></trkpt><trkpt lat="46.449928" lon="10.3501792"><ele>1432.25</ele><time>2026-04-26T13:20:09.361Z</time></trkpt><trkpt lat="46.4500314" lon="10.350074"><ele>1439.0</ele><time>2026-04-26T13:20:10.364Z</time></trkpt><trkpt lat="46.450129" lon="10.3499821"><ele>1439.0</ele><time>2026-04-26T13:20:11.366Z</time></trkpt><trkpt lat="46.4502095" lon="10.3498629"><ele>1439.0</ele><time>2026-04-26T13:20:12.362Z</time></trkpt><trkpt lat="46.4502776" lon="10.3498206"><ele>1439.0</ele><time>2026-04-26T13:20:13.358Z</time></trkpt><trkpt lat="46.4503708" lon="10.3497865"><ele>1439.0</ele><time>2026-04-26T13:20:14.365Z</time></trkpt><trkpt lat="46.4504729" lon="10.3497623"><ele>1439.0</ele><time>2026-04-26T13:20:15.361Z</time></trkpt><trkpt lat="46.4506012" lon="10.3497299"><ele>1436.25</ele><time>2026-04-26T13:20:16.362Z</time></trkpt><trkpt lat="46.4507311" lon="10.3497382"><ele>1433.5</ele><time>2026-04-26T13:20:17.365Z</time></trkpt><trkpt lat="46.4508986" lon="10.3497366"><ele>1430.75</ele><time>2026-04-26T13:20:18.36Z</time></trkpt><trkpt lat="46.4510301" lon="10.3497405"><ele>1428.0</ele><time>2026-04-26T13:20:19.363Z</time></trkpt><trkpt lat="46.4511973" lon="10.3497594"><ele>1425.0</ele><time>2026-04-26T13:20:20.365Z</time></trkpt><trkpt lat="46.4513233" lon="10.3497935"><ele>1422.0</ele><time>2026-04-26T13:20:21.36Z</time></trkpt><trkpt lat="46.4514577" lon="10.3498223"><ele>1419.0</ele><time>2026-04-26T13:20:22.359Z</time></trkpt><trkpt lat="46.4515509" lon="10.3498634"><ele>1416.0</ele><time>2026-04-26T13:20:23.365Z</time></trkpt><trkpt lat="46.4516501" lon="10.3498904"><ele>1416.0</ele><time>2026-04-26T13:20:24.363Z</time></trkpt><trkpt lat="46.4517708" lon="10.3498917"><ele>1416.0</ele><time>2026-04-26T13:20:25.36Z</time></trkpt><trkpt lat="46.4519333" lon="10.3499343"><ele>1416.0</ele><time>2026-04-26T13:20:26.364Z</time></trkpt><trkpt lat="46.4520574" lon="10.3499521"><ele>1416.0</ele><time>2026-04-26T13:20:27.366Z</time></trkpt><trkpt lat="46.4521626" lon="10.3499154"><ele>1414.6</ele><time>2026-04-26T13:20:28.361Z</time></trkpt><trkpt lat="46.4522488" lon="10.3498627"><ele>1413.1999999999998</ele><time>2026-04-26T13:20:29.36Z</time></trkpt><trkpt lat="46.4523376" lon="10.3498628"><ele>1411.8000000000002</ele><time>2026-04-26T13:20:30.361Z</time></trkpt><trkpt lat="46.4524281" lon="10.3498424"><ele>1410.4</ele><time>2026-04-26T13:20:31.359Z</time></trkpt><trkpt lat="46.4525528" lon="10.3497829"><ele>1409.0</ele><time>2026-04-26T13:20:33.364Z</time></trkpt><trkpt lat="46.4526146" lon="10.3497432"><ele>1411.8000000000002</ele><time>2026-04-26T13:20:34.367Z</time></trkpt><trkpt lat="46.4526763" lon="10.3496874"><ele>1414.6000000000001</ele><time>2026-04-26T13:20:35.363Z</time></trkpt><trkpt lat="46.4527366" lon="10.3495666"><ele>1417.4</ele><time>2026-04-26T13:20:36.369Z</time></trkpt><trkpt lat="46.452794" lon="10.3494473"><ele>1420.2</ele><time>2026-04-26T13:20:37.357Z</time></trkpt><trkpt lat="46.4528554" lon="10.34932"><ele>1423.0</ele><time>2026-04-26T13:20:38.358Z</time></trkpt><trkpt lat="46.4529195" lon="10.3491829"><ele>1422.6000000000001</ele><time>2026-04-26T13:20:39.359Z</time></trkpt><trkpt lat="46.4529732" lon="10.3490892"><ele>1422.2</ele><time>2026-04-26T13:20:40.36Z</time></trkpt><trkpt lat="46.4530547" lon="10.3490295"><ele>1421.8</ele><time>2026-04-26T13:20:41.364Z</time></trkpt><trkpt lat="46.4531675" lon="10.3490003"><ele>1421.4</ele><time>2026-04-26T13:20:42.36Z</time></trkpt><trkpt lat="46.4532864" lon="10.348959"><ele>1421.0</ele><time>2026-04-26T13:20:43.365Z</time></trkpt><trkpt lat="46.4534014" lon="10.3489118"><ele>1424.6</ele><time>2026-04-26T13:20:44.365Z</time></trkpt><trkpt lat="46.453507" lon="10.3488241"><ele>1428.1999999999998</ele><time>2026-04-26T13:20:45.361Z</time></trkpt><trkpt lat="46.4536142" lon="10.3487685"><ele>1431.8000000000002</ele><time>2026-04-26T13:20:46.363Z</time></trkpt><trkpt lat="46.4537301" lon="10.3487452"><ele>1435.4</ele><time>2026-04-26T13:20:47.363Z</time></trkpt><trkpt lat="46.4538208" lon="10.3487122"><ele>1439.0</ele><time>2026-04-26T13:20:48.36Z</time></trkpt><trkpt lat="46.4539213" lon="10.3486514"><ele>1439.0</ele><time>2026-04-26T13:20:49.358Z</time></trkpt><trkpt lat="46.4540095" lon="10.3486042"><ele>1439.0</ele><time>2026-04-26T13:20:50.36Z</time></trkpt><trkpt lat="46.4540989" lon="10.3486248"><ele>1439.0</ele><time>2026-04-26T13:20:51.362Z</time></trkpt><trkpt lat="46.4542019" lon="10.3486878"><ele>1439.0</ele><time>2026-04-26T13:20:52.369Z</time></trkpt><trkpt lat="46.4542924" lon="10.3487286"><ele>1439.0</ele><time>2026-04-26T13:20:53.36Z</time></trkpt><trkpt lat="46.4543606" lon="10.348743"><ele>1439.0</ele><time>2026-04-26T13:20:54.356Z</time></trkpt><trkpt lat="46.454494" lon="10.3486862"><ele>1439.0</ele><time>2026-04-26T13:20:56.359Z</time></trkpt><trkpt lat="46.4545787" lon="10.3486226"><ele>1439.0</ele><time>2026-04-26T13:20:57.359Z</time></trkpt><trkpt lat="46.454679" lon="10.348513"><ele>1439.0</ele><time>2026-04-26T13:20:58.359Z</time></trkpt><trkpt lat="46.454779" lon="10.3483727"><ele>1438.8000000000002</ele><time>2026-04-26T13:20:59.359Z</time></trkpt><trkpt lat="46.4548728" lon="10.3482437"><ele>1438.6000000000001</ele><time>2026-04-26T13:21:00.362Z</time></trkpt><trkpt lat="46.4549458" lon="10.3481115"><ele>1438.4</ele><time>2026-04-26T13:21:01.361Z</time></trkpt><trkpt lat="46.4549804" lon="10.3479941"><ele>1438.2</ele><time>2026-04-26T13:21:02.37Z</time></trkpt><trkpt lat="46.4550156" lon="10.3478488"><ele>1438.0</ele><time>2026-04-26T13:21:03.369Z</time></trkpt><trkpt lat="46.4550652" lon="10.3476882"><ele>1441.2</ele><time>2026-04-26T13:21:04.36Z</time></trkpt><trkpt lat="46.4551116" lon="10.3475831"><ele>1444.4</ele><time>2026-04-26T13:21:05.365Z</time></trkpt><trkpt lat="46.4551719" lon="10.3474833"><ele>1447.6000000000001</ele><time>2026-04-26T13:21:06.36Z</time></trkpt><trkpt lat="46.4552669" lon="10.3473723"><ele>1450.8000000000002</ele><time>2026-04-26T13:21:07.359Z</time></trkpt><trkpt lat="46.455345" lon="10.3472684"><ele>1454.0</ele><time>2026-04-26T13:21:08.363Z</time></trkpt><trkpt lat="46.4554495" lon="10.3471997"><ele>1455.4</ele><time>2026-04-26T13:21:09.361Z</time></trkpt><trkpt lat="46.4555488" lon="10.3471324"><ele>1456.8000000000002</ele><time>2026-04-26T13:21:10.362Z</time></trkpt><trkpt lat="46.4556286" lon="10.3470482"><ele>1458.1999999999998</ele><time>2026-04-26T13:21:11.359Z</time></trkpt><trkpt lat="46.4557119" lon="10.3469475"><ele>1459.6</ele><time>2026-04-26T13:21:12.362Z</time></trkpt><trkpt lat="46.4557848" lon="10.3468691"><ele>1461.0</ele><time>2026-04-26T13:21:13.361Z</time></trkpt><trkpt lat="46.4558438" lon="10.3468318"><ele>1461.0</ele><time>2026-04-26T13:21:14.36Z</time></trkpt><trkpt lat="46.4559595" lon="10.3469295"><ele>1461.0</ele><time>2026-04-26T13:21:16.361Z</time></trkpt><trkpt lat="46.4560106" lon="10.34703"><ele>1461.0</ele><time>2026-04-26T13:21:17.361Z</time></trkpt><trkpt lat="46.4560644" lon="10.3471371"><ele>1461.0</ele><time>2026-04-26T13:21:18.364Z</time></trkpt><trkpt lat="46.4561342" lon="10.3472285"><ele>1461.0</ele><time>2026-04-26T13:21:19.358Z</time></trkpt><trkpt lat="46.4562079" lon="10.3472851"><ele>1459.5</ele><time>2026-04-26T13:21:20.364Z</time></trkpt><trkpt lat="46.4562828" lon="10.3473154"><ele>1458.0</ele><time>2026-04-26T13:21:21.36Z</time></trkpt><trkpt lat="46.456373" lon="10.34735"><ele>1456.5</ele><time>2026-04-26T13:21:22.363Z</time></trkpt><trkpt lat="46.4564615" lon="10.347397"><ele>1455.0</ele><time>2026-04-26T13:21:23.36Z</time></trkpt><trkpt lat="46.4565375" lon="10.3474494"><ele>1453.5</ele><time>2026-04-26T13:21:24.36Z</time></trkpt><trkpt lat="46.4565968" lon="10.3474934"><ele>1452.0</ele><time>2026-04-26T13:21:25.362Z</time></trkpt><trkpt lat="46.4566655" lon="10.3475055"><ele>1452.0</ele><time>2026-04-26T13:21:27.363Z</time></trkpt><trkpt lat="46.4566868" lon="10.3473947"><ele>1452.0</ele><time>2026-04-26T13:21:29.365Z</time></trkpt><trkpt lat="46.4566944" lon="10.3472815"><ele>1452.0</ele><time>2026-04-26T13:21:30.368Z</time></trkpt><trkpt lat="46.4567096" lon="10.3471433"><ele>1452.0</ele><time>2026-04-26T13:21:31.365Z</time></trkpt><trkpt lat="46.4567603" lon="10.3470095"><ele>1452.0</ele><time>2026-04-26T13:21:32.357Z</time></trkpt><trkpt lat="46.4568169" lon="10.3468442"><ele>1454.75</ele><time>2026-04-26T13:21:33.363Z</time></trkpt><trkpt lat="46.4568692" lon="10.3466668"><ele>1457.5</ele><time>2026-04-26T13:21:34.362Z</time></trkpt><trkpt lat="46.4569258" lon="10.3465169"><ele>1460.25</ele><time>2026-04-26T13:21:35.364Z</time></trkpt><trkpt lat="46.4569952" lon="10.3463944"><ele>1463.0</ele><time>2026-04-26T13:21:36.363Z</time></trkpt><trkpt lat="46.4570629" lon="10.3463016"><ele>1460.5</ele><time>2026-04-26T13:21:37.361Z</time></trkpt><trkpt lat="46.4571269" lon="10.3462371"><ele>1458.0</ele><time>2026-04-26T13:21:38.361Z</time></trkpt><trkpt lat="46.4571771" lon="10.3461586"><ele>1455.5</ele><time>2026-04-26T13:21:39.362Z</time></trkpt><trkpt lat="46.4572122" lon="10.3460471"><ele>1453.0</ele><time>2026-04-26T13:21:40.36Z</time></trkpt><trkpt lat="46.4572325" lon="10.3459301"><ele>1450.5</ele><time>2026-04-26T13:21:41.366Z</time></trkpt><trkpt lat="46.4572548" lon="10.3458142"><ele>1448.0</ele><time>2026-04-26T13:21:42.368Z</time></trkpt><trkpt lat="46.4572663" lon="10.3457052"><ele>1448.0</ele><time>2026-04-26T13:21:43.365Z</time></trkpt><trkpt lat="46.4572983" lon="10.3456116"><ele>1448.0</ele><time>2026-04-26T13:21:44.366Z</time></trkpt><trkpt lat="46.4573031" lon="10.3454868"><ele>1448.0</ele><time>2026-04-26T13:21:45.366Z</time></trkpt><trkpt lat="46.4573226" lon="10.3453332"><ele>1448.0</ele><time>2026-04-26T13:21:46.362Z</time></trkpt><trkpt lat="46.4573684" lon="10.3451618"><ele>1448.0</ele><time>2026-04-26T13:21:47.367Z</time></trkpt><trkpt lat="46.4574474" lon="10.3449976"><ele>1453.25</ele><time>2026-04-26T13:21:48.359Z</time></trkpt><trkpt lat="46.4575401" lon="10.3448456"><ele>1458.5</ele><time>2026-04-26T13:21:49.361Z</time></trkpt><trkpt lat="46.4576321" lon="10.3446813"><ele>1463.75</ele><time>2026-04-26T13:21:50.363Z</time></trkpt><trkpt lat="46.4577636" lon="10.3445415"><ele>1469.0</ele><time>2026-04-26T13:21:51.365Z</time></trkpt><trkpt lat="46.4578977" lon="10.3444141"><ele>1470.75</ele><time>2026-04-26T13:21:52.364Z</time></trkpt><trkpt lat="46.458036" lon="10.344299"><ele>1472.5</ele><time>2026-04-26T13:21:53.363Z</time></trkpt><trkpt lat="46.458159" lon="10.3442858"><ele>1474.25</ele><time>2026-04-26T13:21:54.362Z</time></trkpt><trkpt lat="46.4582685" lon="10.3442349"><ele>1476.0</ele><time>2026-04-26T13:21:55.359Z</time></trkpt><trkpt lat="46.4583758" lon="10.3441701"><ele>1476.0</ele><time>2026-04-26T13:21:56.366Z</time></trkpt><trkpt lat="46.458428" lon="10.344112"><ele>1476.0</ele><time>2026-04-26T13:21:57.364Z</time></trkpt><trkpt lat="46.4584954" lon="10.3439911"><ele>1476.0</ele><time>2026-04-26T13:21:59.362Z</time></trkpt><trkpt lat="46.4585351" lon="10.343878"><ele>1476.0</ele><time>2026-04-26T13:22:01.366Z</time></trkpt><trkpt lat="46.4585815" lon="10.3438161"><ele>1476.0</ele><time>2026-04-26T13:22:03.361Z</time></trkpt><trkpt lat="46.4587016" lon="10.3437381"><ele>1477.4</ele><time>2026-04-26T13:22:05.358Z</time></trkpt><trkpt lat="46.4587637" lon="10.343674"><ele>1478.8</ele><time>2026-04-26T13:22:06.365Z</time></trkpt><trkpt lat="46.4588727" lon="10.343643"><ele>1480.2</ele><time>2026-04-26T13:22:08.366Z</time></trkpt><trkpt lat="46.4589484" lon="10.3437603"><ele>1481.6000000000001</ele><time>2026-04-26T13:22:10.358Z</time></trkpt><trkpt lat="46.4589831" lon="10.3438932"><ele>1483.0</ele><time>2026-04-26T13:22:11.369Z</time></trkpt><trkpt lat="46.4590167" lon="10.3440629"><ele>1483.0</ele><time>2026-04-26T13:22:12.366Z</time></trkpt><trkpt lat="46.4590331" lon="10.3441967"><ele>1483.0</ele><time>2026-04-26T13:22:13.36Z</time></trkpt><trkpt lat="46.4590551" lon="10.3443324"><ele>1483.0</ele><time>2026-04-26T13:22:14.359Z</time></trkpt><trkpt lat="46.4590808" lon="10.3444568"><ele>1483.0</ele><time>2026-04-26T13:22:15.36Z</time></trkpt><trkpt lat="46.4590988" lon="10.3445649"><ele>1483.0</ele><time>2026-04-26T13:22:16.367Z</time></trkpt><trkpt lat="46.4590878" lon="10.3446834"><ele>1483.0</ele><time>2026-04-26T13:22:17.36Z</time></trkpt><trkpt lat="46.4590382" lon="10.3448567"><ele>1481.8000000000002</ele><time>2026-04-26T13:22:18.361Z</time></trkpt><trkpt lat="46.4590062" lon="10.3450022"><ele>1480.6</ele><time>2026-04-26T13:22:19.364Z</time></trkpt><trkpt lat="46.4589886" lon="10.3451394"><ele>1479.4</ele><time>2026-04-26T13:22:20.361Z</time></trkpt><trkpt lat="46.4590129" lon="10.3452814"><ele>1478.1999999999998</ele><time>2026-04-26T13:22:21.358Z</time></trkpt><trkpt lat="46.4590345" lon="10.3454162"><ele>1477.0</ele><time>2026-04-26T13:22:22.369Z</time></trkpt><trkpt lat="46.4590761" lon="10.3455417"><ele>1473.25</ele><time>2026-04-26T13:22:23.365Z</time></trkpt><trkpt lat="46.4591589" lon="10.3457492"><ele>1469.5</ele><time>2026-04-26T13:22:24.369Z</time></trkpt><trkpt lat="46.4592081" lon="10.3459467"><ele>1465.75</ele><time>2026-04-26T13:22:25.356Z</time></trkpt><trkpt lat="46.4592372" lon="10.3461364"><ele>1462.0</ele><time>2026-04-26T13:22:26.358Z</time></trkpt><trkpt lat="46.4592545" lon="10.3462727"><ele>1460.0</ele><time>2026-04-26T13:22:27.359Z</time></trkpt><trkpt lat="46.4592933" lon="10.3464201"><ele>1458.0</ele><time>2026-04-26T13:22:28.363Z</time></trkpt><trkpt lat="46.4593337" lon="10.3465611"><ele>1456.0</ele><time>2026-04-26T13:22:29.363Z</time></trkpt><trkpt lat="46.4593576" lon="10.3466844"><ele>1454.0</ele><time>2026-04-26T13:22:30.36Z</time></trkpt><trkpt lat="46.4593976" lon="10.3467712"><ele>1452.0</ele><time>2026-04-26T13:22:31.365Z</time></trkpt><trkpt lat="46.4594422" lon="10.3468429"><ele>1450.0</ele><time>2026-04-26T13:22:32.359Z</time></trkpt><trkpt lat="46.4594936" lon="10.3469069"><ele>1450.0</ele><time>2026-04-26T13:22:33.359Z</time></trkpt><trkpt lat="46.4596085" lon="10.3469369"><ele>1450.0</ele><time>2026-04-26T13:22:35.366Z</time></trkpt><trkpt lat="46.4596867" lon="10.3468904"><ele>1450.0</ele><time>2026-04-26T13:22:36.361Z</time></trkpt><trkpt lat="46.4597817" lon="10.3468315"><ele>1450.0</ele><time>2026-04-26T13:22:37.363Z</time></trkpt><trkpt lat="46.4598736" lon="10.346748"><ele>1450.0</ele><time>2026-04-26T13:22:38.366Z</time></trkpt><trkpt lat="46.45995" lon="10.3466625"><ele>1453.4</ele><time>2026-04-26T13:22:39.363Z</time></trkpt><trkpt lat="46.4600267" lon="10.3466078"><ele>1456.8</ele><time>2026-04-26T13:22:40.358Z</time></trkpt><trkpt lat="46.460117" lon="10.3465895"><ele>1460.1999999999998</ele><time>2026-04-26T13:22:41.363Z</time></trkpt><trkpt lat="46.4602251" lon="10.3466121"><ele>1463.6</ele><time>2026-04-26T13:22:42.361Z</time></trkpt><trkpt lat="46.4603389" lon="10.346644"><ele>1467.0</ele><time>2026-04-26T13:22:43.358Z</time></trkpt><trkpt lat="46.4604695" lon="10.3467001"><ele>1469.5</ele><time>2026-04-26T13:22:44.362Z</time></trkpt><trkpt lat="46.4606005" lon="10.3467533"><ele>1472.0</ele><time>2026-04-26T13:22:45.358Z</time></trkpt><trkpt lat="46.4607373" lon="10.346803"><ele>1474.5</ele><time>2026-04-26T13:22:46.361Z</time></trkpt><trkpt lat="46.4608622" lon="10.346853"><ele>1477.0</ele><time>2026-04-26T13:22:47.362Z</time></trkpt><trkpt lat="46.4609708" lon="10.3468989"><ele>1477.0</ele><time>2026-04-26T13:22:48.36Z</time></trkpt><trkpt lat="46.4610645" lon="10.3469564"><ele>1477.0</ele><time>2026-04-26T13:22:49.365Z</time></trkpt><trkpt lat="46.4611459" lon="10.347031"><ele>1477.0</ele><time>2026-04-26T13:22:50.36Z</time></trkpt><trkpt lat="46.461221" lon="10.3471164"><ele>1477.0</ele><time>2026-04-26T13:22:51.365Z</time></trkpt><trkpt lat="46.4612786" lon="10.3471949"><ele>1477.0</ele><time>2026-04-26T13:22:52.361Z</time></trkpt><trkpt lat="46.4613186" lon="10.3472668"><ele>1477.0</ele><time>2026-04-26T13:22:53.361Z</time></trkpt><trkpt lat="46.4613747" lon="10.3473893"><ele>1476.3999999999999</ele><time>2026-04-26T13:22:55.365Z</time></trkpt><trkpt lat="46.461479" lon="10.3474735"><ele>1475.8</ele><time>2026-04-26T13:22:57.37Z</time></trkpt><trkpt lat="46.4615856" lon="10.3475165"><ele>1475.2</ele><time>2026-04-26T13:22:59.362Z</time></trkpt><trkpt lat="46.4616519" lon="10.3475393"><ele>1474.6</ele><time>2026-04-26T13:23:00.362Z</time></trkpt><trkpt lat="46.4617286" lon="10.3475697"><ele>1474.0</ele><time>2026-04-26T13:23:01.362Z</time></trkpt><trkpt lat="46.4618139" lon="10.3475916"><ele>1474.0</ele><time>2026-04-26T13:23:02.363Z</time></trkpt><trkpt lat="46.4619001" lon="10.3476077"><ele>1474.0</ele><time>2026-04-26T13:23:03.364Z</time></trkpt><trkpt lat="46.4619872" lon="10.347608"><ele>1474.0</ele><time>2026-04-26T13:23:04.359Z</time></trkpt><trkpt lat="46.4620716" lon="10.3476162"><ele>1474.0</ele><time>2026-04-26T13:23:05.363Z</time></trkpt><trkpt lat="46.4621491" lon="10.3476226"><ele>1474.0</ele><time>2026-04-26T13:23:06.362Z</time></trkpt><trkpt lat="46.4622256" lon="10.3476289"><ele>1474.0</ele><time>2026-04-26T13:23:07.362Z</time></trkpt><trkpt lat="46.4623031" lon="10.347636"><ele>1474.6666666666665</ele><time>2026-04-26T13:23:08.361Z</time></trkpt><trkpt lat="46.4623833" lon="10.3476426"><ele>1475.3333333333333</ele><time>2026-04-26T13:23:09.364Z</time></trkpt><trkpt lat="46.4624487" lon="10.347588"><ele>1476.0</ele><time>2026-04-26T13:23:10.36Z</time></trkpt><trkpt lat="46.4625188" lon="10.3475472"><ele>1476.6666666666667</ele><time>2026-04-26T13:23:11.366Z</time></trkpt><trkpt lat="46.4625849" lon="10.3475194"><ele>1477.3333333333335</ele><time>2026-04-26T13:23:12.361Z</time></trkpt><trkpt lat="46.4626484" lon="10.3475079"><ele>1478.0</ele><time>2026-04-26T13:23:13.362Z</time></trkpt><trkpt lat="46.4627713" lon="10.3474795"><ele>1478.0</ele><time>2026-04-26T13:23:15.363Z</time></trkpt><trkpt lat="46.4628681" lon="10.3473564"><ele>1478.0</ele><time>2026-04-26T13:23:17.364Z</time></trkpt><trkpt lat="46.462924" lon="10.3472621"><ele>1478.0</ele><time>2026-04-26T13:23:19.363Z</time></trkpt><trkpt lat="46.462889" lon="10.3471545"><ele>1478.0</ele><time>2026-04-26T13:23:28.371Z</time></trkpt><trkpt lat="46.4628438" lon="10.3470269"><ele>1478.0</ele><time>2026-04-26T13:23:30.358Z</time></trkpt><trkpt lat="46.4628069" lon="10.3469322"><ele>1478.8000000000002</ele><time>2026-04-26T13:23:31.371Z</time></trkpt><trkpt lat="46.4627636" lon="10.346818"><ele>1479.6</ele><time>2026-04-26T13:23:32.369Z</time></trkpt><trkpt lat="46.4627216" lon="10.3467108"><ele>1480.4</ele><time>2026-04-26T13:23:33.364Z</time></trkpt><trkpt lat="46.4626892" lon="10.3465871"><ele>1481.1999999999998</ele><time>2026-04-26T13:23:34.362Z</time></trkpt><trkpt lat="46.4626387" lon="10.346479"><ele>1482.0</ele><time>2026-04-26T13:23:35.362Z</time></trkpt><trkpt lat="46.4625982" lon="10.3463512"><ele>1482.8333333333333</ele><time>2026-04-26T13:23:36.365Z</time></trkpt><trkpt lat="46.4625572" lon="10.3462303"><ele>1483.6666666666667</ele><time>2026-04-26T13:23:37.365Z</time></trkpt><trkpt lat="46.4625008" lon="10.3461187"><ele>1484.5</ele><time>2026-04-26T13:23:38.366Z</time></trkpt><trkpt lat="46.4624458" lon="10.3460159"><ele>1485.3333333333335</ele><time>2026-04-26T13:23:39.359Z</time></trkpt><trkpt lat="46.4624082" lon="10.3458934"><ele>1486.1666666666667</ele><time>2026-04-26T13:23:40.358Z</time></trkpt><trkpt lat="46.462373" lon="10.3458139"><ele>1487.0</ele><time>2026-04-26T13:23:41.358Z</time></trkpt><trkpt lat="46.4623295" lon="10.3457244"><ele>1487.0</ele><time>2026-04-26T13:23:42.36Z</time></trkpt><trkpt lat="46.4623077" lon="10.3456159"><ele>1487.0</ele><time>2026-04-26T13:23:44.358Z</time></trkpt><trkpt lat="46.4622379" lon="10.3454475"><ele>1487.0</ele><time>2026-04-26T13:23:46.359Z</time></trkpt><trkpt lat="46.4621972" lon="10.3453479"><ele>1487.0</ele><time>2026-04-26T13:23:47.37Z</time></trkpt><trkpt lat="46.4621496" lon="10.3452154"><ele>1487.0</ele><time>2026-04-26T13:23:49.357Z</time></trkpt><trkpt lat="46.4620808" lon="10.3450946"><ele>1489.75</ele><time>2026-04-26T13:23:51.363Z</time></trkpt><trkpt lat="46.4620022" lon="10.3450207"><ele>1492.5</ele><time>2026-04-26T13:23:52.368Z</time></trkpt><trkpt lat="46.4619276" lon="10.3449434"><ele>1495.25</ele><time>2026-04-26T13:23:53.361Z</time></trkpt><trkpt lat="46.4617964" lon="10.3448475"><ele>1498.0</ele><time>2026-04-26T13:23:54.364Z</time></trkpt><trkpt lat="46.461681" lon="10.3447503"><ele>1500.0</ele><time>2026-04-26T13:23:55.359Z</time></trkpt><trkpt lat="46.4615795" lon="10.344662"><ele>1502.0</ele><time>2026-04-26T13:23:56.359Z</time></trkpt><trkpt lat="46.4614753" lon="10.3445903"><ele>1504.0</ele><time>2026-04-26T13:23:57.36Z</time></trkpt><trkpt lat="46.4613664" lon="10.3445438"><ele>1506.0</ele><time>2026-04-26T13:23:58.361Z</time></trkpt><trkpt lat="46.4612356" lon="10.3445132"><ele>1506.25</ele><time>2026-04-26T13:23:59.36Z</time></trkpt><trkpt lat="46.4611114" lon="10.3444903"><ele>1506.5</ele><time>2026-04-26T13:24:00.362Z</time></trkpt><trkpt lat="46.4609712" lon="10.3444594"><ele>1506.75</ele><time>2026-04-26T13:24:01.357Z</time></trkpt><trkpt lat="46.4608544" lon="10.3444348"><ele>1507.0</ele><time>2026-04-26T13:24:02.358Z</time></trkpt><trkpt lat="46.4607544" lon="10.3444042"><ele>1507.0</ele><time>2026-04-26T13:24:03.361Z</time></trkpt><trkpt lat="46.4606583" lon="10.3443561"><ele>1507.0</ele><time>2026-04-26T13:24:04.36Z</time></trkpt><trkpt lat="46.4605719" lon="10.3442932"><ele>1507.0</ele><time>2026-04-26T13:24:05.361Z</time></trkpt><trkpt lat="46.4605038" lon="10.3442199"><ele>1507.0</ele><time>2026-04-26T13:24:06.36Z</time></trkpt><trkpt lat="46.4604613" lon="10.3441341"><ele>1507.0</ele><time>2026-04-26T13:24:07.36Z</time></trkpt><trkpt lat="46.4604207" lon="10.3440415"><ele>1507.0</ele><time>2026-04-26T13:24:08.36Z</time></trkpt><trkpt lat="46.4603758" lon="10.3439335"><ele>1509.3333333333333</ele><time>2026-04-26T13:24:09.359Z</time></trkpt><trkpt lat="46.4603278" lon="10.3438146"><ele>1511.6666666666665</ele><time>2026-04-26T13:24:10.361Z</time></trkpt><trkpt lat="46.4603002" lon="10.3437049"><ele>1514.0</ele><time>2026-04-26T13:24:11.36Z</time></trkpt><trkpt lat="46.4602744" lon="10.3436005"><ele>1516.3333333333333</ele><time>2026-04-26T13:24:12.361Z</time></trkpt><trkpt lat="46.4602577" lon="10.3434838"><ele>1518.6666666666667</ele><time>2026-04-26T13:24:13.361Z</time></trkpt><trkpt lat="46.4602527" lon="10.3433484"><ele>1521.0</ele><time>2026-04-26T13:24:14.36Z</time></trkpt><trkpt lat="46.4602482" lon="10.3432216"><ele>1521.0</ele><time>2026-04-26T13:24:15.361Z</time></trkpt><trkpt lat="46.4602469" lon="10.3431225"><ele>1521.0</ele><time>2026-04-26T13:24:16.362Z</time></trkpt><trkpt lat="46.4602498" lon="10.3429796"><ele>1521.0</ele><time>2026-04-26T13:24:18.361Z</time></trkpt><trkpt lat="46.4602528" lon="10.3428107"><ele>1521.0</ele><time>2026-04-26T13:24:20.366Z</time></trkpt><trkpt lat="46.4602571" lon="10.3426954"><ele>1521.0</ele><time>2026-04-26T13:24:21.364Z</time></trkpt><trkpt lat="46.4602521" lon="10.3425432"><ele>1522.5</ele><time>2026-04-26T13:24:22.364Z</time></trkpt><trkpt lat="46.4602482" lon="10.3423523"><ele>1524.0</ele><time>2026-04-26T13:24:23.36Z</time></trkpt><trkpt lat="46.4602551" lon="10.3421842"><ele>1525.5</ele><time>2026-04-26T13:24:24.361Z</time></trkpt><trkpt lat="46.4602492" lon="10.3420586"><ele>1527.0</ele><time>2026-04-26T13:24:25.363Z</time></trkpt><trkpt lat="46.4602003" lon="10.3418826"><ele>1528.6</ele><time>2026-04-26T13:24:27.358Z</time></trkpt><trkpt lat="46.4600629" lon="10.3417349"><ele>1530.1999999999998</ele><time>2026-04-26T13:24:29.363Z</time></trkpt><trkpt lat="46.4600065" lon="10.341651"><ele>1531.8</ele><time>2026-04-26T13:24:30.365Z</time></trkpt><trkpt lat="46.4600027" lon="10.3415325"><ele>1533.4</ele><time>2026-04-26T13:24:31.362Z</time></trkpt><trkpt lat="46.4599812" lon="10.3414161"><ele>1535.0</ele><time>2026-04-26T13:24:32.365Z</time></trkpt><trkpt lat="46.4599731" lon="10.3412621"><ele>1537.4</ele><time>2026-04-26T13:24:34.365Z</time></trkpt><trkpt lat="46.4599586" lon="10.3411363"><ele>1539.8</ele><time>2026-04-26T13:24:36.363Z</time></trkpt><trkpt lat="46.4599176" lon="10.3410028"><ele>1542.1999999999998</ele><time>2026-04-26T13:24:38.363Z</time></trkpt><trkpt lat="46.4598551" lon="10.3408607"><ele>1544.6</ele><time>2026-04-26T13:24:40.369Z</time></trkpt><trkpt lat="46.4598016" lon="10.3407691"><ele>1547.0</ele><time>2026-04-26T13:24:41.366Z</time></trkpt><trkpt lat="46.4597551" lon="10.340679"><ele>1547.0</ele><time>2026-04-26T13:24:42.366Z</time></trkpt><trkpt lat="46.4596875" lon="10.3405877"><ele>1547.0</ele><time>2026-04-26T13:24:43.367Z</time></trkpt><trkpt lat="46.4596162" lon="10.3404908"><ele>1547.0</ele><time>2026-04-26T13:24:44.362Z</time></trkpt><trkpt lat="46.4595584" lon="10.3404003"><ele>1547.0</ele><time>2026-04-26T13:24:45.375Z</time></trkpt><trkpt lat="46.4594937" lon="10.3403444"><ele>1547.0</ele><time>2026-04-26T13:24:46.361Z</time></trkpt><trkpt lat="46.459366" lon="10.3403411"><ele>1546.4999999999998</ele><time>2026-04-26T13:24:48.363Z</time></trkpt><trkpt lat="46.4593019" lon="10.3403854"><ele>1546.0</ele><time>2026-04-26T13:24:49.366Z</time></trkpt><trkpt lat="46.4592444" lon="10.3404417"><ele>1545.5</ele><time>2026-04-26T13:24:50.359Z</time></trkpt><trkpt lat="46.4592255" lon="10.3406075"><ele>1545.0</ele><time>2026-04-26T13:24:52.361Z</time></trkpt><trkpt lat="46.4592483" lon="10.3407565"><ele>1544.4999999999998</ele><time>2026-04-26T13:24:53.362Z</time></trkpt><trkpt lat="46.4592695" lon="10.3408798"><ele>1544.0</ele><time>2026-04-26T13:24:54.369Z</time></trkpt><trkpt lat="46.4592792" lon="10.3409835"><ele>1544.0</ele><time>2026-04-26T13:24:55.366Z</time></trkpt><trkpt lat="46.4592815" lon="10.3410853"><ele>1544.0</ele><time>2026-04-26T13:24:56.362Z</time></trkpt><trkpt lat="46.4592155" lon="10.3411468"><ele>1544.0</ele><time>2026-04-26T13:24:57.361Z</time></trkpt><trkpt lat="46.4591199" lon="10.3412094"><ele>1544.0</ele><time>2026-04-26T13:24:58.362Z</time></trkpt><trkpt lat="46.459062" lon="10.3412914"><ele>1544.0</ele><time>2026-04-26T13:24:59.366Z</time></trkpt><trkpt lat="46.4589371" lon="10.341351"><ele>1542.6</ele><time>2026-04-26T13:25:00.363Z</time></trkpt><trkpt lat="46.4588257" lon="10.3414179"><ele>1541.2</ele><time>2026-04-26T13:25:01.361Z</time></trkpt><trkpt lat="46.4587326" lon="10.3414691"><ele>1539.8</ele><time>2026-04-26T13:25:02.359Z</time></trkpt><trkpt lat="46.4586407" lon="10.3415403"><ele>1538.3999999999999</ele><time>2026-04-26T13:25:03.358Z</time></trkpt><trkpt lat="46.458568" lon="10.3415938"><ele>1537.0</ele><time>2026-04-26T13:25:04.361Z</time></trkpt><trkpt lat="46.4584804" lon="10.3416445"><ele>1542.1999999999998</ele><time>2026-04-26T13:25:06.358Z</time></trkpt><trkpt lat="46.4583836" lon="10.3416008"><ele>1547.4</ele><time>2026-04-26T13:25:07.364Z</time></trkpt><trkpt lat="46.4582973" lon="10.3415343"><ele>1552.6</ele><time>2026-04-26T13:25:08.367Z</time></trkpt><trkpt lat="46.4582044" lon="10.3414891"><ele>1557.8000000000002</ele><time>2026-04-26T13:25:09.362Z</time></trkpt><trkpt lat="46.4581182" lon="10.3414825"><ele>1563.0</ele><time>2026-04-26T13:25:10.373Z</time></trkpt><trkpt lat="46.4580209" lon="10.3414819"><ele>1566.2</ele><time>2026-04-26T13:25:11.36Z</time></trkpt><trkpt lat="46.4579198" lon="10.3415101"><ele>1569.4</ele><time>2026-04-26T13:25:12.359Z</time></trkpt><trkpt lat="46.4578325" lon="10.34154"><ele>1572.6000000000001</ele><time>2026-04-26T13:25:13.363Z</time></trkpt><trkpt lat="46.4577378" lon="10.3415511"><ele>1575.8000000000002</ele><time>2026-04-26T13:25:14.359Z</time></trkpt><trkpt lat="46.4576111" lon="10.3415549"><ele>1579.0</ele><time>2026-04-26T13:25:15.363Z</time></trkpt><trkpt lat="46.4574938" lon="10.3415761"><ele>1579.0</ele><time>2026-04-26T13:25:16.36Z</time></trkpt><trkpt lat="46.4573741" lon="10.3415975"><ele>1579.0</ele><time>2026-04-26T13:25:17.359Z</time></trkpt><trkpt lat="46.4572442" lon="10.3416451"><ele>1579.0</ele><time>2026-04-26T13:25:18.359Z</time></trkpt><trkpt lat="46.4571225" lon="10.3416765"><ele>1579.0</ele><time>2026-04-26T13:25:19.359Z</time></trkpt><trkpt lat="46.4570053" lon="10.341722"><ele>1584.0</ele><time>2026-04-26T13:25:20.358Z</time></trkpt><trkpt lat="46.456886" lon="10.341774"><ele>1589.0</ele><time>2026-04-26T13:25:21.365Z</time></trkpt><trkpt lat="46.4567401" lon="10.3418196"><ele>1594.0</ele><time>2026-04-26T13:25:22.357Z</time></trkpt><trkpt lat="46.456618" lon="10.34185"><ele>1599.0</ele><time>2026-04-26T13:25:23.36Z</time></trkpt><trkpt lat="46.4564667" lon="10.341818"><ele>1599.0</ele><time>2026-04-26T13:25:25.359Z</time></trkpt><trkpt lat="46.456365" lon="10.3417522"><ele>1599.0</ele><time>2026-04-26T13:25:27.368Z</time></trkpt><trkpt lat="46.456281" lon="10.3417209"><ele>1599.0</ele><time>2026-04-26T13:25:28.361Z</time></trkpt><trkpt lat="46.4561951" lon="10.3416957"><ele>1599.0</ele><time>2026-04-26T13:25:29.363Z</time></trkpt><trkpt lat="46.4561019" lon="10.3416356"><ele>1599.0</ele><time>2026-04-26T13:25:30.366Z</time></trkpt><trkpt lat="46.4560045" lon="10.3415904"><ele>1601.8000000000002</ele><time>2026-04-26T13:25:31.364Z</time></trkpt><trkpt lat="46.4559305" lon="10.3415725"><ele>1604.6000000000001</ele><time>2026-04-26T13:25:32.36Z</time></trkpt><trkpt lat="46.4558409" lon="10.3415706"><ele>1607.4</ele><time>2026-04-26T13:25:33.361Z</time></trkpt><trkpt lat="46.4557432" lon="10.3415548"><ele>1610.2</ele><time>2026-04-26T13:25:34.365Z</time></trkpt><trkpt lat="46.4556296" lon="10.3416416"><ele>1613.0</ele><time>2026-04-26T13:25:35.361Z</time></trkpt><trkpt lat="46.455538" lon="10.3417237"><ele>1616.6000000000001</ele><time>2026-04-26T13:25:36.36Z</time></trkpt><trkpt lat="46.4554397" lon="10.3417764"><ele>1620.2</ele><time>2026-04-26T13:25:37.359Z</time></trkpt><trkpt lat="46.4553279" lon="10.3418399"><ele>1623.8</ele><time>2026-04-26T13:25:38.36Z</time></trkpt><trkpt lat="46.4552323" lon="10.3419407"><ele>1627.4</ele><time>2026-04-26T13:25:39.365Z</time></trkpt><trkpt lat="46.4551462" lon="10.3420248"><ele>1631.0</ele><time>2026-04-26T13:25:40.36Z</time></trkpt><trkpt lat="46.4550415" lon="10.3420533"><ele>1631.0</ele><time>2026-04-26T13:25:41.362Z</time></trkpt><trkpt lat="46.4549605" lon="10.342082"><ele>1631.0</ele><time>2026-04-26T13:25:42.36Z</time></trkpt><trkpt lat="46.454892" lon="10.3420829"><ele>1631.0</ele><time>2026-04-26T13:25:43.361Z</time></trkpt><trkpt lat="46.4548067" lon="10.3418737"><ele>1631.0</ele><time>2026-04-26T13:25:45.365Z</time></trkpt><trkpt lat="46.4547403" lon="10.3417758"><ele>1631.0</ele><time>2026-04-26T13:25:46.366Z</time></trkpt><trkpt lat="46.4546694" lon="10.341692"><ele>1632.25</ele><time>2026-04-26T13:25:47.366Z</time></trkpt><trkpt lat="46.4545895" lon="10.3416253"><ele>1633.5</ele><time>2026-04-26T13:25:48.363Z</time></trkpt><trkpt lat="46.4544813" lon="10.3415859"><ele>1634.75</ele><time>2026-04-26T13:25:49.36Z</time></trkpt><trkpt lat="46.4543462" lon="10.3415414"><ele>1636.0</ele><time>2026-04-26T13:25:50.361Z</time></trkpt><trkpt lat="46.4541768" lon="10.3416099"><ele>1636.0</ele><time>2026-04-26T13:25:51.36Z</time></trkpt><trkpt lat="46.4540103" lon="10.3417034"><ele>1636.0</ele><time>2026-04-26T13:25:52.358Z</time></trkpt><trkpt lat="46.4538073" lon="10.3417312"><ele>1636.0</ele><time>2026-04-26T13:25:53.372Z</time></trkpt><trkpt lat="46.4536456" lon="10.3417632"><ele>1636.75</ele><time>2026-04-26T13:25:54.36Z</time></trkpt><trkpt lat="46.4534833" lon="10.3417838"><ele>1637.5</ele><time>2026-04-26T13:25:55.362Z</time></trkpt><trkpt lat="46.4533264" lon="10.3418451"><ele>1638.25</ele><time>2026-04-26T13:25:56.363Z</time></trkpt><trkpt lat="46.4532131" lon="10.3418869"><ele>1639.0</ele><time>2026-04-26T13:25:57.364Z</time></trkpt><trkpt lat="46.4531134" lon="10.3419306"><ele>1639.0000000000002</ele><time>2026-04-26T13:25:58.36Z</time></trkpt><trkpt lat="46.4530071" lon="10.3419581"><ele>1639.0</ele><time>2026-04-26T13:25:59.361Z</time></trkpt><trkpt lat="46.4529119" lon="10.3420033"><ele>1639.0</ele><time>2026-04-26T13:26:00.36Z</time></trkpt><trkpt lat="46.4528366" lon="10.3419667"><ele>1639.0</ele><time>2026-04-26T13:26:01.359Z</time></trkpt><trkpt lat="46.4527668" lon="10.3419138"><ele>1639.0000000000002</ele><time>2026-04-26T13:26:02.36Z</time></trkpt><trkpt lat="46.45269" lon="10.3418971"><ele>1639.0</ele><time>2026-04-26T13:26:03.362Z</time></trkpt><trkpt lat="46.452587" lon="10.3418583"><ele>1642.0</ele><time>2026-04-26T13:26:04.366Z</time></trkpt><trkpt lat="46.4524396" lon="10.3418459"><ele>1645.0</ele><time>2026-04-26T13:26:05.373Z</time></trkpt><trkpt lat="46.4523148" lon="10.3418577"><ele>1648.0</ele><time>2026-04-26T13:26:06.366Z</time></trkpt><trkpt lat="46.4521379" lon="10.3419206"><ele>1645.75</ele><time>2026-04-26T13:26:07.36Z</time></trkpt><trkpt lat="46.4520311" lon="10.3420086"><ele>1643.5</ele><time>2026-04-26T13:26:08.363Z</time></trkpt><trkpt lat="46.4519146" lon="10.342068"><ele>1641.25</ele><time>2026-04-26T13:26:09.36Z</time></trkpt><trkpt lat="46.4517884" lon="10.3421141"><ele>1639.0</ele><time>2026-04-26T13:26:10.364Z</time></trkpt><trkpt lat="46.4516958" lon="10.3422241"><ele>1639.0</ele><time>2026-04-26T13:26:11.36Z</time></trkpt><trkpt lat="46.4515666" lon="10.3423489"><ele>1639.0</ele><time>2026-04-26T13:26:13.365Z</time></trkpt><trkpt lat="46.4514216" lon="10.3423881"><ele>1639.0</ele><time>2026-04-26T13:26:14.363Z</time></trkpt><trkpt lat="46.4512704" lon="10.3424149"><ele>1641.5</ele><time>2026-04-26T13:26:15.363Z</time></trkpt><trkpt lat="46.4511153" lon="10.342425"><ele>1644.0</ele><time>2026-04-26T13:26:16.365Z</time></trkpt><trkpt lat="46.4509788" lon="10.3424297"><ele>1646.5</ele><time>2026-04-26T13:26:17.367Z</time></trkpt><trkpt lat="46.4508685" lon="10.3424026"><ele>1649.0</ele><time>2026-04-26T13:26:18.363Z</time></trkpt><trkpt lat="46.4507756" lon="10.3423535"><ele>1649.0</ele><time>2026-04-26T13:26:19.364Z</time></trkpt><trkpt lat="46.4507454" lon="10.3422583"><ele>1649.0</ele><time>2026-04-26T13:26:20.362Z</time></trkpt><trkpt lat="46.4510111" lon="10.3421916"><ele>1649.0</ele><time>2026-04-26T13:26:25.372Z</time></trkpt><trkpt lat="46.4511502" lon="10.3421172"><ele>1651.75</ele><time>2026-04-26T13:26:26.372Z</time></trkpt><trkpt lat="46.45128" lon="10.3420219"><ele>1654.5</ele><time>2026-04-26T13:26:27.357Z</time></trkpt><trkpt lat="46.4514103" lon="10.341929"><ele>1657.25</ele><time>2026-04-26T13:26:28.361Z</time></trkpt><trkpt lat="46.4515177" lon="10.341854"><ele>1660.0</ele><time>2026-04-26T13:26:29.361Z</time></trkpt><trkpt lat="46.4515736" lon="10.3417955"><ele>1660.0</ele><time>2026-04-26T13:26:31.361Z</time></trkpt><trkpt lat="46.4515018" lon="10.3417496"><ele>1660.0</ele><time>2026-04-26T13:26:34.368Z</time></trkpt><trkpt lat="46.451437" lon="10.3417705"><ele>1660.0</ele><time>2026-04-26T13:26:36.358Z</time></trkpt><trkpt lat="46.4513657" lon="10.3417766"><ele>1660.0</ele><time>2026-04-26T13:26:39.364Z</time></trkpt><trkpt lat="46.4512506" lon="10.34173"><ele>1660.0</ele><time>2026-04-26T13:26:41.364Z</time></trkpt><trkpt lat="46.4502771" lon="10.3419277"><ele>1665.5</ele><time>2026-04-26T13:26:42.367Z</time></trkpt><trkpt lat="46.4501069" lon="10.3420033"><ele>1671.0</ele><time>2026-04-26T13:26:43.356Z</time></trkpt><trkpt lat="46.449978" lon="10.3420413"><ele>1676.5</ele><time>2026-04-26T13:26:44.357Z</time></trkpt><trkpt lat="46.449878" lon="10.3420692"><ele>1682.0</ele><time>2026-04-26T13:26:45.363Z</time></trkpt><trkpt lat="46.4497741" lon="10.3420886"><ele>1682.0</ele><time>2026-04-26T13:26:46.364Z</time></trkpt><trkpt lat="46.4496442" lon="10.3421045"><ele>1682.0</ele><time>2026-04-26T13:26:47.357Z</time></trkpt><trkpt lat="46.4495129" lon="10.3421175"><ele>1682.0</ele><time>2026-04-26T13:26:48.36Z</time></trkpt><trkpt lat="46.4494441" lon="10.3421392"><ele>1682.0</ele><time>2026-04-26T13:26:49.361Z</time></trkpt><trkpt lat="46.4493502" lon="10.3421824"><ele>1682.0</ele><time>2026-04-26T13:26:50.357Z</time></trkpt><trkpt lat="46.449245" lon="10.342165"><ele>1684.75</ele><time>2026-04-26T13:26:51.366Z</time></trkpt><trkpt lat="46.4491315" lon="10.3421423"><ele>1687.5</ele><time>2026-04-26T13:26:52.367Z</time></trkpt><trkpt lat="46.4489926" lon="10.3421746"><ele>1690.25</ele><time>2026-04-26T13:26:53.361Z</time></trkpt><trkpt lat="46.4488566" lon="10.3422037"><ele>1693.0</ele><time>2026-04-26T13:26:54.363Z</time></trkpt><trkpt lat="46.4487226" lon="10.3421993"><ele>1694.5</ele><time>2026-04-26T13:26:55.371Z</time></trkpt><trkpt lat="46.448601" lon="10.3422072"><ele>1696.0</ele><time>2026-04-26T13:26:56.368Z</time></trkpt><trkpt lat="46.4484838" lon="10.3421666"><ele>1697.5</ele><time>2026-04-26T13:26:57.359Z</time></trkpt><trkpt lat="46.4484103" lon="10.3420371"><ele>1699.0</ele><time>2026-04-26T13:26:58.363Z</time></trkpt><trkpt lat="46.4482886" lon="10.3419815"><ele>1699.0</ele><time>2026-04-26T13:26:59.362Z</time></trkpt><trkpt lat="46.4481903" lon="10.3418915"><ele>1699.0</ele><time>2026-04-26T13:27:00.36Z</time></trkpt><trkpt lat="46.4480777" lon="10.3418168"><ele>1699.0</ele><time>2026-04-26T13:27:01.36Z</time></trkpt><trkpt lat="46.4479397" lon="10.3417591"><ele>1699.0</ele><time>2026-04-26T13:27:02.363Z</time></trkpt><trkpt lat="46.4478135" lon="10.3416838"><ele>1700.4</ele><time>2026-04-26T13:27:03.365Z</time></trkpt><trkpt lat="46.4477104" lon="10.3416218"><ele>1701.8000000000002</ele><time>2026-04-26T13:27:04.359Z</time></trkpt><trkpt lat="46.4476374" lon="10.3416114"><ele>1703.1999999999998</ele><time>2026-04-26T13:27:05.36Z</time></trkpt><trkpt lat="46.4475482" lon="10.341646"><ele>1704.6</ele><time>2026-04-26T13:27:06.361Z</time></trkpt><trkpt lat="46.4474545" lon="10.3417509"><ele>1706.0</ele><time>2026-04-26T13:27:07.369Z</time></trkpt><trkpt lat="46.4473842" lon="10.3418089"><ele>1706.0</ele><time>2026-04-26T13:27:08.358Z</time></trkpt><trkpt lat="46.4473019" lon="10.3417494"><ele>1706.0</ele><time>2026-04-26T13:27:10.36Z</time></trkpt><trkpt lat="46.447328" lon="10.3416095"><ele>1706.0</ele><time>2026-04-26T13:27:12.364Z</time></trkpt><trkpt lat="46.4474319" lon="10.3414223"><ele>1706.0</ele><time>2026-04-26T13:27:14.367Z</time></trkpt><trkpt lat="46.4475368" lon="10.3413571"><ele>1710.0</ele><time>2026-04-26T13:27:15.36Z</time></trkpt><trkpt lat="46.4476059" lon="10.3412417"><ele>1714.0</ele><time>2026-04-26T13:27:17.368Z</time></trkpt><trkpt lat="46.4475575" lon="10.3411645"><ele>1718.0</ele><time>2026-04-26T13:27:19.361Z</time></trkpt><trkpt lat="46.4474215" lon="10.3411906"><ele>1722.0</ele><time>2026-04-26T13:27:21.373Z</time></trkpt><trkpt lat="46.4473046" lon="10.3412299"><ele>1726.0</ele><time>2026-04-26T13:27:22.364Z</time></trkpt><trkpt lat="46.4471955" lon="10.3412457"><ele>1726.0</ele><time>2026-04-26T13:27:23.363Z</time></trkpt><trkpt lat="46.4470777" lon="10.3412263"><ele>1726.0</ele><time>2026-04-26T13:27:24.362Z</time></trkpt><trkpt lat="46.4469581" lon="10.3412116"><ele>1726.0</ele><time>2026-04-26T13:27:25.362Z</time></trkpt><trkpt lat="46.4468814" lon="10.3411889"><ele>1726.0</ele><time>2026-04-26T13:27:26.361Z</time></trkpt><trkpt lat="46.4468053" lon="10.3411472"><ele>1726.0</ele><time>2026-04-26T13:27:27.362Z</time></trkpt><trkpt lat="46.4467387" lon="10.3410721"><ele>1726.0</ele><time>2026-04-26T13:27:28.358Z</time></trkpt><trkpt lat="46.4466922" lon="10.3409727"><ele>1726.0</ele><time>2026-04-26T13:27:29.365Z</time></trkpt><trkpt lat="46.4466235" lon="10.3408477"><ele>1726.0</ele><time>2026-04-26T13:27:30.363Z</time></trkpt><trkpt lat="46.4465426" lon="10.3407048"><ele>1726.0</ele><time>2026-04-26T13:27:31.361Z</time></trkpt><trkpt lat="46.4463952" lon="10.3405081"><ele>1727.5</ele><time>2026-04-26T13:27:32.362Z</time></trkpt><trkpt lat="46.4463295" lon="10.3404405"><ele>1729.0</ele><time>2026-04-26T13:27:33.363Z</time></trkpt><trkpt lat="46.4462401" lon="10.3403037"><ele>1730.5</ele><time>2026-04-26T13:27:34.37Z</time></trkpt><trkpt lat="46.4461398" lon="10.3402127"><ele>1732.0</ele><time>2026-04-26T13:27:35.364Z</time></trkpt><trkpt lat="46.4460268" lon="10.3400847"><ele>1732.0</ele><time>2026-04-26T13:27:36.36Z</time></trkpt><trkpt lat="46.4459311" lon="10.3399973"><ele>1732.0</ele><time>2026-04-26T13:27:37.36Z</time></trkpt><trkpt lat="46.4458354" lon="10.3399103"><ele>1732.0</ele><time>2026-04-26T13:27:38.36Z</time></trkpt><trkpt lat="46.4457268" lon="10.3397733"><ele>1732.0</ele><time>2026-04-26T13:27:39.363Z</time></trkpt><trkpt lat="46.4456322" lon="10.3396689"><ele>1733.3333333333335</ele><time>2026-04-26T13:27:40.364Z</time></trkpt><trkpt lat="46.4455499" lon="10.3395744"><ele>1734.6666666666667</ele><time>2026-04-26T13:27:41.361Z</time></trkpt><trkpt lat="46.4454901" lon="10.3396258"><ele>1736.0</ele><time>2026-04-26T13:27:42.371Z</time></trkpt><trkpt lat="46.4454252" lon="10.3395816"><ele>1737.3333333333335</ele><time>2026-04-26T13:27:43.369Z</time></trkpt><trkpt lat="46.4453891" lon="10.3394957"><ele>1738.6666666666667</ele><time>2026-04-26T13:27:44.359Z</time></trkpt><trkpt lat="46.4453653" lon="10.3393917"><ele>1740.0</ele><time>2026-04-26T13:27:45.363Z</time></trkpt><trkpt lat="46.4453749" lon="10.3392309"><ele>1740.0</ele><time>2026-04-26T13:27:46.366Z</time></trkpt><trkpt lat="46.4453666" lon="10.3390996"><ele>1740.0</ele><time>2026-04-26T13:27:47.369Z</time></trkpt><trkpt lat="46.4453249" lon="10.3389531"><ele>1740.0</ele><time>2026-04-26T13:27:48.364Z</time></trkpt><trkpt lat="46.4452642" lon="10.3388186"><ele>1740.0</ele><time>2026-04-26T13:27:49.361Z</time></trkpt><trkpt lat="46.4451947" lon="10.33877"><ele>1740.0</ele><time>2026-04-26T13:27:50.366Z</time></trkpt><trkpt lat="46.4451057" lon="10.3386855"><ele>1742.4</ele><time>2026-04-26T13:27:51.361Z</time></trkpt><trkpt lat="46.4450413" lon="10.3385762"><ele>1744.8</ele><time>2026-04-26T13:27:52.362Z</time></trkpt><trkpt lat="46.4449627" lon="10.3384715"><ele>1747.1999999999998</ele><time>2026-04-26T13:27:53.36Z</time></trkpt><trkpt lat="46.4448523" lon="10.3383572"><ele>1749.6</ele><time>2026-04-26T13:27:54.368Z</time></trkpt><trkpt lat="46.4447613" lon="10.3382888"><ele>1752.0</ele><time>2026-04-26T13:27:55.364Z</time></trkpt><trkpt lat="46.4446781" lon="10.3382129"><ele>1753.6</ele><time>2026-04-26T13:27:56.36Z</time></trkpt><trkpt lat="46.444622" lon="10.3382919"><ele>1755.1999999999998</ele><time>2026-04-26T13:27:57.357Z</time></trkpt><trkpt lat="46.4445243" lon="10.3383284"><ele>1756.8</ele><time>2026-04-26T13:27:58.36Z</time></trkpt><trkpt lat="46.4444362" lon="10.3383446"><ele>1758.4</ele><time>2026-04-26T13:27:59.366Z</time></trkpt><trkpt lat="46.4443661" lon="10.3383726"><ele>1760.0</ele><time>2026-04-26T13:28:00.363Z</time></trkpt><trkpt lat="46.4442409" lon="10.3383425"><ele>1759.9999999999998</ele><time>2026-04-26T13:28:02.362Z</time></trkpt><trkpt lat="46.4441584" lon="10.3383194"><ele>1760.0</ele><time>2026-04-26T13:28:03.366Z</time></trkpt><trkpt lat="46.4440661" lon="10.3383069"><ele>1760.0</ele><time>2026-04-26T13:28:04.366Z</time></trkpt><trkpt lat="46.4439843" lon="10.3382726"><ele>1760.0</ele><time>2026-04-26T13:28:05.362Z</time></trkpt><trkpt lat="46.4439142" lon="10.3382229"><ele>1759.9999999999998</ele><time>2026-04-26T13:28:06.362Z</time></trkpt><trkpt lat="46.4438172" lon="10.3381647"><ele>1760.0</ele><time>2026-04-26T13:28:07.359Z</time></trkpt><trkpt lat="46.4436716" lon="10.3381055"><ele>1767.75</ele><time>2026-04-26T13:28:08.37Z</time></trkpt><trkpt lat="46.4435592" lon="10.3380463"><ele>1775.5</ele><time>2026-04-26T13:28:09.371Z</time></trkpt><trkpt lat="46.4434495" lon="10.3379702"><ele>1783.25</ele><time>2026-04-26T13:28:10.364Z</time></trkpt><trkpt lat="46.4433454" lon="10.3379414"><ele>1791.0</ele><time>2026-04-26T13:28:11.358Z</time></trkpt><trkpt lat="46.4432456" lon="10.337793"><ele>1791.0</ele><time>2026-04-26T13:28:12.361Z</time></trkpt><trkpt lat="46.4431735" lon="10.3377133"><ele>1791.0</ele><time>2026-04-26T13:28:13.359Z</time></trkpt><trkpt lat="46.4431057" lon="10.3376342"><ele>1791.0</ele><time>2026-04-26T13:28:14.36Z</time></trkpt><trkpt lat="46.4430449" lon="10.3375435"><ele>1791.0</ele><time>2026-04-26T13:28:15.358Z</time></trkpt><trkpt lat="46.4429685" lon="10.3374853"><ele>1791.0</ele><time>2026-04-26T13:28:16.362Z</time></trkpt><trkpt lat="46.4428331" lon="10.3375879"><ele>1791.1999999999998</ele><time>2026-04-26T13:28:17.364Z</time></trkpt><trkpt lat="46.4427245" lon="10.3375922"><ele>1791.3999999999999</ele><time>2026-04-26T13:28:18.362Z</time></trkpt><trkpt lat="46.4426187" lon="10.3375961"><ele>1791.6</ele><time>2026-04-26T13:28:19.358Z</time></trkpt><trkpt lat="46.4425189" lon="10.3375851"><ele>1791.8</ele><time>2026-04-26T13:28:20.36Z</time></trkpt><trkpt lat="46.4424312" lon="10.337554"><ele>1792.0</ele><time>2026-04-26T13:28:21.361Z</time></trkpt><trkpt lat="46.4423298" lon="10.3375078"><ele>1792.0</ele><time>2026-04-26T13:28:22.357Z</time></trkpt><trkpt lat="46.442228" lon="10.3374231"><ele>1791.9999999999998</ele><time>2026-04-26T13:28:23.364Z</time></trkpt><trkpt lat="46.4421419" lon="10.3373551"><ele>1791.9999999999998</ele><time>2026-04-26T13:28:24.36Z</time></trkpt><trkpt lat="46.4421018" lon="10.3372747"><ele>1792.0</ele><time>2026-04-26T13:28:25.365Z</time></trkpt><trkpt lat="46.4420037" lon="10.3372331"><ele>1792.0</ele><time>2026-04-26T13:28:27.365Z</time></trkpt><trkpt lat="46.4419032" lon="10.3373215"><ele>1794.0</ele><time>2026-04-26T13:28:29.364Z</time></trkpt><trkpt lat="46.4418272" lon="10.3373754"><ele>1795.9999999999998</ele><time>2026-04-26T13:28:30.369Z</time></trkpt><trkpt lat="46.4417395" lon="10.3374087"><ele>1797.9999999999998</ele><time>2026-04-26T13:28:32.364Z</time></trkpt><trkpt lat="46.441625" lon="10.3373571"><ele>1800.0</ele><time>2026-04-26T13:28:34.361Z</time></trkpt><trkpt lat="46.4415566" lon="10.3373585"><ele>1802.0</ele><time>2026-04-26T13:28:35.368Z</time></trkpt><trkpt lat="46.4414592" lon="10.3373744"><ele>1802.0</ele><time>2026-04-26T13:28:36.365Z</time></trkpt><trkpt lat="46.4413599" lon="10.3373955"><ele>1801.9999999999998</ele><time>2026-04-26T13:28:37.364Z</time></trkpt><trkpt lat="46.4412541" lon="10.3373848"><ele>1801.9999999999998</ele><time>2026-04-26T13:28:38.361Z</time></trkpt><trkpt lat="46.441146" lon="10.3373631"><ele>1802.0</ele><time>2026-04-26T13:28:39.368Z</time></trkpt><trkpt lat="46.4410566" lon="10.3372924"><ele>1802.0</ele><time>2026-04-26T13:28:40.361Z</time></trkpt><trkpt lat="46.4409266" lon="10.33722"><ele>1807.8333333333333</ele><time>2026-04-26T13:28:41.365Z</time></trkpt><trkpt lat="46.4408372" lon="10.3371549"><ele>1813.6666666666665</ele><time>2026-04-26T13:28:42.366Z</time></trkpt><trkpt lat="46.440792" lon="10.3370796"><ele>1819.5</ele><time>2026-04-26T13:28:43.36Z</time></trkpt><trkpt lat="46.4407569" lon="10.3369856"><ele>1825.3333333333335</ele><time>2026-04-26T13:28:44.364Z</time></trkpt><trkpt lat="46.4407073" lon="10.336894"><ele>1831.1666666666667</ele><time>2026-04-26T13:28:45.359Z</time></trkpt><trkpt lat="46.4406614" lon="10.3367881"><ele>1837.0</ele><time>2026-04-26T13:28:46.367Z</time></trkpt><trkpt lat="46.4406233" lon="10.3366491"><ele>1837.0</ele><time>2026-04-26T13:28:47.363Z</time></trkpt><trkpt lat="46.44057" lon="10.3364796"><ele>1836.9999999999998</ele><time>2026-04-26T13:28:48.36Z</time></trkpt><trkpt lat="46.4405076" lon="10.3364005"><ele>1836.9999999999998</ele><time>2026-04-26T13:28:49.358Z</time></trkpt><trkpt lat="46.4404518" lon="10.3363032"><ele>1837.0</ele><time>2026-04-26T13:28:50.363Z</time></trkpt><trkpt lat="46.4403791" lon="10.3362074"><ele>1837.0</ele><time>2026-04-26T13:28:51.371Z</time></trkpt><trkpt lat="46.4402842" lon="10.3361427"><ele>1837.3999999999999</ele><time>2026-04-26T13:28:52.361Z</time></trkpt><trkpt lat="46.4402036" lon="10.3360653"><ele>1837.7999999999997</ele><time>2026-04-26T13:28:53.361Z</time></trkpt><trkpt lat="46.4401744" lon="10.3359254"><ele>1838.2</ele><time>2026-04-26T13:28:55.362Z</time></trkpt><trkpt lat="46.4401496" lon="10.335826"><ele>1838.6</ele><time>2026-04-26T13:28:56.362Z</time></trkpt><trkpt lat="46.4401055" lon="10.335636"><ele>1839.0</ele><time>2026-04-26T13:28:57.367Z</time></trkpt><trkpt lat="46.4400682" lon="10.3354677"><ele>1844.0</ele><time>2026-04-26T13:28:58.363Z</time></trkpt><trkpt lat="46.4400297" lon="10.3353247"><ele>1849.0</ele><time>2026-04-26T13:28:59.364Z</time></trkpt><trkpt lat="46.44" lon="10.3352407"><ele>1854.0</ele><time>2026-04-26T13:29:00.366Z</time></trkpt><trkpt lat="46.4399817" lon="10.335143"><ele>1859.0</ele><time>2026-04-26T13:29:01.363Z</time></trkpt><trkpt lat="46.4400059" lon="10.3350077"><ele>1864.0</ele><time>2026-04-26T13:29:02.362Z</time></trkpt><trkpt lat="46.4400139" lon="10.3348368"><ele>1868.6</ele><time>2026-04-26T13:29:03.36Z</time></trkpt><trkpt lat="46.4400132" lon="10.3346808"><ele>1873.2</ele><time>2026-04-26T13:29:04.362Z</time></trkpt><trkpt lat="46.4399998" lon="10.3345655"><ele>1877.7999999999997</ele><time>2026-04-26T13:29:05.361Z</time></trkpt><trkpt lat="46.4399683" lon="10.3344847"><ele>1882.3999999999999</ele><time>2026-04-26T13:29:06.366Z</time></trkpt><trkpt lat="46.4398335" lon="10.33436"><ele>1887.0</ele><time>2026-04-26T13:29:08.364Z</time></trkpt><trkpt lat="46.4397466" lon="10.3342766"><ele>1887.0</ele><time>2026-04-26T13:29:09.363Z</time></trkpt><trkpt lat="46.439642" lon="10.3341829"><ele>1887.0</ele><time>2026-04-26T13:29:10.367Z</time></trkpt><trkpt lat="46.4395634" lon="10.3341364"><ele>1887.0</ele><time>2026-04-26T13:29:11.366Z</time></trkpt><trkpt lat="46.4394327" lon="10.3341406"><ele>1887.0</ele><time>2026-04-26T13:29:13.361Z</time></trkpt><trkpt lat="46.4392912" lon="10.3341246"><ele>1884.0</ele><time>2026-04-26T13:29:15.367Z</time></trkpt><trkpt lat="46.4391701" lon="10.3341361"><ele>1881.0</ele><time>2026-04-26T13:29:16.368Z</time></trkpt><trkpt lat="46.4390635" lon="10.3342013"><ele>1878.0</ele><time>2026-04-26T13:29:17.363Z</time></trkpt><trkpt lat="46.4389504" lon="10.3342837"><ele>1875.0</ele><time>2026-04-26T13:29:18.367Z</time></trkpt><trkpt lat="46.4388437" lon="10.3343543"><ele>1879.75</ele><time>2026-04-26T13:29:19.358Z</time></trkpt><trkpt lat="46.4387224" lon="10.3344005"><ele>1884.5</ele><time>2026-04-26T13:29:20.365Z</time></trkpt><trkpt lat="46.4386045" lon="10.334447"><ele>1889.25</ele><time>2026-04-26T13:29:21.362Z</time></trkpt><trkpt lat="46.4384649" lon="10.3344527"><ele>1894.0</ele><time>2026-04-26T13:29:22.363Z</time></trkpt><trkpt lat="46.438333" lon="10.334423"><ele>1894.0</ele><time>2026-04-26T13:29:23.361Z</time></trkpt><trkpt lat="46.4381898" lon="10.3344203"><ele>1894.0</ele><time>2026-04-26T13:29:24.369Z</time></trkpt><trkpt lat="46.4380601" lon="10.3343945"><ele>1894.0</ele><time>2026-04-26T13:29:25.358Z</time></trkpt><trkpt lat="46.437955" lon="10.3343742"><ele>1894.0</ele><time>2026-04-26T13:29:26.356Z</time></trkpt><trkpt lat="46.4378533" lon="10.3343171"><ele>1897.3333333333335</ele><time>2026-04-26T13:29:27.369Z</time></trkpt><trkpt lat="46.4377715" lon="10.3342742"><ele>1900.6666666666667</ele><time>2026-04-26T13:29:28.359Z</time></trkpt><trkpt lat="46.4377269" lon="10.3341975"><ele>1904.0</ele><time>2026-04-26T13:29:29.362Z</time></trkpt><trkpt lat="46.4376889" lon="10.3341203"><ele>1907.3333333333335</ele><time>2026-04-26T13:29:30.366Z</time></trkpt><trkpt lat="46.4376408" lon="10.3339989"><ele>1910.6666666666667</ele><time>2026-04-26T13:29:31.36Z</time></trkpt><trkpt lat="46.4375811" lon="10.3339254"><ele>1914.0</ele><time>2026-04-26T13:29:32.358Z</time></trkpt><trkpt lat="46.4375073" lon="10.3339068"><ele>1914.0</ele><time>2026-04-26T13:29:33.37Z</time></trkpt><trkpt lat="46.4374295" lon="10.3339116"><ele>1914.0</ele><time>2026-04-26T13:29:34.359Z</time></trkpt><trkpt lat="46.4373351" lon="10.3339775"><ele>1914.0</ele><time>2026-04-26T13:29:35.362Z</time></trkpt><trkpt lat="46.4372554" lon="10.3340167"><ele>1914.0</ele><time>2026-04-26T13:29:36.358Z</time></trkpt><trkpt lat="46.4371862" lon="10.3339406"><ele>1914.0</ele><time>2026-04-26T13:29:38.366Z</time></trkpt><trkpt lat="46.4371261" lon="10.3338467"><ele>1914.0</ele><time>2026-04-26T13:29:40.364Z</time></trkpt><trkpt lat="46.4370627" lon="10.3338441"><ele>1917.8333333333333</ele><time>2026-04-26T13:29:44.365Z</time></trkpt><trkpt lat="46.4370293" lon="10.3339216"><ele>1921.6666666666665</ele><time>2026-04-26T13:29:47.358Z</time></trkpt><trkpt lat="46.4370023" lon="10.3340146"><ele>1925.5</ele><time>2026-04-26T13:29:50.36Z</time></trkpt><trkpt lat="46.4369502" lon="10.3341195"><ele>1929.3333333333333</ele><time>2026-04-26T13:29:53.369Z</time></trkpt><trkpt lat="46.4368865" lon="10.3341773"><ele>1933.1666666666665</ele><time>2026-04-26T13:29:56.36Z</time></trkpt><trkpt lat="46.4368097" lon="10.3341973"><ele>1937.0</ele><time>2026-04-26T13:30:00.362Z</time></trkpt><trkpt lat="46.4367316" lon="10.3342085"><ele>1937.0</ele><time>2026-04-26T13:30:03.362Z</time></trkpt><trkpt lat="46.4366686" lon="10.3342453"><ele>1937.0</ele><time>2026-04-26T13:30:05.372Z</time></trkpt><trkpt lat="46.4365731" lon="10.3342888"><ele>1937.0</ele><time>2026-04-26T13:30:06.37Z</time></trkpt><trkpt lat="46.4362564" lon="10.334476"><ele>1942.3333333333333</ele><time>2026-04-26T13:30:07.365Z</time></trkpt><trkpt lat="46.4360393" lon="10.3345807"><ele>1947.6666666666665</ele><time>2026-04-26T13:30:08.358Z</time></trkpt><trkpt lat="46.4358849" lon="10.3346475"><ele>1953.0</ele><time>2026-04-26T13:30:09.359Z</time></trkpt><trkpt lat="46.4357664" lon="10.3346953"><ele>1953.0</ele><time>2026-04-26T13:30:10.363Z</time></trkpt><trkpt lat="46.4356879" lon="10.334715"><ele>1953.0000000000002</ele><time>2026-04-26T13:30:11.362Z</time></trkpt><trkpt lat="46.4355743" lon="10.334683"><ele>1953.0000000000002</ele><time>2026-04-26T13:30:13.364Z</time></trkpt><trkpt lat="46.435469" lon="10.3346565"><ele>1953.0</ele><time>2026-04-26T13:30:14.364Z</time></trkpt><trkpt lat="46.435355" lon="10.3346203"><ele>1953.0</ele><time>2026-04-26T13:30:15.366Z</time></trkpt><trkpt lat="46.4352565" lon="10.3346095"><ele>1951.2</ele><time>2026-04-26T13:30:16.369Z</time></trkpt><trkpt lat="46.4351792" lon="10.3346827"><ele>1949.4</ele><time>2026-04-26T13:30:17.366Z</time></trkpt><trkpt lat="46.4350945" lon="10.3347439"><ele>1947.6000000000001</ele><time>2026-04-26T13:30:18.359Z</time></trkpt><trkpt lat="46.4350126" lon="10.3347299"><ele>1945.8000000000002</ele><time>2026-04-26T13:30:19.361Z</time></trkpt><trkpt lat="46.434929" lon="10.3347488"><ele>1944.0</ele><time>2026-04-26T13:30:20.363Z</time></trkpt><trkpt lat="46.4347932" lon="10.3347447"><ele>1940.8000000000002</ele><time>2026-04-26T13:30:21.362Z</time></trkpt><trkpt lat="46.4346789" lon="10.3347521"><ele>1937.6000000000001</ele><time>2026-04-26T13:30:22.36Z</time></trkpt><trkpt lat="46.434578" lon="10.3347523"><ele>1934.4</ele><time>2026-04-26T13:30:23.36Z</time></trkpt><trkpt lat="46.4344981" lon="10.3347648"><ele>1931.2</ele><time>2026-04-26T13:30:24.362Z</time></trkpt><trkpt lat="46.4344372" lon="10.3347318"><ele>1928.0</ele><time>2026-04-26T13:30:25.364Z</time></trkpt><trkpt lat="46.4343563" lon="10.3346595"><ele>1928.0</ele><time>2026-04-26T13:30:26.362Z</time></trkpt><trkpt lat="46.4342582" lon="10.3345809"><ele>1928.0000000000002</ele><time>2026-04-26T13:30:27.361Z</time></trkpt><trkpt lat="46.4341793" lon="10.3344841"><ele>1928.0000000000002</ele><time>2026-04-26T13:30:28.367Z</time></trkpt><trkpt lat="46.4340685" lon="10.3344042"><ele>1928.0</ele><time>2026-04-26T13:30:30.367Z</time></trkpt><trkpt lat="46.4339773" lon="10.334368"><ele>1928.0</ele><time>2026-04-26T13:30:31.365Z</time></trkpt><trkpt lat="46.4338851" lon="10.3343213"><ele>1925.9999999999998</ele><time>2026-04-26T13:30:32.364Z</time></trkpt><trkpt lat="46.4337957" lon="10.3343237"><ele>1924.0</ele><time>2026-04-26T13:30:33.367Z</time></trkpt><trkpt lat="46.433717" lon="10.3343165"><ele>1922.0</ele><time>2026-04-26T13:30:34.367Z</time></trkpt><trkpt lat="46.4336469" lon="10.3343172"><ele>1920.0</ele><time>2026-04-26T13:30:35.361Z</time></trkpt><trkpt lat="46.4335776" lon="10.3343105"><ele>1917.9999999999998</ele><time>2026-04-26T13:30:36.363Z</time></trkpt><trkpt lat="46.4335086" lon="10.3343255"><ele>1916.0</ele><time>2026-04-26T13:30:37.362Z</time></trkpt><trkpt lat="46.4334241" lon="10.3342959"><ele>1915.9999999999998</ele><time>2026-04-26T13:30:38.369Z</time></trkpt><trkpt lat="46.4333133" lon="10.3342822"><ele>1916.0</ele><time>2026-04-26T13:30:39.368Z</time></trkpt><trkpt lat="46.4332449" lon="10.3342793"><ele>1916.0</ele><time>2026-04-26T13:30:40.36Z</time></trkpt><trkpt lat="46.4331661" lon="10.3343397"><ele>1916.0</ele><time>2026-04-26T13:30:43.363Z</time></trkpt><trkpt lat="46.4330876" lon="10.3344331"><ele>1915.9999999999998</ele><time>2026-04-26T13:30:45.364Z</time></trkpt><trkpt lat="46.4330157" lon="10.3344692"><ele>1916.0</ele><time>2026-04-26T13:30:48.36Z</time></trkpt><trkpt lat="46.4328924" lon="10.3344397"><ele>1913.6666666666665</ele><time>2026-04-26T13:30:51.365Z</time></trkpt><trkpt lat="46.4325392" lon="10.334331"><ele>1911.3333333333335</ele><time>2026-04-26T13:30:52.361Z</time></trkpt><trkpt lat="46.4324528" lon="10.3343186"><ele>1909.0</ele><time>2026-04-26T13:30:53.356Z</time></trkpt><trkpt lat="46.4323812" lon="10.3342933"><ele>1909.0</ele><time>2026-04-26T13:30:54.358Z</time></trkpt><trkpt lat="46.4323145" lon="10.3343308"><ele>1909.0</ele><time>2026-04-26T13:30:55.366Z</time></trkpt><trkpt lat="46.4322574" lon="10.3343904"><ele>1909.0</ele><time>2026-04-26T13:30:56.369Z</time></trkpt><trkpt lat="46.4321905" lon="10.3345059"><ele>1909.0</ele><time>2026-04-26T13:30:58.363Z</time></trkpt><trkpt lat="46.4322347" lon="10.3346844"><ele>1909.0</ele><time>2026-04-26T13:31:00.363Z</time></trkpt><trkpt lat="46.4322795" lon="10.3348085"><ele>1904.8000000000002</ele><time>2026-04-26T13:31:01.372Z</time></trkpt><trkpt lat="46.4323425" lon="10.334946"><ele>1900.6000000000001</ele><time>2026-04-26T13:31:02.369Z</time></trkpt><trkpt lat="46.432399" lon="10.335064"><ele>1896.4</ele><time>2026-04-26T13:31:03.362Z</time></trkpt><trkpt lat="46.4324514" lon="10.3351469"><ele>1892.2</ele><time>2026-04-26T13:31:04.363Z</time></trkpt><trkpt lat="46.432504" lon="10.3352434"><ele>1888.0</ele><time>2026-04-26T13:31:05.362Z</time></trkpt><trkpt lat="46.4325674" lon="10.3353819"><ele>1888.0</ele><time>2026-04-26T13:31:06.364Z</time></trkpt><trkpt lat="46.4326157" lon="10.3354989"><ele>1888.0000000000002</ele><time>2026-04-26T13:31:07.362Z</time></trkpt><trkpt lat="46.4326868" lon="10.3355921"><ele>1888.0000000000002</ele><time>2026-04-26T13:31:08.36Z</time></trkpt><trkpt lat="46.4327691" lon="10.3356755"><ele>1888.0</ele><time>2026-04-26T13:31:09.364Z</time></trkpt><trkpt lat="46.4328945" lon="10.3357794"><ele>1888.0</ele><time>2026-04-26T13:31:10.359Z</time></trkpt><trkpt lat="46.4329949" lon="10.3358676"><ele>1883.25</ele><time>2026-04-26T13:31:11.367Z</time></trkpt><trkpt lat="46.4330261" lon="10.3360416"><ele>1878.5</ele><time>2026-04-26T13:31:12.365Z</time></trkpt><trkpt lat="46.4330975" lon="10.3361038"><ele>1873.75</ele><time>2026-04-26T13:31:13.358Z</time></trkpt><trkpt lat="46.4331795" lon="10.336236"><ele>1869.0</ele><time>2026-04-26T13:31:14.36Z</time></trkpt><trkpt lat="46.4332751" lon="10.3363507"><ele>1863.1666666666667</ele><time>2026-04-26T13:31:15.359Z</time></trkpt><trkpt lat="46.4333916" lon="10.3364376"><ele>1857.3333333333335</ele><time>2026-04-26T13:31:17.363Z</time></trkpt><trkpt lat="46.4334527" lon="10.3364648"><ele>1851.5</ele><time>2026-04-26T13:31:18.363Z</time></trkpt><trkpt lat="46.4335138" lon="10.33652"><ele>1845.6666666666667</ele><time>2026-04-26T13:31:20.361Z</time></trkpt><trkpt lat="46.4334748" lon="10.3366302"><ele>1839.8333333333335</ele><time>2026-04-26T13:31:22.363Z</time></trkpt><trkpt lat="46.4334082" lon="10.3366274"><ele>1834.0</ele><time>2026-04-26T13:31:23.36Z</time></trkpt><trkpt lat="46.4333208" lon="10.3366223"><ele>1834.0</ele><time>2026-04-26T13:31:26.365Z</time></trkpt><trkpt lat="46.4332559" lon="10.3366098"><ele>1834.0</ele><time>2026-04-26T13:31:28.369Z</time></trkpt><trkpt lat="46.4331738" lon="10.3365804"><ele>1834.0</ele><time>2026-04-26T13:31:29.362Z</time></trkpt><trkpt lat="46.4327772" lon="10.3365262"><ele>1830.25</ele><time>2026-04-26T13:31:30.363Z</time></trkpt><trkpt lat="46.4326505" lon="10.3365241"><ele>1826.5</ele><time>2026-04-26T13:31:31.361Z</time></trkpt><trkpt lat="46.4324889" lon="10.3365148"><ele>1822.75</ele><time>2026-04-26T13:31:32.364Z</time></trkpt><trkpt lat="46.4323688" lon="10.3365103"><ele>1819.0</ele><time>2026-04-26T13:31:33.371Z</time></trkpt><trkpt lat="46.4322795" lon="10.3364393"><ele>1819.0</ele><time>2026-04-26T13:31:34.359Z</time></trkpt><trkpt lat="46.4321933" lon="10.3363906"><ele>1819.0</ele><time>2026-04-26T13:31:35.36Z</time></trkpt><trkpt lat="46.4320862" lon="10.3362758"><ele>1819.0</ele><time>2026-04-26T13:31:36.362Z</time></trkpt><trkpt lat="46.4319843" lon="10.3361881"><ele>1819.0</ele><time>2026-04-26T13:31:37.373Z</time></trkpt><trkpt lat="46.4318739" lon="10.3361194"><ele>1826.5</ele><time>2026-04-26T13:31:38.366Z</time></trkpt><trkpt lat="46.4317598" lon="10.3360843"><ele>1834.0</ele><time>2026-04-26T13:31:39.364Z</time></trkpt><trkpt lat="46.4316608" lon="10.3360795"><ele>1841.5</ele><time>2026-04-26T13:31:40.367Z</time></trkpt><trkpt lat="46.431546" lon="10.3361112"><ele>1849.0</ele><time>2026-04-26T13:31:41.364Z</time></trkpt><trkpt lat="46.4314124" lon="10.3361129"><ele>1847.5</ele><time>2026-04-26T13:31:42.359Z</time></trkpt><trkpt lat="46.4312334" lon="10.3361186"><ele>1846.0</ele><time>2026-04-26T13:31:43.359Z</time></trkpt><trkpt lat="46.4311443" lon="10.3362034"><ele>1844.5</ele><time>2026-04-26T13:31:44.366Z</time></trkpt><trkpt lat="46.4310607" lon="10.3362463"><ele>1843.0</ele><time>2026-04-26T13:31:45.36Z</time></trkpt><trkpt lat="46.4309908" lon="10.3363306"><ele>1843.0</ele><time>2026-04-26T13:31:46.367Z</time></trkpt><trkpt lat="46.4309121" lon="10.3363838"><ele>1843.0000000000002</ele><time>2026-04-26T13:31:47.361Z</time></trkpt><trkpt lat="46.4308245" lon="10.336382"><ele>1843.0000000000002</ele><time>2026-04-26T13:31:48.363Z</time></trkpt><trkpt lat="46.430749" lon="10.3364021"><ele>1843.0</ele><time>2026-04-26T13:31:49.363Z</time></trkpt><trkpt lat="46.430631" lon="10.3363571"><ele>1843.0</ele><time>2026-04-26T13:31:50.364Z</time></trkpt><trkpt lat="46.4305119" lon="10.3363375"><ele>1840.0</ele><time>2026-04-26T13:31:51.361Z</time></trkpt><trkpt lat="46.4303769" lon="10.3363079"><ele>1837.0000000000002</ele><time>2026-04-26T13:31:52.365Z</time></trkpt><trkpt lat="46.4302743" lon="10.3362839"><ele>1834.0000000000002</ele><time>2026-04-26T13:31:53.36Z</time></trkpt><trkpt lat="46.4301554" lon="10.3362677"><ele>1831.0</ele><time>2026-04-26T13:31:54.361Z</time></trkpt><trkpt lat="46.4300763" lon="10.3362248"><ele>1828.0</ele><time>2026-04-26T13:31:55.361Z</time></trkpt><trkpt lat="46.4299945" lon="10.3361797"><ele>1828.0</ele><time>2026-04-26T13:31:56.36Z</time></trkpt><trkpt lat="46.429922" lon="10.3361622"><ele>1828.0000000000002</ele><time>2026-04-26T13:31:57.361Z</time></trkpt><trkpt lat="46.4299448" lon="10.3362696"><ele>1828.0000000000002</ele><time>2026-04-26T13:31:59.363Z</time></trkpt><trkpt lat="46.4300188" lon="10.3363964"><ele>1828.0</ele><time>2026-04-26T13:32:01.364Z</time></trkpt><trkpt lat="46.4301287" lon="10.3364831"><ele>1828.0</ele><time>2026-04-26T13:32:02.366Z</time></trkpt><trkpt lat="46.4301992" lon="10.3365573"><ele>1821.6000000000001</ele><time>2026-04-26T13:32:03.367Z</time></trkpt><trkpt lat="46.4302561" lon="10.3366669"><ele>1815.2000000000003</ele><time>2026-04-26T13:32:05.362Z</time></trkpt><trkpt lat="46.4301729" lon="10.3366926"><ele>1808.8</ele><time>2026-04-26T13:32:07.367Z</time></trkpt><trkpt lat="46.4300424" lon="10.3366922"><ele>1802.4</ele><time>2026-04-26T13:32:09.365Z</time></trkpt><trkpt lat="46.4299096" lon="10.336631"><ele>1796.0</ele><time>2026-04-26T13:32:10.368Z</time></trkpt><trkpt lat="46.4298026" lon="10.3365927"><ele>1796.0</ele><time>2026-04-26T13:32:11.358Z</time></trkpt><trkpt lat="46.4297001" lon="10.3365451"><ele>1796.0</ele><time>2026-04-26T13:32:12.361Z</time></trkpt><trkpt lat="46.429609" lon="10.3364938"><ele>1796.0</ele><time>2026-04-26T13:32:13.36Z</time></trkpt><trkpt lat="46.4295395" lon="10.3363695"><ele>1796.0</ele><time>2026-04-26T13:32:14.37Z</time></trkpt><trkpt lat="46.4294436" lon="10.336295"><ele>1796.0</ele><time>2026-04-26T13:32:15.365Z</time></trkpt><trkpt lat="46.4293435" lon="10.3362841"><ele>1796.3333333333333</ele><time>2026-04-26T13:32:16.375Z</time></trkpt><trkpt lat="46.4292292" lon="10.3362931"><ele>1796.6666666666665</ele><time>2026-04-26T13:32:17.362Z</time></trkpt><trkpt lat="46.4291288" lon="10.3363118"><ele>1797.0</ele><time>2026-04-26T13:32:18.358Z</time></trkpt><trkpt lat="46.4290516" lon="10.3362967"><ele>1797.3333333333335</ele><time>2026-04-26T13:32:19.358Z</time></trkpt><trkpt lat="46.429008" lon="10.3362235"><ele>1797.6666666666667</ele><time>2026-04-26T13:32:20.362Z</time></trkpt><trkpt lat="46.4289574" lon="10.3361333"><ele>1798.0</ele><time>2026-04-26T13:32:21.357Z</time></trkpt><trkpt lat="46.4288838" lon="10.3360443"><ele>1797.8333333333335</ele><time>2026-04-26T13:32:22.365Z</time></trkpt><trkpt lat="46.4287877" lon="10.3359834"><ele>1797.6666666666667</ele><time>2026-04-26T13:32:23.366Z</time></trkpt><trkpt lat="46.4286918" lon="10.3359563"><ele>1797.5</ele><time>2026-04-26T13:32:24.363Z</time></trkpt><trkpt lat="46.4286174" lon="10.3359544"><ele>1797.3333333333335</ele><time>2026-04-26T13:32:25.366Z</time></trkpt><trkpt lat="46.4285307" lon="10.3359744"><ele>1797.1666666666667</ele><time>2026-04-26T13:32:26.361Z</time></trkpt><trkpt lat="46.4284495" lon="10.3359922"><ele>1797.0</ele><time>2026-04-26T13:32:27.36Z</time></trkpt><trkpt lat="46.4283777" lon="10.3361262"><ele>1797.0</ele><time>2026-04-26T13:32:29.361Z</time></trkpt><trkpt lat="46.4283469" lon="10.336247"><ele>1796.9999999999998</ele><time>2026-04-26T13:32:30.36Z</time></trkpt><trkpt lat="46.4283242" lon="10.3364137"><ele>1796.9999999999998</ele><time>2026-04-26T13:32:31.358Z</time></trkpt><trkpt lat="46.4283009" lon="10.3365569"><ele>1797.0</ele><time>2026-04-26T13:32:32.361Z</time></trkpt><trkpt lat="46.4282859" lon="10.3367347"><ele>1797.0</ele><time>2026-04-26T13:32:33.362Z</time></trkpt><trkpt lat="46.4282731" lon="10.3368828"><ele>1793.25</ele><time>2026-04-26T13:32:34.358Z</time></trkpt><trkpt lat="46.4282092" lon="10.3370238"><ele>1789.5</ele><time>2026-04-26T13:32:36.364Z</time></trkpt><trkpt lat="46.4280935" lon="10.3370705"><ele>1785.75</ele><time>2026-04-26T13:32:37.359Z</time></trkpt><trkpt lat="46.4279828" lon="10.3371637"><ele>1782.0</ele><time>2026-04-26T13:32:38.36Z</time></trkpt><trkpt lat="46.4279036" lon="10.3372605"><ele>1779.3999999999999</ele><time>2026-04-26T13:32:39.361Z</time></trkpt><trkpt lat="46.4278195" lon="10.337351"><ele>1776.7999999999997</ele><time>2026-04-26T13:32:40.358Z</time></trkpt><trkpt lat="46.427755" lon="10.3374128"><ele>1774.2</ele><time>2026-04-26T13:32:41.36Z</time></trkpt><trkpt lat="46.4276439" lon="10.3374479"><ele>1771.6</ele><time>2026-04-26T13:32:43.367Z</time></trkpt><trkpt lat="46.4275611" lon="10.3374277"><ele>1769.0</ele><time>2026-04-26T13:32:44.359Z</time></trkpt><trkpt lat="46.4274885" lon="10.3374228"><ele>1769.0</ele><time>2026-04-26T13:32:45.36Z</time></trkpt><trkpt lat="46.4273921" lon="10.3374538"><ele>1769.0</ele><time>2026-04-26T13:32:46.364Z</time></trkpt><trkpt lat="46.4272931" lon="10.3375312"><ele>1769.0</ele><time>2026-04-26T13:32:47.364Z</time></trkpt><trkpt lat="46.427226" lon="10.3376372"><ele>1769.0</ele><time>2026-04-26T13:32:48.359Z</time></trkpt><trkpt lat="46.4271599" lon="10.337783"><ele>1769.0</ele><time>2026-04-26T13:32:49.359Z</time></trkpt><trkpt lat="46.4270775" lon="10.3378765"><ele>1769.6</ele><time>2026-04-26T13:32:50.358Z</time></trkpt><trkpt lat="46.4270125" lon="10.337909"><ele>1770.2</ele><time>2026-04-26T13:32:51.36Z</time></trkpt><trkpt lat="46.4269355" lon="10.3379431"><ele>1770.7999999999997</ele><time>2026-04-26T13:32:52.362Z</time></trkpt><trkpt lat="46.4268563" lon="10.3379995"><ele>1771.3999999999999</ele><time>2026-04-26T13:32:53.357Z</time></trkpt><trkpt lat="46.4267062" lon="10.3380407"><ele>1772.0</ele><time>2026-04-26T13:32:54.358Z</time></trkpt><trkpt lat="46.4266025" lon="10.3381045"><ele>1765.3999999999999</ele><time>2026-04-26T13:32:55.36Z</time></trkpt><trkpt lat="46.4265285" lon="10.3381718"><ele>1758.7999999999997</ele><time>2026-04-26T13:32:56.359Z</time></trkpt><trkpt lat="46.4264288" lon="10.3382297"><ele>1752.2</ele><time>2026-04-26T13:32:57.36Z</time></trkpt><trkpt lat="46.4263282" lon="10.3382304"><ele>1745.6</ele><time>2026-04-26T13:32:58.362Z</time></trkpt><trkpt lat="46.4262303" lon="10.338281"><ele>1739.0</ele><time>2026-04-26T13:32:59.366Z</time></trkpt><trkpt lat="46.4261372" lon="10.3383026"><ele>1738.9999999999998</ele><time>2026-04-26T13:33:00.367Z</time></trkpt><trkpt lat="46.4260542" lon="10.338332"><ele>1739.0</ele><time>2026-04-26T13:33:01.357Z</time></trkpt><trkpt lat="46.4259904" lon="10.3383399"><ele>1739.0</ele><time>2026-04-26T13:33:02.362Z</time></trkpt><trkpt lat="46.4259217" lon="10.338357"><ele>1739.0</ele><time>2026-04-26T13:33:03.369Z</time></trkpt><trkpt lat="46.4259975" lon="10.3384468"><ele>1738.9999999999998</ele><time>2026-04-26T13:33:06.36Z</time></trkpt><trkpt lat="46.4260878" lon="10.3385146"><ele>1739.0</ele><time>2026-04-26T13:33:07.36Z</time></trkpt><trkpt lat="46.4261908" lon="10.3385892"><ele>1739.0</ele><time>2026-04-26T13:33:08.361Z</time></trkpt><trkpt lat="46.4262714" lon="10.3386952"><ele>1739.0</ele><time>2026-04-26T13:33:09.371Z</time></trkpt><trkpt lat="46.426354" lon="10.3387897"><ele>1739.0</ele><time>2026-04-26T13:33:10.363Z</time></trkpt><trkpt lat="46.4264202" lon="10.3388571"><ele>1739.0</ele><time>2026-04-26T13:33:11.36Z</time></trkpt><trkpt lat="46.4264898" lon="10.3389202"><ele>1739.0</ele><time>2026-04-26T13:33:12.359Z</time></trkpt><trkpt lat="46.4265402" lon="10.3390083"><ele>1732.0</ele><time>2026-04-26T13:33:14.359Z</time></trkpt><trkpt lat="46.4264743" lon="10.3390624"><ele>1725.0</ele><time>2026-04-26T13:33:16.359Z</time></trkpt><trkpt lat="46.4263578" lon="10.3391083"><ele>1718.0</ele><time>2026-04-26T13:33:18.363Z</time></trkpt><trkpt lat="46.4262597" lon="10.3392054"><ele>1711.0</ele><time>2026-04-26T13:33:19.365Z</time></trkpt><trkpt lat="46.4261654" lon="10.3393114"><ele>1704.0</ele><time>2026-04-26T13:33:20.359Z</time></trkpt><trkpt lat="46.426069" lon="10.3393894"><ele>1704.0</ele><time>2026-04-26T13:33:21.363Z</time></trkpt><trkpt lat="46.4259876" lon="10.3394552"><ele>1704.0</ele><time>2026-04-26T13:33:22.36Z</time></trkpt><trkpt lat="46.4259066" lon="10.3394606"><ele>1704.0</ele><time>2026-04-26T13:33:23.36Z</time></trkpt><trkpt lat="46.4257919" lon="10.3394964"><ele>1704.0</ele><time>2026-04-26T13:33:24.365Z</time></trkpt><trkpt lat="46.4256942" lon="10.3395538"><ele>1704.0</ele><time>2026-04-26T13:33:25.36Z</time></trkpt><trkpt lat="46.425601" lon="10.3396179"><ele>1704.0</ele><time>2026-04-26T13:33:26.362Z</time></trkpt><trkpt lat="46.4255063" lon="10.3397003"><ele>1704.0</ele><time>2026-04-26T13:33:27.378Z</time></trkpt><trkpt lat="46.4254261" lon="10.3397504"><ele>1704.0</ele><time>2026-04-26T13:33:28.36Z</time></trkpt><trkpt lat="46.4253602" lon="10.3398365"><ele>1704.0</ele><time>2026-04-26T13:33:29.363Z</time></trkpt><trkpt lat="46.4252986" lon="10.3398937"><ele>1704.0</ele><time>2026-04-26T13:33:30.36Z</time></trkpt><trkpt lat="46.4252296" lon="10.3399458"><ele>1704.0</ele><time>2026-04-26T13:33:31.361Z</time></trkpt><trkpt lat="46.4251539" lon="10.3400314"><ele>1698.2</ele><time>2026-04-26T13:33:33.36Z</time></trkpt><trkpt lat="46.4250529" lon="10.3400675"><ele>1692.4</ele><time>2026-04-26T13:33:35.362Z</time></trkpt><trkpt lat="46.4249859" lon="10.3400966"><ele>1686.6</ele><time>2026-04-26T13:33:36.365Z</time></trkpt><trkpt lat="46.4249124" lon="10.3401361"><ele>1680.8</ele><time>2026-04-26T13:33:37.363Z</time></trkpt><trkpt lat="46.4247816" lon="10.3401843"><ele>1675.0</ele><time>2026-04-26T13:33:39.356Z</time></trkpt><trkpt lat="46.4247156" lon="10.3402001"><ele>1675.0000000000002</ele><time>2026-04-26T13:33:40.362Z</time></trkpt><trkpt lat="46.4247637" lon="10.3403447"><ele>1675.0</ele><time>2026-04-26T13:33:43.363Z</time></trkpt><trkpt lat="46.4248174" lon="10.3404393"><ele>1675.0</ele><time>2026-04-26T13:33:46.364Z</time></trkpt><trkpt lat="46.4248805" lon="10.3405227"><ele>1675.0</ele><time>2026-04-26T13:33:49.362Z</time></trkpt><trkpt lat="46.4249312" lon="10.340579"><ele>1675.0000000000002</ele><time>2026-04-26T13:33:51.361Z</time></trkpt><trkpt lat="46.4249207" lon="10.3406863"><ele>1675.0</ele><time>2026-04-26T13:33:54.364Z</time></trkpt><trkpt lat="46.4248698" lon="10.340765"><ele>1671.3333333333335</ele><time>2026-04-26T13:33:55.364Z</time></trkpt><trkpt lat="46.4247572" lon="10.3408023"><ele>1667.6666666666667</ele><time>2026-04-26T13:33:56.359Z</time></trkpt><trkpt lat="46.4246635" lon="10.3407511"><ele>1664.0</ele><time>2026-04-26T13:33:57.363Z</time></trkpt><trkpt lat="46.4245751" lon="10.3407345"><ele>1660.3333333333335</ele><time>2026-04-26T13:33:58.353Z</time></trkpt><trkpt lat="46.4244947" lon="10.3407435"><ele>1656.6666666666667</ele><time>2026-04-26T13:33:59.366Z</time></trkpt><trkpt lat="46.4244329" lon="10.3407642"><ele>1653.0</ele><time>2026-04-26T13:34:00.361Z</time></trkpt><trkpt lat="46.424377" lon="10.3408392"><ele>1652.2</ele><time>2026-04-26T13:34:01.357Z</time></trkpt><trkpt lat="46.4243171" lon="10.3409225"><ele>1651.4</ele><time>2026-04-26T13:34:02.374Z</time></trkpt><trkpt lat="46.4242153" lon="10.3409656"><ele>1650.6000000000001</ele><time>2026-04-26T13:34:03.363Z</time></trkpt><trkpt lat="46.4241263" lon="10.3410278"><ele>1649.8000000000002</ele><time>2026-04-26T13:34:04.359Z</time></trkpt><trkpt lat="46.4240324" lon="10.3410547"><ele>1649.0</ele><time>2026-04-26T13:34:05.36Z</time></trkpt><trkpt lat="46.4239198" lon="10.3410437"><ele>1649.0</ele><time>2026-04-26T13:34:06.363Z</time></trkpt><trkpt lat="46.4238176" lon="10.3410894"><ele>1649.0</ele><time>2026-04-26T13:34:07.362Z</time></trkpt><trkpt lat="46.4237265" lon="10.3411314"><ele>1649.0</ele><time>2026-04-26T13:34:08.358Z</time></trkpt><trkpt lat="46.4236347" lon="10.3411908"><ele>1649.0</ele><time>2026-04-26T13:34:09.36Z</time></trkpt><trkpt lat="46.4235127" lon="10.3412843"><ele>1649.0</ele><time>2026-04-26T13:34:11.369Z</time></trkpt><trkpt lat="46.4234498" lon="10.3413417"><ele>1642.2</ele><time>2026-04-26T13:34:12.362Z</time></trkpt><trkpt lat="46.4233944" lon="10.3414047"><ele>1635.4</ele><time>2026-04-26T13:34:13.367Z</time></trkpt><trkpt lat="46.423333" lon="10.3415092"><ele>1628.6</ele><time>2026-04-26T13:34:14.356Z</time></trkpt><trkpt lat="46.4232414" lon="10.3415516"><ele>1621.8</ele><time>2026-04-26T13:34:15.359Z</time></trkpt><trkpt lat="46.4231304" lon="10.3415883"><ele>1615.0</ele><time>2026-04-26T13:34:16.359Z</time></trkpt><trkpt lat="46.4230366" lon="10.3416238"><ele>1612.8</ele><time>2026-04-26T13:34:17.359Z</time></trkpt><trkpt lat="46.4229444" lon="10.34169"><ele>1610.6</ele><time>2026-04-26T13:34:18.361Z</time></trkpt><trkpt lat="46.4228535" lon="10.3417402"><ele>1608.4</ele><time>2026-04-26T13:34:19.356Z</time></trkpt><trkpt lat="46.4227459" lon="10.3417849"><ele>1606.2</ele><time>2026-04-26T13:34:20.359Z</time></trkpt><trkpt lat="46.4226901" lon="10.3417191"><ele>1604.0</ele><time>2026-04-26T13:34:21.371Z</time></trkpt><trkpt lat="46.4225963" lon="10.3417057"><ele>1603.9999999999998</ele><time>2026-04-26T13:34:22.36Z</time></trkpt><trkpt lat="46.4225247" lon="10.3417346"><ele>1604.0</ele><time>2026-04-26T13:34:23.363Z</time></trkpt><trkpt lat="46.422458" lon="10.3417546"><ele>1604.0</ele><time>2026-04-26T13:34:24.36Z</time></trkpt><trkpt lat="46.4223922" lon="10.3417787"><ele>1604.0</ele><time>2026-04-26T13:34:26.36Z</time></trkpt><trkpt lat="46.4224287" lon="10.3418867"><ele>1603.9999999999998</ele><time>2026-04-26T13:34:30.358Z</time></trkpt><trkpt lat="46.4225085" lon="10.341943"><ele>1604.0</ele><time>2026-04-26T13:34:33.359Z</time></trkpt><trkpt lat="46.4227544" lon="10.3419491"><ele>1586.0</ele><time>2026-04-26T13:34:35.361Z</time></trkpt><trkpt lat="46.4230958" lon="10.3425567"><ele>1585.9999999999998</ele><time>2026-04-26T13:34:36.356Z</time></trkpt><trkpt lat="46.4231651" lon="10.3426207"><ele>1586.0</ele><time>2026-04-26T13:34:37.359Z</time></trkpt><trkpt lat="46.4232104" lon="10.3426951"><ele>1586.0</ele><time>2026-04-26T13:34:38.359Z</time></trkpt><trkpt lat="46.4231504" lon="10.3428862"><ele>1586.0</ele><time>2026-04-26T13:34:40.358Z</time></trkpt><trkpt lat="46.4231045" lon="10.3429582"><ele>1585.9999999999998</ele><time>2026-04-26T13:34:41.362Z</time></trkpt><trkpt lat="46.4230584" lon="10.3430242"><ele>1586.0</ele><time>2026-04-26T13:34:42.359Z</time></trkpt><trkpt lat="46.4229234" lon="10.3430101"><ele>1585.3333333333333</ele><time>2026-04-26T13:34:44.365Z</time></trkpt><trkpt lat="46.4228245" lon="10.3430226"><ele>1584.6666666666665</ele><time>2026-04-26T13:34:45.364Z</time></trkpt><trkpt lat="46.4227533" lon="10.3429922"><ele>1584.0</ele><time>2026-04-26T13:34:46.37Z</time></trkpt><trkpt lat="46.4226565" lon="10.3429885"><ele>1583.3333333333335</ele><time>2026-04-26T13:34:47.361Z</time></trkpt><trkpt lat="46.4225918" lon="10.3429637"><ele>1582.6666666666667</ele><time>2026-04-26T13:34:48.361Z</time></trkpt><trkpt lat="46.4225392" lon="10.3430371"><ele>1582.0</ele><time>2026-04-26T13:34:49.361Z</time></trkpt><trkpt lat="46.4224982" lon="10.3431147"><ele>1577.6</ele><time>2026-04-26T13:34:50.358Z</time></trkpt><trkpt lat="46.4223891" lon="10.3431917"><ele>1573.1999999999998</ele><time>2026-04-26T13:34:52.357Z</time></trkpt><trkpt lat="46.4223282" lon="10.3432313"><ele>1568.8</ele><time>2026-04-26T13:34:53.361Z</time></trkpt><trkpt lat="46.4223275" lon="10.343402"><ele>1564.4</ele><time>2026-04-26T13:34:55.361Z</time></trkpt><trkpt lat="46.4223679" lon="10.3434914"><ele>1560.0</ele><time>2026-04-26T13:34:56.362Z</time></trkpt><trkpt lat="46.4224375" lon="10.3435463"><ele>1560.0</ele><time>2026-04-26T13:34:57.362Z</time></trkpt><trkpt lat="46.4225426" lon="10.3435632"><ele>1560.0</ele><time>2026-04-26T13:34:59.36Z</time></trkpt><trkpt lat="46.42263" lon="10.3435548"><ele>1560.0</ele><time>2026-04-26T13:35:00.359Z</time></trkpt><trkpt lat="46.4227197" lon="10.3435475"><ele>1560.0</ele><time>2026-04-26T13:35:01.363Z</time></trkpt><trkpt lat="46.4228032" lon="10.3435601"><ele>1560.0</ele><time>2026-04-26T13:35:02.363Z</time></trkpt><trkpt lat="46.4228898" lon="10.3435852"><ele>1560.0</ele><time>2026-04-26T13:35:03.363Z</time></trkpt><trkpt lat="46.4229689" lon="10.3436027"><ele>1560.0</ele><time>2026-04-26T13:35:04.362Z</time></trkpt><trkpt lat="46.4230366" lon="10.3436439"><ele>1560.0</ele><time>2026-04-26T13:35:05.36Z</time></trkpt><trkpt lat="46.4231405" lon="10.3435809"><ele>1560.0</ele><time>2026-04-26T13:35:06.363Z</time></trkpt><trkpt lat="46.4232402" lon="10.3435376"><ele>1560.0</ele><time>2026-04-26T13:35:07.359Z</time></trkpt><trkpt lat="46.4233646" lon="10.3434519"><ele>1557.0</ele><time>2026-04-26T13:35:08.362Z</time></trkpt><trkpt lat="46.4234886" lon="10.3433992"><ele>1554.0</ele><time>2026-04-26T13:35:09.358Z</time></trkpt><trkpt lat="46.4236199" lon="10.3433337"><ele>1551.0</ele><time>2026-04-26T13:35:10.362Z</time></trkpt><trkpt lat="46.423744" lon="10.3433138"><ele>1548.0</ele><time>2026-04-26T13:35:11.364Z</time></trkpt><trkpt lat="46.4238974" lon="10.3432782"><ele>1541.3333333333333</ele><time>2026-04-26T13:35:12.359Z</time></trkpt><trkpt lat="46.4240671" lon="10.3432665"><ele>1534.6666666666665</ele><time>2026-04-26T13:35:13.365Z</time></trkpt><trkpt lat="46.424212" lon="10.3432724"><ele>1528.0</ele><time>2026-04-26T13:35:14.365Z</time></trkpt><trkpt lat="46.4243508" lon="10.3432639"><ele>1528.0</ele><time>2026-04-26T13:35:15.362Z</time></trkpt><trkpt lat="46.4244973" lon="10.3432758"><ele>1528.0</ele><time>2026-04-26T13:35:16.363Z</time></trkpt><trkpt lat="46.4246572" lon="10.3432753"><ele>1528.0</ele><time>2026-04-26T13:35:17.365Z</time></trkpt><trkpt lat="46.4248148" lon="10.3432995"><ele>1522.3333333333333</ele><time>2026-04-26T13:35:18.368Z</time></trkpt><trkpt lat="46.424974" lon="10.3433368"><ele>1516.6666666666667</ele><time>2026-04-26T13:35:19.359Z</time></trkpt><trkpt lat="46.4251259" lon="10.3433919"><ele>1511.0</ele><time>2026-04-26T13:35:20.358Z</time></trkpt><trkpt lat="46.4252772" lon="10.3434409"><ele>1511.0</ele><time>2026-04-26T13:35:21.36Z</time></trkpt><trkpt lat="46.4253907" lon="10.3434985"><ele>1511.0</ele><time>2026-04-26T13:35:22.362Z</time></trkpt><trkpt lat="46.4254933" lon="10.3435267"><ele>1511.0</ele><time>2026-04-26T13:35:23.365Z</time></trkpt><trkpt lat="46.425587" lon="10.3435423"><ele>1511.0</ele><time>2026-04-26T13:35:24.36Z</time></trkpt><trkpt lat="46.4257073" lon="10.3435401"><ele>1511.0</ele><time>2026-04-26T13:35:26.365Z</time></trkpt><trkpt lat="46.4257811" lon="10.3435265"><ele>1511.0</ele><time>2026-04-26T13:35:28.361Z</time></trkpt><trkpt lat="46.4257139" lon="10.343601"><ele>1511.0</ele><time>2026-04-26T13:35:30.36Z</time></trkpt><trkpt lat="46.4256296" lon="10.3436354"><ele>1511.0</ele><time>2026-04-26T13:35:31.357Z</time></trkpt><trkpt lat="46.4255379" lon="10.343643"><ele>1511.0</ele><time>2026-04-26T13:35:32.363Z</time></trkpt><trkpt lat="46.4254165" lon="10.3436889"><ele>1511.0</ele><time>2026-04-26T13:35:33.363Z</time></trkpt><trkpt lat="46.4252902" lon="10.3437067"><ele>1511.0</ele><time>2026-04-26T13:35:34.365Z</time></trkpt><trkpt lat="46.4251563" lon="10.343724"><ele>1511.0</ele><time>2026-04-26T13:35:35.361Z</time></trkpt><trkpt lat="46.4250158" lon="10.3437615"><ele>1511.0</ele><time>2026-04-26T13:35:36.355Z</time></trkpt><trkpt lat="46.4248827" lon="10.3438004"><ele>1511.0</ele><time>2026-04-26T13:35:37.366Z</time></trkpt><trkpt lat="46.4247771" lon="10.3438174"><ele>1511.0</ele><time>2026-04-26T13:35:38.36Z</time></trkpt><trkpt lat="46.4246613" lon="10.3438532"><ele>1511.0</ele><time>2026-04-26T13:35:39.361Z</time></trkpt><trkpt lat="46.4245581" lon="10.3439312"><ele>1511.0</ele><time>2026-04-26T13:35:40.364Z</time></trkpt><trkpt lat="46.4244581" lon="10.3439926"><ele>1511.0</ele><time>2026-04-26T13:35:41.365Z</time></trkpt><trkpt lat="46.4243875" lon="10.3440187"><ele>1511.0</ele><time>2026-04-26T13:35:42.356Z</time></trkpt><trkpt lat="46.4243167" lon="10.3440484"><ele>1505.8</ele><time>2026-04-26T13:35:43.357Z</time></trkpt><trkpt lat="46.4244468" lon="10.3440914"><ele>1500.6</ele><time>2026-04-26T13:35:44.36Z</time></trkpt><trkpt lat="46.4245263" lon="10.3441082"><ele>1495.4</ele><time>2026-04-26T13:35:46.355Z</time></trkpt><trkpt lat="46.4245909" lon="10.3441175"><ele>1490.2</ele><time>2026-04-26T13:35:47.356Z</time></trkpt><trkpt lat="46.4246981" lon="10.3441457"><ele>1485.0</ele><time>2026-04-26T13:35:48.368Z</time></trkpt><trkpt lat="46.4248" lon="10.344143"><ele>1482.25</ele><time>2026-04-26T13:35:49.364Z</time></trkpt><trkpt lat="46.4249827" lon="10.3441871"><ele>1479.5</ele><time>2026-04-26T13:35:50.368Z</time></trkpt><trkpt lat="46.4251127" lon="10.3441926"><ele>1476.75</ele><time>2026-04-26T13:35:51.358Z</time></trkpt><trkpt lat="46.4252192" lon="10.3442224"><ele>1474.0</ele><time>2026-04-26T13:35:52.357Z</time></trkpt><trkpt lat="46.4252989" lon="10.3442537"><ele>1474.0</ele><time>2026-04-26T13:35:53.356Z</time></trkpt><trkpt lat="46.4253816" lon="10.3442816"><ele>1474.0</ele><time>2026-04-26T13:35:54.357Z</time></trkpt><trkpt lat="46.4254566" lon="10.344323"><ele>1474.0</ele><time>2026-04-26T13:35:55.362Z</time></trkpt><trkpt lat="46.4253891" lon="10.3443646"><ele>1474.0</ele><time>2026-04-26T13:35:58.359Z</time></trkpt><trkpt lat="46.4252986" lon="10.3443589"><ele>1474.0</ele><time>2026-04-26T13:36:00.368Z</time></trkpt><trkpt lat="46.4252155" lon="10.3443556"><ele>1474.0</ele><time>2026-04-26T13:36:03.361Z</time></trkpt><trkpt lat="46.425105" lon="10.344334"><ele>1451.0</ele><time>2026-04-26T13:36:05.362Z</time></trkpt><trkpt lat="46.4245714" lon="10.3447454"><ele>1451.0</ele><time>2026-04-26T13:36:06.359Z</time></trkpt><trkpt lat="46.4244758" lon="10.3448691"><ele>1451.0</ele><time>2026-04-26T13:36:07.356Z</time></trkpt><trkpt lat="46.4244477" lon="10.3450134"><ele>1451.0</ele><time>2026-04-26T13:36:08.354Z</time></trkpt><trkpt lat="46.4243819" lon="10.3451185"><ele>1451.0</ele><time>2026-04-26T13:36:09.362Z</time></trkpt><trkpt lat="46.424311" lon="10.3451841"><ele>1451.0</ele><time>2026-04-26T13:36:10.363Z</time></trkpt><trkpt lat="46.4242426" lon="10.3452736"><ele>1451.0</ele><time>2026-04-26T13:36:11.359Z</time></trkpt><trkpt lat="46.424208" lon="10.3453546"><ele>1451.0</ele><time>2026-04-26T13:36:12.359Z</time></trkpt><trkpt lat="46.4241638" lon="10.3454798"><ele>1451.0</ele><time>2026-04-26T13:36:14.365Z</time></trkpt><trkpt lat="46.4242685" lon="10.345617"><ele>1451.0</ele><time>2026-04-26T13:36:16.362Z</time></trkpt><trkpt lat="46.424358" lon="10.3456856"><ele>1451.0</ele><time>2026-04-26T13:36:17.37Z</time></trkpt><trkpt lat="46.424442" lon="10.3457836"><ele>1444.5</ele><time>2026-04-26T13:36:18.362Z</time></trkpt><trkpt lat="46.4245217" lon="10.3458789"><ele>1438.0</ele><time>2026-04-26T13:36:19.363Z</time></trkpt><trkpt lat="46.4246171" lon="10.3459643"><ele>1431.5</ele><time>2026-04-26T13:36:20.362Z</time></trkpt><trkpt lat="46.4247416" lon="10.3459894"><ele>1425.0</ele><time>2026-04-26T13:36:21.358Z</time></trkpt><trkpt lat="46.424845" lon="10.3460913"><ele>1424.75</ele><time>2026-04-26T13:36:22.362Z</time></trkpt><trkpt lat="46.4249556" lon="10.3461739"><ele>1424.5</ele><time>2026-04-26T13:36:23.361Z</time></trkpt><trkpt lat="46.4250728" lon="10.3462371"><ele>1424.25</ele><time>2026-04-26T13:36:24.356Z</time></trkpt><trkpt lat="46.4251978" lon="10.346313"><ele>1424.0</ele><time>2026-04-26T13:36:25.359Z</time></trkpt><trkpt lat="46.4253172" lon="10.3463668"><ele>1418.0</ele><time>2026-04-26T13:36:26.363Z</time></trkpt><trkpt lat="46.4254344" lon="10.3464587"><ele>1412.0</ele><time>2026-04-26T13:36:27.36Z</time></trkpt><trkpt lat="46.4255374" lon="10.3465095"><ele>1406.0</ele><time>2026-04-26T13:36:28.362Z</time></trkpt><trkpt lat="46.4256245" lon="10.3465269"><ele>1400.0</ele><time>2026-04-26T13:36:29.361Z</time></trkpt><trkpt lat="46.4257126" lon="10.3465265"><ele>1394.0</ele><time>2026-04-26T13:36:30.361Z</time></trkpt><trkpt lat="46.4257751" lon="10.3464822"><ele>1393.5</ele><time>2026-04-26T13:36:31.367Z</time></trkpt><trkpt lat="46.425873" lon="10.3464261"><ele>1393.0</ele><time>2026-04-26T13:36:32.358Z</time></trkpt><trkpt lat="46.4259984" lon="10.3463679"><ele>1392.5</ele><time>2026-04-26T13:36:33.364Z</time></trkpt><trkpt lat="46.4261188" lon="10.346313"><ele>1392.0</ele><time>2026-04-26T13:36:34.36Z</time></trkpt><trkpt lat="46.4262282" lon="10.3462673"><ele>1390.6666666666667</ele><time>2026-04-26T13:36:35.362Z</time></trkpt><trkpt lat="46.4262908" lon="10.3462491"><ele>1389.3333333333333</ele><time>2026-04-26T13:36:36.365Z</time></trkpt><trkpt lat="46.4263591" lon="10.3462562"><ele>1388.0</ele><time>2026-04-26T13:36:37.365Z</time></trkpt><trkpt lat="46.4264335" lon="10.346266"><ele>1386.6666666666665</ele><time>2026-04-26T13:36:38.361Z</time></trkpt><trkpt lat="46.4265107" lon="10.3462694"><ele>1385.3333333333333</ele><time>2026-04-26T13:36:39.366Z</time></trkpt><trkpt lat="46.4265746" lon="10.3463871"><ele>1384.0</ele><time>2026-04-26T13:36:40.358Z</time></trkpt><trkpt lat="46.4266529" lon="10.3465231"><ele>1384.0</ele><time>2026-04-26T13:36:42.358Z</time></trkpt><trkpt lat="46.4267678" lon="10.3465245"><ele>1384.0</ele><time>2026-04-26T13:36:44.359Z</time></trkpt><trkpt lat="46.4268475" lon="10.3464743"><ele>1384.0</ele><time>2026-04-26T13:36:45.357Z</time></trkpt><trkpt lat="46.4268999" lon="10.3464212"><ele>1384.0</ele><time>2026-04-26T13:36:46.363Z</time></trkpt><trkpt lat="46.4270231" lon="10.3464503"><ele>1384.0</ele><time>2026-04-26T13:36:47.364Z</time></trkpt><trkpt lat="46.4271279" lon="10.3464337"><ele>1382.0</ele><time>2026-04-26T13:36:48.362Z</time></trkpt><trkpt lat="46.4272192" lon="10.346394"><ele>1380.0</ele><time>2026-04-26T13:36:49.359Z</time></trkpt><trkpt lat="46.4273231" lon="10.3464286"><ele>1378.0</ele><time>2026-04-26T13:36:51.359Z</time></trkpt><trkpt lat="46.4273594" lon="10.3465111"><ele>1376.0</ele><time>2026-04-26T13:36:54.368Z</time></trkpt><trkpt lat="46.4273335" lon="10.3465962"><ele>1374.0</ele><time>2026-04-26T13:36:56.364Z</time></trkpt><trkpt lat="46.4272701" lon="10.3466608"><ele>1372.0</ele><time>2026-04-26T13:36:59.363Z</time></trkpt><trkpt lat="46.4272059" lon="10.3466904"><ele>1378.0</ele><time>2026-04-26T13:37:01.357Z</time></trkpt><trkpt lat="46.4271106" lon="10.3467241"><ele>1384.0</ele><time>2026-04-26T13:37:02.363Z</time></trkpt><trkpt lat="46.4267273" lon="10.3471453"><ele>1374.0</ele><time>2026-04-26T13:37:03.357Z</time></trkpt><trkpt lat="46.4266104" lon="10.3472139"><ele>1364.0</ele><time>2026-04-26T13:37:04.364Z</time></trkpt><trkpt lat="46.4265011" lon="10.3472725"><ele>1354.0</ele><time>2026-04-26T13:37:05.355Z</time></trkpt><trkpt lat="46.4263898" lon="10.3473722"><ele>1344.0</ele><time>2026-04-26T13:37:06.37Z</time></trkpt><trkpt lat="46.426315" lon="10.3474511"><ele>1346.0</ele><time>2026-04-26T13:37:07.36Z</time></trkpt><trkpt lat="46.42621" lon="10.3475594"><ele>1348.0</ele><time>2026-04-26T13:37:08.36Z</time></trkpt><trkpt lat="46.4261121" lon="10.3476534"><ele>1350.0</ele><time>2026-04-26T13:37:09.356Z</time></trkpt><trkpt lat="46.4260353" lon="10.3477104"><ele>1352.0</ele><time>2026-04-26T13:37:10.36Z</time></trkpt><trkpt lat="46.4259601" lon="10.3477658"><ele>1354.0</ele><time>2026-04-26T13:37:11.364Z</time></trkpt><trkpt lat="46.4258625" lon="10.3478164"><ele>1354.0</ele><time>2026-04-26T13:37:12.368Z</time></trkpt><trkpt lat="46.4257716" lon="10.3478704"><ele>1354.0</ele><time>2026-04-26T13:37:13.363Z</time></trkpt><trkpt lat="46.4256813" lon="10.3479425"><ele>1354.0</ele><time>2026-04-26T13:37:14.36Z</time></trkpt><trkpt lat="46.4255987" lon="10.3481065"><ele>1354.0</ele><time>2026-04-26T13:37:16.36Z</time></trkpt><trkpt lat="46.4255266" lon="10.3481568"><ele>1354.0</ele><time>2026-04-26T13:37:17.361Z</time></trkpt><trkpt lat="46.4254322" lon="10.3481913"><ele>1344.6</ele><time>2026-04-26T13:37:18.365Z</time></trkpt><trkpt lat="46.4253573" lon="10.3482091"><ele>1335.2</ele><time>2026-04-26T13:37:19.357Z</time></trkpt><trkpt lat="46.4252444" lon="10.3482025"><ele>1325.8</ele><time>2026-04-26T13:37:20.363Z</time></trkpt><trkpt lat="46.4251269" lon="10.3481807"><ele>1316.3999999999999</ele><time>2026-04-26T13:37:21.364Z</time></trkpt><trkpt lat="46.4249977" lon="10.3481835"><ele>1307.0</ele><time>2026-04-26T13:37:22.361Z</time></trkpt><trkpt lat="46.4248838" lon="10.3481523"><ele>1307.0</ele><time>2026-04-26T13:37:23.368Z</time></trkpt><trkpt lat="46.4247586" lon="10.3481334"><ele>1307.0</ele><time>2026-04-26T13:37:24.357Z</time></trkpt><trkpt lat="46.4246648" lon="10.3480914"><ele>1307.0</ele><time>2026-04-26T13:37:25.363Z</time></trkpt><trkpt lat="46.424574" lon="10.3480826"><ele>1307.0</ele><time>2026-04-26T13:37:26.368Z</time></trkpt><trkpt lat="46.4245002" lon="10.348099"><ele>1307.0</ele><time>2026-04-26T13:37:27.362Z</time></trkpt><trkpt lat="46.4244235" lon="10.3481161"><ele>1304.6666666666667</ele><time>2026-04-26T13:37:28.369Z</time></trkpt><trkpt lat="46.4243049" lon="10.3481465"><ele>1302.3333333333335</ele><time>2026-04-26T13:37:30.359Z</time></trkpt><trkpt lat="46.4242145" lon="10.348139"><ele>1300.0</ele><time>2026-04-26T13:37:32.358Z</time></trkpt><trkpt lat="46.4241507" lon="10.3481547"><ele>1297.6666666666667</ele><time>2026-04-26T13:37:34.358Z</time></trkpt><trkpt lat="46.4240799" lon="10.3481614"><ele>1295.3333333333333</ele><time>2026-04-26T13:37:37.361Z</time></trkpt><trkpt lat="46.4240127" lon="10.3481485"><ele>1293.0</ele><time>2026-04-26T13:37:41.359Z</time></trkpt><trkpt lat="46.4238218" lon="10.348126"><ele>1293.0</ele><time>2026-04-26T13:37:43.357Z</time></trkpt><trkpt lat="46.423874" lon="10.3482533"><ele>1293.0</ele><time>2026-04-26T13:37:46.362Z</time></trkpt><trkpt lat="46.4239358" lon="10.3483094"><ele>1293.0</ele><time>2026-04-26T13:37:47.359Z</time></trkpt><trkpt lat="46.4240501" lon="10.3484006"><ele>1293.0</ele><time>2026-04-26T13:37:48.365Z</time></trkpt><trkpt lat="46.42423" lon="10.3485896"><ele>1293.0</ele><time>2026-04-26T13:37:49.361Z</time></trkpt><trkpt lat="46.4243599" lon="10.3487159"><ele>1293.0</ele><time>2026-04-26T13:37:50.362Z</time></trkpt><trkpt lat="46.4244871" lon="10.3488305"><ele>1293.0</ele><time>2026-04-26T13:37:51.357Z</time></trkpt><trkpt lat="46.4245763" lon="10.3489007"><ele>1293.0</ele><time>2026-04-26T13:37:52.362Z</time></trkpt><trkpt lat="46.4246553" lon="10.3489726"><ele>1286.0</ele><time>2026-04-26T13:37:53.362Z</time></trkpt><trkpt lat="46.4247883" lon="10.3490322"><ele>1279.0</ele><time>2026-04-26T13:37:55.36Z</time></trkpt><trkpt lat="46.4248776" lon="10.3490816"><ele>1272.0</ele><time>2026-04-26T13:37:56.362Z</time></trkpt><trkpt lat="46.4249694" lon="10.3491147"><ele>1265.0</ele><time>2026-04-26T13:37:57.366Z</time></trkpt><trkpt lat="46.4251181" lon="10.3491744"><ele>1265.0</ele><time>2026-04-26T13:37:58.36Z</time></trkpt><trkpt lat="46.4252604" lon="10.3492496"><ele>1265.0</ele><time>2026-04-26T13:37:59.359Z</time></trkpt><trkpt lat="46.4254161" lon="10.3493372"><ele>1265.0</ele><time>2026-04-26T13:38:00.361Z</time></trkpt><trkpt lat="46.4255494" lon="10.3493665"><ele>1263.0</ele><time>2026-04-26T13:38:01.363Z</time></trkpt><trkpt lat="46.4256818" lon="10.3494035"><ele>1261.0</ele><time>2026-04-26T13:38:02.369Z</time></trkpt><trkpt lat="46.4258135" lon="10.349424"><ele>1259.0</ele><time>2026-04-26T13:38:03.36Z</time></trkpt><trkpt lat="46.4259104" lon="10.3494483"><ele>1257.0</ele><time>2026-04-26T13:38:04.36Z</time></trkpt><trkpt lat="46.4260059" lon="10.3494969"><ele>1257.0</ele><time>2026-04-26T13:38:05.364Z</time></trkpt><trkpt lat="46.4261003" lon="10.3495272"><ele>1257.0</ele><time>2026-04-26T13:38:06.361Z</time></trkpt><trkpt lat="46.4262156" lon="10.3495462"><ele>1257.0</ele><time>2026-04-26T13:38:07.36Z</time></trkpt><trkpt lat="46.4263243" lon="10.3495618"><ele>1257.0</ele><time>2026-04-26T13:38:08.357Z</time></trkpt><trkpt lat="46.4264321" lon="10.3495924"><ele>1257.0</ele><time>2026-04-26T13:38:09.362Z</time></trkpt><trkpt lat="46.4265144" lon="10.3495941"><ele>1256.5</ele><time>2026-04-26T13:38:10.358Z</time></trkpt><trkpt lat="46.4266076" lon="10.3496091"><ele>1256.0</ele><time>2026-04-26T13:38:11.367Z</time></trkpt><trkpt lat="46.4266825" lon="10.3495978"><ele>1255.5</ele><time>2026-04-26T13:38:12.365Z</time></trkpt><trkpt lat="46.4267577" lon="10.3495929"><ele>1255.0</ele><time>2026-04-26T13:38:13.362Z</time></trkpt><trkpt lat="46.4268123" lon="10.3495297"><ele>1254.5</ele><time>2026-04-26T13:38:14.359Z</time></trkpt><trkpt lat="46.426885" lon="10.3494629"><ele>1254.0</ele><time>2026-04-26T13:38:16.365Z</time></trkpt><trkpt lat="46.4269646" lon="10.3494754"><ele>1254.0</ele><time>2026-04-26T13:38:19.367Z</time></trkpt><trkpt lat="46.4270374" lon="10.3495022"><ele>1254.0</ele><time>2026-04-26T13:38:24.361Z</time></trkpt><trkpt lat="46.4271" lon="10.3494893"><ele>1254.0</ele><time>2026-04-26T13:38:35.367Z</time></trkpt><trkpt lat="46.4271366" lon="10.3495793"><ele>1254.0</ele><time>2026-04-26T13:38:40.361Z</time></trkpt><trkpt lat="46.4271914" lon="10.3496267"><ele>1254.0</ele><time>2026-04-26T13:38:43.356Z</time></trkpt><trkpt lat="46.4272793" lon="10.3496232"><ele>1254.0</ele><time>2026-04-26T13:38:46.36Z</time></trkpt><trkpt lat="46.4273635" lon="10.3496253"><ele>1254.0</ele><time>2026-04-26T13:38:48.366Z</time></trkpt><trkpt lat="46.4274712" lon="10.3496376"><ele>1245.5</ele><time>2026-04-26T13:38:50.357Z</time></trkpt><trkpt lat="46.4275395" lon="10.3496479"><ele>1237.0</ele><time>2026-04-26T13:38:51.357Z</time></trkpt><trkpt lat="46.4279957" lon="10.3495792"><ele>1232.2</ele><time>2026-04-26T13:38:52.357Z</time></trkpt><trkpt lat="46.4280759" lon="10.3495199"><ele>1227.4</ele><time>2026-04-26T13:38:53.354Z</time></trkpt><trkpt lat="46.4281491" lon="10.3494651"><ele>1222.6</ele><time>2026-04-26T13:38:54.36Z</time></trkpt><trkpt lat="46.4282743" lon="10.3494545"><ele>1217.8</ele><time>2026-04-26T13:38:56.36Z</time></trkpt><trkpt lat="46.4283725" lon="10.3495293"><ele>1213.0</ele><time>2026-04-26T13:38:58.36Z</time></trkpt><trkpt lat="46.4284345" lon="10.3495071"><ele>1213.0</ele><time>2026-04-26T13:38:59.36Z</time></trkpt><trkpt lat="46.4285132" lon="10.3494653"><ele>1213.0</ele><time>2026-04-26T13:39:00.357Z</time></trkpt><trkpt lat="46.4285957" lon="10.3494395"><ele>1213.0</ele><time>2026-04-26T13:39:01.361Z</time></trkpt><trkpt lat="46.4286828" lon="10.3493982"><ele>1213.0</ele><time>2026-04-26T13:39:02.369Z</time></trkpt><trkpt lat="46.4287009" lon="10.3495281"><ele>1213.0</ele><time>2026-04-26T13:39:06.358Z</time></trkpt><trkpt lat="46.4285816" lon="10.349638"><ele>1207.4</ele><time>2026-04-26T13:39:07.362Z</time></trkpt><trkpt lat="46.4285247" lon="10.3497344"><ele>1201.8</ele><time>2026-04-26T13:39:08.366Z</time></trkpt><trkpt lat="46.4284704" lon="10.3498626"><ele>1196.2</ele><time>2026-04-26T13:39:09.364Z</time></trkpt><trkpt lat="46.4284202" lon="10.3499961"><ele>1190.6</ele><time>2026-04-26T13:39:10.363Z</time></trkpt><trkpt lat="46.4283889" lon="10.3501193"><ele>1185.0</ele><time>2026-04-26T13:39:11.356Z</time></trkpt><trkpt lat="46.4283362" lon="10.3502215"><ele>1185.0</ele><time>2026-04-26T13:39:12.361Z</time></trkpt><trkpt lat="46.4282915" lon="10.3503026"><ele>1185.0</ele><time>2026-04-26T13:39:13.358Z</time></trkpt><trkpt lat="46.4282419" lon="10.3504051"><ele>1185.0</ele><time>2026-04-26T13:39:14.358Z</time></trkpt><trkpt lat="46.4282119" lon="10.3505147"><ele>1185.0</ele><time>2026-04-26T13:39:15.36Z</time></trkpt><trkpt lat="46.4281842" lon="10.3506358"><ele>1185.0</ele><time>2026-04-26T13:39:16.364Z</time></trkpt><trkpt lat="46.4281508" lon="10.3507461"><ele>1185.0</ele><time>2026-04-26T13:39:17.367Z</time></trkpt><trkpt lat="46.4281161" lon="10.3508566"><ele>1181.8</ele><time>2026-04-26T13:39:18.359Z</time></trkpt><trkpt lat="46.4280823" lon="10.3509567"><ele>1178.6</ele><time>2026-04-26T13:39:19.363Z</time></trkpt><trkpt lat="46.4280507" lon="10.3510363"><ele>1175.4</ele><time>2026-04-26T13:39:20.358Z</time></trkpt><trkpt lat="46.4280142" lon="10.3511904"><ele>1172.2</ele><time>2026-04-26T13:39:22.357Z</time></trkpt><trkpt lat="46.428018" lon="10.3513546"><ele>1169.0</ele><time>2026-04-26T13:39:24.367Z</time></trkpt><trkpt lat="46.4280011" lon="10.3514984"><ele>1166.4</ele><time>2026-04-26T13:39:26.365Z</time></trkpt><trkpt lat="46.4279278" lon="10.3516088"><ele>1163.8000000000002</ele><time>2026-04-26T13:39:28.358Z</time></trkpt><trkpt lat="46.4278569" lon="10.351725"><ele>1161.1999999999998</ele><time>2026-04-26T13:39:30.359Z</time></trkpt><trkpt lat="46.4278751" lon="10.351859"><ele>1158.6</ele><time>2026-04-26T13:39:32.359Z</time></trkpt><trkpt lat="46.4278935" lon="10.3519632"><ele>1156.0</ele><time>2026-04-26T13:39:33.361Z</time></trkpt><trkpt lat="46.4279114" lon="10.352073"><ele>1156.0</ele><time>2026-04-26T13:39:34.369Z</time></trkpt><trkpt lat="46.4279293" lon="10.3521778"><ele>1156.0</ele><time>2026-04-26T13:39:35.364Z</time></trkpt><trkpt lat="46.42795" lon="10.3522887"><ele>1156.0</ele><time>2026-04-26T13:39:36.358Z</time></trkpt><trkpt lat="46.4279816" lon="10.3524056"><ele>1156.0</ele><time>2026-04-26T13:39:37.374Z</time></trkpt><trkpt lat="46.4280272" lon="10.3525327"><ele>1156.0</ele><time>2026-04-26T13:39:38.363Z</time></trkpt><trkpt lat="46.4280884" lon="10.3526719"><ele>1156.5</ele><time>2026-04-26T13:39:39.363Z</time></trkpt><trkpt lat="46.4281581" lon="10.3528128"><ele>1157.0</ele><time>2026-04-26T13:39:40.361Z</time></trkpt><trkpt lat="46.4282408" lon="10.3529371"><ele>1157.5</ele><time>2026-04-26T13:39:41.355Z</time></trkpt><trkpt lat="46.4283401" lon="10.353032"><ele>1158.0</ele><time>2026-04-26T13:39:42.362Z</time></trkpt><trkpt lat="46.4284548" lon="10.3530948"><ele>1158.75</ele><time>2026-04-26T13:39:43.358Z</time></trkpt><trkpt lat="46.4285756" lon="10.3531332"><ele>1159.5</ele><time>2026-04-26T13:39:44.357Z</time></trkpt><trkpt lat="46.4287008" lon="10.3531575"><ele>1160.25</ele><time>2026-04-26T13:39:45.365Z</time></trkpt><trkpt lat="46.4288285" lon="10.3531601"><ele>1161.0</ele><time>2026-04-26T13:39:46.362Z</time></trkpt><trkpt lat="46.4289588" lon="10.3531377"><ele>1161.0</ele><time>2026-04-26T13:39:47.359Z</time></trkpt><trkpt lat="46.4290903" lon="10.3531279"><ele>1161.0</ele><time>2026-04-26T13:39:48.359Z</time></trkpt><trkpt lat="46.4292187" lon="10.3531386"><ele>1161.0</ele><time>2026-04-26T13:39:49.367Z</time></trkpt><trkpt lat="46.4293537" lon="10.3531537"><ele>1161.0</ele><time>2026-04-26T13:39:50.366Z</time></trkpt><trkpt lat="46.4294999" lon="10.3531593"><ele>1162.6666666666667</ele><time>2026-04-26T13:39:51.36Z</time></trkpt><trkpt lat="46.4296581" lon="10.3531556"><ele>1164.3333333333335</ele><time>2026-04-26T13:39:52.362Z</time></trkpt><trkpt lat="46.4298256" lon="10.3531472"><ele>1166.0</ele><time>2026-04-26T13:39:53.358Z</time></trkpt><trkpt lat="46.4300031" lon="10.3531484"><ele>1166.0</ele><time>2026-04-26T13:39:54.365Z</time></trkpt><trkpt lat="46.4301806" lon="10.353183"><ele>1166.0</ele><time>2026-04-26T13:39:55.361Z</time></trkpt><trkpt lat="46.4303572" lon="10.3532502"><ele>1166.0</ele><time>2026-04-26T13:39:56.359Z</time></trkpt><trkpt lat="46.4305346" lon="10.3533139"><ele>1168.3333333333335</ele><time>2026-04-26T13:39:57.361Z</time></trkpt><trkpt lat="46.4306979" lon="10.3533565"><ele>1170.6666666666667</ele><time>2026-04-26T13:39:58.357Z</time></trkpt><trkpt lat="46.4308495" lon="10.3533907"><ele>1173.0</ele><time>2026-04-26T13:39:59.366Z</time></trkpt><trkpt lat="46.4310019" lon="10.3534271"><ele>1173.0</ele><time>2026-04-26T13:40:00.363Z</time></trkpt><trkpt lat="46.4311606" lon="10.3534842"><ele>1173.0</ele><time>2026-04-26T13:40:01.359Z</time></trkpt><trkpt lat="46.4313206" lon="10.3535625"><ele>1173.0</ele><time>2026-04-26T13:40:02.362Z</time></trkpt><trkpt lat="46.4314723" lon="10.3536705"><ele>1172.0</ele><time>2026-04-26T13:40:03.359Z</time></trkpt><trkpt lat="46.431614" lon="10.3537994"><ele>1171.0</ele><time>2026-04-26T13:40:04.362Z</time></trkpt><trkpt lat="46.4317471" lon="10.3539441"><ele>1170.0</ele><time>2026-04-26T13:40:05.356Z</time></trkpt><trkpt lat="46.4318713" lon="10.3540982"><ele>1170.0</ele><time>2026-04-26T13:40:06.368Z</time></trkpt><trkpt lat="46.431995" lon="10.3542492"><ele>1170.0</ele><time>2026-04-26T13:40:07.361Z</time></trkpt><trkpt lat="46.4321336" lon="10.3543951"><ele>1170.0</ele><time>2026-04-26T13:40:08.357Z</time></trkpt><trkpt lat="46.4322741" lon="10.3545337"><ele>1170.6666666666667</ele><time>2026-04-26T13:40:09.364Z</time></trkpt><trkpt lat="46.4324084" lon="10.3546643"><ele>1171.3333333333335</ele><time>2026-04-26T13:40:10.361Z</time></trkpt><trkpt lat="46.4325347" lon="10.3547857"><ele>1172.0</ele><time>2026-04-26T13:40:11.364Z</time></trkpt><trkpt lat="46.432688" lon="10.3549323"><ele>1172.0</ele><time>2026-04-26T13:40:12.365Z</time></trkpt><trkpt lat="46.4328287" lon="10.3550642"><ele>1172.0</ele><time>2026-04-26T13:40:13.358Z</time></trkpt><trkpt lat="46.4329624" lon="10.3551934"><ele>1172.0</ele><time>2026-04-26T13:40:14.363Z</time></trkpt><trkpt lat="46.4330798" lon="10.3553064"><ele>1172.25</ele><time>2026-04-26T13:40:15.358Z</time></trkpt><trkpt lat="46.4331868" lon="10.355408"><ele>1172.5</ele><time>2026-04-26T13:40:16.366Z</time></trkpt><trkpt lat="46.4332887" lon="10.3554985"><ele>1172.75</ele><time>2026-04-26T13:40:17.358Z</time></trkpt><trkpt lat="46.433393" lon="10.3555777"><ele>1173.0</ele><time>2026-04-26T13:40:18.362Z</time></trkpt><trkpt lat="46.4335012" lon="10.3556522"><ele>1173.0</ele><time>2026-04-26T13:40:19.359Z</time></trkpt><trkpt lat="46.4336094" lon="10.355732"><ele>1173.0</ele><time>2026-04-26T13:40:20.356Z</time></trkpt><trkpt lat="46.4337206" lon="10.355815"><ele>1173.0</ele><time>2026-04-26T13:40:21.36Z</time></trkpt><trkpt lat="46.433829" lon="10.3558907"><ele>1173.0</ele><time>2026-04-26T13:40:22.363Z</time></trkpt><trkpt lat="46.4339394" lon="10.3559612"><ele>1173.8</ele><time>2026-04-26T13:40:23.359Z</time></trkpt><trkpt lat="46.4340462" lon="10.3560344"><ele>1174.6</ele><time>2026-04-26T13:40:24.363Z</time></trkpt><trkpt lat="46.4341449" lon="10.3561188"><ele>1175.4</ele><time>2026-04-26T13:40:25.357Z</time></trkpt><trkpt lat="46.4342285" lon="10.3562179"><ele>1176.2</ele><time>2026-04-26T13:40:26.358Z</time></trkpt><trkpt lat="46.4343148" lon="10.3563035"><ele>1177.0</ele><time>2026-04-26T13:40:27.358Z</time></trkpt><trkpt lat="46.4344108" lon="10.3563626"><ele>1175.2</ele><time>2026-04-26T13:40:28.361Z</time></trkpt><trkpt lat="46.4345141" lon="10.356395"><ele>1173.4</ele><time>2026-04-26T13:40:29.361Z</time></trkpt><trkpt lat="46.4346125" lon="10.3564073"><ele>1171.6</ele><time>2026-04-26T13:40:30.358Z</time></trkpt><trkpt lat="46.4347123" lon="10.3564142"><ele>1169.8</ele><time>2026-04-26T13:40:31.36Z</time></trkpt><trkpt lat="46.4348103" lon="10.3564261"><ele>1168.0</ele><time>2026-04-26T13:40:32.358Z</time></trkpt><trkpt lat="46.4349064" lon="10.3564601"><ele>1168.0</ele><time>2026-04-26T13:40:33.358Z</time></trkpt><trkpt lat="46.4350013" lon="10.356491"><ele>1168.0</ele><time>2026-04-26T13:40:34.365Z</time></trkpt><trkpt lat="46.43509" lon="10.3565275"><ele>1168.0</ele><time>2026-04-26T13:40:35.364Z</time></trkpt><trkpt lat="46.4351777" lon="10.356555"><ele>1168.0</ele><time>2026-04-26T13:40:36.36Z</time></trkpt><trkpt lat="46.4352618" lon="10.3565783"><ele>1168.0</ele><time>2026-04-26T13:40:37.359Z</time></trkpt><trkpt lat="46.4353398" lon="10.356586"><ele>1168.0</ele><time>2026-04-26T13:40:38.357Z</time></trkpt><trkpt lat="46.4354036" lon="10.3565839"><ele>1168.0</ele><time>2026-04-26T13:40:39.358Z</time></trkpt><trkpt lat="46.4354837" lon="10.3565357"><ele>1168.0</ele><time>2026-04-26T13:40:41.359Z</time></trkpt><trkpt lat="46.4354959" lon="10.3564327"><ele>1168.0</ele><time>2026-04-26T13:40:43.358Z</time></trkpt><trkpt lat="46.4354758" lon="10.3563439"><ele>1168.0</ele><time>2026-04-26T13:40:46.359Z</time></trkpt><trkpt lat="46.4354118" lon="10.3563316"><ele>1168.0</ele><time>2026-04-26T13:40:51.363Z</time></trkpt><trkpt lat="46.4354568" lon="10.3563956"><ele>1168.0</ele><time>2026-04-26T13:40:59.36Z</time></trkpt><trkpt lat="46.4355163" lon="10.3564348"><ele>1168.0</ele><time>2026-04-26T13:49:37.356Z</time></trkpt><trkpt lat="46.435458" lon="10.3565397"><ele>1168.0</ele><time>2026-04-26T13:49:40.366Z</time></trkpt><trkpt lat="46.4353575" lon="10.3565183"><ele>1168.0</ele><time>2026-04-26T13:49:41.357Z</time></trkpt><trkpt lat="46.4352392" lon="10.3565224"><ele>1168.0</ele><time>2026-04-26T13:49:43.357Z</time></trkpt><trkpt lat="46.4351666" lon="10.3565203"><ele>1168.0</ele><time>2026-04-26T13:49:44.357Z</time></trkpt><trkpt lat="46.4350892" lon="10.3564937"><ele>1168.0</ele><time>2026-04-26T13:49:45.356Z</time></trkpt><trkpt lat="46.4349918" lon="10.3564581"><ele>1168.0</ele><time>2026-04-26T13:49:46.355Z</time></trkpt><trkpt lat="46.4348852" lon="10.3564174"><ele>1168.0</ele><time>2026-04-26T13:49:47.36Z</time></trkpt><trkpt lat="46.4347703" lon="10.3563776"><ele>1168.0</ele><time>2026-04-26T13:49:48.366Z</time></trkpt><trkpt lat="46.4346544" lon="10.3563588"><ele>1168.0</ele><time>2026-04-26T13:49:49.372Z</time></trkpt><trkpt lat="46.4345441" lon="10.3563431"><ele>1169.8</ele><time>2026-04-26T13:49:50.361Z</time></trkpt><trkpt lat="46.4344426" lon="10.3563256"><ele>1171.6</ele><time>2026-04-26T13:49:51.36Z</time></trkpt><trkpt lat="46.4343466" lon="10.3562991"><ele>1173.4</ele><time>2026-04-26T13:49:52.359Z</time></trkpt><trkpt lat="46.4342644" lon="10.3562079"><ele>1175.2</ele><time>2026-04-26T13:49:53.372Z</time></trkpt><trkpt lat="46.4341768" lon="10.3561129"><ele>1177.0</ele><time>2026-04-26T13:49:54.362Z</time></trkpt><trkpt lat="46.4340736" lon="10.3560156"><ele>1177.0</ele><time>2026-04-26T13:49:55.36Z</time></trkpt><trkpt lat="46.4339554" lon="10.3559228"><ele>1177.0</ele><time>2026-04-26T13:49:56.355Z</time></trkpt><trkpt lat="46.4338288" lon="10.3558345"><ele>1177.0</ele><time>2026-04-26T13:49:57.355Z</time></trkpt><trkpt lat="46.4336994" lon="10.3557542"><ele>1177.0</ele><time>2026-04-26T13:49:58.358Z</time></trkpt><trkpt lat="46.433581" lon="10.3556743"><ele>1177.75</ele><time>2026-04-26T13:49:59.359Z</time></trkpt><trkpt lat="46.4334652" lon="10.3555957"><ele>1178.5</ele><time>2026-04-26T13:50:00.357Z</time></trkpt><trkpt lat="46.4333579" lon="10.3555117"><ele>1179.25</ele><time>2026-04-26T13:50:01.359Z</time></trkpt><trkpt lat="46.4332482" lon="10.3554232"><ele>1180.0</ele><time>2026-04-26T13:50:02.359Z</time></trkpt><trkpt lat="46.4331418" lon="10.3553269"><ele>1180.0</ele><time>2026-04-26T13:50:03.358Z</time></trkpt><trkpt lat="46.4330448" lon="10.3552483"><ele>1180.0</ele><time>2026-04-26T13:50:04.359Z</time></trkpt><trkpt lat="46.4329563" lon="10.3551673"><ele>1180.0</ele><time>2026-04-26T13:50:05.36Z</time></trkpt><trkpt lat="46.432869" lon="10.3550682"><ele>1180.0</ele><time>2026-04-26T13:50:06.36Z</time></trkpt><trkpt lat="46.4327679" lon="10.3549677"><ele>1180.0</ele><time>2026-04-26T13:50:07.359Z</time></trkpt><trkpt lat="46.4326618" lon="10.3548688"><ele>1180.0</ele><time>2026-04-26T13:50:08.364Z</time></trkpt><trkpt lat="46.4325575" lon="10.3547724"><ele>1180.0</ele><time>2026-04-26T13:50:09.364Z</time></trkpt><trkpt lat="46.4324538" lon="10.3546682"><ele>1180.0</ele><time>2026-04-26T13:50:10.363Z</time></trkpt><trkpt lat="46.4323442" lon="10.3545582"><ele>1180.0</ele><time>2026-04-26T13:50:11.359Z</time></trkpt><trkpt lat="46.4322424" lon="10.3544561"><ele>1177.5</ele><time>2026-04-26T13:50:12.364Z</time></trkpt><trkpt lat="46.4321346" lon="10.3543537"><ele>1175.0</ele><time>2026-04-26T13:50:13.37Z</time></trkpt><trkpt lat="46.4320267" lon="10.3542408"><ele>1172.5</ele><time>2026-04-26T13:50:14.362Z</time></trkpt><trkpt lat="46.4319261" lon="10.3541217"><ele>1170.0</ele><time>2026-04-26T13:50:15.359Z</time></trkpt><trkpt lat="46.4318222" lon="10.3539893"><ele>1172.25</ele><time>2026-04-26T13:50:16.361Z</time></trkpt><trkpt lat="46.4317105" lon="10.3538589"><ele>1174.5</ele><time>2026-04-26T13:50:17.358Z</time></trkpt><trkpt lat="46.4315971" lon="10.353741"><ele>1176.75</ele><time>2026-04-26T13:50:18.358Z</time></trkpt><trkpt lat="46.4314874" lon="10.3536413"><ele>1179.0</ele><time>2026-04-26T13:50:19.362Z</time></trkpt><trkpt lat="46.4313813" lon="10.3535642"><ele>1177.8</ele><time>2026-04-26T13:50:20.359Z</time></trkpt><trkpt lat="46.4312865" lon="10.3534999"><ele>1176.6000000000001</ele><time>2026-04-26T13:50:21.358Z</time></trkpt><trkpt lat="46.43119" lon="10.3534493"><ele>1175.4</ele><time>2026-04-26T13:50:22.36Z</time></trkpt><trkpt lat="46.4310841" lon="10.3534108"><ele>1174.2</ele><time>2026-04-26T13:50:23.361Z</time></trkpt><trkpt lat="46.4309704" lon="10.353379"><ele>1173.0</ele><time>2026-04-26T13:50:24.36Z</time></trkpt><trkpt lat="46.4308485" lon="10.3533472"><ele>1173.0</ele><time>2026-04-26T13:50:25.362Z</time></trkpt><trkpt lat="46.4307223" lon="10.3533211"><ele>1173.0</ele><time>2026-04-26T13:50:26.359Z</time></trkpt><trkpt lat="46.4305933" lon="10.3532947"><ele>1173.0</ele><time>2026-04-26T13:50:27.361Z</time></trkpt><trkpt lat="46.4304686" lon="10.3532635"><ele>1173.0</ele><time>2026-04-26T13:50:28.363Z</time></trkpt><trkpt lat="46.4303471" lon="10.353219"><ele>1171.6</ele><time>2026-04-26T13:50:29.359Z</time></trkpt><trkpt lat="46.4302273" lon="10.3531664"><ele>1170.1999999999998</ele><time>2026-04-26T13:50:30.365Z</time></trkpt><trkpt lat="46.430121" lon="10.3531198"><ele>1168.8</ele><time>2026-04-26T13:50:31.36Z</time></trkpt><trkpt lat="46.4300174" lon="10.3530911"><ele>1167.3999999999999</ele><time>2026-04-26T13:50:32.366Z</time></trkpt><trkpt lat="46.42991" lon="10.3530869"><ele>1166.0</ele><time>2026-04-26T13:50:33.361Z</time></trkpt><trkpt lat="46.4297917" lon="10.3530949"><ele>1166.0</ele><time>2026-04-26T13:50:34.36Z</time></trkpt><trkpt lat="46.4296693" lon="10.3531032"><ele>1166.0</ele><time>2026-04-26T13:50:35.363Z</time></trkpt><trkpt lat="46.4295454" lon="10.3531171"><ele>1166.0</ele><time>2026-04-26T13:50:36.358Z</time></trkpt><trkpt lat="46.4294162" lon="10.353117"><ele>1166.0</ele><time>2026-04-26T13:50:37.357Z</time></trkpt><trkpt lat="46.429282" lon="10.3531035"><ele>1164.75</ele><time>2026-04-26T13:50:38.36Z</time></trkpt><trkpt lat="46.4291462" lon="10.353094"><ele>1163.5</ele><time>2026-04-26T13:50:39.363Z</time></trkpt><trkpt lat="46.4290113" lon="10.3530919"><ele>1162.25</ele><time>2026-04-26T13:50:40.356Z</time></trkpt><trkpt lat="46.4288836" lon="10.353106"><ele>1161.0</ele><time>2026-04-26T13:50:41.36Z</time></trkpt><trkpt lat="46.4287637" lon="10.3531148"><ele>1160.3999999999999</ele><time>2026-04-26T13:50:42.362Z</time></trkpt><trkpt lat="46.428656" lon="10.35311"><ele>1159.8</ele><time>2026-04-26T13:50:43.359Z</time></trkpt><trkpt lat="46.4285537" lon="10.3530857"><ele>1159.1999999999998</ele><time>2026-04-26T13:50:44.357Z</time></trkpt><trkpt lat="46.4284759" lon="10.3530568"><ele>1158.6</ele><time>2026-04-26T13:50:45.357Z</time></trkpt><trkpt lat="46.4284142" lon="10.3530335"><ele>1158.0</ele><time>2026-04-26T13:50:46.355Z</time></trkpt><trkpt lat="46.4283255" lon="10.353087"><ele>1157.0</ele><time>2026-04-26T13:50:48.368Z</time></trkpt><trkpt lat="46.4283396" lon="10.3532561"><ele>1156.0</ele><time>2026-04-26T13:50:50.36Z</time></trkpt><trkpt lat="46.428396" lon="10.3533738"><ele>1155.0</ele><time>2026-04-26T13:50:51.359Z</time></trkpt><trkpt lat="46.4284652" lon="10.3535213"><ele>1154.0</ele><time>2026-04-26T13:50:52.366Z</time></trkpt><trkpt lat="46.4285414" lon="10.353687"><ele>1154.0</ele><time>2026-04-26T13:50:53.359Z</time></trkpt><trkpt lat="46.4286002" lon="10.3538535"><ele>1154.0</ele><time>2026-04-26T13:50:54.361Z</time></trkpt><trkpt lat="46.4286605" lon="10.3540269"><ele>1154.0</ele><time>2026-04-26T13:50:55.357Z</time></trkpt><trkpt lat="46.4287106" lon="10.3541933"><ele>1154.0</ele><time>2026-04-26T13:50:56.36Z</time></trkpt><trkpt lat="46.4287513" lon="10.354352"><ele>1153.4</ele><time>2026-04-26T13:50:57.359Z</time></trkpt><trkpt lat="46.4287866" lon="10.3544897"><ele>1152.8000000000002</ele><time>2026-04-26T13:50:58.363Z</time></trkpt><trkpt lat="46.4288047" lon="10.3546158"><ele>1152.1999999999998</ele><time>2026-04-26T13:50:59.37Z</time></trkpt><trkpt lat="46.4288001" lon="10.354732"><ele>1151.6</ele><time>2026-04-26T13:51:00.366Z</time></trkpt><trkpt lat="46.4287656" lon="10.3548519"><ele>1151.0</ele><time>2026-04-26T13:51:01.363Z</time></trkpt><trkpt lat="46.4287233" lon="10.354973"><ele>1150.6</ele><time>2026-04-26T13:51:02.362Z</time></trkpt><trkpt lat="46.4286805" lon="10.355106"><ele>1150.1999999999998</ele><time>2026-04-26T13:51:03.357Z</time></trkpt><trkpt lat="46.4286333" lon="10.355246"><ele>1149.8000000000002</ele><time>2026-04-26T13:51:04.365Z</time></trkpt><trkpt lat="46.4285867" lon="10.3553938"><ele>1149.4</ele><time>2026-04-26T13:51:05.364Z</time></trkpt><trkpt lat="46.4285422" lon="10.355532"><ele>1149.0</ele><time>2026-04-26T13:51:06.368Z</time></trkpt><trkpt lat="46.4285006" lon="10.3556696"><ele>1148.1666666666667</ele><time>2026-04-26T13:51:07.356Z</time></trkpt><trkpt lat="46.4284673" lon="10.3557784"><ele>1147.3333333333333</ele><time>2026-04-26T13:51:08.356Z</time></trkpt><trkpt lat="46.4284187" lon="10.3558947"><ele>1146.5</ele><time>2026-04-26T13:51:10.36Z</time></trkpt><trkpt lat="46.4283365" lon="10.3559324"><ele>1145.6666666666665</ele><time>2026-04-26T13:51:12.361Z</time></trkpt><trkpt lat="46.4282493" lon="10.3559005"><ele>1144.8333333333333</ele><time>2026-04-26T13:51:14.362Z</time></trkpt><trkpt lat="46.4281735" lon="10.3558547"><ele>1144.0</ele><time>2026-04-26T13:51:17.361Z</time></trkpt><trkpt lat="46.428074" lon="10.35584"><ele>1143.0</ele><time>2026-04-26T13:51:19.358Z</time></trkpt><trkpt lat="46.4278466" lon="10.3558504"><ele>1142.0</ele><time>2026-04-26T13:51:20.36Z</time></trkpt><trkpt lat="46.4277764" lon="10.3559765"><ele>1141.0</ele><time>2026-04-26T13:51:22.361Z</time></trkpt><trkpt lat="46.427656" lon="10.3559989"><ele>1141.0</ele><time>2026-04-26T13:51:24.371Z</time></trkpt><trkpt lat="46.4275823" lon="10.3559969"><ele>1141.0</ele><time>2026-04-26T13:51:25.362Z</time></trkpt><trkpt lat="46.4274938" lon="10.3559922"><ele>1141.0</ele><time>2026-04-26T13:51:26.362Z</time></trkpt><trkpt lat="46.427396" lon="10.3559881"><ele>1141.0</ele><time>2026-04-26T13:51:27.362Z</time></trkpt><trkpt lat="46.4272927" lon="10.3559918"><ele>1141.0</ele><time>2026-04-26T13:51:28.358Z</time></trkpt><trkpt lat="46.4271806" lon="10.3559914"><ele>1139.6</ele><time>2026-04-26T13:51:29.36Z</time></trkpt><trkpt lat="46.4270814" lon="10.3559786"><ele>1138.1999999999998</ele><time>2026-04-26T13:51:30.357Z</time></trkpt><trkpt lat="46.4269717" lon="10.355942"><ele>1136.8000000000002</ele><time>2026-04-26T13:51:31.362Z</time></trkpt><trkpt lat="46.4268586" lon="10.3559045"><ele>1135.4</ele><time>2026-04-26T13:51:32.359Z</time></trkpt><trkpt lat="46.4267476" lon="10.3558546"><ele>1134.0</ele><time>2026-04-26T13:51:33.364Z</time></trkpt><trkpt lat="46.4266482" lon="10.3557911"><ele>1134.0</ele><time>2026-04-26T13:51:34.358Z</time></trkpt><trkpt lat="46.4265582" lon="10.3557196"><ele>1134.0</ele><time>2026-04-26T13:51:35.362Z</time></trkpt><trkpt lat="46.4264957" lon="10.3556381"><ele>1134.0</ele><time>2026-04-26T13:51:36.37Z</time></trkpt><trkpt lat="46.4264308" lon="10.3555375"><ele>1134.0</ele><time>2026-04-26T13:51:37.358Z</time></trkpt><trkpt lat="46.4263533" lon="10.3554528"><ele>1134.0</ele><time>2026-04-26T13:51:38.362Z</time></trkpt><trkpt lat="46.4262725" lon="10.3553739"><ele>1133.25</ele><time>2026-04-26T13:51:39.36Z</time></trkpt><trkpt lat="46.426173" lon="10.3553151"><ele>1132.5</ele><time>2026-04-26T13:51:40.367Z</time></trkpt><trkpt lat="46.4260576" lon="10.3552771"><ele>1131.75</ele><time>2026-04-26T13:51:41.359Z</time></trkpt><trkpt lat="46.4259279" lon="10.3552679"><ele>1131.0</ele><time>2026-04-26T13:51:42.36Z</time></trkpt><trkpt lat="46.4257978" lon="10.3552756"><ele>1131.0</ele><time>2026-04-26T13:51:43.363Z</time></trkpt><trkpt lat="46.4256576" lon="10.3552801"><ele>1131.0</ele><time>2026-04-26T13:51:44.359Z</time></trkpt><trkpt lat="46.4255189" lon="10.3552789"><ele>1131.0</ele><time>2026-04-26T13:51:45.361Z</time></trkpt><trkpt lat="46.4253875" lon="10.3552572"><ele>1131.0</ele><time>2026-04-26T13:51:46.359Z</time></trkpt><trkpt lat="46.4252675" lon="10.3552087"><ele>1129.75</ele><time>2026-04-26T13:51:47.362Z</time></trkpt><trkpt lat="46.4251504" lon="10.3551147"><ele>1128.5</ele><time>2026-04-26T13:51:48.358Z</time></trkpt><trkpt lat="46.4250275" lon="10.355018"><ele>1127.25</ele><time>2026-04-26T13:51:49.357Z</time></trkpt><trkpt lat="46.4249047" lon="10.3549345"><ele>1126.0</ele><time>2026-04-26T13:51:50.362Z</time></trkpt><trkpt lat="46.4247756" lon="10.3548657"><ele>1126.0</ele><time>2026-04-26T13:51:51.359Z</time></trkpt><trkpt lat="46.4246511" lon="10.3548088"><ele>1126.0</ele><time>2026-04-26T13:51:52.357Z</time></trkpt><trkpt lat="46.424542" lon="10.3547837"><ele>1126.0</ele><time>2026-04-26T13:51:53.358Z</time></trkpt><trkpt lat="46.4244473" lon="10.3548041"><ele>1126.0</ele><time>2026-04-26T13:51:54.358Z</time></trkpt><trkpt lat="46.4243778" lon="10.3548714"><ele>1126.0</ele><time>2026-04-26T13:51:55.361Z</time></trkpt><trkpt lat="46.4243292" lon="10.3549515"><ele>1125.6666666666665</ele><time>2026-04-26T13:51:56.361Z</time></trkpt><trkpt lat="46.4242981" lon="10.3550436"><ele>1125.3333333333333</ele><time>2026-04-26T13:51:57.361Z</time></trkpt><trkpt lat="46.4242657" lon="10.3551238"><ele>1125.0</ele><time>2026-04-26T13:51:58.362Z</time></trkpt><trkpt lat="46.4242217" lon="10.3552078"><ele>1124.6666666666667</ele><time>2026-04-26T13:52:00.36Z</time></trkpt><trkpt lat="46.4241718" lon="10.3553367"><ele>1124.3333333333335</ele><time>2026-04-26T13:52:11.366Z</time></trkpt><trkpt lat="46.4240537" lon="10.3554093"><ele>1124.0</ele><time>2026-04-26T13:52:13.361Z</time></trkpt><trkpt lat="46.4239758" lon="10.355392"><ele>1124.0</ele><time>2026-04-26T13:52:14.363Z</time></trkpt><trkpt lat="46.4238797" lon="10.3553479"><ele>1124.0</ele><time>2026-04-26T13:52:15.365Z</time></trkpt><trkpt lat="46.4237608" lon="10.3552892"><ele>1124.0</ele><time>2026-04-26T13:52:16.356Z</time></trkpt><trkpt lat="46.4236294" lon="10.3552274"><ele>1124.0</ele><time>2026-04-26T13:52:17.362Z</time></trkpt><trkpt lat="46.4234789" lon="10.3551595"><ele>1123.6666666666667</ele><time>2026-04-26T13:52:18.36Z</time></trkpt><trkpt lat="46.4232909" lon="10.3550761"><ele>1123.3333333333333</ele><time>2026-04-26T13:52:19.366Z</time></trkpt><trkpt lat="46.4230751" lon="10.3549813"><ele>1123.0</ele><time>2026-04-26T13:52:20.363Z</time></trkpt><trkpt lat="46.4228524" lon="10.3548801"><ele>1123.0</ele><time>2026-04-26T13:52:21.359Z</time></trkpt><trkpt lat="46.422644" lon="10.3547872"><ele>1123.0</ele><time>2026-04-26T13:52:22.357Z</time></trkpt><trkpt lat="46.422453" lon="10.3547033"><ele>1123.0</ele><time>2026-04-26T13:52:23.355Z</time></trkpt><trkpt lat="46.4222333" lon="10.3546164"><ele>1121.5</ele><time>2026-04-26T13:52:24.364Z</time></trkpt><trkpt lat="46.4219986" lon="10.3545133"><ele>1120.0</ele><time>2026-04-26T13:52:25.37Z</time></trkpt><trkpt lat="46.4217899" lon="10.3544205"><ele>1120.0</ele><time>2026-04-26T13:52:26.358Z</time></trkpt><trkpt lat="46.4215924" lon="10.3543216"><ele>1120.0</ele><time>2026-04-26T13:52:27.359Z</time></trkpt><trkpt lat="46.4214029" lon="10.354236"><ele>1120.0</ele><time>2026-04-26T13:52:28.362Z</time></trkpt><trkpt lat="46.4212177" lon="10.354147"><ele>1119.6666666666665</ele><time>2026-04-26T13:52:29.362Z</time></trkpt><trkpt lat="46.4210297" lon="10.3540568"><ele>1119.3333333333333</ele><time>2026-04-26T13:52:30.358Z</time></trkpt><trkpt lat="46.4208371" lon="10.3539682"><ele>1119.0</ele><time>2026-04-26T13:52:31.357Z</time></trkpt><trkpt lat="46.420641" lon="10.3538768"><ele>1117.6666666666667</ele><time>2026-04-26T13:52:32.358Z</time></trkpt><trkpt lat="46.4204412" lon="10.3537897"><ele>1116.3333333333335</ele><time>2026-04-26T13:52:33.365Z</time></trkpt><trkpt lat="46.4202429" lon="10.3536988"><ele>1115.0</ele><time>2026-04-26T13:52:34.359Z</time></trkpt><trkpt lat="46.4200452" lon="10.3536066"><ele>1115.0</ele><time>2026-04-26T13:52:35.367Z</time></trkpt><trkpt lat="46.4198514" lon="10.3535149"><ele>1115.0</ele><time>2026-04-26T13:52:36.355Z</time></trkpt><trkpt lat="46.4196675" lon="10.3534309"><ele>1115.0</ele><time>2026-04-26T13:52:37.357Z</time></trkpt><trkpt lat="46.4194918" lon="10.353358"><ele>1115.3333333333335</ele><time>2026-04-26T13:52:38.357Z</time></trkpt><trkpt lat="46.4193222" lon="10.3532998"><ele>1115.6666666666667</ele><time>2026-04-26T13:52:39.362Z</time></trkpt><trkpt lat="46.4191514" lon="10.3532552"><ele>1116.0</ele><time>2026-04-26T13:52:40.359Z</time></trkpt><trkpt lat="46.4189832" lon="10.3532165"><ele>1115.3333333333333</ele><time>2026-04-26T13:52:41.358Z</time></trkpt><trkpt lat="46.4188149" lon="10.3531683"><ele>1114.6666666666665</ele><time>2026-04-26T13:52:42.357Z</time></trkpt><trkpt lat="46.4186498" lon="10.3531246"><ele>1114.0</ele><time>2026-04-26T13:52:43.358Z</time></trkpt><trkpt lat="46.4184844" lon="10.3530733"><ele>1112.6666666666665</ele><time>2026-04-26T13:52:44.362Z</time></trkpt><trkpt lat="46.4183213" lon="10.3530235"><ele>1111.3333333333333</ele><time>2026-04-26T13:52:45.356Z</time></trkpt><trkpt lat="46.4181623" lon="10.3529805"><ele>1110.0</ele><time>2026-04-26T13:52:46.356Z</time></trkpt><trkpt lat="46.4180005" lon="10.352939"><ele>1111.0</ele><time>2026-04-26T13:52:47.359Z</time></trkpt><trkpt lat="46.4178378" lon="10.352902"><ele>1112.0</ele><time>2026-04-26T13:52:48.36Z</time></trkpt><trkpt lat="46.417677" lon="10.3528651"><ele>1113.0</ele><time>2026-04-26T13:52:49.36Z</time></trkpt><trkpt lat="46.4175113" lon="10.3528175"><ele>1113.0</ele><time>2026-04-26T13:52:50.356Z</time></trkpt><trkpt lat="46.417342" lon="10.3527703"><ele>1113.0</ele><time>2026-04-26T13:52:51.356Z</time></trkpt><trkpt lat="46.417175" lon="10.3527229"><ele>1113.0</ele><time>2026-04-26T13:52:52.358Z</time></trkpt><trkpt lat="46.417004" lon="10.3526818"><ele>1113.6666666666667</ele><time>2026-04-26T13:52:53.36Z</time></trkpt><trkpt lat="46.4168298" lon="10.3526413"><ele>1114.3333333333335</ele><time>2026-04-26T13:52:54.371Z</time></trkpt><trkpt lat="46.416658" lon="10.3525894"><ele>1115.0</ele><time>2026-04-26T13:52:55.361Z</time></trkpt><trkpt lat="46.4164874" lon="10.3525297"><ele>1115.0</ele><time>2026-04-26T13:52:56.363Z</time></trkpt><trkpt lat="46.4163222" lon="10.3524559"><ele>1115.0</ele><time>2026-04-26T13:52:57.363Z</time></trkpt><trkpt lat="46.4161657" lon="10.352366"><ele>1115.0</ele><time>2026-04-26T13:52:58.358Z</time></trkpt><trkpt lat="46.4160062" lon="10.3522619"><ele>1115.0</ele><time>2026-04-26T13:52:59.362Z</time></trkpt><trkpt lat="46.4158491" lon="10.3521495"><ele>1115.0</ele><time>2026-04-26T13:53:00.359Z</time></trkpt><trkpt lat="46.4156901" lon="10.3520339"><ele>1115.0</ele><time>2026-04-26T13:53:01.362Z</time></trkpt><trkpt lat="46.415529" lon="10.3519269"><ele>1118.6666666666667</ele><time>2026-04-26T13:53:02.36Z</time></trkpt><trkpt lat="46.4153695" lon="10.3518157"><ele>1122.3333333333333</ele><time>2026-04-26T13:53:03.364Z</time></trkpt><trkpt lat="46.4152031" lon="10.3517025"><ele>1126.0</ele><time>2026-04-26T13:53:04.36Z</time></trkpt><trkpt lat="46.41504" lon="10.3515912"><ele>1126.0</ele><time>2026-04-26T13:53:05.36Z</time></trkpt><trkpt lat="46.4148745" lon="10.3514815"><ele>1126.0</ele><time>2026-04-26T13:53:06.363Z</time></trkpt><trkpt lat="46.4147149" lon="10.3513673"><ele>1126.0</ele><time>2026-04-26T13:53:07.36Z</time></trkpt><trkpt lat="46.4145553" lon="10.3512568"><ele>1125.6666666666665</ele><time>2026-04-26T13:53:08.359Z</time></trkpt><trkpt lat="46.4143946" lon="10.351154"><ele>1125.3333333333333</ele><time>2026-04-26T13:53:09.362Z</time></trkpt><trkpt lat="46.4142356" lon="10.3510581"><ele>1125.0</ele><time>2026-04-26T13:53:10.365Z</time></trkpt><trkpt lat="46.4140823" lon="10.3509549"><ele>1125.0</ele><time>2026-04-26T13:53:11.363Z</time></trkpt><trkpt lat="46.4139272" lon="10.3508713"><ele>1125.0</ele><time>2026-04-26T13:53:12.364Z</time></trkpt><trkpt lat="46.4137616" lon="10.3508026"><ele>1125.0</ele><time>2026-04-26T13:53:13.363Z</time></trkpt><trkpt lat="46.4135875" lon="10.350753"><ele>1127.0</ele><time>2026-04-26T13:53:14.356Z</time></trkpt><trkpt lat="46.4134138" lon="10.3507257"><ele>1129.0</ele><time>2026-04-26T13:53:15.361Z</time></trkpt><trkpt lat="46.4132332" lon="10.3506925"><ele>1131.0</ele><time>2026-04-26T13:53:16.359Z</time></trkpt><trkpt lat="46.4130558" lon="10.3506673"><ele>1131.0</ele><time>2026-04-26T13:53:17.372Z</time></trkpt><trkpt lat="46.4128815" lon="10.3506404"><ele>1131.0</ele><time>2026-04-26T13:53:18.362Z</time></trkpt><trkpt lat="46.4127108" lon="10.3506171"><ele>1131.0</ele><time>2026-04-26T13:53:19.36Z</time></trkpt><trkpt lat="46.4125467" lon="10.3506063"><ele>1131.0</ele><time>2026-04-26T13:53:20.367Z</time></trkpt><trkpt lat="46.4123764" lon="10.3506131"><ele>1131.0</ele><time>2026-04-26T13:53:21.364Z</time></trkpt><trkpt lat="46.4122045" lon="10.3506158"><ele>1131.0</ele><time>2026-04-26T13:53:22.368Z</time></trkpt><trkpt lat="46.4120336" lon="10.3506279"><ele>1131.0</ele><time>2026-04-26T13:53:23.36Z</time></trkpt><trkpt lat="46.411867" lon="10.350646"><ele>1131.0</ele><time>2026-04-26T13:53:24.359Z</time></trkpt><trkpt lat="46.411705" lon="10.3506806"><ele>1131.0</ele><time>2026-04-26T13:53:25.359Z</time></trkpt><trkpt lat="46.411538" lon="10.3507145"><ele>1131.0</ele><time>2026-04-26T13:53:26.365Z</time></trkpt><trkpt lat="46.4113659" lon="10.350738"><ele>1131.0</ele><time>2026-04-26T13:53:27.358Z</time></trkpt><trkpt lat="46.4111885" lon="10.350753"><ele>1131.0</ele><time>2026-04-26T13:53:28.358Z</time></trkpt><trkpt lat="46.4110028" lon="10.3507596"><ele>1128.3333333333333</ele><time>2026-04-26T13:53:29.362Z</time></trkpt><trkpt lat="46.410815" lon="10.3507633"><ele>1125.6666666666665</ele><time>2026-04-26T13:53:30.359Z</time></trkpt><trkpt lat="46.4106281" lon="10.3507681"><ele>1123.0</ele><time>2026-04-26T13:53:31.357Z</time></trkpt><trkpt lat="46.4104426" lon="10.3507694"><ele>1120.6666666666665</ele><time>2026-04-26T13:53:32.363Z</time></trkpt><trkpt lat="46.4102605" lon="10.3507687"><ele>1118.3333333333333</ele><time>2026-04-26T13:53:33.358Z</time></trkpt><trkpt lat="46.4100822" lon="10.3507774"><ele>1116.0</ele><time>2026-04-26T13:53:34.362Z</time></trkpt><trkpt lat="46.4099072" lon="10.3507852"><ele>1116.0</ele><time>2026-04-26T13:53:35.362Z</time></trkpt><trkpt lat="46.4097289" lon="10.350799"><ele>1116.0</ele><time>2026-04-26T13:53:36.362Z</time></trkpt><trkpt lat="46.4095565" lon="10.3508126"><ele>1116.0</ele><time>2026-04-26T13:53:37.363Z</time></trkpt><trkpt lat="46.4093773" lon="10.3508265"><ele>1116.3333333333333</ele><time>2026-04-26T13:53:38.362Z</time></trkpt><trkpt lat="46.4091997" lon="10.3508356"><ele>1116.6666666666665</ele><time>2026-04-26T13:53:39.36Z</time></trkpt><trkpt lat="46.409021" lon="10.3508478"><ele>1117.0</ele><time>2026-04-26T13:53:40.36Z</time></trkpt><trkpt lat="46.4088408" lon="10.3508524"><ele>1116.6666666666665</ele><time>2026-04-26T13:53:41.366Z</time></trkpt><trkpt lat="46.4086667" lon="10.3508626"><ele>1116.3333333333333</ele><time>2026-04-26T13:53:42.367Z</time></trkpt><trkpt lat="46.4084913" lon="10.350855"><ele>1116.0</ele><time>2026-04-26T13:53:43.366Z</time></trkpt><trkpt lat="46.4083193" lon="10.3508319"><ele>1116.0</ele><time>2026-04-26T13:53:44.363Z</time></trkpt><trkpt lat="46.4081489" lon="10.3508049"><ele>1116.0</ele><time>2026-04-26T13:53:45.357Z</time></trkpt><trkpt lat="46.407985" lon="10.350775"><ele>1116.0</ele><time>2026-04-26T13:53:46.357Z</time></trkpt><trkpt lat="46.4078235" lon="10.350749"><ele>1116.0</ele><time>2026-04-26T13:53:47.359Z</time></trkpt><trkpt lat="46.4076636" lon="10.3507425"><ele>1116.0</ele><time>2026-04-26T13:53:48.363Z</time></trkpt><trkpt lat="46.407506" lon="10.3507507"><ele>1116.0</ele><time>2026-04-26T13:53:49.363Z</time></trkpt><trkpt lat="46.4073461" lon="10.3507734"><ele>1116.0</ele><time>2026-04-26T13:53:50.357Z</time></trkpt><trkpt lat="46.4071847" lon="10.3508097"><ele>1116.0</ele><time>2026-04-26T13:53:51.366Z</time></trkpt><trkpt lat="46.4070208" lon="10.3508528"><ele>1116.0</ele><time>2026-04-26T13:53:52.358Z</time></trkpt><trkpt lat="46.4068556" lon="10.350902"><ele>1113.0</ele><time>2026-04-26T13:53:53.366Z</time></trkpt><trkpt lat="46.4066865" lon="10.3509513"><ele>1110.0</ele><time>2026-04-26T13:53:54.356Z</time></trkpt><trkpt lat="46.4065143" lon="10.3509934"><ele>1107.0</ele><time>2026-04-26T13:53:55.357Z</time></trkpt><trkpt lat="46.4063412" lon="10.351029"><ele>1104.0</ele><time>2026-04-26T13:53:56.358Z</time></trkpt><trkpt lat="46.4061633" lon="10.3510546"><ele>1101.0</ele><time>2026-04-26T13:53:57.396Z</time></trkpt><trkpt lat="46.4059846" lon="10.3510855"><ele>1098.0</ele><time>2026-04-26T13:53:58.366Z</time></trkpt><trkpt lat="46.4058093" lon="10.351145"><ele>1098.0</ele><time>2026-04-26T13:53:59.357Z</time></trkpt><trkpt lat="46.405638" lon="10.3512192"><ele>1098.0</ele><time>2026-04-26T13:54:00.356Z</time></trkpt><trkpt lat="46.4054698" lon="10.351305"><ele>1098.0</ele><time>2026-04-26T13:54:01.357Z</time></trkpt><trkpt lat="46.4052991" lon="10.3513857"><ele>1098.6666666666667</ele><time>2026-04-26T13:54:02.356Z</time></trkpt><trkpt lat="46.4051318" lon="10.3514605"><ele>1099.3333333333335</ele><time>2026-04-26T13:54:03.358Z</time></trkpt><trkpt lat="46.4049669" lon="10.3515367"><ele>1100.0</ele><time>2026-04-26T13:54:04.359Z</time></trkpt><trkpt lat="46.4048009" lon="10.3516132"><ele>1096.6666666666667</ele><time>2026-04-26T13:54:05.358Z</time></trkpt><trkpt lat="46.4046381" lon="10.3516937"><ele>1093.3333333333333</ele><time>2026-04-26T13:54:06.357Z</time></trkpt><trkpt lat="46.4044789" lon="10.3517765"><ele>1090.0</ele><time>2026-04-26T13:54:07.358Z</time></trkpt><trkpt lat="46.404321" lon="10.3518615"><ele>1090.0</ele><time>2026-04-26T13:54:08.359Z</time></trkpt><trkpt lat="46.4041636" lon="10.3519475"><ele>1090.0</ele><time>2026-04-26T13:54:09.354Z</time></trkpt><trkpt lat="46.4040162" lon="10.3520556"><ele>1090.0</ele><time>2026-04-26T13:54:10.359Z</time></trkpt><trkpt lat="46.4038766" lon="10.3521863"><ele>1089.3333333333333</ele><time>2026-04-26T13:54:11.358Z</time></trkpt><trkpt lat="46.4037331" lon="10.3523263"><ele>1088.6666666666667</ele><time>2026-04-26T13:54:12.359Z</time></trkpt><trkpt lat="46.4035863" lon="10.3524624"><ele>1088.0</ele><time>2026-04-26T13:54:13.358Z</time></trkpt><trkpt lat="46.403437" lon="10.3526026"><ele>1088.0</ele><time>2026-04-26T13:54:14.361Z</time></trkpt><trkpt lat="46.4032872" lon="10.3527425"><ele>1088.0</ele><time>2026-04-26T13:54:15.365Z</time></trkpt><trkpt lat="46.4031392" lon="10.3528868"><ele>1088.0</ele><time>2026-04-26T13:54:16.36Z</time></trkpt><trkpt lat="46.4029928" lon="10.3530368"><ele>1085.6666666666667</ele><time>2026-04-26T13:54:17.36Z</time></trkpt><trkpt lat="46.4028437" lon="10.3531856"><ele>1083.3333333333333</ele><time>2026-04-26T13:54:18.359Z</time></trkpt><trkpt lat="46.4026889" lon="10.3533345"><ele>1081.0</ele><time>2026-04-26T13:54:19.356Z</time></trkpt><trkpt lat="46.4025301" lon="10.3534814"><ele>1081.0</ele><time>2026-04-26T13:54:20.357Z</time></trkpt><trkpt lat="46.402373" lon="10.3536351"><ele>1081.0</ele><time>2026-04-26T13:54:21.358Z</time></trkpt><trkpt lat="46.4022168" lon="10.3537853"><ele>1081.0</ele><time>2026-04-26T13:54:22.363Z</time></trkpt><trkpt lat="46.4020633" lon="10.3539233"><ele>1083.6666666666665</ele><time>2026-04-26T13:54:23.359Z</time></trkpt><trkpt lat="46.4019079" lon="10.3540533"><ele>1086.3333333333333</ele><time>2026-04-26T13:54:24.359Z</time></trkpt><trkpt lat="46.4017489" lon="10.3541517"><ele>1089.0</ele><time>2026-04-26T13:54:25.361Z</time></trkpt><trkpt lat="46.4015872" lon="10.3542157"><ele>1089.0</ele><time>2026-04-26T13:54:26.361Z</time></trkpt><trkpt lat="46.4014252" lon="10.3542641"><ele>1089.0</ele><time>2026-04-26T13:54:27.359Z</time></trkpt><trkpt lat="46.4012684" lon="10.3543021"><ele>1089.0</ele><time>2026-04-26T13:54:28.356Z</time></trkpt><trkpt lat="46.4011243" lon="10.3543333"><ele>1088.0</ele><time>2026-04-26T13:54:29.358Z</time></trkpt><trkpt lat="46.4009921" lon="10.3543539"><ele>1087.0</ele><time>2026-04-26T13:54:30.36Z</time></trkpt><trkpt lat="46.4008724" lon="10.3543834"><ele>1086.0</ele><time>2026-04-26T13:54:31.358Z</time></trkpt><trkpt lat="46.4007664" lon="10.3544203"><ele>1085.0</ele><time>2026-04-26T13:54:32.36Z</time></trkpt><trkpt lat="46.4006667" lon="10.3544536"><ele>1085.0</ele><time>2026-04-26T13:54:33.359Z</time></trkpt><trkpt lat="46.400577" lon="10.3544666"><ele>1085.0</ele><time>2026-04-26T13:54:34.356Z</time></trkpt><trkpt lat="46.4004928" lon="10.354452"><ele>1085.0</ele><time>2026-04-26T13:54:35.356Z</time></trkpt><trkpt lat="46.4004178" lon="10.3544162"><ele>1085.0</ele><time>2026-04-26T13:54:36.365Z</time></trkpt><trkpt lat="46.4003646" lon="10.3543514"><ele>1085.0</ele><time>2026-04-26T13:54:37.359Z</time></trkpt><trkpt lat="46.4003167" lon="10.3542514"><ele>1085.0</ele><time>2026-04-26T13:54:38.36Z</time></trkpt><trkpt lat="46.4002735" lon="10.3541302"><ele>1084.25</ele><time>2026-04-26T13:54:39.36Z</time></trkpt><trkpt lat="46.4002283" lon="10.3539752"><ele>1083.5</ele><time>2026-04-26T13:54:40.358Z</time></trkpt><trkpt lat="46.4001757" lon="10.3538267"><ele>1082.75</ele><time>2026-04-26T13:54:41.359Z</time></trkpt><trkpt lat="46.4001209" lon="10.3536762"><ele>1082.0</ele><time>2026-04-26T13:54:42.363Z</time></trkpt><trkpt lat="46.4000653" lon="10.3535195"><ele>1081.6</ele><time>2026-04-26T13:54:43.362Z</time></trkpt><trkpt lat="46.4000215" lon="10.3533768"><ele>1081.2</ele><time>2026-04-26T13:54:44.362Z</time></trkpt><trkpt lat="46.3999841" lon="10.3532454"><ele>1080.8</ele><time>2026-04-26T13:54:45.364Z</time></trkpt><trkpt lat="46.3999459" lon="10.3531242"><ele>1080.4</ele><time>2026-04-26T13:54:46.359Z</time></trkpt><trkpt lat="46.3999027" lon="10.3529927"><ele>1080.0</ele><time>2026-04-26T13:54:47.362Z</time></trkpt><trkpt lat="46.3998542" lon="10.3528582"><ele>1079.2</ele><time>2026-04-26T13:54:48.358Z</time></trkpt><trkpt lat="46.3998077" lon="10.3527197"><ele>1078.4</ele><time>2026-04-26T13:54:49.357Z</time></trkpt><trkpt lat="46.3997634" lon="10.3525828"><ele>1077.6</ele><time>2026-04-26T13:54:50.367Z</time></trkpt><trkpt lat="46.3997201" lon="10.3524535"><ele>1076.8</ele><time>2026-04-26T13:54:51.365Z</time></trkpt><trkpt lat="46.3996858" lon="10.3523403"><ele>1076.0</ele><time>2026-04-26T13:54:52.358Z</time></trkpt><trkpt lat="46.3996542" lon="10.3522353"><ele>1076.0</ele><time>2026-04-26T13:54:53.358Z</time></trkpt><trkpt lat="46.3995726" lon="10.3521395"><ele>1076.0</ele><time>2026-04-26T13:54:55.358Z</time></trkpt><trkpt lat="46.3994393" lon="10.3521999"><ele>1076.0</ele><time>2026-04-26T13:54:57.36Z</time></trkpt><trkpt lat="46.3993351" lon="10.3522864"><ele>1076.0</ele><time>2026-04-26T13:54:58.358Z</time></trkpt><trkpt lat="46.3992182" lon="10.3523584"><ele>1075.3333333333335</ele><time>2026-04-26T13:54:59.362Z</time></trkpt><trkpt lat="46.3990819" lon="10.352428"><ele>1074.6666666666667</ele><time>2026-04-26T13:55:00.361Z</time></trkpt><trkpt lat="46.3989326" lon="10.3525132"><ele>1074.0</ele><time>2026-04-26T13:55:01.359Z</time></trkpt><trkpt lat="46.3987844" lon="10.3525881"><ele>1073.75</ele><time>2026-04-26T13:55:02.362Z</time></trkpt><trkpt lat="46.39864" lon="10.3526424"><ele>1073.5</ele><time>2026-04-26T13:55:03.362Z</time></trkpt><trkpt lat="46.3985003" lon="10.3526763"><ele>1073.25</ele><time>2026-04-26T13:55:04.359Z</time></trkpt><trkpt lat="46.3983555" lon="10.3526662"><ele>1073.0</ele><time>2026-04-26T13:55:05.36Z</time></trkpt><trkpt lat="46.3982096" lon="10.352634"><ele>1073.0</ele><time>2026-04-26T13:55:06.359Z</time></trkpt><trkpt lat="46.3980556" lon="10.3525157"><ele>1073.0</ele><time>2026-04-26T13:55:07.36Z</time></trkpt><trkpt lat="46.3978958" lon="10.3524064"><ele>1073.0</ele><time>2026-04-26T13:55:08.36Z</time></trkpt><trkpt lat="46.3977566" lon="10.3523169"><ele>1073.25</ele><time>2026-04-26T13:55:09.361Z</time></trkpt><trkpt lat="46.3976252" lon="10.352248"><ele>1073.5</ele><time>2026-04-26T13:55:10.359Z</time></trkpt><trkpt lat="46.3974804" lon="10.3522122"><ele>1073.75</ele><time>2026-04-26T13:55:11.363Z</time></trkpt><trkpt lat="46.3973402" lon="10.3522022"><ele>1074.0</ele><time>2026-04-26T13:55:12.362Z</time></trkpt><trkpt lat="46.3972033" lon="10.3522221"><ele>1073.75</ele><time>2026-04-26T13:55:13.357Z</time></trkpt><trkpt lat="46.3970694" lon="10.3522575"><ele>1073.5</ele><time>2026-04-26T13:55:14.359Z</time></trkpt><trkpt lat="46.3969488" lon="10.3522978"><ele>1073.25</ele><time>2026-04-26T13:55:15.357Z</time></trkpt><trkpt lat="46.3968361" lon="10.3523474"><ele>1073.0</ele><time>2026-04-26T13:55:16.358Z</time></trkpt><trkpt lat="46.3967352" lon="10.3523858"><ele>1073.0</ele><time>2026-04-26T13:55:17.361Z</time></trkpt><trkpt lat="46.3966454" lon="10.3524087"><ele>1073.0</ele><time>2026-04-26T13:55:18.356Z</time></trkpt><trkpt lat="46.3965751" lon="10.3524214"><ele>1073.0</ele><time>2026-04-26T13:55:19.365Z</time></trkpt><trkpt lat="46.3964661" lon="10.3524492"><ele>1073.0</ele><time>2026-04-26T13:55:21.358Z</time></trkpt><trkpt lat="46.3963767" lon="10.3524983"><ele>1073.0</ele><time>2026-04-26T13:55:24.357Z</time></trkpt><trkpt lat="46.3962693" lon="10.3525673"><ele>1073.4</ele><time>2026-04-26T13:55:26.356Z</time></trkpt><trkpt lat="46.3962061" lon="10.3526"><ele>1073.8</ele><time>2026-04-26T13:55:27.363Z</time></trkpt><trkpt lat="46.3961371" lon="10.3526241"><ele>1074.2</ele><time>2026-04-26T13:55:28.366Z</time></trkpt><trkpt lat="46.3960346" lon="10.3526958"><ele>1074.6</ele><time>2026-04-26T13:55:30.355Z</time></trkpt><trkpt lat="46.3959863" lon="10.3528174"><ele>1075.0</ele><time>2026-04-26T13:55:32.363Z</time></trkpt><trkpt lat="46.3959597" lon="10.3529668"><ele>1075.3333333333333</ele><time>2026-04-26T13:55:34.361Z</time></trkpt><trkpt lat="46.3959436" lon="10.3531368"><ele>1075.6666666666665</ele><time>2026-04-26T13:55:36.365Z</time></trkpt><trkpt lat="46.3959502" lon="10.3532833"><ele>1076.0</ele><time>2026-04-26T13:55:38.359Z</time></trkpt><trkpt lat="46.3959478" lon="10.3534069"><ele>1076.3333333333333</ele><time>2026-04-26T13:55:41.358Z</time></trkpt><trkpt lat="46.3959499" lon="10.3534985"><ele>1076.6666666666667</ele><time>2026-04-26T13:55:44.359Z</time></trkpt><trkpt lat="46.3959596" lon="10.3536058"><ele>1077.0</ele><time>2026-04-26T13:55:47.361Z</time></trkpt><trkpt lat="46.3960296" lon="10.3536127"><ele>1077.0</ele><time>2026-04-26T13:55:54.362Z</time></trkpt><trkpt lat="46.396059" lon="10.3535093"><ele>1077.0</ele><time>2026-04-26T13:57:25.359Z</time></trkpt><trkpt lat="46.3961343" lon="10.3534104"><ele>1077.0</ele><time>2026-04-26T13:57:34.364Z</time></trkpt><trkpt lat="46.3962829" lon="10.3533625"><ele>1077.0</ele><time>2026-04-26T13:57:36.361Z</time></trkpt><trkpt lat="46.3964046" lon="10.3533631"><ele>1076.3333333333333</ele><time>2026-04-26T13:57:37.37Z</time></trkpt><trkpt lat="46.3965356" lon="10.3533858"><ele>1075.6666666666665</ele><time>2026-04-26T13:57:38.363Z</time></trkpt><trkpt lat="46.3966996" lon="10.3535163"><ele>1075.0</ele><time>2026-04-26T13:57:39.363Z</time></trkpt><trkpt lat="46.3968316" lon="10.353577"><ele>1075.0</ele><time>2026-04-26T13:57:40.352Z</time></trkpt><trkpt lat="46.3969539" lon="10.3536201"><ele>1075.0</ele><time>2026-04-26T13:57:41.356Z</time></trkpt><trkpt lat="46.3970554" lon="10.3536511"><ele>1075.0</ele><time>2026-04-26T13:57:42.357Z</time></trkpt><trkpt lat="46.3971245" lon="10.3536682"><ele>1075.0</ele><time>2026-04-26T13:57:43.361Z</time></trkpt><trkpt lat="46.3971957" lon="10.353671"><ele>1075.0</ele><time>2026-04-26T13:57:44.364Z</time></trkpt><trkpt lat="46.397329" lon="10.3536846"><ele>1075.0</ele><time>2026-04-26T13:57:46.363Z</time></trkpt><trkpt lat="46.3974051" lon="10.3536453"><ele>1075.0</ele><time>2026-04-26T13:57:48.362Z</time></trkpt><trkpt lat="46.3974374" lon="10.3535625"><ele>1075.0</ele><time>2026-04-26T13:57:49.361Z</time></trkpt><trkpt lat="46.3974735" lon="10.3534141"><ele>1075.0</ele><time>2026-04-26T13:57:51.368Z</time></trkpt><trkpt lat="46.3974849" lon="10.3533229"><ele>1075.0</ele><time>2026-04-26T13:57:53.362Z</time></trkpt><trkpt lat="46.3975576" lon="10.3532672"><ele>1075.0</ele><time>2026-04-26T13:58:10.361Z</time></trkpt><trkpt lat="46.3976251" lon="10.3532919"><ele>1075.0</ele><time>2026-04-26T13:58:12.366Z</time></trkpt><trkpt lat="46.3976988" lon="10.3532802"><ele>1075.0</ele><time>2026-04-26T13:58:16.366Z</time></trkpt><trkpt lat="46.3978335" lon="10.3531771"><ele>1075.0</ele><time>2026-04-26T13:58:18.357Z</time></trkpt><trkpt lat="46.3978801" lon="10.3532484"><ele>1075.0</ele><time>2026-04-26T13:58:20.356Z</time></trkpt><trkpt lat="46.3978798" lon="10.3533429"><ele>1075.0</ele><time>2026-04-26T13:58:21.364Z</time></trkpt><trkpt lat="46.3978739" lon="10.3534344"><ele>1075.0</ele><time>2026-04-26T13:58:22.369Z</time></trkpt><trkpt lat="46.3978719" lon="10.3535518"><ele>1075.0</ele><time>2026-04-26T13:58:23.363Z</time></trkpt><trkpt lat="46.3978621" lon="10.3536919"><ele>1075.0</ele><time>2026-04-26T13:58:24.357Z</time></trkpt><trkpt lat="46.3978557" lon="10.3538197"><ele>1075.0</ele><time>2026-04-26T13:58:25.358Z</time></trkpt><trkpt lat="46.3978468" lon="10.3539466"><ele>1075.0</ele><time>2026-04-26T13:58:26.356Z</time></trkpt><trkpt lat="46.3978893" lon="10.3540453"><ele>1075.0</ele><time>2026-04-26T13:58:28.364Z</time></trkpt><trkpt lat="46.3979607" lon="10.3539334"><ele>1075.0</ele><time>2026-04-26T13:58:31.358Z</time></trkpt><trkpt lat="46.3979784" lon="10.3538191"><ele>1075.0</ele><time>2026-04-26T13:58:32.361Z</time></trkpt><trkpt lat="46.3980101" lon="10.3537056"><ele>1075.0</ele><time>2026-04-26T13:58:33.364Z</time></trkpt><trkpt lat="46.3980455" lon="10.3536251"><ele>1075.0</ele><time>2026-04-26T13:58:34.365Z</time></trkpt><trkpt lat="46.398148" lon="10.3536613"><ele>1075.0</ele><time>2026-04-26T13:58:37.357Z</time></trkpt><trkpt lat="46.3982238" lon="10.3537687"><ele>1075.0</ele><time>2026-04-26T13:58:39.363Z</time></trkpt><trkpt lat="46.398275" lon="10.3538413"><ele>1076.2</ele><time>2026-04-26T13:58:40.364Z</time></trkpt><trkpt lat="46.3983567" lon="10.3539381"><ele>1077.4</ele><time>2026-04-26T13:58:41.355Z</time></trkpt><trkpt lat="46.3984511" lon="10.3540548"><ele>1078.6</ele><time>2026-04-26T13:58:42.358Z</time></trkpt><trkpt lat="46.3985266" lon="10.3541479"><ele>1079.8</ele><time>2026-04-26T13:58:43.368Z</time></trkpt><trkpt lat="46.3986025" lon="10.354222"><ele>1081.0</ele><time>2026-04-26T13:58:44.358Z</time></trkpt><trkpt lat="46.3986694" lon="10.3542716"><ele>1081.0</ele><time>2026-04-26T13:58:45.36Z</time></trkpt><trkpt lat="46.3987328" lon="10.3542831"><ele>1081.0</ele><time>2026-04-26T13:58:46.356Z</time></trkpt><trkpt lat="46.398812" lon="10.3541953"><ele>1081.0</ele><time>2026-04-26T13:58:48.36Z</time></trkpt><trkpt lat="46.3988847" lon="10.3540917"><ele>1081.0</ele><time>2026-04-26T13:58:50.36Z</time></trkpt><trkpt lat="46.3989808" lon="10.3540975"><ele>1081.0</ele><time>2026-04-26T13:58:52.354Z</time></trkpt><trkpt lat="46.399121" lon="10.3541745"><ele>1080.8333333333333</ele><time>2026-04-26T13:58:54.359Z</time></trkpt><trkpt lat="46.3992249" lon="10.3541937"><ele>1080.6666666666665</ele><time>2026-04-26T13:58:55.365Z</time></trkpt><trkpt lat="46.3992972" lon="10.3541966"><ele>1080.5</ele><time>2026-04-26T13:58:56.356Z</time></trkpt><trkpt lat="46.3993661" lon="10.3541789"><ele>1080.3333333333333</ele><time>2026-04-26T13:58:57.359Z</time></trkpt><trkpt lat="46.3994213" lon="10.3541319"><ele>1080.1666666666667</ele><time>2026-04-26T13:58:58.366Z</time></trkpt><trkpt lat="46.3994845" lon="10.3540121"><ele>1080.0</ele><time>2026-04-26T13:59:00.357Z</time></trkpt><trkpt lat="46.3994547" lon="10.3539306"><ele>1080.0</ele><time>2026-04-26T13:59:02.36Z</time></trkpt><trkpt lat="46.3993721" lon="10.3539271"><ele>1080.0</ele><time>2026-04-26T13:59:04.359Z</time></trkpt><trkpt lat="46.3992922" lon="10.3539503"><ele>1080.0</ele><time>2026-04-26T13:59:07.359Z</time></trkpt><trkpt lat="46.3992411" lon="10.3538663"><ele>1080.0</ele><time>2026-04-26T13:59:11.359Z</time></trkpt><trkpt lat="46.39927" lon="10.3537418"><ele>1080.0</ele><time>2026-04-26T13:59:15.367Z</time></trkpt><trkpt lat="46.3993684" lon="10.353672"><ele>1080.0</ele><time>2026-04-26T13:59:17.356Z</time></trkpt><trkpt lat="46.3994424" lon="10.3536411"><ele>1079.4</ele><time>2026-04-26T13:59:18.363Z</time></trkpt><trkpt lat="46.399532" lon="10.3536467"><ele>1078.8</ele><time>2026-04-26T13:59:19.361Z</time></trkpt><trkpt lat="46.3995985" lon="10.3535892"><ele>1078.2</ele><time>2026-04-26T13:59:22.362Z</time></trkpt><trkpt lat="46.3995431" lon="10.3535383"><ele>1077.6</ele><time>2026-04-26T13:59:26.36Z</time></trkpt><trkpt lat="46.3994775" lon="10.3535665"><ele>1077.0</ele><time>2026-04-26T13:59:29.357Z</time></trkpt><trkpt lat="46.3993281" lon="10.3536323"><ele>1077.0</ele><time>2026-04-26T13:59:31.36Z</time></trkpt><trkpt lat="46.3991151" lon="10.3537414"><ele>1077.0</ele><time>2026-04-26T13:59:32.363Z</time></trkpt><trkpt lat="46.3990115" lon="10.3538029"><ele>1077.0</ele><time>2026-04-26T13:59:33.357Z</time></trkpt><trkpt lat="46.3989235" lon="10.3538604"><ele>1077.0</ele><time>2026-04-26T13:59:34.358Z</time></trkpt><trkpt lat="46.3988545" lon="10.3539083"><ele>1077.0</ele><time>2026-04-26T13:59:35.364Z</time></trkpt><trkpt lat="46.3987909" lon="10.3539336"><ele>1077.0</ele><time>2026-04-26T13:59:36.361Z</time></trkpt><trkpt lat="46.3987093" lon="10.3538981"><ele>1077.0</ele><time>2026-04-26T13:59:38.361Z</time></trkpt><trkpt lat="46.3987642" lon="10.3538085"><ele>1077.0</ele><time>2026-04-26T13:59:46.361Z</time></trkpt><trkpt lat="46.3988476" lon="10.3537738"><ele>1077.0</ele><time>2026-04-26T13:59:48.355Z</time></trkpt><trkpt lat="46.3989221" lon="10.3537314"><ele>1077.0</ele><time>2026-04-26T13:59:51.362Z</time></trkpt><trkpt lat="46.3990045" lon="10.3537033"><ele>1077.0</ele><time>2026-04-26T13:59:52.358Z</time></trkpt><trkpt lat="46.3991203" lon="10.3536602"><ele>1077.0</ele><time>2026-04-26T13:59:53.356Z</time></trkpt><trkpt lat="46.3992024" lon="10.3536225"><ele>1077.0</ele><time>2026-04-26T13:59:54.363Z</time></trkpt><trkpt lat="46.3993626" lon="10.3534866"><ele>1077.0</ele><time>2026-04-26T13:59:55.358Z</time></trkpt><trkpt lat="46.3993141" lon="10.353405"><ele>1077.0</ele><time>2026-04-26T13:59:58.369Z</time></trkpt><trkpt lat="46.3992018" lon="10.3533315"><ele>1077.0</ele><time>2026-04-26T14:00:00.359Z</time></trkpt><trkpt lat="46.399115" lon="10.3532834"><ele>1077.0</ele><time>2026-04-26T14:00:01.363Z</time></trkpt><trkpt lat="46.3990122" lon="10.3532346"><ele>1077.0</ele><time>2026-04-26T14:00:02.365Z</time></trkpt><trkpt lat="46.3989096" lon="10.3531944"><ele>1077.0</ele><time>2026-04-26T14:00:03.365Z</time></trkpt><trkpt lat="46.3988225" lon="10.3531643"><ele>1076.6666666666667</ele><time>2026-04-26T14:00:04.363Z</time></trkpt><trkpt lat="46.398733" lon="10.3531371"><ele>1076.3333333333333</ele><time>2026-04-26T14:00:05.359Z</time></trkpt><trkpt lat="46.3986463" lon="10.3531193"><ele>1076.0</ele><time>2026-04-26T14:00:06.356Z</time></trkpt><trkpt lat="46.3985611" lon="10.3531232"><ele>1075.6666666666665</ele><time>2026-04-26T14:00:07.362Z</time></trkpt><trkpt lat="46.3984814" lon="10.3531276"><ele>1075.3333333333333</ele><time>2026-04-26T14:00:08.395Z</time></trkpt><trkpt lat="46.3983997" lon="10.353131"><ele>1075.0</ele><time>2026-04-26T14:00:10.359Z</time></trkpt><trkpt lat="46.3983779" lon="10.3532199"><ele>1075.0</ele><time>2026-04-26T14:00:12.369Z</time></trkpt><trkpt lat="46.3984457" lon="10.3532497"><ele>1075.0</ele><time>2026-04-26T14:00:14.358Z</time></trkpt><trkpt lat="46.3985172" lon="10.3532366"><ele>1075.0</ele><time>2026-04-26T14:00:15.359Z</time></trkpt><trkpt lat="46.3985795" lon="10.3532088"><ele>1075.0</ele><time>2026-04-26T14:00:16.364Z</time></trkpt><trkpt lat="46.3986984" lon="10.3532141"><ele>1075.0</ele><time>2026-04-26T14:00:18.367Z</time></trkpt><trkpt lat="46.3987449" lon="10.3533195"><ele>1075.0</ele><time>2026-04-26T14:00:20.36Z</time></trkpt><trkpt lat="46.398701" lon="10.3534174"><ele>1075.0</ele><time>2026-04-26T14:00:22.369Z</time></trkpt><trkpt lat="46.3985869" lon="10.3534474"><ele>1075.0</ele><time>2026-04-26T14:00:24.363Z</time></trkpt><trkpt lat="46.3985077" lon="10.3534446"><ele>1075.0</ele><time>2026-04-26T14:00:25.36Z</time></trkpt><trkpt lat="46.3984364" lon="10.3534266"><ele>1075.0</ele><time>2026-04-26T14:00:26.361Z</time></trkpt><trkpt lat="46.3983545" lon="10.3533918"><ele>1075.0</ele><time>2026-04-26T14:00:27.359Z</time></trkpt><trkpt lat="46.3982644" lon="10.3533389"><ele>1075.0</ele><time>2026-04-26T14:00:28.359Z</time></trkpt><trkpt lat="46.3981808" lon="10.3532712"><ele>1075.0</ele><time>2026-04-26T14:00:29.358Z</time></trkpt><trkpt lat="46.3981044" lon="10.3531978"><ele>1075.0</ele><time>2026-04-26T14:00:30.367Z</time></trkpt><trkpt lat="46.3980293" lon="10.3531034"><ele>1075.0</ele><time>2026-04-26T14:00:31.36Z</time></trkpt><trkpt lat="46.3979525" lon="10.3530204"><ele>1075.0</ele><time>2026-04-26T14:00:32.36Z</time></trkpt><trkpt lat="46.3978873" lon="10.3529504"><ele>1075.0</ele><time>2026-04-26T14:00:33.36Z</time></trkpt><trkpt lat="46.39778" lon="10.3529003"><ele>1075.0</ele><time>2026-04-26T14:00:35.357Z</time></trkpt><trkpt lat="46.3976749" lon="10.3529311"><ele>1075.0</ele><time>2026-04-26T14:00:37.358Z</time></trkpt><trkpt lat="46.3976166" lon="10.3529941"><ele>1075.0</ele><time>2026-04-26T14:00:38.363Z</time></trkpt><trkpt lat="46.3975461" lon="10.3530756"><ele>1075.0</ele><time>2026-04-26T14:00:39.372Z</time></trkpt><trkpt lat="46.3974907" lon="10.3531693"><ele>1075.0</ele><time>2026-04-26T14:00:40.36Z</time></trkpt><trkpt lat="46.3974016" lon="10.3532653"><ele>1075.0</ele><time>2026-04-26T14:00:42.361Z</time></trkpt><trkpt lat="46.3973224" lon="10.3532353"><ele>1075.0</ele><time>2026-04-26T14:00:44.36Z</time></trkpt><trkpt lat="46.3973302" lon="10.3531328"><ele>1075.0</ele><time>2026-04-26T14:00:47.358Z</time></trkpt><trkpt lat="46.3973281" lon="10.3530333"><ele>1075.0</ele><time>2026-04-26T14:00:51.362Z</time></trkpt><trkpt lat="46.3973973" lon="10.3528949"><ele>1075.0</ele><time>2026-04-26T14:00:53.359Z</time></trkpt><trkpt lat="46.3974231" lon="10.3527872"><ele>1075.0</ele><time>2026-04-26T14:00:54.361Z</time></trkpt><trkpt lat="46.3973469" lon="10.3527559"><ele>1075.0</ele><time>2026-04-26T14:00:58.36Z</time></trkpt><trkpt lat="46.3972808" lon="10.3528242"><ele>1075.0</ele><time>2026-04-26T14:01:00.364Z</time></trkpt><trkpt lat="46.3972242" lon="10.352909"><ele>1075.0</ele><time>2026-04-26T14:01:01.361Z</time></trkpt><trkpt lat="46.397159" lon="10.3530026"><ele>1075.0</ele><time>2026-04-26T14:01:02.364Z</time></trkpt><trkpt lat="46.3970952" lon="10.3530983"><ele>1075.0000000000002</ele><time>2026-04-26T14:01:03.356Z</time></trkpt><trkpt lat="46.3970399" lon="10.3531775"><ele>1075.0</ele><time>2026-04-26T14:01:04.359Z</time></trkpt><trkpt lat="46.3969933" lon="10.3532503"><ele>1075.0</ele><time>2026-04-26T14:01:05.358Z</time></trkpt><trkpt lat="46.3969441" lon="10.3533361"><ele>1075.0</ele><time>2026-04-26T14:01:06.36Z</time></trkpt><trkpt lat="46.3968904" lon="10.3533954"><ele>1075.0</ele><time>2026-04-26T14:01:07.359Z</time></trkpt><trkpt lat="46.396833" lon="10.3534381"><ele>1075.0000000000002</ele><time>2026-04-26T14:01:08.359Z</time></trkpt><trkpt lat="46.3967624" lon="10.3534594"><ele>1075.0</ele><time>2026-04-26T14:01:09.366Z</time></trkpt><trkpt lat="46.3966714" lon="10.3534521"><ele>1075.0</ele><time>2026-04-26T14:01:10.367Z</time></trkpt><trkpt lat="46.3965743" lon="10.3534256"><ele>1075.0</ele><time>2026-04-26T14:01:11.359Z</time></trkpt><trkpt lat="46.3964799" lon="10.353403"><ele>1075.0</ele><time>2026-04-26T14:01:12.362Z</time></trkpt><trkpt lat="46.3963944" lon="10.3533732"><ele>1075.0</ele><time>2026-04-26T14:01:13.363Z</time></trkpt><trkpt lat="46.3963242" lon="10.3533669"><ele>1075.0</ele><time>2026-04-26T14:01:14.358Z</time></trkpt><trkpt lat="46.3961976" lon="10.3533697"><ele>1075.3333333333333</ele><time>2026-04-26T14:01:16.359Z</time></trkpt><trkpt lat="46.3960998" lon="10.3534143"><ele>1075.6666666666665</ele><time>2026-04-26T14:01:18.366Z</time></trkpt><trkpt lat="46.3960246" lon="10.3535028"><ele>1076.0</ele><time>2026-04-26T14:01:20.36Z</time></trkpt><trkpt lat="46.3959984" lon="10.3535931"><ele>1076.3333333333333</ele><time>2026-04-26T14:05:59.36Z</time></trkpt><trkpt lat="46.3959543" lon="10.3534905"><ele>1076.6666666666667</ele><time>2026-04-26T14:06:04.356Z</time></trkpt><trkpt lat="46.3959558" lon="10.3533757"><ele>1077.0</ele><time>2026-04-26T14:06:05.355Z</time></trkpt><trkpt lat="46.3959604" lon="10.353241"><ele>1077.0</ele><time>2026-04-26T14:06:06.358Z</time></trkpt><trkpt lat="46.3959689" lon="10.3531064"><ele>1077.0</ele><time>2026-04-26T14:06:07.36Z</time></trkpt><trkpt lat="46.3960005" lon="10.3529291"><ele>1077.0</ele><time>2026-04-26T14:06:08.36Z</time></trkpt><trkpt lat="46.3960364" lon="10.352778"><ele>1077.0</ele><time>2026-04-26T14:06:09.356Z</time></trkpt><trkpt lat="46.3960823" lon="10.3527023"><ele>1077.0</ele><time>2026-04-26T14:06:10.354Z</time></trkpt><trkpt lat="46.3961444" lon="10.3526426"><ele>1076.6666666666667</ele><time>2026-04-26T14:06:11.358Z</time></trkpt><trkpt lat="46.3962278" lon="10.3526008"><ele>1076.3333333333333</ele><time>2026-04-26T14:06:12.359Z</time></trkpt><trkpt lat="46.396315" lon="10.3525698"><ele>1076.0</ele><time>2026-04-26T14:06:13.357Z</time></trkpt><trkpt lat="46.3963745" lon="10.3525251"><ele>1075.6666666666665</ele><time>2026-04-26T14:06:14.354Z</time></trkpt><trkpt lat="46.3964084" lon="10.3524252"><ele>1075.3333333333333</ele><time>2026-04-26T14:06:16.358Z</time></trkpt><trkpt lat="46.3963172" lon="10.3523739"><ele>1075.0</ele><time>2026-04-26T14:06:18.359Z</time></trkpt><trkpt lat="46.3962279" lon="10.3523799"><ele>1075.0</ele><time>2026-04-26T14:06:19.359Z</time></trkpt><trkpt lat="46.3961181" lon="10.3523743"><ele>1075.0</ele><time>2026-04-26T14:06:20.366Z</time></trkpt><trkpt lat="46.3959816" lon="10.3523512"><ele>1075.0</ele><time>2026-04-26T14:06:21.361Z</time></trkpt><trkpt lat="46.3958284" lon="10.3523061"><ele>1075.0</ele><time>2026-04-26T14:06:22.357Z</time></trkpt><trkpt lat="46.3956747" lon="10.3522671"><ele>1075.0</ele><time>2026-04-26T14:06:23.356Z</time></trkpt><trkpt lat="46.3955167" lon="10.3522287"><ele>1075.0</ele><time>2026-04-26T14:06:24.363Z</time></trkpt><trkpt lat="46.3953752" lon="10.3521843"><ele>1075.0</ele><time>2026-04-26T14:06:25.357Z</time></trkpt><trkpt lat="46.3952366" lon="10.3521437"><ele>1075.0</ele><time>2026-04-26T14:06:26.357Z</time></trkpt><trkpt lat="46.3950987" lon="10.3521035"><ele>1075.0</ele><time>2026-04-26T14:06:27.357Z</time></trkpt><trkpt lat="46.3949593" lon="10.3520673"><ele>1075.0</ele><time>2026-04-26T14:06:28.357Z</time></trkpt><trkpt lat="46.3948195" lon="10.3520256"><ele>1075.0</ele><time>2026-04-26T14:06:29.36Z</time></trkpt><trkpt lat="46.3946876" lon="10.3519915"><ele>1075.0</ele><time>2026-04-26T14:06:30.358Z</time></trkpt><trkpt lat="46.394562" lon="10.3519547"><ele>1075.25</ele><time>2026-04-26T14:06:31.363Z</time></trkpt><trkpt lat="46.3944357" lon="10.3519129"><ele>1075.5</ele><time>2026-04-26T14:06:32.358Z</time></trkpt><trkpt lat="46.3943053" lon="10.3518793"><ele>1075.75</ele><time>2026-04-26T14:06:33.363Z</time></trkpt><trkpt lat="46.3941699" lon="10.3518541"><ele>1076.0</ele><time>2026-04-26T14:06:34.359Z</time></trkpt><trkpt lat="46.3940456" lon="10.3518235"><ele>1076.0</ele><time>2026-04-26T14:06:35.357Z</time></trkpt><trkpt lat="46.3939321" lon="10.3517844"><ele>1076.0</ele><time>2026-04-26T14:06:36.358Z</time></trkpt><trkpt lat="46.3938445" lon="10.351734"><ele>1076.0</ele><time>2026-04-26T14:06:37.366Z</time></trkpt><trkpt lat="46.3937691" lon="10.35164"><ele>1076.0</ele><time>2026-04-26T14:06:38.356Z</time></trkpt><trkpt lat="46.3936792" lon="10.351521"><ele>1076.0</ele><time>2026-04-26T14:06:39.358Z</time></trkpt><trkpt lat="46.393554" lon="10.3514215"><ele>1076.6666666666667</ele><time>2026-04-26T14:06:40.36Z</time></trkpt><trkpt lat="46.3933959" lon="10.3513565"><ele>1077.3333333333333</ele><time>2026-04-26T14:06:41.359Z</time></trkpt><trkpt lat="46.3932147" lon="10.3513271"><ele>1078.0</ele><time>2026-04-26T14:06:42.359Z</time></trkpt><trkpt lat="46.3930481" lon="10.3513118"><ele>1078.0</ele><time>2026-04-26T14:06:43.355Z</time></trkpt><trkpt lat="46.3928728" lon="10.3512997"><ele>1078.0</ele><time>2026-04-26T14:06:44.358Z</time></trkpt><trkpt lat="46.3927105" lon="10.3513122"><ele>1078.0</ele><time>2026-04-26T14:06:45.361Z</time></trkpt><trkpt lat="46.3925672" lon="10.3513358"><ele>1078.0</ele><time>2026-04-26T14:06:46.365Z</time></trkpt><trkpt lat="46.3924468" lon="10.3513707"><ele>1078.0</ele><time>2026-04-26T14:06:47.364Z</time></trkpt><trkpt lat="46.3923398" lon="10.3513836"><ele>1078.0</ele><time>2026-04-26T14:06:48.36Z</time></trkpt><trkpt lat="46.3922315" lon="10.3513964"><ele>1078.0</ele><time>2026-04-26T14:06:49.356Z</time></trkpt><trkpt lat="46.3921194" lon="10.3513779"><ele>1079.6</ele><time>2026-04-26T14:06:50.355Z</time></trkpt><trkpt lat="46.3920171" lon="10.3513502"><ele>1081.1999999999998</ele><time>2026-04-26T14:06:51.361Z</time></trkpt><trkpt lat="46.3919263" lon="10.3513014"><ele>1082.8</ele><time>2026-04-26T14:06:52.361Z</time></trkpt><trkpt lat="46.391838" lon="10.3512442"><ele>1084.3999999999999</ele><time>2026-04-26T14:06:53.357Z</time></trkpt><trkpt lat="46.3917567" lon="10.3512008"><ele>1086.0</ele><time>2026-04-26T14:06:54.361Z</time></trkpt><trkpt lat="46.391652" lon="10.3511767"><ele>1086.0</ele><time>2026-04-26T14:06:55.357Z</time></trkpt><trkpt lat="46.3915462" lon="10.3511448"><ele>1086.0</ele><time>2026-04-26T14:06:56.363Z</time></trkpt><trkpt lat="46.3914078" lon="10.3510686"><ele>1086.0</ele><time>2026-04-26T14:06:57.359Z</time></trkpt><trkpt lat="46.3912739" lon="10.3509829"><ele>1086.0</ele><time>2026-04-26T14:06:58.355Z</time></trkpt><trkpt lat="46.3911389" lon="10.3509163"><ele>1086.0</ele><time>2026-04-26T14:06:59.362Z</time></trkpt><trkpt lat="46.3909868" lon="10.3508803"><ele>1086.0</ele><time>2026-04-26T14:07:00.359Z</time></trkpt><trkpt lat="46.3908118" lon="10.350877"><ele>1086.0</ele><time>2026-04-26T14:07:01.359Z</time></trkpt><trkpt lat="46.3906226" lon="10.3508954"><ele>1087.25</ele><time>2026-04-26T14:07:02.358Z</time></trkpt><trkpt lat="46.390463" lon="10.3509049"><ele>1088.5</ele><time>2026-04-26T14:07:03.357Z</time></trkpt><trkpt lat="46.3903303" lon="10.3509012"><ele>1089.75</ele><time>2026-04-26T14:07:04.362Z</time></trkpt><trkpt lat="46.3901974" lon="10.3508729"><ele>1091.0</ele><time>2026-04-26T14:07:05.357Z</time></trkpt><trkpt lat="46.3900774" lon="10.3508432"><ele>1091.0</ele><time>2026-04-26T14:07:06.357Z</time></trkpt><trkpt lat="46.3899674" lon="10.3507904"><ele>1091.0</ele><time>2026-04-26T14:07:07.362Z</time></trkpt><trkpt lat="46.3898574" lon="10.3507012"><ele>1091.0</ele><time>2026-04-26T14:07:08.359Z</time></trkpt><trkpt lat="46.3897568" lon="10.3506622"><ele>1091.0</ele><time>2026-04-26T14:07:09.359Z</time></trkpt><trkpt lat="46.3896833" lon="10.3506588"><ele>1091.0</ele><time>2026-04-26T14:07:10.36Z</time></trkpt><trkpt lat="46.3896162" lon="10.350698"><ele>1093.25</ele><time>2026-04-26T14:07:11.356Z</time></trkpt><trkpt lat="46.3895288" lon="10.3507724"><ele>1095.5</ele><time>2026-04-26T14:07:12.358Z</time></trkpt><trkpt lat="46.3894179" lon="10.3508824"><ele>1097.75</ele><time>2026-04-26T14:07:13.361Z</time></trkpt><trkpt lat="46.3892946" lon="10.3509923"><ele>1100.0</ele><time>2026-04-26T14:07:14.356Z</time></trkpt><trkpt lat="46.3891502" lon="10.3511025"><ele>1100.0</ele><time>2026-04-26T14:07:15.364Z</time></trkpt><trkpt lat="46.3889921" lon="10.3512374"><ele>1100.0</ele><time>2026-04-26T14:07:16.363Z</time></trkpt><trkpt lat="46.3888182" lon="10.3513909"><ele>1100.0</ele><time>2026-04-26T14:07:17.354Z</time></trkpt><trkpt lat="46.3886427" lon="10.3515512"><ele>1099.6666666666667</ele><time>2026-04-26T14:07:18.357Z</time></trkpt><trkpt lat="46.3884786" lon="10.3517036"><ele>1099.3333333333333</ele><time>2026-04-26T14:07:19.358Z</time></trkpt><trkpt lat="46.3883041" lon="10.3518557"><ele>1099.0</ele><time>2026-04-26T14:07:20.364Z</time></trkpt><trkpt lat="46.3881336" lon="10.3520009"><ele>1099.0</ele><time>2026-04-26T14:07:21.36Z</time></trkpt><trkpt lat="46.3879752" lon="10.3521251"><ele>1099.0</ele><time>2026-04-26T14:07:22.363Z</time></trkpt><trkpt lat="46.3878101" lon="10.3522411"><ele>1099.0</ele><time>2026-04-26T14:07:23.359Z</time></trkpt><trkpt lat="46.3876545" lon="10.3523363"><ele>1099.0</ele><time>2026-04-26T14:07:24.357Z</time></trkpt><trkpt lat="46.3874911" lon="10.3524245"><ele>1099.0</ele><time>2026-04-26T14:07:25.361Z</time></trkpt><trkpt lat="46.3873243" lon="10.3525119"><ele>1099.0</ele><time>2026-04-26T14:07:26.357Z</time></trkpt><trkpt lat="46.3871586" lon="10.3525858"><ele>1101.6666666666665</ele><time>2026-04-26T14:07:27.364Z</time></trkpt><trkpt lat="46.3870037" lon="10.3526514"><ele>1104.3333333333333</ele><time>2026-04-26T14:07:28.357Z</time></trkpt><trkpt lat="46.3868396" lon="10.352705"><ele>1107.0</ele><time>2026-04-26T14:07:29.362Z</time></trkpt><trkpt lat="46.3866712" lon="10.3527261"><ele>1107.0</ele><time>2026-04-26T14:07:30.362Z</time></trkpt><trkpt lat="46.3865035" lon="10.3527516"><ele>1107.0</ele><time>2026-04-26T14:07:31.362Z</time></trkpt><trkpt lat="46.3863183" lon="10.3527785"><ele>1107.0</ele><time>2026-04-26T14:07:32.361Z</time></trkpt><trkpt lat="46.3861376" lon="10.3528184"><ele>1106.6666666666667</ele><time>2026-04-26T14:07:33.354Z</time></trkpt><trkpt lat="46.3859526" lon="10.352862"><ele>1106.3333333333335</ele><time>2026-04-26T14:07:34.356Z</time></trkpt><trkpt lat="46.3857754" lon="10.3529325"><ele>1106.0</ele><time>2026-04-26T14:07:35.364Z</time></trkpt><trkpt lat="46.3856186" lon="10.3529943"><ele>1107.6666666666667</ele><time>2026-04-26T14:07:36.356Z</time></trkpt><trkpt lat="46.3854558" lon="10.3530454"><ele>1109.3333333333333</ele><time>2026-04-26T14:07:37.37Z</time></trkpt><trkpt lat="46.3852858" lon="10.3530933"><ele>1111.0</ele><time>2026-04-26T14:07:38.356Z</time></trkpt><trkpt lat="46.3851026" lon="10.3531205"><ele>1111.0</ele><time>2026-04-26T14:07:39.357Z</time></trkpt><trkpt lat="46.3849144" lon="10.3531487"><ele>1111.0</ele><time>2026-04-26T14:07:40.357Z</time></trkpt><trkpt lat="46.3847352" lon="10.3531834"><ele>1111.0</ele><time>2026-04-26T14:07:41.368Z</time></trkpt><trkpt lat="46.3845498" lon="10.3532123"><ele>1112.6666666666665</ele><time>2026-04-26T14:07:42.357Z</time></trkpt><trkpt lat="46.3843979" lon="10.3532327"><ele>1114.3333333333333</ele><time>2026-04-26T14:07:43.358Z</time></trkpt><trkpt lat="46.3842354" lon="10.3532684"><ele>1116.0</ele><time>2026-04-26T14:07:44.364Z</time></trkpt><trkpt lat="46.3840672" lon="10.3533076"><ele>1116.0</ele><time>2026-04-26T14:07:45.361Z</time></trkpt><trkpt lat="46.383913" lon="10.3533437"><ele>1116.0</ele><time>2026-04-26T14:07:46.358Z</time></trkpt><trkpt lat="46.3837583" lon="10.3533538"><ele>1116.0</ele><time>2026-04-26T14:07:47.357Z</time></trkpt><trkpt lat="46.3835995" lon="10.3533616"><ele>1116.75</ele><time>2026-04-26T14:07:48.357Z</time></trkpt><trkpt lat="46.3834444" lon="10.3533533"><ele>1117.5</ele><time>2026-04-26T14:07:49.356Z</time></trkpt><trkpt lat="46.3833002" lon="10.3533504"><ele>1118.25</ele><time>2026-04-26T14:07:50.358Z</time></trkpt><trkpt lat="46.3831634" lon="10.3533567"><ele>1119.0</ele><time>2026-04-26T14:07:51.355Z</time></trkpt><trkpt lat="46.383033" lon="10.3533789"><ele>1119.4</ele><time>2026-04-26T14:07:52.36Z</time></trkpt><trkpt lat="46.3829244" lon="10.3534001"><ele>1119.8000000000002</ele><time>2026-04-26T14:07:53.355Z</time></trkpt><trkpt lat="46.3828209" lon="10.3534115"><ele>1120.1999999999998</ele><time>2026-04-26T14:07:54.359Z</time></trkpt><trkpt lat="46.3827222" lon="10.3533987"><ele>1120.6</ele><time>2026-04-26T14:07:56.353Z</time></trkpt><trkpt lat="46.3826585" lon="10.3534471"><ele>1121.0</ele><time>2026-04-26T14:07:59.358Z</time></trkpt><trkpt lat="46.3825816" lon="10.3534586"><ele>1121.0</ele><time>2026-04-26T14:08:11.364Z</time></trkpt><trkpt lat="46.38246" lon="10.3535121"><ele>1121.0</ele><time>2026-04-26T14:08:13.36Z</time></trkpt><trkpt lat="46.3824007" lon="10.3535443"><ele>1121.0</ele><time>2026-04-26T14:08:14.37Z</time></trkpt><trkpt lat="46.3823301" lon="10.3536158"><ele>1121.0</ele><time>2026-04-26T14:08:16.362Z</time></trkpt><trkpt lat="46.3822619" lon="10.3536931"><ele>1121.0</ele><time>2026-04-26T14:08:18.358Z</time></trkpt><trkpt lat="46.382192" lon="10.3537241"><ele>1121.0</ele><time>2026-04-26T14:08:20.359Z</time></trkpt><trkpt lat="46.382091" lon="10.3537019"><ele>1122.8</ele><time>2026-04-26T14:08:22.361Z</time></trkpt><trkpt lat="46.3819607" lon="10.3536341"><ele>1124.6</ele><time>2026-04-26T14:08:24.363Z</time></trkpt><trkpt lat="46.3818854" lon="10.3535976"><ele>1126.4</ele><time>2026-04-26T14:08:25.363Z</time></trkpt><trkpt lat="46.3818143" lon="10.3535764"><ele>1128.2</ele><time>2026-04-26T14:08:26.359Z</time></trkpt><trkpt lat="46.3817387" lon="10.3535649"><ele>1130.0</ele><time>2026-04-26T14:08:27.365Z</time></trkpt><trkpt lat="46.3816479" lon="10.3535605"><ele>1130.0</ele><time>2026-04-26T14:08:28.36Z</time></trkpt><trkpt lat="46.3815488" lon="10.3535654"><ele>1130.0</ele><time>2026-04-26T14:08:29.36Z</time></trkpt><trkpt lat="46.3814523" lon="10.3535786"><ele>1130.0</ele><time>2026-04-26T14:08:30.363Z</time></trkpt><trkpt lat="46.3813462" lon="10.3536097"><ele>1130.0</ele><time>2026-04-26T14:08:31.359Z</time></trkpt><trkpt lat="46.3812465" lon="10.3536454"><ele>1130.0</ele><time>2026-04-26T14:08:32.357Z</time></trkpt><trkpt lat="46.3811644" lon="10.3536767"><ele>1131.142857142857</ele><time>2026-04-26T14:08:33.357Z</time></trkpt><trkpt lat="46.3810722" lon="10.3537037"><ele>1132.2857142857142</ele><time>2026-04-26T14:08:35.359Z</time></trkpt><trkpt lat="46.3809972" lon="10.3537167"><ele>1133.4285714285716</ele><time>2026-04-26T14:08:39.363Z</time></trkpt><trkpt lat="46.3809844" lon="10.353808"><ele>1134.5714285714284</ele><time>2026-04-26T14:08:43.359Z</time></trkpt><trkpt lat="46.3810571" lon="10.3538045"><ele>1135.7142857142858</ele><time>2026-04-26T14:09:01.363Z</time></trkpt><trkpt lat="46.381109" lon="10.353748"><ele>1136.857142857143</ele><time>2026-04-26T14:09:04.36Z</time></trkpt><trkpt lat="46.3811655" lon="10.3537"><ele>1138.0</ele><time>2026-04-26T14:09:07.37Z</time></trkpt><trkpt lat="46.3812524" lon="10.3536689"><ele>1134.0</ele><time>2026-04-26T14:09:10.361Z</time></trkpt><trkpt lat="46.3813757" lon="10.3536381"><ele>1130.0</ele><time>2026-04-26T14:09:11.359Z</time></trkpt><trkpt lat="46.3818775" lon="10.353553"><ele>1129.9999999999998</ele><time>2026-04-26T14:09:12.353Z</time></trkpt><trkpt lat="46.3819583" lon="10.3535791"><ele>1130.0</ele><time>2026-04-26T14:09:13.352Z</time></trkpt><trkpt lat="46.3820268" lon="10.3536097"><ele>1130.0</ele><time>2026-04-26T14:09:14.355Z</time></trkpt><trkpt lat="46.3820876" lon="10.3536506"><ele>1130.0</ele><time>2026-04-26T14:09:15.368Z</time></trkpt><trkpt lat="46.3821763" lon="10.3536812"><ele>1130.0</ele><time>2026-04-26T14:09:17.363Z</time></trkpt><trkpt lat="46.382241" lon="10.3536862"><ele>1129.9999999999998</ele><time>2026-04-26T14:09:19.357Z</time></trkpt><trkpt lat="46.3823101" lon="10.3536611"><ele>1130.0</ele><time>2026-04-26T14:09:22.363Z</time></trkpt><trkpt lat="46.3823805" lon="10.3536571"><ele>1128.6</ele><time>2026-04-26T14:09:26.358Z</time></trkpt><trkpt lat="46.3824171" lon="10.3537631"><ele>1127.2</ele><time>2026-04-26T14:09:40.359Z</time></trkpt><trkpt lat="46.3824528" lon="10.353925"><ele>1125.8</ele><time>2026-04-26T14:09:43.36Z</time></trkpt><trkpt lat="46.3825419" lon="10.3540878"><ele>1124.4</ele><time>2026-04-26T14:09:44.361Z</time></trkpt><trkpt lat="46.3826414" lon="10.3541134"><ele>1123.0</ele><time>2026-04-26T14:09:46.354Z</time></trkpt><trkpt lat="46.3827065" lon="10.3541013"><ele>1123.0</ele><time>2026-04-26T14:09:47.359Z</time></trkpt><trkpt lat="46.3828009" lon="10.3540591"><ele>1123.0</ele><time>2026-04-26T14:09:49.361Z</time></trkpt><trkpt lat="46.3828838" lon="10.3540106"><ele>1123.0</ele><time>2026-04-26T14:09:51.36Z</time></trkpt><trkpt lat="46.3829626" lon="10.3539781"><ele>1123.0</ele><time>2026-04-26T14:09:53.361Z</time></trkpt><trkpt lat="46.3830269" lon="10.3539657"><ele>1123.0</ele><time>2026-04-26T14:09:56.363Z</time></trkpt><trkpt lat="46.3831072" lon="10.3539563"><ele>1123.0</ele><time>2026-04-26T14:09:59.362Z</time></trkpt><trkpt lat="46.3831897" lon="10.3539349"><ele>1123.5</ele><time>2026-04-26T14:10:01.361Z</time></trkpt><trkpt lat="46.3832703" lon="10.3539053"><ele>1124.0</ele><time>2026-04-26T14:10:03.36Z</time></trkpt><trkpt lat="46.383359" lon="10.3538737"><ele>1124.5</ele><time>2026-04-26T14:10:04.366Z</time></trkpt><trkpt lat="46.3835326" lon="10.3538243"><ele>1125.0</ele><time>2026-04-26T14:10:05.36Z</time></trkpt><trkpt lat="46.3836402" lon="10.3537967"><ele>1124.0</ele><time>2026-04-26T14:10:06.361Z</time></trkpt><trkpt lat="46.3837421" lon="10.353755"><ele>1123.0</ele><time>2026-04-26T14:10:08.361Z</time></trkpt><trkpt lat="46.3838231" lon="10.3537329"><ele>1122.0</ele><time>2026-04-26T14:10:10.363Z</time></trkpt><trkpt lat="46.3838986" lon="10.3537163"><ele>1121.0</ele><time>2026-04-26T14:10:12.373Z</time></trkpt><trkpt lat="46.3839801" lon="10.3537255"><ele>1120.0</ele><time>2026-04-26T14:10:16.353Z</time></trkpt><trkpt lat="46.3840663" lon="10.3537059"><ele>1119.0</ele><time>2026-04-26T14:10:19.353Z</time></trkpt><trkpt lat="46.3841398" lon="10.3536944"><ele>1118.5</ele><time>2026-04-26T14:10:21.364Z</time></trkpt><trkpt lat="46.3842447" lon="10.3536965"><ele>1118.0</ele><time>2026-04-26T14:10:40.355Z</time></trkpt><trkpt lat="46.3843291" lon="10.3536993"><ele>1117.5</ele><time>2026-04-26T14:11:09.361Z</time></trkpt><trkpt lat="46.3842634" lon="10.3536508"><ele>1117.0</ele><time>2026-04-26T14:11:30.36Z</time></trkpt><trkpt lat="46.3842358" lon="10.3535596"><ele>1116.5</ele><time>2026-04-26T14:12:02.358Z</time></trkpt><trkpt lat="46.3841773" lon="10.3534821"><ele>1116.0</ele><time>2026-04-26T14:12:14.364Z</time></trkpt><trkpt lat="46.3841593" lon="10.3533759"><ele>1116.0</ele><time>2026-04-26T14:12:24.365Z</time></trkpt><trkpt lat="46.3841726" lon="10.3532631"><ele>1116.0</ele><time>2026-04-26T14:12:28.362Z</time></trkpt><trkpt lat="46.3842565" lon="10.3532384"><ele>1116.0</ele><time>2026-04-26T14:12:31.36Z</time></trkpt><trkpt lat="46.3843299" lon="10.3532485"><ele>1116.0</ele><time>2026-04-26T14:12:33.362Z</time></trkpt><trkpt lat="46.3844132" lon="10.3532595"><ele>1116.0</ele><time>2026-04-26T14:12:35.36Z</time></trkpt><trkpt lat="46.3852883" lon="10.3531057"><ele>1114.3333333333333</ele><time>2026-04-26T14:12:37.358Z</time></trkpt><trkpt lat="46.3854411" lon="10.3530579"><ele>1112.6666666666665</ele><time>2026-04-26T14:12:38.359Z</time></trkpt><trkpt lat="46.3856063" lon="10.3530032"><ele>1111.0</ele><time>2026-04-26T14:12:39.355Z</time></trkpt><trkpt lat="46.3857741" lon="10.35295"><ele>1109.3333333333333</ele><time>2026-04-26T14:12:40.361Z</time></trkpt><trkpt lat="46.385945" lon="10.3528933"><ele>1107.6666666666667</ele><time>2026-04-26T14:12:41.364Z</time></trkpt><trkpt lat="46.3860935" lon="10.3528465"><ele>1106.0</ele><time>2026-04-26T14:12:42.357Z</time></trkpt><trkpt lat="46.3862339" lon="10.352809"><ele>1106.2</ele><time>2026-04-26T14:12:43.362Z</time></trkpt><trkpt lat="46.3863456" lon="10.3527834"><ele>1106.3999999999999</ele><time>2026-04-26T14:12:44.36Z</time></trkpt><trkpt lat="46.3864484" lon="10.3527724"><ele>1106.6</ele><time>2026-04-26T14:12:45.356Z</time></trkpt><trkpt lat="46.3865285" lon="10.3527649"><ele>1106.8</ele><time>2026-04-26T14:12:46.364Z</time></trkpt><trkpt lat="46.386595" lon="10.3527739"><ele>1107.0</ele><time>2026-04-26T14:12:47.354Z</time></trkpt><trkpt lat="46.3866869" lon="10.3528425"><ele>1107.0</ele><time>2026-04-26T14:12:49.36Z</time></trkpt><trkpt lat="46.3867313" lon="10.3529737"><ele>1107.0</ele><time>2026-04-26T14:12:51.36Z</time></trkpt><trkpt lat="46.3867457" lon="10.3530729"><ele>1107.0</ele><time>2026-04-26T14:12:52.358Z</time></trkpt><trkpt lat="46.3867644" lon="10.3531695"><ele>1107.0</ele><time>2026-04-26T14:12:53.361Z</time></trkpt><trkpt lat="46.3868315" lon="10.3533081"><ele>1107.0</ele><time>2026-04-26T14:12:55.358Z</time></trkpt><trkpt lat="46.3869384" lon="10.3533337"><ele>1106.75</ele><time>2026-04-26T14:12:57.36Z</time></trkpt><trkpt lat="46.3870326" lon="10.3533176"><ele>1106.5</ele><time>2026-04-26T14:12:58.361Z</time></trkpt><trkpt lat="46.387156" lon="10.3533059"><ele>1106.25</ele><time>2026-04-26T14:12:59.365Z</time></trkpt><trkpt lat="46.387311" lon="10.3532961"><ele>1106.0</ele><time>2026-04-26T14:13:00.359Z</time></trkpt><trkpt lat="46.3874744" lon="10.3532766"><ele>1105.5</ele><time>2026-04-26T14:13:01.361Z</time></trkpt><trkpt lat="46.3876223" lon="10.3532623"><ele>1105.0</ele><time>2026-04-26T14:13:02.353Z</time></trkpt><trkpt lat="46.3877519" lon="10.3532604"><ele>1104.5</ele><time>2026-04-26T14:13:03.354Z</time></trkpt><trkpt lat="46.3878675" lon="10.3532668"><ele>1104.0</ele><time>2026-04-26T14:13:04.359Z</time></trkpt><trkpt lat="46.3879859" lon="10.3533001"><ele>1102.6000000000001</ele><time>2026-04-26T14:13:05.362Z</time></trkpt><trkpt lat="46.388084" lon="10.3533462"><ele>1101.2</ele><time>2026-04-26T14:13:06.361Z</time></trkpt><trkpt lat="46.3881859" lon="10.3534133"><ele>1099.8000000000002</ele><time>2026-04-26T14:13:07.357Z</time></trkpt><trkpt lat="46.3882796" lon="10.3534886"><ele>1098.4</ele><time>2026-04-26T14:13:08.36Z</time></trkpt><trkpt lat="46.3883328" lon="10.3535501"><ele>1097.0</ele><time>2026-04-26T14:13:09.358Z</time></trkpt><trkpt lat="46.388416" lon="10.3536706"><ele>1097.0</ele><time>2026-04-26T14:13:11.357Z</time></trkpt><trkpt lat="46.3884668" lon="10.3537597"><ele>1097.0</ele><time>2026-04-26T14:13:13.358Z</time></trkpt><trkpt lat="46.3885327" lon="10.3537501"><ele>1097.0</ele><time>2026-04-26T14:13:23.361Z</time></trkpt><trkpt lat="46.3885227" lon="10.3536584"><ele>1097.0</ele><time>2026-04-26T14:13:26.361Z</time></trkpt><trkpt lat="46.3884479" lon="10.3536199"><ele>1097.0</ele><time>2026-04-26T14:13:29.363Z</time></trkpt><trkpt lat="46.3883792" lon="10.3537064"><ele>1097.0</ele><time>2026-04-26T14:13:30.355Z</time></trkpt><trkpt lat="46.3883276" lon="10.3537893"><ele>1097.4</ele><time>2026-04-26T14:13:31.356Z</time></trkpt><trkpt lat="46.3882562" lon="10.3538829"><ele>1097.8000000000002</ele><time>2026-04-26T14:13:32.358Z</time></trkpt><trkpt lat="46.3881761" lon="10.3539528"><ele>1098.2</ele><time>2026-04-26T14:13:33.361Z</time></trkpt><trkpt lat="46.3880823" lon="10.3540009"><ele>1098.6000000000001</ele><time>2026-04-26T14:13:34.356Z</time></trkpt><trkpt lat="46.387982" lon="10.3540302"><ele>1099.0</ele><time>2026-04-26T14:13:35.357Z</time></trkpt><trkpt lat="46.3878725" lon="10.3540654"><ele>1101.75</ele><time>2026-04-26T14:13:36.353Z</time></trkpt><trkpt lat="46.3877565" lon="10.3541053"><ele>1104.5</ele><time>2026-04-26T14:13:37.361Z</time></trkpt><trkpt lat="46.3876521" lon="10.3541279"><ele>1107.25</ele><time>2026-04-26T14:13:38.365Z</time></trkpt><trkpt lat="46.3875478" lon="10.3541573"><ele>1110.0</ele><time>2026-04-26T14:13:39.354Z</time></trkpt><trkpt lat="46.3874288" lon="10.3542175"><ele>1110.0</ele><time>2026-04-26T14:13:40.356Z</time></trkpt><trkpt lat="46.3873157" lon="10.3542835"><ele>1110.0</ele><time>2026-04-26T14:13:41.355Z</time></trkpt><trkpt lat="46.3872101" lon="10.3543501"><ele>1110.0</ele><time>2026-04-26T14:13:42.355Z</time></trkpt><trkpt lat="46.3870895" lon="10.3543852"><ele>1110.0</ele><time>2026-04-26T14:13:43.355Z</time></trkpt><trkpt lat="46.3869538" lon="10.3544172"><ele>1111.5</ele><time>2026-04-26T14:13:44.356Z</time></trkpt><trkpt lat="46.3868195" lon="10.354445"><ele>1113.0</ele><time>2026-04-26T14:13:45.365Z</time></trkpt><trkpt lat="46.386697" lon="10.3544791"><ele>1114.5</ele><time>2026-04-26T14:13:46.356Z</time></trkpt><trkpt lat="46.3865676" lon="10.354539"><ele>1116.0</ele><time>2026-04-26T14:13:47.362Z</time></trkpt><trkpt lat="46.3864321" lon="10.3545891"><ele>1116.25</ele><time>2026-04-26T14:13:48.355Z</time></trkpt><trkpt lat="46.3862963" lon="10.3546354"><ele>1116.5</ele><time>2026-04-26T14:13:49.354Z</time></trkpt><trkpt lat="46.3861613" lon="10.3546826"><ele>1116.75</ele><time>2026-04-26T14:13:50.359Z</time></trkpt><trkpt lat="46.3860238" lon="10.3547111"><ele>1117.0</ele><time>2026-04-26T14:13:51.354Z</time></trkpt><trkpt lat="46.3858827" lon="10.3547182"><ele>1117.0</ele><time>2026-04-26T14:13:52.358Z</time></trkpt><trkpt lat="46.3857266" lon="10.3547371"><ele>1117.0</ele><time>2026-04-26T14:13:53.356Z</time></trkpt><trkpt lat="46.3855779" lon="10.3547528"><ele>1117.0</ele><time>2026-04-26T14:13:54.354Z</time></trkpt><trkpt lat="46.3854587" lon="10.3547623"><ele>1117.0</ele><time>2026-04-26T14:13:55.356Z</time></trkpt><trkpt lat="46.3853692" lon="10.3547652"><ele>1117.25</ele><time>2026-04-26T14:13:56.356Z</time></trkpt><trkpt lat="46.3852741" lon="10.3547491"><ele>1117.5</ele><time>2026-04-26T14:13:57.369Z</time></trkpt><trkpt lat="46.3851569" lon="10.3547095"><ele>1117.75</ele><time>2026-04-26T14:13:58.357Z</time></trkpt><trkpt lat="46.3850464" lon="10.354673"><ele>1118.0</ele><time>2026-04-26T14:13:59.356Z</time></trkpt><trkpt lat="46.3849191" lon="10.3546194"><ele>1119.25</ele><time>2026-04-26T14:14:00.356Z</time></trkpt><trkpt lat="46.3847829" lon="10.3545816"><ele>1120.5</ele><time>2026-04-26T14:14:01.356Z</time></trkpt><trkpt lat="46.3846444" lon="10.3545604"><ele>1121.75</ele><time>2026-04-26T14:14:02.359Z</time></trkpt><trkpt lat="46.3845013" lon="10.3545424"><ele>1123.0</ele><time>2026-04-26T14:14:03.354Z</time></trkpt><trkpt lat="46.3843728" lon="10.3545273"><ele>1123.0</ele><time>2026-04-26T14:14:04.355Z</time></trkpt><trkpt lat="46.3842686" lon="10.3545108"><ele>1123.0</ele><time>2026-04-26T14:14:05.36Z</time></trkpt><trkpt lat="46.3841907" lon="10.354472"><ele>1123.0</ele><time>2026-04-26T14:14:06.358Z</time></trkpt><trkpt lat="46.384111" lon="10.3544271"><ele>1123.0</ele><time>2026-04-26T14:14:08.367Z</time></trkpt><trkpt lat="46.3839793" lon="10.3544357"><ele>1123.0</ele><time>2026-04-26T14:14:10.358Z</time></trkpt><trkpt lat="46.3838805" lon="10.3544311"><ele>1123.5</ele><time>2026-04-26T14:14:11.36Z</time></trkpt><trkpt lat="46.3837624" lon="10.3544363"><ele>1124.0</ele><time>2026-04-26T14:14:12.357Z</time></trkpt><trkpt lat="46.3836464" lon="10.3544484"><ele>1124.5</ele><time>2026-04-26T14:14:13.357Z</time></trkpt><trkpt lat="46.3835249" lon="10.354454"><ele>1125.0</ele><time>2026-04-26T14:14:14.355Z</time></trkpt><trkpt lat="46.3834088" lon="10.3544501"><ele>1125.0</ele><time>2026-04-26T14:14:15.359Z</time></trkpt><trkpt lat="46.3833013" lon="10.3544524"><ele>1125.0</ele><time>2026-04-26T14:14:16.357Z</time></trkpt><trkpt lat="46.383185" lon="10.354459"><ele>1125.0</ele><time>2026-04-26T14:14:17.358Z</time></trkpt><trkpt lat="46.3830578" lon="10.3544682"><ele>1125.0</ele><time>2026-04-26T14:14:18.357Z</time></trkpt><trkpt lat="46.3829225" lon="10.3544768"><ele>1124.5</ele><time>2026-04-26T14:14:19.359Z</time></trkpt><trkpt lat="46.3827775" lon="10.354482"><ele>1124.0</ele><time>2026-04-26T14:14:20.361Z</time></trkpt><trkpt lat="46.382644" lon="10.354489"><ele>1123.5</ele><time>2026-04-26T14:14:21.362Z</time></trkpt><trkpt lat="46.3825166" lon="10.3544903"><ele>1123.0</ele><time>2026-04-26T14:14:22.357Z</time></trkpt><trkpt lat="46.3823916" lon="10.3544941"><ele>1123.0</ele><time>2026-04-26T14:14:23.355Z</time></trkpt><trkpt lat="46.3822612" lon="10.3545001"><ele>1123.0</ele><time>2026-04-26T14:14:24.36Z</time></trkpt><trkpt lat="46.3821219" lon="10.3545091"><ele>1123.0</ele><time>2026-04-26T14:14:25.357Z</time></trkpt><trkpt lat="46.3819762" lon="10.3545183"><ele>1123.0</ele><time>2026-04-26T14:14:26.358Z</time></trkpt><trkpt lat="46.3818264" lon="10.3545291"><ele>1124.0</ele><time>2026-04-26T14:14:27.356Z</time></trkpt><trkpt lat="46.3816728" lon="10.3545372"><ele>1125.0</ele><time>2026-04-26T14:14:28.361Z</time></trkpt><trkpt lat="46.3815151" lon="10.3545457"><ele>1126.0</ele><time>2026-04-26T14:14:29.355Z</time></trkpt><trkpt lat="46.3813513" lon="10.3545525"><ele>1127.5</ele><time>2026-04-26T14:14:30.358Z</time></trkpt><trkpt lat="46.3811846" lon="10.3545636"><ele>1129.0</ele><time>2026-04-26T14:14:31.359Z</time></trkpt><trkpt lat="46.381035" lon="10.3545731"><ele>1130.5</ele><time>2026-04-26T14:14:32.357Z</time></trkpt><trkpt lat="46.3809066" lon="10.3545827"><ele>1132.0</ele><time>2026-04-26T14:14:33.356Z</time></trkpt><trkpt lat="46.3807884" lon="10.3545897"><ele>1132.0</ele><time>2026-04-26T14:14:34.364Z</time></trkpt><trkpt lat="46.3806671" lon="10.3545984"><ele>1132.0</ele><time>2026-04-26T14:14:35.356Z</time></trkpt><trkpt lat="46.3805329" lon="10.3546104"><ele>1132.0</ele><time>2026-04-26T14:14:36.357Z</time></trkpt><trkpt lat="46.3803878" lon="10.35462"><ele>1132.0</ele><time>2026-04-26T14:14:37.358Z</time></trkpt><trkpt lat="46.3802408" lon="10.3546314"><ele>1132.25</ele><time>2026-04-26T14:14:38.354Z</time></trkpt><trkpt lat="46.3800953" lon="10.3546449"><ele>1132.5</ele><time>2026-04-26T14:14:39.359Z</time></trkpt><trkpt lat="46.3799656" lon="10.3546515"><ele>1132.75</ele><time>2026-04-26T14:14:40.358Z</time></trkpt><trkpt lat="46.3798401" lon="10.3546501"><ele>1133.0</ele><time>2026-04-26T14:14:41.357Z</time></trkpt><trkpt lat="46.3797194" lon="10.3546562"><ele>1132.3333333333335</ele><time>2026-04-26T14:14:42.36Z</time></trkpt><trkpt lat="46.3796268" lon="10.3546603"><ele>1131.6666666666667</ele><time>2026-04-26T14:14:43.363Z</time></trkpt><trkpt lat="46.3795529" lon="10.3546604"><ele>1131.0</ele><time>2026-04-26T14:14:44.358Z</time></trkpt><trkpt lat="46.3794768" lon="10.3546572"><ele>1130.3333333333333</ele><time>2026-04-26T14:14:45.363Z</time></trkpt><trkpt lat="46.3793945" lon="10.3546485"><ele>1129.6666666666665</ele><time>2026-04-26T14:14:46.357Z</time></trkpt><trkpt lat="46.3793011" lon="10.3546477"><ele>1129.0</ele><time>2026-04-26T14:14:47.356Z</time></trkpt><trkpt lat="46.3792149" lon="10.3546428"><ele>1129.0</ele><time>2026-04-26T14:14:48.366Z</time></trkpt><trkpt lat="46.3791161" lon="10.3545877"><ele>1129.0</ele><time>2026-04-26T14:14:50.362Z</time></trkpt><trkpt lat="46.3790478" lon="10.3545219"><ele>1129.0</ele><time>2026-04-26T14:14:52.36Z</time></trkpt><trkpt lat="46.3789859" lon="10.3544957"><ele>1129.0</ele><time>2026-04-26T14:14:54.363Z</time></trkpt><trkpt lat="46.3789715" lon="10.3546094"><ele>1129.0</ele><time>2026-04-26T14:15:01.363Z</time></trkpt><trkpt lat="46.3790281" lon="10.3546497"><ele>1129.0</ele><time>2026-04-26T14:15:03.36Z</time></trkpt><trkpt lat="46.3790979" lon="10.3546548"><ele>1129.0</ele><time>2026-04-26T14:15:05.354Z</time></trkpt><trkpt lat="46.3791792" lon="10.3546475"><ele>1129.0</ele><time>2026-04-26T14:15:08.367Z</time></trkpt><trkpt lat="46.3792852" lon="10.3546554"><ele>1129.0</ele><time>2026-04-26T14:15:10.368Z</time></trkpt><trkpt lat="46.3798358" lon="10.3546564"><ele>1130.3333333333333</ele><time>2026-04-26T14:15:11.359Z</time></trkpt><trkpt lat="46.3799819" lon="10.3546479"><ele>1131.6666666666667</ele><time>2026-04-26T14:15:12.356Z</time></trkpt><trkpt lat="46.3801287" lon="10.3546381"><ele>1133.0</ele><time>2026-04-26T14:15:13.351Z</time></trkpt><trkpt lat="46.3802938" lon="10.354632"><ele>1133.0</ele><time>2026-04-26T14:15:14.365Z</time></trkpt><trkpt lat="46.3804674" lon="10.354622"><ele>1133.0</ele><time>2026-04-26T14:15:15.357Z</time></trkpt><trkpt lat="46.3806559" lon="10.3546161"><ele>1133.0</ele><time>2026-04-26T14:15:16.355Z</time></trkpt><trkpt lat="46.3808214" lon="10.3545959"><ele>1132.6666666666667</ele><time>2026-04-26T14:15:17.362Z</time></trkpt><trkpt lat="46.3809933" lon="10.3545848"><ele>1132.3333333333333</ele><time>2026-04-26T14:15:18.358Z</time></trkpt><trkpt lat="46.3811749" lon="10.3545703"><ele>1132.0</ele><time>2026-04-26T14:15:19.357Z</time></trkpt><trkpt lat="46.3813461" lon="10.3545571"><ele>1130.0</ele><time>2026-04-26T14:15:20.361Z</time></trkpt><trkpt lat="46.3815347" lon="10.3545478"><ele>1128.0</ele><time>2026-04-26T14:15:21.369Z</time></trkpt><trkpt lat="46.381723" lon="10.3545383"><ele>1126.0</ele><time>2026-04-26T14:15:22.356Z</time></trkpt><trkpt lat="46.3819153" lon="10.3545295"><ele>1126.0</ele><time>2026-04-26T14:15:23.357Z</time></trkpt><trkpt lat="46.3821065" lon="10.3545174"><ele>1126.0</ele><time>2026-04-26T14:15:24.356Z</time></trkpt><trkpt lat="46.3822971" lon="10.3545076"><ele>1126.0</ele><time>2026-04-26T14:15:25.367Z</time></trkpt><trkpt lat="46.3824784" lon="10.3544945"><ele>1125.6666666666665</ele><time>2026-04-26T14:15:26.354Z</time></trkpt><trkpt lat="46.3826632" lon="10.3544884"><ele>1125.3333333333333</ele><time>2026-04-26T14:15:27.361Z</time></trkpt><trkpt lat="46.382854" lon="10.3544794"><ele>1125.0</ele><time>2026-04-26T14:15:28.36Z</time></trkpt><trkpt lat="46.3830384" lon="10.3544714"><ele>1125.0</ele><time>2026-04-26T14:15:29.361Z</time></trkpt><trkpt lat="46.383229" lon="10.3544666"><ele>1125.0</ele><time>2026-04-26T14:15:30.355Z</time></trkpt><trkpt lat="46.3833756" lon="10.3544474"><ele>1125.0</ele><time>2026-04-26T14:15:31.355Z</time></trkpt><trkpt lat="46.3835049" lon="10.3544335"><ele>1125.0</ele><time>2026-04-26T14:15:32.358Z</time></trkpt><trkpt lat="46.3836453" lon="10.3544309"><ele>1125.0</ele><time>2026-04-26T14:15:33.36Z</time></trkpt><trkpt lat="46.3837985" lon="10.3544264"><ele>1125.0</ele><time>2026-04-26T14:15:34.358Z</time></trkpt><trkpt lat="46.3839348" lon="10.3544119"><ele>1125.0</ele><time>2026-04-26T14:15:35.357Z</time></trkpt><trkpt lat="46.384035" lon="10.354413"><ele>1124.6</ele><time>2026-04-26T14:15:36.356Z</time></trkpt><trkpt lat="46.3841106" lon="10.3544142"><ele>1124.2</ele><time>2026-04-26T14:15:37.353Z</time></trkpt><trkpt lat="46.384229" lon="10.3544716"><ele>1123.8</ele><time>2026-04-26T14:15:39.355Z</time></trkpt><trkpt lat="46.3843196" lon="10.3545284"><ele>1123.4</ele><time>2026-04-26T14:15:40.358Z</time></trkpt><trkpt lat="46.3844564" lon="10.3545617"><ele>1123.0</ele><time>2026-04-26T14:15:41.362Z</time></trkpt><trkpt lat="46.3846" lon="10.354585"><ele>1123.0</ele><time>2026-04-26T14:15:42.358Z</time></trkpt><trkpt lat="46.3847402" lon="10.3546117"><ele>1123.0</ele><time>2026-04-26T14:15:43.358Z</time></trkpt><trkpt lat="46.3848559" lon="10.3546184"><ele>1123.0</ele><time>2026-04-26T14:15:44.359Z</time></trkpt><trkpt lat="46.3849788" lon="10.3546458"><ele>1123.0</ele><time>2026-04-26T14:15:45.359Z</time></trkpt><trkpt lat="46.3850854" lon="10.354689"><ele>1122.0</ele><time>2026-04-26T14:15:46.356Z</time></trkpt><trkpt lat="46.3851773" lon="10.3547379"><ele>1121.0</ele><time>2026-04-26T14:15:47.361Z</time></trkpt><trkpt lat="46.3852709" lon="10.3547703"><ele>1120.0</ele><time>2026-04-26T14:15:48.357Z</time></trkpt><trkpt lat="46.3853522" lon="10.3547919"><ele>1119.0</ele><time>2026-04-26T14:15:49.362Z</time></trkpt><trkpt lat="46.3854347" lon="10.354792"><ele>1118.0</ele><time>2026-04-26T14:15:50.361Z</time></trkpt><trkpt lat="46.3855464" lon="10.3547939"><ele>1117.6666666666667</ele><time>2026-04-26T14:15:51.36Z</time></trkpt><trkpt lat="46.385685" lon="10.3547794"><ele>1117.3333333333333</ele><time>2026-04-26T14:15:52.356Z</time></trkpt><trkpt lat="46.3858472" lon="10.3547629"><ele>1117.0</ele><time>2026-04-26T14:15:53.359Z</time></trkpt><trkpt lat="46.3860101" lon="10.3547433"><ele>1117.0</ele><time>2026-04-26T14:15:54.36Z</time></trkpt><trkpt lat="46.3861545" lon="10.354715"><ele>1117.0</ele><time>2026-04-26T14:15:55.354Z</time></trkpt><trkpt lat="46.3862992" lon="10.3546714"><ele>1117.0</ele><time>2026-04-26T14:15:56.36Z</time></trkpt><trkpt lat="46.3864585" lon="10.3546042"><ele>1116.75</ele><time>2026-04-26T14:15:57.355Z</time></trkpt><trkpt lat="46.3865895" lon="10.3545502"><ele>1116.5</ele><time>2026-04-26T14:15:58.358Z</time></trkpt><trkpt lat="46.386693" lon="10.3545184"><ele>1116.25</ele><time>2026-04-26T14:15:59.356Z</time></trkpt><trkpt lat="46.386821" lon="10.3544844"><ele>1116.0</ele><time>2026-04-26T14:16:00.36Z</time></trkpt><trkpt lat="46.3869618" lon="10.3544546"><ele>1116.0</ele><time>2026-04-26T14:16:01.355Z</time></trkpt><trkpt lat="46.3871049" lon="10.3544124"><ele>1116.0</ele><time>2026-04-26T14:16:02.358Z</time></trkpt><trkpt lat="46.387221" lon="10.3543811"><ele>1116.0</ele><time>2026-04-26T14:16:03.362Z</time></trkpt><trkpt lat="46.3873442" lon="10.3543197"><ele>1116.0</ele><time>2026-04-26T14:16:04.357Z</time></trkpt><trkpt lat="46.3874699" lon="10.3542479"><ele>1114.5</ele><time>2026-04-26T14:16:05.361Z</time></trkpt><trkpt lat="46.3875885" lon="10.3541899"><ele>1113.0</ele><time>2026-04-26T14:16:06.358Z</time></trkpt><trkpt lat="46.3877016" lon="10.3541558"><ele>1111.5</ele><time>2026-04-26T14:16:07.357Z</time></trkpt><trkpt lat="46.3878108" lon="10.3541289"><ele>1110.0</ele><time>2026-04-26T14:16:08.362Z</time></trkpt><trkpt lat="46.3879143" lon="10.3540898"><ele>1107.8</ele><time>2026-04-26T14:16:09.359Z</time></trkpt><trkpt lat="46.3880133" lon="10.3540655"><ele>1105.6</ele><time>2026-04-26T14:16:10.357Z</time></trkpt><trkpt lat="46.3881088" lon="10.3540336"><ele>1103.4</ele><time>2026-04-26T14:16:11.356Z</time></trkpt><trkpt lat="46.3882004" lon="10.353974"><ele>1101.2</ele><time>2026-04-26T14:16:12.357Z</time></trkpt><trkpt lat="46.3882869" lon="10.3539154"><ele>1099.0</ele><time>2026-04-26T14:16:13.356Z</time></trkpt><trkpt lat="46.3883395" lon="10.3538366"><ele>1098.6000000000001</ele><time>2026-04-26T14:16:14.357Z</time></trkpt><trkpt lat="46.3884162" lon="10.3537111"><ele>1098.2</ele><time>2026-04-26T14:16:16.357Z</time></trkpt><trkpt lat="46.3884752" lon="10.3536406"><ele>1097.8000000000002</ele><time>2026-04-26T14:16:17.357Z</time></trkpt><trkpt lat="46.388573" lon="10.3535466"><ele>1097.4</ele><time>2026-04-26T14:16:18.358Z</time></trkpt><trkpt lat="46.388677" lon="10.3534398"><ele>1097.0</ele><time>2026-04-26T14:16:19.355Z</time></trkpt><trkpt lat="46.3887833" lon="10.353329"><ele>1096.0</ele><time>2026-04-26T14:16:20.357Z</time></trkpt><trkpt lat="46.3888973" lon="10.3532442"><ele>1095.0</ele><time>2026-04-26T14:16:21.357Z</time></trkpt><trkpt lat="46.3890152" lon="10.3531555"><ele>1094.0</ele><time>2026-04-26T14:16:22.357Z</time></trkpt><trkpt lat="46.3891206" lon="10.3530879"><ele>1093.0</ele><time>2026-04-26T14:16:23.355Z</time></trkpt><trkpt lat="46.3892246" lon="10.3530252"><ele>1093.0</ele><time>2026-04-26T14:16:24.362Z</time></trkpt><trkpt lat="46.389329" lon="10.3530712"><ele>1093.0</ele><time>2026-04-26T14:16:25.355Z</time></trkpt><trkpt lat="46.3894176" lon="10.3530906"><ele>1093.0</ele><time>2026-04-26T14:16:26.354Z</time></trkpt><trkpt lat="46.3895031" lon="10.3531036"><ele>1093.0</ele><time>2026-04-26T14:16:27.355Z</time></trkpt><trkpt lat="46.3895981" lon="10.3530989"><ele>1093.0</ele><time>2026-04-26T14:16:28.36Z</time></trkpt><trkpt lat="46.3897088" lon="10.3530401"><ele>1092.0</ele><time>2026-04-26T14:16:29.357Z</time></trkpt><trkpt lat="46.3898206" lon="10.3529311"><ele>1091.0</ele><time>2026-04-26T14:16:30.365Z</time></trkpt><trkpt lat="46.3899424" lon="10.3528098"><ele>1090.0</ele><time>2026-04-26T14:16:31.36Z</time></trkpt><trkpt lat="46.3900437" lon="10.3526985"><ele>1089.0</ele><time>2026-04-26T14:16:32.356Z</time></trkpt><trkpt lat="46.3901189" lon="10.3526086"><ele>1089.0</ele><time>2026-04-26T14:16:33.356Z</time></trkpt><trkpt lat="46.3901675" lon="10.3525466"><ele>1089.0</ele><time>2026-04-26T14:16:34.363Z</time></trkpt><trkpt lat="46.3902141" lon="10.3524808"><ele>1089.0</ele><time>2026-04-26T14:16:35.352Z</time></trkpt><trkpt lat="46.3902976" lon="10.3523797"><ele>1089.0</ele><time>2026-04-26T14:16:37.355Z</time></trkpt><trkpt lat="46.3903702" lon="10.3523849"><ele>1089.0</ele><time>2026-04-26T14:16:39.361Z</time></trkpt><trkpt lat="46.3904015" lon="10.3524776"><ele>1089.0</ele><time>2026-04-26T14:16:41.357Z</time></trkpt><trkpt lat="46.3903846" lon="10.3525777"><ele>1089.0</ele><time>2026-04-26T14:16:44.358Z</time></trkpt><trkpt lat="46.3903033" lon="10.3526689"><ele>1089.0</ele><time>2026-04-26T14:16:47.355Z</time></trkpt><trkpt lat="46.3902435" lon="10.3527174"><ele>1089.0</ele><time>2026-04-26T14:16:48.358Z</time></trkpt><trkpt lat="46.3899866" lon="10.3529386"><ele>1089.0</ele><time>2026-04-26T14:16:49.354Z</time></trkpt><trkpt lat="46.3899189" lon="10.353013"><ele>1089.0</ele><time>2026-04-26T14:16:50.355Z</time></trkpt><trkpt lat="46.3895126" lon="10.3533736"><ele>1090.3333333333333</ele><time>2026-04-26T14:16:51.356Z</time></trkpt><trkpt lat="46.3893567" lon="10.3535028"><ele>1091.6666666666665</ele><time>2026-04-26T14:16:52.356Z</time></trkpt><trkpt lat="46.3892029" lon="10.353619"><ele>1093.0</ele><time>2026-04-26T14:16:53.365Z</time></trkpt><trkpt lat="46.3890344" lon="10.3537376"><ele>1093.0</ele><time>2026-04-26T14:16:54.358Z</time></trkpt><trkpt lat="46.3888827" lon="10.3538495"><ele>1093.0</ele><time>2026-04-26T14:16:55.356Z</time></trkpt><trkpt lat="46.3887467" lon="10.3539485"><ele>1093.0</ele><time>2026-04-26T14:16:56.359Z</time></trkpt><trkpt lat="46.3886079" lon="10.3540504"><ele>1095.0</ele><time>2026-04-26T14:16:57.356Z</time></trkpt><trkpt lat="46.3884596" lon="10.3541595"><ele>1097.0</ele><time>2026-04-26T14:16:58.359Z</time></trkpt><trkpt lat="46.388306" lon="10.3542684"><ele>1099.0</ele><time>2026-04-26T14:16:59.358Z</time></trkpt><trkpt lat="46.3881467" lon="10.3543885"><ele>1101.3333333333333</ele><time>2026-04-26T14:17:00.354Z</time></trkpt><trkpt lat="46.3879866" lon="10.3545223"><ele>1103.6666666666667</ele><time>2026-04-26T14:17:01.362Z</time></trkpt><trkpt lat="46.3878269" lon="10.3546472"><ele>1106.0</ele><time>2026-04-26T14:17:02.361Z</time></trkpt><trkpt lat="46.3876773" lon="10.3547665"><ele>1106.0</ele><time>2026-04-26T14:17:03.356Z</time></trkpt><trkpt lat="46.3875028" lon="10.354893"><ele>1106.0</ele><time>2026-04-26T14:17:04.36Z</time></trkpt><trkpt lat="46.3873257" lon="10.355016"><ele>1106.0</ele><time>2026-04-26T14:17:05.36Z</time></trkpt><trkpt lat="46.3871625" lon="10.3551263"><ele>1107.3333333333335</ele><time>2026-04-26T14:17:06.36Z</time></trkpt><trkpt lat="46.3870065" lon="10.3552187"><ele>1108.6666666666667</ele><time>2026-04-26T14:17:07.356Z</time></trkpt><trkpt lat="46.3868317" lon="10.3553043"><ele>1110.0</ele><time>2026-04-26T14:17:08.358Z</time></trkpt><trkpt lat="46.386645" lon="10.3553962"><ele>1110.0</ele><time>2026-04-26T14:17:09.359Z</time></trkpt><trkpt lat="46.3864663" lon="10.3554799"><ele>1110.0</ele><time>2026-04-26T14:17:10.354Z</time></trkpt><trkpt lat="46.3862884" lon="10.3555567"><ele>1110.0</ele><time>2026-04-26T14:17:11.354Z</time></trkpt><trkpt lat="46.3860968" lon="10.3556081"><ele>1108.0</ele><time>2026-04-26T14:17:12.357Z</time></trkpt><trkpt lat="46.3858853" lon="10.3556466"><ele>1106.0</ele><time>2026-04-26T14:17:13.361Z</time></trkpt><trkpt lat="46.385657" lon="10.3556753"><ele>1104.0</ele><time>2026-04-26T14:17:14.353Z</time></trkpt><trkpt lat="46.3854223" lon="10.3557166"><ele>1104.0</ele><time>2026-04-26T14:17:15.359Z</time></trkpt><trkpt lat="46.3851836" lon="10.3557532"><ele>1104.0</ele><time>2026-04-26T14:17:16.358Z</time></trkpt><trkpt lat="46.3849315" lon="10.3557779"><ele>1103.5</ele><time>2026-04-26T14:17:17.355Z</time></trkpt><trkpt lat="46.3846586" lon="10.3557901"><ele>1103.0</ele><time>2026-04-26T14:17:18.354Z</time></trkpt><trkpt lat="46.3843909" lon="10.3558005"><ele>1103.0</ele><time>2026-04-26T14:17:19.358Z</time></trkpt><trkpt lat="46.3841428" lon="10.3558152"><ele>1103.0</ele><time>2026-04-26T14:17:20.354Z</time></trkpt><trkpt lat="46.3838932" lon="10.3558349"><ele>1103.5</ele><time>2026-04-26T14:17:21.355Z</time></trkpt><trkpt lat="46.3836478" lon="10.3558547"><ele>1104.0</ele><time>2026-04-26T14:17:22.356Z</time></trkpt><trkpt lat="46.3833903" lon="10.355879"><ele>1104.0</ele><time>2026-04-26T14:17:23.362Z</time></trkpt><trkpt lat="46.3831315" lon="10.355898"><ele>1104.0</ele><time>2026-04-26T14:17:24.354Z</time></trkpt><trkpt lat="46.382868" lon="10.3559098"><ele>1103.0</ele><time>2026-04-26T14:17:25.353Z</time></trkpt><trkpt lat="46.3825987" lon="10.3559172"><ele>1102.0</ele><time>2026-04-26T14:17:26.356Z</time></trkpt><trkpt lat="46.3823329" lon="10.3559309"><ele>1101.5</ele><time>2026-04-26T14:17:27.363Z</time></trkpt><trkpt lat="46.382085" lon="10.3559532"><ele>1101.0</ele><time>2026-04-26T14:17:28.356Z</time></trkpt><trkpt lat="46.3818629" lon="10.3559725"><ele>1101.0</ele><time>2026-04-26T14:17:29.358Z</time></trkpt><trkpt lat="46.3816636" lon="10.3559867"><ele>1101.0</ele><time>2026-04-26T14:17:30.362Z</time></trkpt><trkpt lat="46.3814561" lon="10.3560035"><ele>1101.0</ele><time>2026-04-26T14:17:31.357Z</time></trkpt><trkpt lat="46.3812491" lon="10.356023"><ele>1101.3333333333333</ele><time>2026-04-26T14:17:32.354Z</time></trkpt><trkpt lat="46.3810411" lon="10.3560596"><ele>1101.6666666666665</ele><time>2026-04-26T14:17:33.358Z</time></trkpt><trkpt lat="46.3808124" lon="10.3560757"><ele>1102.0</ele><time>2026-04-26T14:17:34.366Z</time></trkpt><trkpt lat="46.3805847" lon="10.356087"><ele>1102.6666666666665</ele><time>2026-04-26T14:17:35.357Z</time></trkpt><trkpt lat="46.3803744" lon="10.3561047"><ele>1103.3333333333333</ele><time>2026-04-26T14:17:36.358Z</time></trkpt><trkpt lat="46.3801819" lon="10.3561067"><ele>1104.0</ele><time>2026-04-26T14:17:37.368Z</time></trkpt><trkpt lat="46.3800145" lon="10.3561234"><ele>1104.0</ele><time>2026-04-26T14:17:38.36Z</time></trkpt><trkpt lat="46.3798511" lon="10.3561436"><ele>1104.0</ele><time>2026-04-26T14:17:39.361Z</time></trkpt><trkpt lat="46.3796979" lon="10.3561767"><ele>1104.0</ele><time>2026-04-26T14:17:40.358Z</time></trkpt><trkpt lat="46.3795452" lon="10.3562123"><ele>1103.3333333333333</ele><time>2026-04-26T14:17:41.354Z</time></trkpt><trkpt lat="46.3793781" lon="10.3562526"><ele>1102.6666666666665</ele><time>2026-04-26T14:17:42.36Z</time></trkpt><trkpt lat="46.3792149" lon="10.3563107"><ele>1102.0</ele><time>2026-04-26T14:17:43.362Z</time></trkpt><trkpt lat="46.3790426" lon="10.356387"><ele>1098.0</ele><time>2026-04-26T14:17:44.359Z</time></trkpt><trkpt lat="46.3788662" lon="10.3564613"><ele>1094.0</ele><time>2026-04-26T14:17:45.362Z</time></trkpt><trkpt lat="46.3786789" lon="10.356528"><ele>1090.0</ele><time>2026-04-26T14:17:46.355Z</time></trkpt><trkpt lat="46.3784809" lon="10.3565971"><ele>1088.3333333333333</ele><time>2026-04-26T14:17:47.357Z</time></trkpt><trkpt lat="46.3782969" lon="10.3566529"><ele>1086.6666666666667</ele><time>2026-04-26T14:17:48.359Z</time></trkpt><trkpt lat="46.3781149" lon="10.3567035"><ele>1085.0</ele><time>2026-04-26T14:17:49.356Z</time></trkpt><trkpt lat="46.3779605" lon="10.3567052"><ele>1085.0</ele><time>2026-04-26T14:17:50.356Z</time></trkpt><trkpt lat="46.3778074" lon="10.3567141"><ele>1085.0</ele><time>2026-04-26T14:17:51.363Z</time></trkpt><trkpt lat="46.3776864" lon="10.3567265"><ele>1085.0</ele><time>2026-04-26T14:17:52.359Z</time></trkpt><trkpt lat="46.3775714" lon="10.35676"><ele>1085.0</ele><time>2026-04-26T14:17:53.359Z</time></trkpt><trkpt lat="46.3774651" lon="10.3568475"><ele>1085.0</ele><time>2026-04-26T14:17:54.356Z</time></trkpt><trkpt lat="46.3773519" lon="10.3569561"><ele>1085.0</ele><time>2026-04-26T14:17:55.361Z</time></trkpt><trkpt lat="46.3772355" lon="10.3570473"><ele>1085.0</ele><time>2026-04-26T14:17:56.363Z</time></trkpt><trkpt lat="46.3771008" lon="10.3571031"><ele>1085.0</ele><time>2026-04-26T14:17:57.356Z</time></trkpt><trkpt lat="46.376985" lon="10.3571475"><ele>1080.75</ele><time>2026-04-26T14:17:58.354Z</time></trkpt><trkpt lat="46.3768404" lon="10.3572029"><ele>1076.5</ele><time>2026-04-26T14:17:59.356Z</time></trkpt><trkpt lat="46.376712" lon="10.3572577"><ele>1072.25</ele><time>2026-04-26T14:18:00.357Z</time></trkpt><trkpt lat="46.3765818" lon="10.3573187"><ele>1068.0</ele><time>2026-04-26T14:18:01.359Z</time></trkpt><trkpt lat="46.3764472" lon="10.3573665"><ele>1066.75</ele><time>2026-04-26T14:18:02.354Z</time></trkpt><trkpt lat="46.3763205" lon="10.3573951"><ele>1065.5</ele><time>2026-04-26T14:18:03.355Z</time></trkpt><trkpt lat="46.3761748" lon="10.357421"><ele>1064.25</ele><time>2026-04-26T14:18:04.364Z</time></trkpt><trkpt lat="46.3760332" lon="10.3574342"><ele>1063.0</ele><time>2026-04-26T14:18:05.354Z</time></trkpt><trkpt lat="46.3758897" lon="10.3574777"><ele>1063.0</ele><time>2026-04-26T14:18:06.356Z</time></trkpt><trkpt lat="46.3757414" lon="10.3574885"><ele>1063.0</ele><time>2026-04-26T14:18:07.357Z</time></trkpt><trkpt lat="46.3755776" lon="10.3574928"><ele>1063.0</ele><time>2026-04-26T14:18:08.36Z</time></trkpt><trkpt lat="46.3754281" lon="10.3574808"><ele>1060.75</ele><time>2026-04-26T14:18:09.359Z</time></trkpt><trkpt lat="46.3752964" lon="10.3574619"><ele>1058.5</ele><time>2026-04-26T14:18:10.356Z</time></trkpt><trkpt lat="46.3751787" lon="10.357426"><ele>1056.25</ele><time>2026-04-26T14:18:11.356Z</time></trkpt><trkpt lat="46.3750603" lon="10.3574477"><ele>1054.0</ele><time>2026-04-26T14:18:12.358Z</time></trkpt><trkpt lat="46.3749258" lon="10.3574108"><ele>1054.0</ele><time>2026-04-26T14:18:13.356Z</time></trkpt><trkpt lat="46.3747784" lon="10.3573482"><ele>1054.0</ele><time>2026-04-26T14:18:14.36Z</time></trkpt><trkpt lat="46.3746434" lon="10.3573158"><ele>1054.0</ele><time>2026-04-26T14:18:15.363Z</time></trkpt><trkpt lat="46.3745225" lon="10.3572804"><ele>1054.0</ele><time>2026-04-26T14:18:16.357Z</time></trkpt><trkpt lat="46.3744327" lon="10.3572154"><ele>1051.4</ele><time>2026-04-26T14:18:17.359Z</time></trkpt><trkpt lat="46.3743175" lon="10.3572287"><ele>1048.8000000000002</ele><time>2026-04-26T14:18:18.353Z</time></trkpt><trkpt lat="46.3742146" lon="10.3572559"><ele>1046.1999999999998</ele><time>2026-04-26T14:18:19.355Z</time></trkpt><trkpt lat="46.3741202" lon="10.3572569"><ele>1043.6</ele><time>2026-04-26T14:18:20.354Z</time></trkpt><trkpt lat="46.3740062" lon="10.3572415"><ele>1041.0</ele><time>2026-04-26T14:18:21.353Z</time></trkpt><trkpt lat="46.3738809" lon="10.3572382"><ele>1037.25</ele><time>2026-04-26T14:18:22.357Z</time></trkpt><trkpt lat="46.3737475" lon="10.357235"><ele>1033.5</ele><time>2026-04-26T14:18:23.36Z</time></trkpt><trkpt lat="46.3736371" lon="10.3571505"><ele>1029.75</ele><time>2026-04-26T14:18:24.355Z</time></trkpt><trkpt lat="46.373536" lon="10.3571697"><ele>1026.0</ele><time>2026-04-26T14:18:25.355Z</time></trkpt><trkpt lat="46.3734403" lon="10.3572079"><ele>1026.0</ele><time>2026-04-26T14:18:26.357Z</time></trkpt><trkpt lat="46.3733416" lon="10.3572416"><ele>1026.0</ele><time>2026-04-26T14:18:27.355Z</time></trkpt><trkpt lat="46.3732347" lon="10.3572487"><ele>1026.0</ele><time>2026-04-26T14:18:28.359Z</time></trkpt><trkpt lat="46.3731533" lon="10.3571935"><ele>1026.0</ele><time>2026-04-26T14:18:29.352Z</time></trkpt><trkpt lat="46.3730577" lon="10.3571655"><ele>1026.0</ele><time>2026-04-26T14:18:30.357Z</time></trkpt><trkpt lat="46.3729764" lon="10.3571514"><ele>1023.75</ele><time>2026-04-26T14:18:31.356Z</time></trkpt><trkpt lat="46.3728835" lon="10.3571985"><ele>1021.5</ele><time>2026-04-26T14:18:32.359Z</time></trkpt><trkpt lat="46.3727731" lon="10.3572782"><ele>1019.25</ele><time>2026-04-26T14:18:33.362Z</time></trkpt><trkpt lat="46.3726371" lon="10.3573084"><ele>1017.0</ele><time>2026-04-26T14:18:34.354Z</time></trkpt><trkpt lat="46.3725161" lon="10.3573246"><ele>1017.0</ele><time>2026-04-26T14:18:35.357Z</time></trkpt><trkpt lat="46.372401" lon="10.3573573"><ele>1017.0</ele><time>2026-04-26T14:18:36.356Z</time></trkpt><trkpt lat="46.3722983" lon="10.357365"><ele>1017.0</ele><time>2026-04-26T14:18:37.359Z</time></trkpt><trkpt lat="46.3721947" lon="10.3573719"><ele>1017.0</ele><time>2026-04-26T14:18:38.361Z</time></trkpt><trkpt lat="46.3721199" lon="10.3573483"><ele>1017.0</ele><time>2026-04-26T14:18:39.354Z</time></trkpt><trkpt lat="46.3720409" lon="10.3573256"><ele>1016.2</ele><time>2026-04-26T14:18:40.359Z</time></trkpt><trkpt lat="46.3719399" lon="10.3573026"><ele>1015.4000000000001</ele><time>2026-04-26T14:18:41.362Z</time></trkpt><trkpt lat="46.3718357" lon="10.3572495"><ele>1014.5999999999999</ele><time>2026-04-26T14:18:42.361Z</time></trkpt><trkpt lat="46.3717507" lon="10.3571907"><ele>1013.8</ele><time>2026-04-26T14:18:43.367Z</time></trkpt><trkpt lat="46.371666" lon="10.3571592"><ele>1013.0</ele><time>2026-04-26T14:18:44.353Z</time></trkpt><trkpt lat="46.3715891" lon="10.3571619"><ele>1013.0</ele><time>2026-04-26T14:18:45.355Z</time></trkpt><trkpt lat="46.3714955" lon="10.3572656"><ele>1013.0</ele><time>2026-04-26T14:18:47.353Z</time></trkpt><trkpt lat="46.371434" lon="10.3573092"><ele>1013.0</ele><time>2026-04-26T14:18:48.358Z</time></trkpt><trkpt lat="46.3713436" lon="10.357316"><ele>1013.0</ele><time>2026-04-26T14:18:49.357Z</time></trkpt><trkpt lat="46.3712367" lon="10.3573106"><ele>1013.0</ele><time>2026-04-26T14:18:50.354Z</time></trkpt><trkpt lat="46.3711142" lon="10.3572991"><ele>1010.75</ele><time>2026-04-26T14:18:51.361Z</time></trkpt><trkpt lat="46.3709828" lon="10.3572668"><ele>1008.5</ele><time>2026-04-26T14:18:52.357Z</time></trkpt><trkpt lat="46.3708512" lon="10.3571979"><ele>1006.25</ele><time>2026-04-26T14:18:53.361Z</time></trkpt><trkpt lat="46.3707245" lon="10.3570952"><ele>1004.0</ele><time>2026-04-26T14:18:54.358Z</time></trkpt><trkpt lat="46.370596" lon="10.3569667"><ele>1004.0</ele><time>2026-04-26T14:18:55.357Z</time></trkpt><trkpt lat="46.3704774" lon="10.3568168"><ele>1004.0</ele><time>2026-04-26T14:18:56.359Z</time></trkpt><trkpt lat="46.3703543" lon="10.3566896"><ele>1004.0</ele><time>2026-04-26T14:18:57.354Z</time></trkpt><trkpt lat="46.3702213" lon="10.3566003"><ele>1004.0</ele><time>2026-04-26T14:18:58.356Z</time></trkpt><trkpt lat="46.370068" lon="10.3565606"><ele>1004.0</ele><time>2026-04-26T14:18:59.357Z</time></trkpt><trkpt lat="46.3698941" lon="10.3565507"><ele>1004.0</ele><time>2026-04-26T14:19:00.36Z</time></trkpt><trkpt lat="46.3697006" lon="10.3565611"><ele>1002.3333333333334</ele><time>2026-04-26T14:19:01.357Z</time></trkpt><trkpt lat="46.3694972" lon="10.3565727"><ele>1000.6666666666667</ele><time>2026-04-26T14:19:02.36Z</time></trkpt><trkpt lat="46.3692834" lon="10.3565828"><ele>999.0</ele><time>2026-04-26T14:19:03.356Z</time></trkpt><trkpt lat="46.3690628" lon="10.3565807"><ele>996.0</ele><time>2026-04-26T14:19:04.355Z</time></trkpt><trkpt lat="46.3688434" lon="10.3565703"><ele>993.0</ele><time>2026-04-26T14:19:05.362Z</time></trkpt><trkpt lat="46.3686291" lon="10.3565502"><ele>990.0</ele><time>2026-04-26T14:19:06.36Z</time></trkpt><trkpt lat="46.3684202" lon="10.3565282"><ele>990.0</ele><time>2026-04-26T14:19:07.359Z</time></trkpt><trkpt lat="46.3682186" lon="10.3565084"><ele>990.0</ele><time>2026-04-26T14:19:08.354Z</time></trkpt><trkpt lat="46.3680172" lon="10.3564881"><ele>990.0</ele><time>2026-04-26T14:19:09.352Z</time></trkpt><trkpt lat="46.3678088" lon="10.356464"><ele>990.6666666666667</ele><time>2026-04-26T14:19:10.358Z</time></trkpt><trkpt lat="46.3676005" lon="10.3564415"><ele>991.3333333333334</ele><time>2026-04-26T14:19:11.356Z</time></trkpt><trkpt lat="46.3674002" lon="10.3563977"><ele>992.0</ele><time>2026-04-26T14:19:12.358Z</time></trkpt><trkpt lat="46.3672123" lon="10.356279"><ele>987.3333333333334</ele><time>2026-04-26T14:19:13.363Z</time></trkpt><trkpt lat="46.367029" lon="10.3561212"><ele>982.6666666666667</ele><time>2026-04-26T14:19:14.357Z</time></trkpt><trkpt lat="46.3668392" lon="10.3559444"><ele>978.0</ele><time>2026-04-26T14:19:15.36Z</time></trkpt><trkpt lat="46.366641" lon="10.355772"><ele>978.0</ele><time>2026-04-26T14:19:16.357Z</time></trkpt><trkpt lat="46.3664345" lon="10.3556199"><ele>978.0</ele><time>2026-04-26T14:19:17.352Z</time></trkpt><trkpt lat="46.3662164" lon="10.3554822"><ele>976.5</ele><time>2026-04-26T14:19:18.362Z</time></trkpt><trkpt lat="46.3659975" lon="10.3553541"><ele>975.0</ele><time>2026-04-26T14:19:19.355Z</time></trkpt><trkpt lat="46.365777" lon="10.3552273"><ele>975.0</ele><time>2026-04-26T14:19:20.358Z</time></trkpt><trkpt lat="46.3655571" lon="10.3551116"><ele>975.0</ele><time>2026-04-26T14:19:21.355Z</time></trkpt><trkpt lat="46.3653394" lon="10.3550034"><ele>974.3333333333333</ele><time>2026-04-26T14:19:22.357Z</time></trkpt><trkpt lat="46.3651223" lon="10.3549121"><ele>973.6666666666666</ele><time>2026-04-26T14:19:23.352Z</time></trkpt><trkpt lat="46.3649137" lon="10.3548251"><ele>973.0</ele><time>2026-04-26T14:19:24.354Z</time></trkpt><trkpt lat="46.3647123" lon="10.3547488"><ele>975.6666666666666</ele><time>2026-04-26T14:19:25.352Z</time></trkpt><trkpt lat="46.3645181" lon="10.3546834"><ele>978.3333333333333</ele><time>2026-04-26T14:19:26.352Z</time></trkpt><trkpt lat="46.3643246" lon="10.3546373"><ele>981.0</ele><time>2026-04-26T14:19:27.36Z</time></trkpt><trkpt lat="46.3641322" lon="10.3546117"><ele>981.0</ele><time>2026-04-26T14:19:28.359Z</time></trkpt><trkpt lat="46.3639394" lon="10.3545998"><ele>981.0</ele><time>2026-04-26T14:19:29.356Z</time></trkpt><trkpt lat="46.3637504" lon="10.3546055"><ele>981.0</ele><time>2026-04-26T14:19:30.354Z</time></trkpt><trkpt lat="46.3635708" lon="10.354616"><ele>978.0</ele><time>2026-04-26T14:19:31.354Z</time></trkpt><trkpt lat="46.363402" lon="10.3546251"><ele>975.0</ele><time>2026-04-26T14:19:32.352Z</time></trkpt><trkpt lat="46.3632328" lon="10.3546317"><ele>972.0</ele><time>2026-04-26T14:19:33.355Z</time></trkpt><trkpt lat="46.363053" lon="10.3546344"><ele>971.6666666666667</ele><time>2026-04-26T14:19:34.358Z</time></trkpt><trkpt lat="46.3628741" lon="10.3546364"><ele>971.3333333333334</ele><time>2026-04-26T14:19:35.354Z</time></trkpt><trkpt lat="46.3626946" lon="10.3546403"><ele>971.0</ele><time>2026-04-26T14:19:36.355Z</time></trkpt><trkpt lat="46.3625063" lon="10.3546461"><ele>971.0</ele><time>2026-04-26T14:19:37.36Z</time></trkpt><trkpt lat="46.3623204" lon="10.3546575"><ele>971.0</ele><time>2026-04-26T14:19:38.354Z</time></trkpt><trkpt lat="46.3621351" lon="10.3546644"><ele>971.0</ele><time>2026-04-26T14:19:39.354Z</time></trkpt><trkpt lat="46.3619536" lon="10.3546718"><ele>971.3333333333334</ele><time>2026-04-26T14:19:40.366Z</time></trkpt><trkpt lat="46.3617711" lon="10.3546819"><ele>971.6666666666667</ele><time>2026-04-26T14:19:41.354Z</time></trkpt><trkpt lat="46.36159" lon="10.3546905"><ele>972.0</ele><time>2026-04-26T14:19:42.355Z</time></trkpt><trkpt lat="46.3614025" lon="10.3547052"><ele>970.0</ele><time>2026-04-26T14:19:43.356Z</time></trkpt><trkpt lat="46.3612128" lon="10.354722"><ele>968.0</ele><time>2026-04-26T14:19:44.354Z</time></trkpt><trkpt lat="46.3610238" lon="10.354743"><ele>966.0</ele><time>2026-04-26T14:19:45.356Z</time></trkpt><trkpt lat="46.3608371" lon="10.3547594"><ele>966.0</ele><time>2026-04-26T14:19:46.366Z</time></trkpt><trkpt lat="46.3606486" lon="10.3547775"><ele>966.0</ele><time>2026-04-26T14:19:47.359Z</time></trkpt><trkpt lat="46.3604614" lon="10.3548132"><ele>966.0</ele><time>2026-04-26T14:19:48.355Z</time></trkpt><trkpt lat="46.3602809" lon="10.3548845"><ele>967.6666666666667</ele><time>2026-04-26T14:19:49.357Z</time></trkpt><trkpt lat="46.3601095" lon="10.354997"><ele>969.3333333333334</ele><time>2026-04-26T14:19:50.355Z</time></trkpt><trkpt lat="46.359948" lon="10.355133"><ele>971.0</ele><time>2026-04-26T14:19:51.356Z</time></trkpt><trkpt lat="46.3597971" lon="10.3552736"><ele>972.3333333333334</ele><time>2026-04-26T14:19:52.355Z</time></trkpt><trkpt lat="46.359646" lon="10.3553866"><ele>973.6666666666667</ele><time>2026-04-26T14:19:53.353Z</time></trkpt><trkpt lat="46.359493" lon="10.3554749"><ele>975.0</ele><time>2026-04-26T14:19:54.356Z</time></trkpt><trkpt lat="46.3593362" lon="10.3555182"><ele>975.0</ele><time>2026-04-26T14:19:55.359Z</time></trkpt><trkpt lat="46.359189" lon="10.3555285"><ele>975.0</ele><time>2026-04-26T14:19:56.353Z</time></trkpt><trkpt lat="46.3590424" lon="10.3554919"><ele>975.0</ele><time>2026-04-26T14:19:57.359Z</time></trkpt><trkpt lat="46.358915" lon="10.3554176"><ele>975.0</ele><time>2026-04-26T14:19:58.359Z</time></trkpt><trkpt lat="46.3588032" lon="10.3553115"><ele>975.75</ele><time>2026-04-26T14:19:59.358Z</time></trkpt><trkpt lat="46.3587135" lon="10.3551704"><ele>976.5</ele><time>2026-04-26T14:20:00.357Z</time></trkpt><trkpt lat="46.358627" lon="10.3550064"><ele>977.25</ele><time>2026-04-26T14:20:01.358Z</time></trkpt><trkpt lat="46.3585386" lon="10.3547995"><ele>978.0</ele><time>2026-04-26T14:20:02.354Z</time></trkpt><trkpt lat="46.3584371" lon="10.3546132"><ele>978.0</ele><time>2026-04-26T14:20:03.355Z</time></trkpt><trkpt lat="46.3583149" lon="10.3544448"><ele>978.0</ele><time>2026-04-26T14:20:04.356Z</time></trkpt><trkpt lat="46.3581871" lon="10.3543044"><ele>978.0</ele><time>2026-04-26T14:20:05.358Z</time></trkpt><trkpt lat="46.3580364" lon="10.3542032"><ele>975.0</ele><time>2026-04-26T14:20:06.358Z</time></trkpt><trkpt lat="46.3578811" lon="10.3541414"><ele>972.0</ele><time>2026-04-26T14:20:07.36Z</time></trkpt><trkpt lat="46.3577147" lon="10.3541179"><ele>969.0</ele><time>2026-04-26T14:20:08.353Z</time></trkpt><trkpt lat="46.357544" lon="10.3541218"><ele>969.0</ele><time>2026-04-26T14:20:09.359Z</time></trkpt><trkpt lat="46.3573683" lon="10.3541214"><ele>969.0</ele><time>2026-04-26T14:20:10.355Z</time></trkpt><trkpt lat="46.3571964" lon="10.3541116"><ele>969.0</ele><time>2026-04-26T14:20:11.357Z</time></trkpt><trkpt lat="46.3570353" lon="10.3540977"><ele>968.5</ele><time>2026-04-26T14:20:12.356Z</time></trkpt><trkpt lat="46.356877" lon="10.3540929"><ele>968.0</ele><time>2026-04-26T14:20:13.359Z</time></trkpt><trkpt lat="46.35673" lon="10.354078"><ele>967.5</ele><time>2026-04-26T14:20:14.357Z</time></trkpt><trkpt lat="46.3565881" lon="10.3541088"><ele>967.0</ele><time>2026-04-26T14:20:15.359Z</time></trkpt><trkpt lat="46.3564431" lon="10.3541679"><ele>972.0</ele><time>2026-04-26T14:20:16.36Z</time></trkpt><trkpt lat="46.3563078" lon="10.3542735"><ele>977.0</ele><time>2026-04-26T14:20:17.361Z</time></trkpt><trkpt lat="46.3561928" lon="10.3544245"><ele>982.0</ele><time>2026-04-26T14:20:18.36Z</time></trkpt><trkpt lat="46.3561011" lon="10.3546194"><ele>976.6666666666666</ele><time>2026-04-26T14:20:19.355Z</time></trkpt><trkpt lat="46.3560195" lon="10.3548259"><ele>971.3333333333333</ele><time>2026-04-26T14:20:20.36Z</time></trkpt><trkpt lat="46.3559404" lon="10.3550321"><ele>966.0</ele><time>2026-04-26T14:20:21.357Z</time></trkpt><trkpt lat="46.3558551" lon="10.3552324"><ele>966.0</ele><time>2026-04-26T14:20:22.355Z</time></trkpt><trkpt lat="46.3557626" lon="10.3554229"><ele>966.0</ele><time>2026-04-26T14:20:23.363Z</time></trkpt><trkpt lat="46.3556602" lon="10.3555918"><ele>966.0</ele><time>2026-04-26T14:20:24.358Z</time></trkpt><trkpt lat="46.3555589" lon="10.3557442"><ele>966.0</ele><time>2026-04-26T14:20:25.358Z</time></trkpt><trkpt lat="46.3554453" lon="10.3558793"><ele>966.0</ele><time>2026-04-26T14:20:26.356Z</time></trkpt><trkpt lat="46.3553031" lon="10.3559856"><ele>966.0</ele><time>2026-04-26T14:20:27.357Z</time></trkpt><trkpt lat="46.355167" lon="10.3560865"><ele>966.0</ele><time>2026-04-26T14:20:28.358Z</time></trkpt><trkpt lat="46.3550278" lon="10.3561814"><ele>966.0</ele><time>2026-04-26T14:20:29.357Z</time></trkpt><trkpt lat="46.3548824" lon="10.3562659"><ele>966.0</ele><time>2026-04-26T14:20:30.357Z</time></trkpt><trkpt lat="46.3547333" lon="10.3563495"><ele>962.0</ele><time>2026-04-26T14:20:31.354Z</time></trkpt><trkpt lat="46.3545817" lon="10.3564319"><ele>958.0</ele><time>2026-04-26T14:20:32.361Z</time></trkpt><trkpt lat="46.3544277" lon="10.3565149"><ele>954.0</ele><time>2026-04-26T14:20:33.356Z</time></trkpt><trkpt lat="46.3542784" lon="10.3565737"><ele>954.0</ele><time>2026-04-26T14:20:34.361Z</time></trkpt><trkpt lat="46.3541291" lon="10.3566085"><ele>954.0</ele><time>2026-04-26T14:20:35.356Z</time></trkpt><trkpt lat="46.3539862" lon="10.3566255"><ele>954.0</ele><time>2026-04-26T14:20:36.358Z</time></trkpt><trkpt lat="46.3538428" lon="10.3566094"><ele>954.0</ele><time>2026-04-26T14:20:37.36Z</time></trkpt><trkpt lat="46.3537044" lon="10.3565631"><ele>953.5</ele><time>2026-04-26T14:20:38.356Z</time></trkpt><trkpt lat="46.353572" lon="10.356492"><ele>953.0</ele><time>2026-04-26T14:20:39.362Z</time></trkpt><trkpt lat="46.3534452" lon="10.3563995"><ele>952.5</ele><time>2026-04-26T14:20:40.359Z</time></trkpt><trkpt lat="46.3533147" lon="10.3563093"><ele>952.0</ele><time>2026-04-26T14:20:41.364Z</time></trkpt><trkpt lat="46.3531889" lon="10.3562171"><ele>953.0</ele><time>2026-04-26T14:20:42.351Z</time></trkpt><trkpt lat="46.3530754" lon="10.356099"><ele>954.0</ele><time>2026-04-26T14:20:43.358Z</time></trkpt><trkpt lat="46.3529436" lon="10.3560064"><ele>955.0</ele><time>2026-04-26T14:20:44.364Z</time></trkpt><trkpt lat="46.3528115" lon="10.355911"><ele>956.0</ele><time>2026-04-26T14:20:45.355Z</time></trkpt><trkpt lat="46.3526804" lon="10.355819"><ele>956.0</ele><time>2026-04-26T14:20:46.36Z</time></trkpt><trkpt lat="46.3525575" lon="10.3557299"><ele>956.0</ele><time>2026-04-26T14:20:47.366Z</time></trkpt><trkpt lat="46.3524343" lon="10.3556429"><ele>956.0</ele><time>2026-04-26T14:20:48.352Z</time></trkpt><trkpt lat="46.3523125" lon="10.3555558"><ele>956.0</ele><time>2026-04-26T14:20:49.355Z</time></trkpt><trkpt lat="46.3521959" lon="10.3554768"><ele>957.75</ele><time>2026-04-26T14:20:50.357Z</time></trkpt><trkpt lat="46.3520753" lon="10.3554182"><ele>959.5</ele><time>2026-04-26T14:20:51.355Z</time></trkpt><trkpt lat="46.3519536" lon="10.3553794"><ele>961.25</ele><time>2026-04-26T14:20:52.362Z</time></trkpt><trkpt lat="46.3518256" lon="10.3553504"><ele>963.0</ele><time>2026-04-26T14:20:53.354Z</time></trkpt><trkpt lat="46.3516957" lon="10.3553169"><ele>963.0</ele><time>2026-04-26T14:20:54.357Z</time></trkpt><trkpt lat="46.3515884" lon="10.3552577"><ele>963.0</ele><time>2026-04-26T14:20:55.361Z</time></trkpt><trkpt lat="46.3514798" lon="10.3551799"><ele>963.0</ele><time>2026-04-26T14:20:56.355Z</time></trkpt><trkpt lat="46.3513877" lon="10.3551011"><ele>963.0</ele><time>2026-04-26T14:20:57.363Z</time></trkpt><trkpt lat="46.3512989" lon="10.355022"><ele>963.0</ele><time>2026-04-26T14:20:58.359Z</time></trkpt><trkpt lat="46.3511997" lon="10.3549359"><ele>961.5</ele><time>2026-04-26T14:20:59.354Z</time></trkpt><trkpt lat="46.3510987" lon="10.3548426"><ele>960.0</ele><time>2026-04-26T14:21:00.365Z</time></trkpt><trkpt lat="46.3509976" lon="10.3547359"><ele>958.5</ele><time>2026-04-26T14:21:01.352Z</time></trkpt><trkpt lat="46.3508934" lon="10.3546254"><ele>957.0</ele><time>2026-04-26T14:21:02.355Z</time></trkpt><trkpt lat="46.3507969" lon="10.354509"><ele>957.0</ele><time>2026-04-26T14:21:03.356Z</time></trkpt><trkpt lat="46.3507018" lon="10.3544121"><ele>957.0</ele><time>2026-04-26T14:21:04.356Z</time></trkpt><trkpt lat="46.3506108" lon="10.3543207"><ele>957.0</ele><time>2026-04-26T14:21:05.362Z</time></trkpt><trkpt lat="46.3505227" lon="10.3542498"><ele>957.0</ele><time>2026-04-26T14:21:06.353Z</time></trkpt><trkpt lat="46.3504375" lon="10.3541994"><ele>957.0</ele><time>2026-04-26T14:21:07.354Z</time></trkpt><trkpt lat="46.3503546" lon="10.3541851"><ele>955.8333333333334</ele><time>2026-04-26T14:21:08.358Z</time></trkpt><trkpt lat="46.3502833" lon="10.3542195"><ele>954.6666666666667</ele><time>2026-04-26T14:21:09.358Z</time></trkpt><trkpt lat="46.3502353" lon="10.3542886"><ele>953.5</ele><time>2026-04-26T14:21:10.352Z</time></trkpt><trkpt lat="46.3501922" lon="10.3543809"><ele>952.3333333333334</ele><time>2026-04-26T14:21:11.356Z</time></trkpt><trkpt lat="46.3501465" lon="10.3544784"><ele>951.1666666666667</ele><time>2026-04-26T14:21:12.358Z</time></trkpt><trkpt lat="46.3500984" lon="10.354582"><ele>950.0</ele><time>2026-04-26T14:21:13.357Z</time></trkpt><trkpt lat="46.3500482" lon="10.3546875"><ele>950.1666666666667</ele><time>2026-04-26T14:21:14.355Z</time></trkpt><trkpt lat="46.3499937" lon="10.354784"><ele>950.3333333333334</ele><time>2026-04-26T14:21:15.353Z</time></trkpt><trkpt lat="46.34992" lon="10.354852"><ele>950.5</ele><time>2026-04-26T14:21:16.355Z</time></trkpt><trkpt lat="46.3498385" lon="10.3548613"><ele>950.6666666666667</ele><time>2026-04-26T14:21:17.353Z</time></trkpt><trkpt lat="46.3497548" lon="10.3548301"><ele>950.8333333333334</ele><time>2026-04-26T14:21:18.356Z</time></trkpt><trkpt lat="46.3496729" lon="10.3547972"><ele>951.0</ele><time>2026-04-26T14:21:19.354Z</time></trkpt><trkpt lat="46.3495946" lon="10.3547921"><ele>951.4285714285713</ele><time>2026-04-26T14:21:20.357Z</time></trkpt><trkpt lat="46.3495302" lon="10.354836"><ele>951.8571428571429</ele><time>2026-04-26T14:21:21.352Z</time></trkpt><trkpt lat="46.3494881" lon="10.3549053"><ele>952.2857142857142</ele><time>2026-04-26T14:21:22.354Z</time></trkpt><trkpt lat="46.349442" lon="10.3549722"><ele>952.7142857142857</ele><time>2026-04-26T14:21:23.357Z</time></trkpt><trkpt lat="46.3493866" lon="10.3550184"><ele>953.1428571428571</ele><time>2026-04-26T14:21:24.356Z</time></trkpt><trkpt lat="46.3493101" lon="10.3550073"><ele>953.5714285714286</ele><time>2026-04-26T14:21:25.356Z</time></trkpt><trkpt lat="46.3492515" lon="10.3549457"><ele>954.0</ele><time>2026-04-26T14:21:26.355Z</time></trkpt><trkpt lat="46.3492142" lon="10.3548499"><ele>954.0</ele><time>2026-04-26T14:21:27.357Z</time></trkpt><trkpt lat="46.3491997" lon="10.3547306"><ele>954.0</ele><time>2026-04-26T14:21:28.354Z</time></trkpt><trkpt lat="46.3491919" lon="10.3546096"><ele>954.0</ele><time>2026-04-26T14:21:29.354Z</time></trkpt><trkpt lat="46.3491834" lon="10.3545075"><ele>954.0</ele><time>2026-04-26T14:21:30.358Z</time></trkpt><trkpt lat="46.349145" lon="10.354394"><ele>954.0</ele><time>2026-04-26T14:21:32.359Z</time></trkpt><trkpt lat="46.3490794" lon="10.3543581"><ele>954.0</ele><time>2026-04-26T14:21:34.354Z</time></trkpt><trkpt lat="46.3490343" lon="10.3544791"><ele>954.0</ele><time>2026-04-26T14:21:36.357Z</time></trkpt><trkpt lat="46.3490395" lon="10.3545967"><ele>954.0000000000001</ele><time>2026-04-26T14:21:37.365Z</time></trkpt><trkpt lat="46.349057" lon="10.354742"><ele>954.0000000000001</ele><time>2026-04-26T14:21:38.364Z</time></trkpt><trkpt lat="46.3490548" lon="10.3548691"><ele>954.0</ele><time>2026-04-26T14:21:39.358Z</time></trkpt><trkpt lat="46.3490352" lon="10.3549889"><ele>954.0</ele><time>2026-04-26T14:21:40.356Z</time></trkpt><trkpt lat="46.3489971" lon="10.3551249"><ele>954.0</ele><time>2026-04-26T14:21:41.358Z</time></trkpt><trkpt lat="46.3489373" lon="10.3552654"><ele>954.0000000000001</ele><time>2026-04-26T14:21:42.357Z</time></trkpt><trkpt lat="46.3488612" lon="10.3553814"><ele>954.0000000000001</ele><time>2026-04-26T14:21:43.358Z</time></trkpt><trkpt lat="46.3487709" lon="10.355451"><ele>954.0</ele><time>2026-04-26T14:21:44.358Z</time></trkpt><trkpt lat="46.3486872" lon="10.3555069"><ele>954.0</ele><time>2026-04-26T14:21:45.354Z</time></trkpt><trkpt lat="46.3486144" lon="10.3555416"><ele>954.8000000000001</ele><time>2026-04-26T14:21:46.356Z</time></trkpt><trkpt lat="46.348532" lon="10.3555482"><ele>955.6000000000001</ele><time>2026-04-26T14:21:47.359Z</time></trkpt><trkpt lat="46.348448" lon="10.3555283"><ele>956.4</ele><time>2026-04-26T14:21:48.355Z</time></trkpt><trkpt lat="46.3483731" lon="10.3555174"><ele>957.2</ele><time>2026-04-26T14:21:49.355Z</time></trkpt><trkpt lat="46.3482693" lon="10.3556208"><ele>958.0</ele><time>2026-04-26T14:21:51.358Z</time></trkpt><trkpt lat="46.3482193" lon="10.3557419"><ele>959.75</ele><time>2026-04-26T14:21:52.357Z</time></trkpt><trkpt lat="46.3481573" lon="10.3558891"><ele>961.5</ele><time>2026-04-26T14:21:53.361Z</time></trkpt><trkpt lat="46.3480705" lon="10.3560622"><ele>963.25</ele><time>2026-04-26T14:21:54.358Z</time></trkpt><trkpt lat="46.3479659" lon="10.356263"><ele>965.0</ele><time>2026-04-26T14:21:55.362Z</time></trkpt><trkpt lat="46.3478594" lon="10.3564705"><ele>968.6666666666667</ele><time>2026-04-26T14:21:56.357Z</time></trkpt><trkpt lat="46.3477597" lon="10.3566731"><ele>972.3333333333333</ele><time>2026-04-26T14:21:57.353Z</time></trkpt><trkpt lat="46.3476552" lon="10.3568523"><ele>976.0</ele><time>2026-04-26T14:21:58.357Z</time></trkpt><trkpt lat="46.3475387" lon="10.3570133"><ele>976.0</ele><time>2026-04-26T14:21:59.36Z</time></trkpt><trkpt lat="46.3474125" lon="10.3571799"><ele>976.0</ele><time>2026-04-26T14:22:00.358Z</time></trkpt><trkpt lat="46.3472871" lon="10.3573593"><ele>976.0</ele><time>2026-04-26T14:22:01.352Z</time></trkpt><trkpt lat="46.3471764" lon="10.3575214"><ele>978.0</ele><time>2026-04-26T14:22:02.358Z</time></trkpt><trkpt lat="46.3470932" lon="10.3576494"><ele>979.9999999999999</ele><time>2026-04-26T14:22:03.351Z</time></trkpt><trkpt lat="46.3470323" lon="10.3577541"><ele>981.9999999999999</ele><time>2026-04-26T14:22:04.356Z</time></trkpt><trkpt lat="46.3469869" lon="10.357839"><ele>984.0</ele><time>2026-04-26T14:22:05.357Z</time></trkpt><trkpt lat="46.346917" lon="10.3579845"><ele>986.0</ele><time>2026-04-26T14:22:07.354Z</time></trkpt><trkpt lat="46.3468508" lon="10.3581302"><ele>987.5</ele><time>2026-04-26T14:22:09.361Z</time></trkpt><trkpt lat="46.3467873" lon="10.3582785"><ele>989.0</ele><time>2026-04-26T14:22:11.361Z</time></trkpt><trkpt lat="46.3467187" lon="10.3584054"><ele>990.5</ele><time>2026-04-26T14:22:13.363Z</time></trkpt><trkpt lat="46.346649" lon="10.3585491"><ele>992.0</ele><time>2026-04-26T14:22:15.358Z</time></trkpt><trkpt lat="46.3465917" lon="10.3587126"><ele>992.0000000000001</ele><time>2026-04-26T14:22:17.351Z</time></trkpt><trkpt lat="46.3465509" lon="10.3587972"><ele>992.0</ele><time>2026-04-26T14:22:18.357Z</time></trkpt><trkpt lat="46.3465089" lon="10.3588748"><ele>992.0</ele><time>2026-04-26T14:22:19.357Z</time></trkpt><trkpt lat="46.3464671" lon="10.3589571"><ele>992.0</ele><time>2026-04-26T14:22:20.357Z</time></trkpt><trkpt lat="46.3464328" lon="10.3590513"><ele>992.0000000000001</ele><time>2026-04-26T14:22:21.358Z</time></trkpt><trkpt lat="46.3463948" lon="10.3591523"><ele>992.0</ele><time>2026-04-26T14:22:22.358Z</time></trkpt><trkpt lat="46.3463486" lon="10.359259"><ele>994.2</ele><time>2026-04-26T14:22:23.35Z</time></trkpt><trkpt lat="46.3462956" lon="10.3593712"><ele>996.4000000000001</ele><time>2026-04-26T14:22:24.358Z</time></trkpt><trkpt lat="46.3462421" lon="10.3594842"><ele>998.5999999999999</ele><time>2026-04-26T14:22:25.356Z</time></trkpt><trkpt lat="46.3461895" lon="10.359601"><ele>1000.8</ele><time>2026-04-26T14:22:26.367Z</time></trkpt><trkpt lat="46.3461402" lon="10.3597135"><ele>1003.0</ele><time>2026-04-26T14:22:27.354Z</time></trkpt><trkpt lat="46.3460889" lon="10.3598345"><ele>1004.4</ele><time>2026-04-26T14:22:28.355Z</time></trkpt><trkpt lat="46.346033" lon="10.3599495"><ele>1005.8</ele><time>2026-04-26T14:22:29.361Z</time></trkpt><trkpt lat="46.3459744" lon="10.3600645"><ele>1007.2</ele><time>2026-04-26T14:22:30.353Z</time></trkpt><trkpt lat="46.3459185" lon="10.360196"><ele>1008.6</ele><time>2026-04-26T14:22:31.356Z</time></trkpt><trkpt lat="46.3458668" lon="10.3603296"><ele>1010.0</ele><time>2026-04-26T14:22:32.361Z</time></trkpt><trkpt lat="46.3458192" lon="10.3604525"><ele>1011.2</ele><time>2026-04-26T14:22:33.354Z</time></trkpt><trkpt lat="46.3457712" lon="10.3605776"><ele>1012.4</ele><time>2026-04-26T14:22:34.361Z</time></trkpt><trkpt lat="46.345723" lon="10.360709"><ele>1013.5999999999999</ele><time>2026-04-26T14:22:35.356Z</time></trkpt><trkpt lat="46.3456801" lon="10.3608516"><ele>1014.8</ele><time>2026-04-26T14:22:36.352Z</time></trkpt><trkpt lat="46.3456446" lon="10.3610031"><ele>1016.0</ele><time>2026-04-26T14:22:37.355Z</time></trkpt><trkpt lat="46.3456158" lon="10.361158"><ele>1016.0</ele><time>2026-04-26T14:22:38.354Z</time></trkpt><trkpt lat="46.345593" lon="10.3613048"><ele>1015.9999999999999</ele><time>2026-04-26T14:22:39.353Z</time></trkpt><trkpt lat="46.3455772" lon="10.3614374"><ele>1015.9999999999999</ele><time>2026-04-26T14:22:40.354Z</time></trkpt><trkpt lat="46.3455687" lon="10.3615665"><ele>1016.0</ele><time>2026-04-26T14:22:41.355Z</time></trkpt><trkpt lat="46.3455652" lon="10.3617"><ele>1016.0</ele><time>2026-04-26T14:22:42.355Z</time></trkpt><trkpt lat="46.3455681" lon="10.3618449"><ele>1018.8</ele><time>2026-04-26T14:22:43.356Z</time></trkpt><trkpt lat="46.3455754" lon="10.3619968"><ele>1021.5999999999999</ele><time>2026-04-26T14:22:44.357Z</time></trkpt><trkpt lat="46.3455844" lon="10.3621508"><ele>1024.4</ele><time>2026-04-26T14:22:45.352Z</time></trkpt><trkpt lat="46.3455994" lon="10.3622878"><ele>1027.2</ele><time>2026-04-26T14:22:46.358Z</time></trkpt><trkpt lat="46.345622" lon="10.3624097"><ele>1030.0</ele><time>2026-04-26T14:22:47.356Z</time></trkpt><trkpt lat="46.3456488" lon="10.3625325"><ele>1033.0</ele><time>2026-04-26T14:22:48.353Z</time></trkpt><trkpt lat="46.3456783" lon="10.3626416"><ele>1036.0</ele><time>2026-04-26T14:22:49.357Z</time></trkpt><trkpt lat="46.3457041" lon="10.3627276"><ele>1039.0</ele><time>2026-04-26T14:22:50.354Z</time></trkpt><trkpt lat="46.345738" lon="10.3628309"><ele>1042.0</ele><time>2026-04-26T14:22:52.353Z</time></trkpt><trkpt lat="46.345778" lon="10.3629641"><ele>1045.0</ele><time>2026-04-26T14:22:59.355Z</time></trkpt><trkpt lat="46.345823" lon="10.3631168"><ele>1048.0</ele><time>2026-04-26T14:23:01.36Z</time></trkpt><trkpt lat="46.3458638" lon="10.3631867"><ele>1049.3333333333333</ele><time>2026-04-26T14:23:02.356Z</time></trkpt><trkpt lat="46.3459124" lon="10.3632645"><ele>1050.6666666666665</ele><time>2026-04-26T14:23:03.357Z</time></trkpt><trkpt lat="46.3460048" lon="10.3634135"><ele>1052.0</ele><time>2026-04-26T14:23:05.354Z</time></trkpt><trkpt lat="46.3460591" lon="10.3634838"><ele>1053.3333333333333</ele><time>2026-04-26T14:23:06.36Z</time></trkpt><trkpt lat="46.3460901" lon="10.3635728"><ele>1054.6666666666667</ele><time>2026-04-26T14:23:08.354Z</time></trkpt><trkpt lat="46.3460286" lon="10.3635996"><ele>1056.0</ele><time>2026-04-26T14:23:11.358Z</time></trkpt><trkpt lat="46.3459741" lon="10.3635398"><ele>1056.0</ele><time>2026-04-26T14:23:15.353Z</time></trkpt><trkpt lat="46.3459364" lon="10.3634582"><ele>1056.0</ele><time>2026-04-26T14:23:17.357Z</time></trkpt><trkpt lat="46.3457591" lon="10.3631769"><ele>1056.0</ele><time>2026-04-26T14:23:18.359Z</time></trkpt><trkpt lat="46.3456864" lon="10.3630641"><ele>1056.0</ele><time>2026-04-26T14:23:20.356Z</time></trkpt><trkpt lat="46.3456313" lon="10.3629545"><ele>1056.0</ele><time>2026-04-26T14:23:22.358Z</time></trkpt><trkpt lat="46.3455919" lon="10.3628824"><ele>1056.0</ele><time>2026-04-26T14:23:25.359Z</time></trkpt><trkpt lat="46.3456276" lon="10.3629613"><ele>1056.0</ele><time>2026-04-26T14:26:03.358Z</time></trkpt><trkpt lat="46.3456904" lon="10.3630253"><ele>1056.0</ele><time>2026-04-26T14:26:07.358Z</time></trkpt><trkpt lat="46.3457506" lon="10.3631078"><ele>1056.0</ele><time>2026-04-26T14:26:10.355Z</time></trkpt><trkpt lat="46.3458036" lon="10.3631866"><ele>1056.0</ele><time>2026-04-26T14:26:12.36Z</time></trkpt><trkpt lat="46.3458643" lon="10.3632794"><ele>1056.0</ele><time>2026-04-26T14:26:14.359Z</time></trkpt><trkpt lat="46.3459491" lon="10.3633818"><ele>1056.0</ele><time>2026-04-26T14:26:16.353Z</time></trkpt><trkpt lat="46.3461179" lon="10.3636092"><ele>1056.0</ele><time>2026-04-26T14:26:17.357Z</time></trkpt><trkpt lat="46.3461632" lon="10.3636894"><ele>1056.0</ele><time>2026-04-26T14:26:18.36Z</time></trkpt><trkpt lat="46.3462053" lon="10.3637759"><ele>1056.0</ele><time>2026-04-26T14:26:19.358Z</time></trkpt><trkpt lat="46.3462429" lon="10.3638562"><ele>1056.0</ele><time>2026-04-26T14:26:20.354Z</time></trkpt><trkpt lat="46.3462829" lon="10.3639589"><ele>1056.0</ele><time>2026-04-26T14:26:21.359Z</time></trkpt><trkpt lat="46.3463266" lon="10.3641463"><ele>1056.0</ele><time>2026-04-26T14:26:22.361Z</time></trkpt><trkpt lat="46.346345" lon="10.3643397"><ele>1056.0</ele><time>2026-04-26T14:26:23.355Z</time></trkpt><trkpt lat="46.3463323" lon="10.3644491"><ele>1056.3999999999999</ele><time>2026-04-26T14:26:24.354Z</time></trkpt><trkpt lat="46.346316" lon="10.3645719"><ele>1056.8</ele><time>2026-04-26T14:26:25.352Z</time></trkpt><trkpt lat="46.3462814" lon="10.3647114"><ele>1057.1999999999998</ele><time>2026-04-26T14:26:26.361Z</time></trkpt><trkpt lat="46.3462404" lon="10.3648792"><ele>1057.6</ele><time>2026-04-26T14:26:27.358Z</time></trkpt><trkpt lat="46.3461999" lon="10.3650485"><ele>1058.0</ele><time>2026-04-26T14:26:28.355Z</time></trkpt><trkpt lat="46.3461566" lon="10.3651964"><ele>1060.2</ele><time>2026-04-26T14:26:29.362Z</time></trkpt><trkpt lat="46.3461088" lon="10.3653407"><ele>1062.4</ele><time>2026-04-26T14:26:30.356Z</time></trkpt><trkpt lat="46.3460699" lon="10.3654681"><ele>1064.6000000000001</ele><time>2026-04-26T14:26:31.356Z</time></trkpt><trkpt lat="46.3460284" lon="10.3655822"><ele>1066.8</ele><time>2026-04-26T14:26:32.355Z</time></trkpt><trkpt lat="46.345978" lon="10.3657047"><ele>1069.0</ele><time>2026-04-26T14:26:33.369Z</time></trkpt><trkpt lat="46.3459202" lon="10.3658545"><ele>1071.25</ele><time>2026-04-26T14:26:34.361Z</time></trkpt><trkpt lat="46.3458577" lon="10.3660244"><ele>1073.5</ele><time>2026-04-26T14:26:35.361Z</time></trkpt><trkpt lat="46.3457931" lon="10.3661932"><ele>1075.75</ele><time>2026-04-26T14:26:36.352Z</time></trkpt><trkpt lat="46.3457329" lon="10.3663648"><ele>1078.0</ele><time>2026-04-26T14:26:37.36Z</time></trkpt><trkpt lat="46.3456827" lon="10.3665188"><ele>1081.8</ele><time>2026-04-26T14:26:38.354Z</time></trkpt><trkpt lat="46.34564" lon="10.3666481"><ele>1085.6</ele><time>2026-04-26T14:26:39.357Z</time></trkpt><trkpt lat="46.3456045" lon="10.3667579"><ele>1089.4</ele><time>2026-04-26T14:26:40.354Z</time></trkpt><trkpt lat="46.3455776" lon="10.3669164"><ele>1093.2</ele><time>2026-04-26T14:26:42.357Z</time></trkpt><trkpt lat="46.3455781" lon="10.3670966"><ele>1097.0</ele><time>2026-04-26T14:26:44.354Z</time></trkpt><trkpt lat="46.3455763" lon="10.3672053"><ele>1102.8</ele><time>2026-04-26T14:26:45.351Z</time></trkpt><trkpt lat="46.3455702" lon="10.3673098"><ele>1108.6</ele><time>2026-04-26T14:26:46.354Z</time></trkpt><trkpt lat="46.3455645" lon="10.3674073"><ele>1114.3999999999999</ele><time>2026-04-26T14:26:47.361Z</time></trkpt><trkpt lat="46.3455638" lon="10.367504"><ele>1120.2</ele><time>2026-04-26T14:26:48.36Z</time></trkpt><trkpt lat="46.3455745" lon="10.367678"><ele>1126.0</ele><time>2026-04-26T14:26:50.358Z</time></trkpt><trkpt lat="46.3455524" lon="10.3678743"><ele>1126.3999999999999</ele><time>2026-04-26T14:26:52.353Z</time></trkpt><trkpt lat="46.3455359" lon="10.3679874"><ele>1126.8</ele><time>2026-04-26T14:26:53.355Z</time></trkpt><trkpt lat="46.3455318" lon="10.3680874"><ele>1127.1999999999998</ele><time>2026-04-26T14:26:54.359Z</time></trkpt><trkpt lat="46.3455558" lon="10.3682447"><ele>1127.6</ele><time>2026-04-26T14:26:56.354Z</time></trkpt><trkpt lat="46.3456334" lon="10.3683678"><ele>1128.0</ele><time>2026-04-26T14:26:58.361Z</time></trkpt><trkpt lat="46.3456947" lon="10.3684421"><ele>1128.0</ele><time>2026-04-26T14:26:59.355Z</time></trkpt><trkpt lat="46.3457598" lon="10.3685293"><ele>1128.0</ele><time>2026-04-26T14:27:00.351Z</time></trkpt><trkpt lat="46.3458197" lon="10.368628"><ele>1128.0</ele><time>2026-04-26T14:27:01.355Z</time></trkpt><trkpt lat="46.3458681" lon="10.3687352"><ele>1128.0</ele><time>2026-04-26T14:27:02.355Z</time></trkpt><trkpt lat="46.3459135" lon="10.3688471"><ele>1128.0</ele><time>2026-04-26T14:27:03.353Z</time></trkpt><trkpt lat="46.3459539" lon="10.368946"><ele>1128.0</ele><time>2026-04-26T14:27:04.355Z</time></trkpt><trkpt lat="46.3459945" lon="10.3690385"><ele>1129.0</ele><time>2026-04-26T14:27:05.353Z</time></trkpt><trkpt lat="46.3460232" lon="10.3691329"><ele>1130.0</ele><time>2026-04-26T14:27:06.354Z</time></trkpt><trkpt lat="46.3460491" lon="10.3692327"><ele>1131.0</ele><time>2026-04-26T14:27:07.353Z</time></trkpt><trkpt lat="46.3460778" lon="10.3693324"><ele>1132.0</ele><time>2026-04-26T14:27:08.359Z</time></trkpt><trkpt lat="46.3461" lon="10.3694877"><ele>1133.0</ele><time>2026-04-26T14:27:10.351Z</time></trkpt><trkpt lat="46.3461109" lon="10.3696218"><ele>1134.0</ele><time>2026-04-26T14:27:12.355Z</time></trkpt><trkpt lat="46.3461036" lon="10.3697668"><ele>1134.0</ele><time>2026-04-26T14:27:14.354Z</time></trkpt><trkpt lat="46.3460986" lon="10.3698793"><ele>1134.0</ele><time>2026-04-26T14:27:16.356Z</time></trkpt><trkpt lat="46.3461407" lon="10.3699802"><ele>1134.0</ele><time>2026-04-26T14:27:18.355Z</time></trkpt><trkpt lat="46.3461853" lon="10.3700691"><ele>1134.0</ele><time>2026-04-26T14:27:22.354Z</time></trkpt><trkpt lat="46.3461804" lon="10.3701761"><ele>1134.0</ele><time>2026-04-26T14:27:24.354Z</time></trkpt><trkpt lat="46.3461807" lon="10.3702721"><ele>1134.0</ele><time>2026-04-26T14:27:25.355Z</time></trkpt><trkpt lat="46.3461904" lon="10.3703627"><ele>1134.0</ele><time>2026-04-26T14:27:31.359Z</time></trkpt><trkpt lat="46.3461845" lon="10.3702573"><ele>1134.0</ele><time>2026-04-26T14:27:46.364Z</time></trkpt><trkpt lat="46.3461699" lon="10.3701668"><ele>1134.0</ele><time>2026-04-26T14:27:51.358Z</time></trkpt><trkpt lat="46.3461624" lon="10.3700354"><ele>1134.0</ele><time>2026-04-26T14:27:54.356Z</time></trkpt><trkpt lat="46.3461018" lon="10.3699623"><ele>1134.0</ele><time>2026-04-26T14:27:56.355Z</time></trkpt><trkpt lat="46.346047" lon="10.3698649"><ele>1134.0</ele><time>2026-04-26T14:27:58.355Z</time></trkpt><trkpt lat="46.3460443" lon="10.3697183"><ele>1134.0</ele><time>2026-04-26T14:28:00.356Z</time></trkpt><trkpt lat="46.3460582" lon="10.3695671"><ele>1132.0</ele><time>2026-04-26T14:28:02.353Z</time></trkpt><trkpt lat="46.346042" lon="10.3694613"><ele>1130.0</ele><time>2026-04-26T14:28:03.357Z</time></trkpt><trkpt lat="46.3460304" lon="10.3693614"><ele>1128.0</ele><time>2026-04-26T14:28:04.357Z</time></trkpt><trkpt lat="46.3460179" lon="10.3692612"><ele>1126.0</ele><time>2026-04-26T14:28:05.358Z</time></trkpt><trkpt lat="46.3459971" lon="10.3691462"><ele>1124.0</ele><time>2026-04-26T14:28:06.356Z</time></trkpt><trkpt lat="46.3459682" lon="10.3690435"><ele>1122.0</ele><time>2026-04-26T14:28:07.355Z</time></trkpt><trkpt lat="46.3459312" lon="10.3689568"><ele>1120.0</ele><time>2026-04-26T14:28:08.354Z</time></trkpt><trkpt lat="46.3458934" lon="10.3688618"><ele>1121.6</ele><time>2026-04-26T14:28:09.359Z</time></trkpt><trkpt lat="46.3458505" lon="10.3687537"><ele>1123.2</ele><time>2026-04-26T14:28:10.352Z</time></trkpt><trkpt lat="46.3458197" lon="10.3686349"><ele>1124.8</ele><time>2026-04-26T14:28:11.359Z</time></trkpt><trkpt lat="46.345763" lon="10.3685392"><ele>1126.4</ele><time>2026-04-26T14:28:12.354Z</time></trkpt><trkpt lat="46.3456806" lon="10.368423"><ele>1128.0</ele><time>2026-04-26T14:28:13.354Z</time></trkpt><trkpt lat="46.3456043" lon="10.3683094"><ele>1128.0</ele><time>2026-04-26T14:28:14.356Z</time></trkpt><trkpt lat="46.3455484" lon="10.3682109"><ele>1128.0</ele><time>2026-04-26T14:28:15.356Z</time></trkpt><trkpt lat="46.3455131" lon="10.3680988"><ele>1128.0</ele><time>2026-04-26T14:28:16.356Z</time></trkpt><trkpt lat="46.3454966" lon="10.3679811"><ele>1128.0</ele><time>2026-04-26T14:28:17.352Z</time></trkpt><trkpt lat="46.3454959" lon="10.3678544"><ele>1128.0</ele><time>2026-04-26T14:28:18.354Z</time></trkpt><trkpt lat="46.3455005" lon="10.3677322"><ele>1128.0</ele><time>2026-04-26T14:28:19.354Z</time></trkpt><trkpt lat="46.3455255" lon="10.3675847"><ele>1127.6</ele><time>2026-04-26T14:28:21.355Z</time></trkpt><trkpt lat="46.3455229" lon="10.3673927"><ele>1127.1999999999998</ele><time>2026-04-26T14:28:23.36Z</time></trkpt><trkpt lat="46.3455493" lon="10.3672744"><ele>1126.8</ele><time>2026-04-26T14:28:24.355Z</time></trkpt><trkpt lat="46.3455607" lon="10.3671333"><ele>1126.3999999999999</ele><time>2026-04-26T14:28:25.356Z</time></trkpt><trkpt lat="46.3455594" lon="10.3669761"><ele>1126.0</ele><time>2026-04-26T14:28:26.358Z</time></trkpt><trkpt lat="46.3455589" lon="10.3668599"><ele>1120.2</ele><time>2026-04-26T14:28:27.359Z</time></trkpt><trkpt lat="46.3455602" lon="10.3667317"><ele>1114.3999999999999</ele><time>2026-04-26T14:28:28.353Z</time></trkpt><trkpt lat="46.3455759" lon="10.3666138"><ele>1108.6</ele><time>2026-04-26T14:28:29.352Z</time></trkpt><trkpt lat="46.3456412" lon="10.3664522"><ele>1102.8</ele><time>2026-04-26T14:28:30.351Z</time></trkpt><trkpt lat="46.3457009" lon="10.366298"><ele>1097.0</ele><time>2026-04-26T14:28:31.359Z</time></trkpt><trkpt lat="46.3457519" lon="10.3661411"><ele>1092.25</ele><time>2026-04-26T14:28:32.357Z</time></trkpt><trkpt lat="46.3458045" lon="10.3659576"><ele>1087.5</ele><time>2026-04-26T14:28:33.355Z</time></trkpt><trkpt lat="46.3458668" lon="10.3657677"><ele>1082.75</ele><time>2026-04-26T14:28:34.356Z</time></trkpt><trkpt lat="46.3459264" lon="10.3655872"><ele>1078.0</ele><time>2026-04-26T14:28:35.351Z</time></trkpt><trkpt lat="46.3459929" lon="10.3654355"><ele>1075.75</ele><time>2026-04-26T14:28:36.356Z</time></trkpt><trkpt lat="46.3460592" lon="10.3652787"><ele>1073.5</ele><time>2026-04-26T14:28:37.353Z</time></trkpt><trkpt lat="46.3461216" lon="10.3650835"><ele>1071.25</ele><time>2026-04-26T14:28:38.355Z</time></trkpt><trkpt lat="46.3461714" lon="10.3648962"><ele>1069.0</ele><time>2026-04-26T14:28:39.352Z</time></trkpt><trkpt lat="46.3462181" lon="10.3647069"><ele>1066.8</ele><time>2026-04-26T14:28:40.352Z</time></trkpt><trkpt lat="46.3462595" lon="10.3645595"><ele>1064.6000000000001</ele><time>2026-04-26T14:28:41.354Z</time></trkpt><trkpt lat="46.3462884" lon="10.3644527"><ele>1062.4</ele><time>2026-04-26T14:28:42.355Z</time></trkpt><trkpt lat="46.3462973" lon="10.3643229"><ele>1060.2</ele><time>2026-04-26T14:28:43.358Z</time></trkpt><trkpt lat="46.3462821" lon="10.3641907"><ele>1058.0</ele><time>2026-04-26T14:28:44.352Z</time></trkpt><trkpt lat="46.346251" lon="10.3640539"><ele>1058.0</ele><time>2026-04-26T14:28:45.352Z</time></trkpt><trkpt lat="46.3462162" lon="10.3639108"><ele>1058.0</ele><time>2026-04-26T14:28:46.362Z</time></trkpt><trkpt lat="46.3461254" lon="10.3637541"><ele>1058.0</ele><time>2026-04-26T14:28:47.352Z</time></trkpt><trkpt lat="46.3460711" lon="10.3636355"><ele>1058.0</ele><time>2026-04-26T14:28:48.356Z</time></trkpt><trkpt lat="46.3460321" lon="10.3635174"><ele>1058.0</ele><time>2026-04-26T14:28:49.355Z</time></trkpt><trkpt lat="46.3459809" lon="10.3634077"><ele>1057.6666666666667</ele><time>2026-04-26T14:28:50.357Z</time></trkpt><trkpt lat="46.3459197" lon="10.3633317"><ele>1057.3333333333335</ele><time>2026-04-26T14:28:51.354Z</time></trkpt><trkpt lat="46.3458557" lon="10.3632246"><ele>1057.0</ele><time>2026-04-26T14:28:52.354Z</time></trkpt><trkpt lat="46.3457951" lon="10.3631307"><ele>1056.6666666666667</ele><time>2026-04-26T14:28:53.356Z</time></trkpt><trkpt lat="46.3457515" lon="10.3630496"><ele>1056.3333333333333</ele><time>2026-04-26T14:28:54.357Z</time></trkpt><trkpt lat="46.3457205" lon="10.3629313"><ele>1056.0</ele><time>2026-04-26T14:28:55.357Z</time></trkpt><trkpt lat="46.3456936" lon="10.36284"><ele>1054.6666666666667</ele><time>2026-04-26T14:28:56.355Z</time></trkpt><trkpt lat="46.3456531" lon="10.3627377"><ele>1053.3333333333333</ele><time>2026-04-26T14:28:57.352Z</time></trkpt><trkpt lat="46.345617" lon="10.3626317"><ele>1052.0</ele><time>2026-04-26T14:28:58.356Z</time></trkpt><trkpt lat="46.345603" lon="10.3625359"><ele>1050.6666666666665</ele><time>2026-04-26T14:28:59.356Z</time></trkpt><trkpt lat="46.3455864" lon="10.3624406"><ele>1049.3333333333333</ele><time>2026-04-26T14:29:00.35Z</time></trkpt><trkpt lat="46.3455541" lon="10.3622441"><ele>1048.0</ele><time>2026-04-26T14:29:02.356Z</time></trkpt><trkpt lat="46.3455371" lon="10.3621358"><ele>1045.1666666666665</ele><time>2026-04-26T14:29:03.353Z</time></trkpt><trkpt lat="46.345528" lon="10.3620216"><ele>1042.3333333333333</ele><time>2026-04-26T14:29:04.358Z</time></trkpt><trkpt lat="46.3455167" lon="10.3619047"><ele>1039.5</ele><time>2026-04-26T14:29:05.356Z</time></trkpt><trkpt lat="46.3455156" lon="10.3618034"><ele>1036.6666666666667</ele><time>2026-04-26T14:29:06.352Z</time></trkpt><trkpt lat="46.3455208" lon="10.3616939"><ele>1033.8333333333335</ele><time>2026-04-26T14:29:07.356Z</time></trkpt><trkpt lat="46.3455242" lon="10.3615858"><ele>1031.0</ele><time>2026-04-26T14:29:08.357Z</time></trkpt><trkpt lat="46.3455261" lon="10.3614811"><ele>1031.0</ele><time>2026-04-26T14:29:09.356Z</time></trkpt><trkpt lat="46.3455406" lon="10.3613784"><ele>1031.0</ele><time>2026-04-26T14:29:10.355Z</time></trkpt><trkpt lat="46.3455547" lon="10.36127"><ele>1031.0</ele><time>2026-04-26T14:29:11.356Z</time></trkpt><trkpt lat="46.3455736" lon="10.3611614"><ele>1031.0</ele><time>2026-04-26T14:29:12.356Z</time></trkpt><trkpt lat="46.3455943" lon="10.3610608"><ele>1031.0</ele><time>2026-04-26T14:29:13.351Z</time></trkpt><trkpt lat="46.3456203" lon="10.3609542"><ele>1031.0</ele><time>2026-04-26T14:29:14.36Z</time></trkpt><trkpt lat="46.3456442" lon="10.3608416"><ele>1028.5</ele><time>2026-04-26T14:29:15.354Z</time></trkpt><trkpt lat="46.3456767" lon="10.3607339"><ele>1026.0</ele><time>2026-04-26T14:29:16.356Z</time></trkpt><trkpt lat="46.3457145" lon="10.3606275"><ele>1023.5</ele><time>2026-04-26T14:29:17.355Z</time></trkpt><trkpt lat="46.3457521" lon="10.3605202"><ele>1021.0</ele><time>2026-04-26T14:29:18.359Z</time></trkpt><trkpt lat="46.3457947" lon="10.3604083"><ele>1018.5000000000001</ele><time>2026-04-26T14:29:19.357Z</time></trkpt><trkpt lat="46.3458425" lon="10.3603059"><ele>1016.0</ele><time>2026-04-26T14:29:20.353Z</time></trkpt><trkpt lat="46.3458858" lon="10.360205"><ele>1015.0000000000001</ele><time>2026-04-26T14:29:21.358Z</time></trkpt><trkpt lat="46.3459283" lon="10.3601004"><ele>1014.0</ele><time>2026-04-26T14:29:22.356Z</time></trkpt><trkpt lat="46.3459788" lon="10.3599963"><ele>1013.0</ele><time>2026-04-26T14:29:23.356Z</time></trkpt><trkpt lat="46.3460269" lon="10.3598807"><ele>1012.0</ele><time>2026-04-26T14:29:24.355Z</time></trkpt><trkpt lat="46.3460765" lon="10.3597837"><ele>1011.0000000000001</ele><time>2026-04-26T14:29:25.351Z</time></trkpt><trkpt lat="46.3461311" lon="10.3596831"><ele>1010.0</ele><time>2026-04-26T14:29:26.364Z</time></trkpt><trkpt lat="46.3461916" lon="10.3595672"><ele>1008.8333333333334</ele><time>2026-04-26T14:29:27.359Z</time></trkpt><trkpt lat="46.346241" lon="10.3594477"><ele>1007.6666666666667</ele><time>2026-04-26T14:29:28.358Z</time></trkpt><trkpt lat="46.346284" lon="10.3593396"><ele>1006.5</ele><time>2026-04-26T14:29:29.358Z</time></trkpt><trkpt lat="46.3463254" lon="10.3592459"><ele>1005.3333333333333</ele><time>2026-04-26T14:29:30.357Z</time></trkpt><trkpt lat="46.3463727" lon="10.3591514"><ele>1004.1666666666666</ele><time>2026-04-26T14:29:31.353Z</time></trkpt><trkpt lat="46.3464209" lon="10.3590425"><ele>1003.0</ele><time>2026-04-26T14:29:32.354Z</time></trkpt><trkpt lat="46.3464806" lon="10.3589207"><ele>1001.1666666666666</ele><time>2026-04-26T14:29:33.365Z</time></trkpt><trkpt lat="46.3465282" lon="10.3588158"><ele>999.3333333333333</ele><time>2026-04-26T14:29:34.355Z</time></trkpt><trkpt lat="46.3465688" lon="10.3587274"><ele>997.5</ele><time>2026-04-26T14:29:35.356Z</time></trkpt><trkpt lat="46.3466378" lon="10.3586001"><ele>995.6666666666667</ele><time>2026-04-26T14:29:37.36Z</time></trkpt><trkpt lat="46.3466298" lon="10.3584789"><ele>993.8333333333334</ele><time>2026-04-26T14:29:40.36Z</time></trkpt><trkpt lat="46.3465676" lon="10.3585124"><ele>992.0</ele><time>2026-04-26T14:29:44.355Z</time></trkpt><trkpt lat="46.3465225" lon="10.3586188"><ele>992.0</ele><time>2026-04-26T14:29:46.364Z</time></trkpt><trkpt lat="46.3464777" lon="10.358715"><ele>992.0</ele><time>2026-04-26T14:29:47.35Z</time></trkpt><trkpt lat="46.3464156" lon="10.3588019"><ele>992.0</ele><time>2026-04-26T14:29:48.35Z</time></trkpt><trkpt lat="46.3463172" lon="10.3589269"><ele>992.0</ele><time>2026-04-26T14:29:49.353Z</time></trkpt><trkpt lat="46.3462239" lon="10.3588567"><ele>992.0</ele><time>2026-04-26T14:29:51.36Z</time></trkpt><trkpt lat="46.3461626" lon="10.3587688"><ele>992.3333333333334</ele><time>2026-04-26T14:29:53.351Z</time></trkpt><trkpt lat="46.3460886" lon="10.3586961"><ele>992.6666666666667</ele><time>2026-04-26T14:29:55.351Z</time></trkpt><trkpt lat="46.3460449" lon="10.3585923"><ele>993.0</ele><time>2026-04-26T14:29:59.357Z</time></trkpt><trkpt lat="46.3459794" lon="10.3585578"><ele>993.3333333333333</ele><time>2026-04-26T14:30:02.351Z</time></trkpt><trkpt lat="46.3458926" lon="10.3585999"><ele>993.6666666666666</ele><time>2026-04-26T14:30:05.351Z</time></trkpt><trkpt lat="46.3458069" lon="10.3585745"><ele>994.0</ele><time>2026-04-26T14:30:08.355Z</time></trkpt><trkpt lat="46.3457456" lon="10.358517"><ele>993.9999999999999</ele><time>2026-04-26T14:30:10.354Z</time></trkpt><trkpt lat="46.3456948" lon="10.3584498"><ele>994.0</ele><time>2026-04-26T14:30:12.365Z</time></trkpt><trkpt lat="46.3456273" lon="10.3583684"><ele>994.0</ele><time>2026-04-26T14:30:14.362Z</time></trkpt><trkpt lat="46.3455403" lon="10.358272"><ele>994.0</ele><time>2026-04-26T14:30:16.352Z</time></trkpt><trkpt lat="46.3454818" lon="10.358213"><ele>993.9999999999999</ele><time>2026-04-26T14:30:17.355Z</time></trkpt><trkpt lat="46.3454145" lon="10.3581475"><ele>994.0</ele><time>2026-04-26T14:30:18.356Z</time></trkpt><trkpt lat="46.3452436" lon="10.3579655"><ele>991.75</ele><time>2026-04-26T14:30:19.356Z</time></trkpt><trkpt lat="46.3451166" lon="10.3578461"><ele>989.5</ele><time>2026-04-26T14:30:20.355Z</time></trkpt><trkpt lat="46.3450704" lon="10.3577673"><ele>987.25</ele><time>2026-04-26T14:30:21.354Z</time></trkpt><trkpt lat="46.3449884" lon="10.3576369"><ele>985.0</ele><time>2026-04-26T14:30:23.356Z</time></trkpt><trkpt lat="46.3448788" lon="10.3575373"><ele>985.0</ele><time>2026-04-26T14:30:25.357Z</time></trkpt><trkpt lat="46.3447847" lon="10.357445"><ele>985.0</ele><time>2026-04-26T14:30:27.357Z</time></trkpt><trkpt lat="46.3446985" lon="10.3573496"><ele>985.0</ele><time>2026-04-26T14:30:29.354Z</time></trkpt><trkpt lat="46.3445978" lon="10.3572534"><ele>985.0</ele><time>2026-04-26T14:30:31.355Z</time></trkpt><trkpt lat="46.3445173" lon="10.3571303"><ele>983.0</ele><time>2026-04-26T14:30:33.355Z</time></trkpt><trkpt lat="46.3444843" lon="10.3569698"><ele>981.0</ele><time>2026-04-26T14:30:35.353Z</time></trkpt><trkpt lat="46.3444365" lon="10.3568198"><ele>979.0</ele><time>2026-04-26T14:30:37.355Z</time></trkpt><trkpt lat="46.3443654" lon="10.3566793"><ele>977.0</ele><time>2026-04-26T14:30:39.358Z</time></trkpt><trkpt lat="46.344312" lon="10.3566008"><ele>975.0</ele><time>2026-04-26T14:30:40.354Z</time></trkpt><trkpt lat="46.3442527" lon="10.3565274"><ele>975.0</ele><time>2026-04-26T14:30:41.355Z</time></trkpt><trkpt lat="46.3441916" lon="10.3564601"><ele>975.0</ele><time>2026-04-26T14:30:42.352Z</time></trkpt><trkpt lat="46.3441337" lon="10.3563885"><ele>975.0</ele><time>2026-04-26T14:30:43.358Z</time></trkpt><trkpt lat="46.3440815" lon="10.3563167"><ele>975.0</ele><time>2026-04-26T14:30:44.358Z</time></trkpt><trkpt lat="46.3440086" lon="10.3561685"><ele>975.0</ele><time>2026-04-26T14:30:46.355Z</time></trkpt><trkpt lat="46.3439764" lon="10.3560837"><ele>975.0</ele><time>2026-04-26T14:30:47.354Z</time></trkpt><trkpt lat="46.3439423" lon="10.3560013"><ele>973.6666666666666</ele><time>2026-04-26T14:30:48.356Z</time></trkpt><trkpt lat="46.3439018" lon="10.3559293"><ele>972.3333333333333</ele><time>2026-04-26T14:30:49.358Z</time></trkpt><trkpt lat="46.3438451" lon="10.3557777"><ele>971.0</ele><time>2026-04-26T14:30:51.351Z</time></trkpt><trkpt lat="46.3438146" lon="10.3556865"><ele>969.6666666666666</ele><time>2026-04-26T14:30:52.356Z</time></trkpt><trkpt lat="46.3437867" lon="10.3555884"><ele>968.3333333333333</ele><time>2026-04-26T14:30:53.355Z</time></trkpt><trkpt lat="46.3437654" lon="10.3554838"><ele>967.0</ele><time>2026-04-26T14:30:54.355Z</time></trkpt><trkpt lat="46.3437388" lon="10.3553603"><ele>965.0</ele><time>2026-04-26T14:30:55.355Z</time></trkpt><trkpt lat="46.3437022" lon="10.3552327"><ele>963.0</ele><time>2026-04-26T14:30:56.359Z</time></trkpt><trkpt lat="46.3436587" lon="10.3551143"><ele>961.0</ele><time>2026-04-26T14:30:57.354Z</time></trkpt><trkpt lat="46.3436048" lon="10.3550044"><ele>959.0</ele><time>2026-04-26T14:30:58.36Z</time></trkpt><trkpt lat="46.3435496" lon="10.3549028"><ele>957.0</ele><time>2026-04-26T14:30:59.354Z</time></trkpt><trkpt lat="46.3434942" lon="10.3548032"><ele>957.0</ele><time>2026-04-26T14:31:00.354Z</time></trkpt><trkpt lat="46.3434415" lon="10.3547104"><ele>957.0</ele><time>2026-04-26T14:31:01.356Z</time></trkpt><trkpt lat="46.3433846" lon="10.3546204"><ele>957.0</ele><time>2026-04-26T14:31:02.354Z</time></trkpt><trkpt lat="46.3433326" lon="10.3545284"><ele>957.0</ele><time>2026-04-26T14:31:03.359Z</time></trkpt><trkpt lat="46.3432774" lon="10.3544493"><ele>957.0</ele><time>2026-04-26T14:31:04.354Z</time></trkpt><trkpt lat="46.3432085" lon="10.3543918"><ele>957.0</ele><time>2026-04-26T14:31:05.358Z</time></trkpt><trkpt lat="46.3431294" lon="10.3543377"><ele>956.2</ele><time>2026-04-26T14:31:06.356Z</time></trkpt><trkpt lat="46.3430529" lon="10.3542827"><ele>955.4000000000001</ele><time>2026-04-26T14:31:07.359Z</time></trkpt><trkpt lat="46.3429633" lon="10.354235"><ele>954.5999999999999</ele><time>2026-04-26T14:31:08.356Z</time></trkpt><trkpt lat="46.3428768" lon="10.3541845"><ele>953.8</ele><time>2026-04-26T14:31:09.356Z</time></trkpt><trkpt lat="46.3427843" lon="10.3541381"><ele>953.0</ele><time>2026-04-26T14:31:10.352Z</time></trkpt><trkpt lat="46.3426999" lon="10.3540802"><ele>952.3333333333334</ele><time>2026-04-26T14:31:11.357Z</time></trkpt><trkpt lat="46.3426214" lon="10.3540168"><ele>951.6666666666667</ele><time>2026-04-26T14:31:12.356Z</time></trkpt><trkpt lat="46.3425403" lon="10.3539694"><ele>951.0</ele><time>2026-04-26T14:31:13.36Z</time></trkpt><trkpt lat="46.3424702" lon="10.3539198"><ele>950.3333333333333</ele><time>2026-04-26T14:31:14.354Z</time></trkpt><trkpt lat="46.342398" lon="10.3538768"><ele>949.6666666666666</ele><time>2026-04-26T14:31:15.353Z</time></trkpt><trkpt lat="46.3423209" lon="10.3538386"><ele>949.0</ele><time>2026-04-26T14:31:16.36Z</time></trkpt><trkpt lat="46.3422364" lon="10.3538012"><ele>947.8333333333333</ele><time>2026-04-26T14:31:17.36Z</time></trkpt><trkpt lat="46.3421572" lon="10.3537574"><ele>946.6666666666666</ele><time>2026-04-26T14:31:18.356Z</time></trkpt><trkpt lat="46.3420814" lon="10.3537099"><ele>945.5</ele><time>2026-04-26T14:31:19.358Z</time></trkpt><trkpt lat="46.3420126" lon="10.3536599"><ele>944.3333333333333</ele><time>2026-04-26T14:31:20.354Z</time></trkpt><trkpt lat="46.3419473" lon="10.3536084"><ele>943.1666666666666</ele><time>2026-04-26T14:31:21.359Z</time></trkpt><trkpt lat="46.341853" lon="10.3535315"><ele>942.0</ele><time>2026-04-26T14:31:23.355Z</time></trkpt><trkpt lat="46.3417842" lon="10.3534747"><ele>942.0</ele><time>2026-04-26T14:31:31.357Z</time></trkpt><trkpt lat="46.3417312" lon="10.3533637"><ele>942.0</ele><time>2026-04-26T14:31:33.354Z</time></trkpt><trkpt lat="46.3416904" lon="10.3531909"><ele>942.0</ele><time>2026-04-26T14:31:35.357Z</time></trkpt><trkpt lat="46.3416175" lon="10.3530582"><ele>942.0</ele><time>2026-04-26T14:31:37.353Z</time></trkpt><trkpt lat="46.3415152" lon="10.3529569"><ele>941.5</ele><time>2026-04-26T14:31:39.353Z</time></trkpt><trkpt lat="46.3414495" lon="10.3529223"><ele>941.0</ele><time>2026-04-26T14:31:40.355Z</time></trkpt><trkpt lat="46.3413751" lon="10.3529005"><ele>940.5</ele><time>2026-04-26T14:31:41.358Z</time></trkpt><trkpt lat="46.3413038" lon="10.3528754"><ele>940.0</ele><time>2026-04-26T14:31:42.355Z</time></trkpt><trkpt lat="46.3412318" lon="10.3528369"><ele>939.5</ele><time>2026-04-26T14:31:43.354Z</time></trkpt><trkpt lat="46.3411648" lon="10.3527739"><ele>939.0</ele><time>2026-04-26T14:31:44.353Z</time></trkpt><trkpt lat="46.3410946" lon="10.3527034"><ele>939.0</ele><time>2026-04-26T14:31:45.353Z</time></trkpt><trkpt lat="46.3410184" lon="10.3526302"><ele>939.0000000000001</ele><time>2026-04-26T14:31:46.355Z</time></trkpt><trkpt lat="46.3409402" lon="10.3525587"><ele>939.0000000000001</ele><time>2026-04-26T14:31:47.355Z</time></trkpt><trkpt lat="46.3408668" lon="10.3524734"><ele>939.0</ele><time>2026-04-26T14:31:48.364Z</time></trkpt><trkpt lat="46.3408008" lon="10.3523779"><ele>939.0</ele><time>2026-04-26T14:31:49.357Z</time></trkpt><trkpt lat="46.3407422" lon="10.3522713"><ele>938.4000000000001</ele><time>2026-04-26T14:31:50.351Z</time></trkpt><trkpt lat="46.3406834" lon="10.3521656"><ele>937.8000000000001</ele><time>2026-04-26T14:31:51.353Z</time></trkpt><trkpt lat="46.3406225" lon="10.3520508"><ele>937.1999999999999</ele><time>2026-04-26T14:31:52.354Z</time></trkpt><trkpt lat="46.3405603" lon="10.3519339"><ele>936.5999999999999</ele><time>2026-04-26T14:31:53.353Z</time></trkpt><trkpt lat="46.3404943" lon="10.3518207"><ele>936.0</ele><time>2026-04-26T14:31:54.355Z</time></trkpt><trkpt lat="46.3404306" lon="10.3517067"><ele>936.0</ele><time>2026-04-26T14:31:55.359Z</time></trkpt><trkpt lat="46.3403679" lon="10.3516047"><ele>936.0</ele><time>2026-04-26T14:31:56.352Z</time></trkpt><trkpt lat="46.3403166" lon="10.3515185"><ele>936.0</ele><time>2026-04-26T14:31:57.354Z</time></trkpt><trkpt lat="46.3402701" lon="10.3514299"><ele>936.0</ele><time>2026-04-26T14:31:58.356Z</time></trkpt><trkpt lat="46.3402107" lon="10.3513632"><ele>936.0</ele><time>2026-04-26T14:31:59.354Z</time></trkpt><trkpt lat="46.3401576" lon="10.3513086"><ele>936.0</ele><time>2026-04-26T14:32:00.365Z</time></trkpt><trkpt lat="46.3400985" lon="10.3512495"><ele>936.0</ele><time>2026-04-26T14:32:03.358Z</time></trkpt><trkpt lat="46.3400207" lon="10.3511865"><ele>935.9999999999999</ele><time>2026-04-26T14:32:06.358Z</time></trkpt><trkpt lat="46.3399487" lon="10.3511989"><ele>935.9999999999999</ele><time>2026-04-26T14:32:08.351Z</time></trkpt><trkpt lat="46.3398276" lon="10.3512646"><ele>936.0</ele><time>2026-04-26T14:32:10.354Z</time></trkpt><trkpt lat="46.3397492" lon="10.351332"><ele>936.0</ele><time>2026-04-26T14:32:11.357Z</time></trkpt><trkpt lat="46.3396639" lon="10.3513881"><ele>938.0</ele><time>2026-04-26T14:32:12.353Z</time></trkpt><trkpt lat="46.3395752" lon="10.3514402"><ele>939.9999999999999</ele><time>2026-04-26T14:32:13.36Z</time></trkpt><trkpt lat="46.3394847" lon="10.3514773"><ele>941.9999999999999</ele><time>2026-04-26T14:32:14.355Z</time></trkpt><trkpt lat="46.3393794" lon="10.3514829"><ele>944.0</ele><time>2026-04-26T14:32:15.359Z</time></trkpt><trkpt lat="46.3392668" lon="10.3514788"><ele>946.0</ele><time>2026-04-26T14:32:16.357Z</time></trkpt><trkpt lat="46.3391541" lon="10.3514847"><ele>946.0</ele><time>2026-04-26T14:32:17.355Z</time></trkpt><trkpt lat="46.3390468" lon="10.3514812"><ele>945.9999999999999</ele><time>2026-04-26T14:32:18.353Z</time></trkpt><trkpt lat="46.3389517" lon="10.3514372"><ele>945.9999999999999</ele><time>2026-04-26T14:32:19.354Z</time></trkpt><trkpt lat="46.3388716" lon="10.3513561"><ele>946.0</ele><time>2026-04-26T14:32:20.354Z</time></trkpt><trkpt lat="46.3387848" lon="10.3512813"><ele>946.0</ele><time>2026-04-26T14:32:21.358Z</time></trkpt><trkpt lat="46.3386895" lon="10.3512391"><ele>945.5999999999999</ele><time>2026-04-26T14:32:22.36Z</time></trkpt><trkpt lat="46.3385828" lon="10.3512449"><ele>945.1999999999999</ele><time>2026-04-26T14:32:23.361Z</time></trkpt><trkpt lat="46.3384662" lon="10.3512674"><ele>944.8000000000001</ele><time>2026-04-26T14:32:24.357Z</time></trkpt><trkpt lat="46.3383587" lon="10.3513043"><ele>944.4000000000001</ele><time>2026-04-26T14:32:25.359Z</time></trkpt><trkpt lat="46.338267" lon="10.3513782"><ele>944.0</ele><time>2026-04-26T14:32:26.354Z</time></trkpt><trkpt lat="46.3381661" lon="10.3514535"><ele>945.8000000000001</ele><time>2026-04-26T14:32:27.354Z</time></trkpt><trkpt lat="46.3380609" lon="10.3515008"><ele>947.6000000000001</ele><time>2026-04-26T14:32:28.356Z</time></trkpt><trkpt lat="46.3379614" lon="10.3514664"><ele>949.4</ele><time>2026-04-26T14:32:29.354Z</time></trkpt><trkpt lat="46.3378576" lon="10.351434"><ele>951.2</ele><time>2026-04-26T14:32:30.358Z</time></trkpt><trkpt lat="46.3377385" lon="10.3514331"><ele>953.0</ele><time>2026-04-26T14:32:31.354Z</time></trkpt><trkpt lat="46.3376316" lon="10.351456"><ele>953.3333333333334</ele><time>2026-04-26T14:32:32.353Z</time></trkpt><trkpt lat="46.3375473" lon="10.3514854"><ele>953.6666666666667</ele><time>2026-04-26T14:32:33.355Z</time></trkpt><trkpt lat="46.3374904" lon="10.3515888"><ele>954.0</ele><time>2026-04-26T14:32:35.362Z</time></trkpt><trkpt lat="46.3375792" lon="10.3516915"><ele>954.3333333333333</ele><time>2026-04-26T14:32:37.36Z</time></trkpt><trkpt lat="46.3375937" lon="10.3517941"><ele>954.6666666666666</ele><time>2026-04-26T14:32:40.358Z</time></trkpt><trkpt lat="46.3375228" lon="10.3517765"><ele>955.0</ele><time>2026-04-26T14:32:43.359Z</time></trkpt><trkpt lat="46.3374406" lon="10.3517069"><ele>954.0</ele><time>2026-04-26T14:32:47.36Z</time></trkpt><trkpt lat="46.3371955" lon="10.3516722"><ele>953.0</ele><time>2026-04-26T14:32:49.35Z</time></trkpt><trkpt lat="46.3370893" lon="10.3517011"><ele>952.0</ele><time>2026-04-26T14:32:51.352Z</time></trkpt><trkpt lat="46.3370216" lon="10.3516586"><ele>951.0</ele><time>2026-04-26T14:32:52.356Z</time></trkpt><trkpt lat="46.3369237" lon="10.3516187"><ele>951.0</ele><time>2026-04-26T14:32:53.362Z</time></trkpt><trkpt lat="46.3368281" lon="10.3515842"><ele>950.9999999999999</ele><time>2026-04-26T14:32:54.35Z</time></trkpt><trkpt lat="46.336748" lon="10.3515504"><ele>950.9999999999999</ele><time>2026-04-26T14:32:55.358Z</time></trkpt><trkpt lat="46.3366861" lon="10.3515275"><ele>951.0</ele><time>2026-04-26T14:32:56.351Z</time></trkpt><trkpt lat="46.3366226" lon="10.3515214"><ele>951.0</ele><time>2026-04-26T14:32:57.356Z</time></trkpt><trkpt lat="46.336481" lon="10.3515655"><ele>951.0</ele><time>2026-04-26T14:32:59.351Z</time></trkpt><trkpt lat="46.3363988" lon="10.3516055"><ele>951.0</ele><time>2026-04-26T14:33:00.351Z</time></trkpt><trkpt lat="46.3363187" lon="10.3516499"><ele>951.0</ele><time>2026-04-26T14:33:01.354Z</time></trkpt><trkpt lat="46.3362469" lon="10.3516997"><ele>951.0</ele><time>2026-04-26T14:33:02.355Z</time></trkpt><trkpt lat="46.3361751" lon="10.3517467"><ele>951.0</ele><time>2026-04-26T14:33:03.36Z</time></trkpt><trkpt lat="46.3361101" lon="10.3518815"><ele>951.0</ele><time>2026-04-26T14:33:05.352Z</time></trkpt><trkpt lat="46.336084" lon="10.3519692"><ele>951.0</ele><time>2026-04-26T14:33:06.356Z</time></trkpt><trkpt lat="46.3361037" lon="10.3521144"><ele>951.0</ele><time>2026-04-26T14:33:07.357Z</time></trkpt><trkpt lat="46.3361222" lon="10.3522376"><ele>951.0</ele><time>2026-04-26T14:33:08.351Z</time></trkpt><trkpt lat="46.3361412" lon="10.3523538"><ele>951.0</ele><time>2026-04-26T14:33:09.359Z</time></trkpt><trkpt lat="46.3361644" lon="10.3524496"><ele>951.0</ele><time>2026-04-26T14:33:10.362Z</time></trkpt><trkpt lat="46.3362086" lon="10.3525212"><ele>951.0</ele><time>2026-04-26T14:33:11.357Z</time></trkpt><trkpt lat="46.3363076" lon="10.3525199"><ele>953.0</ele><time>2026-04-26T14:33:12.354Z</time></trkpt><trkpt lat="46.3364309" lon="10.3525013"><ele>955.0</ele><time>2026-04-26T14:33:13.352Z</time></trkpt><trkpt lat="46.3364962" lon="10.3525585"><ele>957.0</ele><time>2026-04-26T14:33:15.353Z</time></trkpt><trkpt lat="46.3364656" lon="10.3526473"><ele>959.0</ele><time>2026-04-26T14:33:17.356Z</time></trkpt><trkpt lat="46.3364023" lon="10.3526785"><ele>961.0</ele><time>2026-04-26T14:33:18.356Z</time></trkpt><trkpt lat="46.336328" lon="10.3527975"><ele>963.0</ele><time>2026-04-26T14:33:20.366Z</time></trkpt><trkpt lat="46.3363338" lon="10.3529164"><ele>965.75</ele><time>2026-04-26T14:33:21.354Z</time></trkpt><trkpt lat="46.336356" lon="10.3530591"><ele>968.5</ele><time>2026-04-26T14:33:22.354Z</time></trkpt><trkpt lat="46.3364003" lon="10.3532197"><ele>971.25</ele><time>2026-04-26T14:33:23.354Z</time></trkpt><trkpt lat="46.3364587" lon="10.3533985"><ele>974.0</ele><time>2026-04-26T14:33:24.356Z</time></trkpt><trkpt lat="46.3365142" lon="10.3535578"><ele>975.0</ele><time>2026-04-26T14:33:25.356Z</time></trkpt><trkpt lat="46.3365592" lon="10.3536917"><ele>976.0000000000001</ele><time>2026-04-26T14:33:26.355Z</time></trkpt><trkpt lat="46.3366526" lon="10.3537875"><ele>977.0000000000001</ele><time>2026-04-26T14:33:28.356Z</time></trkpt><trkpt lat="46.3367636" lon="10.3537841"><ele>978.0</ele><time>2026-04-26T14:33:30.354Z</time></trkpt><trkpt lat="46.3368301" lon="10.3537477"><ele>979.0</ele><time>2026-04-26T14:33:31.354Z</time></trkpt><trkpt lat="46.3368876" lon="10.3536837"><ele>979.0</ele><time>2026-04-26T14:33:32.355Z</time></trkpt><trkpt lat="46.336962" lon="10.3536999"><ele>979.0000000000001</ele><time>2026-04-26T14:33:34.354Z</time></trkpt><trkpt lat="46.3369759" lon="10.3537934"><ele>979.0000000000001</ele><time>2026-04-26T14:33:37.356Z</time></trkpt><trkpt lat="46.3369555" lon="10.353927"><ele>979.0</ele><time>2026-04-26T14:33:39.354Z</time></trkpt><trkpt lat="46.3369101" lon="10.3541697"><ele>979.0</ele><time>2026-04-26T14:33:40.356Z</time></trkpt><trkpt lat="46.3368863" lon="10.3543737"><ele>981.5</ele><time>2026-04-26T14:33:41.356Z</time></trkpt><trkpt lat="46.3368794" lon="10.3545497"><ele>984.0</ele><time>2026-04-26T14:33:42.354Z</time></trkpt><trkpt lat="46.3368728" lon="10.3547192"><ele>986.5</ele><time>2026-04-26T14:33:43.358Z</time></trkpt><trkpt lat="46.3368559" lon="10.3548927"><ele>989.0</ele><time>2026-04-26T14:33:44.359Z</time></trkpt><trkpt lat="46.3368336" lon="10.3550726"><ele>993.0</ele><time>2026-04-26T14:33:45.359Z</time></trkpt><trkpt lat="46.3368112" lon="10.3552639"><ele>997.0</ele><time>2026-04-26T14:33:46.357Z</time></trkpt><trkpt lat="46.336788" lon="10.3554765"><ele>1001.0</ele><time>2026-04-26T14:33:47.357Z</time></trkpt><trkpt lat="46.3367603" lon="10.3557147"><ele>1005.0</ele><time>2026-04-26T14:33:48.354Z</time></trkpt><trkpt lat="46.3367312" lon="10.3559538"><ele>1008.0</ele><time>2026-04-26T14:33:49.357Z</time></trkpt><trkpt lat="46.3367089" lon="10.3561748"><ele>1011.0</ele><time>2026-04-26T14:33:50.356Z</time></trkpt><trkpt lat="46.3366863" lon="10.3563724"><ele>1014.0</ele><time>2026-04-26T14:33:51.358Z</time></trkpt><trkpt lat="46.3366571" lon="10.3565465"><ele>1017.0</ele><time>2026-04-26T14:33:52.357Z</time></trkpt><trkpt lat="46.3366201" lon="10.3566913"><ele>1018.8333333333334</ele><time>2026-04-26T14:33:53.352Z</time></trkpt><trkpt lat="46.336589" lon="10.356812"><ele>1020.6666666666667</ele><time>2026-04-26T14:33:54.357Z</time></trkpt><trkpt lat="46.3365689" lon="10.3569306"><ele>1022.5</ele><time>2026-04-26T14:33:55.355Z</time></trkpt><trkpt lat="46.3365578" lon="10.3570537"><ele>1024.3333333333335</ele><time>2026-04-26T14:33:56.352Z</time></trkpt><trkpt lat="46.3365477" lon="10.3571571"><ele>1026.1666666666667</ele><time>2026-04-26T14:33:57.356Z</time></trkpt><trkpt lat="46.3364758" lon="10.3572904"><ele>1028.0</ele><time>2026-04-26T14:33:59.358Z</time></trkpt><trkpt lat="46.3364172" lon="10.3573599"><ele>1035.3333333333335</ele><time>2026-04-26T14:34:00.356Z</time></trkpt><trkpt lat="46.3363619" lon="10.3574431"><ele>1042.6666666666667</ele><time>2026-04-26T14:34:01.356Z</time></trkpt><trkpt lat="46.3363203" lon="10.3575368"><ele>1050.0</ele><time>2026-04-26T14:34:02.356Z</time></trkpt><trkpt lat="46.3362997" lon="10.357631"><ele>1057.3333333333333</ele><time>2026-04-26T14:34:03.354Z</time></trkpt><trkpt lat="46.3362984" lon="10.3577308"><ele>1064.6666666666665</ele><time>2026-04-26T14:34:04.356Z</time></trkpt><trkpt lat="46.3363112" lon="10.3578557"><ele>1072.0</ele><time>2026-04-26T14:34:05.354Z</time></trkpt><trkpt lat="46.3363121" lon="10.3580089"><ele>1076.75</ele><time>2026-04-26T14:34:06.358Z</time></trkpt><trkpt lat="46.3362912" lon="10.358179"><ele>1081.5</ele><time>2026-04-26T14:34:07.357Z</time></trkpt><trkpt lat="46.3362477" lon="10.3583562"><ele>1086.25</ele><time>2026-04-26T14:34:08.352Z</time></trkpt><trkpt lat="46.3361918" lon="10.358529"><ele>1091.0</ele><time>2026-04-26T14:34:09.355Z</time></trkpt><trkpt lat="46.3361223" lon="10.35871"><ele>1095.8</ele><time>2026-04-26T14:34:10.359Z</time></trkpt><trkpt lat="46.336045" lon="10.3588846"><ele>1100.6</ele><time>2026-04-26T14:34:11.358Z</time></trkpt><trkpt lat="46.3359725" lon="10.359051"><ele>1105.4</ele><time>2026-04-26T14:34:12.355Z</time></trkpt><trkpt lat="46.3359254" lon="10.3591757"><ele>1110.2</ele><time>2026-04-26T14:34:13.351Z</time></trkpt><trkpt lat="46.3359036" lon="10.3592751"><ele>1115.0</ele><time>2026-04-26T14:34:14.35Z</time></trkpt><trkpt lat="46.3359098" lon="10.3594625"><ele>1115.0</ele><time>2026-04-26T14:34:16.357Z</time></trkpt><trkpt lat="46.3359061" lon="10.3595745"><ele>1115.0</ele><time>2026-04-26T14:34:17.353Z</time></trkpt><trkpt lat="46.3358966" lon="10.3597067"><ele>1115.0</ele><time>2026-04-26T14:34:18.358Z</time></trkpt><trkpt lat="46.3358766" lon="10.3598955"><ele>1115.0</ele><time>2026-04-26T14:34:19.36Z</time></trkpt><trkpt lat="46.3358481" lon="10.3600807"><ele>1115.0</ele><time>2026-04-26T14:34:20.356Z</time></trkpt><trkpt lat="46.3358119" lon="10.3602409"><ele>1114.6666666666667</ele><time>2026-04-26T14:34:21.356Z</time></trkpt><trkpt lat="46.3357705" lon="10.3603886"><ele>1114.3333333333335</ele><time>2026-04-26T14:34:22.36Z</time></trkpt><trkpt lat="46.3357301" lon="10.3605067"><ele>1114.0</ele><time>2026-04-26T14:34:23.359Z</time></trkpt><trkpt lat="46.3356865" lon="10.3605881"><ele>1113.6666666666667</ele><time>2026-04-26T14:34:24.36Z</time></trkpt><trkpt lat="46.3356343" lon="10.3606487"><ele>1113.3333333333333</ele><time>2026-04-26T14:34:25.354Z</time></trkpt><trkpt lat="46.3355869" lon="10.3607211"><ele>1113.0</ele><time>2026-04-26T14:34:26.352Z</time></trkpt><trkpt lat="46.3355489" lon="10.3607976"><ele>1121.0</ele><time>2026-04-26T14:34:27.351Z</time></trkpt><trkpt lat="46.335548" lon="10.361003"><ele>1129.0</ele><time>2026-04-26T14:34:29.352Z</time></trkpt><trkpt lat="46.3355339" lon="10.3611484"><ele>1137.0</ele><time>2026-04-26T14:34:30.36Z</time></trkpt><trkpt lat="46.3355" lon="10.3612632"><ele>1145.0</ele><time>2026-04-26T14:34:31.353Z</time></trkpt><trkpt lat="46.3354583" lon="10.3613576"><ele>1153.0</ele><time>2026-04-26T14:34:32.357Z</time></trkpt><trkpt lat="46.3354121" lon="10.3614366"><ele>1153.0</ele><time>2026-04-26T14:34:33.356Z</time></trkpt><trkpt lat="46.3353794" lon="10.3615174"><ele>1153.0</ele><time>2026-04-26T14:34:34.363Z</time></trkpt><trkpt lat="46.3353642" lon="10.3616505"><ele>1153.0</ele><time>2026-04-26T14:34:36.352Z</time></trkpt><trkpt lat="46.3354079" lon="10.3618014"><ele>1153.0</ele><time>2026-04-26T14:34:38.364Z</time></trkpt><trkpt lat="46.3354234" lon="10.3619088"><ele>1153.0</ele><time>2026-04-26T14:34:39.359Z</time></trkpt><trkpt lat="46.3354075" lon="10.3620192"><ele>1153.0</ele><time>2026-04-26T14:34:40.358Z</time></trkpt><trkpt lat="46.3353943" lon="10.3621271"><ele>1154.0</ele><time>2026-04-26T14:34:41.351Z</time></trkpt><trkpt lat="46.3353825" lon="10.3622394"><ele>1155.0</ele><time>2026-04-26T14:34:42.354Z</time></trkpt><trkpt lat="46.3353565" lon="10.3623964"><ele>1156.0</ele><time>2026-04-26T14:34:43.354Z</time></trkpt><trkpt lat="46.3353134" lon="10.3625785"><ele>1157.0</ele><time>2026-04-26T14:34:44.352Z</time></trkpt><trkpt lat="46.3352795" lon="10.3627528"><ele>1158.0</ele><time>2026-04-26T14:34:45.357Z</time></trkpt><trkpt lat="46.3352396" lon="10.3629456"><ele>1160.6</ele><time>2026-04-26T14:34:46.354Z</time></trkpt><trkpt lat="46.3352078" lon="10.3631266"><ele>1163.1999999999998</ele><time>2026-04-26T14:34:47.353Z</time></trkpt><trkpt lat="46.3351779" lon="10.3633026"><ele>1165.8</ele><time>2026-04-26T14:34:48.352Z</time></trkpt><trkpt lat="46.3351505" lon="10.3634615"><ele>1168.3999999999999</ele><time>2026-04-26T14:34:49.353Z</time></trkpt><trkpt lat="46.3351248" lon="10.3635742"><ele>1171.0</ele><time>2026-04-26T14:34:50.356Z</time></trkpt><trkpt lat="46.3350925" lon="10.3636555"><ele>1171.0</ele><time>2026-04-26T14:34:51.359Z</time></trkpt><trkpt lat="46.3350185" lon="10.363775"><ele>1171.0</ele><time>2026-04-26T14:34:53.354Z</time></trkpt><trkpt lat="46.3349683" lon="10.3638332"><ele>1171.0</ele><time>2026-04-26T14:34:55.354Z</time></trkpt><trkpt lat="46.3349908" lon="10.3639201"><ele>1171.0</ele><time>2026-04-26T14:35:31.359Z</time></trkpt><trkpt lat="46.3350113" lon="10.364049"><ele>1171.0</ele><time>2026-04-26T14:35:36.355Z</time></trkpt><trkpt lat="46.3350908" lon="10.3640587"><ele>1171.0</ele><time>2026-04-26T14:35:40.353Z</time></trkpt><trkpt lat="46.3351589" lon="10.3640908"><ele>1172.25</ele><time>2026-04-26T14:35:43.354Z</time></trkpt><trkpt lat="46.3351599" lon="10.3642062"><ele>1173.5</ele><time>2026-04-26T14:35:46.354Z</time></trkpt><trkpt lat="46.3351517" lon="10.3643139"><ele>1174.75</ele><time>2026-04-26T14:35:48.36Z</time></trkpt><trkpt lat="46.3351768" lon="10.3644521"><ele>1176.0</ele><time>2026-04-26T14:35:50.35Z</time></trkpt><trkpt lat="46.3352776" lon="10.3647744"><ele>1178.1666666666667</ele><time>2026-04-26T14:35:52.359Z</time></trkpt><trkpt lat="46.3353035" lon="10.364916"><ele>1180.3333333333333</ele><time>2026-04-26T14:35:53.355Z</time></trkpt><trkpt lat="46.3353024" lon="10.3650248"><ele>1182.5</ele><time>2026-04-26T14:35:54.355Z</time></trkpt><trkpt lat="46.335266" lon="10.3651213"><ele>1184.6666666666665</ele><time>2026-04-26T14:35:55.359Z</time></trkpt><trkpt lat="46.3352143" lon="10.3652126"><ele>1186.8333333333333</ele><time>2026-04-26T14:35:56.354Z</time></trkpt><trkpt lat="46.3351754" lon="10.365301"><ele>1189.0</ele><time>2026-04-26T14:35:57.352Z</time></trkpt><trkpt lat="46.3351475" lon="10.3653904"><ele>1189.0</ele><time>2026-04-26T14:35:58.358Z</time></trkpt><trkpt lat="46.3351164" lon="10.3654745"><ele>1189.0</ele><time>2026-04-26T14:35:59.352Z</time></trkpt><trkpt lat="46.3350778" lon="10.3655522"><ele>1189.0</ele><time>2026-04-26T14:36:00.356Z</time></trkpt><trkpt lat="46.3350281" lon="10.3657235"><ele>1189.0</ele><time>2026-04-26T14:36:02.351Z</time></trkpt><trkpt lat="46.3350015" lon="10.3658234"><ele>1189.0</ele><time>2026-04-26T14:36:03.355Z</time></trkpt><trkpt lat="46.334979" lon="10.3659249"><ele>1189.0</ele><time>2026-04-26T14:36:04.352Z</time></trkpt><trkpt lat="46.3349638" lon="10.3660146"><ele>1192.5</ele><time>2026-04-26T14:36:05.356Z</time></trkpt><trkpt lat="46.3349815" lon="10.3661618"><ele>1196.0</ele><time>2026-04-26T14:36:07.352Z</time></trkpt><trkpt lat="46.3350351" lon="10.3662914"><ele>1199.5</ele><time>2026-04-26T14:36:09.362Z</time></trkpt><trkpt lat="46.3349693" lon="10.3663089"><ele>1203.0</ele><time>2026-04-26T14:36:20.355Z</time></trkpt><trkpt lat="46.3349698" lon="10.3662133"><ele>1206.5</ele><time>2026-04-26T14:36:57.353Z</time></trkpt><trkpt lat="46.3349807" lon="10.3660946"><ele>1210.0</ele><time>2026-04-26T14:37:00.355Z</time></trkpt><trkpt lat="46.3349692" lon="10.3660012"><ele>1210.0</ele><time>2026-04-26T14:37:03.354Z</time></trkpt><trkpt lat="46.3350104" lon="10.365794"><ele>1210.0</ele><time>2026-04-26T14:37:05.361Z</time></trkpt><trkpt lat="46.3350283" lon="10.3655656"><ele>1210.0</ele><time>2026-04-26T14:37:06.36Z</time></trkpt><trkpt lat="46.3350573" lon="10.3654786"><ele>1210.0</ele><time>2026-04-26T14:37:07.348Z</time></trkpt><trkpt lat="46.335089" lon="10.3653844"><ele>1210.0</ele><time>2026-04-26T14:37:08.351Z</time></trkpt><trkpt lat="46.3351123" lon="10.3652992"><ele>1205.8</ele><time>2026-04-26T14:37:09.359Z</time></trkpt><trkpt lat="46.3351361" lon="10.3651884"><ele>1201.6</ele><time>2026-04-26T14:37:10.361Z</time></trkpt><trkpt lat="46.3351978" lon="10.3650336"><ele>1197.4</ele><time>2026-04-26T14:37:12.356Z</time></trkpt><trkpt lat="46.3352914" lon="10.36494"><ele>1193.2</ele><time>2026-04-26T14:37:14.353Z</time></trkpt><trkpt lat="46.3352868" lon="10.3648145"><ele>1189.0</ele><time>2026-04-26T14:37:16.357Z</time></trkpt><trkpt lat="46.3352242" lon="10.3646935"><ele>1186.8333333333333</ele><time>2026-04-26T14:37:18.354Z</time></trkpt><trkpt lat="46.3351883" lon="10.3646016"><ele>1184.6666666666665</ele><time>2026-04-26T14:37:19.368Z</time></trkpt><trkpt lat="46.3351639" lon="10.3644918"><ele>1182.5</ele><time>2026-04-26T14:37:20.364Z</time></trkpt><trkpt lat="46.3351517" lon="10.3644"><ele>1180.3333333333333</ele><time>2026-04-26T14:37:21.357Z</time></trkpt><trkpt lat="46.3351304" lon="10.3642326"><ele>1178.1666666666667</ele><time>2026-04-26T14:37:23.353Z</time></trkpt><trkpt lat="46.3351454" lon="10.3641424"><ele>1176.0</ele><time>2026-04-26T14:37:24.352Z</time></trkpt><trkpt lat="46.3351903" lon="10.3640624"><ele>1176.0</ele><time>2026-04-26T14:37:26.36Z</time></trkpt><trkpt lat="46.3351388" lon="10.3639845"><ele>1176.0</ele><time>2026-04-26T14:37:29.362Z</time></trkpt><trkpt lat="46.3350578" lon="10.3639961"><ele>1176.0</ele><time>2026-04-26T14:37:32.358Z</time></trkpt><trkpt lat="46.3349891" lon="10.3639113"><ele>1176.0</ele><time>2026-04-26T14:37:35.354Z</time></trkpt><trkpt lat="46.3349646" lon="10.3637928"><ele>1176.0</ele><time>2026-04-26T14:37:37.356Z</time></trkpt><trkpt lat="46.3349683" lon="10.3636789"><ele>1176.0</ele><time>2026-04-26T14:37:39.359Z</time></trkpt><trkpt lat="46.3350386" lon="10.3635066"><ele>1175.0</ele><time>2026-04-26T14:37:40.353Z</time></trkpt><trkpt lat="46.3350356" lon="10.3633244"><ele>1174.0</ele><time>2026-04-26T14:37:41.349Z</time></trkpt><trkpt lat="46.335074" lon="10.3632156"><ele>1173.0</ele><time>2026-04-26T14:37:42.354Z</time></trkpt><trkpt lat="46.3351271" lon="10.3630906"><ele>1172.0</ele><time>2026-04-26T14:37:43.351Z</time></trkpt><trkpt lat="46.3351658" lon="10.362946"><ele>1171.0</ele><time>2026-04-26T14:37:44.362Z</time></trkpt><trkpt lat="46.3351881" lon="10.3627951"><ele>1168.3999999999999</ele><time>2026-04-26T14:37:45.358Z</time></trkpt><trkpt lat="46.3352166" lon="10.3626517"><ele>1165.8</ele><time>2026-04-26T14:37:46.352Z</time></trkpt><trkpt lat="46.3352556" lon="10.3625187"><ele>1163.1999999999998</ele><time>2026-04-26T14:37:47.356Z</time></trkpt><trkpt lat="46.3352588" lon="10.3623315"><ele>1160.6</ele><time>2026-04-26T14:37:48.354Z</time></trkpt><trkpt lat="46.3353069" lon="10.3621811"><ele>1158.0</ele><time>2026-04-26T14:37:49.353Z</time></trkpt><trkpt lat="46.3353257" lon="10.3620273"><ele>1158.8</ele><time>2026-04-26T14:37:50.356Z</time></trkpt><trkpt lat="46.3353515" lon="10.3618781"><ele>1159.6</ele><time>2026-04-26T14:37:51.352Z</time></trkpt><trkpt lat="46.335364" lon="10.361738"><ele>1160.4</ele><time>2026-04-26T14:37:52.355Z</time></trkpt><trkpt lat="46.3353711" lon="10.3615756"><ele>1161.2</ele><time>2026-04-26T14:37:53.354Z</time></trkpt><trkpt lat="46.3353863" lon="10.3614542"><ele>1162.0</ele><time>2026-04-26T14:37:55.355Z</time></trkpt><trkpt lat="46.3354312" lon="10.3613252"><ele>1162.0</ele><time>2026-04-26T14:37:57.355Z</time></trkpt><trkpt lat="46.3354969" lon="10.3612363"><ele>1162.0</ele><time>2026-04-26T14:37:59.352Z</time></trkpt><trkpt lat="46.3355307" lon="10.3611591"><ele>1162.0</ele><time>2026-04-26T14:38:01.358Z</time></trkpt><trkpt lat="46.335561" lon="10.3610295"><ele>1162.0</ele><time>2026-04-26T14:38:04.358Z</time></trkpt><trkpt lat="46.3355949" lon="10.3609068"><ele>1162.0</ele><time>2026-04-26T14:38:05.357Z</time></trkpt><trkpt lat="46.3356717" lon="10.3604691"><ele>1152.2</ele><time>2026-04-26T14:38:06.359Z</time></trkpt><trkpt lat="46.335716" lon="10.3603667"><ele>1142.4</ele><time>2026-04-26T14:38:07.353Z</time></trkpt><trkpt lat="46.3357637" lon="10.3602361"><ele>1132.6</ele><time>2026-04-26T14:38:08.348Z</time></trkpt><trkpt lat="46.3357918" lon="10.3600828"><ele>1122.8</ele><time>2026-04-26T14:38:09.356Z</time></trkpt><trkpt lat="46.3358777" lon="10.3599878"><ele>1113.0</ele><time>2026-04-26T14:38:10.356Z</time></trkpt><trkpt lat="46.3359144" lon="10.3598335"><ele>1113.4</ele><time>2026-04-26T14:38:11.356Z</time></trkpt><trkpt lat="46.3359378" lon="10.3596951"><ele>1113.8</ele><time>2026-04-26T14:38:12.354Z</time></trkpt><trkpt lat="46.3359754" lon="10.3595507"><ele>1114.2</ele><time>2026-04-26T14:38:13.352Z</time></trkpt><trkpt lat="46.3360161" lon="10.3594346"><ele>1114.6</ele><time>2026-04-26T14:38:14.355Z</time></trkpt><trkpt lat="46.3360206" lon="10.3592954"><ele>1115.0</ele><time>2026-04-26T14:38:15.351Z</time></trkpt><trkpt lat="46.3360324" lon="10.3591868"><ele>1115.0</ele><time>2026-04-26T14:38:16.352Z</time></trkpt><trkpt lat="46.3360569" lon="10.3590956"><ele>1115.0</ele><time>2026-04-26T14:38:17.351Z</time></trkpt><trkpt lat="46.3360799" lon="10.3589843"><ele>1115.0</ele><time>2026-04-26T14:38:18.352Z</time></trkpt><trkpt lat="46.3361085" lon="10.3588755"><ele>1115.0</ele><time>2026-04-26T14:38:19.355Z</time></trkpt><trkpt lat="46.3362357" lon="10.3588268"><ele>1115.0</ele><time>2026-04-26T14:38:20.354Z</time></trkpt><trkpt lat="46.3362618" lon="10.3586694"><ele>1109.0</ele><time>2026-04-26T14:38:21.35Z</time></trkpt><trkpt lat="46.3362998" lon="10.3585286"><ele>1103.0</ele><time>2026-04-26T14:38:22.356Z</time></trkpt><trkpt lat="46.336338" lon="10.3583823"><ele>1097.0</ele><time>2026-04-26T14:38:23.351Z</time></trkpt><trkpt lat="46.3363492" lon="10.3582188"><ele>1091.0</ele><time>2026-04-26T14:38:24.356Z</time></trkpt><trkpt lat="46.3363583" lon="10.3580328"><ele>1087.2</ele><time>2026-04-26T14:38:25.354Z</time></trkpt><trkpt lat="46.3363734" lon="10.3578803"><ele>1083.3999999999999</ele><time>2026-04-26T14:38:26.357Z</time></trkpt><trkpt lat="46.336376" lon="10.3577297"><ele>1079.6</ele><time>2026-04-26T14:38:27.357Z</time></trkpt><trkpt lat="46.3363844" lon="10.3575913"><ele>1075.8</ele><time>2026-04-26T14:38:28.354Z</time></trkpt><trkpt lat="46.3363767" lon="10.3574717"><ele>1072.0</ele><time>2026-04-26T14:38:29.354Z</time></trkpt><trkpt lat="46.33646" lon="10.3573581"><ele>1067.3333333333333</ele><time>2026-04-26T14:38:31.355Z</time></trkpt><trkpt lat="46.3365191" lon="10.3572514"><ele>1062.6666666666665</ele><time>2026-04-26T14:38:32.361Z</time></trkpt><trkpt lat="46.3365757" lon="10.3571348"><ele>1058.0</ele><time>2026-04-26T14:38:33.353Z</time></trkpt><trkpt lat="46.3366255" lon="10.3570422"><ele>1053.3333333333333</ele><time>2026-04-26T14:38:34.353Z</time></trkpt><trkpt lat="46.3366562" lon="10.3569563"><ele>1048.6666666666667</ele><time>2026-04-26T14:38:35.353Z</time></trkpt><trkpt lat="46.3366564" lon="10.3568302"><ele>1044.0</ele><time>2026-04-26T14:38:36.356Z</time></trkpt><trkpt lat="46.3366444" lon="10.3566995"><ele>1040.8</ele><time>2026-04-26T14:38:37.357Z</time></trkpt><trkpt lat="46.3366792" lon="10.3564909"><ele>1037.6000000000001</ele><time>2026-04-26T14:38:39.355Z</time></trkpt><trkpt lat="46.3367028" lon="10.356359"><ele>1034.4</ele><time>2026-04-26T14:38:40.358Z</time></trkpt><trkpt lat="46.3367209" lon="10.3562265"><ele>1031.2</ele><time>2026-04-26T14:38:41.357Z</time></trkpt><trkpt lat="46.3367263" lon="10.3561045"><ele>1028.0</ele><time>2026-04-26T14:38:42.36Z</time></trkpt><trkpt lat="46.3367321" lon="10.355986"><ele>1025.8</ele><time>2026-04-26T14:38:43.358Z</time></trkpt><trkpt lat="46.3367359" lon="10.355866"><ele>1023.5999999999999</ele><time>2026-04-26T14:38:44.363Z</time></trkpt><trkpt lat="46.3367385" lon="10.3557447"><ele>1021.4000000000001</ele><time>2026-04-26T14:38:45.355Z</time></trkpt><trkpt lat="46.336749" lon="10.3556404"><ele>1019.2</ele><time>2026-04-26T14:38:46.358Z</time></trkpt><trkpt lat="46.3367569" lon="10.3555269"><ele>1017.0</ele><time>2026-04-26T14:38:47.353Z</time></trkpt><trkpt lat="46.3367683" lon="10.355328"><ele>1014.6</ele><time>2026-04-26T14:38:49.359Z</time></trkpt><trkpt lat="46.3367853" lon="10.3551835"><ele>1012.2</ele><time>2026-04-26T14:38:51.354Z</time></trkpt><trkpt lat="46.3367984" lon="10.3550863"><ele>1009.8</ele><time>2026-04-26T14:38:53.356Z</time></trkpt><trkpt lat="46.3368137" lon="10.3549463"><ele>1007.4</ele><time>2026-04-26T14:38:56.362Z</time></trkpt><trkpt lat="46.3368239" lon="10.3548399"><ele>1005.0</ele><time>2026-04-26T14:38:59.359Z</time></trkpt><trkpt lat="46.3368431" lon="10.3546828"><ele>1002.3333333333334</ele><time>2026-04-26T14:39:02.356Z</time></trkpt><trkpt lat="46.336855" lon="10.3545375"><ele>999.6666666666667</ele><time>2026-04-26T14:39:03.36Z</time></trkpt><trkpt lat="46.3368624" lon="10.3544387"><ele>997.0</ele><time>2026-04-26T14:39:04.351Z</time></trkpt><trkpt lat="46.3368479" lon="10.3543342"><ele>994.3333333333334</ele><time>2026-04-26T14:39:07.356Z</time></trkpt><trkpt lat="46.3367854" lon="10.3543511"><ele>991.6666666666667</ele><time>2026-04-26T14:39:10.353Z</time></trkpt><trkpt lat="46.3367602" lon="10.3545197"><ele>989.0</ele><time>2026-04-26T14:39:14.355Z</time></trkpt><trkpt lat="46.3367446" lon="10.3546594"><ele>991.6666666666667</ele><time>2026-04-26T14:39:15.365Z</time></trkpt><trkpt lat="46.3367152" lon="10.3548449"><ele>994.3333333333334</ele><time>2026-04-26T14:39:16.353Z</time></trkpt><trkpt lat="46.3366583" lon="10.3548887"><ele>997.0</ele><time>2026-04-26T14:39:20.355Z</time></trkpt><trkpt lat="46.3365574" lon="10.3548422"><ele>999.6666666666667</ele><time>2026-04-26T14:39:23.353Z</time></trkpt><trkpt lat="46.3364825" lon="10.354855"><ele>1002.3333333333334</ele><time>2026-04-26T14:39:31.355Z</time></trkpt><trkpt lat="46.3364348" lon="10.3549225"><ele>1005.0</ele><time>2026-04-26T14:39:34.353Z</time></trkpt><trkpt lat="46.3364049" lon="10.3550327"><ele>1005.0</ele><time>2026-04-26T14:39:37.354Z</time></trkpt><trkpt lat="46.3364051" lon="10.3551334"><ele>1005.0</ele><time>2026-04-26T14:39:39.355Z</time></trkpt><trkpt lat="46.3364088" lon="10.3552504"><ele>1005.0</ele><time>2026-04-26T14:39:41.354Z</time></trkpt><trkpt lat="46.3363937" lon="10.3554252"><ele>1005.0</ele><time>2026-04-26T14:39:42.359Z</time></trkpt><trkpt lat="46.3363616" lon="10.3555666"><ele>1005.0</ele><time>2026-04-26T14:39:43.353Z</time></trkpt><trkpt lat="46.336337" lon="10.3556781"><ele>1005.1428571428573</ele><time>2026-04-26T14:39:46.351Z</time></trkpt><trkpt lat="46.3363438" lon="10.3555778"><ele>1005.2857142857143</ele><time>2026-04-26T14:41:06.355Z</time></trkpt><trkpt lat="46.3363712" lon="10.3556842"><ele>1005.4285714285716</ele><time>2026-04-26T14:41:19.358Z</time></trkpt><trkpt lat="46.3364142" lon="10.355752"><ele>1005.5714285714287</ele><time>2026-04-26T14:41:26.354Z</time></trkpt><trkpt lat="46.336449" lon="10.3558463"><ele>1005.7142857142858</ele><time>2026-04-26T14:41:31.353Z</time></trkpt><trkpt lat="46.3364219" lon="10.3559301"><ele>1005.8571428571429</ele><time>2026-04-26T14:41:35.355Z</time></trkpt><trkpt lat="46.3363861" lon="10.3558494"><ele>1006.0</ele><time>2026-04-26T14:41:51.36Z</time></trkpt><trkpt lat="46.3363831" lon="10.3557523"><ele>1005.9999999999999</ele><time>2026-04-26T14:42:05.36Z</time></trkpt><trkpt lat="46.3363633" lon="10.3556566"><ele>1006.0</ele><time>2026-04-26T14:42:15.352Z</time></trkpt><trkpt lat="46.3363652" lon="10.3555454"><ele>1006.0</ele><time>2026-04-26T14:42:19.356Z</time></trkpt><trkpt lat="46.3363786" lon="10.3554161"><ele>1006.0</ele><time>2026-04-26T14:42:22.354Z</time></trkpt><trkpt lat="46.3364061" lon="10.3552851"><ele>1005.9999999999999</ele><time>2026-04-26T14:42:24.357Z</time></trkpt><trkpt lat="46.3364521" lon="10.3551375"><ele>1006.0</ele><time>2026-04-26T14:42:26.363Z</time></trkpt><trkpt lat="46.3365153" lon="10.355027"><ele>1005.8333333333333</ele><time>2026-04-26T14:42:28.352Z</time></trkpt><trkpt lat="46.3366037" lon="10.3549766"><ele>1005.6666666666666</ele><time>2026-04-26T14:42:30.355Z</time></trkpt><trkpt lat="46.3366833" lon="10.3549821"><ele>1005.5</ele><time>2026-04-26T14:42:32.355Z</time></trkpt><trkpt lat="46.3367497" lon="10.3550189"><ele>1005.3333333333333</ele><time>2026-04-26T14:42:34.353Z</time></trkpt><trkpt lat="46.336802" lon="10.3550736"><ele>1005.1666666666666</ele><time>2026-04-26T14:42:36.357Z</time></trkpt><trkpt lat="46.3368052" lon="10.3551854"><ele>1005.0</ele><time>2026-04-26T14:42:40.351Z</time></trkpt><trkpt lat="46.3367829" lon="10.3553243"><ele>1005.0</ele><time>2026-04-26T14:42:42.352Z</time></trkpt><trkpt lat="46.3367672" lon="10.3554245"><ele>1005.0</ele><time>2026-04-26T14:42:44.358Z</time></trkpt><trkpt lat="46.3367493" lon="10.3555612"><ele>1005.0</ele><time>2026-04-26T14:42:46.351Z</time></trkpt><trkpt lat="46.3367239" lon="10.3558026"><ele>1005.0</ele><time>2026-04-26T14:42:47.359Z</time></trkpt><trkpt lat="46.3366611" lon="10.3561516"><ele>1005.2</ele><time>2026-04-26T14:42:48.352Z</time></trkpt><trkpt lat="46.3366416" lon="10.35631"><ele>1005.4</ele><time>2026-04-26T14:42:50.356Z</time></trkpt><trkpt lat="46.3365673" lon="10.3562459"><ele>1005.5999999999999</ele><time>2026-04-26T14:42:56.357Z</time></trkpt><trkpt lat="46.3364631" lon="10.3561797"><ele>1005.8</ele><time>2026-04-26T14:42:58.363Z</time></trkpt><trkpt lat="46.3364041" lon="10.3561465"><ele>1006.0</ele><time>2026-04-26T14:42:59.358Z</time></trkpt><trkpt lat="46.3363043" lon="10.3561151"><ele>1006.0</ele><time>2026-04-26T14:43:01.354Z</time></trkpt><trkpt lat="46.3362109" lon="10.3561427"><ele>1006.0000000000001</ele><time>2026-04-26T14:43:03.352Z</time></trkpt><trkpt lat="46.3361476" lon="10.3561563"><ele>1006.0</ele><time>2026-04-26T14:44:23.355Z</time></trkpt><trkpt lat="46.3360935" lon="10.3562067"><ele>1006.0</ele><time>2026-04-26T14:44:25.352Z</time></trkpt><trkpt lat="46.3360244" lon="10.3562478"><ele>1006.0000000000001</ele><time>2026-04-26T14:44:29.353Z</time></trkpt><trkpt lat="46.3359588" lon="10.3562716"><ele>1006.0</ele><time>2026-04-26T14:44:32.358Z</time></trkpt><trkpt lat="46.3358827" lon="10.3562425"><ele>1006.0</ele><time>2026-04-26T14:44:35.359Z</time></trkpt><trkpt lat="46.3357954" lon="10.3561694"><ele>1006.0</ele><time>2026-04-26T14:44:38.36Z</time></trkpt><trkpt lat="46.3357158" lon="10.3561017"><ele>1006.0</ele><time>2026-04-26T14:44:40.356Z</time></trkpt><trkpt lat="46.3356253" lon="10.3560365"><ele>1006.0</ele><time>2026-04-26T14:44:42.35Z</time></trkpt><trkpt lat="46.3353638" lon="10.3558966"><ele>1004.1666666666666</ele><time>2026-04-26T14:44:44.355Z</time></trkpt><trkpt lat="46.3352688" lon="10.3558075"><ele>1002.3333333333333</ele><time>2026-04-26T14:44:46.357Z</time></trkpt><trkpt lat="46.335196" lon="10.3557645"><ele>1000.5</ele><time>2026-04-26T14:44:47.35Z</time></trkpt><trkpt lat="46.3351239" lon="10.3557161"><ele>998.6666666666667</ele><time>2026-04-26T14:44:48.351Z</time></trkpt><trkpt lat="46.3350513" lon="10.3556671"><ele>996.8333333333334</ele><time>2026-04-26T14:44:49.355Z</time></trkpt><trkpt lat="46.3349796" lon="10.3556194"><ele>995.0</ele><time>2026-04-26T14:44:50.357Z</time></trkpt><trkpt lat="46.3349161" lon="10.3555774"><ele>995.0000000000001</ele><time>2026-04-26T14:44:51.352Z</time></trkpt><trkpt lat="46.3348582" lon="10.3555392"><ele>995.0</ele><time>2026-04-26T14:44:52.355Z</time></trkpt><trkpt lat="46.3347974" lon="10.3554969"><ele>995.0</ele><time>2026-04-26T14:44:54.349Z</time></trkpt><trkpt lat="46.3347222" lon="10.3554251"><ele>995.0</ele><time>2026-04-26T14:44:57.349Z</time></trkpt><trkpt lat="46.3346742" lon="10.3553506"><ele>995.0000000000001</ele><time>2026-04-26T14:44:59.35Z</time></trkpt><trkpt lat="46.3346097" lon="10.355294"><ele>995.0</ele><time>2026-04-26T14:45:02.355Z</time></trkpt><trkpt lat="46.3344861" lon="10.3552394"><ele>989.8</ele><time>2026-04-26T14:45:05.352Z</time></trkpt><trkpt lat="46.3343523" lon="10.3551929"><ele>984.6</ele><time>2026-04-26T14:45:06.357Z</time></trkpt><trkpt lat="46.3342888" lon="10.3551116"><ele>979.4000000000001</ele><time>2026-04-26T14:45:13.351Z</time></trkpt><trkpt lat="46.33423" lon="10.3550372"><ele>974.2</ele><time>2026-04-26T14:45:15.36Z</time></trkpt><trkpt lat="46.3341847" lon="10.3549598"><ele>969.0</ele><time>2026-04-26T14:45:19.353Z</time></trkpt><trkpt lat="46.3341358" lon="10.35486"><ele>969.0</ele><time>2026-04-26T14:45:22.351Z</time></trkpt><trkpt lat="46.3340507" lon="10.3547433"><ele>969.0</ele><time>2026-04-26T14:45:23.353Z</time></trkpt><trkpt lat="46.3338326" lon="10.3543747"><ele>965.6</ele><time>2026-04-26T14:45:24.36Z</time></trkpt><trkpt lat="46.3337742" lon="10.3543048"><ele>962.2</ele><time>2026-04-26T14:45:25.352Z</time></trkpt><trkpt lat="46.3337206" lon="10.3542344"><ele>958.8000000000001</ele><time>2026-04-26T14:45:26.351Z</time></trkpt><trkpt lat="46.3336234" lon="10.3541254"><ele>955.4000000000001</ele><time>2026-04-26T14:45:28.357Z</time></trkpt><trkpt lat="46.3335276" lon="10.3540616"><ele>952.0</ele><time>2026-04-26T14:45:30.351Z</time></trkpt><trkpt lat="46.3334534" lon="10.3540112"><ele>951.9999999999999</ele><time>2026-04-26T14:45:32.357Z</time></trkpt><trkpt lat="46.3333895" lon="10.3539643"><ele>952.0</ele><time>2026-04-26T14:45:38.357Z</time></trkpt><trkpt lat="46.3333134" lon="10.3539098"><ele>952.0</ele><time>2026-04-26T14:45:43.357Z</time></trkpt><trkpt lat="46.3332475" lon="10.3538801"><ele>952.0</ele><time>2026-04-26T14:45:45.358Z</time></trkpt><trkpt lat="46.3331521" lon="10.353827"><ele>951.9999999999999</ele><time>2026-04-26T14:45:47.353Z</time></trkpt><trkpt lat="46.3330833" lon="10.3537576"><ele>952.0</ele><time>2026-04-26T14:45:49.358Z</time></trkpt><trkpt lat="46.3330036" lon="10.3537148"><ele>951.6</ele><time>2026-04-26T14:45:52.356Z</time></trkpt><trkpt lat="46.3329321" lon="10.3537645"><ele>951.2</ele><time>2026-04-26T14:45:54.353Z</time></trkpt><trkpt lat="46.3328521" lon="10.3538833"><ele>950.8</ele><time>2026-04-26T14:45:56.358Z</time></trkpt><trkpt lat="46.3327941" lon="10.3539807"><ele>950.4</ele><time>2026-04-26T14:45:57.36Z</time></trkpt><trkpt lat="46.3327241" lon="10.3541045"><ele>950.0</ele><time>2026-04-26T14:45:58.355Z</time></trkpt><trkpt lat="46.3326415" lon="10.3542361"><ele>950.0</ele><time>2026-04-26T14:45:59.354Z</time></trkpt><trkpt lat="46.3325708" lon="10.354347"><ele>950.0</ele><time>2026-04-26T14:46:00.356Z</time></trkpt><trkpt lat="46.3325007" lon="10.3544467"><ele>950.0</ele><time>2026-04-26T14:46:01.354Z</time></trkpt><trkpt lat="46.3324457" lon="10.3545178"><ele>950.0</ele><time>2026-04-26T14:46:02.355Z</time></trkpt><trkpt lat="46.3323389" lon="10.3545658"><ele>950.0</ele><time>2026-04-26T14:46:04.357Z</time></trkpt><trkpt lat="46.3322675" lon="10.3545963"><ele>952.5000000000001</ele><time>2026-04-26T14:46:05.357Z</time></trkpt><trkpt lat="46.3321857" lon="10.3546393"><ele>955.0</ele><time>2026-04-26T14:46:06.359Z</time></trkpt><trkpt lat="46.3321234" lon="10.3546964"><ele>957.5</ele><time>2026-04-26T14:46:07.357Z</time></trkpt><trkpt lat="46.3320592" lon="10.3546939"><ele>960.0</ele><time>2026-04-26T14:46:08.357Z</time></trkpt><trkpt lat="46.3319765" lon="10.3547011"><ele>962.5000000000001</ele><time>2026-04-26T14:46:09.358Z</time></trkpt><trkpt lat="46.3318931" lon="10.3547003"><ele>965.0</ele><time>2026-04-26T14:46:10.351Z</time></trkpt><trkpt lat="46.3318112" lon="10.3547139"><ele>965.0000000000001</ele><time>2026-04-26T14:46:11.36Z</time></trkpt><trkpt lat="46.331734" lon="10.3547322"><ele>965.0</ele><time>2026-04-26T14:46:12.356Z</time></trkpt><trkpt lat="46.3316391" lon="10.3547749"><ele>965.0</ele><time>2026-04-26T14:46:13.353Z</time></trkpt><trkpt lat="46.3315382" lon="10.3547306"><ele>965.0</ele><time>2026-04-26T14:46:15.358Z</time></trkpt><trkpt lat="46.3314756" lon="10.3547036"><ele>965.0000000000001</ele><time>2026-04-26T14:46:16.351Z</time></trkpt><trkpt lat="46.3313923" lon="10.3546999"><ele>965.0</ele><time>2026-04-26T14:46:17.348Z</time></trkpt><trkpt lat="46.3312889" lon="10.3545964"><ele>968.6666666666667</ele><time>2026-04-26T14:46:18.359Z</time></trkpt><trkpt lat="46.3311997" lon="10.3545162"><ele>972.3333333333334</ele><time>2026-04-26T14:46:19.357Z</time></trkpt><trkpt lat="46.3311353" lon="10.354424"><ele>976.0</ele><time>2026-04-26T14:46:20.357Z</time></trkpt><trkpt lat="46.3310668" lon="10.3543525"><ele>979.6666666666667</ele><time>2026-04-26T14:46:21.358Z</time></trkpt><trkpt lat="46.3310036" lon="10.3543487"><ele>983.3333333333334</ele><time>2026-04-26T14:46:22.36Z</time></trkpt><trkpt lat="46.330923" lon="10.3543431"><ele>987.0</ele><time>2026-04-26T14:46:23.349Z</time></trkpt><trkpt lat="46.3308139" lon="10.3543159"><ele>987.0</ele><time>2026-04-26T14:46:24.358Z</time></trkpt><trkpt lat="46.3307071" lon="10.3542635"><ele>987.0</ele><time>2026-04-26T14:46:25.353Z</time></trkpt><trkpt lat="46.3306167" lon="10.3542295"><ele>987.0</ele><time>2026-04-26T14:46:26.351Z</time></trkpt><trkpt lat="46.3305005" lon="10.3542129"><ele>987.0</ele><time>2026-04-26T14:46:28.361Z</time></trkpt><trkpt lat="46.3304179" lon="10.3541821"><ele>987.0</ele><time>2026-04-26T14:46:29.354Z</time></trkpt><trkpt lat="46.3303356" lon="10.3541487"><ele>990.8</ele><time>2026-04-26T14:46:30.356Z</time></trkpt><trkpt lat="46.3302524" lon="10.3540554"><ele>994.6</ele><time>2026-04-26T14:46:31.356Z</time></trkpt><trkpt lat="46.3301863" lon="10.3539942"><ele>998.3999999999999</ele><time>2026-04-26T14:46:32.352Z</time></trkpt><trkpt lat="46.3301153" lon="10.353982"><ele>1002.1999999999999</ele><time>2026-04-26T14:46:33.358Z</time></trkpt><trkpt lat="46.3300139" lon="10.3539333"><ele>1006.0</ele><time>2026-04-26T14:46:34.349Z</time></trkpt><trkpt lat="46.3299069" lon="10.3538997"><ele>1007.6666666666666</ele><time>2026-04-26T14:46:35.352Z</time></trkpt><trkpt lat="46.3298221" lon="10.3538659"><ele>1009.3333333333333</ele><time>2026-04-26T14:46:36.352Z</time></trkpt><trkpt lat="46.3297544" lon="10.3538467"><ele>1011.0</ele><time>2026-04-26T14:46:37.36Z</time></trkpt><trkpt lat="46.3296582" lon="10.3538168"><ele>1012.6666666666667</ele><time>2026-04-26T14:46:38.352Z</time></trkpt><trkpt lat="46.3295793" lon="10.3538038"><ele>1014.3333333333334</ele><time>2026-04-26T14:46:39.354Z</time></trkpt><trkpt lat="46.3295155" lon="10.3538683"><ele>1016.0</ele><time>2026-04-26T14:46:40.354Z</time></trkpt><trkpt lat="46.3294488" lon="10.3539138"><ele>1016.0000000000001</ele><time>2026-04-26T14:46:41.354Z</time></trkpt><trkpt lat="46.3293828" lon="10.3538975"><ele>1016.0</ele><time>2026-04-26T14:46:42.351Z</time></trkpt><trkpt lat="46.3292892" lon="10.3538694"><ele>1016.0</ele><time>2026-04-26T14:46:43.356Z</time></trkpt><trkpt lat="46.3291945" lon="10.3538263"><ele>1016.0</ele><time>2026-04-26T14:46:44.357Z</time></trkpt><trkpt lat="46.3291086" lon="10.3537944"><ele>1016.0000000000001</ele><time>2026-04-26T14:46:45.356Z</time></trkpt><trkpt lat="46.3290307" lon="10.3537602"><ele>1016.0</ele><time>2026-04-26T14:46:46.352Z</time></trkpt><trkpt lat="46.3289483" lon="10.3537643"><ele>1012.8</ele><time>2026-04-26T14:46:47.351Z</time></trkpt><trkpt lat="46.3288545" lon="10.3537217"><ele>1009.5999999999999</ele><time>2026-04-26T14:46:48.354Z</time></trkpt><trkpt lat="46.3287681" lon="10.3536592"><ele>1006.4</ele><time>2026-04-26T14:46:49.35Z</time></trkpt><trkpt lat="46.3286653" lon="10.3536039"><ele>1003.2</ele><time>2026-04-26T14:46:50.354Z</time></trkpt><trkpt lat="46.3285778" lon="10.3535034"><ele>1000.0</ele><time>2026-04-26T14:46:51.356Z</time></trkpt><trkpt lat="46.3285102" lon="10.3534265"><ele>1000.0</ele><time>2026-04-26T14:46:52.351Z</time></trkpt><trkpt lat="46.3284265" lon="10.3532771"><ele>1000.0</ele><time>2026-04-26T14:46:54.35Z</time></trkpt><trkpt lat="46.328368" lon="10.3532047"><ele>1000.0</ele><time>2026-04-26T14:46:55.354Z</time></trkpt><trkpt lat="46.328296" lon="10.3531683"><ele>1000.0</ele><time>2026-04-26T14:46:56.35Z</time></trkpt><trkpt lat="46.3282088" lon="10.3531292"><ele>1000.0</ele><time>2026-04-26T14:46:57.35Z</time></trkpt><trkpt lat="46.3281166" lon="10.3530747"><ele>995.0</ele><time>2026-04-26T14:46:58.353Z</time></trkpt><trkpt lat="46.3280118" lon="10.3530186"><ele>990.0</ele><time>2026-04-26T14:46:59.363Z</time></trkpt><trkpt lat="46.3279396" lon="10.3529492"><ele>985.0</ele><time>2026-04-26T14:47:00.361Z</time></trkpt><trkpt lat="46.3278389" lon="10.3528865"><ele>980.0</ele><time>2026-04-26T14:47:02.352Z</time></trkpt><trkpt lat="46.3277735" lon="10.352826"><ele>975.0</ele><time>2026-04-26T14:47:03.355Z</time></trkpt><trkpt lat="46.3277146" lon="10.3527601"><ele>975.0</ele><time>2026-04-26T14:47:04.356Z</time></trkpt><trkpt lat="46.3276331" lon="10.3527041"><ele>975.0</ele><time>2026-04-26T14:47:06.356Z</time></trkpt><trkpt lat="46.3275674" lon="10.3527211"><ele>975.0</ele><time>2026-04-26T14:47:08.355Z</time></trkpt><trkpt lat="46.3274973" lon="10.3527152"><ele>975.0</ele><time>2026-04-26T14:47:10.359Z</time></trkpt><trkpt lat="46.3274316" lon="10.3527051"><ele>975.0</ele><time>2026-04-26T14:47:12.355Z</time></trkpt><trkpt lat="46.3273646" lon="10.3526836"><ele>975.0</ele><time>2026-04-26T14:47:15.353Z</time></trkpt><trkpt lat="46.3272408" lon="10.3526117"><ele>979.0</ele><time>2026-04-26T14:47:17.355Z</time></trkpt><trkpt lat="46.3271022" lon="10.3525322"><ele>983.0</ele><time>2026-04-26T14:47:18.356Z</time></trkpt><trkpt lat="46.3270324" lon="10.3524786"><ele>987.0</ele><time>2026-04-26T14:47:19.356Z</time></trkpt><trkpt lat="46.3269456" lon="10.3524559"><ele>991.0</ele><time>2026-04-26T14:47:20.353Z</time></trkpt><trkpt lat="46.3268481" lon="10.3524416"><ele>995.0</ele><time>2026-04-26T14:47:21.357Z</time></trkpt><trkpt lat="46.3267248" lon="10.3524425"><ele>995.0</ele><time>2026-04-26T14:47:22.354Z</time></trkpt><trkpt lat="46.326585" lon="10.3524334"><ele>995.0</ele><time>2026-04-26T14:47:23.356Z</time></trkpt><trkpt lat="46.3264614" lon="10.3524101"><ele>995.0</ele><time>2026-04-26T14:47:24.351Z</time></trkpt><trkpt lat="46.32635" lon="10.3523972"><ele>995.0</ele><time>2026-04-26T14:47:25.35Z</time></trkpt><trkpt lat="46.3262313" lon="10.352401"><ele>998.5</ele><time>2026-04-26T14:47:26.357Z</time></trkpt><trkpt lat="46.3261264" lon="10.3523961"><ele>1002.0</ele><time>2026-04-26T14:47:27.356Z</time></trkpt><trkpt lat="46.3260151" lon="10.3523605"><ele>1005.5</ele><time>2026-04-26T14:47:28.355Z</time></trkpt><trkpt lat="46.3258949" lon="10.3523211"><ele>1009.0</ele><time>2026-04-26T14:47:29.354Z</time></trkpt><trkpt lat="46.3257694" lon="10.3522799"><ele>1009.0</ele><time>2026-04-26T14:47:30.358Z</time></trkpt><trkpt lat="46.3256692" lon="10.3522541"><ele>1009.0000000000001</ele><time>2026-04-26T14:47:31.356Z</time></trkpt><trkpt lat="46.325603" lon="10.3522904"><ele>1009.0000000000001</ele><time>2026-04-26T14:47:32.354Z</time></trkpt><trkpt lat="46.3255211" lon="10.3523315"><ele>1009.0</ele><time>2026-04-26T14:47:33.357Z</time></trkpt><trkpt lat="46.3254287" lon="10.3523781"><ele>1009.0</ele><time>2026-04-26T14:47:34.357Z</time></trkpt><trkpt lat="46.3253366" lon="10.3524153"><ele>1012.5</ele><time>2026-04-26T14:47:35.353Z</time></trkpt><trkpt lat="46.325237" lon="10.3524272"><ele>1016.0</ele><time>2026-04-26T14:47:36.355Z</time></trkpt><trkpt lat="46.3251247" lon="10.35242"><ele>1019.5</ele><time>2026-04-26T14:47:37.354Z</time></trkpt><trkpt lat="46.3250062" lon="10.3524272"><ele>1023.0</ele><time>2026-04-26T14:47:38.352Z</time></trkpt><trkpt lat="46.3248249" lon="10.3524041"><ele>1035.5</ele><time>2026-04-26T14:47:41.106Z</time></trkpt><trkpt lat="46.3244973" lon="10.3523162"><ele>1048.0</ele><time>2026-04-26T14:47:42.349Z</time></trkpt><trkpt lat="46.3243396" lon="10.3522615"><ele>1048.0</ele><time>2026-04-26T14:47:43.357Z</time></trkpt><trkpt lat="46.3242128" lon="10.3522298"><ele>1048.0</ele><time>2026-04-26T14:47:44.35Z</time></trkpt><trkpt lat="46.3240892" lon="10.3522404"><ele>1048.0</ele><time>2026-04-26T14:47:45.355Z</time></trkpt><trkpt lat="46.3239702" lon="10.3522656"><ele>1048.0</ele><time>2026-04-26T14:47:46.351Z</time></trkpt><trkpt lat="46.3238469" lon="10.3522815"><ele>1051.75</ele><time>2026-04-26T14:47:47.353Z</time></trkpt><trkpt lat="46.3237165" lon="10.3522891"><ele>1055.5</ele><time>2026-04-26T14:47:48.357Z</time></trkpt><trkpt lat="46.3235851" lon="10.3522982"><ele>1059.25</ele><time>2026-04-26T14:47:49.355Z</time></trkpt><trkpt lat="46.3234814" lon="10.3522729"><ele>1063.0</ele><time>2026-04-26T14:47:50.351Z</time></trkpt><trkpt lat="46.3233711" lon="10.3523048"><ele>1063.0</ele><time>2026-04-26T14:47:53.349Z</time></trkpt><trkpt lat="46.3232974" lon="10.3522947"><ele>1063.0</ele><time>2026-04-26T14:47:54.351Z</time></trkpt><trkpt lat="46.3232295" lon="10.3522627"><ele>1063.0</ele><time>2026-04-26T14:47:55.355Z</time></trkpt><trkpt lat="46.3231402" lon="10.3522385"><ele>1063.0</ele><time>2026-04-26T14:47:56.359Z</time></trkpt><trkpt lat="46.323041" lon="10.3522152"><ele>1063.0</ele><time>2026-04-26T14:47:57.348Z</time></trkpt><trkpt lat="46.3229272" lon="10.3522453"><ele>1064.2</ele><time>2026-04-26T14:47:58.357Z</time></trkpt><trkpt lat="46.3227964" lon="10.3522457"><ele>1065.4</ele><time>2026-04-26T14:47:59.351Z</time></trkpt><trkpt lat="46.3226883" lon="10.3522491"><ele>1066.6000000000001</ele><time>2026-04-26T14:48:00.352Z</time></trkpt><trkpt lat="46.3225781" lon="10.3522105"><ele>1067.8</ele><time>2026-04-26T14:48:01.351Z</time></trkpt><trkpt lat="46.322484" lon="10.3522101"><ele>1069.0</ele><time>2026-04-26T14:48:02.354Z</time></trkpt><trkpt lat="46.3223678" lon="10.3522478"><ele>1067.2</ele><time>2026-04-26T14:48:04.359Z</time></trkpt><trkpt lat="46.3222356" lon="10.3521983"><ele>1065.4</ele><time>2026-04-26T14:48:06.35Z</time></trkpt><trkpt lat="46.32215" lon="10.352127"><ele>1063.6</ele><time>2026-04-26T14:48:08.353Z</time></trkpt><trkpt lat="46.3220681" lon="10.352129"><ele>1061.8</ele><time>2026-04-26T14:48:11.352Z</time></trkpt><trkpt lat="46.3220234" lon="10.3520476"><ele>1060.0</ele><time>2026-04-26T14:48:15.356Z</time></trkpt><trkpt lat="46.3219038" lon="10.3520094"><ele>1060.0</ele><time>2026-04-26T14:48:18.358Z</time></trkpt><trkpt lat="46.3218176" lon="10.3520188"><ele>1060.0</ele><time>2026-04-26T14:48:19.349Z</time></trkpt><trkpt lat="46.3217548" lon="10.3520801"><ele>1060.0</ele><time>2026-04-26T14:48:20.351Z</time></trkpt><trkpt lat="46.321641" lon="10.3521039"><ele>1060.0</ele><time>2026-04-26T14:48:22.357Z</time></trkpt><trkpt lat="46.321517" lon="10.3520429"><ele>1060.0</ele><time>2026-04-26T14:48:24.35Z</time></trkpt><trkpt lat="46.3214338" lon="10.3520086"><ele>1062.4</ele><time>2026-04-26T14:48:25.351Z</time></trkpt><trkpt lat="46.3213161" lon="10.3519802"><ele>1064.8</ele><time>2026-04-26T14:48:26.354Z</time></trkpt><trkpt lat="46.3212083" lon="10.3519752"><ele>1067.2</ele><time>2026-04-26T14:48:27.353Z</time></trkpt><trkpt lat="46.321094" lon="10.3519644"><ele>1069.6</ele><time>2026-04-26T14:48:28.351Z</time></trkpt><trkpt lat="46.3210217" lon="10.3519196"><ele>1072.0</ele><time>2026-04-26T14:48:29.361Z</time></trkpt><trkpt lat="46.3209199" lon="10.3518642"><ele>1072.0</ele><time>2026-04-26T14:48:30.363Z</time></trkpt><trkpt lat="46.3208007" lon="10.3518426"><ele>1072.0</ele><time>2026-04-26T14:48:31.352Z</time></trkpt><trkpt lat="46.3206776" lon="10.351818"><ele>1072.0</ele><time>2026-04-26T14:48:32.354Z</time></trkpt><trkpt lat="46.3205684" lon="10.3518053"><ele>1072.0</ele><time>2026-04-26T14:48:33.354Z</time></trkpt><trkpt lat="46.3204088" lon="10.3518623"><ele>1073.0</ele><time>2026-04-26T14:48:35.356Z</time></trkpt><trkpt lat="46.3202962" lon="10.3518547"><ele>1074.0</ele><time>2026-04-26T14:48:36.354Z</time></trkpt><trkpt lat="46.3201655" lon="10.3518597"><ele>1075.0</ele><time>2026-04-26T14:48:37.352Z</time></trkpt><trkpt lat="46.3200308" lon="10.3518661"><ele>1076.0</ele><time>2026-04-26T14:48:38.352Z</time></trkpt><trkpt lat="46.3199188" lon="10.3518404"><ele>1076.0</ele><time>2026-04-26T14:48:39.354Z</time></trkpt><trkpt lat="46.3198331" lon="10.3517778"><ele>1076.0</ele><time>2026-04-26T14:48:40.356Z</time></trkpt><trkpt lat="46.3197388" lon="10.3517347"><ele>1076.0</ele><time>2026-04-26T14:48:41.352Z</time></trkpt><trkpt lat="46.3196392" lon="10.351691"><ele>1076.0</ele><time>2026-04-26T14:48:42.356Z</time></trkpt><trkpt lat="46.3195619" lon="10.3516127"><ele>1076.0</ele><time>2026-04-26T14:48:43.356Z</time></trkpt><trkpt lat="46.3194815" lon="10.3515305"><ele>1078.5</ele><time>2026-04-26T14:48:44.352Z</time></trkpt><trkpt lat="46.3194124" lon="10.3514052"><ele>1081.0</ele><time>2026-04-26T14:48:45.359Z</time></trkpt><trkpt lat="46.3193517" lon="10.3512279"><ele>1083.5</ele><time>2026-04-26T14:48:46.357Z</time></trkpt><trkpt lat="46.3192842" lon="10.3510493"><ele>1086.0</ele><time>2026-04-26T14:48:47.356Z</time></trkpt><trkpt lat="46.3192333" lon="10.3508798"><ele>1086.0</ele><time>2026-04-26T14:48:48.353Z</time></trkpt><trkpt lat="46.3192005" lon="10.3507287"><ele>1086.0</ele><time>2026-04-26T14:48:49.355Z</time></trkpt><trkpt lat="46.3191656" lon="10.3506168"><ele>1086.0</ele><time>2026-04-26T14:48:50.357Z</time></trkpt><trkpt lat="46.3190407" lon="10.3506002"><ele>1086.0</ele><time>2026-04-26T14:48:52.353Z</time></trkpt><trkpt lat="46.3189541" lon="10.3505879"><ele>1086.0</ele><time>2026-04-26T14:48:53.354Z</time></trkpt><trkpt lat="46.3188646" lon="10.3506083"><ele>1089.0</ele><time>2026-04-26T14:48:54.352Z</time></trkpt><trkpt lat="46.3187638" lon="10.3506364"><ele>1092.0</ele><time>2026-04-26T14:48:55.357Z</time></trkpt><trkpt lat="46.3186554" lon="10.3506881"><ele>1095.0</ele><time>2026-04-26T14:48:56.354Z</time></trkpt><trkpt lat="46.3185504" lon="10.3507433"><ele>1098.0</ele><time>2026-04-26T14:48:57.355Z</time></trkpt><trkpt lat="46.3184485" lon="10.3508072"><ele>1101.0</ele><time>2026-04-26T14:48:58.353Z</time></trkpt><trkpt lat="46.3183553" lon="10.3508656"><ele>1101.0</ele><time>2026-04-26T14:48:59.354Z</time></trkpt><trkpt lat="46.318272" lon="10.3509325"><ele>1101.0</ele><time>2026-04-26T14:49:00.351Z</time></trkpt><trkpt lat="46.3182096" lon="10.3509821"><ele>1101.0</ele><time>2026-04-26T14:49:01.354Z</time></trkpt><trkpt lat="46.3182586" lon="10.3508466"><ele>1101.0</ele><time>2026-04-26T14:49:02.349Z</time></trkpt><trkpt lat="46.3182036" lon="10.3507688"><ele>1101.0</ele><time>2026-04-26T14:49:04.358Z</time></trkpt><trkpt lat="46.3181658" lon="10.3506918"><ele>1101.0</ele><time>2026-04-26T14:49:06.354Z</time></trkpt><trkpt lat="46.3181933" lon="10.3506057"><ele>1099.2</ele><time>2026-04-26T14:49:10.358Z</time></trkpt><trkpt lat="46.3182435" lon="10.3504898"><ele>1097.3999999999999</ele><time>2026-04-26T14:49:12.359Z</time></trkpt><trkpt lat="46.3183052" lon="10.3504044"><ele>1095.6</ele><time>2026-04-26T14:49:15.349Z</time></trkpt><trkpt lat="46.3183983" lon="10.3504071"><ele>1093.8</ele><time>2026-04-26T14:49:18.355Z</time></trkpt><trkpt lat="46.3185105" lon="10.3504543"><ele>1092.0</ele><time>2026-04-26T14:49:21.351Z</time></trkpt><trkpt lat="46.3186097" lon="10.35044"><ele>1092.0</ele><time>2026-04-26T14:49:23.352Z</time></trkpt><trkpt lat="46.3186953" lon="10.3503839"><ele>1092.0</ele><time>2026-04-26T14:49:25.349Z</time></trkpt><trkpt lat="46.3187497" lon="10.3503378"><ele>1092.0</ele><time>2026-04-26T14:49:26.353Z</time></trkpt><trkpt lat="46.318799" lon="10.3502712"><ele>1092.0</ele><time>2026-04-26T14:49:27.352Z</time></trkpt><trkpt lat="46.3188364" lon="10.3501175"><ele>1092.0</ele><time>2026-04-26T14:49:29.349Z</time></trkpt><trkpt lat="46.318853" lon="10.3499531"><ele>1092.0</ele><time>2026-04-26T14:49:31.355Z</time></trkpt><trkpt lat="46.3188833" lon="10.3498707"><ele>1092.0</ele><time>2026-04-26T14:49:32.356Z</time></trkpt><trkpt lat="46.3189545" lon="10.3497672"><ele>1092.0</ele><time>2026-04-26T14:49:34.36Z</time></trkpt><trkpt lat="46.3190707" lon="10.3497147"><ele>1092.0</ele><time>2026-04-26T14:49:35.356Z</time></trkpt><trkpt lat="46.3191631" lon="10.3496741"><ele>1092.0</ele><time>2026-04-26T14:49:36.348Z</time></trkpt><trkpt lat="46.319234" lon="10.349607"><ele>1090.6666666666667</ele><time>2026-04-26T14:49:37.35Z</time></trkpt><trkpt lat="46.3193015" lon="10.3495354"><ele>1089.3333333333333</ele><time>2026-04-26T14:49:38.348Z</time></trkpt><trkpt lat="46.3193662" lon="10.3494044"><ele>1088.0</ele><time>2026-04-26T14:49:40.352Z</time></trkpt><trkpt lat="46.3194162" lon="10.3493465"><ele>1086.6666666666665</ele><time>2026-04-26T14:49:41.352Z</time></trkpt><trkpt lat="46.3194602" lon="10.3492791"><ele>1085.3333333333333</ele><time>2026-04-26T14:49:42.351Z</time></trkpt><trkpt lat="46.3195118" lon="10.3491886"><ele>1084.0</ele><time>2026-04-26T14:49:43.352Z</time></trkpt><trkpt lat="46.3195507" lon="10.3490985"><ele>1084.0</ele><time>2026-04-26T14:49:44.357Z</time></trkpt><trkpt lat="46.3196151" lon="10.3489981"><ele>1084.0</ele><time>2026-04-26T14:49:46.362Z</time></trkpt><trkpt lat="46.319685" lon="10.3489117"><ele>1084.0</ele><time>2026-04-26T14:49:48.356Z</time></trkpt><trkpt lat="46.3198033" lon="10.3488499"><ele>1084.0</ele><time>2026-04-26T14:49:50.361Z</time></trkpt><trkpt lat="46.319914" lon="10.3487695"><ele>1084.0</ele><time>2026-04-26T14:49:52.351Z</time></trkpt><trkpt lat="46.3199808" lon="10.3485893"><ele>1081.0</ele><time>2026-04-26T14:49:54.353Z</time></trkpt><trkpt lat="46.3200086" lon="10.3484742"><ele>1078.0</ele><time>2026-04-26T14:49:55.36Z</time></trkpt><trkpt lat="46.3200308" lon="10.3483687"><ele>1075.0</ele><time>2026-04-26T14:49:56.355Z</time></trkpt><trkpt lat="46.3200396" lon="10.3482516"><ele>1072.0</ele><time>2026-04-26T14:49:57.353Z</time></trkpt><trkpt lat="46.3200541" lon="10.3481333"><ele>1069.0</ele><time>2026-04-26T14:49:58.35Z</time></trkpt><trkpt lat="46.3201192" lon="10.3480262"><ele>1066.0</ele><time>2026-04-26T14:49:59.348Z</time></trkpt><trkpt lat="46.3201706" lon="10.3479085"><ele>1066.0</ele><time>2026-04-26T14:50:00.35Z</time></trkpt><trkpt lat="46.3202172" lon="10.3478151"><ele>1066.0</ele><time>2026-04-26T14:50:01.353Z</time></trkpt><trkpt lat="46.3202661" lon="10.3477234"><ele>1066.0</ele><time>2026-04-26T14:50:02.355Z</time></trkpt><trkpt lat="46.3202979" lon="10.3476158"><ele>1066.0</ele><time>2026-04-26T14:50:03.352Z</time></trkpt><trkpt lat="46.3202716" lon="10.3474901"><ele>1066.0</ele><time>2026-04-26T14:50:04.348Z</time></trkpt><trkpt lat="46.3202612" lon="10.3473405"><ele>1066.0</ele><time>2026-04-26T14:50:05.352Z</time></trkpt><trkpt lat="46.32029" lon="10.3471904"><ele>1065.3999999999999</ele><time>2026-04-26T14:50:06.352Z</time></trkpt><trkpt lat="46.3203857" lon="10.347076"><ele>1064.8</ele><time>2026-04-26T14:50:07.351Z</time></trkpt><trkpt lat="46.3204428" lon="10.3469428"><ele>1064.1999999999998</ele><time>2026-04-26T14:50:08.352Z</time></trkpt><trkpt lat="46.3204641" lon="10.3467809"><ele>1063.6</ele><time>2026-04-26T14:50:09.355Z</time></trkpt><trkpt lat="46.3204976" lon="10.3466415"><ele>1063.0</ele><time>2026-04-26T14:50:10.354Z</time></trkpt><trkpt lat="46.3205093" lon="10.3465146"><ele>1062.75</ele><time>2026-04-26T14:50:11.351Z</time></trkpt><trkpt lat="46.3205389" lon="10.3463621"><ele>1062.5</ele><time>2026-04-26T14:50:12.357Z</time></trkpt><trkpt lat="46.3205341" lon="10.3461961"><ele>1062.25</ele><time>2026-04-26T14:50:13.352Z</time></trkpt><trkpt lat="46.3205444" lon="10.3460004"><ele>1062.0</ele><time>2026-04-26T14:50:14.349Z</time></trkpt><trkpt lat="46.3205662" lon="10.3458114"><ele>1061.8</ele><time>2026-04-26T14:50:15.355Z</time></trkpt><trkpt lat="46.320589" lon="10.345644"><ele>1061.6</ele><time>2026-04-26T14:50:16.351Z</time></trkpt><trkpt lat="46.3206067" lon="10.3454979"><ele>1061.3999999999999</ele><time>2026-04-26T14:50:17.356Z</time></trkpt><trkpt lat="46.3206164" lon="10.3453932"><ele>1061.2</ele><time>2026-04-26T14:50:18.352Z</time></trkpt><trkpt lat="46.3205955" lon="10.3452638"><ele>1061.0</ele><time>2026-04-26T14:50:19.359Z</time></trkpt><trkpt lat="46.3205555" lon="10.3451459"><ele>1061.0</ele><time>2026-04-26T14:50:20.353Z</time></trkpt><trkpt lat="46.3205351" lon="10.3450259"><ele>1061.0</ele><time>2026-04-26T14:50:21.353Z</time></trkpt><trkpt lat="46.3205382" lon="10.3448941"><ele>1061.0</ele><time>2026-04-26T14:50:22.356Z</time></trkpt><trkpt lat="46.3205707" lon="10.3447837"><ele>1061.0</ele><time>2026-04-26T14:50:23.357Z</time></trkpt><trkpt lat="46.3205896" lon="10.3446411"><ele>1061.0</ele><time>2026-04-26T14:50:24.356Z</time></trkpt><trkpt lat="46.3205962" lon="10.3444816"><ele>1047.3999999999999</ele><time>2026-04-26T14:50:25.35Z</time></trkpt><trkpt lat="46.3205848" lon="10.3443216"><ele>1033.8</ele><time>2026-04-26T14:50:26.355Z</time></trkpt><trkpt lat="46.3206141" lon="10.3441906"><ele>1020.1999999999999</ele><time>2026-04-26T14:50:27.355Z</time></trkpt><trkpt lat="46.3206371" lon="10.3440378"><ele>1006.5999999999999</ele><time>2026-04-26T14:50:28.36Z</time></trkpt><trkpt lat="46.3206769" lon="10.3438566"><ele>993.0</ele><time>2026-04-26T14:50:29.35Z</time></trkpt><trkpt lat="46.3207131" lon="10.3437235"><ele>992.0</ele><time>2026-04-26T14:50:30.365Z</time></trkpt><trkpt lat="46.3207656" lon="10.3436087"><ele>991.0</ele><time>2026-04-26T14:50:31.354Z</time></trkpt><trkpt lat="46.3208247" lon="10.3435475"><ele>990.0</ele><time>2026-04-26T14:50:32.358Z</time></trkpt><trkpt lat="46.3208753" lon="10.3434597"><ele>989.0</ele><time>2026-04-26T14:50:33.357Z</time></trkpt><trkpt lat="46.3209311" lon="10.3433613"><ele>988.0</ele><time>2026-04-26T14:50:34.36Z</time></trkpt><trkpt lat="46.3209457" lon="10.3432511"><ele>987.0</ele><time>2026-04-26T14:50:35.355Z</time></trkpt><trkpt lat="46.3209725" lon="10.3431587"><ele>987.8</ele><time>2026-04-26T14:50:36.351Z</time></trkpt><trkpt lat="46.3209935" lon="10.3430384"><ele>988.6</ele><time>2026-04-26T14:50:37.356Z</time></trkpt><trkpt lat="46.3210274" lon="10.3429051"><ele>989.3999999999999</ele><time>2026-04-26T14:50:38.348Z</time></trkpt><trkpt lat="46.3210452" lon="10.3427612"><ele>990.1999999999999</ele><time>2026-04-26T14:50:39.354Z</time></trkpt><trkpt lat="46.3210689" lon="10.3426199"><ele>991.0</ele><time>2026-04-26T14:50:40.352Z</time></trkpt><trkpt lat="46.32109" lon="10.3424851"><ele>990.9999999999999</ele><time>2026-04-26T14:50:41.351Z</time></trkpt><trkpt lat="46.321093" lon="10.3423878"><ele>991.0</ele><time>2026-04-26T14:50:42.357Z</time></trkpt><trkpt lat="46.3211159" lon="10.3422878"><ele>991.0</ele><time>2026-04-26T14:50:43.355Z</time></trkpt><trkpt lat="46.3211362" lon="10.3421894"><ele>991.0</ele><time>2026-04-26T14:50:44.353Z</time></trkpt><trkpt lat="46.3211244" lon="10.3420205"><ele>990.9999999999999</ele><time>2026-04-26T14:50:46.352Z</time></trkpt><trkpt lat="46.3211359" lon="10.3419286"><ele>991.0</ele><time>2026-04-26T14:50:47.354Z</time></trkpt><trkpt lat="46.3211152" lon="10.3418235"><ele>989.3333333333333</ele><time>2026-04-26T14:50:48.356Z</time></trkpt><trkpt lat="46.3211224" lon="10.3416944"><ele>987.6666666666666</ele><time>2026-04-26T14:50:50.352Z</time></trkpt><trkpt lat="46.321079" lon="10.341588"><ele>986.0</ele><time>2026-04-26T14:50:52.348Z</time></trkpt><trkpt lat="46.3210294" lon="10.3414844"><ele>984.3333333333333</ele><time>2026-04-26T14:50:54.357Z</time></trkpt><trkpt lat="46.3210068" lon="10.3413741"><ele>982.6666666666666</ele><time>2026-04-26T14:50:58.349Z</time></trkpt><trkpt lat="46.3209755" lon="10.341244"><ele>981.0</ele><time>2026-04-26T14:51:00.357Z</time></trkpt><trkpt lat="46.3208371" lon="10.3406519"><ele>976.4</ele><time>2026-04-26T14:51:01.35Z</time></trkpt><trkpt lat="46.3208063" lon="10.3405195"><ele>971.8</ele><time>2026-04-26T14:51:02.347Z</time></trkpt><trkpt lat="46.3207802" lon="10.340366"><ele>967.1999999999999</ele><time>2026-04-26T14:51:03.356Z</time></trkpt><trkpt lat="46.3207769" lon="10.3402222"><ele>962.5999999999999</ele><time>2026-04-26T14:51:04.352Z</time></trkpt><trkpt lat="46.320781" lon="10.3400804"><ele>958.0</ele><time>2026-04-26T14:51:05.35Z</time></trkpt><trkpt lat="46.3207688" lon="10.3399587"><ele>958.0</ele><time>2026-04-26T14:51:06.349Z</time></trkpt><trkpt lat="46.3207332" lon="10.3398623"><ele>958.0</ele><time>2026-04-26T14:51:07.348Z</time></trkpt><trkpt lat="46.3206766" lon="10.3397852"><ele>958.0</ele><time>2026-04-26T14:51:08.35Z</time></trkpt><trkpt lat="46.3205892" lon="10.3396873"><ele>958.0</ele><time>2026-04-26T14:51:09.352Z</time></trkpt><trkpt lat="46.3205159" lon="10.3395821"><ele>958.0</ele><time>2026-04-26T14:51:10.35Z</time></trkpt><trkpt lat="46.3204467" lon="10.3394711"><ele>960.4</ele><time>2026-04-26T14:51:11.359Z</time></trkpt><trkpt lat="46.3204292" lon="10.3393113"><ele>962.8</ele><time>2026-04-26T14:51:12.354Z</time></trkpt><trkpt lat="46.3204251" lon="10.3391476"><ele>965.2</ele><time>2026-04-26T14:51:13.351Z</time></trkpt><trkpt lat="46.3204264" lon="10.3390347"><ele>967.6</ele><time>2026-04-26T14:51:14.349Z</time></trkpt><trkpt lat="46.3204142" lon="10.3389117"><ele>970.0</ele><time>2026-04-26T14:51:15.361Z</time></trkpt><trkpt lat="46.3203911" lon="10.3387572"><ele>970.0</ele><time>2026-04-26T14:51:16.35Z</time></trkpt><trkpt lat="46.3203944" lon="10.3386234"><ele>970.0</ele><time>2026-04-26T14:51:17.351Z</time></trkpt><trkpt lat="46.3203817" lon="10.3384528"><ele>970.0</ele><time>2026-04-26T14:51:18.35Z</time></trkpt><trkpt lat="46.3203846" lon="10.3382752"><ele>970.0</ele><time>2026-04-26T14:51:19.352Z</time></trkpt><trkpt lat="46.3203864" lon="10.3381394"><ele>970.0</ele><time>2026-04-26T14:51:20.351Z</time></trkpt><trkpt lat="46.3203919" lon="10.3380149"><ele>967.6</ele><time>2026-04-26T14:51:21.35Z</time></trkpt><trkpt lat="46.3204218" lon="10.3378808"><ele>965.2</ele><time>2026-04-26T14:51:22.35Z</time></trkpt><trkpt lat="46.3204267" lon="10.3377716"><ele>962.8</ele><time>2026-04-26T14:51:23.35Z</time></trkpt><trkpt lat="46.3204285" lon="10.3376531"><ele>960.4</ele><time>2026-04-26T14:51:24.348Z</time></trkpt><trkpt lat="46.3204337" lon="10.3374966"><ele>958.0</ele><time>2026-04-26T14:51:25.35Z</time></trkpt><trkpt lat="46.3204325" lon="10.3373481"><ele>958.0</ele><time>2026-04-26T14:51:26.35Z</time></trkpt><trkpt lat="46.320462" lon="10.3372311"><ele>958.0</ele><time>2026-04-26T14:51:27.352Z</time></trkpt><trkpt lat="46.3205058" lon="10.3371189"><ele>958.0</ele><time>2026-04-26T14:51:28.352Z</time></trkpt><trkpt lat="46.320569" lon="10.3370107"><ele>958.0</ele><time>2026-04-26T14:51:29.348Z</time></trkpt><trkpt lat="46.3206439" lon="10.3368945"><ele>958.0</ele><time>2026-04-26T14:51:30.355Z</time></trkpt><trkpt lat="46.3207262" lon="10.3367742"><ele>953.8</ele><time>2026-04-26T14:51:31.353Z</time></trkpt><trkpt lat="46.3207881" lon="10.3366517"><ele>949.5999999999999</ele><time>2026-04-26T14:51:32.351Z</time></trkpt><trkpt lat="46.3208612" lon="10.3365423"><ele>945.4000000000001</ele><time>2026-04-26T14:51:33.354Z</time></trkpt><trkpt lat="46.3209288" lon="10.3364511"><ele>941.2</ele><time>2026-04-26T14:51:34.353Z</time></trkpt><trkpt lat="46.3209761" lon="10.336369"><ele>937.0</ele><time>2026-04-26T14:51:35.353Z</time></trkpt><trkpt lat="46.3210367" lon="10.3362926"><ele>936.9999999999999</ele><time>2026-04-26T14:51:38.356Z</time></trkpt><trkpt lat="46.3211457" lon="10.3362826"><ele>937.0</ele><time>2026-04-26T14:51:40.357Z</time></trkpt><trkpt lat="46.3212366" lon="10.3362839"><ele>937.0</ele><time>2026-04-26T14:51:42.354Z</time></trkpt><trkpt lat="46.3212677" lon="10.3362022"><ele>937.0</ele><time>2026-04-26T14:51:47.357Z</time></trkpt><trkpt lat="46.3212535" lon="10.3360931"><ele>936.9999999999999</ele><time>2026-04-26T14:51:50.353Z</time></trkpt><trkpt lat="46.3212339" lon="10.3359655"><ele>937.0</ele><time>2026-04-26T14:51:51.353Z</time></trkpt><trkpt lat="46.3209946" lon="10.3354949"><ele>935.4999999999999</ele><time>2026-04-26T14:51:52.358Z</time></trkpt><trkpt lat="46.3209743" lon="10.3354016"><ele>934.0</ele><time>2026-04-26T14:51:53.345Z</time></trkpt><trkpt lat="46.3209422" lon="10.3351929"><ele>932.5</ele><time>2026-04-26T14:51:55.356Z</time></trkpt><trkpt lat="46.32093" lon="10.3350749"><ele>931.0</ele><time>2026-04-26T14:51:56.354Z</time></trkpt><trkpt lat="46.3209053" lon="10.3349771"><ele>929.4999999999999</ele><time>2026-04-26T14:51:57.35Z</time></trkpt><trkpt lat="46.3208865" lon="10.3348699"><ele>928.0</ele><time>2026-04-26T14:51:58.352Z</time></trkpt><trkpt lat="46.3208662" lon="10.3347686"><ele>926.4999999999999</ele><time>2026-04-26T14:51:59.353Z</time></trkpt><trkpt lat="46.3208301" lon="10.3346682"><ele>925.0</ele><time>2026-04-26T14:52:00.349Z</time></trkpt><trkpt lat="46.3207853" lon="10.3345817"><ele>923.5</ele><time>2026-04-26T14:52:01.351Z</time></trkpt><trkpt lat="46.3207413" lon="10.334491"><ele>922.0</ele><time>2026-04-26T14:52:02.353Z</time></trkpt><trkpt lat="46.3207013" lon="10.3343896"><ele>920.4999999999999</ele><time>2026-04-26T14:52:03.352Z</time></trkpt><trkpt lat="46.3206751" lon="10.3342783"><ele>919.0</ele><time>2026-04-26T14:52:04.351Z</time></trkpt><trkpt lat="46.3206515" lon="10.3341815"><ele>918.9999999999999</ele><time>2026-04-26T14:52:05.35Z</time></trkpt><trkpt lat="46.3206132" lon="10.334098"><ele>919.0</ele><time>2026-04-26T14:52:06.354Z</time></trkpt><trkpt lat="46.3205637" lon="10.3340131"><ele>919.0</ele><time>2026-04-26T14:52:07.353Z</time></trkpt><trkpt lat="46.3205202" lon="10.3339423"><ele>919.0</ele><time>2026-04-26T14:52:08.357Z</time></trkpt><trkpt lat="46.3204481" lon="10.3338177"><ele>918.9999999999999</ele><time>2026-04-26T14:52:10.351Z</time></trkpt><trkpt lat="46.3203958" lon="10.3336962"><ele>919.0</ele><time>2026-04-26T14:52:12.353Z</time></trkpt><trkpt lat="46.3203653" lon="10.3335569"><ele>927.2</ele><time>2026-04-26T14:52:14.353Z</time></trkpt><trkpt lat="46.3203653" lon="10.3334005"><ele>935.4000000000001</ele><time>2026-04-26T14:52:16.347Z</time></trkpt><trkpt lat="46.3203725" lon="10.333301"><ele>943.6</ele><time>2026-04-26T14:52:17.355Z</time></trkpt><trkpt lat="46.3204437" lon="10.333138"><ele>951.8</ele><time>2026-04-26T14:52:19.354Z</time></trkpt><trkpt lat="46.3204896" lon="10.3330648"><ele>960.0</ele><time>2026-04-26T14:52:20.364Z</time></trkpt><trkpt lat="46.3205185" lon="10.3329139"><ele>962.3333333333334</ele><time>2026-04-26T14:52:22.353Z</time></trkpt><trkpt lat="46.3205292" lon="10.3327145"><ele>964.6666666666667</ele><time>2026-04-26T14:52:24.354Z</time></trkpt><trkpt lat="46.320532" lon="10.3326135"><ele>967.0</ele><time>2026-04-26T14:52:25.35Z</time></trkpt><trkpt lat="46.32055" lon="10.332524"><ele>969.3333333333334</ele><time>2026-04-26T14:52:26.349Z</time></trkpt><trkpt lat="46.3205657" lon="10.3324226"><ele>971.6666666666667</ele><time>2026-04-26T14:52:27.355Z</time></trkpt><trkpt lat="46.3205997" lon="10.3323352"><ele>974.0</ele><time>2026-04-26T14:52:28.35Z</time></trkpt><trkpt lat="46.320613" lon="10.3321873"><ele>963.5</ele><time>2026-04-26T14:52:30.354Z</time></trkpt><trkpt lat="46.32062" lon="10.3320567"><ele>953.0</ele><time>2026-04-26T14:52:32.351Z</time></trkpt><trkpt lat="46.3206375" lon="10.3319478"><ele>942.5</ele><time>2026-04-26T14:52:35.357Z</time></trkpt><trkpt lat="46.3207231" lon="10.3318074"><ele>932.0</ele><time>2026-04-26T14:52:37.356Z</time></trkpt><trkpt lat="46.3208539" lon="10.3315573"><ele>932.0000000000001</ele><time>2026-04-26T14:52:38.352Z</time></trkpt><trkpt lat="46.3209121" lon="10.3314763"><ele>932.0</ele><time>2026-04-26T14:52:39.347Z</time></trkpt><trkpt lat="46.3209809" lon="10.3313302"><ele>932.0</ele><time>2026-04-26T14:52:40.347Z</time></trkpt><trkpt lat="46.3210163" lon="10.3312452"><ele>932.0</ele><time>2026-04-26T14:52:41.353Z</time></trkpt><trkpt lat="46.3210669" lon="10.3311493"><ele>932.0000000000001</ele><time>2026-04-26T14:52:42.352Z</time></trkpt><trkpt lat="46.3211084" lon="10.3310263"><ele>932.0</ele><time>2026-04-26T14:52:43.357Z</time></trkpt><trkpt lat="46.3211622" lon="10.3309123"><ele>934.6</ele><time>2026-04-26T14:52:44.35Z</time></trkpt><trkpt lat="46.3212197" lon="10.3308055"><ele>937.2</ele><time>2026-04-26T14:52:45.351Z</time></trkpt><trkpt lat="46.321269" lon="10.3307075"><ele>939.8</ele><time>2026-04-26T14:52:46.351Z</time></trkpt><trkpt lat="46.3212701" lon="10.3305375"><ele>942.4</ele><time>2026-04-26T14:52:48.353Z</time></trkpt><trkpt lat="46.3212556" lon="10.3304144"><ele>945.0</ele><time>2026-04-26T14:52:49.354Z</time></trkpt><trkpt lat="46.3212344" lon="10.3302834"><ele>947.4</ele><time>2026-04-26T14:52:50.351Z</time></trkpt><trkpt lat="46.3212608" lon="10.3301914"><ele>949.8</ele><time>2026-04-26T14:52:51.353Z</time></trkpt><trkpt lat="46.3213099" lon="10.3300154"><ele>952.2</ele><time>2026-04-26T14:52:53.35Z</time></trkpt><trkpt lat="46.3213647" lon="10.3298825"><ele>954.6</ele><time>2026-04-26T14:52:55.356Z</time></trkpt><trkpt lat="46.3213796" lon="10.3297544"><ele>957.0</ele><time>2026-04-26T14:52:57.365Z</time></trkpt><trkpt lat="46.3214073" lon="10.3296413"><ele>951.6</ele><time>2026-04-26T14:52:59.35Z</time></trkpt><trkpt lat="46.3214278" lon="10.3295486"><ele>946.2</ele><time>2026-04-26T14:53:02.347Z</time></trkpt><trkpt lat="46.3214436" lon="10.3294158"><ele>940.8</ele><time>2026-04-26T14:53:05.356Z</time></trkpt><trkpt lat="46.321518" lon="10.3292441"><ele>935.4</ele><time>2026-04-26T14:53:07.351Z</time></trkpt><trkpt lat="46.321558" lon="10.3291012"><ele>930.0</ele><time>2026-04-26T14:53:10.357Z</time></trkpt><trkpt lat="46.3215705" lon="10.328972"><ele>930.6666666666666</ele><time>2026-04-26T14:53:12.352Z</time></trkpt><trkpt lat="46.32158" lon="10.3288752"><ele>931.3333333333333</ele><time>2026-04-26T14:53:14.364Z</time></trkpt><trkpt lat="46.3216254" lon="10.3288076"><ele>932.0</ele><time>2026-04-26T14:53:17.355Z</time></trkpt><trkpt lat="46.3216698" lon="10.3287309"><ele>932.6666666666666</ele><time>2026-04-26T14:53:18.354Z</time></trkpt><trkpt lat="46.3217723" lon="10.3285663"><ele>933.3333333333333</ele><time>2026-04-26T14:53:19.354Z</time></trkpt><trkpt lat="46.3218306" lon="10.3284776"><ele>934.0</ele><time>2026-04-26T14:53:21.351Z</time></trkpt><trkpt lat="46.3219044" lon="10.3284558"><ele>933.9999999999999</ele><time>2026-04-26T14:53:24.354Z</time></trkpt><trkpt lat="46.3219853" lon="10.3284617"><ele>934.0</ele><time>2026-04-26T14:53:28.355Z</time></trkpt><trkpt lat="46.3220361" lon="10.3285566"><ele>934.0</ele><time>2026-04-26T14:53:32.356Z</time></trkpt><trkpt lat="46.3220225" lon="10.328688"><ele>934.0</ele><time>2026-04-26T14:53:35.353Z</time></trkpt><trkpt lat="46.3220231" lon="10.3287805"><ele>933.9999999999999</ele><time>2026-04-26T14:53:37.356Z</time></trkpt><trkpt lat="46.3221093" lon="10.3288808"><ele>934.0</ele><time>2026-04-26T14:53:39.356Z</time></trkpt><trkpt lat="46.3221983" lon="10.3289544"><ele>933.4285714285713</ele><time>2026-04-26T14:53:41.359Z</time></trkpt><trkpt lat="46.322251" lon="10.3290414"><ele>932.8571428571429</ele><time>2026-04-26T14:53:44.348Z</time></trkpt><trkpt lat="46.3222507" lon="10.329134"><ele>932.2857142857142</ele><time>2026-04-26T14:53:47.354Z</time></trkpt><trkpt lat="46.322235" lon="10.3292276"><ele>931.7142857142857</ele><time>2026-04-26T14:53:50.36Z</time></trkpt><trkpt lat="46.3222198" lon="10.3293409"><ele>931.1428571428571</ele><time>2026-04-26T14:53:54.35Z</time></trkpt><trkpt lat="46.3222498" lon="10.3294294"><ele>930.5714285714286</ele><time>2026-04-26T14:54:00.357Z</time></trkpt><trkpt lat="46.3222354" lon="10.3295278"><ele>930.0</ele><time>2026-04-26T14:54:14.351Z</time></trkpt><trkpt lat="46.3221948" lon="10.3296008"><ele>930.0</ele><time>2026-04-26T14:54:17.359Z</time></trkpt><trkpt lat="46.3222114" lon="10.3294856"><ele>930.0</ele><time>2026-04-26T14:55:55.347Z</time></trkpt><trkpt lat="46.322195" lon="10.3293901"><ele>930.0</ele><time>2026-04-26T14:55:58.35Z</time></trkpt><trkpt lat="46.3222019" lon="10.3292888"><ele>930.0</ele><time>2026-04-26T14:56:01.352Z</time></trkpt><trkpt lat="46.3221902" lon="10.3291817"><ele>930.0</ele><time>2026-04-26T14:56:04.355Z</time></trkpt><trkpt lat="46.3221473" lon="10.3290676"><ele>930.0</ele><time>2026-04-26T14:56:07.35Z</time></trkpt><trkpt lat="46.3221017" lon="10.3289919"><ele>930.8</ele><time>2026-04-26T14:56:09.358Z</time></trkpt><trkpt lat="46.3219799" lon="10.328748"><ele>931.6</ele><time>2026-04-26T14:56:11.351Z</time></trkpt><trkpt lat="46.3219719" lon="10.3286313"><ele>932.4000000000001</ele><time>2026-04-26T14:56:13.354Z</time></trkpt><trkpt lat="46.3219644" lon="10.3285318"><ele>933.2</ele><time>2026-04-26T14:56:15.358Z</time></trkpt><trkpt lat="46.32191" lon="10.328481"><ele>934.0</ele><time>2026-04-26T14:56:19.354Z</time></trkpt><trkpt lat="46.3218333" lon="10.3285148"><ele>934.0</ele><time>2026-04-26T14:56:22.351Z</time></trkpt><trkpt lat="46.3216826" lon="10.3286305"><ele>934.0</ele><time>2026-04-26T14:56:24.354Z</time></trkpt><trkpt lat="46.3217837" lon="10.3285776"><ele>934.0</ele><time>2026-04-26T14:56:25.276Z</time></trkpt><trkpt lat="46.3216597" lon="10.3287326"><ele>934.0</ele><time>2026-04-26T14:56:28.353Z</time></trkpt><trkpt lat="46.3215891" lon="10.3288442"><ele>933.3333333333333</ele><time>2026-04-26T14:56:29.356Z</time></trkpt><trkpt lat="46.3215393" lon="10.3289129"><ele>932.6666666666666</ele><time>2026-04-26T14:56:30.354Z</time></trkpt><trkpt lat="46.3215077" lon="10.3290646"><ele>932.0</ele><time>2026-04-26T14:56:32.356Z</time></trkpt><trkpt lat="46.3214842" lon="10.3291742"><ele>931.3333333333333</ele><time>2026-04-26T14:56:34.358Z</time></trkpt><trkpt lat="46.3214568" lon="10.3292664"><ele>930.6666666666666</ele><time>2026-04-26T14:56:36.352Z</time></trkpt><trkpt lat="46.321418" lon="10.3293696"><ele>930.0</ele><time>2026-04-26T14:56:40.354Z</time></trkpt><trkpt lat="46.3214246" lon="10.3294698"><ele>930.0</ele><time>2026-04-26T14:56:53.354Z</time></trkpt><trkpt lat="46.3214434" lon="10.3295657"><ele>930.0</ele><time>2026-04-26T14:56:56.352Z</time></trkpt><trkpt lat="46.3214277" lon="10.3296801"><ele>930.0</ele><time>2026-04-26T14:56:59.36Z</time></trkpt><trkpt lat="46.3214012" lon="10.3297637"><ele>930.0</ele><time>2026-04-26T14:57:01.359Z</time></trkpt><trkpt lat="46.3213407" lon="10.3299083"><ele>930.0</ele><time>2026-04-26T14:57:02.348Z</time></trkpt><trkpt lat="46.3212688" lon="10.3301599"><ele>932.5</ele><time>2026-04-26T14:57:03.348Z</time></trkpt><trkpt lat="46.3212576" lon="10.3302635"><ele>935.0</ele><time>2026-04-26T14:57:04.351Z</time></trkpt><trkpt lat="46.3212567" lon="10.3303615"><ele>937.5</ele><time>2026-04-26T14:57:05.354Z</time></trkpt><trkpt lat="46.3212723" lon="10.3304599"><ele>940.0</ele><time>2026-04-26T14:57:06.35Z</time></trkpt><trkpt lat="46.3212697" lon="10.3306168"><ele>942.5</ele><time>2026-04-26T14:57:08.348Z</time></trkpt><trkpt lat="46.3212458" lon="10.3307386"><ele>945.0</ele><time>2026-04-26T14:57:10.357Z</time></trkpt><trkpt lat="46.3211896" lon="10.3307925"><ele>945.0</ele><time>2026-04-26T14:57:11.349Z</time></trkpt><trkpt lat="46.3211438" lon="10.3308782"><ele>945.0</ele><time>2026-04-26T14:57:12.361Z</time></trkpt><trkpt lat="46.3210936" lon="10.3309812"><ele>945.0</ele><time>2026-04-26T14:57:13.357Z</time></trkpt><trkpt lat="46.3210487" lon="10.3310967"><ele>945.0</ele><time>2026-04-26T14:57:14.356Z</time></trkpt><trkpt lat="46.3210133" lon="10.3312434"><ele>945.0</ele><time>2026-04-26T14:57:16.355Z</time></trkpt><trkpt lat="46.3209379" lon="10.3314245"><ele>942.8333333333334</ele><time>2026-04-26T14:57:18.359Z</time></trkpt><trkpt lat="46.3208862" lon="10.3315309"><ele>940.6666666666667</ele><time>2026-04-26T14:57:19.351Z</time></trkpt><trkpt lat="46.3208359" lon="10.3316173"><ele>938.5</ele><time>2026-04-26T14:57:20.354Z</time></trkpt><trkpt lat="46.3207789" lon="10.3316861"><ele>936.3333333333334</ele><time>2026-04-26T14:57:21.349Z</time></trkpt><trkpt lat="46.3207102" lon="10.3317497"><ele>934.1666666666667</ele><time>2026-04-26T14:57:22.351Z</time></trkpt><trkpt lat="46.320631" lon="10.3318793"><ele>932.0</ele><time>2026-04-26T14:57:24.348Z</time></trkpt><trkpt lat="46.3206234" lon="10.3319718"><ele>932.0</ele><time>2026-04-26T14:57:26.351Z</time></trkpt><trkpt lat="46.3206276" lon="10.3320729"><ele>932.0</ele><time>2026-04-26T14:57:28.349Z</time></trkpt><trkpt lat="46.3206226" lon="10.3321861"><ele>932.0</ele><time>2026-04-26T14:57:32.349Z</time></trkpt><trkpt lat="46.3205728" lon="10.3324429"><ele>932.0</ele><time>2026-04-26T14:57:33.353Z</time></trkpt><trkpt lat="46.3205089" lon="10.3327249"><ele>936.6666666666667</ele><time>2026-04-26T14:57:34.353Z</time></trkpt><trkpt lat="46.3205114" lon="10.3328209"><ele>941.3333333333334</ele><time>2026-04-26T14:57:35.346Z</time></trkpt><trkpt lat="46.320486" lon="10.3329815"><ele>946.0</ele><time>2026-04-26T14:57:37.35Z</time></trkpt><trkpt lat="46.3204596" lon="10.3330687"><ele>950.6666666666667</ele><time>2026-04-26T14:57:38.352Z</time></trkpt><trkpt lat="46.3204142" lon="10.3331444"><ele>955.3333333333334</ele><time>2026-04-26T14:57:39.354Z</time></trkpt><trkpt lat="46.320363" lon="10.3332866"><ele>960.0</ele><time>2026-04-26T14:57:41.351Z</time></trkpt><trkpt lat="46.3203478" lon="10.3333868"><ele>960.0</ele><time>2026-04-26T14:57:42.352Z</time></trkpt><trkpt lat="46.3203408" lon="10.3334907"><ele>960.0</ele><time>2026-04-26T14:57:43.355Z</time></trkpt><trkpt lat="46.3203813" lon="10.3336112"><ele>960.0</ele><time>2026-04-26T14:57:44.356Z</time></trkpt><trkpt lat="46.3204267" lon="10.3337312"><ele>960.0</ele><time>2026-04-26T14:57:45.357Z</time></trkpt><trkpt lat="46.3204745" lon="10.3338359"><ele>960.0</ele><time>2026-04-26T14:57:46.357Z</time></trkpt><trkpt lat="46.3205189" lon="10.3339327"><ele>960.0</ele><time>2026-04-26T14:57:47.35Z</time></trkpt><trkpt lat="46.3205797" lon="10.3340073"><ele>953.1666666666666</ele><time>2026-04-26T14:57:49.35Z</time></trkpt><trkpt lat="46.3206761" lon="10.3339516"><ele>946.3333333333333</ele><time>2026-04-26T14:57:51.358Z</time></trkpt><trkpt lat="46.3207267" lon="10.3338967"><ele>939.5</ele><time>2026-04-26T14:57:52.35Z</time></trkpt><trkpt lat="46.32079" lon="10.3338429"><ele>932.6666666666666</ele><time>2026-04-26T14:57:53.355Z</time></trkpt><trkpt lat="46.3208671" lon="10.333795"><ele>925.8333333333333</ele><time>2026-04-26T14:57:54.358Z</time></trkpt><trkpt lat="46.3209443" lon="10.3337469"><ele>919.0</ele><time>2026-04-26T14:57:55.359Z</time></trkpt><trkpt lat="46.3210263" lon="10.3337041"><ele>918.8000000000001</ele><time>2026-04-26T14:57:56.358Z</time></trkpt><trkpt lat="46.3211078" lon="10.3336595"><ele>918.6000000000001</ele><time>2026-04-26T14:57:57.352Z</time></trkpt><trkpt lat="46.321198" lon="10.3336074"><ele>918.4</ele><time>2026-04-26T14:57:58.35Z</time></trkpt><trkpt lat="46.3212963" lon="10.3335623"><ele>918.2</ele><time>2026-04-26T14:57:59.347Z</time></trkpt><trkpt lat="46.321396" lon="10.3335059"><ele>918.0</ele><time>2026-04-26T14:58:00.35Z</time></trkpt><trkpt lat="46.3214998" lon="10.3334456"><ele>913.5</ele><time>2026-04-26T14:58:01.35Z</time></trkpt><trkpt lat="46.3216052" lon="10.3333915"><ele>909.0</ele><time>2026-04-26T14:58:02.353Z</time></trkpt><trkpt lat="46.3217155" lon="10.3333259"><ele>904.5</ele><time>2026-04-26T14:58:03.353Z</time></trkpt><trkpt lat="46.3218217" lon="10.3332716"><ele>900.0</ele><time>2026-04-26T14:58:04.355Z</time></trkpt><trkpt lat="46.3219277" lon="10.3332285"><ele>900.0</ele><time>2026-04-26T14:58:05.352Z</time></trkpt><trkpt lat="46.32203" lon="10.3331954"><ele>900.0</ele><time>2026-04-26T14:58:06.352Z</time></trkpt><trkpt lat="46.3221265" lon="10.3331692"><ele>900.0</ele><time>2026-04-26T14:58:07.352Z</time></trkpt><trkpt lat="46.3222175" lon="10.3331515"><ele>900.0</ele><time>2026-04-26T14:58:08.347Z</time></trkpt><trkpt lat="46.3223147" lon="10.3331375"><ele>900.0</ele><time>2026-04-26T14:58:09.351Z</time></trkpt><trkpt lat="46.3224156" lon="10.3331334"><ele>898.0</ele><time>2026-04-26T14:58:10.355Z</time></trkpt><trkpt lat="46.3225113" lon="10.3331434"><ele>896.0</ele><time>2026-04-26T14:58:11.355Z</time></trkpt><trkpt lat="46.3225992" lon="10.3331734"><ele>894.0</ele><time>2026-04-26T14:58:12.351Z</time></trkpt><trkpt lat="46.3226868" lon="10.3332127"><ele>892.0</ele><time>2026-04-26T14:58:13.348Z</time></trkpt><trkpt lat="46.3227775" lon="10.3332668"><ele>890.0</ele><time>2026-04-26T14:58:14.354Z</time></trkpt><trkpt lat="46.322875" lon="10.333333"><ele>890.0</ele><time>2026-04-26T14:58:15.354Z</time></trkpt><trkpt lat="46.3229802" lon="10.3333989"><ele>890.0</ele><time>2026-04-26T14:58:16.349Z</time></trkpt><trkpt lat="46.3230933" lon="10.3334751"><ele>890.0</ele><time>2026-04-26T14:58:17.356Z</time></trkpt><trkpt lat="46.3232126" lon="10.3335515"><ele>890.0</ele><time>2026-04-26T14:58:18.356Z</time></trkpt><trkpt lat="46.3233372" lon="10.3336284"><ele>889.5</ele><time>2026-04-26T14:58:19.348Z</time></trkpt><trkpt lat="46.3234667" lon="10.3336897"><ele>889.0</ele><time>2026-04-26T14:58:20.354Z</time></trkpt><trkpt lat="46.3235931" lon="10.3337334"><ele>888.5</ele><time>2026-04-26T14:58:21.348Z</time></trkpt><trkpt lat="46.3237174" lon="10.3337824"><ele>888.0</ele><time>2026-04-26T14:58:22.35Z</time></trkpt><trkpt lat="46.3238383" lon="10.3338494"><ele>887.5999999999999</ele><time>2026-04-26T14:58:23.355Z</time></trkpt><trkpt lat="46.3239484" lon="10.3339087"><ele>887.1999999999999</ele><time>2026-04-26T14:58:24.35Z</time></trkpt><trkpt lat="46.3240288" lon="10.3339574"><ele>886.8</ele><time>2026-04-26T14:58:25.351Z</time></trkpt><trkpt lat="46.3241376" lon="10.3340305"><ele>886.4</ele><time>2026-04-26T14:58:27.347Z</time></trkpt><trkpt lat="46.3242016" lon="10.3340477"><ele>886.0</ele><time>2026-04-26T14:58:29.348Z</time></trkpt><trkpt lat="46.3242171" lon="10.3339552"><ele>885.8</ele><time>2026-04-26T14:58:31.347Z</time></trkpt><trkpt lat="46.3241933" lon="10.3338585"><ele>885.5999999999999</ele><time>2026-04-26T14:58:32.35Z</time></trkpt><trkpt lat="46.3241538" lon="10.3337192"><ele>885.4</ele><time>2026-04-26T14:58:33.357Z</time></trkpt><trkpt lat="46.3241096" lon="10.3335516"><ele>885.2</ele><time>2026-04-26T14:58:34.361Z</time></trkpt><trkpt lat="46.3240635" lon="10.3333607"><ele>885.0</ele><time>2026-04-26T14:58:35.35Z</time></trkpt><trkpt lat="46.3240244" lon="10.3331885"><ele>885.0</ele><time>2026-04-26T14:58:36.351Z</time></trkpt><trkpt lat="46.3239777" lon="10.3329992"><ele>885.0</ele><time>2026-04-26T14:58:37.35Z</time></trkpt><trkpt lat="46.3239267" lon="10.3327947"><ele>885.0</ele><time>2026-04-26T14:58:38.357Z</time></trkpt><trkpt lat="46.3238731" lon="10.3325677"><ele>885.0</ele><time>2026-04-26T14:58:39.35Z</time></trkpt><trkpt lat="46.3238307" lon="10.3323568"><ele>885.0</ele><time>2026-04-26T14:58:40.354Z</time></trkpt><trkpt lat="46.3237944" lon="10.3321453"><ele>885.0</ele><time>2026-04-26T14:58:41.351Z</time></trkpt><trkpt lat="46.3237553" lon="10.3319423"><ele>885.0</ele><time>2026-04-26T14:58:42.346Z</time></trkpt><trkpt lat="46.3237114" lon="10.3317256"><ele>885.0</ele><time>2026-04-26T14:58:43.351Z</time></trkpt><trkpt lat="46.323685" lon="10.3315128"><ele>885.0</ele><time>2026-04-26T14:58:44.351Z</time></trkpt><trkpt lat="46.3236764" lon="10.3313112"><ele>885.0</ele><time>2026-04-26T14:58:45.35Z</time></trkpt><trkpt lat="46.3236646" lon="10.3310893"><ele>885.0</ele><time>2026-04-26T14:58:46.349Z</time></trkpt><trkpt lat="46.3236433" lon="10.3308982"><ele>885.0</ele><time>2026-04-26T14:58:47.35Z</time></trkpt><trkpt lat="46.3236179" lon="10.3307354"><ele>885.0</ele><time>2026-04-26T14:58:48.352Z</time></trkpt><trkpt lat="46.3235883" lon="10.3305862"><ele>885.0</ele><time>2026-04-26T14:58:49.348Z</time></trkpt><trkpt lat="46.3235471" lon="10.3304449"><ele>885.0</ele><time>2026-04-26T14:58:50.354Z</time></trkpt><trkpt lat="46.323506" lon="10.3303113"><ele>885.0</ele><time>2026-04-26T14:58:51.352Z</time></trkpt><trkpt lat="46.3234614" lon="10.3301778"><ele>884.6666666666666</ele><time>2026-04-26T14:58:52.35Z</time></trkpt><trkpt lat="46.3234246" lon="10.3300592"><ele>884.3333333333333</ele><time>2026-04-26T14:58:53.351Z</time></trkpt><trkpt lat="46.3233975" lon="10.3299513"><ele>884.0</ele><time>2026-04-26T14:58:54.35Z</time></trkpt><trkpt lat="46.3233697" lon="10.329857"><ele>883.6666666666666</ele><time>2026-04-26T14:58:55.35Z</time></trkpt><trkpt lat="46.3233374" lon="10.3297133"><ele>883.3333333333333</ele><time>2026-04-26T14:58:57.354Z</time></trkpt><trkpt lat="46.3233266" lon="10.3296224"><ele>883.0</ele><time>2026-04-26T14:58:59.36Z</time></trkpt><trkpt lat="46.3233506" lon="10.3295285"><ele>882.4999999999999</ele><time>2026-04-26T14:59:02.352Z</time></trkpt><trkpt lat="46.3234269" lon="10.3295641"><ele>882.0</ele><time>2026-04-26T14:59:06.357Z</time></trkpt><trkpt lat="46.3234969" lon="10.3296168"><ele>881.5</ele><time>2026-04-26T14:59:09.356Z</time></trkpt><trkpt lat="46.3235911" lon="10.3296389"><ele>881.0</ele><time>2026-04-26T14:59:12.352Z</time></trkpt><trkpt lat="46.3236728" lon="10.3296528"><ele>880.4999999999999</ele><time>2026-04-26T14:59:14.346Z</time></trkpt><trkpt lat="46.3237605" lon="10.3296777"><ele>880.0</ele><time>2026-04-26T14:59:16.36Z</time></trkpt><trkpt lat="46.3238555" lon="10.329707"><ele>879.9999999999999</ele><time>2026-04-26T14:59:18.347Z</time></trkpt><trkpt lat="46.3239344" lon="10.3297299"><ele>880.0</ele><time>2026-04-26T14:59:20.356Z</time></trkpt><trkpt lat="46.3239772" lon="10.3296562"><ele>880.0</ele><time>2026-04-26T14:59:29.353Z</time></trkpt><trkpt lat="46.3239667" lon="10.3295626"><ele>880.0</ele><time>2026-04-26T14:59:32.361Z</time></trkpt><trkpt lat="46.3239249" lon="10.3294906"><ele>880.0</ele><time>2026-04-26T14:59:39.358Z</time></trkpt><trkpt lat="46.3238747" lon="10.3294247"><ele>879.9999999999999</ele><time>2026-04-26T14:59:43.35Z</time></trkpt><trkpt lat="46.3237913" lon="10.3294091"><ele>880.0</ele><time>2026-04-26T14:59:45.356Z</time></trkpt><trkpt lat="46.3237009" lon="10.3294348"><ele>879.9999999999999</ele><time>2026-04-26T14:59:47.35Z</time></trkpt><trkpt lat="46.3236395" lon="10.3295224"><ele>880.0</ele><time>2026-04-26T14:59:49.351Z</time></trkpt><trkpt lat="46.3235724" lon="10.329617"><ele>880.0</ele><time>2026-04-26T14:59:52.344Z</time></trkpt><trkpt lat="46.3235556" lon="10.3297176"><ele>880.0</ele><time>2026-04-26T14:59:54.352Z</time></trkpt><trkpt lat="46.3235471" lon="10.3298264"><ele>879.9999999999999</ele><time>2026-04-26T14:59:57.349Z</time></trkpt><trkpt lat="46.3235384" lon="10.329924"><ele>880.0</ele><time>2026-04-26T14:59:59.351Z</time></trkpt><trkpt lat="46.3235307" lon="10.33005"><ele>880.6</ele><time>2026-04-26T15:00:01.358Z</time></trkpt><trkpt lat="46.3235322" lon="10.3301486"><ele>881.2</ele><time>2026-04-26T15:00:02.351Z</time></trkpt><trkpt lat="46.3235443" lon="10.3302636"><ele>881.8</ele><time>2026-04-26T15:00:03.348Z</time></trkpt><trkpt lat="46.3235704" lon="10.3303888"><ele>882.4</ele><time>2026-04-26T15:00:04.352Z</time></trkpt><trkpt lat="46.3236272" lon="10.3306004"><ele>883.0</ele><time>2026-04-26T15:00:05.357Z</time></trkpt><trkpt lat="46.3236433" lon="10.3308268"><ele>882.8</ele><time>2026-04-26T15:00:06.361Z</time></trkpt><trkpt lat="46.3236616" lon="10.3309693"><ele>882.5999999999999</ele><time>2026-04-26T15:00:07.345Z</time></trkpt><trkpt lat="46.3236806" lon="10.3311119"><ele>882.4000000000001</ele><time>2026-04-26T15:00:08.346Z</time></trkpt><trkpt lat="46.3236866" lon="10.3312548"><ele>882.2</ele><time>2026-04-26T15:00:09.352Z</time></trkpt><trkpt lat="46.3236903" lon="10.3313789"><ele>882.0</ele><time>2026-04-26T15:00:10.358Z</time></trkpt><trkpt lat="46.3236961" lon="10.3314801"><ele>882.0</ele><time>2026-04-26T15:00:11.349Z</time></trkpt><trkpt lat="46.3237058" lon="10.331574"><ele>882.0</ele><time>2026-04-26T15:00:12.352Z</time></trkpt><trkpt lat="46.3237292" lon="10.3317068"><ele>882.0</ele><time>2026-04-26T15:00:14.352Z</time></trkpt><trkpt lat="46.3237615" lon="10.3318079"><ele>882.0</ele><time>2026-04-26T15:00:16.35Z</time></trkpt><trkpt lat="46.3238222" lon="10.3318678"><ele>882.0</ele><time>2026-04-26T15:00:18.349Z</time></trkpt><trkpt lat="46.3238972" lon="10.3318846"><ele>882.0</ele><time>2026-04-26T15:00:21.352Z</time></trkpt><trkpt lat="46.3239807" lon="10.3318909"><ele>880.2</ele><time>2026-04-26T15:00:24.351Z</time></trkpt><trkpt lat="46.3240527" lon="10.3318993"><ele>878.4000000000001</ele><time>2026-04-26T15:00:26.355Z</time></trkpt><trkpt lat="46.3241383" lon="10.3319003"><ele>876.5999999999999</ele><time>2026-04-26T15:00:28.351Z</time></trkpt><trkpt lat="46.3242539" lon="10.3319029"><ele>874.8</ele><time>2026-04-26T15:00:30.354Z</time></trkpt><trkpt lat="46.3243715" lon="10.3319099"><ele>873.0</ele><time>2026-04-26T15:00:32.35Z</time></trkpt><trkpt lat="46.3244381" lon="10.3319068"><ele>873.0</ele><time>2026-04-26T15:00:33.357Z</time></trkpt><trkpt lat="46.3245925" lon="10.3318665"><ele>873.0</ele><time>2026-04-26T15:00:34.35Z</time></trkpt><trkpt lat="46.3246813" lon="10.3318185"><ele>873.0</ele><time>2026-04-26T15:00:35.354Z</time></trkpt><trkpt lat="46.3247401" lon="10.3317713"><ele>873.0</ele><time>2026-04-26T15:00:36.351Z</time></trkpt><trkpt lat="46.3248074" lon="10.3317263"><ele>873.0</ele><time>2026-04-26T15:00:37.346Z</time></trkpt><trkpt lat="46.3249019" lon="10.3316381"><ele>872.8</ele><time>2026-04-26T15:00:39.348Z</time></trkpt><trkpt lat="46.3249259" lon="10.3314653"><ele>872.5999999999999</ele><time>2026-04-26T15:00:41.352Z</time></trkpt><trkpt lat="46.3249189" lon="10.3313458"><ele>872.4000000000001</ele><time>2026-04-26T15:00:42.352Z</time></trkpt><trkpt lat="46.3249053" lon="10.3312128"><ele>872.2</ele><time>2026-04-26T15:00:43.354Z</time></trkpt><trkpt lat="46.3248904" lon="10.3310668"><ele>872.0</ele><time>2026-04-26T15:00:44.353Z</time></trkpt><trkpt lat="46.3248741" lon="10.3309117"><ele>871.8333333333334</ele><time>2026-04-26T15:00:45.357Z</time></trkpt><trkpt lat="46.3248569" lon="10.3307732"><ele>871.6666666666667</ele><time>2026-04-26T15:00:46.354Z</time></trkpt><trkpt lat="46.3248442" lon="10.3306525"><ele>871.5</ele><time>2026-04-26T15:00:47.35Z</time></trkpt><trkpt lat="46.3248316" lon="10.3305444"><ele>871.3333333333333</ele><time>2026-04-26T15:00:48.35Z</time></trkpt><trkpt lat="46.3248215" lon="10.3304444"><ele>871.1666666666666</ele><time>2026-04-26T15:00:49.352Z</time></trkpt><trkpt lat="46.3248118" lon="10.3303432"><ele>871.0</ele><time>2026-04-26T15:00:50.354Z</time></trkpt><trkpt lat="46.3248031" lon="10.3302416"><ele>870.1999999999999</ele><time>2026-04-26T15:00:51.351Z</time></trkpt><trkpt lat="46.3247935" lon="10.3300731"><ele>869.3999999999999</ele><time>2026-04-26T15:00:53.349Z</time></trkpt><trkpt lat="46.3247679" lon="10.3299256"><ele>868.6</ele><time>2026-04-26T15:00:55.35Z</time></trkpt><trkpt lat="46.3247482" lon="10.3297876"><ele>867.8</ele><time>2026-04-26T15:00:57.354Z</time></trkpt><trkpt lat="46.3247401" lon="10.3296551"><ele>867.0</ele><time>2026-04-26T15:00:59.357Z</time></trkpt><trkpt lat="46.3247361" lon="10.3295006"><ele>867.3333333333334</ele><time>2026-04-26T15:01:01.35Z</time></trkpt><trkpt lat="46.3247203" lon="10.3294087"><ele>867.6666666666667</ele><time>2026-04-26T15:01:02.354Z</time></trkpt><trkpt lat="46.3246851" lon="10.3293045"><ele>868.0</ele><time>2026-04-26T15:01:03.356Z</time></trkpt><trkpt lat="46.3246365" lon="10.3291979"><ele>868.3333333333334</ele><time>2026-04-26T15:01:04.35Z</time></trkpt><trkpt lat="46.3245789" lon="10.3290844"><ele>868.6666666666667</ele><time>2026-04-26T15:01:05.353Z</time></trkpt><trkpt lat="46.3245171" lon="10.328973"><ele>869.0</ele><time>2026-04-26T15:01:06.35Z</time></trkpt><trkpt lat="46.3244572" lon="10.3288365"><ele>869.0</ele><time>2026-04-26T15:01:07.359Z</time></trkpt><trkpt lat="46.3243996" lon="10.3286894"><ele>869.0</ele><time>2026-04-26T15:01:08.35Z</time></trkpt><trkpt lat="46.3243461" lon="10.3285128"><ele>869.0</ele><time>2026-04-26T15:01:09.354Z</time></trkpt><trkpt lat="46.3242941" lon="10.3283433"><ele>869.0</ele><time>2026-04-26T15:01:10.355Z</time></trkpt><trkpt lat="46.3242365" lon="10.3282142"><ele>869.0</ele><time>2026-04-26T15:01:11.356Z</time></trkpt><trkpt lat="46.3241621" lon="10.3281013"><ele>869.0000000000001</ele><time>2026-04-26T15:01:12.352Z</time></trkpt><trkpt lat="46.3240871" lon="10.3279645"><ele>869.0000000000001</ele><time>2026-04-26T15:01:13.352Z</time></trkpt><trkpt lat="46.3240323" lon="10.327813"><ele>869.0</ele><time>2026-04-26T15:01:14.354Z</time></trkpt><trkpt lat="46.3239888" lon="10.3276821"><ele>869.0</ele><time>2026-04-26T15:01:15.354Z</time></trkpt><trkpt lat="46.3239624" lon="10.3275342"><ele>868.5000000000001</ele><time>2026-04-26T15:01:16.351Z</time></trkpt><trkpt lat="46.3239363" lon="10.32738"><ele>868.0</ele><time>2026-04-26T15:01:17.354Z</time></trkpt><trkpt lat="46.3239332" lon="10.3272725"><ele>867.5</ele><time>2026-04-26T15:01:18.351Z</time></trkpt><trkpt lat="46.3239227" lon="10.3271701"><ele>867.0</ele><time>2026-04-26T15:01:19.346Z</time></trkpt><trkpt lat="46.3239259" lon="10.3270367"><ele>866.5000000000001</ele><time>2026-04-26T15:01:21.357Z</time></trkpt><trkpt lat="46.3239298" lon="10.3269388"><ele>866.0</ele><time>2026-04-26T15:01:23.352Z</time></trkpt><trkpt lat="46.3239277" lon="10.3268214"><ele>865.6666666666667</ele><time>2026-04-26T15:01:26.353Z</time></trkpt><trkpt lat="46.3239342" lon="10.3267222"><ele>865.3333333333333</ele><time>2026-04-26T15:01:29.354Z</time></trkpt><trkpt lat="46.3239459" lon="10.3265673"><ele>865.0</ele><time>2026-04-26T15:01:30.357Z</time></trkpt><trkpt lat="46.3239283" lon="10.3261326"><ele>864.5</ele><time>2026-04-26T15:01:31.35Z</time></trkpt><trkpt lat="46.3239377" lon="10.325958"><ele>864.0</ele><time>2026-04-26T15:01:32.351Z</time></trkpt><trkpt lat="46.3239487" lon="10.3257651"><ele>863.5</ele><time>2026-04-26T15:01:33.348Z</time></trkpt><trkpt lat="46.3239549" lon="10.3255773"><ele>863.0</ele><time>2026-04-26T15:01:34.353Z</time></trkpt><trkpt lat="46.3239568" lon="10.3254098"><ele>862.5999999999999</ele><time>2026-04-26T15:01:35.361Z</time></trkpt><trkpt lat="46.3239654" lon="10.325253"><ele>862.1999999999999</ele><time>2026-04-26T15:01:36.354Z</time></trkpt><trkpt lat="46.323965" lon="10.3251025"><ele>861.8</ele><time>2026-04-26T15:01:37.351Z</time></trkpt><trkpt lat="46.323968" lon="10.3249737"><ele>861.4</ele><time>2026-04-26T15:01:38.355Z</time></trkpt><trkpt lat="46.3239771" lon="10.3248661"><ele>861.0</ele><time>2026-04-26T15:01:39.355Z</time></trkpt><trkpt lat="46.3240274" lon="10.3247336"><ele>860.8</ele><time>2026-04-26T15:01:41.347Z</time></trkpt><trkpt lat="46.3240952" lon="10.3246668"><ele>860.5999999999999</ele><time>2026-04-26T15:01:43.347Z</time></trkpt><trkpt lat="46.324106" lon="10.3245724"><ele>860.4</ele><time>2026-04-26T15:01:45.357Z</time></trkpt><trkpt lat="46.3240376" lon="10.324413"><ele>860.2</ele><time>2026-04-26T15:01:47.36Z</time></trkpt><trkpt lat="46.3239908" lon="10.324286"><ele>860.0</ele><time>2026-04-26T15:01:48.362Z</time></trkpt><trkpt lat="46.3239545" lon="10.32413"><ele>860.0</ele><time>2026-04-26T15:01:49.361Z</time></trkpt><trkpt lat="46.3239385" lon="10.3239654"><ele>860.0</ele><time>2026-04-26T15:01:50.347Z</time></trkpt><trkpt lat="46.3239325" lon="10.3237839"><ele>860.0</ele><time>2026-04-26T15:01:51.355Z</time></trkpt><trkpt lat="46.3239233" lon="10.3235893"><ele>860.0</ele><time>2026-04-26T15:01:52.357Z</time></trkpt><trkpt lat="46.3238876" lon="10.323411"><ele>871.5</ele><time>2026-04-26T15:01:53.347Z</time></trkpt><trkpt lat="46.3238572" lon="10.3232294"><ele>883.0</ele><time>2026-04-26T15:01:54.35Z</time></trkpt><trkpt lat="46.3238415" lon="10.3230565"><ele>894.5</ele><time>2026-04-26T15:01:55.356Z</time></trkpt><trkpt lat="46.3238587" lon="10.3229142"><ele>906.0</ele><time>2026-04-26T15:01:56.349Z</time></trkpt><trkpt lat="46.3238759" lon="10.322732"><ele>911.1999999999999</ele><time>2026-04-26T15:01:57.353Z</time></trkpt><trkpt lat="46.3238915" lon="10.3225497"><ele>916.3999999999999</ele><time>2026-04-26T15:01:58.354Z</time></trkpt><trkpt lat="46.3239158" lon="10.3223881"><ele>921.6</ele><time>2026-04-26T15:01:59.346Z</time></trkpt><trkpt lat="46.3239282" lon="10.3222478"><ele>926.8</ele><time>2026-04-26T15:02:01.35Z</time></trkpt><trkpt lat="46.3238643" lon="10.3222307"><ele>932.0</ele><time>2026-04-26T15:02:04.357Z</time></trkpt><trkpt lat="46.3238147" lon="10.3224293"><ele>932.0</ele><time>2026-04-26T15:02:06.35Z</time></trkpt><trkpt lat="46.3237691" lon="10.3225323"><ele>932.0</ele><time>2026-04-26T15:02:07.362Z</time></trkpt><trkpt lat="46.3236837" lon="10.3227032"><ele>932.0</ele><time>2026-04-26T15:02:08.356Z</time></trkpt><trkpt lat="46.3236016" lon="10.3228396"><ele>932.0</ele><time>2026-04-26T15:02:09.35Z</time></trkpt><trkpt lat="46.3235084" lon="10.322989"><ele>926.8</ele><time>2026-04-26T15:02:10.353Z</time></trkpt><trkpt lat="46.3234038" lon="10.3231132"><ele>921.6</ele><time>2026-04-26T15:02:11.354Z</time></trkpt><trkpt lat="46.3233269" lon="10.3232193"><ele>916.3999999999999</ele><time>2026-04-26T15:02:12.351Z</time></trkpt><trkpt lat="46.3232806" lon="10.3232842"><ele>911.1999999999999</ele><time>2026-04-26T15:02:13.352Z</time></trkpt><trkpt lat="46.3231961" lon="10.3233413"><ele>906.0</ele><time>2026-04-26T15:02:15.354Z</time></trkpt><trkpt lat="46.3231993" lon="10.3232148"><ele>906.0</ele><time>2026-04-26T15:02:17.352Z</time></trkpt><trkpt lat="46.323234" lon="10.3231225"><ele>906.0</ele><time>2026-04-26T15:02:20.355Z</time></trkpt><trkpt lat="46.3232495" lon="10.3229638"><ele>906.0</ele><time>2026-04-26T15:02:23.353Z</time></trkpt><trkpt lat="46.323299" lon="10.3227306"><ele>906.0</ele><time>2026-04-26T15:02:24.355Z</time></trkpt><trkpt lat="46.3235955" lon="10.3219077"><ele>914.1999999999999</ele><time>2026-04-26T15:02:25.358Z</time></trkpt><trkpt lat="46.3236364" lon="10.321717"><ele>922.3999999999999</ele><time>2026-04-26T15:02:26.347Z</time></trkpt><trkpt lat="46.3236544" lon="10.321551"><ele>930.6</ele><time>2026-04-26T15:02:27.346Z</time></trkpt><trkpt lat="46.3236511" lon="10.3214061"><ele>938.8</ele><time>2026-04-26T15:02:28.352Z</time></trkpt><trkpt lat="46.3236458" lon="10.3212721"><ele>947.0</ele><time>2026-04-26T15:02:29.354Z</time></trkpt><trkpt lat="46.3236183" lon="10.3211598"><ele>947.0000000000001</ele><time>2026-04-26T15:02:30.35Z</time></trkpt><trkpt lat="46.3235805" lon="10.3210546"><ele>947.0</ele><time>2026-04-26T15:02:31.352Z</time></trkpt><trkpt lat="46.3235222" lon="10.3209354"><ele>947.0</ele><time>2026-04-26T15:02:32.356Z</time></trkpt><trkpt lat="46.3234737" lon="10.3208228"><ele>947.0</ele><time>2026-04-26T15:02:33.352Z</time></trkpt><trkpt lat="46.3234089" lon="10.3207274"><ele>947.0000000000001</ele><time>2026-04-26T15:02:35.355Z</time></trkpt><trkpt lat="46.3233735" lon="10.3208101"><ele>947.0</ele><time>2026-04-26T15:02:37.352Z</time></trkpt><trkpt lat="46.323386" lon="10.320916"><ele>947.0</ele><time>2026-04-26T15:02:40.353Z</time></trkpt><trkpt lat="46.3233071" lon="10.3208139"><ele>947.0</ele><time>2026-04-26T15:02:45.357Z</time></trkpt><trkpt lat="46.3232444" lon="10.3206826"><ele>947.0</ele><time>2026-04-26T15:02:47.352Z</time></trkpt><trkpt lat="46.3231799" lon="10.320783"><ele>947.0</ele><time>2026-04-26T15:02:49.345Z</time></trkpt><trkpt lat="46.3231847" lon="10.3209061"><ele>947.0</ele><time>2026-04-26T15:02:51.35Z</time></trkpt><trkpt lat="46.3231215" lon="10.3209044"><ele>947.0000000000001</ele><time>2026-04-26T15:02:52.347Z</time></trkpt><trkpt lat="46.3230765" lon="10.3208114"><ele>947.0</ele><time>2026-04-26T15:02:56.348Z</time></trkpt><trkpt lat="46.3230036" lon="10.3207767"><ele>947.0</ele><time>2026-04-26T15:02:58.355Z</time></trkpt><trkpt lat="46.3229709" lon="10.3209152"><ele>947.0</ele><time>2026-04-26T15:03:00.343Z</time></trkpt><trkpt lat="46.3229973" lon="10.3210306"><ele>947.0000000000001</ele><time>2026-04-26T15:03:01.349Z</time></trkpt><trkpt lat="46.3230433" lon="10.3211384"><ele>947.0</ele><time>2026-04-26T15:03:02.354Z</time></trkpt><trkpt lat="46.3230827" lon="10.3212229"><ele>947.0</ele><time>2026-04-26T15:03:03.358Z</time></trkpt><trkpt lat="46.3231043" lon="10.3213466"><ele>947.0</ele><time>2026-04-26T15:03:05.355Z</time></trkpt><trkpt lat="46.3229977" lon="10.3213284"><ele>947.0</ele><time>2026-04-26T15:03:08.354Z</time></trkpt><trkpt lat="46.3229072" lon="10.3212266"><ele>947.0</ele><time>2026-04-26T15:03:09.358Z</time></trkpt><trkpt lat="46.3228031" lon="10.3211603"><ele>947.0</ele><time>2026-04-26T15:03:10.367Z</time></trkpt><trkpt lat="46.3227193" lon="10.3210997"><ele>955.1666666666667</ele><time>2026-04-26T15:03:11.355Z</time></trkpt><trkpt lat="46.3226531" lon="10.3210101"><ele>963.3333333333334</ele><time>2026-04-26T15:03:12.352Z</time></trkpt><trkpt lat="46.3226042" lon="10.3209242"><ele>971.5</ele><time>2026-04-26T15:03:13.352Z</time></trkpt><trkpt lat="46.3225617" lon="10.320826"><ele>979.6666666666667</ele><time>2026-04-26T15:03:14.349Z</time></trkpt><trkpt lat="46.3225666" lon="10.3207285"><ele>987.8333333333334</ele><time>2026-04-26T15:03:15.35Z</time></trkpt><trkpt lat="46.3225114" lon="10.320676"><ele>996.0</ele><time>2026-04-26T15:03:17.348Z</time></trkpt><trkpt lat="46.3224782" lon="10.3207821"><ele>996.0</ele><time>2026-04-26T15:03:19.351Z</time></trkpt><trkpt lat="46.322484" lon="10.3208874"><ele>996.0</ele><time>2026-04-26T15:03:20.349Z</time></trkpt><trkpt lat="46.3224465" lon="10.3209781"><ele>996.0</ele><time>2026-04-26T15:03:22.36Z</time></trkpt><trkpt lat="46.3223876" lon="10.3208423"><ele>996.0</ele><time>2026-04-26T15:03:26.351Z</time></trkpt><trkpt lat="46.3223859" lon="10.3207132"><ele>996.0</ele><time>2026-04-26T15:03:27.352Z</time></trkpt><trkpt lat="46.3223625" lon="10.3205691"><ele>996.0</ele><time>2026-04-26T15:03:28.365Z</time></trkpt><trkpt lat="46.3223168" lon="10.3204081"><ele>994.5</ele><time>2026-04-26T15:03:29.35Z</time></trkpt><trkpt lat="46.3223189" lon="10.3202542"><ele>993.0</ele><time>2026-04-26T15:03:30.349Z</time></trkpt><trkpt lat="46.3223338" lon="10.3201101"><ele>991.5</ele><time>2026-04-26T15:03:31.347Z</time></trkpt><trkpt lat="46.3223603" lon="10.3199391"><ele>990.0</ele><time>2026-04-26T15:03:32.351Z</time></trkpt><trkpt lat="46.3223695" lon="10.3197475"><ele>992.0</ele><time>2026-04-26T15:03:33.352Z</time></trkpt><trkpt lat="46.3223713" lon="10.3195408"><ele>994.0</ele><time>2026-04-26T15:03:34.349Z</time></trkpt><trkpt lat="46.3223709" lon="10.3193476"><ele>996.0</ele><time>2026-04-26T15:03:35.347Z</time></trkpt><trkpt lat="46.3223696" lon="10.3191869"><ele>998.0</ele><time>2026-04-26T15:03:36.352Z</time></trkpt><trkpt lat="46.3223995" lon="10.3190027"><ele>998.0000000000001</ele><time>2026-04-26T15:03:37.348Z</time></trkpt><trkpt lat="46.3224159" lon="10.3188782"><ele>998.0</ele><time>2026-04-26T15:03:38.352Z</time></trkpt><trkpt lat="46.3223964" lon="10.3187707"><ele>998.0</ele><time>2026-04-26T15:03:40.355Z</time></trkpt><trkpt lat="46.3223512" lon="10.3188416"><ele>998.0</ele><time>2026-04-26T15:03:42.351Z</time></trkpt><trkpt lat="46.322325" lon="10.3189439"><ele>998.0000000000001</ele><time>2026-04-26T15:03:43.352Z</time></trkpt><trkpt lat="46.3222849" lon="10.3190632"><ele>998.0</ele><time>2026-04-26T15:03:44.353Z</time></trkpt><trkpt lat="46.3222339" lon="10.3191586"><ele>1008.6666666666667</ele><time>2026-04-26T15:03:45.354Z</time></trkpt><trkpt lat="46.3221822" lon="10.319295"><ele>1019.3333333333334</ele><time>2026-04-26T15:03:46.355Z</time></trkpt><trkpt lat="46.3221497" lon="10.3194043"><ele>1030.0</ele><time>2026-04-26T15:03:47.351Z</time></trkpt><trkpt lat="46.3220892" lon="10.3194863"><ele>1040.6666666666667</ele><time>2026-04-26T15:03:49.355Z</time></trkpt><trkpt lat="46.3220671" lon="10.3193955"><ele>1051.3333333333333</ele><time>2026-04-26T15:03:51.349Z</time></trkpt><trkpt lat="46.3220748" lon="10.3192934"><ele>1062.0</ele><time>2026-04-26T15:03:52.351Z</time></trkpt><trkpt lat="46.3220859" lon="10.3191512"><ele>1062.0</ele><time>2026-04-26T15:03:53.353Z</time></trkpt><trkpt lat="46.3221013" lon="10.3189956"><ele>1062.0</ele><time>2026-04-26T15:03:54.361Z</time></trkpt><trkpt lat="46.3221285" lon="10.318826"><ele>1062.0</ele><time>2026-04-26T15:03:55.35Z</time></trkpt><trkpt lat="46.3221444" lon="10.3186359"><ele>1062.0</ele><time>2026-04-26T15:03:56.351Z</time></trkpt><trkpt lat="46.3221549" lon="10.3184552"><ele>1062.2</ele><time>2026-04-26T15:03:57.352Z</time></trkpt><trkpt lat="46.3221923" lon="10.3183332"><ele>1062.4</ele><time>2026-04-26T15:03:58.349Z</time></trkpt><trkpt lat="46.3222314" lon="10.3182082"><ele>1062.6</ele><time>2026-04-26T15:03:59.349Z</time></trkpt><trkpt lat="46.3222455" lon="10.3180741"><ele>1062.8</ele><time>2026-04-26T15:04:00.358Z</time></trkpt><trkpt lat="46.3222239" lon="10.3179292"><ele>1063.0</ele><time>2026-04-26T15:04:01.351Z</time></trkpt><trkpt lat="46.3221915" lon="10.3177957"><ele>1063.0</ele><time>2026-04-26T15:04:02.35Z</time></trkpt><trkpt lat="46.3221437" lon="10.3176893"><ele>1063.0</ele><time>2026-04-26T15:04:03.352Z</time></trkpt><trkpt lat="46.3220903" lon="10.3175547"><ele>1063.0</ele><time>2026-04-26T15:04:04.348Z</time></trkpt><trkpt lat="46.3220158" lon="10.3173935"><ele>1063.0</ele><time>2026-04-26T15:04:05.352Z</time></trkpt><trkpt lat="46.3219655" lon="10.3172393"><ele>1063.0</ele><time>2026-04-26T15:04:06.349Z</time></trkpt><trkpt lat="46.3218864" lon="10.3171219"><ele>1056.2</ele><time>2026-04-26T15:04:07.35Z</time></trkpt><trkpt lat="46.321796" lon="10.3169986"><ele>1049.4</ele><time>2026-04-26T15:04:08.352Z</time></trkpt><trkpt lat="46.3217041" lon="10.3169229"><ele>1042.6000000000001</ele><time>2026-04-26T15:04:09.349Z</time></trkpt><trkpt lat="46.3216202" lon="10.3168903"><ele>1035.8</ele><time>2026-04-26T15:04:10.349Z</time></trkpt><trkpt lat="46.3215226" lon="10.3168938"><ele>1029.0</ele><time>2026-04-26T15:04:11.347Z</time></trkpt><trkpt lat="46.321423" lon="10.3169292"><ele>1033.0</ele><time>2026-04-26T15:04:12.354Z</time></trkpt><trkpt lat="46.3213252" lon="10.3169759"><ele>1037.0</ele><time>2026-04-26T15:04:13.356Z</time></trkpt><trkpt lat="46.3212086" lon="10.316975"><ele>1041.0</ele><time>2026-04-26T15:04:15.35Z</time></trkpt><trkpt lat="46.3211147" lon="10.3169588"><ele>1045.0</ele><time>2026-04-26T15:04:17.349Z</time></trkpt><trkpt lat="46.321097" lon="10.3170763"><ele>1049.0</ele><time>2026-04-26T15:04:20.353Z</time></trkpt><trkpt lat="46.3212102" lon="10.3172382"><ele>1051.8</ele><time>2026-04-26T15:04:22.357Z</time></trkpt><trkpt lat="46.3213103" lon="10.3173233"><ele>1054.6000000000001</ele><time>2026-04-26T15:04:23.351Z</time></trkpt><trkpt lat="46.3214179" lon="10.3173685"><ele>1057.4</ele><time>2026-04-26T15:04:24.351Z</time></trkpt><trkpt lat="46.321519" lon="10.3173846"><ele>1060.2</ele><time>2026-04-26T15:04:25.352Z</time></trkpt><trkpt lat="46.3215978" lon="10.3174251"><ele>1063.0</ele><time>2026-04-26T15:04:27.354Z</time></trkpt><trkpt lat="46.3214984" lon="10.3174925"><ele>1067.75</ele><time>2026-04-26T15:04:30.36Z</time></trkpt><trkpt lat="46.3213841" lon="10.3175475"><ele>1072.5</ele><time>2026-04-26T15:04:31.35Z</time></trkpt><trkpt lat="46.3212542" lon="10.3176032"><ele>1077.25</ele><time>2026-04-26T15:04:32.356Z</time></trkpt><trkpt lat="46.3211349" lon="10.3176428"><ele>1082.0</ele><time>2026-04-26T15:04:33.354Z</time></trkpt><trkpt lat="46.321032" lon="10.3176398"><ele>1082.0</ele><time>2026-04-26T15:04:34.353Z</time></trkpt><trkpt lat="46.3209387" lon="10.3176189"><ele>1082.0</ele><time>2026-04-26T15:04:35.354Z</time></trkpt><trkpt lat="46.3208332" lon="10.3175173"><ele>1082.0</ele><time>2026-04-26T15:04:36.357Z</time></trkpt><trkpt lat="46.3207215" lon="10.3174086"><ele>1082.0</ele><time>2026-04-26T15:04:37.351Z</time></trkpt><trkpt lat="46.3206079" lon="10.3172982"><ele>1081.2</ele><time>2026-04-26T15:04:38.349Z</time></trkpt><trkpt lat="46.320513" lon="10.3172057"><ele>1080.4</ele><time>2026-04-26T15:04:39.348Z</time></trkpt><trkpt lat="46.3204409" lon="10.317142"><ele>1079.6</ele><time>2026-04-26T15:04:40.349Z</time></trkpt><trkpt lat="46.3203256" lon="10.3171264"><ele>1078.8</ele><time>2026-04-26T15:04:42.349Z</time></trkpt><trkpt lat="46.3202585" lon="10.3171467"><ele>1078.0</ele><time>2026-04-26T15:04:43.366Z</time></trkpt><trkpt lat="46.3201629" lon="10.3171693"><ele>1078.0</ele><time>2026-04-26T15:04:44.349Z</time></trkpt><trkpt lat="46.3200514" lon="10.3171831"><ele>1078.0</ele><time>2026-04-26T15:04:45.352Z</time></trkpt><trkpt lat="46.3199457" lon="10.317128"><ele>1078.0</ele><time>2026-04-26T15:04:46.348Z</time></trkpt><trkpt lat="46.319838" lon="10.3170341"><ele>1078.0</ele><time>2026-04-26T15:04:47.35Z</time></trkpt><trkpt lat="46.3197233" lon="10.3169086"><ele>1080.6</ele><time>2026-04-26T15:04:48.352Z</time></trkpt><trkpt lat="46.3196138" lon="10.3167722"><ele>1083.1999999999998</ele><time>2026-04-26T15:04:49.349Z</time></trkpt><trkpt lat="46.3195424" lon="10.3166544"><ele>1085.8</ele><time>2026-04-26T15:04:50.351Z</time></trkpt><trkpt lat="46.3194892" lon="10.3165514"><ele>1088.3999999999999</ele><time>2026-04-26T15:04:51.35Z</time></trkpt><trkpt lat="46.3194518" lon="10.3164771"><ele>1091.0</ele><time>2026-04-26T15:04:52.35Z</time></trkpt><trkpt lat="46.3194267" lon="10.3163818"><ele>1091.0</ele><time>2026-04-26T15:04:54.351Z</time></trkpt><trkpt lat="46.319347" lon="10.3163012"><ele>1091.0</ele><time>2026-04-26T15:04:57.352Z</time></trkpt><trkpt lat="46.3192873" lon="10.3162602"><ele>1091.0</ele><time>2026-04-26T15:05:00.363Z</time></trkpt><trkpt lat="46.3192172" lon="10.3162017"><ele>1091.0</ele><time>2026-04-26T15:05:03.352Z</time></trkpt><trkpt lat="46.3191133" lon="10.3161337"><ele>1091.0</ele><time>2026-04-26T15:05:04.349Z</time></trkpt><trkpt lat="46.3189718" lon="10.31608"><ele>1093.25</ele><time>2026-04-26T15:05:05.353Z</time></trkpt><trkpt lat="46.3188312" lon="10.3160485"><ele>1095.5</ele><time>2026-04-26T15:05:06.352Z</time></trkpt><trkpt lat="46.3187074" lon="10.3160216"><ele>1097.75</ele><time>2026-04-26T15:05:07.357Z</time></trkpt><trkpt lat="46.3186076" lon="10.3160086"><ele>1100.0</ele><time>2026-04-26T15:05:08.356Z</time></trkpt><trkpt lat="46.3185263" lon="10.3160254"><ele>1100.0</ele><time>2026-04-26T15:05:09.349Z</time></trkpt><trkpt lat="46.3184515" lon="10.3160744"><ele>1100.0</ele><time>2026-04-26T15:05:10.352Z</time></trkpt><trkpt lat="46.3183686" lon="10.3161518"><ele>1100.0</ele><time>2026-04-26T15:05:11.359Z</time></trkpt><trkpt lat="46.3182773" lon="10.3162424"><ele>1100.0</ele><time>2026-04-26T15:05:12.36Z</time></trkpt><trkpt lat="46.3181867" lon="10.3163236"><ele>1100.0</ele><time>2026-04-26T15:05:13.351Z</time></trkpt><trkpt lat="46.3181048" lon="10.3164005"><ele>1102.4</ele><time>2026-04-26T15:05:14.352Z</time></trkpt><trkpt lat="46.3180185" lon="10.3164574"><ele>1104.8</ele><time>2026-04-26T15:05:15.349Z</time></trkpt><trkpt lat="46.3179151" lon="10.3164883"><ele>1107.2</ele><time>2026-04-26T15:05:16.352Z</time></trkpt><trkpt lat="46.3178034" lon="10.3165002"><ele>1109.6</ele><time>2026-04-26T15:05:17.351Z</time></trkpt><trkpt lat="46.3176917" lon="10.3164951"><ele>1112.0</ele><time>2026-04-26T15:05:18.356Z</time></trkpt><trkpt lat="46.3175849" lon="10.3164743"><ele>1112.0</ele><time>2026-04-26T15:05:19.349Z</time></trkpt><trkpt lat="46.3174774" lon="10.3164171"><ele>1112.0</ele><time>2026-04-26T15:05:20.353Z</time></trkpt><trkpt lat="46.3173825" lon="10.3163187"><ele>1112.0</ele><time>2026-04-26T15:05:21.35Z</time></trkpt><trkpt lat="46.3172978" lon="10.3162129"><ele>1112.0</ele><time>2026-04-26T15:05:22.351Z</time></trkpt><trkpt lat="46.3172277" lon="10.316123"><ele>1112.0</ele><time>2026-04-26T15:05:23.355Z</time></trkpt><trkpt lat="46.3171795" lon="10.316062"><ele>1111.2</ele><time>2026-04-26T15:05:24.354Z</time></trkpt><trkpt lat="46.3170971" lon="10.3160519"><ele>1110.4</ele><time>2026-04-26T15:05:26.349Z</time></trkpt><trkpt lat="46.317037" lon="10.3161506"><ele>1109.6</ele><time>2026-04-26T15:05:28.356Z</time></trkpt><trkpt lat="46.3169207" lon="10.3161956"><ele>1108.8</ele><time>2026-04-26T15:05:30.351Z</time></trkpt><trkpt lat="46.3167731" lon="10.3162187"><ele>1108.0</ele><time>2026-04-26T15:05:31.354Z</time></trkpt><trkpt lat="46.3166305" lon="10.3162337"><ele>1108.0</ele><time>2026-04-26T15:05:32.352Z</time></trkpt><trkpt lat="46.3165349" lon="10.3162197"><ele>1108.0</ele><time>2026-04-26T15:05:33.352Z</time></trkpt><trkpt lat="46.3164463" lon="10.3161889"><ele>1108.0</ele><time>2026-04-26T15:05:34.351Z</time></trkpt><trkpt lat="46.316352" lon="10.3161325"><ele>1108.0</ele><time>2026-04-26T15:05:35.355Z</time></trkpt><trkpt lat="46.3162332" lon="10.3160651"><ele>1108.0</ele><time>2026-04-26T15:05:36.36Z</time></trkpt><trkpt lat="46.3161013" lon="10.3160016"><ele>1107.75</ele><time>2026-04-26T15:05:37.356Z</time></trkpt><trkpt lat="46.3159557" lon="10.3159497"><ele>1107.5</ele><time>2026-04-26T15:05:38.348Z</time></trkpt><trkpt lat="46.3158325" lon="10.3159109"><ele>1107.25</ele><time>2026-04-26T15:05:39.348Z</time></trkpt><trkpt lat="46.3157253" lon="10.3158961"><ele>1107.0</ele><time>2026-04-26T15:05:40.35Z</time></trkpt><trkpt lat="46.3156197" lon="10.3158779"><ele>1111.0</ele><time>2026-04-26T15:05:41.351Z</time></trkpt><trkpt lat="46.3155493" lon="10.3158457"><ele>1115.0</ele><time>2026-04-26T15:05:42.353Z</time></trkpt><trkpt lat="46.3154717" lon="10.3158176"><ele>1119.0</ele><time>2026-04-26T15:05:43.348Z</time></trkpt><trkpt lat="46.3153941" lon="10.3158023"><ele>1123.0</ele><time>2026-04-26T15:05:44.348Z</time></trkpt><trkpt lat="46.3153259" lon="10.3157712"><ele>1127.0</ele><time>2026-04-26T15:05:45.35Z</time></trkpt><trkpt lat="46.3152582" lon="10.315738"><ele>1131.0</ele><time>2026-04-26T15:05:46.346Z</time></trkpt><trkpt lat="46.3151991" lon="10.3156998"><ele>1135.0</ele><time>2026-04-26T15:05:47.356Z</time></trkpt><trkpt lat="46.3151065" lon="10.3156524"><ele>1135.0</ele><time>2026-04-26T15:05:49.349Z</time></trkpt><trkpt lat="46.3150031" lon="10.3156415"><ele>1135.0</ele><time>2026-04-26T15:05:51.351Z</time></trkpt><trkpt lat="46.3148874" lon="10.315604"><ele>1135.0</ele><time>2026-04-26T15:05:53.361Z</time></trkpt><trkpt lat="46.314825" lon="10.3155665"><ele>1135.0</ele><time>2026-04-26T15:05:54.348Z</time></trkpt><trkpt lat="46.314752" lon="10.3155115"><ele>1135.0</ele><time>2026-04-26T15:05:55.352Z</time></trkpt><trkpt lat="46.3146608" lon="10.3154517"><ele>1133.6666666666665</ele><time>2026-04-26T15:05:56.346Z</time></trkpt><trkpt lat="46.3145703" lon="10.3153985"><ele>1132.3333333333333</ele><time>2026-04-26T15:05:57.348Z</time></trkpt><trkpt lat="46.3144851" lon="10.3153506"><ele>1131.0</ele><time>2026-04-26T15:05:58.346Z</time></trkpt><trkpt lat="46.3144185" lon="10.3153117"><ele>1129.6666666666667</ele><time>2026-04-26T15:05:59.346Z</time></trkpt><trkpt lat="46.3143592" lon="10.3152755"><ele>1128.3333333333335</ele><time>2026-04-26T15:06:00.357Z</time></trkpt><trkpt lat="46.3142546" lon="10.3152219"><ele>1127.0</ele><time>2026-04-26T15:06:02.354Z</time></trkpt><trkpt lat="46.3141255" lon="10.3152357"><ele>1127.0</ele><time>2026-04-26T15:06:04.357Z</time></trkpt><trkpt lat="46.3140396" lon="10.315237"><ele>1127.0</ele><time>2026-04-26T15:06:05.352Z</time></trkpt><trkpt lat="46.3139411" lon="10.3152141"><ele>1127.0</ele><time>2026-04-26T15:06:06.349Z</time></trkpt><trkpt lat="46.3138499" lon="10.31518"><ele>1127.0</ele><time>2026-04-26T15:06:07.347Z</time></trkpt><trkpt lat="46.3137693" lon="10.3151388"><ele>1127.0</ele><time>2026-04-26T15:06:08.348Z</time></trkpt><trkpt lat="46.3136997" lon="10.3151289"><ele>1127.0</ele><time>2026-04-26T15:06:09.349Z</time></trkpt><trkpt lat="46.3135739" lon="10.3152048"><ele>1135.0</ele><time>2026-04-26T15:06:11.351Z</time></trkpt><trkpt lat="46.3134598" lon="10.3152316"><ele>1143.0</ele><time>2026-04-26T15:06:13.349Z</time></trkpt><trkpt lat="46.3133425" lon="10.3151885"><ele>1151.0</ele><time>2026-04-26T15:06:15.353Z</time></trkpt><trkpt lat="46.3132894" lon="10.3151291"><ele>1159.0</ele><time>2026-04-26T15:06:16.349Z</time></trkpt><trkpt lat="46.3132248" lon="10.3150115"><ele>1167.0</ele><time>2026-04-26T15:06:17.35Z</time></trkpt><trkpt lat="46.3131598" lon="10.3148942"><ele>1167.0</ele><time>2026-04-26T15:06:18.352Z</time></trkpt><trkpt lat="46.3131159" lon="10.3147559"><ele>1167.0</ele><time>2026-04-26T15:06:19.348Z</time></trkpt><trkpt lat="46.3130881" lon="10.3146359"><ele>1167.0</ele><time>2026-04-26T15:06:20.35Z</time></trkpt><trkpt lat="46.3130369" lon="10.3145643"><ele>1167.0</ele><time>2026-04-26T15:06:22.351Z</time></trkpt><trkpt lat="46.3130205" lon="10.3146647"><ele>1167.0</ele><time>2026-04-26T15:06:25.358Z</time></trkpt><trkpt lat="46.3130296" lon="10.3147852"><ele>1167.0</ele><time>2026-04-26T15:06:28.345Z</time></trkpt><trkpt lat="46.3130562" lon="10.3148723"><ele>1167.0</ele><time>2026-04-26T15:06:29.357Z</time></trkpt><trkpt lat="46.3131183" lon="10.3151197"><ele>1167.0</ele><time>2026-04-26T15:06:30.35Z</time></trkpt><trkpt lat="46.3131399" lon="10.3152736"><ele>1167.0</ele><time>2026-04-26T15:06:31.347Z</time></trkpt><trkpt lat="46.3131505" lon="10.3153665"><ele>1167.0</ele><time>2026-04-26T15:06:32.351Z</time></trkpt><trkpt lat="46.3130493" lon="10.315378"><ele>1171.25</ele><time>2026-04-26T15:06:35.359Z</time></trkpt><trkpt lat="46.3129979" lon="10.3153047"><ele>1175.5</ele><time>2026-04-26T15:06:37.357Z</time></trkpt><trkpt lat="46.3129905" lon="10.3151798"><ele>1179.75</ele><time>2026-04-26T15:06:40.35Z</time></trkpt><trkpt lat="46.3129835" lon="10.3150886"><ele>1184.0</ele><time>2026-04-26T15:06:41.352Z</time></trkpt><trkpt lat="46.3127423" lon="10.3142276"><ele>1184.0</ele><time>2026-04-26T15:06:42.353Z</time></trkpt><trkpt lat="46.3126426" lon="10.3140996"><ele>1184.0</ele><time>2026-04-26T15:06:43.346Z</time></trkpt><trkpt lat="46.3125621" lon="10.3140028"><ele>1184.0</ele><time>2026-04-26T15:06:44.349Z</time></trkpt><trkpt lat="46.3124774" lon="10.3139395"><ele>1184.0</ele><time>2026-04-26T15:06:45.352Z</time></trkpt><trkpt lat="46.3122899" lon="10.3139383"><ele>1181.8</ele><time>2026-04-26T15:06:46.357Z</time></trkpt><trkpt lat="46.3121541" lon="10.3139164"><ele>1179.6000000000001</ele><time>2026-04-26T15:06:47.349Z</time></trkpt><trkpt lat="46.3120468" lon="10.3138859"><ele>1177.4</ele><time>2026-04-26T15:06:48.348Z</time></trkpt><trkpt lat="46.3119555" lon="10.3138715"><ele>1175.2</ele><time>2026-04-26T15:06:49.35Z</time></trkpt><trkpt lat="46.3118756" lon="10.3138553"><ele>1173.0</ele><time>2026-04-26T15:06:50.351Z</time></trkpt><trkpt lat="46.3118065" lon="10.3138762"><ele>1183.6666666666667</ele><time>2026-04-26T15:06:51.351Z</time></trkpt><trkpt lat="46.3116899" lon="10.3139398"><ele>1194.3333333333335</ele><time>2026-04-26T15:06:53.35Z</time></trkpt><trkpt lat="46.311947" lon="10.3139553"><ele>1205.0</ele><time>2026-04-26T15:06:55.351Z</time></trkpt><trkpt lat="46.3120309" lon="10.3139928"><ele>1205.0</ele><time>2026-04-26T15:06:56.354Z</time></trkpt><trkpt lat="46.3120375" lon="10.3140876"><ele>1205.0</ele><time>2026-04-26T15:06:59.356Z</time></trkpt><trkpt lat="46.3119786" lon="10.3141348"><ele>1205.0</ele><time>2026-04-26T15:07:02.348Z</time></trkpt><trkpt lat="46.311904" lon="10.3141685"><ele>1205.0</ele><time>2026-04-26T15:07:06.348Z</time></trkpt><trkpt lat="46.3117045" lon="10.314155"><ele>1205.0</ele><time>2026-04-26T15:07:08.353Z</time></trkpt><trkpt lat="46.3114824" lon="10.3140927"><ele>1212.6666666666667</ele><time>2026-04-26T15:07:09.356Z</time></trkpt><trkpt lat="46.3111768" lon="10.3140175"><ele>1220.3333333333333</ele><time>2026-04-26T15:07:10.353Z</time></trkpt><trkpt lat="46.3110952" lon="10.3140338"><ele>1228.0</ele><time>2026-04-26T15:07:11.353Z</time></trkpt><trkpt lat="46.311014" lon="10.3140228"><ele>1228.0</ele><time>2026-04-26T15:07:12.355Z</time></trkpt><trkpt lat="46.3108977" lon="10.3139786"><ele>1228.0</ele><time>2026-04-26T15:07:13.352Z</time></trkpt><trkpt lat="46.3107777" lon="10.3139453"><ele>1228.0</ele><time>2026-04-26T15:07:14.354Z</time></trkpt><trkpt lat="46.3106577" lon="10.3139342"><ele>1228.0</ele><time>2026-04-26T15:07:15.354Z</time></trkpt><trkpt lat="46.3105595" lon="10.3139513"><ele>1230.0</ele><time>2026-04-26T15:07:16.353Z</time></trkpt><trkpt lat="46.310479" lon="10.3139949"><ele>1232.0</ele><time>2026-04-26T15:07:17.355Z</time></trkpt><trkpt lat="46.3103858" lon="10.3139834"><ele>1234.0</ele><time>2026-04-26T15:07:18.355Z</time></trkpt><trkpt lat="46.310302" lon="10.3139472"><ele>1236.0</ele><time>2026-04-26T15:07:19.357Z</time></trkpt><trkpt lat="46.3101975" lon="10.3138378"><ele>1238.0</ele><time>2026-04-26T15:07:20.361Z</time></trkpt><trkpt lat="46.3101059" lon="10.3137863"><ele>1232.0</ele><time>2026-04-26T15:07:21.35Z</time></trkpt><trkpt lat="46.3099975" lon="10.3137518"><ele>1226.0</ele><time>2026-04-26T15:07:22.355Z</time></trkpt><trkpt lat="46.3099062" lon="10.3137781"><ele>1220.0</ele><time>2026-04-26T15:07:23.351Z</time></trkpt><trkpt lat="46.3097687" lon="10.3138231"><ele>1214.0</ele><time>2026-04-26T15:07:24.355Z</time></trkpt><trkpt lat="46.3096409" lon="10.3138645"><ele>1222.8</ele><time>2026-04-26T15:07:25.357Z</time></trkpt><trkpt lat="46.3095308" lon="10.3139249"><ele>1231.6000000000001</ele><time>2026-04-26T15:07:26.348Z</time></trkpt><trkpt lat="46.3094166" lon="10.3139904"><ele>1240.4</ele><time>2026-04-26T15:07:27.347Z</time></trkpt><trkpt lat="46.3093173" lon="10.3140592"><ele>1249.2</ele><time>2026-04-26T15:07:28.355Z</time></trkpt><trkpt lat="46.3092449" lon="10.3140998"><ele>1258.0</ele><time>2026-04-26T15:07:29.347Z</time></trkpt><trkpt lat="46.3091825" lon="10.3141481"><ele>1258.0</ele><time>2026-04-26T15:07:30.347Z</time></trkpt><trkpt lat="46.3091186" lon="10.3141653"><ele>1258.0</ele><time>2026-04-26T15:07:31.349Z</time></trkpt><trkpt lat="46.3090207" lon="10.3142245"><ele>1258.0</ele><time>2026-04-26T15:07:33.349Z</time></trkpt><trkpt lat="46.3091685" lon="10.3141682"><ele>1258.0</ele><time>2026-04-26T15:07:34.35Z</time></trkpt><trkpt lat="46.3092881" lon="10.3142116"><ele>1258.0</ele><time>2026-04-26T15:07:36.349Z</time></trkpt><trkpt lat="46.3093579" lon="10.3142517"><ele>1258.0</ele><time>2026-04-26T15:07:39.351Z</time></trkpt><trkpt lat="46.3095171" lon="10.3143191"><ele>1258.0</ele><time>2026-04-26T15:07:42.35Z</time></trkpt><trkpt lat="46.310033" lon="10.3147862"><ele>1260.5</ele><time>2026-04-26T15:07:43.351Z</time></trkpt><trkpt lat="46.310158" lon="10.3148623"><ele>1263.0</ele><time>2026-04-26T15:07:44.351Z</time></trkpt><trkpt lat="46.3102725" lon="10.3148929"><ele>1265.5</ele><time>2026-04-26T15:07:45.353Z</time></trkpt><trkpt lat="46.3103858" lon="10.3148941"><ele>1268.0</ele><time>2026-04-26T15:07:46.36Z</time></trkpt><trkpt lat="46.3105019" lon="10.3148869"><ele>1265.2</ele><time>2026-04-26T15:07:47.352Z</time></trkpt><trkpt lat="46.3105954" lon="10.3148537"><ele>1262.4</ele><time>2026-04-26T15:07:48.347Z</time></trkpt><trkpt lat="46.3106657" lon="10.314806"><ele>1259.6000000000001</ele><time>2026-04-26T15:07:49.356Z</time></trkpt><trkpt lat="46.3107745" lon="10.3147895"><ele>1256.8</ele><time>2026-04-26T15:07:51.355Z</time></trkpt><trkpt lat="46.3107873" lon="10.3150111"><ele>1254.0</ele><time>2026-04-26T15:07:53.35Z</time></trkpt><trkpt lat="46.3108182" lon="10.315096"><ele>1254.0</ele><time>2026-04-26T15:07:55.352Z</time></trkpt><trkpt lat="46.3108431" lon="10.3152265"><ele>1254.0</ele><time>2026-04-26T15:07:58.352Z</time></trkpt><trkpt lat="46.3110081" lon="10.3153544"><ele>1254.0</ele><time>2026-04-26T15:07:59.352Z</time></trkpt><trkpt lat="46.3112445" lon="10.3160372"><ele>1258.6666666666667</ele><time>2026-04-26T15:08:00.353Z</time></trkpt><trkpt lat="46.3113046" lon="10.3161103"><ele>1263.3333333333333</ele><time>2026-04-26T15:08:01.353Z</time></trkpt><trkpt lat="46.3113564" lon="10.3161791"><ele>1268.0</ele><time>2026-04-26T15:08:02.351Z</time></trkpt><trkpt lat="46.3113398" lon="10.3162786"><ele>1272.6666666666665</ele><time>2026-04-26T15:08:04.346Z</time></trkpt><trkpt lat="46.3112513" lon="10.3162687"><ele>1277.3333333333333</ele><time>2026-04-26T15:08:06.35Z</time></trkpt><trkpt lat="46.311132" lon="10.3161601"><ele>1282.0</ele><time>2026-04-26T15:08:08.357Z</time></trkpt><trkpt lat="46.3110593" lon="10.3160963"><ele>1282.0</ele><time>2026-04-26T15:08:09.357Z</time></trkpt><trkpt lat="46.3109869" lon="10.31605"><ele>1282.0</ele><time>2026-04-26T15:08:10.354Z</time></trkpt><trkpt lat="46.3109243" lon="10.3160231"><ele>1282.0</ele><time>2026-04-26T15:08:11.351Z</time></trkpt><trkpt lat="46.3108627" lon="10.3159807"><ele>1282.0</ele><time>2026-04-26T15:08:12.35Z</time></trkpt><trkpt lat="46.310795" lon="10.3159408"><ele>1282.0</ele><time>2026-04-26T15:08:13.353Z</time></trkpt><trkpt lat="46.3107208" lon="10.315905"><ele>1282.0</ele><time>2026-04-26T15:08:14.349Z</time></trkpt><trkpt lat="46.3106532" lon="10.3158803"><ele>1282.0</ele><time>2026-04-26T15:08:15.348Z</time></trkpt><trkpt lat="46.3105753" lon="10.315833"><ele>1286.1666666666665</ele><time>2026-04-26T15:08:16.35Z</time></trkpt><trkpt lat="46.3104902" lon="10.3157884"><ele>1290.3333333333333</ele><time>2026-04-26T15:08:17.348Z</time></trkpt><trkpt lat="46.3104175" lon="10.3157629"><ele>1294.5</ele><time>2026-04-26T15:08:18.352Z</time></trkpt><trkpt lat="46.3103461" lon="10.3157485"><ele>1298.6666666666667</ele><time>2026-04-26T15:08:19.349Z</time></trkpt><trkpt lat="46.310257" lon="10.3157478"><ele>1302.8333333333335</ele><time>2026-04-26T15:08:20.353Z</time></trkpt><trkpt lat="46.3101863" lon="10.3157399"><ele>1307.0</ele><time>2026-04-26T15:08:21.35Z</time></trkpt><trkpt lat="46.3100758" lon="10.3157158"><ele>1307.0</ele><time>2026-04-26T15:08:22.348Z</time></trkpt><trkpt lat="46.30997" lon="10.3157065"><ele>1307.0</ele><time>2026-04-26T15:08:23.347Z</time></trkpt><trkpt lat="46.3098677" lon="10.3157003"><ele>1307.0</ele><time>2026-04-26T15:08:24.353Z</time></trkpt><trkpt lat="46.309797" lon="10.3157013"><ele>1307.0</ele><time>2026-04-26T15:08:25.347Z</time></trkpt><trkpt lat="46.3097218" lon="10.3157046"><ele>1307.0</ele><time>2026-04-26T15:08:26.352Z</time></trkpt><trkpt lat="46.3096294" lon="10.3157042"><ele>1307.0</ele><time>2026-04-26T15:08:27.348Z</time></trkpt><trkpt lat="46.3095413" lon="10.3156867"><ele>1314.5</ele><time>2026-04-26T15:08:28.351Z</time></trkpt><trkpt lat="46.3094561" lon="10.3156811"><ele>1322.0</ele><time>2026-04-26T15:08:29.349Z</time></trkpt><trkpt lat="46.309379" lon="10.3156801"><ele>1329.5</ele><time>2026-04-26T15:08:30.348Z</time></trkpt><trkpt lat="46.3092443" lon="10.3157038"><ele>1337.0</ele><time>2026-04-26T15:08:32.346Z</time></trkpt><trkpt lat="46.3091689" lon="10.3156705"><ele>1344.5</ele><time>2026-04-26T15:08:33.35Z</time></trkpt><trkpt lat="46.3091096" lon="10.3156377"><ele>1352.0</ele><time>2026-04-26T15:08:34.347Z</time></trkpt><trkpt lat="46.3090261" lon="10.3156069"><ele>1350.1666666666667</ele><time>2026-04-26T15:08:35.353Z</time></trkpt><trkpt lat="46.3089281" lon="10.3155637"><ele>1348.3333333333335</ele><time>2026-04-26T15:08:36.347Z</time></trkpt><trkpt lat="46.3088654" lon="10.3155243"><ele>1346.5</ele><time>2026-04-26T15:08:37.351Z</time></trkpt><trkpt lat="46.308785" lon="10.3154975"><ele>1344.6666666666667</ele><time>2026-04-26T15:08:38.347Z</time></trkpt><trkpt lat="46.3087182" lon="10.3155023"><ele>1342.8333333333333</ele><time>2026-04-26T15:08:39.35Z</time></trkpt><trkpt lat="46.3086551" lon="10.3155031"><ele>1341.0</ele><time>2026-04-26T15:08:40.352Z</time></trkpt><trkpt lat="46.308543" lon="10.3154629"><ele>1341.0</ele><time>2026-04-26T15:08:42.349Z</time></trkpt><trkpt lat="46.3084465" lon="10.3154023"><ele>1341.0</ele><time>2026-04-26T15:08:44.352Z</time></trkpt><trkpt lat="46.3083774" lon="10.3153669"><ele>1341.0</ele><time>2026-04-26T15:08:45.35Z</time></trkpt><trkpt lat="46.3083058" lon="10.3153241"><ele>1341.0</ele><time>2026-04-26T15:08:46.357Z</time></trkpt><trkpt lat="46.3082372" lon="10.3153065"><ele>1341.0</ele><time>2026-04-26T15:08:47.354Z</time></trkpt><trkpt lat="46.3081502" lon="10.315257"><ele>1341.0</ele><time>2026-04-26T15:08:48.354Z</time></trkpt><trkpt lat="46.3080892" lon="10.315223"><ele>1345.1666666666667</ele><time>2026-04-26T15:08:49.348Z</time></trkpt><trkpt lat="46.308023" lon="10.3151839"><ele>1349.3333333333333</ele><time>2026-04-26T15:08:50.347Z</time></trkpt><trkpt lat="46.3079387" lon="10.3152056"><ele>1353.5</ele><time>2026-04-26T15:08:52.355Z</time></trkpt><trkpt lat="46.3078317" lon="10.3152508"><ele>1357.6666666666665</ele><time>2026-04-26T15:08:54.347Z</time></trkpt><trkpt lat="46.3077645" lon="10.315254"><ele>1361.8333333333333</ele><time>2026-04-26T15:08:55.354Z</time></trkpt><trkpt lat="46.3076882" lon="10.3152482"><ele>1366.0</ele><time>2026-04-26T15:08:56.353Z</time></trkpt><trkpt lat="46.3076045" lon="10.3152622"><ele>1366.0</ele><time>2026-04-26T15:08:57.358Z</time></trkpt><trkpt lat="46.3075247" lon="10.3152803"><ele>1366.0</ele><time>2026-04-26T15:08:58.346Z</time></trkpt><trkpt lat="46.3074496" lon="10.3152852"><ele>1366.0</ele><time>2026-04-26T15:08:59.348Z</time></trkpt><trkpt lat="46.3073668" lon="10.3153072"><ele>1366.0</ele><time>2026-04-26T15:09:00.35Z</time></trkpt><trkpt lat="46.3072802" lon="10.315336"><ele>1366.0</ele><time>2026-04-26T15:09:01.349Z</time></trkpt><trkpt lat="46.3072177" lon="10.3153053"><ele>1366.0</ele><time>2026-04-26T15:09:04.348Z</time></trkpt><trkpt lat="46.307163" lon="10.3151998"><ele>1370.25</ele><time>2026-04-26T15:09:05.351Z</time></trkpt><trkpt lat="46.3071123" lon="10.3150965"><ele>1374.5</ele><time>2026-04-26T15:09:06.36Z</time></trkpt><trkpt lat="46.3070339" lon="10.3149947"><ele>1378.75</ele><time>2026-04-26T15:09:07.362Z</time></trkpt><trkpt lat="46.3069291" lon="10.3149069"><ele>1383.0</ele><time>2026-04-26T15:09:08.349Z</time></trkpt><trkpt lat="46.3067978" lon="10.3148337"><ele>1383.0</ele><time>2026-04-26T15:09:09.347Z</time></trkpt><trkpt lat="46.3066552" lon="10.3147744"><ele>1383.0</ele><time>2026-04-26T15:09:10.348Z</time></trkpt><trkpt lat="46.3065244" lon="10.3147027"><ele>1383.0</ele><time>2026-04-26T15:09:11.347Z</time></trkpt><trkpt lat="46.3064135" lon="10.314657"><ele>1383.0</ele><time>2026-04-26T15:09:12.35Z</time></trkpt><trkpt lat="46.3063102" lon="10.3145999"><ele>1381.4</ele><time>2026-04-26T15:09:13.35Z</time></trkpt><trkpt lat="46.3062136" lon="10.3145322"><ele>1379.8000000000002</ele><time>2026-04-26T15:09:14.353Z</time></trkpt><trkpt lat="46.3061349" lon="10.3144672"><ele>1378.2</ele><time>2026-04-26T15:09:15.352Z</time></trkpt><trkpt lat="46.3060832" lon="10.3143592"><ele>1376.6</ele><time>2026-04-26T15:09:16.347Z</time></trkpt><trkpt lat="46.3060598" lon="10.3142473"><ele>1375.0</ele><time>2026-04-26T15:09:17.353Z</time></trkpt><trkpt lat="46.3060783" lon="10.3141095"><ele>1375.0</ele><time>2026-04-26T15:09:18.349Z</time></trkpt><trkpt lat="46.3060679" lon="10.3140153"><ele>1375.0</ele><time>2026-04-26T15:09:19.346Z</time></trkpt><trkpt lat="46.3059605" lon="10.3139177"><ele>1375.0</ele><time>2026-04-26T15:09:21.347Z</time></trkpt><trkpt lat="46.305892" lon="10.3138656"><ele>1375.0</ele><time>2026-04-26T15:09:22.347Z</time></trkpt><trkpt lat="46.30585" lon="10.3137865"><ele>1375.0</ele><time>2026-04-26T15:09:23.35Z</time></trkpt><trkpt lat="46.3058698" lon="10.3136733"><ele>1375.0</ele><time>2026-04-26T15:09:24.348Z</time></trkpt><trkpt lat="46.3058726" lon="10.3135779"><ele>1370.0</ele><time>2026-04-26T15:09:25.356Z</time></trkpt><trkpt lat="46.3058523" lon="10.3134748"><ele>1365.0</ele><time>2026-04-26T15:09:26.347Z</time></trkpt><trkpt lat="46.3057936" lon="10.3133568"><ele>1360.0</ele><time>2026-04-26T15:09:27.352Z</time></trkpt><trkpt lat="46.3057269" lon="10.3132543"><ele>1355.0</ele><time>2026-04-26T15:09:28.349Z</time></trkpt><trkpt lat="46.3056559" lon="10.3131647"><ele>1350.0</ele><time>2026-04-26T15:09:29.349Z</time></trkpt><trkpt lat="46.3055864" lon="10.3130947"><ele>1351.3333333333333</ele><time>2026-04-26T15:09:30.352Z</time></trkpt><trkpt lat="46.3055199" lon="10.313046"><ele>1352.6666666666667</ele><time>2026-04-26T15:09:31.348Z</time></trkpt><trkpt lat="46.3054451" lon="10.3129822"><ele>1354.0</ele><time>2026-04-26T15:09:32.35Z</time></trkpt><trkpt lat="46.305389" lon="10.312898"><ele>1355.3333333333335</ele><time>2026-04-26T15:09:33.348Z</time></trkpt><trkpt lat="46.3053462" lon="10.3128034"><ele>1356.6666666666667</ele><time>2026-04-26T15:09:34.347Z</time></trkpt><trkpt lat="46.3053066" lon="10.3126975"><ele>1358.0</ele><time>2026-04-26T15:09:35.348Z</time></trkpt><trkpt lat="46.3052417" lon="10.312559"><ele>1358.0</ele><time>2026-04-26T15:09:36.347Z</time></trkpt><trkpt lat="46.3052197" lon="10.3123709"><ele>1358.0</ele><time>2026-04-26T15:09:37.351Z</time></trkpt><trkpt lat="46.3052858" lon="10.3122793"><ele>1358.0</ele><time>2026-04-26T15:09:38.351Z</time></trkpt><trkpt lat="46.3053603" lon="10.312136"><ele>1358.0</ele><time>2026-04-26T15:09:39.349Z</time></trkpt><trkpt lat="46.3054198" lon="10.3120569"><ele>1358.0</ele><time>2026-04-26T15:09:40.353Z</time></trkpt><trkpt lat="46.3053496" lon="10.3120114"><ele>1352.6000000000001</ele><time>2026-04-26T15:09:41.349Z</time></trkpt><trkpt lat="46.3052883" lon="10.3118654"><ele>1347.2</ele><time>2026-04-26T15:09:43.35Z</time></trkpt><trkpt lat="46.305227" lon="10.311723"><ele>1341.8</ele><time>2026-04-26T15:09:44.357Z</time></trkpt><trkpt lat="46.3051298" lon="10.311606"><ele>1336.4</ele><time>2026-04-26T15:09:46.351Z</time></trkpt><trkpt lat="46.3050642" lon="10.3115881"><ele>1331.0</ele><time>2026-04-26T15:09:47.349Z</time></trkpt><trkpt lat="46.3049914" lon="10.311551"><ele>1331.0</ele><time>2026-04-26T15:09:48.355Z</time></trkpt><trkpt lat="46.3049138" lon="10.3115055"><ele>1331.0</ele><time>2026-04-26T15:09:49.35Z</time></trkpt><trkpt lat="46.3048296" lon="10.3114508"><ele>1331.0</ele><time>2026-04-26T15:09:50.35Z</time></trkpt><trkpt lat="46.3047434" lon="10.3113843"><ele>1331.0</ele><time>2026-04-26T15:09:51.35Z</time></trkpt><trkpt lat="46.304659" lon="10.3113054"><ele>1331.0</ele><time>2026-04-26T15:09:52.354Z</time></trkpt><trkpt lat="46.3045364" lon="10.3112099"><ele>1329.75</ele><time>2026-04-26T15:09:53.352Z</time></trkpt><trkpt lat="46.3044535" lon="10.3110759"><ele>1328.5</ele><time>2026-04-26T15:09:54.351Z</time></trkpt><trkpt lat="46.3043395" lon="10.3109756"><ele>1327.25</ele><time>2026-04-26T15:09:55.351Z</time></trkpt><trkpt lat="46.3042462" lon="10.3108628"><ele>1326.0</ele><time>2026-04-26T15:09:56.349Z</time></trkpt><trkpt lat="46.3041593" lon="10.3107535"><ele>1326.0</ele><time>2026-04-26T15:09:57.351Z</time></trkpt><trkpt lat="46.3040802" lon="10.3106458"><ele>1326.0</ele><time>2026-04-26T15:09:58.347Z</time></trkpt><trkpt lat="46.3040011" lon="10.3105161"><ele>1326.0</ele><time>2026-04-26T15:09:59.352Z</time></trkpt><trkpt lat="46.3039461" lon="10.3104158"><ele>1326.0</ele><time>2026-04-26T15:10:00.352Z</time></trkpt><trkpt lat="46.3038764" lon="10.3103173"><ele>1326.0</ele><time>2026-04-26T15:10:01.358Z</time></trkpt><trkpt lat="46.3037971" lon="10.3101986"><ele>1327.4</ele><time>2026-04-26T15:10:02.348Z</time></trkpt><trkpt lat="46.3037175" lon="10.3100722"><ele>1328.8</ele><time>2026-04-26T15:10:03.351Z</time></trkpt><trkpt lat="46.3036417" lon="10.3099733"><ele>1330.2</ele><time>2026-04-26T15:10:04.351Z</time></trkpt><trkpt lat="46.3035876" lon="10.3099161"><ele>1331.6000000000001</ele><time>2026-04-26T15:10:05.351Z</time></trkpt><trkpt lat="46.3035593" lon="10.3097753"><ele>1333.0</ele><time>2026-04-26T15:10:07.348Z</time></trkpt><trkpt lat="46.3035367" lon="10.3096855"><ele>1327.4</ele><time>2026-04-26T15:10:08.35Z</time></trkpt><trkpt lat="46.303451" lon="10.3095917"><ele>1321.8000000000002</ele><time>2026-04-26T15:10:10.351Z</time></trkpt><trkpt lat="46.3033682" lon="10.3095256"><ele>1316.2</ele><time>2026-04-26T15:10:11.352Z</time></trkpt><trkpt lat="46.3033113" lon="10.3094464"><ele>1310.6</ele><time>2026-04-26T15:10:12.351Z</time></trkpt><trkpt lat="46.3032616" lon="10.3093101"><ele>1305.0</ele><time>2026-04-26T15:10:13.353Z</time></trkpt><trkpt lat="46.3031974" lon="10.3091676"><ele>1305.0</ele><time>2026-04-26T15:10:14.357Z</time></trkpt><trkpt lat="46.3031145" lon="10.3090314"><ele>1305.0</ele><time>2026-04-26T15:10:15.352Z</time></trkpt><trkpt lat="46.3030318" lon="10.3089303"><ele>1305.0</ele><time>2026-04-26T15:10:16.35Z</time></trkpt><trkpt lat="46.3029398" lon="10.308866"><ele>1305.0</ele><time>2026-04-26T15:10:17.35Z</time></trkpt><trkpt lat="46.3028503" lon="10.3088186"><ele>1305.0</ele><time>2026-04-26T15:10:18.345Z</time></trkpt><trkpt lat="46.3027393" lon="10.3088414"><ele>1307.8</ele><time>2026-04-26T15:10:19.352Z</time></trkpt><trkpt lat="46.3026315" lon="10.3088432"><ele>1310.6</ele><time>2026-04-26T15:10:20.355Z</time></trkpt><trkpt lat="46.3025465" lon="10.3087967"><ele>1313.4</ele><time>2026-04-26T15:10:22.346Z</time></trkpt><trkpt lat="46.3024783" lon="10.3087125"><ele>1316.2</ele><time>2026-04-26T15:10:24.349Z</time></trkpt><trkpt lat="46.3024733" lon="10.3085857"><ele>1319.0</ele><time>2026-04-26T15:10:26.355Z</time></trkpt><trkpt lat="46.3025389" lon="10.3085037"><ele>1319.0</ele><time>2026-04-26T15:10:28.349Z</time></trkpt><trkpt lat="46.302612" lon="10.3083991"><ele>1319.0</ele><time>2026-04-26T15:10:30.353Z</time></trkpt><trkpt lat="46.3026413" lon="10.3082659"><ele>1319.0</ele><time>2026-04-26T15:10:32.347Z</time></trkpt><trkpt lat="46.3026168" lon="10.3081639"><ele>1319.0</ele><time>2026-04-26T15:10:33.351Z</time></trkpt><trkpt lat="46.302571" lon="10.3080457"><ele>1319.0</ele><time>2026-04-26T15:10:34.346Z</time></trkpt><trkpt lat="46.3025212" lon="10.3079378"><ele>1315.8000000000002</ele><time>2026-04-26T15:10:35.357Z</time></trkpt><trkpt lat="46.3024715" lon="10.3078395"><ele>1312.6000000000001</ele><time>2026-04-26T15:10:36.352Z</time></trkpt><trkpt lat="46.3024238" lon="10.3077056"><ele>1309.4</ele><time>2026-04-26T15:10:37.348Z</time></trkpt><trkpt lat="46.3024184" lon="10.3075299"><ele>1306.2</ele><time>2026-04-26T15:10:38.346Z</time></trkpt><trkpt lat="46.3023875" lon="10.3074329"><ele>1303.0</ele><time>2026-04-26T15:10:40.354Z</time></trkpt><trkpt lat="46.3023539" lon="10.3073402"><ele>1303.0</ele><time>2026-04-26T15:10:42.347Z</time></trkpt><trkpt lat="46.3023194" lon="10.3072582"><ele>1303.0</ele><time>2026-04-26T15:10:46.348Z</time></trkpt><trkpt lat="46.3022817" lon="10.307163"><ele>1303.0</ele><time>2026-04-26T15:10:50.348Z</time></trkpt><trkpt lat="46.3022439" lon="10.3070588"><ele>1303.0</ele><time>2026-04-26T15:10:53.351Z</time></trkpt><trkpt lat="46.3022315" lon="10.3069459"><ele>1303.0</ele><time>2026-04-26T15:10:57.346Z</time></trkpt><trkpt lat="46.3022015" lon="10.3068498"><ele>1303.0</ele><time>2026-04-26T15:10:59.351Z</time></trkpt><trkpt lat="46.3021328" lon="10.3066983"><ele>1304.25</ele><time>2026-04-26T15:11:01.353Z</time></trkpt><trkpt lat="46.3020262" lon="10.3065109"><ele>1305.5</ele><time>2026-04-26T15:11:02.346Z</time></trkpt><trkpt lat="46.3019781" lon="10.3063535"><ele>1306.75</ele><time>2026-04-26T15:11:03.351Z</time></trkpt><trkpt lat="46.3019246" lon="10.3061981"><ele>1308.0</ele><time>2026-04-26T15:11:04.35Z</time></trkpt><trkpt lat="46.3019322" lon="10.3060165"><ele>1308.0</ele><time>2026-04-26T15:11:05.348Z</time></trkpt><trkpt lat="46.3019068" lon="10.3058451"><ele>1308.0</ele><time>2026-04-26T15:11:06.35Z</time></trkpt><trkpt lat="46.3018834" lon="10.3056894"><ele>1308.0</ele><time>2026-04-26T15:11:07.35Z</time></trkpt><trkpt lat="46.3018925" lon="10.305595"><ele>1308.0</ele><time>2026-04-26T15:11:08.351Z</time></trkpt><trkpt lat="46.3019367" lon="10.3054406"><ele>1308.0</ele><time>2026-04-26T15:11:10.351Z</time></trkpt><trkpt lat="46.3019798" lon="10.305356"><ele>1301.6000000000001</ele><time>2026-04-26T15:11:11.349Z</time></trkpt><trkpt lat="46.3019658" lon="10.3052103"><ele>1295.2</ele><time>2026-04-26T15:11:13.352Z</time></trkpt><trkpt lat="46.3018879" lon="10.3051421"><ele>1288.8</ele><time>2026-04-26T15:11:14.35Z</time></trkpt><trkpt lat="46.3018205" lon="10.3050882"><ele>1282.4</ele><time>2026-04-26T15:11:15.351Z</time></trkpt><trkpt lat="46.3017373" lon="10.3050304"><ele>1276.0</ele><time>2026-04-26T15:11:16.35Z</time></trkpt><trkpt lat="46.3016537" lon="10.3049609"><ele>1276.0</ele><time>2026-04-26T15:11:17.349Z</time></trkpt><trkpt lat="46.3016022" lon="10.3048752"><ele>1276.0</ele><time>2026-04-26T15:11:18.348Z</time></trkpt><trkpt lat="46.3015667" lon="10.3047502"><ele>1276.0</ele><time>2026-04-26T15:11:19.352Z</time></trkpt><trkpt lat="46.3014961" lon="10.304678"><ele>1276.0</ele><time>2026-04-26T15:11:21.349Z</time></trkpt><trkpt lat="46.3013738" lon="10.3045065"><ele>1276.0</ele><time>2026-04-26T15:11:23.349Z</time></trkpt><trkpt lat="46.3012948" lon="10.3044075"><ele>1275.2</ele><time>2026-04-26T15:11:24.351Z</time></trkpt><trkpt lat="46.3012118" lon="10.3043003"><ele>1274.3999999999999</ele><time>2026-04-26T15:11:25.351Z</time></trkpt><trkpt lat="46.3011374" lon="10.3042161"><ele>1273.6</ele><time>2026-04-26T15:11:26.35Z</time></trkpt><trkpt lat="46.3010457" lon="10.3041283"><ele>1272.8</ele><time>2026-04-26T15:11:27.35Z</time></trkpt><trkpt lat="46.3009383" lon="10.3040348"><ele>1272.0</ele><time>2026-04-26T15:11:28.345Z</time></trkpt><trkpt lat="46.3008165" lon="10.3039548"><ele>1267.0</ele><time>2026-04-26T15:11:29.355Z</time></trkpt><trkpt lat="46.3006679" lon="10.3038442"><ele>1262.0</ele><time>2026-04-26T15:11:30.353Z</time></trkpt><trkpt lat="46.3005056" lon="10.3037897"><ele>1257.0</ele><time>2026-04-26T15:11:31.35Z</time></trkpt><trkpt lat="46.3003421" lon="10.3037082"><ele>1257.0</ele><time>2026-04-26T15:11:32.36Z</time></trkpt><trkpt lat="46.3002009" lon="10.303628"><ele>1257.0</ele><time>2026-04-26T15:11:33.349Z</time></trkpt><trkpt lat="46.3000699" lon="10.303542"><ele>1257.0</ele><time>2026-04-26T15:11:34.354Z</time></trkpt><trkpt lat="46.2999577" lon="10.3034407"><ele>1257.0</ele><time>2026-04-26T15:11:35.351Z</time></trkpt><trkpt lat="46.2999117" lon="10.303282"><ele>1257.0</ele><time>2026-04-26T15:11:36.346Z</time></trkpt><trkpt lat="46.2998405" lon="10.3031165"><ele>1257.0</ele><time>2026-04-26T15:11:37.35Z</time></trkpt><trkpt lat="46.299736" lon="10.302968"><ele>1257.0</ele><time>2026-04-26T15:11:38.348Z</time></trkpt><trkpt lat="46.2996368" lon="10.3028284"><ele>1257.0</ele><time>2026-04-26T15:11:39.353Z</time></trkpt><trkpt lat="46.2995707" lon="10.3027204"><ele>1256.6</ele><time>2026-04-26T15:11:40.354Z</time></trkpt><trkpt lat="46.2995149" lon="10.3025959"><ele>1256.2</ele><time>2026-04-26T15:11:41.351Z</time></trkpt><trkpt lat="46.2994595" lon="10.3024639"><ele>1255.8</ele><time>2026-04-26T15:11:42.346Z</time></trkpt><trkpt lat="46.2993934" lon="10.3023758"><ele>1255.4</ele><time>2026-04-26T15:11:43.349Z</time></trkpt><trkpt lat="46.2993104" lon="10.3023102"><ele>1255.0</ele><time>2026-04-26T15:11:44.351Z</time></trkpt><trkpt lat="46.2992488" lon="10.3022162"><ele>1247.2</ele><time>2026-04-26T15:11:46.351Z</time></trkpt><trkpt lat="46.2991778" lon="10.3021949"><ele>1239.4</ele><time>2026-04-26T15:11:47.35Z</time></trkpt><trkpt lat="46.2990755" lon="10.3021834"><ele>1231.6</ele><time>2026-04-26T15:11:49.356Z</time></trkpt><trkpt lat="46.2990995" lon="10.3020772"><ele>1223.8</ele><time>2026-04-26T15:11:53.35Z</time></trkpt><trkpt lat="46.299184" lon="10.3020646"><ele>1216.0</ele><time>2026-04-26T15:11:57.355Z</time></trkpt><trkpt lat="46.2992999" lon="10.3021971"><ele>1229.0</ele><time>2026-04-26T15:11:58.359Z</time></trkpt><trkpt lat="46.299633" lon="10.3023163"><ele>1242.0</ele><time>2026-04-26T15:11:59.356Z</time></trkpt><trkpt lat="46.299698" lon="10.3023553"><ele>1255.0</ele><time>2026-04-26T15:12:01.349Z</time></trkpt><trkpt lat="46.2997189" lon="10.3022686"><ele>1247.2</ele><time>2026-04-26T15:12:02.355Z</time></trkpt><trkpt lat="46.2996035" lon="10.3021842"><ele>1239.4</ele><time>2026-04-26T15:12:03.347Z</time></trkpt><trkpt lat="46.2995602" lon="10.3021091"><ele>1231.6</ele><time>2026-04-26T15:12:05.348Z</time></trkpt><trkpt lat="46.2995086" lon="10.302035"><ele>1223.8</ele><time>2026-04-26T15:12:08.348Z</time></trkpt><trkpt lat="46.2994129" lon="10.3019869"><ele>1216.0</ele><time>2026-04-26T15:12:09.348Z</time></trkpt><trkpt lat="46.2989604" lon="10.3018298"><ele>1219.5</ele><time>2026-04-26T15:12:10.347Z</time></trkpt><trkpt lat="46.2988957" lon="10.30174"><ele>1223.0</ele><time>2026-04-26T15:12:12.349Z</time></trkpt><trkpt lat="46.2988345" lon="10.3016517"><ele>1226.5</ele><time>2026-04-26T15:12:13.347Z</time></trkpt><trkpt lat="46.2988128" lon="10.3015578"><ele>1230.0</ele><time>2026-04-26T15:12:14.36Z</time></trkpt><trkpt lat="46.2988455" lon="10.3014327"><ele>1233.5</ele><time>2026-04-26T15:12:15.359Z</time></trkpt><trkpt lat="46.2988166" lon="10.3013371"><ele>1237.0</ele><time>2026-04-26T15:12:16.348Z</time></trkpt><trkpt lat="46.2987841" lon="10.3012576"><ele>1237.0</ele><time>2026-04-26T15:12:17.355Z</time></trkpt><trkpt lat="46.2987055" lon="10.3011722"><ele>1237.0</ele><time>2026-04-26T15:12:18.348Z</time></trkpt><trkpt lat="46.2985957" lon="10.3010597"><ele>1237.0</ele><time>2026-04-26T15:12:19.351Z</time></trkpt><trkpt lat="46.2984892" lon="10.3009329"><ele>1237.0</ele><time>2026-04-26T15:12:20.35Z</time></trkpt><trkpt lat="46.2983987" lon="10.3008051"><ele>1237.0</ele><time>2026-04-26T15:12:21.349Z</time></trkpt><trkpt lat="46.298336" lon="10.3006845"><ele>1237.0</ele><time>2026-04-26T15:12:22.349Z</time></trkpt><trkpt lat="46.2983126" lon="10.3005816"><ele>1237.0</ele><time>2026-04-26T15:12:23.346Z</time></trkpt><trkpt lat="46.2983108" lon="10.3004381"><ele>1237.0</ele><time>2026-04-26T15:12:24.347Z</time></trkpt><trkpt lat="46.2982965" lon="10.3002777"><ele>1237.0</ele><time>2026-04-26T15:12:25.346Z</time></trkpt><trkpt lat="46.2982751" lon="10.3001612"><ele>1234.0</ele><time>2026-04-26T15:12:26.35Z</time></trkpt><trkpt lat="46.2982446" lon="10.3000419"><ele>1231.0</ele><time>2026-04-26T15:12:27.346Z</time></trkpt><trkpt lat="46.2982059" lon="10.2999234"><ele>1228.0</ele><time>2026-04-26T15:12:28.35Z</time></trkpt><trkpt lat="46.298169" lon="10.2998241"><ele>1225.0</ele><time>2026-04-26T15:12:29.349Z</time></trkpt><trkpt lat="46.2981103" lon="10.2997328"><ele>1222.0</ele><time>2026-04-26T15:12:30.35Z</time></trkpt><trkpt lat="46.2980671" lon="10.2996562"><ele>1219.0</ele><time>2026-04-26T15:12:31.346Z</time></trkpt><trkpt lat="46.2980178" lon="10.299589"><ele>1219.0</ele><time>2026-04-26T15:12:32.347Z</time></trkpt><trkpt lat="46.2979142" lon="10.2994832"><ele>1219.0</ele><time>2026-04-26T15:12:34.352Z</time></trkpt><trkpt lat="46.2978247" lon="10.2993985"><ele>1219.0</ele><time>2026-04-26T15:12:36.351Z</time></trkpt><trkpt lat="46.2977769" lon="10.2993355"><ele>1219.0</ele><time>2026-04-26T15:12:37.355Z</time></trkpt><trkpt lat="46.2977431" lon="10.2992208"><ele>1219.0</ele><time>2026-04-26T15:12:38.352Z</time></trkpt><trkpt lat="46.2976761" lon="10.2990637"><ele>1213.0</ele><time>2026-04-26T15:12:39.351Z</time></trkpt><trkpt lat="46.2976088" lon="10.2989137"><ele>1207.0</ele><time>2026-04-26T15:12:40.352Z</time></trkpt><trkpt lat="46.2975492" lon="10.2987682"><ele>1201.0</ele><time>2026-04-26T15:12:41.35Z</time></trkpt><trkpt lat="46.297497" lon="10.2986339"><ele>1195.0</ele><time>2026-04-26T15:12:42.349Z</time></trkpt><trkpt lat="46.2974659" lon="10.2985227"><ele>1189.0</ele><time>2026-04-26T15:12:43.345Z</time></trkpt><trkpt lat="46.2973864" lon="10.2983588"><ele>1189.0</ele><time>2026-04-26T15:12:44.346Z</time></trkpt><trkpt lat="46.2973435" lon="10.2982025"><ele>1189.0</ele><time>2026-04-26T15:12:45.348Z</time></trkpt><trkpt lat="46.2972945" lon="10.298026"><ele>1189.0</ele><time>2026-04-26T15:12:46.346Z</time></trkpt><trkpt lat="46.2972581" lon="10.297829"><ele>1189.0</ele><time>2026-04-26T15:12:47.348Z</time></trkpt><trkpt lat="46.2972148" lon="10.2976495"><ele>1185.75</ele><time>2026-04-26T15:12:48.349Z</time></trkpt><trkpt lat="46.2971615" lon="10.2974798"><ele>1182.5</ele><time>2026-04-26T15:12:49.351Z</time></trkpt><trkpt lat="46.2971185" lon="10.2973204"><ele>1179.25</ele><time>2026-04-26T15:12:50.352Z</time></trkpt><trkpt lat="46.2970283" lon="10.2971575"><ele>1176.0</ele><time>2026-04-26T15:12:51.35Z</time></trkpt><trkpt lat="46.2969718" lon="10.2969925"><ele>1176.0</ele><time>2026-04-26T15:12:52.352Z</time></trkpt><trkpt lat="46.2969192" lon="10.2968574"><ele>1176.0</ele><time>2026-04-26T15:12:53.348Z</time></trkpt><trkpt lat="46.2968349" lon="10.2967054"><ele>1176.0</ele><time>2026-04-26T15:12:54.352Z</time></trkpt><trkpt lat="46.2967397" lon="10.2965438"><ele>1176.0</ele><time>2026-04-26T15:12:55.348Z</time></trkpt><trkpt lat="46.2966393" lon="10.2963608"><ele>1177.6666666666667</ele><time>2026-04-26T15:12:56.35Z</time></trkpt><trkpt lat="46.2965175" lon="10.2961761"><ele>1179.3333333333335</ele><time>2026-04-26T15:12:57.351Z</time></trkpt><trkpt lat="46.2964115" lon="10.295989"><ele>1181.0</ele><time>2026-04-26T15:12:58.35Z</time></trkpt><trkpt lat="46.2963182" lon="10.2958031"><ele>1181.0</ele><time>2026-04-26T15:12:59.35Z</time></trkpt><trkpt lat="46.2962317" lon="10.2956607"><ele>1181.0</ele><time>2026-04-26T15:13:00.349Z</time></trkpt><trkpt lat="46.2961399" lon="10.2955323"><ele>1181.0</ele><time>2026-04-26T15:13:01.349Z</time></trkpt><trkpt lat="46.2960915" lon="10.2954448"><ele>1181.0</ele><time>2026-04-26T15:13:02.346Z</time></trkpt><trkpt lat="46.2960272" lon="10.2953626"><ele>1181.0</ele><time>2026-04-26T15:13:04.349Z</time></trkpt><trkpt lat="46.2959427" lon="10.2952757"><ele>1181.3999999999999</ele><time>2026-04-26T15:13:06.356Z</time></trkpt><trkpt lat="46.2958541" lon="10.2952218"><ele>1181.8</ele><time>2026-04-26T15:13:07.35Z</time></trkpt><trkpt lat="46.2957435" lon="10.2951167"><ele>1182.1999999999998</ele><time>2026-04-26T15:13:08.354Z</time></trkpt><trkpt lat="46.2956327" lon="10.2950611"><ele>1182.6</ele><time>2026-04-26T15:13:09.347Z</time></trkpt><trkpt lat="46.2955496" lon="10.2950008"><ele>1183.0</ele><time>2026-04-26T15:13:10.352Z</time></trkpt><trkpt lat="46.2954669" lon="10.2949265"><ele>1183.0</ele><time>2026-04-26T15:13:11.35Z</time></trkpt><trkpt lat="46.2953744" lon="10.29484"><ele>1183.0</ele><time>2026-04-26T15:13:12.35Z</time></trkpt><trkpt lat="46.2953733" lon="10.2947071"><ele>1183.0</ele><time>2026-04-26T15:13:13.352Z</time></trkpt><trkpt lat="46.2952781" lon="10.2945846"><ele>1183.0</ele><time>2026-04-26T15:13:15.36Z</time></trkpt><trkpt lat="46.2952011" lon="10.2945244"><ele>1183.0</ele><time>2026-04-26T15:13:16.347Z</time></trkpt><trkpt lat="46.2951641" lon="10.2944444"><ele>1176.8</ele><time>2026-04-26T15:13:17.351Z</time></trkpt><trkpt lat="46.2951015" lon="10.2943499"><ele>1170.6</ele><time>2026-04-26T15:13:18.352Z</time></trkpt><trkpt lat="46.2950688" lon="10.2942093"><ele>1164.4</ele><time>2026-04-26T15:13:19.352Z</time></trkpt><trkpt lat="46.295011" lon="10.2941237"><ele>1158.2</ele><time>2026-04-26T15:13:20.352Z</time></trkpt><trkpt lat="46.2949525" lon="10.2940172"><ele>1152.0</ele><time>2026-04-26T15:13:21.35Z</time></trkpt><trkpt lat="46.2949687" lon="10.2938313"><ele>1147.2</ele><time>2026-04-26T15:13:23.354Z</time></trkpt><trkpt lat="46.2949262" lon="10.2937184"><ele>1142.4</ele><time>2026-04-26T15:13:24.349Z</time></trkpt><trkpt lat="46.2948749" lon="10.2936131"><ele>1137.6</ele><time>2026-04-26T15:13:25.351Z</time></trkpt><trkpt lat="46.2947804" lon="10.2934679"><ele>1132.8</ele><time>2026-04-26T15:13:26.354Z</time></trkpt><trkpt lat="46.2947004" lon="10.2933163"><ele>1128.0</ele><time>2026-04-26T15:13:27.354Z</time></trkpt><trkpt lat="46.2946644" lon="10.293121"><ele>1135.0</ele><time>2026-04-26T15:13:28.355Z</time></trkpt><trkpt lat="46.2945935" lon="10.2929615"><ele>1142.0</ele><time>2026-04-26T15:13:29.35Z</time></trkpt><trkpt lat="46.2945266" lon="10.2928085"><ele>1149.0</ele><time>2026-04-26T15:13:30.35Z</time></trkpt><trkpt lat="46.2944787" lon="10.2926656"><ele>1156.0</ele><time>2026-04-26T15:13:31.351Z</time></trkpt><trkpt lat="46.2944106" lon="10.2924823"><ele>1156.0</ele><time>2026-04-26T15:13:32.347Z</time></trkpt><trkpt lat="46.2943186" lon="10.2923234"><ele>1156.0</ele><time>2026-04-26T15:13:33.351Z</time></trkpt><trkpt lat="46.2942275" lon="10.2921529"><ele>1156.0</ele><time>2026-04-26T15:13:34.354Z</time></trkpt><trkpt lat="46.2941546" lon="10.2919761"><ele>1156.0</ele><time>2026-04-26T15:13:35.346Z</time></trkpt><trkpt lat="46.2940826" lon="10.2917813"><ele>1153.3333333333333</ele><time>2026-04-26T15:13:36.352Z</time></trkpt><trkpt lat="46.2939706" lon="10.2915326"><ele>1150.6666666666667</ele><time>2026-04-26T15:13:37.349Z</time></trkpt><trkpt lat="46.2938935" lon="10.2913157"><ele>1148.0</ele><time>2026-04-26T15:13:38.347Z</time></trkpt><trkpt lat="46.2938018" lon="10.2911072"><ele>1148.0</ele><time>2026-04-26T15:13:39.349Z</time></trkpt><trkpt lat="46.2937223" lon="10.2909069"><ele>1148.0</ele><time>2026-04-26T15:13:40.356Z</time></trkpt><trkpt lat="46.2936873" lon="10.2907631"><ele>1148.0</ele><time>2026-04-26T15:13:41.345Z</time></trkpt><trkpt lat="46.2936408" lon="10.2905944"><ele>1148.0</ele><time>2026-04-26T15:13:42.345Z</time></trkpt><trkpt lat="46.2936047" lon="10.2904233"><ele>1141.75</ele><time>2026-04-26T15:13:43.348Z</time></trkpt><trkpt lat="46.2935665" lon="10.2902466"><ele>1135.5</ele><time>2026-04-26T15:13:44.356Z</time></trkpt><trkpt lat="46.2935271" lon="10.2900926"><ele>1129.25</ele><time>2026-04-26T15:13:45.349Z</time></trkpt><trkpt lat="46.2934809" lon="10.2899341"><ele>1123.0</ele><time>2026-04-26T15:13:46.359Z</time></trkpt><trkpt lat="46.2934201" lon="10.2897458"><ele>1125.0</ele><time>2026-04-26T15:13:48.347Z</time></trkpt><trkpt lat="46.293335" lon="10.2896555"><ele>1127.0</ele><time>2026-04-26T15:13:50.346Z</time></trkpt><trkpt lat="46.2932694" lon="10.2895633"><ele>1129.0</ele><time>2026-04-26T15:13:52.348Z</time></trkpt><trkpt lat="46.2932369" lon="10.2894567"><ele>1131.0</ele><time>2026-04-26T15:16:08.351Z</time></trkpt><trkpt lat="46.2931085" lon="10.2894307"><ele>1133.0</ele><time>2026-04-26T15:16:11.351Z</time></trkpt><trkpt lat="46.2930476" lon="10.2893959"><ele>1133.0</ele><time>2026-04-26T15:16:12.349Z</time></trkpt><trkpt lat="46.2929482" lon="10.2893287"><ele>1133.0</ele><time>2026-04-26T15:16:14.352Z</time></trkpt><trkpt lat="46.2928646" lon="10.2892025"><ele>1133.0</ele><time>2026-04-26T15:16:16.352Z</time></trkpt><trkpt lat="46.2928398" lon="10.2890944"><ele>1133.0</ele><time>2026-04-26T15:16:17.354Z</time></trkpt><trkpt lat="46.2928062" lon="10.2889977"><ele>1133.0</ele><time>2026-04-26T15:16:18.349Z</time></trkpt><trkpt lat="46.2927546" lon="10.2888986"><ele>1127.1666666666667</ele><time>2026-04-26T15:16:19.347Z</time></trkpt><trkpt lat="46.2926902" lon="10.2888038"><ele>1121.3333333333335</ele><time>2026-04-26T15:16:20.346Z</time></trkpt><trkpt lat="46.2926211" lon="10.2887227"><ele>1115.5</ele><time>2026-04-26T15:16:21.345Z</time></trkpt><trkpt lat="46.2925514" lon="10.288666"><ele>1109.6666666666667</ele><time>2026-04-26T15:16:22.35Z</time></trkpt><trkpt lat="46.292479" lon="10.2886354"><ele>1103.8333333333333</ele><time>2026-04-26T15:16:23.353Z</time></trkpt><trkpt lat="46.2924104" lon="10.2886077"><ele>1098.0</ele><time>2026-04-26T15:16:24.35Z</time></trkpt><trkpt lat="46.2922626" lon="10.2885403"><ele>1106.2</ele><time>2026-04-26T15:16:26.352Z</time></trkpt><trkpt lat="46.2921796" lon="10.2884879"><ele>1114.4</ele><time>2026-04-26T15:16:27.35Z</time></trkpt><trkpt lat="46.2920987" lon="10.2884133"><ele>1122.6000000000001</ele><time>2026-04-26T15:16:28.349Z</time></trkpt><trkpt lat="46.2920141" lon="10.288338"><ele>1130.8</ele><time>2026-04-26T15:16:29.346Z</time></trkpt><trkpt lat="46.2919178" lon="10.2882552"><ele>1139.0</ele><time>2026-04-26T15:16:30.35Z</time></trkpt><trkpt lat="46.2918259" lon="10.2881825"><ele>1139.0</ele><time>2026-04-26T15:16:31.352Z</time></trkpt><trkpt lat="46.2917327" lon="10.2881072"><ele>1139.0</ele><time>2026-04-26T15:16:32.353Z</time></trkpt><trkpt lat="46.2916348" lon="10.2880391"><ele>1139.0</ele><time>2026-04-26T15:16:33.354Z</time></trkpt><trkpt lat="46.2915319" lon="10.287973"><ele>1139.0</ele><time>2026-04-26T15:16:34.351Z</time></trkpt><trkpt lat="46.2914221" lon="10.287931"><ele>1139.0</ele><time>2026-04-26T15:16:35.355Z</time></trkpt><trkpt lat="46.2913267" lon="10.2878837"><ele>1139.0</ele><time>2026-04-26T15:16:36.348Z</time></trkpt><trkpt lat="46.2912303" lon="10.2878283"><ele>1139.0</ele><time>2026-04-26T15:16:37.35Z</time></trkpt><trkpt lat="46.2911426" lon="10.2877655"><ele>1139.0</ele><time>2026-04-26T15:16:38.344Z</time></trkpt><trkpt lat="46.2910635" lon="10.2876861"><ele>1139.0</ele><time>2026-04-26T15:16:39.346Z</time></trkpt><trkpt lat="46.2909917" lon="10.2876065"><ele>1139.0</ele><time>2026-04-26T15:16:40.351Z</time></trkpt><trkpt lat="46.290918" lon="10.2875365"><ele>1139.0</ele><time>2026-04-26T15:16:41.351Z</time></trkpt><trkpt lat="46.2908345" lon="10.2874725"><ele>1139.0</ele><time>2026-04-26T15:16:42.355Z</time></trkpt><trkpt lat="46.290756" lon="10.2873904"><ele>1139.0</ele><time>2026-04-26T15:16:43.35Z</time></trkpt><trkpt lat="46.2906951" lon="10.2873117"><ele>1139.0</ele><time>2026-04-26T15:16:44.348Z</time></trkpt><trkpt lat="46.2906289" lon="10.287221"><ele>1139.0</ele><time>2026-04-26T15:16:45.351Z</time></trkpt><trkpt lat="46.2905858" lon="10.2871349"><ele>1139.0</ele><time>2026-04-26T15:16:46.355Z</time></trkpt><trkpt lat="46.290493" lon="10.2870483"><ele>1139.0</ele><time>2026-04-26T15:16:48.346Z</time></trkpt><trkpt lat="46.2904437" lon="10.287124"><ele>1139.0</ele><time>2026-04-26T15:16:50.349Z</time></trkpt><trkpt lat="46.2904957" lon="10.2872606"><ele>1139.0</ele><time>2026-04-26T15:16:52.354Z</time></trkpt><trkpt lat="46.2905331" lon="10.2873482"><ele>1139.0</ele><time>2026-04-26T15:16:53.357Z</time></trkpt><trkpt lat="46.2906051" lon="10.2874923"><ele>1139.0</ele><time>2026-04-26T15:16:54.357Z</time></trkpt><trkpt lat="46.2906751" lon="10.2876138"><ele>1139.0</ele><time>2026-04-26T15:16:55.364Z</time></trkpt><trkpt lat="46.2907329" lon="10.2877075"><ele>1139.0</ele><time>2026-04-26T15:16:56.351Z</time></trkpt><trkpt lat="46.2908044" lon="10.2878423"><ele>1139.0</ele><time>2026-04-26T15:16:58.35Z</time></trkpt><trkpt lat="46.2906933" lon="10.2877635"><ele>1139.0</ele><time>2026-04-26T15:17:01.349Z</time></trkpt><trkpt lat="46.2906249" lon="10.2876967"><ele>1139.0</ele><time>2026-04-26T15:17:02.351Z</time></trkpt><trkpt lat="46.2905322" lon="10.2876119"><ele>1140.25</ele><time>2026-04-26T15:17:03.349Z</time></trkpt><trkpt lat="46.2904404" lon="10.2874976"><ele>1141.5</ele><time>2026-04-26T15:17:04.356Z</time></trkpt><trkpt lat="46.2903383" lon="10.2874022"><ele>1142.75</ele><time>2026-04-26T15:17:05.349Z</time></trkpt><trkpt lat="46.2902203" lon="10.2872781"><ele>1144.0</ele><time>2026-04-26T15:17:06.35Z</time></trkpt><trkpt lat="46.2900964" lon="10.2871782"><ele>1144.0</ele><time>2026-04-26T15:17:07.35Z</time></trkpt><trkpt lat="46.289972" lon="10.2870769"><ele>1144.0</ele><time>2026-04-26T15:17:08.349Z</time></trkpt><trkpt lat="46.2898409" lon="10.2869762"><ele>1144.0</ele><time>2026-04-26T15:17:09.354Z</time></trkpt><trkpt lat="46.2897122" lon="10.2868957"><ele>1144.0</ele><time>2026-04-26T15:17:10.351Z</time></trkpt><trkpt lat="46.2895821" lon="10.2868358"><ele>1149.5</ele><time>2026-04-26T15:17:11.351Z</time></trkpt><trkpt lat="46.28946" lon="10.2867935"><ele>1155.0</ele><time>2026-04-26T15:17:12.352Z</time></trkpt><trkpt lat="46.2893345" lon="10.2867454"><ele>1160.5</ele><time>2026-04-26T15:17:13.351Z</time></trkpt><trkpt lat="46.2892106" lon="10.286672"><ele>1166.0</ele><time>2026-04-26T15:17:14.348Z</time></trkpt><trkpt lat="46.2890938" lon="10.2865895"><ele>1166.0</ele><time>2026-04-26T15:17:15.349Z</time></trkpt><trkpt lat="46.2889801" lon="10.2864873"><ele>1166.0</ele><time>2026-04-26T15:17:16.352Z</time></trkpt><trkpt lat="46.2888708" lon="10.2863811"><ele>1166.0</ele><time>2026-04-26T15:17:17.354Z</time></trkpt><trkpt lat="46.2887536" lon="10.28629"><ele>1166.0</ele><time>2026-04-26T15:17:18.347Z</time></trkpt><trkpt lat="46.2886374" lon="10.2862003"><ele>1169.0</ele><time>2026-04-26T15:17:19.35Z</time></trkpt><trkpt lat="46.2885294" lon="10.2861023"><ele>1172.0</ele><time>2026-04-26T15:17:20.35Z</time></trkpt><trkpt lat="46.2884423" lon="10.2859684"><ele>1175.0</ele><time>2026-04-26T15:17:21.352Z</time></trkpt><trkpt lat="46.2883724" lon="10.285808"><ele>1178.0</ele><time>2026-04-26T15:17:22.35Z</time></trkpt><trkpt lat="46.288311" lon="10.2856628"><ele>1178.25</ele><time>2026-04-26T15:17:23.355Z</time></trkpt><trkpt lat="46.2882302" lon="10.2855401"><ele>1178.5</ele><time>2026-04-26T15:17:24.352Z</time></trkpt><trkpt lat="46.2881253" lon="10.2854435"><ele>1178.75</ele><time>2026-04-26T15:17:25.356Z</time></trkpt><trkpt lat="46.2880184" lon="10.2853469"><ele>1179.0</ele><time>2026-04-26T15:17:26.349Z</time></trkpt><trkpt lat="46.2879168" lon="10.2852467"><ele>1179.0</ele><time>2026-04-26T15:17:27.353Z</time></trkpt><trkpt lat="46.2878227" lon="10.2851255"><ele>1179.0</ele><time>2026-04-26T15:17:28.349Z</time></trkpt><trkpt lat="46.2877377" lon="10.2850041"><ele>1179.0</ele><time>2026-04-26T15:17:29.351Z</time></trkpt><trkpt lat="46.287692" lon="10.2849274"><ele>1179.0</ele><time>2026-04-26T15:17:30.356Z</time></trkpt><trkpt lat="46.2876047" lon="10.2849268"><ele>1179.0</ele><time>2026-04-26T15:17:32.35Z</time></trkpt><trkpt lat="46.2876218" lon="10.2850686"><ele>1179.0</ele><time>2026-04-26T15:17:34.35Z</time></trkpt><trkpt lat="46.2876488" lon="10.2851545"><ele>1179.0</ele><time>2026-04-26T15:17:35.354Z</time></trkpt><trkpt lat="46.2876773" lon="10.2853378"><ele>1179.0</ele><time>2026-04-26T15:17:36.352Z</time></trkpt><trkpt lat="46.2877197" lon="10.2854535"><ele>1179.0</ele><time>2026-04-26T15:17:37.353Z</time></trkpt><trkpt lat="46.2877816" lon="10.2856121"><ele>1179.0</ele><time>2026-04-26T15:17:38.352Z</time></trkpt><trkpt lat="46.2878387" lon="10.2857516"><ele>1182.8333333333333</ele><time>2026-04-26T15:17:39.355Z</time></trkpt><trkpt lat="46.2878764" lon="10.2858581"><ele>1186.6666666666667</ele><time>2026-04-26T15:17:40.352Z</time></trkpt><trkpt lat="46.2878994" lon="10.2860008"><ele>1190.5</ele><time>2026-04-26T15:17:42.353Z</time></trkpt><trkpt lat="46.2878392" lon="10.2860342"><ele>1194.3333333333335</ele><time>2026-04-26T15:17:44.346Z</time></trkpt><trkpt lat="46.2878013" lon="10.2859532"><ele>1198.1666666666667</ele><time>2026-04-26T15:17:45.353Z</time></trkpt><trkpt lat="46.2877494" lon="10.2858824"><ele>1202.0</ele><time>2026-04-26T15:17:46.359Z</time></trkpt><trkpt lat="46.2876841" lon="10.2858131"><ele>1202.0</ele><time>2026-04-26T15:17:47.356Z</time></trkpt><trkpt lat="46.2876052" lon="10.2857419"><ele>1202.0</ele><time>2026-04-26T15:17:48.353Z</time></trkpt><trkpt lat="46.2875208" lon="10.2856715"><ele>1202.0</ele><time>2026-04-26T15:17:49.346Z</time></trkpt><trkpt lat="46.2874314" lon="10.2856221"><ele>1202.0</ele><time>2026-04-26T15:17:50.351Z</time></trkpt><trkpt lat="46.2873378" lon="10.2855949"><ele>1202.0</ele><time>2026-04-26T15:17:51.349Z</time></trkpt><trkpt lat="46.2872351" lon="10.285585"><ele>1201.8</ele><time>2026-04-26T15:17:53.349Z</time></trkpt><trkpt lat="46.2871685" lon="10.2855719"><ele>1201.6</ele><time>2026-04-26T15:17:56.352Z</time></trkpt><trkpt lat="46.2870722" lon="10.2855667"><ele>1201.3999999999999</ele><time>2026-04-26T15:17:58.344Z</time></trkpt><trkpt lat="46.2869387" lon="10.2855272"><ele>1201.2</ele><time>2026-04-26T15:18:00.356Z</time></trkpt><trkpt lat="46.2868657" lon="10.2854721"><ele>1201.0</ele><time>2026-04-26T15:18:01.349Z</time></trkpt><trkpt lat="46.2868023" lon="10.285439"><ele>1201.0</ele><time>2026-04-26T15:18:02.357Z</time></trkpt><trkpt lat="46.2867097" lon="10.2853937"><ele>1201.0</ele><time>2026-04-26T15:18:04.347Z</time></trkpt><trkpt lat="46.2866752" lon="10.285476"><ele>1201.0</ele><time>2026-04-26T15:18:07.353Z</time></trkpt><trkpt lat="46.2867609" lon="10.2856046"><ele>1201.0</ele><time>2026-04-26T15:18:09.347Z</time></trkpt><trkpt lat="46.2868538" lon="10.2857292"><ele>1201.0</ele><time>2026-04-26T15:18:10.348Z</time></trkpt><trkpt lat="46.2869322" lon="10.2858483"><ele>1201.25</ele><time>2026-04-26T15:18:11.351Z</time></trkpt><trkpt lat="46.2870159" lon="10.2859909"><ele>1201.5</ele><time>2026-04-26T15:18:12.348Z</time></trkpt><trkpt lat="46.2871146" lon="10.2861124"><ele>1201.75</ele><time>2026-04-26T15:18:13.35Z</time></trkpt><trkpt lat="46.2872141" lon="10.2862116"><ele>1202.0</ele><time>2026-04-26T15:18:14.347Z</time></trkpt><trkpt lat="46.2872996" lon="10.2863111"><ele>1206.4</ele><time>2026-04-26T15:18:15.349Z</time></trkpt><trkpt lat="46.2873745" lon="10.286428"><ele>1210.8000000000002</ele><time>2026-04-26T15:18:16.347Z</time></trkpt><trkpt lat="46.287446" lon="10.2865454"><ele>1215.2</ele><time>2026-04-26T15:18:17.347Z</time></trkpt><trkpt lat="46.2875102" lon="10.2866758"><ele>1219.6000000000001</ele><time>2026-04-26T15:18:18.347Z</time></trkpt><trkpt lat="46.2875844" lon="10.2867997"><ele>1224.0</ele><time>2026-04-26T15:18:19.352Z</time></trkpt><trkpt lat="46.2876499" lon="10.2869065"><ele>1224.0</ele><time>2026-04-26T15:18:20.349Z</time></trkpt><trkpt lat="46.2877178" lon="10.2870166"><ele>1224.0</ele><time>2026-04-26T15:18:21.349Z</time></trkpt><trkpt lat="46.2877817" lon="10.2871063"><ele>1224.0</ele><time>2026-04-26T15:18:22.362Z</time></trkpt><trkpt lat="46.2878302" lon="10.2872189"><ele>1224.0</ele><time>2026-04-26T15:18:23.351Z</time></trkpt><trkpt lat="46.2878499" lon="10.2873133"><ele>1224.0</ele><time>2026-04-26T15:18:24.348Z</time></trkpt><trkpt lat="46.2878974" lon="10.2874688"><ele>1222.5</ele><time>2026-04-26T15:18:26.351Z</time></trkpt><trkpt lat="46.2879401" lon="10.2875517"><ele>1221.0</ele><time>2026-04-26T15:18:27.349Z</time></trkpt><trkpt lat="46.2879932" lon="10.2876305"><ele>1219.5</ele><time>2026-04-26T15:18:28.354Z</time></trkpt><trkpt lat="46.2880498" lon="10.287715"><ele>1218.0</ele><time>2026-04-26T15:18:29.349Z</time></trkpt><trkpt lat="46.288114" lon="10.2878076"><ele>1216.5</ele><time>2026-04-26T15:18:30.352Z</time></trkpt><trkpt lat="46.2881791" lon="10.2879077"><ele>1215.0</ele><time>2026-04-26T15:18:31.351Z</time></trkpt><trkpt lat="46.2882441" lon="10.2880016"><ele>1215.0</ele><time>2026-04-26T15:18:32.35Z</time></trkpt><trkpt lat="46.288309" lon="10.2880919"><ele>1215.0</ele><time>2026-04-26T15:18:33.346Z</time></trkpt><trkpt lat="46.288369" lon="10.2881887"><ele>1215.0</ele><time>2026-04-26T15:18:34.349Z</time></trkpt><trkpt lat="46.2884213" lon="10.2882906"><ele>1215.0</ele><time>2026-04-26T15:18:35.35Z</time></trkpt><trkpt lat="46.2884773" lon="10.2884016"><ele>1215.0</ele><time>2026-04-26T15:18:36.35Z</time></trkpt><trkpt lat="46.2885431" lon="10.2884907"><ele>1219.4</ele><time>2026-04-26T15:18:37.349Z</time></trkpt><trkpt lat="46.2886203" lon="10.2885797"><ele>1223.8</ele><time>2026-04-26T15:18:38.346Z</time></trkpt><trkpt lat="46.2886986" lon="10.2886655"><ele>1228.2</ele><time>2026-04-26T15:18:39.35Z</time></trkpt><trkpt lat="46.288778" lon="10.2887592"><ele>1232.6</ele><time>2026-04-26T15:18:40.35Z</time></trkpt><trkpt lat="46.2888672" lon="10.2888564"><ele>1237.0</ele><time>2026-04-26T15:18:41.351Z</time></trkpt><trkpt lat="46.2889582" lon="10.2889521"><ele>1238.6</ele><time>2026-04-26T15:18:42.347Z</time></trkpt><trkpt lat="46.2890512" lon="10.2890472"><ele>1240.2</ele><time>2026-04-26T15:18:43.35Z</time></trkpt><trkpt lat="46.2891355" lon="10.2891491"><ele>1241.8</ele><time>2026-04-26T15:18:44.351Z</time></trkpt><trkpt lat="46.2892124" lon="10.2892565"><ele>1243.4</ele><time>2026-04-26T15:18:45.349Z</time></trkpt><trkpt lat="46.2892846" lon="10.2893541"><ele>1245.0</ele><time>2026-04-26T15:18:46.351Z</time></trkpt><trkpt lat="46.2893294" lon="10.289431"><ele>1245.0</ele><time>2026-04-26T15:18:47.355Z</time></trkpt><trkpt lat="46.2893595" lon="10.2895243"><ele>1245.0</ele><time>2026-04-26T15:18:48.349Z</time></trkpt><trkpt lat="46.2894025" lon="10.2896267"><ele>1245.0</ele><time>2026-04-26T15:18:49.351Z</time></trkpt><trkpt lat="46.2894677" lon="10.2897311"><ele>1245.0</ele><time>2026-04-26T15:18:50.354Z</time></trkpt><trkpt lat="46.2895489" lon="10.2898305"><ele>1245.0</ele><time>2026-04-26T15:18:51.354Z</time></trkpt><trkpt lat="46.2896299" lon="10.2899208"><ele>1245.2</ele><time>2026-04-26T15:18:52.35Z</time></trkpt><trkpt lat="46.2897048" lon="10.2900102"><ele>1245.4</ele><time>2026-04-26T15:18:53.356Z</time></trkpt><trkpt lat="46.2897818" lon="10.2900994"><ele>1245.6</ele><time>2026-04-26T15:18:54.346Z</time></trkpt><trkpt lat="46.28985" lon="10.2901926"><ele>1245.8</ele><time>2026-04-26T15:18:55.35Z</time></trkpt><trkpt lat="46.2899169" lon="10.290294"><ele>1246.0</ele><time>2026-04-26T15:18:56.35Z</time></trkpt><trkpt lat="46.2899883" lon="10.2903928"><ele>1246.0</ele><time>2026-04-26T15:18:57.351Z</time></trkpt><trkpt lat="46.2900668" lon="10.2904919"><ele>1246.0</ele><time>2026-04-26T15:18:58.347Z</time></trkpt><trkpt lat="46.2901472" lon="10.290594"><ele>1246.0</ele><time>2026-04-26T15:18:59.352Z</time></trkpt><trkpt lat="46.2902231" lon="10.290686"><ele>1246.0</ele><time>2026-04-26T15:19:00.351Z</time></trkpt><trkpt lat="46.2902882" lon="10.2907704"><ele>1246.0</ele><time>2026-04-26T15:19:01.352Z</time></trkpt><trkpt lat="46.2903538" lon="10.2908466"><ele>1245.3333333333333</ele><time>2026-04-26T15:19:02.349Z</time></trkpt><trkpt lat="46.2903902" lon="10.2909295"><ele>1244.6666666666665</ele><time>2026-04-26T15:19:03.348Z</time></trkpt><trkpt lat="46.2904009" lon="10.2910936"><ele>1244.0</ele><time>2026-04-26T15:19:05.351Z</time></trkpt><trkpt lat="46.2904062" lon="10.2911885"><ele>1243.3333333333333</ele><time>2026-04-26T15:19:06.351Z</time></trkpt><trkpt lat="46.2904406" lon="10.2912762"><ele>1242.6666666666667</ele><time>2026-04-26T15:19:07.358Z</time></trkpt><trkpt lat="46.2905142" lon="10.2913575"><ele>1242.0</ele><time>2026-04-26T15:19:08.352Z</time></trkpt><trkpt lat="46.2905966" lon="10.2914188"><ele>1245.0</ele><time>2026-04-26T15:19:09.351Z</time></trkpt><trkpt lat="46.2906706" lon="10.2914708"><ele>1248.0</ele><time>2026-04-26T15:19:10.354Z</time></trkpt><trkpt lat="46.2906894" lon="10.2916594"><ele>1251.0</ele><time>2026-04-26T15:19:12.347Z</time></trkpt><trkpt lat="46.2906894" lon="10.2917859"><ele>1254.0</ele><time>2026-04-26T15:19:13.349Z</time></trkpt><trkpt lat="46.2907084" lon="10.2919174"><ele>1257.0</ele><time>2026-04-26T15:19:14.35Z</time></trkpt><trkpt lat="46.290756" lon="10.2920258"><ele>1257.0</ele><time>2026-04-26T15:19:15.352Z</time></trkpt><trkpt lat="46.2908387" lon="10.2920975"><ele>1257.0</ele><time>2026-04-26T15:19:16.354Z</time></trkpt><trkpt lat="46.2909359" lon="10.2921555"><ele>1257.0</ele><time>2026-04-26T15:19:17.347Z</time></trkpt><trkpt lat="46.2910419" lon="10.2922118"><ele>1257.0</ele><time>2026-04-26T15:19:18.353Z</time></trkpt><trkpt lat="46.2911359" lon="10.2922646"><ele>1257.0</ele><time>2026-04-26T15:19:19.355Z</time></trkpt><trkpt lat="46.2912181" lon="10.2923243"><ele>1260.0</ele><time>2026-04-26T15:19:20.347Z</time></trkpt><trkpt lat="46.2913084" lon="10.292408"><ele>1263.0</ele><time>2026-04-26T15:19:21.356Z</time></trkpt><trkpt lat="46.2914066" lon="10.292506"><ele>1266.0</ele><time>2026-04-26T15:19:22.352Z</time></trkpt><trkpt lat="46.2914902" lon="10.2926125"><ele>1269.0</ele><time>2026-04-26T15:19:23.353Z</time></trkpt><trkpt lat="46.2915849" lon="10.2927331"><ele>1269.0</ele><time>2026-04-26T15:19:24.351Z</time></trkpt><trkpt lat="46.2916859" lon="10.2928693"><ele>1269.0</ele><time>2026-04-26T15:19:25.351Z</time></trkpt><trkpt lat="46.2917769" lon="10.2930205"><ele>1269.0</ele><time>2026-04-26T15:19:26.349Z</time></trkpt><trkpt lat="46.2918659" lon="10.2931656"><ele>1269.0</ele><time>2026-04-26T15:19:27.351Z</time></trkpt><trkpt lat="46.2919556" lon="10.2933185"><ele>1267.0</ele><time>2026-04-26T15:19:28.351Z</time></trkpt><trkpt lat="46.2920427" lon="10.2934703"><ele>1265.0</ele><time>2026-04-26T15:19:29.35Z</time></trkpt><trkpt lat="46.2921258" lon="10.2936205"><ele>1263.0</ele><time>2026-04-26T15:19:30.373Z</time></trkpt><trkpt lat="46.2922082" lon="10.2937797"><ele>1261.0</ele><time>2026-04-26T15:19:31.348Z</time></trkpt><trkpt lat="46.2922883" lon="10.2939164"><ele>1263.8</ele><time>2026-04-26T15:19:32.347Z</time></trkpt><trkpt lat="46.2923503" lon="10.2940119"><ele>1266.6</ele><time>2026-04-26T15:19:33.351Z</time></trkpt><trkpt lat="46.2924374" lon="10.2941185"><ele>1269.4</ele><time>2026-04-26T15:19:35.36Z</time></trkpt><trkpt lat="46.2925145" lon="10.2941979"><ele>1272.2</ele><time>2026-04-26T15:19:42.349Z</time></trkpt><trkpt lat="46.292581" lon="10.2942504"><ele>1275.0</ele><time>2026-04-26T15:19:45.349Z</time></trkpt><trkpt lat="46.2926647" lon="10.2943359"><ele>1275.0</ele><time>2026-04-26T15:19:48.347Z</time></trkpt><trkpt lat="46.2928553" lon="10.2944749"><ele>1275.0</ele><time>2026-04-26T15:19:49.348Z</time></trkpt><trkpt lat="46.2929682" lon="10.2945511"><ele>1275.0</ele><time>2026-04-26T15:19:51.347Z</time></trkpt><trkpt lat="46.2930899" lon="10.2946125"><ele>1271.4</ele><time>2026-04-26T15:19:53.35Z</time></trkpt><trkpt lat="46.2932048" lon="10.2946349"><ele>1267.8</ele><time>2026-04-26T15:19:55.35Z</time></trkpt><trkpt lat="46.2933138" lon="10.2946598"><ele>1264.2</ele><time>2026-04-26T15:19:57.346Z</time></trkpt><trkpt lat="46.2933767" lon="10.2947095"><ele>1260.6</ele><time>2026-04-26T15:19:59.346Z</time></trkpt><trkpt lat="46.2934237" lon="10.2947917"><ele>1257.0</ele><time>2026-04-26T15:20:04.347Z</time></trkpt><trkpt lat="46.2934581" lon="10.2949319"><ele>1257.0</ele><time>2026-04-26T15:20:05.346Z</time></trkpt><trkpt lat="46.2936139" lon="10.2952537"><ele>1257.0</ele><time>2026-04-26T15:20:06.354Z</time></trkpt><trkpt lat="46.2936696" lon="10.2953251"><ele>1257.0</ele><time>2026-04-26T15:20:07.345Z</time></trkpt><trkpt lat="46.2937742" lon="10.29539"><ele>1257.0</ele><time>2026-04-26T15:20:08.35Z</time></trkpt><trkpt lat="46.2938831" lon="10.2954626"><ele>1257.0</ele><time>2026-04-26T15:20:09.35Z</time></trkpt><trkpt lat="46.2939704" lon="10.2955379"><ele>1257.0</ele><time>2026-04-26T15:20:10.353Z</time></trkpt><trkpt lat="46.2940644" lon="10.2955654"><ele>1257.0</ele><time>2026-04-26T15:20:11.347Z</time></trkpt><trkpt lat="46.2941008" lon="10.2956557"><ele>1257.0</ele><time>2026-04-26T15:20:13.346Z</time></trkpt><trkpt lat="46.29415" lon="10.2957809"><ele>1254.5</ele><time>2026-04-26T15:20:15.354Z</time></trkpt><trkpt lat="46.294224" lon="10.2958702"><ele>1252.0</ele><time>2026-04-26T15:20:17.349Z</time></trkpt><trkpt lat="46.294286" lon="10.2959409"><ele>1249.5</ele><time>2026-04-26T15:20:21.35Z</time></trkpt><trkpt lat="46.2943675" lon="10.296034"><ele>1247.0</ele><time>2026-04-26T15:20:24.351Z</time></trkpt><trkpt lat="46.2944464" lon="10.2961086"><ele>1244.5</ele><time>2026-04-26T15:20:26.357Z</time></trkpt><trkpt lat="46.294478" lon="10.2961942"><ele>1242.0</ele><time>2026-04-26T15:20:36.352Z</time></trkpt><trkpt lat="46.2945131" lon="10.2963313"><ele>1241.25</ele><time>2026-04-26T15:20:39.352Z</time></trkpt><trkpt lat="46.2945326" lon="10.296423"><ele>1240.5</ele><time>2026-04-26T15:20:41.347Z</time></trkpt><trkpt lat="46.2945912" lon="10.2965458"><ele>1239.75</ele><time>2026-04-26T15:20:43.353Z</time></trkpt><trkpt lat="46.2947213" lon="10.296794"><ele>1239.0</ele><time>2026-04-26T15:20:44.345Z</time></trkpt><trkpt lat="46.2947829" lon="10.2968681"><ele>1239.0</ele><time>2026-04-26T15:20:45.344Z</time></trkpt><trkpt lat="46.2948018" lon="10.2969645"><ele>1239.0</ele><time>2026-04-26T15:20:46.344Z</time></trkpt><trkpt lat="46.294846" lon="10.2970375"><ele>1239.0</ele><time>2026-04-26T15:20:47.351Z</time></trkpt><trkpt lat="46.2949068" lon="10.2971258"><ele>1239.0</ele><time>2026-04-26T15:20:48.348Z</time></trkpt><trkpt lat="46.2949538" lon="10.2972004"><ele>1239.0</ele><time>2026-04-26T15:20:49.354Z</time></trkpt><trkpt lat="46.2950037" lon="10.2972582"><ele>1239.0</ele><time>2026-04-26T15:20:50.351Z</time></trkpt><trkpt lat="46.2951207" lon="10.2972483"><ele>1239.0</ele><time>2026-04-26T15:20:52.343Z</time></trkpt><trkpt lat="46.295185" lon="10.2972501"><ele>1239.0</ele><time>2026-04-26T15:20:53.352Z</time></trkpt><trkpt lat="46.2952487" lon="10.2972691"><ele>1239.0</ele><time>2026-04-26T15:20:54.354Z</time></trkpt><trkpt lat="46.2953082" lon="10.2972992"><ele>1239.0</ele><time>2026-04-26T15:20:55.348Z</time></trkpt><trkpt lat="46.2954136" lon="10.2973342"><ele>1239.0</ele><time>2026-04-26T15:20:57.346Z</time></trkpt><trkpt lat="46.2955173" lon="10.2973211"><ele>1239.0</ele><time>2026-04-26T15:20:59.35Z</time></trkpt><trkpt lat="46.2955965" lon="10.2973665"><ele>1242.4</ele><time>2026-04-26T15:21:01.345Z</time></trkpt><trkpt lat="46.2956605" lon="10.2974631"><ele>1245.8000000000002</ele><time>2026-04-26T15:21:03.346Z</time></trkpt><trkpt lat="46.2957106" lon="10.2975879"><ele>1249.1999999999998</ele><time>2026-04-26T15:21:05.352Z</time></trkpt><trkpt lat="46.2956988" lon="10.2977148"><ele>1252.6</ele><time>2026-04-26T15:21:07.346Z</time></trkpt><trkpt lat="46.2956117" lon="10.2978022"><ele>1256.0</ele><time>2026-04-26T15:21:09.356Z</time></trkpt><trkpt lat="46.2955131" lon="10.2978416"><ele>1259.8333333333335</ele><time>2026-04-26T15:21:11.356Z</time></trkpt><trkpt lat="46.295448" lon="10.2978496"><ele>1263.6666666666667</ele><time>2026-04-26T15:21:12.348Z</time></trkpt><trkpt lat="46.2953715" lon="10.2978437"><ele>1267.5</ele><time>2026-04-26T15:21:13.357Z</time></trkpt><trkpt lat="46.2952897" lon="10.2978346"><ele>1271.3333333333333</ele><time>2026-04-26T15:21:14.349Z</time></trkpt><trkpt lat="46.2952046" lon="10.2978303"><ele>1275.1666666666665</ele><time>2026-04-26T15:21:15.349Z</time></trkpt><trkpt lat="46.2951174" lon="10.2978355"><ele>1279.0</ele><time>2026-04-26T15:21:16.35Z</time></trkpt><trkpt lat="46.2950226" lon="10.2978739"><ele>1279.0</ele><time>2026-04-26T15:21:17.349Z</time></trkpt><trkpt lat="46.2949391" lon="10.2979008"><ele>1279.0</ele><time>2026-04-26T15:21:18.349Z</time></trkpt><trkpt lat="46.2948642" lon="10.2978912"><ele>1279.0</ele><time>2026-04-26T15:21:19.349Z</time></trkpt><trkpt lat="46.2947556" lon="10.2978713"><ele>1279.0</ele><time>2026-04-26T15:21:21.352Z</time></trkpt><trkpt lat="46.2946865" lon="10.2978423"><ele>1279.0</ele><time>2026-04-26T15:21:22.35Z</time></trkpt><trkpt lat="46.2946118" lon="10.297773"><ele>1279.0</ele><time>2026-04-26T15:21:23.346Z</time></trkpt><trkpt lat="46.2945227" lon="10.2977003"><ele>1285.4</ele><time>2026-04-26T15:21:24.347Z</time></trkpt><trkpt lat="46.2944408" lon="10.2976193"><ele>1291.8000000000002</ele><time>2026-04-26T15:21:25.351Z</time></trkpt><trkpt lat="46.2943406" lon="10.2975507"><ele>1298.1999999999998</ele><time>2026-04-26T15:21:26.348Z</time></trkpt><trkpt lat="46.2942453" lon="10.2974895"><ele>1304.6</ele><time>2026-04-26T15:21:27.348Z</time></trkpt><trkpt lat="46.2941562" lon="10.2974332"><ele>1311.0</ele><time>2026-04-26T15:21:28.351Z</time></trkpt><trkpt lat="46.2940812" lon="10.2973938"><ele>1311.0</ele><time>2026-04-26T15:21:29.349Z</time></trkpt><trkpt lat="46.2940217" lon="10.2973607"><ele>1311.0</ele><time>2026-04-26T15:21:31.352Z</time></trkpt><trkpt lat="46.294079" lon="10.297427"><ele>1311.0</ele><time>2026-04-26T15:21:36.353Z</time></trkpt><trkpt lat="46.2941553" lon="10.2975718"><ele>1311.0</ele><time>2026-04-26T15:21:38.346Z</time></trkpt><trkpt lat="46.2941968" lon="10.297707"><ele>1311.0</ele><time>2026-04-26T15:21:40.347Z</time></trkpt><trkpt lat="46.2942269" lon="10.2978094"><ele>1311.0</ele><time>2026-04-26T15:21:41.35Z</time></trkpt><trkpt lat="46.2942757" lon="10.2979181"><ele>1311.0</ele><time>2026-04-26T15:21:42.353Z</time></trkpt><trkpt lat="46.2943248" lon="10.2979816"><ele>1311.0</ele><time>2026-04-26T15:21:43.351Z</time></trkpt><trkpt lat="46.294379" lon="10.2980728"><ele>1311.0</ele><time>2026-04-26T15:21:45.348Z</time></trkpt><trkpt lat="46.294422" lon="10.2981608"><ele>1311.0</ele><time>2026-04-26T15:21:47.35Z</time></trkpt><trkpt lat="46.2944647" lon="10.2983102"><ele>1311.0</ele><time>2026-04-26T15:21:49.347Z</time></trkpt><trkpt lat="46.2945217" lon="10.2983821"><ele>1311.0</ele><time>2026-04-26T15:21:50.351Z</time></trkpt><trkpt lat="46.2945722" lon="10.2984589"><ele>1312.8333333333333</ele><time>2026-04-26T15:21:51.351Z</time></trkpt><trkpt lat="46.294629" lon="10.2985535"><ele>1314.6666666666667</ele><time>2026-04-26T15:21:52.35Z</time></trkpt><trkpt lat="46.2946872" lon="10.2986432"><ele>1316.5</ele><time>2026-04-26T15:21:53.348Z</time></trkpt><trkpt lat="46.2947417" lon="10.2987246"><ele>1318.3333333333335</ele><time>2026-04-26T15:21:54.349Z</time></trkpt><trkpt lat="46.2948205" lon="10.2987935"><ele>1320.1666666666667</ele><time>2026-04-26T15:21:55.357Z</time></trkpt><trkpt lat="46.2949066" lon="10.29883"><ele>1322.0</ele><time>2026-04-26T15:21:56.347Z</time></trkpt><trkpt lat="46.2949761" lon="10.2988753"><ele>1327.5</ele><time>2026-04-26T15:21:57.357Z</time></trkpt><trkpt lat="46.2950445" lon="10.2989362"><ele>1333.0</ele><time>2026-04-26T15:21:58.352Z</time></trkpt><trkpt lat="46.2951269" lon="10.2989579"><ele>1338.5</ele><time>2026-04-26T15:21:59.349Z</time></trkpt><trkpt lat="46.2952127" lon="10.2989525"><ele>1344.0</ele><time>2026-04-26T15:22:00.348Z</time></trkpt><trkpt lat="46.2952898" lon="10.298961"><ele>1349.5</ele><time>2026-04-26T15:22:01.35Z</time></trkpt><trkpt lat="46.2953797" lon="10.2990098"><ele>1355.0</ele><time>2026-04-26T15:22:03.348Z</time></trkpt><trkpt lat="46.2954207" lon="10.2990869"><ele>1355.0</ele><time>2026-04-26T15:22:05.354Z</time></trkpt><trkpt lat="46.2954679" lon="10.2992132"><ele>1355.0</ele><time>2026-04-26T15:22:07.35Z</time></trkpt><trkpt lat="46.2955152" lon="10.2993713"><ele>1355.0</ele><time>2026-04-26T15:22:09.357Z</time></trkpt><trkpt lat="46.2955327" lon="10.2994617"><ele>1355.0</ele><time>2026-04-26T15:22:10.346Z</time></trkpt><trkpt lat="46.2955237" lon="10.2995798"><ele>1355.0</ele><time>2026-04-26T15:22:12.349Z</time></trkpt><trkpt lat="46.2955678" lon="10.2995132"><ele>1355.0</ele><time>2026-04-26T15:22:33.352Z</time></trkpt><trkpt lat="46.2955889" lon="10.29941"><ele>1355.0</ele><time>2026-04-26T15:22:36.355Z</time></trkpt><trkpt lat="46.2955631" lon="10.2993164"><ele>1355.0</ele><time>2026-04-26T15:22:40.346Z</time></trkpt><trkpt lat="46.2955358" lon="10.2992278"><ele>1355.0</ele><time>2026-04-26T15:22:42.348Z</time></trkpt><trkpt lat="46.295505" lon="10.2991245"><ele>1355.0</ele><time>2026-04-26T15:22:44.348Z</time></trkpt><trkpt lat="46.2954496" lon="10.2990236"><ele>1355.0</ele><time>2026-04-26T15:22:46.356Z</time></trkpt><trkpt lat="46.2953725" lon="10.2989534"><ele>1355.0</ele><time>2026-04-26T15:22:48.344Z</time></trkpt><trkpt lat="46.2952556" lon="10.2989319"><ele>1348.4</ele><time>2026-04-26T15:22:50.355Z</time></trkpt><trkpt lat="46.2951088" lon="10.2988931"><ele>1341.8</ele><time>2026-04-26T15:22:52.347Z</time></trkpt><trkpt lat="46.2950407" lon="10.2988647"><ele>1335.1999999999998</ele><time>2026-04-26T15:22:53.349Z</time></trkpt><trkpt lat="46.2949759" lon="10.2988276"><ele>1328.6</ele><time>2026-04-26T15:22:54.349Z</time></trkpt><trkpt lat="46.2948683" lon="10.2987486"><ele>1322.0</ele><time>2026-04-26T15:22:56.348Z</time></trkpt><trkpt lat="46.2948457" lon="10.2986545"><ele>1322.0</ele><time>2026-04-26T15:22:57.35Z</time></trkpt><trkpt lat="46.2948161" lon="10.2985719"><ele>1322.0</ele><time>2026-04-26T15:22:58.348Z</time></trkpt><trkpt lat="46.2947578" lon="10.2984769"><ele>1322.0</ele><time>2026-04-26T15:22:59.356Z</time></trkpt><trkpt lat="46.2946713" lon="10.2983936"><ele>1322.0</ele><time>2026-04-26T15:23:00.36Z</time></trkpt><trkpt lat="46.2946079" lon="10.298315"><ele>1322.0</ele><time>2026-04-26T15:23:01.348Z</time></trkpt><trkpt lat="46.2945538" lon="10.2982218"><ele>1322.0</ele><time>2026-04-26T15:23:02.347Z</time></trkpt><trkpt lat="46.2945394" lon="10.298121"><ele>1320.1666666666667</ele><time>2026-04-26T15:23:03.348Z</time></trkpt><trkpt lat="46.2944506" lon="10.2980526"><ele>1318.3333333333335</ele><time>2026-04-26T15:23:05.346Z</time></trkpt><trkpt lat="46.2943737" lon="10.2980259"><ele>1316.5</ele><time>2026-04-26T15:23:06.352Z</time></trkpt><trkpt lat="46.2942962" lon="10.2980024"><ele>1314.6666666666667</ele><time>2026-04-26T15:23:07.351Z</time></trkpt><trkpt lat="46.2941983" lon="10.2979659"><ele>1312.8333333333333</ele><time>2026-04-26T15:23:08.351Z</time></trkpt><trkpt lat="46.2941236" lon="10.2979349"><ele>1311.0</ele><time>2026-04-26T15:23:09.349Z</time></trkpt><trkpt lat="46.2940522" lon="10.2978758"><ele>1311.0</ele><time>2026-04-26T15:23:10.348Z</time></trkpt><trkpt lat="46.2939771" lon="10.2978054"><ele>1311.0</ele><time>2026-04-26T15:23:11.347Z</time></trkpt><trkpt lat="46.293898" lon="10.2977516"><ele>1311.0</ele><time>2026-04-26T15:23:12.346Z</time></trkpt><trkpt lat="46.2938176" lon="10.2977253"><ele>1311.0</ele><time>2026-04-26T15:23:13.349Z</time></trkpt><trkpt lat="46.2937478" lon="10.2976847"><ele>1311.0</ele><time>2026-04-26T15:23:14.352Z</time></trkpt><trkpt lat="46.293681" lon="10.2976526"><ele>1311.0</ele><time>2026-04-26T15:23:15.35Z</time></trkpt><trkpt lat="46.2936152" lon="10.2977492"><ele>1319.0</ele><time>2026-04-26T15:23:18.354Z</time></trkpt><trkpt lat="46.2936771" lon="10.2978146"><ele>1327.0</ele><time>2026-04-26T15:23:20.351Z</time></trkpt><trkpt lat="46.2937305" lon="10.2978704"><ele>1335.0</ele><time>2026-04-26T15:23:23.348Z</time></trkpt><trkpt lat="46.2937753" lon="10.2979473"><ele>1343.0</ele><time>2026-04-26T15:23:26.352Z</time></trkpt><trkpt lat="46.2940393" lon="10.298369"><ele>1343.0</ele><time>2026-04-26T15:23:28.347Z</time></trkpt><trkpt lat="46.2942274" lon="10.2986639"><ele>1343.0</ele><time>2026-04-26T15:23:29.343Z</time></trkpt><trkpt lat="46.2943484" lon="10.298861"><ele>1349.8000000000002</ele><time>2026-04-26T15:23:30.349Z</time></trkpt><trkpt lat="46.294427" lon="10.2989963"><ele>1356.6</ele><time>2026-04-26T15:23:31.351Z</time></trkpt><trkpt lat="46.2945166" lon="10.2990681"><ele>1363.4</ele><time>2026-04-26T15:23:32.35Z</time></trkpt><trkpt lat="46.2946004" lon="10.2991016"><ele>1370.1999999999998</ele><time>2026-04-26T15:23:33.35Z</time></trkpt><trkpt lat="46.2946816" lon="10.2991282"><ele>1377.0</ele><time>2026-04-26T15:23:34.352Z</time></trkpt><trkpt lat="46.2947521" lon="10.2991578"><ele>1372.6</ele><time>2026-04-26T15:23:35.349Z</time></trkpt><trkpt lat="46.2948207" lon="10.2991853"><ele>1368.1999999999998</ele><time>2026-04-26T15:23:36.353Z</time></trkpt><trkpt lat="46.2949254" lon="10.2992182"><ele>1363.8</ele><time>2026-04-26T15:23:38.347Z</time></trkpt><trkpt lat="46.2950184" lon="10.2993106"><ele>1359.4</ele><time>2026-04-26T15:23:40.351Z</time></trkpt><trkpt lat="46.2950568" lon="10.2994688"><ele>1355.0</ele><time>2026-04-26T15:23:42.351Z</time></trkpt><trkpt lat="46.2950953" lon="10.2995755"><ele>1355.0</ele><time>2026-04-26T15:23:44.353Z</time></trkpt><trkpt lat="46.2950856" lon="10.2997106"><ele>1355.0</ele><time>2026-04-26T15:23:47.353Z</time></trkpt><trkpt lat="46.2950563" lon="10.2998239"><ele>1355.0</ele><time>2026-04-26T15:23:49.351Z</time></trkpt><trkpt lat="46.2950788" lon="10.2999527"><ele>1355.0</ele><time>2026-04-26T15:23:51.35Z</time></trkpt><trkpt lat="46.2951089" lon="10.3000389"><ele>1355.0</ele><time>2026-04-26T15:23:52.356Z</time></trkpt><trkpt lat="46.2951488" lon="10.300125"><ele>1355.0</ele><time>2026-04-26T15:23:53.351Z</time></trkpt><trkpt lat="46.2952075" lon="10.3002284"><ele>1359.8</ele><time>2026-04-26T15:23:54.355Z</time></trkpt><trkpt lat="46.2952676" lon="10.300344"><ele>1364.6</ele><time>2026-04-26T15:23:55.352Z</time></trkpt><trkpt lat="46.2953222" lon="10.3004543"><ele>1369.4</ele><time>2026-04-26T15:23:56.349Z</time></trkpt><trkpt lat="46.2953497" lon="10.3005632"><ele>1374.2</ele><time>2026-04-26T15:23:57.343Z</time></trkpt><trkpt lat="46.2953817" lon="10.3006817"><ele>1379.0</ele><time>2026-04-26T15:23:58.347Z</time></trkpt><trkpt lat="46.2954234" lon="10.3008009"><ele>1378.1666666666667</ele><time>2026-04-26T15:23:59.346Z</time></trkpt><trkpt lat="46.2954698" lon="10.3009246"><ele>1377.3333333333335</ele><time>2026-04-26T15:24:00.353Z</time></trkpt><trkpt lat="46.2955153" lon="10.3010292"><ele>1376.5</ele><time>2026-04-26T15:24:01.351Z</time></trkpt><trkpt lat="46.2955594" lon="10.3011397"><ele>1375.6666666666667</ele><time>2026-04-26T15:24:02.345Z</time></trkpt><trkpt lat="46.2955972" lon="10.3012473"><ele>1374.8333333333333</ele><time>2026-04-26T15:24:03.347Z</time></trkpt><trkpt lat="46.2956029" lon="10.3013606"><ele>1374.0</ele><time>2026-04-26T15:24:04.347Z</time></trkpt><trkpt lat="46.295631" lon="10.3014699"><ele>1380.6</ele><time>2026-04-26T15:24:05.35Z</time></trkpt><trkpt lat="46.2956806" lon="10.3015798"><ele>1387.2</ele><time>2026-04-26T15:24:06.352Z</time></trkpt><trkpt lat="46.2957412" lon="10.3016813"><ele>1393.8</ele><time>2026-04-26T15:24:07.346Z</time></trkpt><trkpt lat="46.2957969" lon="10.301789"><ele>1400.3999999999999</ele><time>2026-04-26T15:24:08.351Z</time></trkpt><trkpt lat="46.2958449" lon="10.3019122"><ele>1407.0</ele><time>2026-04-26T15:24:09.348Z</time></trkpt><trkpt lat="46.2959053" lon="10.3020358"><ele>1407.0</ele><time>2026-04-26T15:24:10.347Z</time></trkpt><trkpt lat="46.2959618" lon="10.3021652"><ele>1407.0</ele><time>2026-04-26T15:24:11.349Z</time></trkpt><trkpt lat="46.2960194" lon="10.3022871"><ele>1407.0</ele><time>2026-04-26T15:24:12.347Z</time></trkpt><trkpt lat="46.2960712" lon="10.3024131"><ele>1407.0</ele><time>2026-04-26T15:24:13.35Z</time></trkpt><trkpt lat="46.2961192" lon="10.3025334"><ele>1407.0</ele><time>2026-04-26T15:24:14.35Z</time></trkpt><trkpt lat="46.296173" lon="10.3026521"><ele>1409.1999999999998</ele><time>2026-04-26T15:24:15.346Z</time></trkpt><trkpt lat="46.2962251" lon="10.3027758"><ele>1411.4</ele><time>2026-04-26T15:24:16.354Z</time></trkpt><trkpt lat="46.2962775" lon="10.3029021"><ele>1413.6</ele><time>2026-04-26T15:24:17.365Z</time></trkpt><trkpt lat="46.296338" lon="10.3030302"><ele>1415.8000000000002</ele><time>2026-04-26T15:24:18.345Z</time></trkpt><trkpt lat="46.2963974" lon="10.3031638"><ele>1418.0</ele><time>2026-04-26T15:24:19.348Z</time></trkpt><trkpt lat="46.2964424" lon="10.3032858"><ele>1418.0000000000002</ele><time>2026-04-26T15:24:20.348Z</time></trkpt><trkpt lat="46.2964788" lon="10.3033942"><ele>1418.0</ele><time>2026-04-26T15:24:21.352Z</time></trkpt><trkpt lat="46.2965183" lon="10.303479"><ele>1418.0</ele><time>2026-04-26T15:24:22.347Z</time></trkpt><trkpt lat="46.2965704" lon="10.3035347"><ele>1418.0</ele><time>2026-04-26T15:24:23.348Z</time></trkpt><trkpt lat="46.296625" lon="10.3035992"><ele>1418.0</ele><time>2026-04-26T15:24:24.348Z</time></trkpt><trkpt lat="46.2966747" lon="10.3036764"><ele>1418.0000000000002</ele><time>2026-04-26T15:24:25.345Z</time></trkpt><trkpt lat="46.296729" lon="10.3037679"><ele>1418.0</ele><time>2026-04-26T15:24:26.346Z</time></trkpt><trkpt lat="46.2967882" lon="10.3038585"><ele>1424.0</ele><time>2026-04-26T15:24:27.347Z</time></trkpt><trkpt lat="46.2968493" lon="10.3039417"><ele>1430.0</ele><time>2026-04-26T15:24:28.346Z</time></trkpt><trkpt lat="46.2969178" lon="10.3040157"><ele>1436.0</ele><time>2026-04-26T15:24:29.347Z</time></trkpt><trkpt lat="46.2969782" lon="10.3040843"><ele>1442.0</ele><time>2026-04-26T15:24:30.349Z</time></trkpt><trkpt lat="46.2970206" lon="10.3041643"><ele>1448.0</ele><time>2026-04-26T15:24:31.346Z</time></trkpt><trkpt lat="46.2970531" lon="10.3042563"><ele>1454.0</ele><time>2026-04-26T15:24:32.35Z</time></trkpt><trkpt lat="46.2970696" lon="10.3043472"><ele>1454.0</ele><time>2026-04-26T15:24:33.35Z</time></trkpt><trkpt lat="46.2970832" lon="10.3044462"><ele>1454.0</ele><time>2026-04-26T15:24:34.346Z</time></trkpt><trkpt lat="46.2970955" lon="10.3045481"><ele>1454.0</ele><time>2026-04-26T15:24:35.351Z</time></trkpt><trkpt lat="46.2971016" lon="10.3046576"><ele>1454.0</ele><time>2026-04-26T15:24:36.348Z</time></trkpt><trkpt lat="46.2971032" lon="10.3047705"><ele>1454.0</ele><time>2026-04-26T15:24:37.348Z</time></trkpt><trkpt lat="46.297108" lon="10.3048827"><ele>1454.0</ele><time>2026-04-26T15:24:38.348Z</time></trkpt><trkpt lat="46.2970957" lon="10.304973"><ele>1454.0</ele><time>2026-04-26T15:24:39.348Z</time></trkpt><trkpt lat="46.2970543" lon="10.3050573"><ele>1456.6</ele><time>2026-04-26T15:24:40.346Z</time></trkpt><trkpt lat="46.2970051" lon="10.3051524"><ele>1459.2</ele><time>2026-04-26T15:24:41.351Z</time></trkpt><trkpt lat="46.2969448" lon="10.305268"><ele>1461.8</ele><time>2026-04-26T15:24:42.358Z</time></trkpt><trkpt lat="46.2968665" lon="10.3053953"><ele>1464.3999999999999</ele><time>2026-04-26T15:24:43.345Z</time></trkpt><trkpt lat="46.2968096" lon="10.3055157"><ele>1467.0</ele><time>2026-04-26T15:24:44.353Z</time></trkpt><trkpt lat="46.2967769" lon="10.3056232"><ele>1467.8</ele><time>2026-04-26T15:24:45.352Z</time></trkpt><trkpt lat="46.2967368" lon="10.3057489"><ele>1468.6</ele><time>2026-04-26T15:24:47.348Z</time></trkpt><trkpt lat="46.2967262" lon="10.3058876"><ele>1469.3999999999999</ele><time>2026-04-26T15:24:50.351Z</time></trkpt><trkpt lat="46.2967363" lon="10.305981"><ele>1470.1999999999998</ele><time>2026-04-26T15:24:53.354Z</time></trkpt><trkpt lat="46.29682" lon="10.3060335"><ele>1471.0</ele><time>2026-04-26T15:24:57.353Z</time></trkpt><trkpt lat="46.2969199" lon="10.3060577"><ele>1471.0</ele><time>2026-04-26T15:24:58.347Z</time></trkpt><trkpt lat="46.2970412" lon="10.3060781"><ele>1471.0</ele><time>2026-04-26T15:24:59.347Z</time></trkpt><trkpt lat="46.2971229" lon="10.3060696"><ele>1471.0</ele><time>2026-04-26T15:25:00.347Z</time></trkpt><trkpt lat="46.2971928" lon="10.3060507"><ele>1471.0</ele><time>2026-04-26T15:25:01.345Z</time></trkpt><trkpt lat="46.2972988" lon="10.3060628"><ele>1471.0</ele><time>2026-04-26T15:25:03.35Z</time></trkpt><trkpt lat="46.2973786" lon="10.3061424"><ele>1471.0</ele><time>2026-04-26T15:25:05.347Z</time></trkpt><trkpt lat="46.2974294" lon="10.3061986"><ele>1471.0</ele><time>2026-04-26T15:25:07.348Z</time></trkpt><trkpt lat="46.2974952" lon="10.3062501"><ele>1471.0</ele><time>2026-04-26T15:25:26.349Z</time></trkpt><trkpt lat="46.297413" lon="10.3062303"><ele>1471.0</ele><time>2026-04-26T15:25:38.352Z</time></trkpt><trkpt lat="46.2973541" lon="10.3061544"><ele>1471.0</ele><time>2026-04-26T15:25:40.348Z</time></trkpt><trkpt lat="46.297269" lon="10.3060607"><ele>1471.0</ele><time>2026-04-26T15:25:42.348Z</time></trkpt><trkpt lat="46.2971549" lon="10.3060378"><ele>1471.0</ele><time>2026-04-26T15:25:44.349Z</time></trkpt><trkpt lat="46.2970302" lon="10.3060618"><ele>1471.0</ele><time>2026-04-26T15:25:46.345Z</time></trkpt><trkpt lat="46.2969608" lon="10.3060591"><ele>1471.0</ele><time>2026-04-26T15:25:47.352Z</time></trkpt><trkpt lat="46.2968952" lon="10.306041"><ele>1471.0</ele><time>2026-04-26T15:25:48.348Z</time></trkpt><trkpt lat="46.2967777" lon="10.3059748"><ele>1471.0</ele><time>2026-04-26T15:25:50.348Z</time></trkpt><trkpt lat="46.2967069" lon="10.3059138"><ele>1471.0</ele><time>2026-04-26T15:25:52.346Z</time></trkpt><trkpt lat="46.2967558" lon="10.3058525"><ele>1471.0</ele><time>2026-04-26T15:25:57.347Z</time></trkpt><trkpt lat="46.2968628" lon="10.3058738"><ele>1471.0</ele><time>2026-04-26T15:25:59.355Z</time></trkpt><trkpt lat="46.2969369" lon="10.305854"><ele>1471.0</ele><time>2026-04-26T15:26:00.351Z</time></trkpt><trkpt lat="46.2970053" lon="10.3058365"><ele>1471.0</ele><time>2026-04-26T15:26:01.356Z</time></trkpt><trkpt lat="46.2970999" lon="10.3057745"><ele>1471.0</ele><time>2026-04-26T15:26:02.359Z</time></trkpt><trkpt lat="46.2971963" lon="10.3057339"><ele>1467.8</ele><time>2026-04-26T15:26:03.348Z</time></trkpt><trkpt lat="46.2972866" lon="10.3056886"><ele>1464.6</ele><time>2026-04-26T15:26:04.35Z</time></trkpt><trkpt lat="46.2973749" lon="10.3056568"><ele>1461.4</ele><time>2026-04-26T15:26:05.346Z</time></trkpt><trkpt lat="46.2974619" lon="10.3056363"><ele>1458.2</ele><time>2026-04-26T15:26:06.345Z</time></trkpt><trkpt lat="46.2975503" lon="10.305588"><ele>1455.0</ele><time>2026-04-26T15:26:07.35Z</time></trkpt><trkpt lat="46.2976172" lon="10.3055197"><ele>1450.8</ele><time>2026-04-26T15:26:08.348Z</time></trkpt><trkpt lat="46.2976824" lon="10.3054171"><ele>1446.6</ele><time>2026-04-26T15:26:09.348Z</time></trkpt><trkpt lat="46.2977296" lon="10.3053413"><ele>1442.4</ele><time>2026-04-26T15:26:10.349Z</time></trkpt><trkpt lat="46.2978006" lon="10.3052511"><ele>1438.2</ele><time>2026-04-26T15:26:12.347Z</time></trkpt><trkpt lat="46.2979424" lon="10.3052683"><ele>1434.0</ele><time>2026-04-26T15:26:14.349Z</time></trkpt><trkpt lat="46.2980125" lon="10.3052858"><ele>1428.8000000000002</ele><time>2026-04-26T15:26:15.353Z</time></trkpt><trkpt lat="46.2980889" lon="10.3052994"><ele>1423.6000000000001</ele><time>2026-04-26T15:26:16.355Z</time></trkpt><trkpt lat="46.2981882" lon="10.305431"><ele>1418.4</ele><time>2026-04-26T15:26:18.348Z</time></trkpt><trkpt lat="46.298269" lon="10.3054582"><ele>1413.2</ele><time>2026-04-26T15:26:19.351Z</time></trkpt><trkpt lat="46.2983639" lon="10.305508"><ele>1408.0</ele><time>2026-04-26T15:26:20.348Z</time></trkpt><trkpt lat="46.298427" lon="10.3055346"><ele>1408.0</ele><time>2026-04-26T15:26:21.355Z</time></trkpt><trkpt lat="46.2984902" lon="10.3055685"><ele>1408.0</ele><time>2026-04-26T15:26:22.351Z</time></trkpt><trkpt lat="46.2985614" lon="10.3055956"><ele>1408.0</ele><time>2026-04-26T15:26:24.354Z</time></trkpt><trkpt lat="46.2986596" lon="10.3056162"><ele>1408.0</ele><time>2026-04-26T15:26:26.351Z</time></trkpt><trkpt lat="46.2987297" lon="10.3056454"><ele>1408.0</ele><time>2026-04-26T15:26:27.35Z</time></trkpt><trkpt lat="46.2988045" lon="10.3056477"><ele>1408.0</ele><time>2026-04-26T15:26:30.355Z</time></trkpt><trkpt lat="46.2988977" lon="10.3055439"><ele>1411.2</ele><time>2026-04-26T15:26:33.349Z</time></trkpt><trkpt lat="46.2990534" lon="10.3055054"><ele>1414.4</ele><time>2026-04-26T15:26:34.352Z</time></trkpt><trkpt lat="46.2991308" lon="10.3055077"><ele>1417.6000000000001</ele><time>2026-04-26T15:26:42.348Z</time></trkpt><trkpt lat="46.2992162" lon="10.305533"><ele>1420.8000000000002</ele><time>2026-04-26T15:26:45.35Z</time></trkpt><trkpt lat="46.2992689" lon="10.3055924"><ele>1424.0</ele><time>2026-04-26T15:26:52.346Z</time></trkpt><trkpt lat="46.2992681" lon="10.3057074"><ele>1423.9999999999998</ele><time>2026-04-26T15:28:08.353Z</time></trkpt><trkpt lat="46.2993323" lon="10.3056597"><ele>1424.0</ele><time>2026-04-26T15:28:33.349Z</time></trkpt><trkpt lat="46.2994021" lon="10.305661"><ele>1424.0</ele><time>2026-04-26T15:30:53.351Z</time></trkpt><trkpt lat="46.2994762" lon="10.3056822"><ele>1424.0</ele><time>2026-04-26T15:30:58.347Z</time></trkpt><trkpt lat="46.2995389" lon="10.3056977"><ele>1424.0</ele><time>2026-04-26T15:31:01.347Z</time></trkpt><trkpt lat="46.2996104" lon="10.3057352"><ele>1423.9999999999998</ele><time>2026-04-26T15:31:04.35Z</time></trkpt><trkpt lat="46.2996716" lon="10.3057979"><ele>1424.0</ele><time>2026-04-26T15:31:07.344Z</time></trkpt><trkpt lat="46.2997413" lon="10.3058487"><ele>1418.0</ele><time>2026-04-26T15:31:10.35Z</time></trkpt><trkpt lat="46.2998253" lon="10.3058979"><ele>1412.0</ele><time>2026-04-26T15:31:13.35Z</time></trkpt><trkpt lat="46.2999091" lon="10.3059533"><ele>1406.0</ele><time>2026-04-26T15:31:16.346Z</time></trkpt><trkpt lat="46.2999703" lon="10.3059811"><ele>1400.0</ele><time>2026-04-26T15:31:20.349Z</time></trkpt><trkpt lat="46.3000478" lon="10.3060128"><ele>1394.0</ele><time>2026-04-26T15:31:50.354Z</time></trkpt><trkpt lat="46.3001108" lon="10.3060495"><ele>1388.0</ele><time>2026-04-26T15:31:54.35Z</time></trkpt><trkpt lat="46.3001833" lon="10.3060449"><ele>1388.0</ele><time>2026-04-26T15:33:13.355Z</time></trkpt><trkpt lat="46.3002546" lon="10.3060293"><ele>1388.0</ele><time>2026-04-26T15:33:17.348Z</time></trkpt><trkpt lat="46.3003151" lon="10.3059794"><ele>1388.0</ele><time>2026-04-26T15:34:20.348Z</time></trkpt><trkpt lat="46.3003747" lon="10.3060102"><ele>1388.0</ele><time>2026-04-26T15:34:23.344Z</time></trkpt><trkpt lat="46.3004414" lon="10.3060319"><ele>1388.0</ele><time>2026-04-26T15:34:31.347Z</time></trkpt><trkpt lat="46.3004832" lon="10.3061089"><ele>1388.0</ele><time>2026-04-26T15:34:38.344Z</time></trkpt><trkpt lat="46.3005321" lon="10.3061866"><ele>1388.0</ele><time>2026-04-26T15:35:54.347Z</time></trkpt><trkpt lat="46.3006228" lon="10.3062302"><ele>1384.5</ele><time>2026-04-26T15:35:57.357Z</time></trkpt><trkpt lat="46.3006911" lon="10.3062923"><ele>1381.0</ele><time>2026-04-26T15:35:59.344Z</time></trkpt><trkpt lat="46.300767" lon="10.3063622"><ele>1377.5</ele><time>2026-04-26T15:36:01.344Z</time></trkpt><trkpt lat="46.3008619" lon="10.3064071"><ele>1374.0</ele><time>2026-04-26T15:36:25.353Z</time></trkpt><trkpt lat="46.3009293" lon="10.3064485"><ele>1370.5</ele><time>2026-04-26T15:36:45.349Z</time></trkpt><trkpt lat="46.300994" lon="10.3064743"><ele>1367.0</ele><time>2026-04-26T15:36:51.351Z</time></trkpt><trkpt lat="46.3010576" lon="10.3064972"><ele>1367.0</ele><time>2026-04-26T15:37:42.348Z</time></trkpt><trkpt lat="46.3011257" lon="10.3065316"><ele>1367.0</ele><time>2026-04-26T15:39:08.351Z</time></trkpt><trkpt lat="46.3011824" lon="10.306591"><ele>1367.0</ele><time>2026-04-26T15:39:15.35Z</time></trkpt><trkpt lat="46.3012453" lon="10.3066439"><ele>1367.0</ele><time>2026-04-26T15:39:21.355Z</time></trkpt><trkpt lat="46.3013099" lon="10.3067079"><ele>1367.0</ele><time>2026-04-26T15:39:26.348Z</time></trkpt><trkpt lat="46.3013771" lon="10.3067604"><ele>1367.0</ele><time>2026-04-26T15:39:30.355Z</time></trkpt><trkpt lat="46.3014369" lon="10.306815"><ele>1367.0</ele><time>2026-04-26T15:39:33.348Z</time></trkpt><trkpt lat="46.3014892" lon="10.3068669"><ele>1363.0</ele><time>2026-04-26T15:39:35.348Z</time></trkpt><trkpt lat="46.3015503" lon="10.306961"><ele>1359.0</ele><time>2026-04-26T15:39:38.35Z</time></trkpt><trkpt lat="46.3015893" lon="10.3070359"><ele>1355.0</ele><time>2026-04-26T15:39:40.348Z</time></trkpt><trkpt lat="46.301646" lon="10.307133"><ele>1351.0</ele><time>2026-04-26T15:39:42.348Z</time></trkpt><trkpt lat="46.3017154" lon="10.3072081"><ele>1347.0</ele><time>2026-04-26T15:39:44.349Z</time></trkpt><trkpt lat="46.3017878" lon="10.3072721"><ele>1343.0</ele><time>2026-04-26T15:39:46.346Z</time></trkpt><trkpt lat="46.3021486" lon="10.3077886"><ele>1343.0</ele><time>2026-04-26T15:39:47.349Z</time></trkpt><trkpt lat="46.3022115" lon="10.3079234"><ele>1343.0</ele><time>2026-04-26T15:39:49.347Z</time></trkpt><trkpt lat="46.3022686" lon="10.3079693"><ele>1343.0</ele><time>2026-04-26T15:39:50.35Z</time></trkpt><trkpt lat="46.3023871" lon="10.3080216"><ele>1343.0</ele><time>2026-04-26T15:39:52.352Z</time></trkpt><trkpt lat="46.3024472" lon="10.3080596"><ele>1343.0</ele><time>2026-04-26T15:39:53.349Z</time></trkpt><trkpt lat="46.3025097" lon="10.3081056"><ele>1343.0</ele><time>2026-04-26T15:39:54.35Z</time></trkpt><trkpt lat="46.3025679" lon="10.3081586"><ele>1339.0</ele><time>2026-04-26T15:39:55.351Z</time></trkpt><trkpt lat="46.3026572" lon="10.3081999"><ele>1335.0</ele><time>2026-04-26T15:39:57.345Z</time></trkpt><trkpt lat="46.3027339" lon="10.3082101"><ele>1331.0</ele><time>2026-04-26T15:39:59.347Z</time></trkpt><trkpt lat="46.3027831" lon="10.3083055"><ele>1327.0</ele><time>2026-04-26T15:40:02.351Z</time></trkpt><trkpt lat="46.3027506" lon="10.3084041"><ele>1323.0</ele><time>2026-04-26T15:40:06.35Z</time></trkpt><trkpt lat="46.302683" lon="10.308483"><ele>1319.0</ele><time>2026-04-26T15:40:09.349Z</time></trkpt><trkpt lat="46.3026614" lon="10.3085792"><ele>1319.0</ele><time>2026-04-26T15:40:12.348Z</time></trkpt><trkpt lat="46.3026675" lon="10.3088837"><ele>1319.0</ele><time>2026-04-26T15:40:14.354Z</time></trkpt><trkpt lat="46.3027619" lon="10.3089115"><ele>1319.0</ele><time>2026-04-26T15:40:16.341Z</time></trkpt><trkpt lat="46.3028348" lon="10.3089521"><ele>1319.0</ele><time>2026-04-26T15:40:18.346Z</time></trkpt><trkpt lat="46.3029114" lon="10.308944"><ele>1316.2</ele><time>2026-04-26T15:40:19.342Z</time></trkpt><trkpt lat="46.3030274" lon="10.3089964"><ele>1313.4</ele><time>2026-04-26T15:40:21.353Z</time></trkpt><trkpt lat="46.3031283" lon="10.3091071"><ele>1310.6</ele><time>2026-04-26T15:40:23.35Z</time></trkpt><trkpt lat="46.3032046" lon="10.309216"><ele>1307.8</ele><time>2026-04-26T15:40:25.35Z</time></trkpt><trkpt lat="46.3032505" lon="10.3093347"><ele>1305.0</ele><time>2026-04-26T15:40:28.35Z</time></trkpt><trkpt lat="46.3032961" lon="10.3094157"><ele>1305.0</ele><time>2026-04-26T15:40:30.344Z</time></trkpt><trkpt lat="46.30333" lon="10.3095296"><ele>1305.0</ele><time>2026-04-26T15:41:53.351Z</time></trkpt><trkpt lat="46.3034179" lon="10.3096005"><ele>1305.0</ele><time>2026-04-26T15:41:55.345Z</time></trkpt><trkpt lat="46.3035059" lon="10.3096671"><ele>1305.0</ele><time>2026-04-26T15:41:57.353Z</time></trkpt><trkpt lat="46.3035334" lon="10.3097817"><ele>1305.0</ele><time>2026-04-26T15:42:00.347Z</time></trkpt><trkpt lat="46.303496" lon="10.3098935"><ele>1305.0</ele><time>2026-04-26T15:42:04.349Z</time></trkpt><trkpt lat="46.3035589" lon="10.3098147"><ele>1305.0</ele><time>2026-04-26T15:42:19.344Z</time></trkpt><trkpt lat="46.3035395" lon="10.3096638"><ele>1305.0</ele><time>2026-04-26T15:42:21.345Z</time></trkpt><trkpt lat="46.3034577" lon="10.3095331"><ele>1305.0</ele><time>2026-04-26T15:42:23.345Z</time></trkpt><trkpt lat="46.3033346" lon="10.3094953"><ele>1305.0</ele><time>2026-04-26T15:42:24.346Z</time></trkpt><trkpt lat="46.303252" lon="10.3094484"><ele>1305.0</ele><time>2026-04-26T15:42:25.344Z</time></trkpt><trkpt lat="46.3032294" lon="10.3093353"><ele>1305.0</ele><time>2026-04-26T15:42:26.345Z</time></trkpt><trkpt lat="46.303195" lon="10.3092449"><ele>1305.0</ele><time>2026-04-26T15:42:27.344Z</time></trkpt><trkpt lat="46.3031668" lon="10.3091557"><ele>1305.0</ele><time>2026-04-26T15:42:28.347Z</time></trkpt><trkpt lat="46.303118" lon="10.3090803"><ele>1305.0</ele><time>2026-04-26T15:42:29.346Z</time></trkpt><trkpt lat="46.3030358" lon="10.3089898"><ele>1305.0</ele><time>2026-04-26T15:42:31.345Z</time></trkpt><trkpt lat="46.3031146" lon="10.3090335"><ele>1305.0</ele><time>2026-04-26T15:43:02.35Z</time></trkpt><trkpt lat="46.3032181" lon="10.3091689"><ele>1305.0</ele><time>2026-04-26T15:43:04.351Z</time></trkpt><trkpt lat="46.3032694" lon="10.3092502"><ele>1305.0</ele><time>2026-04-26T15:43:05.353Z</time></trkpt><trkpt lat="46.3033143" lon="10.3093336"><ele>1305.0</ele><time>2026-04-26T15:43:06.353Z</time></trkpt><trkpt lat="46.303367" lon="10.3094097"><ele>1305.0</ele><time>2026-04-26T15:43:07.346Z</time></trkpt><trkpt lat="46.303505" lon="10.3094439"><ele>1305.0</ele><time>2026-04-26T15:43:09.349Z</time></trkpt><trkpt lat="46.3035724" lon="10.3094418"><ele>1305.0</ele><time>2026-04-26T15:43:10.344Z</time></trkpt><trkpt lat="46.3036485" lon="10.3094294"><ele>1305.0</ele><time>2026-04-26T15:43:11.35Z</time></trkpt><trkpt lat="46.3037268" lon="10.3094438"><ele>1305.0</ele><time>2026-04-26T15:43:12.343Z</time></trkpt><trkpt lat="46.3038121" lon="10.3095502"><ele>1305.0</ele><time>2026-04-26T15:43:14.351Z</time></trkpt><trkpt lat="46.3038765" lon="10.3096079"><ele>1305.0</ele><time>2026-04-26T15:43:15.345Z</time></trkpt><trkpt lat="46.3039082" lon="10.309704"><ele>1302.1666666666667</ele><time>2026-04-26T15:43:16.349Z</time></trkpt><trkpt lat="46.3039377" lon="10.3097925"><ele>1299.3333333333333</ele><time>2026-04-26T15:43:17.354Z</time></trkpt><trkpt lat="46.3039459" lon="10.3098849"><ele>1296.5</ele><time>2026-04-26T15:43:18.346Z</time></trkpt><trkpt lat="46.304052" lon="10.3099708"><ele>1293.6666666666665</ele><time>2026-04-26T15:43:20.35Z</time></trkpt><trkpt lat="46.3041417" lon="10.3100017"><ele>1290.8333333333333</ele><time>2026-04-26T15:43:22.354Z</time></trkpt><trkpt lat="46.3041809" lon="10.3099188"><ele>1288.0</ele><time>2026-04-26T15:43:25.354Z</time></trkpt><trkpt lat="46.3041335" lon="10.3098487"><ele>1281.0</ele><time>2026-04-26T15:43:28.344Z</time></trkpt><trkpt lat="46.3040892" lon="10.3097135"><ele>1274.0</ele><time>2026-04-26T15:43:31.344Z</time></trkpt><trkpt lat="46.3040607" lon="10.3095257"><ele>1267.0</ele><time>2026-04-26T15:43:32.348Z</time></trkpt><trkpt lat="46.3040134" lon="10.3093155"><ele>1260.0</ele><time>2026-04-26T15:43:33.345Z</time></trkpt><trkpt lat="46.3039739" lon="10.3091935"><ele>1260.0</ele><time>2026-04-26T15:43:35.355Z</time></trkpt><trkpt lat="46.303988" lon="10.3090917"><ele>1260.0</ele><time>2026-04-26T15:43:39.345Z</time></trkpt><trkpt lat="46.304047" lon="10.309135"><ele>1260.0</ele><time>2026-04-26T15:43:42.345Z</time></trkpt><trkpt lat="46.3041195" lon="10.3093463"><ele>1260.0</ele><time>2026-04-26T15:43:45.351Z</time></trkpt><trkpt lat="46.3041604" lon="10.3095801"><ele>1260.0</ele><time>2026-04-26T15:43:46.348Z</time></trkpt><trkpt lat="46.3042515" lon="10.3096302"><ele>1260.0</ele><time>2026-04-26T15:43:48.341Z</time></trkpt><trkpt lat="46.3043735" lon="10.3096724"><ele>1260.0</ele><time>2026-04-26T15:43:50.352Z</time></trkpt><trkpt lat="46.3044497" lon="10.3096833"><ele>1260.0</ele><time>2026-04-26T15:43:54.349Z</time></trkpt><trkpt lat="46.3044818" lon="10.3096022"><ele>1260.0</ele><time>2026-04-26T15:43:58.346Z</time></trkpt><trkpt lat="46.3044394" lon="10.3095043"><ele>1260.0</ele><time>2026-04-26T15:44:01.343Z</time></trkpt><trkpt lat="46.3044045" lon="10.3094276"><ele>1260.0</ele><time>2026-04-26T15:44:03.354Z</time></trkpt><trkpt lat="46.3044048" lon="10.309328"><ele>1260.0</ele><time>2026-04-26T15:44:06.347Z</time></trkpt><trkpt lat="46.30448" lon="10.3093708"><ele>1260.0</ele><time>2026-04-26T15:44:10.351Z</time></trkpt><trkpt lat="46.3045502" lon="10.3094633"><ele>1260.0</ele><time>2026-04-26T15:44:13.345Z</time></trkpt><trkpt lat="46.3046054" lon="10.3095235"><ele>1260.0</ele><time>2026-04-26T15:44:15.344Z</time></trkpt><trkpt lat="46.3046686" lon="10.3095642"><ele>1260.0</ele><time>2026-04-26T15:44:17.346Z</time></trkpt><trkpt lat="46.304741" lon="10.3095419"><ele>1260.0</ele><time>2026-04-26T15:44:20.349Z</time></trkpt><trkpt lat="46.3047442" lon="10.3094309"><ele>1260.0</ele><time>2026-04-26T15:44:23.344Z</time></trkpt><trkpt lat="46.3047649" lon="10.3093257"><ele>1260.0</ele><time>2026-04-26T15:44:25.35Z</time></trkpt><trkpt lat="46.3047774" lon="10.3092283"><ele>1260.0</ele><time>2026-04-26T15:44:27.348Z</time></trkpt><trkpt lat="46.3047954" lon="10.3091403"><ele>1260.0</ele><time>2026-04-26T15:44:29.348Z</time></trkpt><trkpt lat="46.3048536" lon="10.3090878"><ele>1260.0</ele><time>2026-04-26T15:44:31.35Z</time></trkpt><trkpt lat="46.3049314" lon="10.309173"><ele>1252.0</ele><time>2026-04-26T15:44:34.346Z</time></trkpt><trkpt lat="46.3049668" lon="10.3092697"><ele>1244.0</ele><time>2026-04-26T15:44:36.349Z</time></trkpt><trkpt lat="46.3050341" lon="10.3093328"><ele>1236.0</ele><time>2026-04-26T15:44:39.349Z</time></trkpt><trkpt lat="46.3050623" lon="10.3092248"><ele>1228.0</ele><time>2026-04-26T15:44:41.347Z</time></trkpt><trkpt lat="46.305048" lon="10.309111"><ele>1220.0</ele><time>2026-04-26T15:44:43.347Z</time></trkpt><trkpt lat="46.30512" lon="10.3090991"><ele>1212.0</ele><time>2026-04-26T15:44:47.352Z</time></trkpt><trkpt lat="46.3051468" lon="10.3091965"><ele>1212.0</ele><time>2026-04-26T15:44:49.353Z</time></trkpt><trkpt lat="46.3051462" lon="10.3093329"><ele>1212.0</ele><time>2026-04-26T15:44:51.349Z</time></trkpt><trkpt lat="46.3051587" lon="10.3094569"><ele>1212.0</ele><time>2026-04-26T15:44:53.346Z</time></trkpt><trkpt lat="46.3052074" lon="10.3095217"><ele>1212.0</ele><time>2026-04-26T15:44:55.356Z</time></trkpt><trkpt lat="46.3052736" lon="10.3094961"><ele>1212.0</ele><time>2026-04-26T15:44:57.344Z</time></trkpt><trkpt lat="46.3053396" lon="10.3094087"><ele>1212.0</ele><time>2026-04-26T15:44:59.349Z</time></trkpt><trkpt lat="46.3054107" lon="10.3093219"><ele>1212.0</ele><time>2026-04-26T15:45:01.35Z</time></trkpt><trkpt lat="46.3054948" lon="10.3092576"><ele>1212.0</ele><time>2026-04-26T15:45:03.349Z</time></trkpt><trkpt lat="46.3055864" lon="10.3092721"><ele>1212.0</ele><time>2026-04-26T15:45:05.345Z</time></trkpt><trkpt lat="46.3057044" lon="10.3093764"><ele>1212.0</ele><time>2026-04-26T15:45:07.353Z</time></trkpt><trkpt lat="46.305788" lon="10.309459"><ele>1212.0</ele><time>2026-04-26T15:45:08.346Z</time></trkpt><trkpt lat="46.305874" lon="10.3095237"><ele>1205.25</ele><time>2026-04-26T15:45:09.348Z</time></trkpt><trkpt lat="46.3059586" lon="10.3095779"><ele>1198.5</ele><time>2026-04-26T15:45:10.351Z</time></trkpt><trkpt lat="46.3060457" lon="10.3096133"><ele>1191.75</ele><time>2026-04-26T15:45:11.346Z</time></trkpt><trkpt lat="46.3061729" lon="10.3096033"><ele>1185.0</ele><time>2026-04-26T15:45:12.348Z</time></trkpt><trkpt lat="46.3063244" lon="10.3096629"><ele>1183.4</ele><time>2026-04-26T15:45:13.346Z</time></trkpt><trkpt lat="46.3064395" lon="10.3097004"><ele>1181.8</ele><time>2026-04-26T15:45:14.342Z</time></trkpt><trkpt lat="46.3065294" lon="10.3097372"><ele>1180.2</ele><time>2026-04-26T15:45:15.345Z</time></trkpt><trkpt lat="46.3066244" lon="10.3097776"><ele>1178.6</ele><time>2026-04-26T15:45:16.344Z</time></trkpt><trkpt lat="46.306697" lon="10.3098431"><ele>1177.0</ele><time>2026-04-26T15:45:17.35Z</time></trkpt><trkpt lat="46.3068213" lon="10.3098976"><ele>1177.0</ele><time>2026-04-26T15:45:19.346Z</time></trkpt><trkpt lat="46.3069121" lon="10.3098844"><ele>1177.0</ele><time>2026-04-26T15:45:20.345Z</time></trkpt><trkpt lat="46.306989" lon="10.3098593"><ele>1177.0</ele><time>2026-04-26T15:45:21.347Z</time></trkpt><trkpt lat="46.3070654" lon="10.3098379"><ele>1177.0</ele><time>2026-04-26T15:45:22.351Z</time></trkpt><trkpt lat="46.3071801" lon="10.3098311"><ele>1177.0</ele><time>2026-04-26T15:45:24.345Z</time></trkpt><trkpt lat="46.3072567" lon="10.3098456"><ele>1177.0</ele><time>2026-04-26T15:45:25.344Z</time></trkpt><trkpt lat="46.3073653" lon="10.3098983"><ele>1170.4</ele><time>2026-04-26T15:45:27.347Z</time></trkpt><trkpt lat="46.3074313" lon="10.3099582"><ele>1163.8000000000002</ele><time>2026-04-26T15:45:28.345Z</time></trkpt><trkpt lat="46.3074893" lon="10.310046"><ele>1157.2</ele><time>2026-04-26T15:45:29.345Z</time></trkpt><trkpt lat="46.3074949" lon="10.3102234"><ele>1150.6000000000001</ele><time>2026-04-26T15:45:30.346Z</time></trkpt><trkpt lat="46.3075695" lon="10.3103343"><ele>1144.0</ele><time>2026-04-26T15:45:31.347Z</time></trkpt><trkpt lat="46.3076546" lon="10.3104533"><ele>1144.0</ele><time>2026-04-26T15:45:32.353Z</time></trkpt><trkpt lat="46.3077118" lon="10.3105636"><ele>1144.0</ele><time>2026-04-26T15:45:33.346Z</time></trkpt><trkpt lat="46.3077141" lon="10.3106776"><ele>1144.0</ele><time>2026-04-26T15:45:34.345Z</time></trkpt><trkpt lat="46.3077749" lon="10.3107409"><ele>1144.0</ele><time>2026-04-26T15:45:35.352Z</time></trkpt><trkpt lat="46.3078881" lon="10.31077"><ele>1144.0</ele><time>2026-04-26T15:45:37.344Z</time></trkpt><trkpt lat="46.3079656" lon="10.3107526"><ele>1144.0</ele><time>2026-04-26T15:45:38.352Z</time></trkpt><trkpt lat="46.3080635" lon="10.3107097"><ele>1143.6000000000001</ele><time>2026-04-26T15:45:39.347Z</time></trkpt><trkpt lat="46.3082001" lon="10.3107362"><ele>1143.2</ele><time>2026-04-26T15:45:42.347Z</time></trkpt><trkpt lat="46.3082879" lon="10.3107314"><ele>1142.8000000000002</ele><time>2026-04-26T15:45:43.345Z</time></trkpt><trkpt lat="46.3084073" lon="10.3107288"><ele>1142.4</ele><time>2026-04-26T15:45:45.345Z</time></trkpt><trkpt lat="46.3085011" lon="10.3106648"><ele>1142.0</ele><time>2026-04-26T15:45:47.344Z</time></trkpt><trkpt lat="46.3085376" lon="10.3105869"><ele>1138.5</ele><time>2026-04-26T15:45:48.354Z</time></trkpt><trkpt lat="46.3086091" lon="10.3104966"><ele>1135.0</ele><time>2026-04-26T15:45:49.351Z</time></trkpt><trkpt lat="46.3086852" lon="10.3104144"><ele>1131.5</ele><time>2026-04-26T15:45:50.348Z</time></trkpt><trkpt lat="46.3087319" lon="10.310346"><ele>1128.0</ele><time>2026-04-26T15:45:51.347Z</time></trkpt><trkpt lat="46.3087155" lon="10.3101752"><ele>1124.5</ele><time>2026-04-26T15:45:53.346Z</time></trkpt><trkpt lat="46.3086768" lon="10.3101013"><ele>1121.0</ele><time>2026-04-26T15:45:54.345Z</time></trkpt><trkpt lat="46.3086214" lon="10.3100358"><ele>1121.0</ele><time>2026-04-26T15:45:56.348Z</time></trkpt><trkpt lat="46.3086349" lon="10.3099465"><ele>1121.0</ele><time>2026-04-26T15:45:58.347Z</time></trkpt><trkpt lat="46.3087199" lon="10.3099109"><ele>1121.0</ele><time>2026-04-26T15:46:00.347Z</time></trkpt><trkpt lat="46.308814" lon="10.3099403"><ele>1121.0</ele><time>2026-04-26T15:46:04.346Z</time></trkpt><trkpt lat="46.3089178" lon="10.3099361"><ele>1121.0</ele><time>2026-04-26T15:46:05.348Z</time></trkpt><trkpt lat="46.3090524" lon="10.3098491"><ele>1117.6</ele><time>2026-04-26T15:46:06.346Z</time></trkpt><trkpt lat="46.3091279" lon="10.3097929"><ele>1114.1999999999998</ele><time>2026-04-26T15:46:08.348Z</time></trkpt><trkpt lat="46.309114" lon="10.3099013"><ele>1110.8000000000002</ele><time>2026-04-26T15:46:11.346Z</time></trkpt><trkpt lat="46.3091165" lon="10.3099936"><ele>1107.4</ele><time>2026-04-26T15:46:14.346Z</time></trkpt><trkpt lat="46.3091924" lon="10.3100723"><ele>1104.0</ele><time>2026-04-26T15:46:16.35Z</time></trkpt><trkpt lat="46.3094832" lon="10.3100759"><ele>1104.0</ele><time>2026-04-26T15:46:17.353Z</time></trkpt><trkpt lat="46.3095883" lon="10.3100365"><ele>1104.0</ele><time>2026-04-26T15:46:18.345Z</time></trkpt><trkpt lat="46.3097063" lon="10.3099986"><ele>1104.0</ele><time>2026-04-26T15:46:19.342Z</time></trkpt><trkpt lat="46.3098168" lon="10.3099677"><ele>1104.0</ele><time>2026-04-26T15:46:21.348Z</time></trkpt><trkpt lat="46.3098817" lon="10.3099565"><ele>1104.0</ele><time>2026-04-26T15:46:22.351Z</time></trkpt><trkpt lat="46.3099565" lon="10.3099431"><ele>1098.3333333333333</ele><time>2026-04-26T15:46:23.345Z</time></trkpt><trkpt lat="46.3100217" lon="10.3100349"><ele>1092.6666666666667</ele><time>2026-04-26T15:46:25.346Z</time></trkpt><trkpt lat="46.3100114" lon="10.3101533"><ele>1087.0</ele><time>2026-04-26T15:46:27.348Z</time></trkpt><trkpt lat="46.3099913" lon="10.3102533"><ele>1081.3333333333335</ele><time>2026-04-26T15:46:28.347Z</time></trkpt><trkpt lat="46.3100556" lon="10.3102802"><ele>1075.6666666666667</ele><time>2026-04-26T15:46:33.344Z</time></trkpt><trkpt lat="46.3100921" lon="10.310192"><ele>1070.0</ele><time>2026-04-26T15:46:35.356Z</time></trkpt><trkpt lat="46.3101537" lon="10.3101172"><ele>1070.0</ele><time>2026-04-26T15:46:37.343Z</time></trkpt><trkpt lat="46.3102236" lon="10.3101468"><ele>1070.0</ele><time>2026-04-26T15:46:39.351Z</time></trkpt><trkpt lat="46.3102629" lon="10.3102578"><ele>1070.0</ele><time>2026-04-26T15:46:41.347Z</time></trkpt><trkpt lat="46.3102782" lon="10.3104645"><ele>1070.0</ele><time>2026-04-26T15:46:43.351Z</time></trkpt><trkpt lat="46.3103849" lon="10.310469"><ele>1070.0</ele><time>2026-04-26T15:46:45.355Z</time></trkpt><trkpt lat="46.3104571" lon="10.3104172"><ele>1070.0</ele><time>2026-04-26T15:46:46.347Z</time></trkpt><trkpt lat="46.3105361" lon="10.3103636"><ele>1070.0</ele><time>2026-04-26T15:46:47.351Z</time></trkpt><trkpt lat="46.3106086" lon="10.3102998"><ele>1070.0</ele><time>2026-04-26T15:46:48.348Z</time></trkpt><trkpt lat="46.310702" lon="10.3103255"><ele>1070.0</ele><time>2026-04-26T15:46:50.346Z</time></trkpt><trkpt lat="46.3108061" lon="10.310331"><ele>1070.0</ele><time>2026-04-26T15:46:51.345Z</time></trkpt><trkpt lat="46.3108525" lon="10.3104216"><ele>1070.0</ele><time>2026-04-26T15:46:52.349Z</time></trkpt><trkpt lat="46.3109086" lon="10.3105073"><ele>1071.5</ele><time>2026-04-26T15:46:53.348Z</time></trkpt><trkpt lat="46.3110225" lon="10.3105594"><ele>1073.0</ele><time>2026-04-26T15:46:54.347Z</time></trkpt><trkpt lat="46.3111615" lon="10.310627"><ele>1074.5</ele><time>2026-04-26T15:46:55.346Z</time></trkpt><trkpt lat="46.3112417" lon="10.31065"><ele>1076.0</ele><time>2026-04-26T15:46:56.346Z</time></trkpt><trkpt lat="46.3113523" lon="10.3106867"><ele>1069.0</ele><time>2026-04-26T15:46:57.35Z</time></trkpt><trkpt lat="46.3114724" lon="10.3106963"><ele>1062.0</ele><time>2026-04-26T15:46:58.345Z</time></trkpt><trkpt lat="46.3116354" lon="10.3107096"><ele>1055.0</ele><time>2026-04-26T15:46:59.357Z</time></trkpt><trkpt lat="46.3117318" lon="10.3107429"><ele>1048.0</ele><time>2026-04-26T15:47:00.349Z</time></trkpt><trkpt lat="46.3118499" lon="10.3107562"><ele>1048.0</ele><time>2026-04-26T15:47:01.345Z</time></trkpt><trkpt lat="46.3119549" lon="10.3107638"><ele>1048.0</ele><time>2026-04-26T15:47:02.348Z</time></trkpt><trkpt lat="46.3120597" lon="10.3107465"><ele>1048.0</ele><time>2026-04-26T15:47:03.345Z</time></trkpt><trkpt lat="46.3121926" lon="10.3107526"><ele>1048.0</ele><time>2026-04-26T15:47:04.351Z</time></trkpt><trkpt lat="46.3122693" lon="10.3107665"><ele>1048.0</ele><time>2026-04-26T15:47:05.347Z</time></trkpt><trkpt lat="46.3123592" lon="10.3107546"><ele>1042.6</ele><time>2026-04-26T15:47:06.349Z</time></trkpt><trkpt lat="46.3124199" lon="10.3107994"><ele>1037.1999999999998</ele><time>2026-04-26T15:47:09.348Z</time></trkpt><trkpt lat="46.3125471" lon="10.3108621"><ele>1031.8</ele><time>2026-04-26T15:47:11.345Z</time></trkpt><trkpt lat="46.3126291" lon="10.3109002"><ele>1026.3999999999999</ele><time>2026-04-26T15:47:12.348Z</time></trkpt><trkpt lat="46.3127409" lon="10.310931"><ele>1021.0</ele><time>2026-04-26T15:47:14.358Z</time></trkpt><trkpt lat="46.312859" lon="10.3109031"><ele>1020.9999999999999</ele><time>2026-04-26T15:47:15.345Z</time></trkpt><trkpt lat="46.3129391" lon="10.3109139"><ele>1021.0</ele><time>2026-04-26T15:47:16.353Z</time></trkpt><trkpt lat="46.3130671" lon="10.310888"><ele>1021.0</ele><time>2026-04-26T15:47:18.349Z</time></trkpt><trkpt lat="46.3131151" lon="10.3108206"><ele>1021.0</ele><time>2026-04-26T15:47:19.347Z</time></trkpt><trkpt lat="46.3131596" lon="10.3107317"><ele>1020.9999999999999</ele><time>2026-04-26T15:47:20.349Z</time></trkpt><trkpt lat="46.313193" lon="10.310629"><ele>1021.0</ele><time>2026-04-26T15:47:21.345Z</time></trkpt><trkpt lat="46.3130901" lon="10.3105608"><ele>1015.8333333333333</ele><time>2026-04-26T15:47:22.349Z</time></trkpt><trkpt lat="46.3130881" lon="10.3104615"><ele>1010.6666666666666</ele><time>2026-04-26T15:47:23.348Z</time></trkpt><trkpt lat="46.3130788" lon="10.3103544"><ele>1005.5</ele><time>2026-04-26T15:47:24.345Z</time></trkpt><trkpt lat="46.313079" lon="10.3102332"><ele>1000.3333333333333</ele><time>2026-04-26T15:47:25.35Z</time></trkpt><trkpt lat="46.313083" lon="10.3101175"><ele>995.1666666666666</ele><time>2026-04-26T15:47:26.347Z</time></trkpt><trkpt lat="46.3130853" lon="10.3100198"><ele>990.0</ele><time>2026-04-26T15:47:27.35Z</time></trkpt><trkpt lat="46.3130827" lon="10.3098871"><ele>990.0</ele><time>2026-04-26T15:47:29.346Z</time></trkpt><trkpt lat="46.31314" lon="10.309776"><ele>990.0</ele><time>2026-04-26T15:47:31.349Z</time></trkpt><trkpt lat="46.3132089" lon="10.3097553"><ele>990.0</ele><time>2026-04-26T15:47:32.347Z</time></trkpt><trkpt lat="46.3133137" lon="10.3097657"><ele>990.0</ele><time>2026-04-26T15:47:34.349Z</time></trkpt><trkpt lat="46.3133762" lon="10.3097926"><ele>990.0</ele><time>2026-04-26T15:47:35.349Z</time></trkpt><trkpt lat="46.3134498" lon="10.3097865"><ele>990.0</ele><time>2026-04-26T15:47:36.348Z</time></trkpt><trkpt lat="46.3135217" lon="10.3098036"><ele>990.0</ele><time>2026-04-26T15:47:37.353Z</time></trkpt><trkpt lat="46.3136058" lon="10.3098373"><ele>990.0</ele><time>2026-04-26T15:47:38.352Z</time></trkpt><trkpt lat="46.3136939" lon="10.3098893"><ele>990.0</ele><time>2026-04-26T15:47:39.347Z</time></trkpt><trkpt lat="46.3137806" lon="10.3099161"><ele>990.0</ele><time>2026-04-26T15:47:40.351Z</time></trkpt><trkpt lat="46.3139026" lon="10.309928"><ele>990.0</ele><time>2026-04-26T15:47:42.868Z</time></trkpt><trkpt lat="46.3139553" lon="10.3100113"><ele>987.8</ele><time>2026-04-26T15:47:44.346Z</time></trkpt><trkpt lat="46.3139912" lon="10.3101786"><ele>985.6</ele><time>2026-04-26T15:47:46.355Z</time></trkpt><trkpt lat="46.3140097" lon="10.3103017"><ele>983.4000000000001</ele><time>2026-04-26T15:47:47.355Z</time></trkpt><trkpt lat="46.3140194" lon="10.3104497"><ele>981.2</ele><time>2026-04-26T15:47:48.349Z</time></trkpt><trkpt lat="46.3140284" lon="10.3105635"><ele>979.0</ele><time>2026-04-26T15:47:49.349Z</time></trkpt><trkpt lat="46.3140303" lon="10.3106875"><ele>979.0</ele><time>2026-04-26T15:47:50.35Z</time></trkpt><trkpt lat="46.3140683" lon="10.3108019"><ele>979.0000000000001</ele><time>2026-04-26T15:47:51.346Z</time></trkpt><trkpt lat="46.3141121" lon="10.310942"><ele>979.0000000000001</ele><time>2026-04-26T15:47:52.348Z</time></trkpt><trkpt lat="46.3141786" lon="10.3111268"><ele>979.0</ele><time>2026-04-26T15:47:53.347Z</time></trkpt><trkpt lat="46.3142391" lon="10.3112373"><ele>979.0</ele><time>2026-04-26T15:47:54.349Z</time></trkpt><trkpt lat="46.3142972" lon="10.3113591"><ele>983.0</ele><time>2026-04-26T15:47:55.356Z</time></trkpt><trkpt lat="46.314369" lon="10.311503"><ele>987.0</ele><time>2026-04-26T15:47:56.351Z</time></trkpt><trkpt lat="46.3144037" lon="10.3117106"><ele>991.0</ele><time>2026-04-26T15:47:57.348Z</time></trkpt><trkpt lat="46.3144724" lon="10.3118377"><ele>995.0</ele><time>2026-04-26T15:47:58.347Z</time></trkpt><trkpt lat="46.314512" lon="10.311978"><ele>995.0</ele><time>2026-04-26T15:47:59.342Z</time></trkpt><trkpt lat="46.3145651" lon="10.3120565"><ele>995.0</ele><time>2026-04-26T15:48:00.349Z</time></trkpt><trkpt lat="46.3146479" lon="10.3121288"><ele>995.0</ele><time>2026-04-26T15:48:02.354Z</time></trkpt><trkpt lat="46.3148028" lon="10.3118928"><ele>995.0</ele><time>2026-04-26T15:48:03.348Z</time></trkpt><trkpt lat="46.3149071" lon="10.3117735"><ele>989.4</ele><time>2026-04-26T15:48:04.352Z</time></trkpt><trkpt lat="46.3150049" lon="10.3116804"><ele>983.8</ele><time>2026-04-26T15:48:05.357Z</time></trkpt><trkpt lat="46.3151198" lon="10.3115825"><ele>978.2</ele><time>2026-04-26T15:48:06.346Z</time></trkpt><trkpt lat="46.3151828" lon="10.3115296"><ele>972.6</ele><time>2026-04-26T15:48:07.349Z</time></trkpt><trkpt lat="46.3152637" lon="10.3115059"><ele>967.0</ele><time>2026-04-26T15:48:08.345Z</time></trkpt><trkpt lat="46.3153625" lon="10.3114775"><ele>967.0</ele><time>2026-04-26T15:48:09.351Z</time></trkpt><trkpt lat="46.3154645" lon="10.311478"><ele>967.0</ele><time>2026-04-26T15:48:10.349Z</time></trkpt><trkpt lat="46.3155542" lon="10.3114849"><ele>967.0</ele><time>2026-04-26T15:48:11.348Z</time></trkpt><trkpt lat="46.3156526" lon="10.3115304"><ele>967.0</ele><time>2026-04-26T15:48:12.345Z</time></trkpt><trkpt lat="46.3157682" lon="10.3115798"><ele>967.0</ele><time>2026-04-26T15:48:13.346Z</time></trkpt><trkpt lat="46.3158784" lon="10.3116664"><ele>962.4000000000001</ele><time>2026-04-26T15:48:14.348Z</time></trkpt><trkpt lat="46.3159003" lon="10.311816"><ele>957.8000000000001</ele><time>2026-04-26T15:48:15.351Z</time></trkpt><trkpt lat="46.3159735" lon="10.3119024"><ele>953.2</ele><time>2026-04-26T15:48:16.349Z</time></trkpt><trkpt lat="46.316057" lon="10.3119487"><ele>948.6</ele><time>2026-04-26T15:48:17.352Z</time></trkpt><trkpt lat="46.3161469" lon="10.3119956"><ele>944.0</ele><time>2026-04-26T15:48:18.344Z</time></trkpt><trkpt lat="46.3162328" lon="10.3120186"><ele>944.0</ele><time>2026-04-26T15:48:19.346Z</time></trkpt><trkpt lat="46.3163402" lon="10.3119486"><ele>944.0000000000001</ele><time>2026-04-26T15:48:20.349Z</time></trkpt><trkpt lat="46.3164141" lon="10.3119478"><ele>944.0000000000001</ele><time>2026-04-26T15:48:21.346Z</time></trkpt><trkpt lat="46.3164831" lon="10.311957"><ele>944.0</ele><time>2026-04-26T15:48:22.356Z</time></trkpt><trkpt lat="46.3165464" lon="10.3119151"><ele>944.0</ele><time>2026-04-26T15:48:24.346Z</time></trkpt><trkpt lat="46.3167601" lon="10.3118492"><ele>943.8333333333334</ele><time>2026-04-26T15:48:33.346Z</time></trkpt><trkpt lat="46.3168346" lon="10.3118327"><ele>943.6666666666667</ele><time>2026-04-26T15:48:35.351Z</time></trkpt><trkpt lat="46.3169101" lon="10.3117126"><ele>943.5</ele><time>2026-04-26T15:48:41.348Z</time></trkpt><trkpt lat="46.3168459" lon="10.3116856"><ele>943.3333333333333</ele><time>2026-04-26T15:48:42.348Z</time></trkpt><trkpt lat="46.3167474" lon="10.3116067"><ele>943.1666666666666</ele><time>2026-04-26T15:48:44.347Z</time></trkpt><trkpt lat="46.3167057" lon="10.3115354"><ele>943.0</ele><time>2026-04-26T15:48:45.346Z</time></trkpt><trkpt lat="46.3166592" lon="10.3114688"><ele>937.4</ele><time>2026-04-26T15:48:46.35Z</time></trkpt><trkpt lat="46.3166147" lon="10.3113746"><ele>931.8</ele><time>2026-04-26T15:48:47.352Z</time></trkpt><trkpt lat="46.3165177" lon="10.3112683"><ele>926.2</ele><time>2026-04-26T15:48:48.344Z</time></trkpt><trkpt lat="46.3164625" lon="10.3112001"><ele>920.6</ele><time>2026-04-26T15:48:49.353Z</time></trkpt><trkpt lat="46.3163772" lon="10.3111416"><ele>915.0</ele><time>2026-04-26T15:48:50.351Z</time></trkpt><trkpt lat="46.316292" lon="10.3110715"><ele>915.0</ele><time>2026-04-26T15:48:51.347Z</time></trkpt><trkpt lat="46.3162501" lon="10.3109438"><ele>915.0</ele><time>2026-04-26T15:48:53.351Z</time></trkpt><trkpt lat="46.3163347" lon="10.3107726"><ele>915.0</ele><time>2026-04-26T15:48:55.348Z</time></trkpt><trkpt lat="46.3163922" lon="10.3107034"><ele>915.0</ele><time>2026-04-26T15:48:56.347Z</time></trkpt><trkpt lat="46.3164578" lon="10.3106386"><ele>915.0</ele><time>2026-04-26T15:48:57.345Z</time></trkpt><trkpt lat="46.3165527" lon="10.3105072"><ele>910.5</ele><time>2026-04-26T15:48:59.345Z</time></trkpt><trkpt lat="46.3166033" lon="10.3104246"><ele>906.0</ele><time>2026-04-26T15:49:00.358Z</time></trkpt><trkpt lat="46.3166683" lon="10.3103159"><ele>901.5</ele><time>2026-04-26T15:49:01.341Z</time></trkpt><trkpt lat="46.3167008" lon="10.3102247"><ele>897.0</ele><time>2026-04-26T15:49:02.353Z</time></trkpt><trkpt lat="46.3167528" lon="10.3101328"><ele>892.5</ele><time>2026-04-26T15:49:03.346Z</time></trkpt><trkpt lat="46.3167871" lon="10.3100535"><ele>888.0</ele><time>2026-04-26T15:49:04.343Z</time></trkpt><trkpt lat="46.3168443" lon="10.309986"><ele>888.0</ele><time>2026-04-26T15:49:05.344Z</time></trkpt><trkpt lat="46.3169032" lon="10.3099198"><ele>888.0</ele><time>2026-04-26T15:49:06.353Z</time></trkpt><trkpt lat="46.3170042" lon="10.3099138"><ele>888.0</ele><time>2026-04-26T15:49:08.348Z</time></trkpt><trkpt lat="46.3171053" lon="10.3099066"><ele>888.0</ele><time>2026-04-26T15:49:09.35Z</time></trkpt><trkpt lat="46.3172082" lon="10.3099177"><ele>888.0</ele><time>2026-04-26T15:49:10.352Z</time></trkpt><trkpt lat="46.3173172" lon="10.3099029"><ele>888.2</ele><time>2026-04-26T15:49:11.344Z</time></trkpt><trkpt lat="46.3174237" lon="10.3098828"><ele>888.4</ele><time>2026-04-26T15:49:12.347Z</time></trkpt><trkpt lat="46.3175312" lon="10.3099355"><ele>888.6000000000001</ele><time>2026-04-26T15:49:14.349Z</time></trkpt><trkpt lat="46.3176247" lon="10.3099738"><ele>888.8000000000001</ele><time>2026-04-26T15:49:15.348Z</time></trkpt><trkpt lat="46.3177271" lon="10.3100029"><ele>889.0</ele><time>2026-04-26T15:49:16.348Z</time></trkpt><trkpt lat="46.3178037" lon="10.3100188"><ele>889.0</ele><time>2026-04-26T15:49:17.348Z</time></trkpt><trkpt lat="46.3178941" lon="10.3100238"><ele>889.0</ele><time>2026-04-26T15:49:18.344Z</time></trkpt><trkpt lat="46.3179898" lon="10.3100769"><ele>889.0</ele><time>2026-04-26T15:49:20.349Z</time></trkpt><trkpt lat="46.3181241" lon="10.3101081"><ele>889.0</ele><time>2026-04-26T15:49:22.346Z</time></trkpt><trkpt lat="46.3182596" lon="10.3100987"><ele>887.8000000000001</ele><time>2026-04-26T15:49:24.349Z</time></trkpt><trkpt lat="46.3183186" lon="10.3100587"><ele>886.6000000000001</ele><time>2026-04-26T15:49:26.35Z</time></trkpt><trkpt lat="46.3183869" lon="10.3099832"><ele>885.4</ele><time>2026-04-26T15:49:29.351Z</time></trkpt><trkpt lat="46.3183581" lon="10.3098873"><ele>884.2</ele><time>2026-04-26T15:49:31.342Z</time></trkpt><trkpt lat="46.3182663" lon="10.3097718"><ele>883.0</ele><time>2026-04-26T15:49:32.348Z</time></trkpt><trkpt lat="46.3180776" lon="10.3095293"><ele>875.5</ele><time>2026-04-26T15:49:33.345Z</time></trkpt><trkpt lat="46.3179226" lon="10.3093906"><ele>868.0</ele><time>2026-04-26T15:49:34.342Z</time></trkpt><trkpt lat="46.3178115" lon="10.3092841"><ele>860.5</ele><time>2026-04-26T15:49:36.348Z</time></trkpt><trkpt lat="46.3176955" lon="10.3092222"><ele>853.0</ele><time>2026-04-26T15:49:37.349Z</time></trkpt><trkpt lat="46.3175957" lon="10.3091742"><ele>852.9999999999999</ele><time>2026-04-26T15:49:38.344Z</time></trkpt><trkpt lat="46.3175235" lon="10.3091539"><ele>853.0</ele><time>2026-04-26T15:49:39.346Z</time></trkpt><trkpt lat="46.317433" lon="10.3090758"><ele>853.0</ele><time>2026-04-26T15:49:41.342Z</time></trkpt><trkpt lat="46.3173973" lon="10.3089873"><ele>853.0</ele><time>2026-04-26T15:49:42.349Z</time></trkpt><trkpt lat="46.317323" lon="10.3088716"><ele>852.9999999999999</ele><time>2026-04-26T15:49:43.342Z</time></trkpt><trkpt lat="46.3172937" lon="10.3087622"><ele>853.0</ele><time>2026-04-26T15:49:44.35Z</time></trkpt><trkpt lat="46.317271" lon="10.3086748"><ele>849.1666666666666</ele><time>2026-04-26T15:49:45.348Z</time></trkpt><trkpt lat="46.3172225" lon="10.3086019"><ele>845.3333333333333</ele><time>2026-04-26T15:49:46.343Z</time></trkpt><trkpt lat="46.3171983" lon="10.3084968"><ele>841.5</ele><time>2026-04-26T15:49:48.343Z</time></trkpt><trkpt lat="46.3172342" lon="10.3083969"><ele>837.6666666666667</ele><time>2026-04-26T15:49:50.351Z</time></trkpt><trkpt lat="46.3172142" lon="10.308285"><ele>833.8333333333334</ele><time>2026-04-26T15:49:52.345Z</time></trkpt><trkpt lat="46.3172218" lon="10.3081609"><ele>830.0</ele><time>2026-04-26T15:49:54.353Z</time></trkpt><trkpt lat="46.3171929" lon="10.3080774"><ele>829.1428571428571</ele><time>2026-04-26T15:49:56.347Z</time></trkpt><trkpt lat="46.317136" lon="10.3079952"><ele>828.2857142857143</ele><time>2026-04-26T15:49:58.346Z</time></trkpt><trkpt lat="46.3170628" lon="10.3079759"><ele>827.4285714285713</ele><time>2026-04-26T15:49:59.354Z</time></trkpt><trkpt lat="46.3169989" lon="10.3079519"><ele>826.5714285714286</ele><time>2026-04-26T15:50:00.351Z</time></trkpt><trkpt lat="46.3169191" lon="10.3079407"><ele>825.7142857142857</ele><time>2026-04-26T15:50:01.353Z</time></trkpt><trkpt lat="46.3168511" lon="10.3079258"><ele>824.8571428571428</ele><time>2026-04-26T15:50:02.352Z</time></trkpt><trkpt lat="46.3167902" lon="10.3079003"><ele>824.0</ele><time>2026-04-26T15:50:03.343Z</time></trkpt><trkpt lat="46.3167172" lon="10.3077867"><ele>824.0000000000001</ele><time>2026-04-26T15:50:05.35Z</time></trkpt><trkpt lat="46.3167007" lon="10.3075974"><ele>824.0</ele><time>2026-04-26T15:50:07.348Z</time></trkpt><trkpt lat="46.3166875" lon="10.3075034"><ele>824.0</ele><time>2026-04-26T15:50:08.345Z</time></trkpt><trkpt lat="46.3166422" lon="10.3074257"><ele>824.0</ele><time>2026-04-26T15:50:09.344Z</time></trkpt><trkpt lat="46.3165793" lon="10.3073878"><ele>824.0000000000001</ele><time>2026-04-26T15:50:10.357Z</time></trkpt><trkpt lat="46.3164911" lon="10.3073084"><ele>824.0</ele><time>2026-04-26T15:50:12.345Z</time></trkpt><trkpt lat="46.3164971" lon="10.3071551"><ele>822.5000000000001</ele><time>2026-04-26T15:50:14.347Z</time></trkpt><trkpt lat="46.3165063" lon="10.3070544"><ele>821.0</ele><time>2026-04-26T15:50:15.347Z</time></trkpt><trkpt lat="46.316522" lon="10.3069236"><ele>819.5</ele><time>2026-04-26T15:50:16.347Z</time></trkpt><trkpt lat="46.3165281" lon="10.3067872"><ele>818.0</ele><time>2026-04-26T15:50:17.346Z</time></trkpt><trkpt lat="46.3165419" lon="10.3066636"><ele>816.5000000000001</ele><time>2026-04-26T15:50:18.349Z</time></trkpt><trkpt lat="46.3165649" lon="10.3065613"><ele>815.0</ele><time>2026-04-26T15:50:19.345Z</time></trkpt><trkpt lat="46.3165881" lon="10.306466"><ele>813.5000000000001</ele><time>2026-04-26T15:50:20.345Z</time></trkpt><trkpt lat="46.3166292" lon="10.3063832"><ele>812.0</ele><time>2026-04-26T15:50:21.343Z</time></trkpt><trkpt lat="46.3167416" lon="10.3063059"><ele>810.5</ele><time>2026-04-26T15:50:23.345Z</time></trkpt><trkpt lat="46.316817" lon="10.3062968"><ele>809.0</ele><time>2026-04-26T15:50:24.347Z</time></trkpt><trkpt lat="46.3169006" lon="10.3062875"><ele>807.5000000000001</ele><time>2026-04-26T15:50:25.352Z</time></trkpt><trkpt lat="46.3169862" lon="10.3062878"><ele>806.0</ele><time>2026-04-26T15:50:26.352Z</time></trkpt><trkpt lat="46.3170603" lon="10.3063099"><ele>806.0000000000001</ele><time>2026-04-26T15:50:27.357Z</time></trkpt><trkpt lat="46.3171224" lon="10.3063547"><ele>806.0</ele><time>2026-04-26T15:50:28.35Z</time></trkpt><trkpt lat="46.317225" lon="10.306358"><ele>806.0</ele><time>2026-04-26T15:50:30.347Z</time></trkpt><trkpt lat="46.3173109" lon="10.3062324"><ele>806.0</ele><time>2026-04-26T15:50:32.349Z</time></trkpt><trkpt lat="46.3173557" lon="10.3061443"><ele>806.0000000000001</ele><time>2026-04-26T15:50:33.354Z</time></trkpt><trkpt lat="46.3173999" lon="10.306076"><ele>806.0</ele><time>2026-04-26T15:50:34.358Z</time></trkpt><trkpt lat="46.3174921" lon="10.3059357"><ele>806.1666666666667</ele><time>2026-04-26T15:50:36.351Z</time></trkpt><trkpt lat="46.3175466" lon="10.305858"><ele>806.3333333333334</ele><time>2026-04-26T15:50:37.346Z</time></trkpt><trkpt lat="46.3175877" lon="10.3057711"><ele>806.5</ele><time>2026-04-26T15:50:38.349Z</time></trkpt><trkpt lat="46.3176191" lon="10.3056804"><ele>806.6666666666667</ele><time>2026-04-26T15:50:39.349Z</time></trkpt><trkpt lat="46.3176762" lon="10.3055558"><ele>806.8333333333334</ele><time>2026-04-26T15:50:41.346Z</time></trkpt><trkpt lat="46.3177193" lon="10.3054171"><ele>807.0</ele><time>2026-04-26T15:52:34.351Z</time></trkpt><trkpt lat="46.317655" lon="10.3053192"><ele>807.0</ele><time>2026-04-26T15:52:37.35Z</time></trkpt><trkpt lat="46.3176" lon="10.30527"><ele>807.0</ele><time>2026-04-26T15:52:38.343Z</time></trkpt><trkpt lat="46.3175522" lon="10.3052008"><ele>807.0</ele><time>2026-04-26T15:52:39.346Z</time></trkpt><trkpt lat="46.3175028" lon="10.3051152"><ele>807.0</ele><time>2026-04-26T15:52:40.348Z</time></trkpt><trkpt lat="46.3174463" lon="10.3050172"><ele>807.0</ele><time>2026-04-26T15:52:41.352Z</time></trkpt><trkpt lat="46.3173914" lon="10.3049202"><ele>807.0</ele><time>2026-04-26T15:52:42.345Z</time></trkpt><trkpt lat="46.317331" lon="10.3048316"><ele>805.6666666666666</ele><time>2026-04-26T15:52:43.349Z</time></trkpt><trkpt lat="46.3172788" lon="10.3047423"><ele>804.3333333333333</ele><time>2026-04-26T15:52:44.35Z</time></trkpt><trkpt lat="46.3172315" lon="10.3046619"><ele>803.0</ele><time>2026-04-26T15:52:45.351Z</time></trkpt><trkpt lat="46.3171849" lon="10.3045937"><ele>801.6666666666666</ele><time>2026-04-26T15:52:46.347Z</time></trkpt><trkpt lat="46.3171155" lon="10.3044798"><ele>800.3333333333333</ele><time>2026-04-26T15:52:48.351Z</time></trkpt><trkpt lat="46.3170581" lon="10.3043758"><ele>799.0</ele><time>2026-04-26T15:52:50.345Z</time></trkpt><trkpt lat="46.3169748" lon="10.3042146"><ele>798.8571428571429</ele><time>2026-04-26T15:52:52.358Z</time></trkpt><trkpt lat="46.3169239" lon="10.3041141"><ele>798.7142857142857</ele><time>2026-04-26T15:52:53.345Z</time></trkpt><trkpt lat="46.3168861" lon="10.3040147"><ele>798.5714285714286</ele><time>2026-04-26T15:52:54.359Z</time></trkpt><trkpt lat="46.3168676" lon="10.3039127"><ele>798.4285714285714</ele><time>2026-04-26T15:52:55.349Z</time></trkpt><trkpt lat="46.3168705" lon="10.3038064"><ele>798.2857142857142</ele><time>2026-04-26T15:52:56.344Z</time></trkpt><trkpt lat="46.3168789" lon="10.3037138"><ele>798.1428571428571</ele><time>2026-04-26T15:52:57.345Z</time></trkpt><trkpt lat="46.3168789" lon="10.3036225"><ele>798.0</ele><time>2026-04-26T15:52:58.346Z</time></trkpt><trkpt lat="46.3168715" lon="10.3034822"><ele>796.8</ele><time>2026-04-26T15:53:00.347Z</time></trkpt><trkpt lat="46.3168766" lon="10.303383"><ele>795.5999999999999</ele><time>2026-04-26T15:53:06.344Z</time></trkpt><trkpt lat="46.3168043" lon="10.3032395"><ele>794.4000000000001</ele><time>2026-04-26T15:53:08.356Z</time></trkpt><trkpt lat="46.3167315" lon="10.303158"><ele>793.2</ele><time>2026-04-26T15:53:09.354Z</time></trkpt><trkpt lat="46.3166457" lon="10.3030605"><ele>792.0</ele><time>2026-04-26T15:53:10.347Z</time></trkpt><trkpt lat="46.3165431" lon="10.3029628"><ele>790.25</ele><time>2026-04-26T15:53:11.348Z</time></trkpt><trkpt lat="46.3164335" lon="10.3028488"><ele>788.5</ele><time>2026-04-26T15:53:12.349Z</time></trkpt><trkpt lat="46.3163218" lon="10.3027238"><ele>786.75</ele><time>2026-04-26T15:53:13.347Z</time></trkpt><trkpt lat="46.3162066" lon="10.302595"><ele>785.0</ele><time>2026-04-26T15:53:14.346Z</time></trkpt><trkpt lat="46.3160914" lon="10.3024645"><ele>785.0</ele><time>2026-04-26T15:53:15.346Z</time></trkpt><trkpt lat="46.3159738" lon="10.3023344"><ele>785.0</ele><time>2026-04-26T15:53:16.349Z</time></trkpt><trkpt lat="46.3158492" lon="10.3022034"><ele>785.0</ele><time>2026-04-26T15:53:17.349Z</time></trkpt><trkpt lat="46.3157269" lon="10.3020741"><ele>783.0</ele><time>2026-04-26T15:53:18.351Z</time></trkpt><trkpt lat="46.3156033" lon="10.3019349"><ele>781.0</ele><time>2026-04-26T15:53:19.348Z</time></trkpt><trkpt lat="46.3154868" lon="10.3018022"><ele>779.0</ele><time>2026-04-26T15:53:20.348Z</time></trkpt><trkpt lat="46.3153735" lon="10.3016785"><ele>777.0</ele><time>2026-04-26T15:53:21.346Z</time></trkpt><trkpt lat="46.3152652" lon="10.3015614"><ele>777.0</ele><time>2026-04-26T15:53:22.345Z</time></trkpt><trkpt lat="46.3151554" lon="10.3014411"><ele>777.0</ele><time>2026-04-26T15:53:23.349Z</time></trkpt><trkpt lat="46.3150468" lon="10.30132"><ele>777.0</ele><time>2026-04-26T15:53:24.346Z</time></trkpt><trkpt lat="46.3149336" lon="10.3012021"><ele>777.0</ele><time>2026-04-26T15:53:25.349Z</time></trkpt><trkpt lat="46.3148167" lon="10.3010822"><ele>775.0</ele><time>2026-04-26T15:53:26.35Z</time></trkpt><trkpt lat="46.3146997" lon="10.3009649"><ele>773.0</ele><time>2026-04-26T15:53:27.349Z</time></trkpt><trkpt lat="46.3145761" lon="10.3008653"><ele>771.0</ele><time>2026-04-26T15:53:28.346Z</time></trkpt><trkpt lat="46.3144457" lon="10.3007961"><ele>769.0</ele><time>2026-04-26T15:53:29.346Z</time></trkpt><trkpt lat="46.3143068" lon="10.3007493"><ele>769.0</ele><time>2026-04-26T15:53:30.344Z</time></trkpt><trkpt lat="46.3141661" lon="10.3007115"><ele>769.0</ele><time>2026-04-26T15:53:31.344Z</time></trkpt><trkpt lat="46.3140234" lon="10.3006755"><ele>769.0</ele><time>2026-04-26T15:53:32.348Z</time></trkpt><trkpt lat="46.3138807" lon="10.3006423"><ele>769.0</ele><time>2026-04-26T15:53:33.346Z</time></trkpt><trkpt lat="46.3137365" lon="10.300605"><ele>766.5</ele><time>2026-04-26T15:53:34.345Z</time></trkpt><trkpt lat="46.3135914" lon="10.3005744"><ele>764.0</ele><time>2026-04-26T15:53:35.346Z</time></trkpt><trkpt lat="46.3134497" lon="10.3005413"><ele>761.5</ele><time>2026-04-26T15:53:36.435Z</time></trkpt><trkpt lat="46.3133043" lon="10.3005062"><ele>759.0</ele><time>2026-04-26T15:53:37.346Z</time></trkpt><trkpt lat="46.3131704" lon="10.3004545"><ele>759.25</ele><time>2026-04-26T15:53:38.346Z</time></trkpt><trkpt lat="46.3130531" lon="10.3003679"><ele>759.5</ele><time>2026-04-26T15:53:39.349Z</time></trkpt><trkpt lat="46.3129516" lon="10.3002536"><ele>759.75</ele><time>2026-04-26T15:53:40.347Z</time></trkpt><trkpt lat="46.3128582" lon="10.3001093"><ele>760.0</ele><time>2026-04-26T15:53:41.347Z</time></trkpt><trkpt lat="46.3127655" lon="10.2999385"><ele>760.0</ele><time>2026-04-26T15:53:42.35Z</time></trkpt><trkpt lat="46.3126715" lon="10.2997613"><ele>760.0</ele><time>2026-04-26T15:53:43.348Z</time></trkpt><trkpt lat="46.3125687" lon="10.2995926"><ele>760.0</ele><time>2026-04-26T15:53:44.345Z</time></trkpt><trkpt lat="46.3124569" lon="10.2994416"><ele>758.0</ele><time>2026-04-26T15:53:45.35Z</time></trkpt><trkpt lat="46.3123291" lon="10.2993088"><ele>756.0</ele><time>2026-04-26T15:53:46.348Z</time></trkpt><trkpt lat="46.3121901" lon="10.2991888"><ele>754.0</ele><time>2026-04-26T15:53:47.352Z</time></trkpt><trkpt lat="46.312047" lon="10.2990781"><ele>754.0</ele><time>2026-04-26T15:53:48.346Z</time></trkpt><trkpt lat="46.3118948" lon="10.2989757"><ele>754.0</ele><time>2026-04-26T15:53:49.349Z</time></trkpt><trkpt lat="46.3117457" lon="10.2988717"><ele>754.0</ele><time>2026-04-26T15:53:50.349Z</time></trkpt><trkpt lat="46.3115948" lon="10.2987733"><ele>751.0</ele><time>2026-04-26T15:53:51.353Z</time></trkpt><trkpt lat="46.3114468" lon="10.2986726"><ele>748.0</ele><time>2026-04-26T15:53:52.348Z</time></trkpt><trkpt lat="46.3112967" lon="10.2985657"><ele>745.0</ele><time>2026-04-26T15:53:53.346Z</time></trkpt><trkpt lat="46.3111537" lon="10.2984623"><ele>745.0</ele><time>2026-04-26T15:53:54.346Z</time></trkpt><trkpt lat="46.3110178" lon="10.2983571"><ele>745.0</ele><time>2026-04-26T15:53:55.343Z</time></trkpt><trkpt lat="46.310879" lon="10.2982417"><ele>745.0</ele><time>2026-04-26T15:53:56.348Z</time></trkpt><trkpt lat="46.3107473" lon="10.2981041"><ele>743.0</ele><time>2026-04-26T15:53:57.349Z</time></trkpt><trkpt lat="46.3106138" lon="10.2979514"><ele>741.0</ele><time>2026-04-26T15:53:58.346Z</time></trkpt><trkpt lat="46.3104807" lon="10.2977938"><ele>739.0</ele><time>2026-04-26T15:53:59.345Z</time></trkpt><trkpt lat="46.3103467" lon="10.2976305"><ele>739.0</ele><time>2026-04-26T15:54:00.354Z</time></trkpt><trkpt lat="46.3102043" lon="10.29747"><ele>739.0</ele><time>2026-04-26T15:54:01.342Z</time></trkpt><trkpt lat="46.3100619" lon="10.2973067"><ele>739.0</ele><time>2026-04-26T15:54:02.349Z</time></trkpt><trkpt lat="46.309923" lon="10.2971341"><ele>737.3333333333334</ele><time>2026-04-26T15:54:03.344Z</time></trkpt><trkpt lat="46.3097762" lon="10.2969713"><ele>735.6666666666666</ele><time>2026-04-26T15:54:04.343Z</time></trkpt><trkpt lat="46.3096326" lon="10.2968026"><ele>734.0</ele><time>2026-04-26T15:54:05.347Z</time></trkpt><trkpt lat="46.3094894" lon="10.2966302"><ele>733.3333333333333</ele><time>2026-04-26T15:54:06.348Z</time></trkpt><trkpt lat="46.3093451" lon="10.2964636"><ele>732.6666666666666</ele><time>2026-04-26T15:54:07.352Z</time></trkpt><trkpt lat="46.3092016" lon="10.296296"><ele>732.0</ele><time>2026-04-26T15:54:08.345Z</time></trkpt><trkpt lat="46.3090534" lon="10.2961302"><ele>730.6666666666666</ele><time>2026-04-26T15:54:09.349Z</time></trkpt><trkpt lat="46.3089083" lon="10.2959614"><ele>729.3333333333333</ele><time>2026-04-26T15:54:10.349Z</time></trkpt><trkpt lat="46.3087638" lon="10.2957934"><ele>728.0</ele><time>2026-04-26T15:54:11.351Z</time></trkpt><trkpt lat="46.3086226" lon="10.2956254"><ele>726.3333333333333</ele><time>2026-04-26T15:54:12.346Z</time></trkpt><trkpt lat="46.3084797" lon="10.2954612"><ele>724.6666666666666</ele><time>2026-04-26T15:54:13.345Z</time></trkpt><trkpt lat="46.3083329" lon="10.2953001"><ele>723.0</ele><time>2026-04-26T15:54:14.348Z</time></trkpt><trkpt lat="46.3081893" lon="10.2951384"><ele>722.6666666666666</ele><time>2026-04-26T15:54:15.348Z</time></trkpt><trkpt lat="46.3080505" lon="10.2949792"><ele>722.3333333333333</ele><time>2026-04-26T15:54:16.346Z</time></trkpt><trkpt lat="46.3079123" lon="10.2948161"><ele>722.0</ele><time>2026-04-26T15:54:17.348Z</time></trkpt><trkpt lat="46.3077744" lon="10.2946522"><ele>720.0</ele><time>2026-04-26T15:54:18.354Z</time></trkpt><trkpt lat="46.307635" lon="10.2944905"><ele>718.0</ele><time>2026-04-26T15:54:19.349Z</time></trkpt><trkpt lat="46.3075018" lon="10.2943292"><ele>716.0</ele><time>2026-04-26T15:54:20.348Z</time></trkpt><trkpt lat="46.3073626" lon="10.2941729"><ele>715.3333333333333</ele><time>2026-04-26T15:54:21.352Z</time></trkpt><trkpt lat="46.3072207" lon="10.2940166"><ele>714.6666666666666</ele><time>2026-04-26T15:54:22.355Z</time></trkpt><trkpt lat="46.3070832" lon="10.2938518"><ele>714.0</ele><time>2026-04-26T15:54:23.345Z</time></trkpt><trkpt lat="46.3069501" lon="10.2936834"><ele>714.0</ele><time>2026-04-26T15:54:24.352Z</time></trkpt><trkpt lat="46.3068138" lon="10.2935261"><ele>714.0</ele><time>2026-04-26T15:54:25.352Z</time></trkpt><trkpt lat="46.3066819" lon="10.2933679"><ele>714.0</ele><time>2026-04-26T15:54:26.353Z</time></trkpt><trkpt lat="46.3065456" lon="10.2932112"><ele>712.3333333333334</ele><time>2026-04-26T15:54:27.345Z</time></trkpt><trkpt lat="46.3064081" lon="10.2930562"><ele>710.6666666666667</ele><time>2026-04-26T15:54:28.343Z</time></trkpt><trkpt lat="46.3062694" lon="10.2928982"><ele>709.0</ele><time>2026-04-26T15:54:29.343Z</time></trkpt><trkpt lat="46.3061328" lon="10.2927404"><ele>709.0</ele><time>2026-04-26T15:54:30.351Z</time></trkpt><trkpt lat="46.3059909" lon="10.2925878"><ele>709.0</ele><time>2026-04-26T15:54:31.344Z</time></trkpt><trkpt lat="46.3058439" lon="10.2924426"><ele>709.0</ele><time>2026-04-26T15:54:32.347Z</time></trkpt><trkpt lat="46.3056947" lon="10.2923035"><ele>706.6666666666667</ele><time>2026-04-26T15:54:33.344Z</time></trkpt><trkpt lat="46.3055464" lon="10.2921793"><ele>704.3333333333334</ele><time>2026-04-26T15:54:34.351Z</time></trkpt><trkpt lat="46.3053923" lon="10.2920577"><ele>702.0</ele><time>2026-04-26T15:54:35.353Z</time></trkpt><trkpt lat="46.3052409" lon="10.2919435"><ele>702.0</ele><time>2026-04-26T15:54:36.346Z</time></trkpt><trkpt lat="46.3050788" lon="10.2918152"><ele>702.0</ele><time>2026-04-26T15:54:37.35Z</time></trkpt><trkpt lat="46.3049359" lon="10.2916929"><ele>702.0</ele><time>2026-04-26T15:54:38.348Z</time></trkpt><trkpt lat="46.3047921" lon="10.2915737"><ele>702.6666666666666</ele><time>2026-04-26T15:54:39.347Z</time></trkpt><trkpt lat="46.3046592" lon="10.2914516"><ele>703.3333333333333</ele><time>2026-04-26T15:54:40.346Z</time></trkpt><trkpt lat="46.304533" lon="10.2913273"><ele>704.0</ele><time>2026-04-26T15:54:41.348Z</time></trkpt><trkpt lat="46.3044123" lon="10.2912012"><ele>702.5</ele><time>2026-04-26T15:54:42.345Z</time></trkpt><trkpt lat="46.3043065" lon="10.2910689"><ele>701.0</ele><time>2026-04-26T15:54:43.347Z</time></trkpt><trkpt lat="46.3042089" lon="10.2909202"><ele>699.5</ele><time>2026-04-26T15:54:44.346Z</time></trkpt><trkpt lat="46.3041211" lon="10.2907652"><ele>698.0</ele><time>2026-04-26T15:54:45.347Z</time></trkpt><trkpt lat="46.3040414" lon="10.2906064"><ele>697.0</ele><time>2026-04-26T15:54:46.347Z</time></trkpt><trkpt lat="46.3039708" lon="10.2904412"><ele>696.0</ele><time>2026-04-26T15:54:47.352Z</time></trkpt><trkpt lat="46.3039068" lon="10.2902856"><ele>695.0</ele><time>2026-04-26T15:54:48.352Z</time></trkpt><trkpt lat="46.3038549" lon="10.2901343"><ele>694.0</ele><time>2026-04-26T15:54:49.346Z</time></trkpt><trkpt lat="46.3038172" lon="10.2899859"><ele>694.0</ele><time>2026-04-26T15:54:50.348Z</time></trkpt><trkpt lat="46.3038016" lon="10.2898523"><ele>694.0</ele><time>2026-04-26T15:54:51.345Z</time></trkpt><trkpt lat="46.3038107" lon="10.2897297"><ele>694.0</ele><time>2026-04-26T15:54:52.347Z</time></trkpt><trkpt lat="46.3038425" lon="10.2896033"><ele>694.0</ele><time>2026-04-26T15:54:53.343Z</time></trkpt><trkpt lat="46.3038748" lon="10.2894721"><ele>694.0</ele><time>2026-04-26T15:54:54.344Z</time></trkpt><trkpt lat="46.3039078" lon="10.2893468"><ele>693.1666666666667</ele><time>2026-04-26T15:54:55.351Z</time></trkpt><trkpt lat="46.3039401" lon="10.2892373"><ele>692.3333333333334</ele><time>2026-04-26T15:54:56.349Z</time></trkpt><trkpt lat="46.3039792" lon="10.2891446"><ele>691.5</ele><time>2026-04-26T15:54:57.347Z</time></trkpt><trkpt lat="46.3040415" lon="10.2890654"><ele>690.6666666666666</ele><time>2026-04-26T15:54:58.348Z</time></trkpt><trkpt lat="46.3041037" lon="10.2889777"><ele>689.8333333333333</ele><time>2026-04-26T15:54:59.348Z</time></trkpt><trkpt lat="46.3041745" lon="10.2888738"><ele>689.0</ele><time>2026-04-26T15:55:00.347Z</time></trkpt><trkpt lat="46.3042422" lon="10.2887453"><ele>687.8000000000001</ele><time>2026-04-26T15:55:01.346Z</time></trkpt><trkpt lat="46.3043128" lon="10.2886297"><ele>686.6</ele><time>2026-04-26T15:55:02.35Z</time></trkpt><trkpt lat="46.3043671" lon="10.288534"><ele>685.4</ele><time>2026-04-26T15:55:03.347Z</time></trkpt><trkpt lat="46.3044131" lon="10.2884647"><ele>684.2</ele><time>2026-04-26T15:55:04.35Z</time></trkpt><trkpt lat="46.3044973" lon="10.288351"><ele>683.0</ele><time>2026-04-26T15:55:06.351Z</time></trkpt><trkpt lat="46.3045683" lon="10.2882844"><ele>683.0</ele><time>2026-04-26T15:55:08.35Z</time></trkpt><trkpt lat="46.3046448" lon="10.2882"><ele>683.0</ele><time>2026-04-26T15:55:10.363Z</time></trkpt><trkpt lat="46.304704" lon="10.2881137"><ele>683.0</ele><time>2026-04-26T15:55:13.344Z</time></trkpt><trkpt lat="46.3047768" lon="10.2881304"><ele>683.0</ele><time>2026-04-26T15:55:15.352Z</time></trkpt><trkpt lat="46.3048953" lon="10.2882124"><ele>683.0</ele><time>2026-04-26T15:55:17.354Z</time></trkpt><trkpt lat="46.3049705" lon="10.2882614"><ele>684.0</ele><time>2026-04-26T15:55:18.352Z</time></trkpt><trkpt lat="46.3050527" lon="10.2883178"><ele>685.0</ele><time>2026-04-26T15:55:19.35Z</time></trkpt><trkpt lat="46.3051379" lon="10.2883759"><ele>686.0</ele><time>2026-04-26T15:55:20.343Z</time></trkpt><trkpt lat="46.305226" lon="10.2884352"><ele>687.0</ele><time>2026-04-26T15:55:21.353Z</time></trkpt><trkpt lat="46.3053168" lon="10.2884908"><ele>688.0</ele><time>2026-04-26T15:55:22.345Z</time></trkpt><trkpt lat="46.3054066" lon="10.2885506"><ele>688.0</ele><time>2026-04-26T15:55:23.352Z</time></trkpt><trkpt lat="46.3054893" lon="10.288617"><ele>688.0</ele><time>2026-04-26T15:55:24.352Z</time></trkpt><trkpt lat="46.3055715" lon="10.2886897"><ele>688.0</ele><time>2026-04-26T15:55:25.347Z</time></trkpt><trkpt lat="46.3056509" lon="10.2887658"><ele>688.0</ele><time>2026-04-26T15:55:26.35Z</time></trkpt><trkpt lat="46.3058181" lon="10.2888954"><ele>689.0</ele><time>2026-04-26T15:55:28.346Z</time></trkpt><trkpt lat="46.3059016" lon="10.2889562"><ele>690.0</ele><time>2026-04-26T15:55:29.346Z</time></trkpt><trkpt lat="46.3060697" lon="10.2890253"><ele>691.0</ele><time>2026-04-26T15:55:31.343Z</time></trkpt><trkpt lat="46.3061532" lon="10.2890557"><ele>692.0</ele><time>2026-04-26T15:55:32.346Z</time></trkpt><trkpt lat="46.3062338" lon="10.2891116"><ele>693.0</ele><time>2026-04-26T15:55:33.344Z</time></trkpt><trkpt lat="46.3063247" lon="10.2891875"><ele>696.0</ele><time>2026-04-26T15:55:34.345Z</time></trkpt><trkpt lat="46.3064178" lon="10.2892663"><ele>699.0</ele><time>2026-04-26T15:55:35.343Z</time></trkpt><trkpt lat="46.3066179" lon="10.2894336"><ele>702.0</ele><time>2026-04-26T15:55:37.35Z</time></trkpt><trkpt lat="46.3067272" lon="10.2895038"><ele>702.0</ele><time>2026-04-26T15:55:38.347Z</time></trkpt><trkpt lat="46.3068278" lon="10.2895784"><ele>702.0</ele><time>2026-04-26T15:55:39.347Z</time></trkpt><trkpt lat="46.3069393" lon="10.2896534"><ele>702.0</ele><time>2026-04-26T15:55:40.347Z</time></trkpt><trkpt lat="46.3070486" lon="10.289724"><ele>702.0</ele><time>2026-04-26T15:55:41.344Z</time></trkpt><trkpt lat="46.3071572" lon="10.2897936"><ele>703.25</ele><time>2026-04-26T15:55:42.349Z</time></trkpt><trkpt lat="46.3072649" lon="10.2898652"><ele>704.5</ele><time>2026-04-26T15:55:43.346Z</time></trkpt><trkpt lat="46.307372" lon="10.2899386"><ele>705.75</ele><time>2026-04-26T15:55:44.351Z</time></trkpt><trkpt lat="46.3074791" lon="10.2900164"><ele>707.0</ele><time>2026-04-26T15:55:45.345Z</time></trkpt><trkpt lat="46.3075845" lon="10.2900865"><ele>707.0</ele><time>2026-04-26T15:55:46.357Z</time></trkpt><trkpt lat="46.3076903" lon="10.2901646"><ele>707.0</ele><time>2026-04-26T15:55:47.348Z</time></trkpt><trkpt lat="46.3077996" lon="10.2902387"><ele>707.0</ele><time>2026-04-26T15:55:48.346Z</time></trkpt><trkpt lat="46.3079084" lon="10.2903079"><ele>707.0</ele><time>2026-04-26T15:55:49.35Z</time></trkpt><trkpt lat="46.3080089" lon="10.2903756"><ele>707.3333333333333</ele><time>2026-04-26T15:55:50.344Z</time></trkpt><trkpt lat="46.3081058" lon="10.2904378"><ele>707.6666666666666</ele><time>2026-04-26T15:55:51.351Z</time></trkpt><trkpt lat="46.3081775" lon="10.2904823"><ele>708.0</ele><time>2026-04-26T15:55:52.344Z</time></trkpt><trkpt lat="46.3082374" lon="10.2905197"><ele>708.3333333333334</ele><time>2026-04-26T15:55:53.344Z</time></trkpt><trkpt lat="46.3083391" lon="10.2905843"><ele>708.6666666666667</ele><time>2026-04-26T15:55:55.35Z</time></trkpt><trkpt lat="46.3083882" lon="10.2906489"><ele>709.0</ele><time>2026-04-26T15:55:56.351Z</time></trkpt><trkpt lat="46.3084512" lon="10.2907197"><ele>709.0</ele><time>2026-04-26T15:55:57.349Z</time></trkpt><trkpt lat="46.3085208" lon="10.2908039"><ele>709.0</ele><time>2026-04-26T15:55:58.347Z</time></trkpt><trkpt lat="46.3086087" lon="10.2908909"><ele>709.0</ele><time>2026-04-26T15:55:59.351Z</time></trkpt><trkpt lat="46.3086977" lon="10.2909741"><ele>709.0</ele><time>2026-04-26T15:56:00.355Z</time></trkpt><trkpt lat="46.3087918" lon="10.2910563"><ele>709.0</ele><time>2026-04-26T15:56:01.35Z</time></trkpt><trkpt lat="46.3088955" lon="10.2911381"><ele>709.5</ele><time>2026-04-26T15:56:02.35Z</time></trkpt><trkpt lat="46.3089995" lon="10.2912262"><ele>710.0</ele><time>2026-04-26T15:56:03.35Z</time></trkpt><trkpt lat="46.3091051" lon="10.291312"><ele>710.5</ele><time>2026-04-26T15:56:04.344Z</time></trkpt><trkpt lat="46.3092086" lon="10.2913964"><ele>711.0</ele><time>2026-04-26T15:56:05.346Z</time></trkpt><trkpt lat="46.3093186" lon="10.2914785"><ele>711.0</ele><time>2026-04-26T15:56:06.344Z</time></trkpt><trkpt lat="46.3094252" lon="10.2915545"><ele>711.0</ele><time>2026-04-26T15:56:07.35Z</time></trkpt><trkpt lat="46.3095252" lon="10.2916255"><ele>711.0</ele><time>2026-04-26T15:56:08.346Z</time></trkpt><trkpt lat="46.3096104" lon="10.2916984"><ele>711.0</ele><time>2026-04-26T15:56:09.348Z</time></trkpt><trkpt lat="46.309676" lon="10.2917787"><ele>711.0</ele><time>2026-04-26T15:56:10.346Z</time></trkpt><trkpt lat="46.3097232" lon="10.2918651"><ele>713.8</ele><time>2026-04-26T15:56:11.35Z</time></trkpt><trkpt lat="46.3097665" lon="10.2919557"><ele>716.5999999999999</ele><time>2026-04-26T15:56:12.343Z</time></trkpt><trkpt lat="46.309816" lon="10.2920453"><ele>719.4</ele><time>2026-04-26T15:56:13.353Z</time></trkpt><trkpt lat="46.3098884" lon="10.2921264"><ele>722.2</ele><time>2026-04-26T15:56:14.346Z</time></trkpt><trkpt lat="46.309974" lon="10.2922079"><ele>725.0</ele><time>2026-04-26T15:56:15.351Z</time></trkpt><trkpt lat="46.3100755" lon="10.2922859"><ele>725.0</ele><time>2026-04-26T15:56:16.351Z</time></trkpt><trkpt lat="46.3101727" lon="10.2923678"><ele>725.0</ele><time>2026-04-26T15:56:17.346Z</time></trkpt><trkpt lat="46.3102683" lon="10.2924425"><ele>725.0</ele><time>2026-04-26T15:56:18.348Z</time></trkpt><trkpt lat="46.310354" lon="10.2925157"><ele>725.0</ele><time>2026-04-26T15:56:19.345Z</time></trkpt><trkpt lat="46.3104356" lon="10.2925793"><ele>725.0</ele><time>2026-04-26T15:56:20.349Z</time></trkpt><trkpt lat="46.3104951" lon="10.2926282"><ele>728.2</ele><time>2026-04-26T15:56:21.346Z</time></trkpt><trkpt lat="46.3105821" lon="10.2926811"><ele>731.4</ele><time>2026-04-26T15:56:23.348Z</time></trkpt><trkpt lat="46.3106938" lon="10.2927281"><ele>734.5999999999999</ele><time>2026-04-26T15:56:25.353Z</time></trkpt><trkpt lat="46.3107652" lon="10.292771"><ele>737.8</ele><time>2026-04-26T15:56:26.346Z</time></trkpt><trkpt lat="46.3108558" lon="10.2928133"><ele>741.0</ele><time>2026-04-26T15:56:27.35Z</time></trkpt><trkpt lat="46.3109467" lon="10.2928423"><ele>741.0</ele><time>2026-04-26T15:56:28.351Z</time></trkpt><trkpt lat="46.3110412" lon="10.2928696"><ele>741.0</ele><time>2026-04-26T15:56:29.346Z</time></trkpt><trkpt lat="46.3111307" lon="10.292896"><ele>741.0</ele><time>2026-04-26T15:56:30.351Z</time></trkpt><trkpt lat="46.3112039" lon="10.292925"><ele>741.0</ele><time>2026-04-26T15:56:31.348Z</time></trkpt><trkpt lat="46.3113117" lon="10.2929259"><ele>741.0</ele><time>2026-04-26T15:56:33.347Z</time></trkpt><trkpt lat="46.3113962" lon="10.2928247"><ele>743.0</ele><time>2026-04-26T15:56:35.349Z</time></trkpt><trkpt lat="46.3114782" lon="10.292686"><ele>745.0</ele><time>2026-04-26T15:56:37.344Z</time></trkpt><trkpt lat="46.3115311" lon="10.2925917"><ele>747.0</ele><time>2026-04-26T15:56:39.343Z</time></trkpt><trkpt lat="46.3115975" lon="10.2925688"><ele>749.0</ele><time>2026-04-26T15:56:41.344Z</time></trkpt><trkpt lat="46.3116955" lon="10.2926174"><ele>751.0</ele><time>2026-04-26T15:56:43.351Z</time></trkpt><trkpt lat="46.3117598" lon="10.2926298"><ele>753.0</ele><time>2026-04-26T15:56:44.353Z</time></trkpt><trkpt lat="46.3118521" lon="10.2926804"><ele>753.0</ele><time>2026-04-26T15:56:46.354Z</time></trkpt><trkpt lat="46.311919" lon="10.2927628"><ele>753.0</ele><time>2026-04-26T15:56:48.348Z</time></trkpt><trkpt lat="46.3119695" lon="10.2928927"><ele>753.0</ele><time>2026-04-26T15:56:50.351Z</time></trkpt><trkpt lat="46.3119993" lon="10.2930515"><ele>753.0</ele><time>2026-04-26T15:56:52.351Z</time></trkpt><trkpt lat="46.3120626" lon="10.2931571"><ele>753.0</ele><time>2026-04-26T15:56:54.348Z</time></trkpt><trkpt lat="46.3121542" lon="10.2932047"><ele>754.2</ele><time>2026-04-26T15:56:56.35Z</time></trkpt><trkpt lat="46.3122536" lon="10.2931739"><ele>755.4</ele><time>2026-04-26T15:56:58.354Z</time></trkpt><trkpt lat="46.3123795" lon="10.2932615"><ele>756.6</ele><time>2026-04-26T15:57:00.348Z</time></trkpt><trkpt lat="46.3124477" lon="10.2933436"><ele>757.8000000000001</ele><time>2026-04-26T15:57:01.346Z</time></trkpt><trkpt lat="46.3124921" lon="10.2934366"><ele>759.0</ele><time>2026-04-26T15:57:02.343Z</time></trkpt><trkpt lat="46.3125069" lon="10.2935343"><ele>759.0</ele><time>2026-04-26T15:57:03.346Z</time></trkpt><trkpt lat="46.3125527" lon="10.2936908"><ele>759.0</ele><time>2026-04-26T15:57:05.351Z</time></trkpt><trkpt lat="46.3125752" lon="10.2937773"><ele>759.0</ele><time>2026-04-26T15:57:06.345Z</time></trkpt><trkpt lat="46.3125966" lon="10.2938673"><ele>759.0</ele><time>2026-04-26T15:57:07.347Z</time></trkpt><trkpt lat="46.3126687" lon="10.293999"><ele>759.0</ele><time>2026-04-26T15:57:09.341Z</time></trkpt><trkpt lat="46.3126924" lon="10.294089"><ele>759.0</ele><time>2026-04-26T15:57:10.344Z</time></trkpt><trkpt lat="46.3126957" lon="10.2942306"><ele>757.0</ele><time>2026-04-26T15:57:12.345Z</time></trkpt><trkpt lat="46.3126488" lon="10.2943285"><ele>755.0</ele><time>2026-04-26T15:57:14.356Z</time></trkpt><trkpt lat="46.3125853" lon="10.2943952"><ele>753.0</ele><time>2026-04-26T15:57:16.347Z</time></trkpt><trkpt lat="46.3125778" lon="10.2945024"><ele>751.0</ele><time>2026-04-26T15:57:20.35Z</time></trkpt><trkpt lat="46.3125693" lon="10.2946041"><ele>749.0</ele><time>2026-04-26T15:57:22.347Z</time></trkpt><trkpt lat="46.3125299" lon="10.2946804"><ele>747.0</ele><time>2026-04-26T15:57:26.347Z</time></trkpt><trkpt lat="46.3125851" lon="10.2948171"><ele>746.9999999999999</ele><time>2026-04-26T15:57:29.348Z</time></trkpt><trkpt lat="46.3126219" lon="10.2949018"><ele>747.0</ele><time>2026-04-26T15:57:31.345Z</time></trkpt><trkpt lat="46.3126086" lon="10.2950057"><ele>747.0</ele><time>2026-04-26T15:57:39.36Z</time></trkpt><trkpt lat="46.3125506" lon="10.2950585"><ele>747.0</ele><time>2026-04-26T15:57:44.348Z</time></trkpt><trkpt lat="46.312484" lon="10.2951245"><ele>747.0</ele><time>2026-04-26T15:57:46.348Z</time></trkpt><trkpt lat="46.3124452" lon="10.2952171"><ele>746.9999999999999</ele><time>2026-04-26T15:57:48.349Z</time></trkpt><trkpt lat="46.3124332" lon="10.2953331"><ele>747.0</ele><time>2026-04-26T15:57:51.348Z</time></trkpt><trkpt lat="46.3124309" lon="10.295448"><ele>746.9999999999999</ele><time>2026-04-26T15:57:54.35Z</time></trkpt><trkpt lat="46.3124125" lon="10.2955704"><ele>747.0</ele><time>2026-04-26T15:57:57.346Z</time></trkpt><trkpt lat="46.3123893" lon="10.2956623"><ele>747.0</ele><time>2026-04-26T15:58:03.346Z</time></trkpt><trkpt lat="46.3124132" lon="10.295767"><ele>747.0</ele><time>2026-04-26T15:58:06.349Z</time></trkpt><trkpt lat="46.3124589" lon="10.2958389"><ele>747.0</ele><time>2026-04-26T15:58:24.352Z</time></trkpt><trkpt lat="46.3124809" lon="10.2959272"><ele>746.9999999999999</ele><time>2026-04-26T15:58:31.35Z</time></trkpt><trkpt lat="46.3125" lon="10.2960249"><ele>747.0</ele><time>2026-04-26T15:58:38.347Z</time></trkpt><trkpt lat="46.3125601" lon="10.296109"><ele>746.6666666666666</ele><time>2026-04-26T15:58:42.343Z</time></trkpt><trkpt lat="46.3125926" lon="10.2961933"><ele>746.3333333333334</ele><time>2026-04-26T15:58:55.345Z</time></trkpt><trkpt lat="46.3126281" lon="10.2962764"><ele>746.0</ele><time>2026-04-26T15:58:59.342Z</time></trkpt><trkpt lat="46.312641" lon="10.2963705"><ele>745.6666666666667</ele><time>2026-04-26T15:59:12.346Z</time></trkpt><trkpt lat="46.3126757" lon="10.2964748"><ele>745.3333333333334</ele><time>2026-04-26T15:59:15.358Z</time></trkpt><trkpt lat="46.3126741" lon="10.296585"><ele>745.0</ele><time>2026-04-26T15:59:21.346Z</time></trkpt><trkpt lat="46.3127279" lon="10.2967348"><ele>743.0</ele><time>2026-04-26T15:59:23.346Z</time></trkpt><trkpt lat="46.3127642" lon="10.2968127"><ele>741.0</ele><time>2026-04-26T15:59:24.351Z</time></trkpt><trkpt lat="46.3128316" lon="10.296914"><ele>739.0</ele><time>2026-04-26T15:59:26.345Z</time></trkpt><trkpt lat="46.3128912" lon="10.2970177"><ele>737.0</ele><time>2026-04-26T15:59:27.341Z</time></trkpt><trkpt lat="46.312966" lon="10.297093"><ele>735.0</ele><time>2026-04-26T15:59:29.342Z</time></trkpt><trkpt lat="46.3130466" lon="10.2971284"><ele>733.0</ele><time>2026-04-26T15:59:31.347Z</time></trkpt><trkpt lat="46.3130968" lon="10.2971851"><ele>739.6666666666667</ele><time>2026-04-26T15:59:34.349Z</time></trkpt><trkpt lat="46.3132036" lon="10.2972798"><ele>746.3333333333334</ele><time>2026-04-26T15:59:37.348Z</time></trkpt><trkpt lat="46.313377" lon="10.297617"><ele>753.0</ele><time>2026-04-26T15:59:38.345Z</time></trkpt><trkpt lat="46.3134426" lon="10.2977179"><ele>753.0</ele><time>2026-04-26T15:59:40.34Z</time></trkpt><trkpt lat="46.3134912" lon="10.2978447"><ele>753.0</ele><time>2026-04-26T15:59:42.345Z</time></trkpt><trkpt lat="46.3135679" lon="10.2979429"><ele>753.0</ele><time>2026-04-26T15:59:44.345Z</time></trkpt><trkpt lat="46.3136266" lon="10.2979903"><ele>753.0</ele><time>2026-04-26T15:59:46.349Z</time></trkpt><trkpt lat="46.3137108" lon="10.2980326"><ele>753.0</ele><time>2026-04-26T15:59:49.349Z</time></trkpt><trkpt lat="46.3138652" lon="10.2981245"><ele>758.6666666666667</ele><time>2026-04-26T15:59:51.355Z</time></trkpt><trkpt lat="46.3141925" lon="10.2982781"><ele>764.3333333333334</ele><time>2026-04-26T15:59:52.35Z</time></trkpt><trkpt lat="46.3142608" lon="10.2982759"><ele>770.0</ele><time>2026-04-26T15:59:54.344Z</time></trkpt><trkpt lat="46.3142667" lon="10.2981791"><ele>773.0</ele><time>2026-04-26T15:59:56.351Z</time></trkpt><trkpt lat="46.3141929" lon="10.298081"><ele>776.0</ele><time>2026-04-26T15:59:58.353Z</time></trkpt><trkpt lat="46.3141582" lon="10.2979664"><ele>779.0</ele><time>2026-04-26T16:00:00.353Z</time></trkpt><trkpt lat="46.3141987" lon="10.2977233"><ele>782.0</ele><time>2026-04-26T16:00:02.36Z</time></trkpt><trkpt lat="46.3142148" lon="10.2976076"><ele>785.0</ele><time>2026-04-26T16:00:03.352Z</time></trkpt><trkpt lat="46.31422" lon="10.2974993"><ele>785.0</ele><time>2026-04-26T16:00:04.354Z</time></trkpt><trkpt lat="46.3142085" lon="10.2973995"><ele>785.0</ele><time>2026-04-26T16:00:05.345Z</time></trkpt><trkpt lat="46.314268" lon="10.2972731"><ele>785.0</ele><time>2026-04-26T16:00:07.349Z</time></trkpt><trkpt lat="46.314335" lon="10.2972459"><ele>785.0</ele><time>2026-04-26T16:00:08.346Z</time></trkpt><trkpt lat="46.3144517" lon="10.2973163"><ele>785.0</ele><time>2026-04-26T16:00:10.354Z</time></trkpt><trkpt lat="46.3145314" lon="10.2974397"><ele>785.0000000000001</ele><time>2026-04-26T16:00:11.355Z</time></trkpt><trkpt lat="46.3146052" lon="10.2975344"><ele>785.0</ele><time>2026-04-26T16:00:12.353Z</time></trkpt><trkpt lat="46.3146742" lon="10.2975875"><ele>785.0</ele><time>2026-04-26T16:00:14.344Z</time></trkpt><trkpt lat="46.3147323" lon="10.2975113"><ele>785.0</ele><time>2026-04-26T16:00:17.349Z</time></trkpt><trkpt lat="46.3147842" lon="10.2974576"><ele>785.0000000000001</ele><time>2026-04-26T16:00:22.343Z</time></trkpt><trkpt lat="46.31485" lon="10.297415"><ele>785.0</ele><time>2026-04-26T16:00:30.346Z</time></trkpt><trkpt lat="46.3148252" lon="10.2975016"><ele>788.8333333333334</ele><time>2026-04-26T16:01:15.349Z</time></trkpt><trkpt lat="46.3148708" lon="10.2975828"><ele>792.6666666666667</ele><time>2026-04-26T16:01:29.346Z</time></trkpt><trkpt lat="46.3149289" lon="10.297619"><ele>796.5</ele><time>2026-04-26T16:01:31.352Z</time></trkpt><trkpt lat="46.3150126" lon="10.2976532"><ele>800.3333333333333</ele><time>2026-04-26T16:01:33.352Z</time></trkpt><trkpt lat="46.3150994" lon="10.2976504"><ele>804.1666666666666</ele><time>2026-04-26T16:01:36.353Z</time></trkpt><trkpt lat="46.3151946" lon="10.2976608"><ele>808.0</ele><time>2026-04-26T16:01:39.35Z</time></trkpt><trkpt lat="46.3152627" lon="10.2976694"><ele>807.9999999999999</ele><time>2026-04-26T16:01:41.349Z</time></trkpt><trkpt lat="46.3153534" lon="10.2976719"><ele>808.0</ele><time>2026-04-26T16:01:43.352Z</time></trkpt><trkpt lat="46.3154614" lon="10.2976986"><ele>808.0</ele><time>2026-04-26T16:01:45.353Z</time></trkpt><trkpt lat="46.3155248" lon="10.2977281"><ele>808.0</ele><time>2026-04-26T16:01:46.347Z</time></trkpt><trkpt lat="46.3155908" lon="10.2977638"><ele>807.9999999999999</ele><time>2026-04-26T16:01:47.348Z</time></trkpt><trkpt lat="46.315662" lon="10.2978008"><ele>808.0</ele><time>2026-04-26T16:01:48.347Z</time></trkpt><trkpt lat="46.3157353" lon="10.2978466"><ele>807.2</ele><time>2026-04-26T16:01:49.35Z</time></trkpt><trkpt lat="46.3158084" lon="10.2979064"><ele>806.4</ele><time>2026-04-26T16:01:50.347Z</time></trkpt><trkpt lat="46.3158858" lon="10.2979789"><ele>805.6</ele><time>2026-04-26T16:01:51.354Z</time></trkpt><trkpt lat="46.3159687" lon="10.2980572"><ele>804.8000000000001</ele><time>2026-04-26T16:01:52.353Z</time></trkpt><trkpt lat="46.3160606" lon="10.2981304"><ele>804.0</ele><time>2026-04-26T16:01:53.353Z</time></trkpt><trkpt lat="46.316157" lon="10.2981884"><ele>804.0</ele><time>2026-04-26T16:01:54.351Z</time></trkpt><trkpt lat="46.3163565" lon="10.2981722"><ele>804.0</ele><time>2026-04-26T16:01:55.346Z</time></trkpt><trkpt lat="46.316478" lon="10.2981516"><ele>804.0</ele><time>2026-04-26T16:01:56.344Z</time></trkpt><trkpt lat="46.3166119" lon="10.2981865"><ele>812.2</ele><time>2026-04-26T16:01:58.348Z</time></trkpt><trkpt lat="46.3167057" lon="10.2982323"><ele>820.4000000000001</ele><time>2026-04-26T16:01:59.351Z</time></trkpt><trkpt lat="46.3167719" lon="10.2982956"><ele>828.6</ele><time>2026-04-26T16:02:00.354Z</time></trkpt><trkpt lat="46.3168292" lon="10.2983436"><ele>836.8</ele><time>2026-04-26T16:02:01.348Z</time></trkpt><trkpt lat="46.3169315" lon="10.2983761"><ele>845.0</ele><time>2026-04-26T16:02:03.35Z</time></trkpt><trkpt lat="46.3170465" lon="10.2983262"><ele>845.0000000000001</ele><time>2026-04-26T16:02:05.348Z</time></trkpt><trkpt lat="46.3171443" lon="10.2983534"><ele>845.0</ele><time>2026-04-26T16:02:07.348Z</time></trkpt><trkpt lat="46.3172294" lon="10.2983911"><ele>845.0</ele><time>2026-04-26T16:02:09.345Z</time></trkpt><trkpt lat="46.3172515" lon="10.2985103"><ele>845.0</ele><time>2026-04-26T16:02:11.35Z</time></trkpt><trkpt lat="46.3172703" lon="10.2986168"><ele>845.0000000000001</ele><time>2026-04-26T16:02:13.349Z</time></trkpt><trkpt lat="46.3173181" lon="10.2986775"><ele>845.0</ele><time>2026-04-26T16:02:16.345Z</time></trkpt><trkpt lat="46.317405" lon="10.2987372"><ele>845.8</ele><time>2026-04-26T16:02:19.35Z</time></trkpt><trkpt lat="46.3174583" lon="10.2988477"><ele>846.6</ele><time>2026-04-26T16:02:21.345Z</time></trkpt><trkpt lat="46.3175046" lon="10.2990296"><ele>847.4000000000001</ele><time>2026-04-26T16:02:23.347Z</time></trkpt><trkpt lat="46.3175425" lon="10.2991264"><ele>848.2</ele><time>2026-04-26T16:02:24.343Z</time></trkpt><trkpt lat="46.3175952" lon="10.2992194"><ele>849.0</ele><time>2026-04-26T16:02:25.358Z</time></trkpt><trkpt lat="46.3177442" lon="10.2994487"><ele>849.0</ele><time>2026-04-26T16:02:26.347Z</time></trkpt><trkpt lat="46.3178458" lon="10.2996176"><ele>849.0</ele><time>2026-04-26T16:02:27.345Z</time></trkpt><trkpt lat="46.3179377" lon="10.2996695"><ele>849.0</ele><time>2026-04-26T16:02:29.343Z</time></trkpt><trkpt lat="46.3180256" lon="10.2996618"><ele>849.0</ele><time>2026-04-26T16:02:30.347Z</time></trkpt><trkpt lat="46.3181215" lon="10.2997047"><ele>849.0</ele><time>2026-04-26T16:02:32.35Z</time></trkpt><trkpt lat="46.3181519" lon="10.2998883"><ele>849.0</ele><time>2026-04-26T16:02:34.35Z</time></trkpt><trkpt lat="46.3182113" lon="10.2999828"><ele>849.0</ele><time>2026-04-26T16:02:36.351Z</time></trkpt><trkpt lat="46.3182841" lon="10.3000132"><ele>849.0</ele><time>2026-04-26T16:02:37.346Z</time></trkpt><trkpt lat="46.3183813" lon="10.3000825"><ele>849.0</ele><time>2026-04-26T16:02:38.351Z</time></trkpt><trkpt lat="46.318465" lon="10.3001377"><ele>849.0</ele><time>2026-04-26T16:02:39.349Z</time></trkpt><trkpt lat="46.3185438" lon="10.3001964"><ele>849.0</ele><time>2026-04-26T16:02:40.345Z</time></trkpt><trkpt lat="46.318594" lon="10.3002929"><ele>849.0</ele><time>2026-04-26T16:02:41.348Z</time></trkpt><trkpt lat="46.3186429" lon="10.3003973"><ele>849.0</ele><time>2026-04-26T16:02:43.348Z</time></trkpt><trkpt lat="46.3187032" lon="10.3004919"><ele>849.0</ele><time>2026-04-26T16:02:46.349Z</time></trkpt><trkpt lat="46.3187659" lon="10.3005642"><ele>849.0</ele><time>2026-04-26T16:02:50.348Z</time></trkpt><trkpt lat="46.3188533" lon="10.3006017"><ele>849.0</ele><time>2026-04-26T16:02:53.345Z</time></trkpt><trkpt lat="46.3189323" lon="10.3006269"><ele>852.25</ele><time>2026-04-26T16:02:54.35Z</time></trkpt><trkpt lat="46.3190155" lon="10.3006625"><ele>855.5</ele><time>2026-04-26T16:02:55.347Z</time></trkpt><trkpt lat="46.3190967" lon="10.3007213"><ele>858.75</ele><time>2026-04-26T16:02:56.348Z</time></trkpt><trkpt lat="46.3191966" lon="10.3009014"><ele>862.0</ele><time>2026-04-26T16:02:57.343Z</time></trkpt><trkpt lat="46.3193031" lon="10.3009923"><ele>862.0</ele><time>2026-04-26T16:02:58.346Z</time></trkpt><trkpt lat="46.319367" lon="10.301034"><ele>862.0</ele><time>2026-04-26T16:02:59.34Z</time></trkpt><trkpt lat="46.319426" lon="10.3010898"><ele>862.0</ele><time>2026-04-26T16:03:00.347Z</time></trkpt><trkpt lat="46.3194807" lon="10.3011694"><ele>862.0</ele><time>2026-04-26T16:03:01.35Z</time></trkpt><trkpt lat="46.31955" lon="10.3012217"><ele>862.0</ele><time>2026-04-26T16:03:02.347Z</time></trkpt><trkpt lat="46.3196125" lon="10.301276"><ele>862.0</ele><time>2026-04-26T16:03:03.346Z</time></trkpt><trkpt lat="46.319676" lon="10.3013352"><ele>862.0</ele><time>2026-04-26T16:03:04.346Z</time></trkpt><trkpt lat="46.3197435" lon="10.3013991"><ele>862.9999999999999</ele><time>2026-04-26T16:03:05.352Z</time></trkpt><trkpt lat="46.3198058" lon="10.3014567"><ele>864.0</ele><time>2026-04-26T16:03:06.347Z</time></trkpt><trkpt lat="46.3199418" lon="10.3014822"><ele>865.0</ele><time>2026-04-26T16:03:08.351Z</time></trkpt><trkpt lat="46.3200129" lon="10.301497"><ele>866.0</ele><time>2026-04-26T16:03:09.343Z</time></trkpt><trkpt lat="46.3200718" lon="10.3015512"><ele>866.9999999999999</ele><time>2026-04-26T16:03:10.349Z</time></trkpt><trkpt lat="46.3201204" lon="10.3016204"><ele>868.0</ele><time>2026-04-26T16:03:11.344Z</time></trkpt><trkpt lat="46.3202612" lon="10.3016706"><ele>867.9999999999999</ele><time>2026-04-26T16:03:13.346Z</time></trkpt><trkpt lat="46.3203277" lon="10.3017055"><ele>868.0</ele><time>2026-04-26T16:03:14.348Z</time></trkpt><trkpt lat="46.3204272" lon="10.301752"><ele>868.0</ele><time>2026-04-26T16:03:15.345Z</time></trkpt><trkpt lat="46.3205132" lon="10.3017887"><ele>868.0</ele><time>2026-04-26T16:03:16.344Z</time></trkpt><trkpt lat="46.3205721" lon="10.301827"><ele>867.9999999999999</ele><time>2026-04-26T16:03:17.344Z</time></trkpt><trkpt lat="46.3206734" lon="10.3018675"><ele>868.0</ele><time>2026-04-26T16:03:19.347Z</time></trkpt><trkpt lat="46.3208086" lon="10.3018235"><ele>874.8</ele><time>2026-04-26T16:03:20.342Z</time></trkpt><trkpt lat="46.3209213" lon="10.3017966"><ele>881.5999999999999</ele><time>2026-04-26T16:03:21.348Z</time></trkpt><trkpt lat="46.3210017" lon="10.3017749"><ele>888.4000000000001</ele><time>2026-04-26T16:03:22.35Z</time></trkpt><trkpt lat="46.3211157" lon="10.3018635"><ele>895.2</ele><time>2026-04-26T16:03:24.344Z</time></trkpt><trkpt lat="46.3211553" lon="10.3020135"><ele>902.0</ele><time>2026-04-26T16:03:25.347Z</time></trkpt><trkpt lat="46.3211758" lon="10.3021906"><ele>902.8</ele><time>2026-04-26T16:03:27.342Z</time></trkpt><trkpt lat="46.3211699" lon="10.3022816"><ele>903.6</ele><time>2026-04-26T16:03:28.352Z</time></trkpt><trkpt lat="46.3211797" lon="10.302386"><ele>904.3999999999999</ele><time>2026-04-26T16:03:30.347Z</time></trkpt><trkpt lat="46.3212453" lon="10.3024751"><ele>905.1999999999999</ele><time>2026-04-26T16:03:32.345Z</time></trkpt><trkpt lat="46.3213036" lon="10.3025342"><ele>906.0</ele><time>2026-04-26T16:03:35.361Z</time></trkpt><trkpt lat="46.3215648" lon="10.3027053"><ele>906.0</ele><time>2026-04-26T16:03:38.352Z</time></trkpt><trkpt lat="46.3216646" lon="10.3027538"><ele>905.9999999999999</ele><time>2026-04-26T16:03:39.355Z</time></trkpt><trkpt lat="46.3217613" lon="10.3027618"><ele>905.9999999999999</ele><time>2026-04-26T16:03:40.35Z</time></trkpt><trkpt lat="46.3218705" lon="10.3027718"><ele>906.0</ele><time>2026-04-26T16:03:41.347Z</time></trkpt><trkpt lat="46.3219716" lon="10.3027917"><ele>906.0</ele><time>2026-04-26T16:03:42.345Z</time></trkpt><trkpt lat="46.3221166" lon="10.3028735"><ele>906.0</ele><time>2026-04-26T16:03:44.348Z</time></trkpt><trkpt lat="46.3221987" lon="10.3028533"><ele>906.0</ele><time>2026-04-26T16:03:45.342Z</time></trkpt><trkpt lat="46.3222756" lon="10.3028059"><ele>906.0</ele><time>2026-04-26T16:03:46.347Z</time></trkpt><trkpt lat="46.3223548" lon="10.302767"><ele>906.0</ele><time>2026-04-26T16:03:47.353Z</time></trkpt><trkpt lat="46.3224587" lon="10.3027221"><ele>906.0</ele><time>2026-04-26T16:03:48.357Z</time></trkpt><trkpt lat="46.3225431" lon="10.3027114"><ele>906.0</ele><time>2026-04-26T16:03:49.355Z</time></trkpt><trkpt lat="46.3226446" lon="10.3028205"><ele>907.4</ele><time>2026-04-26T16:03:51.347Z</time></trkpt><trkpt lat="46.3227309" lon="10.3029042"><ele>908.8</ele><time>2026-04-26T16:03:53.353Z</time></trkpt><trkpt lat="46.3228054" lon="10.3030115"><ele>910.1999999999999</ele><time>2026-04-26T16:03:55.345Z</time></trkpt><trkpt lat="46.3228543" lon="10.303151"><ele>911.5999999999999</ele><time>2026-04-26T16:03:57.352Z</time></trkpt><trkpt lat="46.3228867" lon="10.3032586"><ele>913.0</ele><time>2026-04-26T16:03:59.344Z</time></trkpt><trkpt lat="46.3229001" lon="10.3034026"><ele>913.0</ele><time>2026-04-26T16:04:01.355Z</time></trkpt><trkpt lat="46.3229122" lon="10.3035416"><ele>913.0</ele><time>2026-04-26T16:04:03.355Z</time></trkpt><trkpt lat="46.322903" lon="10.303711"><ele>913.0</ele><time>2026-04-26T16:04:05.347Z</time></trkpt><trkpt lat="46.3228822" lon="10.3038796"><ele>913.0</ele><time>2026-04-26T16:04:07.345Z</time></trkpt><trkpt lat="46.3228735" lon="10.303984"><ele>913.0</ele><time>2026-04-26T16:04:08.35Z</time></trkpt><trkpt lat="46.3228714" lon="10.3041379"><ele>912.2</ele><time>2026-04-26T16:04:10.346Z</time></trkpt><trkpt lat="46.3228558" lon="10.3043083"><ele>911.4</ele><time>2026-04-26T16:04:12.349Z</time></trkpt><trkpt lat="46.322857" lon="10.3044673"><ele>910.6000000000001</ele><time>2026-04-26T16:04:14.352Z</time></trkpt><trkpt lat="46.3229029" lon="10.3045958"><ele>909.8000000000001</ele><time>2026-04-26T16:04:16.35Z</time></trkpt><trkpt lat="46.3229754" lon="10.3047261"><ele>909.0</ele><time>2026-04-26T16:04:18.343Z</time></trkpt><trkpt lat="46.3230445" lon="10.3048495"><ele>911.8000000000001</ele><time>2026-04-26T16:04:20.347Z</time></trkpt><trkpt lat="46.3230949" lon="10.3049813"><ele>914.6000000000001</ele><time>2026-04-26T16:04:22.351Z</time></trkpt><trkpt lat="46.3231209" lon="10.30511"><ele>917.4</ele><time>2026-04-26T16:04:24.344Z</time></trkpt><trkpt lat="46.3231087" lon="10.3052852"><ele>920.2</ele><time>2026-04-26T16:04:26.358Z</time></trkpt><trkpt lat="46.3231011" lon="10.3053941"><ele>923.0</ele><time>2026-04-26T16:04:27.355Z</time></trkpt><trkpt lat="46.3230958" lon="10.3054908"><ele>922.8571428571429</ele><time>2026-04-26T16:04:28.344Z</time></trkpt><trkpt lat="46.3230955" lon="10.3056339"><ele>922.7142857142858</ele><time>2026-04-26T16:04:30.344Z</time></trkpt><trkpt lat="46.3231282" lon="10.3057242"><ele>922.5714285714287</ele><time>2026-04-26T16:04:32.352Z</time></trkpt><trkpt lat="46.3231879" lon="10.3057564"><ele>922.4285714285714</ele><time>2026-04-26T16:04:43.354Z</time></trkpt><trkpt lat="46.3232453" lon="10.3058213"><ele>922.2857142857144</ele><time>2026-04-26T16:04:48.347Z</time></trkpt><trkpt lat="46.3232867" lon="10.3058952"><ele>922.1428571428572</ele><time>2026-04-26T16:04:53.354Z</time></trkpt><trkpt lat="46.3233605" lon="10.3059127"><ele>922.0</ele><time>2026-04-26T16:04:56.344Z</time></trkpt><trkpt lat="46.3234544" lon="10.3059343"><ele>921.9999999999999</ele><time>2026-04-26T16:04:59.351Z</time></trkpt><trkpt lat="46.3235303" lon="10.3059491"><ele>922.0</ele><time>2026-04-26T16:05:01.343Z</time></trkpt><trkpt lat="46.3236138" lon="10.3059965"><ele>922.0</ele><time>2026-04-26T16:05:04.351Z</time></trkpt><trkpt lat="46.3236981" lon="10.3060677"><ele>922.0</ele><time>2026-04-26T16:05:07.348Z</time></trkpt><trkpt lat="46.3237798" lon="10.3061302"><ele>921.9999999999999</ele><time>2026-04-26T16:05:09.346Z</time></trkpt><trkpt lat="46.3238389" lon="10.3061762"><ele>922.0</ele><time>2026-04-26T16:05:10.347Z</time></trkpt><trkpt lat="46.3239457" lon="10.3062047"><ele>921.4999999999999</ele><time>2026-04-26T16:05:12.344Z</time></trkpt><trkpt lat="46.3240437" lon="10.3062682"><ele>921.0</ele><time>2026-04-26T16:05:14.345Z</time></trkpt><trkpt lat="46.3241502" lon="10.3063431"><ele>920.5</ele><time>2026-04-26T16:05:16.344Z</time></trkpt><trkpt lat="46.3242138" lon="10.3063895"><ele>920.0</ele><time>2026-04-26T16:05:17.346Z</time></trkpt><trkpt lat="46.3242717" lon="10.3064462"><ele>919.4999999999999</ele><time>2026-04-26T16:05:18.349Z</time></trkpt><trkpt lat="46.3243353" lon="10.3064957"><ele>919.0</ele><time>2026-04-26T16:05:19.351Z</time></trkpt><trkpt lat="46.3244058" lon="10.3065292"><ele>918.9999999999999</ele><time>2026-04-26T16:05:20.345Z</time></trkpt><trkpt lat="46.3244813" lon="10.3065463"><ele>919.0</ele><time>2026-04-26T16:05:21.344Z</time></trkpt><trkpt lat="46.3245503" lon="10.3065474"><ele>919.0</ele><time>2026-04-26T16:05:22.343Z</time></trkpt><trkpt lat="46.3246552" lon="10.3065433"><ele>919.0</ele><time>2026-04-26T16:05:24.345Z</time></trkpt><trkpt lat="46.3247686" lon="10.3065276"><ele>918.9999999999999</ele><time>2026-04-26T16:05:26.345Z</time></trkpt><trkpt lat="46.3248462" lon="10.3065346"><ele>919.0</ele><time>2026-04-26T16:05:27.347Z</time></trkpt><trkpt lat="46.324936" lon="10.3065488"><ele>920.6</ele><time>2026-04-26T16:05:28.345Z</time></trkpt><trkpt lat="46.3250226" lon="10.3065711"><ele>922.2</ele><time>2026-04-26T16:05:29.345Z</time></trkpt><trkpt lat="46.3251234" lon="10.3065987"><ele>923.8000000000001</ele><time>2026-04-26T16:05:30.347Z</time></trkpt><trkpt lat="46.3252211" lon="10.3066287"><ele>925.4000000000001</ele><time>2026-04-26T16:05:31.342Z</time></trkpt><trkpt lat="46.3253065" lon="10.306684"><ele>927.0</ele><time>2026-04-26T16:05:32.346Z</time></trkpt><trkpt lat="46.3254008" lon="10.306744"><ele>927.0</ele><time>2026-04-26T16:05:33.347Z</time></trkpt><trkpt lat="46.3255013" lon="10.3067672"><ele>927.0</ele><time>2026-04-26T16:05:34.346Z</time></trkpt><trkpt lat="46.3256067" lon="10.3067853"><ele>927.0</ele><time>2026-04-26T16:05:35.35Z</time></trkpt><trkpt lat="46.3257122" lon="10.306817"><ele>927.0</ele><time>2026-04-26T16:05:36.347Z</time></trkpt><trkpt lat="46.3258023" lon="10.3068537"><ele>927.0</ele><time>2026-04-26T16:05:37.349Z</time></trkpt><trkpt lat="46.3258875" lon="10.3068861"><ele>929.8333333333334</ele><time>2026-04-26T16:05:38.349Z</time></trkpt><trkpt lat="46.32598" lon="10.3069067"><ele>932.6666666666667</ele><time>2026-04-26T16:05:39.349Z</time></trkpt><trkpt lat="46.3260626" lon="10.3069097"><ele>935.5</ele><time>2026-04-26T16:05:40.348Z</time></trkpt><trkpt lat="46.3261359" lon="10.3069014"><ele>938.3333333333334</ele><time>2026-04-26T16:05:41.346Z</time></trkpt><trkpt lat="46.326212" lon="10.3069358"><ele>941.1666666666667</ele><time>2026-04-26T16:05:42.345Z</time></trkpt><trkpt lat="46.3262925" lon="10.3069942"><ele>944.0</ele><time>2026-04-26T16:05:43.348Z</time></trkpt><trkpt lat="46.3263922" lon="10.3070449"><ele>946.8000000000001</ele><time>2026-04-26T16:05:44.35Z</time></trkpt><trkpt lat="46.3264973" lon="10.3070908"><ele>949.6000000000001</ele><time>2026-04-26T16:05:45.348Z</time></trkpt><trkpt lat="46.3265855" lon="10.307108"><ele>952.4</ele><time>2026-04-26T16:05:46.344Z</time></trkpt><trkpt lat="46.326682" lon="10.3070979"><ele>955.2</ele><time>2026-04-26T16:05:47.348Z</time></trkpt><trkpt lat="46.3267683" lon="10.3070743"><ele>958.0</ele><time>2026-04-26T16:05:48.344Z</time></trkpt><trkpt lat="46.3268515" lon="10.3070537"><ele>958.0</ele><time>2026-04-26T16:05:49.349Z</time></trkpt><trkpt lat="46.326941" lon="10.3070319"><ele>958.0</ele><time>2026-04-26T16:05:50.349Z</time></trkpt><trkpt lat="46.3270288" lon="10.3070024"><ele>958.0</ele><time>2026-04-26T16:05:51.347Z</time></trkpt><trkpt lat="46.3271038" lon="10.3069705"><ele>958.0</ele><time>2026-04-26T16:05:52.345Z</time></trkpt><trkpt lat="46.3271708" lon="10.3069533"><ele>958.0</ele><time>2026-04-26T16:05:53.347Z</time></trkpt><trkpt lat="46.3272833" lon="10.3070343"><ele>959.5999999999999</ele><time>2026-04-26T16:05:55.347Z</time></trkpt><trkpt lat="46.3273322" lon="10.3071289"><ele>961.1999999999999</ele><time>2026-04-26T16:05:56.345Z</time></trkpt><trkpt lat="46.3273802" lon="10.3072764"><ele>962.8</ele><time>2026-04-26T16:05:58.349Z</time></trkpt><trkpt lat="46.3273455" lon="10.307379"><ele>964.4</ele><time>2026-04-26T16:05:59.344Z</time></trkpt><trkpt lat="46.3272984" lon="10.3074513"><ele>966.0</ele><time>2026-04-26T16:06:00.353Z</time></trkpt><trkpt lat="46.327219" lon="10.3075726"><ele>959.75</ele><time>2026-04-26T16:06:01.352Z</time></trkpt><trkpt lat="46.3271264" lon="10.3077092"><ele>953.5</ele><time>2026-04-26T16:06:02.345Z</time></trkpt><trkpt lat="46.3270237" lon="10.307824"><ele>947.25</ele><time>2026-04-26T16:06:03.345Z</time></trkpt><trkpt lat="46.3269155" lon="10.3079452"><ele>941.0</ele><time>2026-04-26T16:06:04.345Z</time></trkpt><trkpt lat="46.326797" lon="10.3080288"><ele>941.0</ele><time>2026-04-26T16:06:05.346Z</time></trkpt><trkpt lat="46.3266835" lon="10.3080972"><ele>941.0</ele><time>2026-04-26T16:06:06.353Z</time></trkpt><trkpt lat="46.326558" lon="10.3081706"><ele>941.0</ele><time>2026-04-26T16:06:07.354Z</time></trkpt><trkpt lat="46.3264341" lon="10.3082233"><ele>941.0</ele><time>2026-04-26T16:06:08.352Z</time></trkpt><trkpt lat="46.3263239" lon="10.3082534"><ele>941.0</ele><time>2026-04-26T16:06:09.342Z</time></trkpt><trkpt lat="46.3262191" lon="10.3082835"><ele>940.9999999999999</ele><time>2026-04-26T16:06:10.349Z</time></trkpt><trkpt lat="46.3261149" lon="10.3083292"><ele>940.9999999999999</ele><time>2026-04-26T16:06:11.348Z</time></trkpt><trkpt lat="46.3260092" lon="10.3083828"><ele>941.0</ele><time>2026-04-26T16:06:12.347Z</time></trkpt><trkpt lat="46.3259108" lon="10.3084335"><ele>941.0</ele><time>2026-04-26T16:06:13.344Z</time></trkpt><trkpt lat="46.3258115" lon="10.3084715"><ele>941.0</ele><time>2026-04-26T16:06:14.344Z</time></trkpt><trkpt lat="46.3257209" lon="10.3085159"><ele>940.9999999999999</ele><time>2026-04-26T16:06:15.342Z</time></trkpt><trkpt lat="46.3256313" lon="10.3085584"><ele>940.9999999999999</ele><time>2026-04-26T16:06:16.353Z</time></trkpt><trkpt lat="46.325551" lon="10.3086053"><ele>941.0</ele><time>2026-04-26T16:06:17.346Z</time></trkpt><trkpt lat="46.3253913" lon="10.3086888"><ele>941.0</ele><time>2026-04-26T16:06:19.349Z</time></trkpt><trkpt lat="46.325325" lon="10.3087282"><ele>940.1666666666667</ele><time>2026-04-26T16:06:20.35Z</time></trkpt><trkpt lat="46.3252442" lon="10.3087945"><ele>939.3333333333334</ele><time>2026-04-26T16:06:22.348Z</time></trkpt><trkpt lat="46.3251871" lon="10.3088494"><ele>938.5</ele><time>2026-04-26T16:06:39.346Z</time></trkpt><trkpt lat="46.3251319" lon="10.3087637"><ele>937.6666666666667</ele><time>2026-04-26T16:06:43.345Z</time></trkpt><trkpt lat="46.3250634" lon="10.3087714"><ele>936.8333333333334</ele><time>2026-04-26T16:06:46.345Z</time></trkpt><trkpt lat="46.3249887" lon="10.3088319"><ele>936.0</ele><time>2026-04-26T16:06:49.345Z</time></trkpt><trkpt lat="46.3248834" lon="10.3090497"><ele>931.3333333333333</ele><time>2026-04-26T16:06:51.348Z</time></trkpt><trkpt lat="46.3246786" lon="10.3094664"><ele>926.6666666666666</ele><time>2026-04-26T16:06:52.344Z</time></trkpt><trkpt lat="46.3246949" lon="10.3095835"><ele>922.0</ele><time>2026-04-26T16:06:53.348Z</time></trkpt><trkpt lat="46.3247082" lon="10.3097239"><ele>921.7142857142858</ele><time>2026-04-26T16:06:54.34Z</time></trkpt><trkpt lat="46.3247122" lon="10.309867"><ele>921.4285714285716</ele><time>2026-04-26T16:06:55.353Z</time></trkpt><trkpt lat="46.324711" lon="10.3099832"><ele>921.1428571428571</ele><time>2026-04-26T16:06:56.346Z</time></trkpt><trkpt lat="46.3246835" lon="10.3100716"><ele>920.8571428571429</ele><time>2026-04-26T16:06:57.342Z</time></trkpt><trkpt lat="46.3246558" lon="10.3101636"><ele>920.5714285714286</ele><time>2026-04-26T16:06:58.359Z</time></trkpt><trkpt lat="46.324608" lon="10.3102243"><ele>920.2857142857142</ele><time>2026-04-26T16:06:59.349Z</time></trkpt><trkpt lat="46.3245548" lon="10.3102744"><ele>919.9999999999999</ele><time>2026-04-26T16:07:00.345Z</time></trkpt><trkpt lat="46.3244561" lon="10.3103136"><ele>920.0</ele><time>2026-04-26T16:07:01.343Z</time></trkpt><trkpt lat="46.3243604" lon="10.3103534"><ele>920.0</ele><time>2026-04-26T16:07:02.351Z</time></trkpt><trkpt lat="46.324256" lon="10.3103721"><ele>920.0</ele><time>2026-04-26T16:07:03.347Z</time></trkpt><trkpt lat="46.3241591" lon="10.3103885"><ele>920.0</ele><time>2026-04-26T16:07:04.349Z</time></trkpt><trkpt lat="46.3240721" lon="10.3103906"><ele>920.0</ele><time>2026-04-26T16:07:05.345Z</time></trkpt><trkpt lat="46.3239963" lon="10.3104422"><ele>919.9999999999999</ele><time>2026-04-26T16:07:06.347Z</time></trkpt><trkpt lat="46.3239331" lon="10.3104903"><ele>920.0</ele><time>2026-04-26T16:07:07.344Z</time></trkpt><trkpt lat="46.3238732" lon="10.3105387"><ele>919.9999999999999</ele><time>2026-04-26T16:07:08.346Z</time></trkpt><trkpt lat="46.3238397" lon="10.3106529"><ele>919.9999999999999</ele><time>2026-04-26T16:07:11.348Z</time></trkpt><trkpt lat="46.3238679" lon="10.3107445"><ele>920.0</ele><time>2026-04-26T16:07:13.347Z</time></trkpt><trkpt lat="46.3239063" lon="10.3108286"><ele>919.9999999999999</ele><time>2026-04-26T16:07:16.346Z</time></trkpt><trkpt lat="46.323944" lon="10.3109373"><ele>919.9999999999999</ele><time>2026-04-26T16:07:18.351Z</time></trkpt><trkpt lat="46.323961" lon="10.3110274"><ele>919.8</ele><time>2026-04-26T16:07:19.343Z</time></trkpt><trkpt lat="46.3239804" lon="10.311131"><ele>919.6</ele><time>2026-04-26T16:07:21.344Z</time></trkpt><trkpt lat="46.3239932" lon="10.311262"><ele>919.4000000000001</ele><time>2026-04-26T16:07:23.351Z</time></trkpt><trkpt lat="46.3239553" lon="10.3113707"><ele>919.2</ele><time>2026-04-26T16:07:25.345Z</time></trkpt><trkpt lat="46.3238683" lon="10.3114809"><ele>919.0</ele><time>2026-04-26T16:07:27.346Z</time></trkpt><trkpt lat="46.323805" lon="10.3116237"><ele>914.6666666666666</ele><time>2026-04-26T16:07:29.355Z</time></trkpt><trkpt lat="46.323771" lon="10.3117806"><ele>910.3333333333333</ele><time>2026-04-26T16:07:31.343Z</time></trkpt><trkpt lat="46.323756" lon="10.3118959"><ele>906.0</ele><time>2026-04-26T16:07:34.348Z</time></trkpt><trkpt lat="46.3237579" lon="10.3120298"><ele>901.6666666666667</ele><time>2026-04-26T16:07:36.346Z</time></trkpt><trkpt lat="46.3237655" lon="10.3121316"><ele>897.3333333333334</ele><time>2026-04-26T16:07:37.349Z</time></trkpt><trkpt lat="46.3237807" lon="10.3122401"><ele>893.0</ele><time>2026-04-26T16:07:38.355Z</time></trkpt><trkpt lat="46.3238164" lon="10.3123569"><ele>892.4</ele><time>2026-04-26T16:07:39.347Z</time></trkpt><trkpt lat="46.3238717" lon="10.3124956"><ele>891.8</ele><time>2026-04-26T16:07:40.343Z</time></trkpt><trkpt lat="46.3239356" lon="10.3126104"><ele>891.2</ele><time>2026-04-26T16:07:41.345Z</time></trkpt><trkpt lat="46.3240064" lon="10.3127132"><ele>890.6</ele><time>2026-04-26T16:07:42.345Z</time></trkpt><trkpt lat="46.3241005" lon="10.3128159"><ele>890.0</ele><time>2026-04-26T16:07:43.354Z</time></trkpt><trkpt lat="46.3242207" lon="10.3129193"><ele>891.0</ele><time>2026-04-26T16:07:44.346Z</time></trkpt><trkpt lat="46.3243172" lon="10.3130068"><ele>892.0</ele><time>2026-04-26T16:07:45.346Z</time></trkpt><trkpt lat="46.3243837" lon="10.313069"><ele>893.0</ele><time>2026-04-26T16:07:46.344Z</time></trkpt><trkpt lat="46.3244617" lon="10.3131413"><ele>894.0</ele><time>2026-04-26T16:07:47.346Z</time></trkpt><trkpt lat="46.32455" lon="10.3132172"><ele>895.0</ele><time>2026-04-26T16:07:48.346Z</time></trkpt><trkpt lat="46.3246544" lon="10.3133032"><ele>899.25</ele><time>2026-04-26T16:07:49.347Z</time></trkpt><trkpt lat="46.3247579" lon="10.313408"><ele>903.5</ele><time>2026-04-26T16:07:50.347Z</time></trkpt><trkpt lat="46.3248685" lon="10.3135168"><ele>907.75</ele><time>2026-04-26T16:07:51.343Z</time></trkpt><trkpt lat="46.3249851" lon="10.3136367"><ele>912.0</ele><time>2026-04-26T16:07:52.345Z</time></trkpt><trkpt lat="46.3250903" lon="10.3137118"><ele>912.0</ele><time>2026-04-26T16:07:53.349Z</time></trkpt><trkpt lat="46.3252033" lon="10.3137714"><ele>912.0</ele><time>2026-04-26T16:07:54.344Z</time></trkpt><trkpt lat="46.3253183" lon="10.3138047"><ele>912.0</ele><time>2026-04-26T16:07:55.345Z</time></trkpt><trkpt lat="46.3254288" lon="10.3138478"><ele>912.0</ele><time>2026-04-26T16:07:56.346Z</time></trkpt><trkpt lat="46.3255365" lon="10.3139433"><ele>912.0</ele><time>2026-04-26T16:07:57.346Z</time></trkpt><trkpt lat="46.3256426" lon="10.3140742"><ele>912.0</ele><time>2026-04-26T16:07:58.345Z</time></trkpt><trkpt lat="46.3257407" lon="10.3142081"><ele>912.0</ele><time>2026-04-26T16:07:59.341Z</time></trkpt><trkpt lat="46.325839" lon="10.3143606"><ele>912.0</ele><time>2026-04-26T16:08:00.345Z</time></trkpt><trkpt lat="46.3259126" lon="10.3144775"><ele>912.0</ele><time>2026-04-26T16:08:01.347Z</time></trkpt><trkpt lat="46.3259751" lon="10.3145374"><ele>912.0</ele><time>2026-04-26T16:08:02.344Z</time></trkpt><trkpt lat="46.3260485" lon="10.3145674"><ele>912.0</ele><time>2026-04-26T16:08:03.351Z</time></trkpt><trkpt lat="46.3261088" lon="10.314607"><ele>912.0</ele><time>2026-04-26T16:08:04.342Z</time></trkpt><trkpt lat="46.326172" lon="10.314739"><ele>912.0</ele><time>2026-04-26T16:08:06.345Z</time></trkpt><trkpt lat="46.3261405" lon="10.3149087"><ele>908.4000000000001</ele><time>2026-04-26T16:08:08.344Z</time></trkpt><trkpt lat="46.32613" lon="10.3150582"><ele>904.8000000000001</ele><time>2026-04-26T16:08:10.344Z</time></trkpt><trkpt lat="46.3261966" lon="10.315206"><ele>901.2</ele><time>2026-04-26T16:08:12.355Z</time></trkpt><trkpt lat="46.3262634" lon="10.3153342"><ele>897.6</ele><time>2026-04-26T16:08:13.347Z</time></trkpt><trkpt lat="46.3263201" lon="10.3154523"><ele>894.0</ele><time>2026-04-26T16:08:14.347Z</time></trkpt><trkpt lat="46.3263628" lon="10.3155518"><ele>896.8571428571428</ele><time>2026-04-26T16:08:15.342Z</time></trkpt><trkpt lat="46.3264009" lon="10.3156425"><ele>899.7142857142858</ele><time>2026-04-26T16:08:16.344Z</time></trkpt><trkpt lat="46.3264394" lon="10.3157183"><ele>902.5714285714287</ele><time>2026-04-26T16:08:17.343Z</time></trkpt><trkpt lat="46.3264756" lon="10.3157951"><ele>905.4285714285714</ele><time>2026-04-26T16:08:18.342Z</time></trkpt><trkpt lat="46.3265131" lon="10.315878"><ele>908.2857142857143</ele><time>2026-04-26T16:08:19.346Z</time></trkpt><trkpt lat="46.3265351" lon="10.3159851"><ele>911.1428571428572</ele><time>2026-04-26T16:08:20.347Z</time></trkpt><trkpt lat="46.3265435" lon="10.3161143"><ele>914.0000000000001</ele><time>2026-04-26T16:08:21.345Z</time></trkpt><trkpt lat="46.3265613" lon="10.316242"><ele>914.0000000000001</ele><time>2026-04-26T16:08:22.349Z</time></trkpt><trkpt lat="46.3265782" lon="10.3163466"><ele>914.0</ele><time>2026-04-26T16:08:23.344Z</time></trkpt><trkpt lat="46.3265706" lon="10.3165231"><ele>914.0</ele><time>2026-04-26T16:08:25.35Z</time></trkpt><trkpt lat="46.3265492" lon="10.3166296"><ele>914.0</ele><time>2026-04-26T16:08:26.342Z</time></trkpt><trkpt lat="46.3265382" lon="10.3167305"><ele>914.0000000000001</ele><time>2026-04-26T16:08:27.348Z</time></trkpt><trkpt lat="46.3265478" lon="10.3168247"><ele>914.0</ele><time>2026-04-26T16:08:28.344Z</time></trkpt><trkpt lat="46.3265734" lon="10.3169194"><ele>911.2</ele><time>2026-04-26T16:08:29.348Z</time></trkpt><trkpt lat="46.3266113" lon="10.3170168"><ele>908.4000000000001</ele><time>2026-04-26T16:08:30.349Z</time></trkpt><trkpt lat="46.3266552" lon="10.3171274"><ele>905.6</ele><time>2026-04-26T16:08:31.347Z</time></trkpt><trkpt lat="46.3266969" lon="10.3172614"><ele>902.8</ele><time>2026-04-26T16:08:32.347Z</time></trkpt><trkpt lat="46.3267328" lon="10.3174083"><ele>900.0</ele><time>2026-04-26T16:08:33.348Z</time></trkpt><trkpt lat="46.3267512" lon="10.3175684"><ele>898.4</ele><time>2026-04-26T16:08:34.348Z</time></trkpt><trkpt lat="46.3267685" lon="10.3177341"><ele>896.8</ele><time>2026-04-26T16:08:35.351Z</time></trkpt><trkpt lat="46.3267731" lon="10.3178801"><ele>895.2</ele><time>2026-04-26T16:08:36.347Z</time></trkpt><trkpt lat="46.3267723" lon="10.3180181"><ele>893.6</ele><time>2026-04-26T16:08:37.345Z</time></trkpt><trkpt lat="46.3267753" lon="10.3181538"><ele>892.0</ele><time>2026-04-26T16:08:38.353Z</time></trkpt><trkpt lat="46.3267849" lon="10.3182917"><ele>890.4000000000001</ele><time>2026-04-26T16:08:39.347Z</time></trkpt><trkpt lat="46.3267958" lon="10.318419"><ele>888.8000000000001</ele><time>2026-04-26T16:08:40.35Z</time></trkpt><trkpt lat="46.326821" lon="10.3185183"><ele>887.2</ele><time>2026-04-26T16:08:41.342Z</time></trkpt><trkpt lat="46.3268734" lon="10.3186633"><ele>885.6</ele><time>2026-04-26T16:08:43.346Z</time></trkpt><trkpt lat="46.3268971" lon="10.3187607"><ele>884.0</ele><time>2026-04-26T16:08:45.346Z</time></trkpt><trkpt lat="46.3268369" lon="10.3188901"><ele>882.6</ele><time>2026-04-26T16:08:47.344Z</time></trkpt><trkpt lat="46.3267875" lon="10.3189801"><ele>881.2</ele><time>2026-04-26T16:08:48.353Z</time></trkpt><trkpt lat="46.3267678" lon="10.3191516"><ele>879.8000000000001</ele><time>2026-04-26T16:08:50.346Z</time></trkpt><trkpt lat="46.3267872" lon="10.319257"><ele>878.4000000000001</ele><time>2026-04-26T16:08:51.347Z</time></trkpt><trkpt lat="46.3267837" lon="10.3193811"><ele>877.0</ele><time>2026-04-26T16:08:52.352Z</time></trkpt><trkpt lat="46.3267731" lon="10.3195216"><ele>877.0</ele><time>2026-04-26T16:08:53.347Z</time></trkpt><trkpt lat="46.3267499" lon="10.3196424"><ele>877.0</ele><time>2026-04-26T16:08:54.343Z</time></trkpt><trkpt lat="46.3267568" lon="10.3197596"><ele>877.0</ele><time>2026-04-26T16:08:55.346Z</time></trkpt><trkpt lat="46.3267927" lon="10.3199054"><ele>877.0</ele><time>2026-04-26T16:08:56.347Z</time></trkpt><trkpt lat="46.3268392" lon="10.3200574"><ele>877.0</ele><time>2026-04-26T16:08:57.342Z</time></trkpt><trkpt lat="46.326871" lon="10.3202046"><ele>876.0</ele><time>2026-04-26T16:08:58.347Z</time></trkpt><trkpt lat="46.3268899" lon="10.3203368"><ele>875.0</ele><time>2026-04-26T16:08:59.348Z</time></trkpt><trkpt lat="46.3269324" lon="10.3205265"><ele>874.0</ele><time>2026-04-26T16:09:01.345Z</time></trkpt><trkpt lat="46.3269934" lon="10.3206142"><ele>873.0</ele><time>2026-04-26T16:09:02.342Z</time></trkpt><trkpt lat="46.3270841" lon="10.3206998"><ele>872.0</ele><time>2026-04-26T16:09:03.346Z</time></trkpt><trkpt lat="46.3271913" lon="10.3207828"><ele>875.0</ele><time>2026-04-26T16:09:04.347Z</time></trkpt><trkpt lat="46.3272987" lon="10.3208885"><ele>878.0</ele><time>2026-04-26T16:09:05.347Z</time></trkpt><trkpt lat="46.3273871" lon="10.3209946"><ele>881.0</ele><time>2026-04-26T16:09:06.344Z</time></trkpt><trkpt lat="46.3274655" lon="10.3211097"><ele>884.0</ele><time>2026-04-26T16:09:07.348Z</time></trkpt><trkpt lat="46.3275289" lon="10.3212604"><ele>881.8000000000001</ele><time>2026-04-26T16:09:08.349Z</time></trkpt><trkpt lat="46.3275871" lon="10.3214099"><ele>879.6000000000001</ele><time>2026-04-26T16:09:09.343Z</time></trkpt><trkpt lat="46.3276006" lon="10.3215762"><ele>877.4</ele><time>2026-04-26T16:09:10.345Z</time></trkpt><trkpt lat="46.3276318" lon="10.3216632"><ele>875.2</ele><time>2026-04-26T16:09:11.347Z</time></trkpt><trkpt lat="46.3276701" lon="10.3217509"><ele>873.0</ele><time>2026-04-26T16:09:12.341Z</time></trkpt><trkpt lat="46.3277253" lon="10.3218433"><ele>873.0</ele><time>2026-04-26T16:09:14.343Z</time></trkpt><trkpt lat="46.3277448" lon="10.3219434"><ele>873.0</ele><time>2026-04-26T16:09:16.343Z</time></trkpt><trkpt lat="46.3278223" lon="10.3219702"><ele>873.0</ele><time>2026-04-26T16:09:19.342Z</time></trkpt><trkpt lat="46.327778" lon="10.32188"><ele>873.0</ele><time>2026-04-26T16:09:22.345Z</time></trkpt><trkpt lat="46.3277184" lon="10.3218179"><ele>873.0</ele><time>2026-04-26T16:09:25.353Z</time></trkpt><trkpt lat="46.3276536" lon="10.3217861"><ele>873.0</ele><time>2026-04-26T16:09:28.348Z</time></trkpt><trkpt lat="46.327668" lon="10.321906"><ele>873.0</ele><time>2026-04-26T16:09:31.341Z</time></trkpt><trkpt lat="46.327708" lon="10.3219768"><ele>873.0</ele><time>2026-04-26T16:09:32.341Z</time></trkpt><trkpt lat="46.3277473" lon="10.3220509"><ele>873.0</ele><time>2026-04-26T16:09:33.344Z</time></trkpt><trkpt lat="46.3277839" lon="10.3221341"><ele>873.0</ele><time>2026-04-26T16:09:34.344Z</time></trkpt><trkpt lat="46.3278181" lon="10.3222478"><ele>873.0</ele><time>2026-04-26T16:09:35.345Z</time></trkpt><trkpt lat="46.3278551" lon="10.3223618"><ele>873.0</ele><time>2026-04-26T16:09:37.344Z</time></trkpt><trkpt lat="46.3278672" lon="10.3225197"><ele>871.2857142857142</ele><time>2026-04-26T16:09:39.344Z</time></trkpt><trkpt lat="46.3278801" lon="10.3226249"><ele>869.5714285714286</ele><time>2026-04-26T16:09:41.347Z</time></trkpt><trkpt lat="46.3278646" lon="10.3227162"><ele>867.8571428571429</ele><time>2026-04-26T16:09:44.343Z</time></trkpt><trkpt lat="46.32782" lon="10.3226493"><ele>866.1428571428571</ele><time>2026-04-26T16:10:35.347Z</time></trkpt><trkpt lat="46.327771" lon="10.3225432"><ele>864.4285714285714</ele><time>2026-04-26T16:10:42.346Z</time></trkpt><trkpt lat="46.3277233" lon="10.3224605"><ele>862.7142857142857</ele><time>2026-04-26T16:10:44.342Z</time></trkpt><trkpt lat="46.3276631" lon="10.3224202"><ele>861.0</ele><time>2026-04-26T16:10:51.344Z</time></trkpt><trkpt lat="46.3276852" lon="10.3225771"><ele>861.0</ele><time>2026-04-26T16:10:57.342Z</time></trkpt><trkpt lat="46.3277029" lon="10.3227166"><ele>861.0</ele><time>2026-04-26T16:10:59.35Z</time></trkpt><trkpt lat="46.3276922" lon="10.3228233"><ele>861.0</ele><time>2026-04-26T16:11:03.345Z</time></trkpt><trkpt lat="46.3276315" lon="10.3227732"><ele>861.0</ele><time>2026-04-26T16:11:10.343Z</time></trkpt><trkpt lat="46.3275959" lon="10.3228629"><ele>861.0</ele><time>2026-04-26T16:11:21.342Z</time></trkpt><trkpt lat="46.3275601" lon="10.3227751"><ele>861.0</ele><time>2026-04-26T16:11:49.346Z</time></trkpt><trkpt lat="46.3275194" lon="10.3226899"><ele>861.0</ele><time>2026-04-26T16:11:53.341Z</time></trkpt><trkpt lat="46.3275005" lon="10.3227856"><ele>861.0</ele><time>2026-04-26T16:12:02.348Z</time></trkpt><trkpt lat="46.3275054" lon="10.3228794"><ele>861.0</ele><time>2026-04-26T16:12:22.35Z</time></trkpt><trkpt lat="46.3274511" lon="10.3227945"><ele>861.0</ele><time>2026-04-26T16:12:26.347Z</time></trkpt><trkpt lat="46.3273863" lon="10.3226973"><ele>861.0</ele><time>2026-04-26T16:12:28.354Z</time></trkpt><trkpt lat="46.3273078" lon="10.3225761"><ele>861.0</ele><time>2026-04-26T16:12:30.352Z</time></trkpt><trkpt lat="46.3272436" lon="10.3225504"><ele>861.0</ele><time>2026-04-26T16:12:32.341Z</time></trkpt><trkpt lat="46.3272861" lon="10.3226854"><ele>860.9999999999999</ele><time>2026-04-26T16:12:37.344Z</time></trkpt><trkpt lat="46.3273461" lon="10.3227608"><ele>860.9999999999999</ele><time>2026-04-26T16:12:38.346Z</time></trkpt><trkpt lat="46.3274076" lon="10.3228559"><ele>861.0</ele><time>2026-04-26T16:12:39.347Z</time></trkpt><trkpt lat="46.3274703" lon="10.3229737"><ele>861.0</ele><time>2026-04-26T16:12:40.35Z</time></trkpt><trkpt lat="46.3275242" lon="10.3230796"><ele>859.1999999999999</ele><time>2026-04-26T16:12:41.342Z</time></trkpt><trkpt lat="46.3275784" lon="10.3232025"><ele>857.3999999999999</ele><time>2026-04-26T16:12:42.344Z</time></trkpt><trkpt lat="46.3276251" lon="10.3233352"><ele>855.6</ele><time>2026-04-26T16:12:43.345Z</time></trkpt><trkpt lat="46.3276597" lon="10.3234825"><ele>853.8</ele><time>2026-04-26T16:12:44.344Z</time></trkpt><trkpt lat="46.3276779" lon="10.3236111"><ele>852.0</ele><time>2026-04-26T16:12:45.343Z</time></trkpt><trkpt lat="46.3276932" lon="10.3237486"><ele>852.0</ele><time>2026-04-26T16:12:46.346Z</time></trkpt><trkpt lat="46.3277026" lon="10.3238827"><ele>852.0</ele><time>2026-04-26T16:12:47.346Z</time></trkpt><trkpt lat="46.32771" lon="10.3240144"><ele>852.0</ele><time>2026-04-26T16:12:48.346Z</time></trkpt><trkpt lat="46.3277227" lon="10.3241404"><ele>852.0</ele><time>2026-04-26T16:12:49.348Z</time></trkpt><trkpt lat="46.3277282" lon="10.3242498"><ele>852.0</ele><time>2026-04-26T16:12:50.35Z</time></trkpt><trkpt lat="46.3277291" lon="10.3243428"><ele>852.0</ele><time>2026-04-26T16:12:51.343Z</time></trkpt><trkpt lat="46.3277784" lon="10.3244711"><ele>852.0</ele><time>2026-04-26T16:12:53.345Z</time></trkpt><trkpt lat="46.3278782" lon="10.3245213"><ele>852.0</ele><time>2026-04-26T16:12:55.343Z</time></trkpt><trkpt lat="46.3279613" lon="10.3245928"><ele>852.0</ele><time>2026-04-26T16:12:57.343Z</time></trkpt><trkpt lat="46.3279939" lon="10.3246786"><ele>852.0</ele><time>2026-04-26T16:12:58.344Z</time></trkpt><trkpt lat="46.3280162" lon="10.3247789"><ele>852.0</ele><time>2026-04-26T16:12:59.347Z</time></trkpt><trkpt lat="46.3280432" lon="10.3248973"><ele>852.0</ele><time>2026-04-26T16:13:00.342Z</time></trkpt><trkpt lat="46.3280667" lon="10.3250274"><ele>853.2</ele><time>2026-04-26T16:13:01.348Z</time></trkpt><trkpt lat="46.3280938" lon="10.3251645"><ele>854.4000000000001</ele><time>2026-04-26T16:13:02.347Z</time></trkpt><trkpt lat="46.3281267" lon="10.3253022"><ele>855.5999999999999</ele><time>2026-04-26T16:13:03.348Z</time></trkpt><trkpt lat="46.3281594" lon="10.3254287"><ele>856.8</ele><time>2026-04-26T16:13:04.347Z</time></trkpt><trkpt lat="46.3281902" lon="10.3255455"><ele>858.0</ele><time>2026-04-26T16:13:05.348Z</time></trkpt><trkpt lat="46.3282126" lon="10.3256494"><ele>858.5999999999999</ele><time>2026-04-26T16:13:06.348Z</time></trkpt><trkpt lat="46.3282328" lon="10.3258091"><ele>859.1999999999999</ele><time>2026-04-26T16:13:08.347Z</time></trkpt><trkpt lat="46.3281594" lon="10.3258628"><ele>859.8</ele><time>2026-04-26T16:13:17.347Z</time></trkpt><trkpt lat="46.3280394" lon="10.325812"><ele>860.4</ele><time>2026-04-26T16:13:19.347Z</time></trkpt><trkpt lat="46.3279668" lon="10.3257827"><ele>861.0</ele><time>2026-04-26T16:13:20.351Z</time></trkpt><trkpt lat="46.3278932" lon="10.3257531"><ele>859.8</ele><time>2026-04-26T16:13:21.344Z</time></trkpt><trkpt lat="46.327819" lon="10.3257289"><ele>858.5999999999999</ele><time>2026-04-26T16:13:22.345Z</time></trkpt><trkpt lat="46.3277416" lon="10.3257017"><ele>857.4</ele><time>2026-04-26T16:13:23.346Z</time></trkpt><trkpt lat="46.3276403" lon="10.3256774"><ele>856.2</ele><time>2026-04-26T16:13:24.349Z</time></trkpt><trkpt lat="46.3275252" lon="10.3256444"><ele>855.0</ele><time>2026-04-26T16:13:25.346Z</time></trkpt><trkpt lat="46.3274209" lon="10.3256118"><ele>855.0</ele><time>2026-04-26T16:13:26.346Z</time></trkpt><trkpt lat="46.3273271" lon="10.3255792"><ele>855.0</ele><time>2026-04-26T16:13:27.344Z</time></trkpt><trkpt lat="46.327241" lon="10.3255568"><ele>855.0</ele><time>2026-04-26T16:13:28.348Z</time></trkpt><trkpt lat="46.327162" lon="10.3255394"><ele>855.0</ele><time>2026-04-26T16:13:29.343Z</time></trkpt><trkpt lat="46.3270922" lon="10.3255185"><ele>855.0</ele><time>2026-04-26T16:13:30.344Z</time></trkpt><trkpt lat="46.3270239" lon="10.3255049"><ele>855.0</ele><time>2026-04-26T16:13:31.347Z</time></trkpt><trkpt lat="46.3269558" lon="10.3254836"><ele>854.8333333333334</ele><time>2026-04-26T16:13:32.346Z</time></trkpt><trkpt lat="46.3268958" lon="10.3254521"><ele>854.6666666666667</ele><time>2026-04-26T16:13:33.344Z</time></trkpt><trkpt lat="46.3268377" lon="10.3254077"><ele>854.5</ele><time>2026-04-26T16:13:34.345Z</time></trkpt><trkpt lat="46.3267517" lon="10.3253"><ele>854.3333333333334</ele><time>2026-04-26T16:13:36.345Z</time></trkpt><trkpt lat="46.3266922" lon="10.325215"><ele>854.1666666666667</ele><time>2026-04-26T16:13:38.347Z</time></trkpt><trkpt lat="46.3266341" lon="10.3251376"><ele>854.0</ele><time>2026-04-26T16:13:40.348Z</time></trkpt><trkpt lat="46.3265935" lon="10.3250004"><ele>854.0</ele><time>2026-04-26T16:13:42.346Z</time></trkpt><trkpt lat="46.3265817" lon="10.3248749"><ele>854.0</ele><time>2026-04-26T16:13:43.349Z</time></trkpt><trkpt lat="46.3265746" lon="10.32471"><ele>854.0</ele><time>2026-04-26T16:13:44.347Z</time></trkpt><trkpt lat="46.3265648" lon="10.324523"><ele>854.0</ele><time>2026-04-26T16:13:45.344Z</time></trkpt><trkpt lat="46.3265479" lon="10.3243205"><ele>853.0</ele><time>2026-04-26T16:13:46.342Z</time></trkpt><trkpt lat="46.3265216" lon="10.3241224"><ele>852.0</ele><time>2026-04-26T16:13:47.345Z</time></trkpt><trkpt lat="46.3264906" lon="10.3239212"><ele>851.0</ele><time>2026-04-26T16:13:48.344Z</time></trkpt><trkpt lat="46.3264513" lon="10.323711"><ele>850.0</ele><time>2026-04-26T16:13:49.35Z</time></trkpt><trkpt lat="46.3264058" lon="10.3235025"><ele>850.0</ele><time>2026-04-26T16:13:50.341Z</time></trkpt><trkpt lat="46.3263567" lon="10.323291"><ele>850.0</ele><time>2026-04-26T16:13:51.343Z</time></trkpt><trkpt lat="46.3263022" lon="10.323085"><ele>850.0</ele><time>2026-04-26T16:13:52.347Z</time></trkpt><trkpt lat="46.3262471" lon="10.3228592"><ele>850.0</ele><time>2026-04-26T16:13:53.352Z</time></trkpt><trkpt lat="46.326188" lon="10.3226354"><ele>850.0</ele><time>2026-04-26T16:13:54.346Z</time></trkpt><trkpt lat="46.3261271" lon="10.3224159"><ele>850.0</ele><time>2026-04-26T16:13:55.35Z</time></trkpt><trkpt lat="46.3260705" lon="10.3222171"><ele>849.25</ele><time>2026-04-26T16:13:56.345Z</time></trkpt><trkpt lat="46.3260107" lon="10.3220372"><ele>848.5</ele><time>2026-04-26T16:13:57.344Z</time></trkpt><trkpt lat="46.3259394" lon="10.3218998"><ele>847.75</ele><time>2026-04-26T16:13:58.349Z</time></trkpt><trkpt lat="46.3258738" lon="10.3217669"><ele>847.0</ele><time>2026-04-26T16:13:59.344Z</time></trkpt><trkpt lat="46.3258176" lon="10.3216344"><ele>846.9999999999999</ele><time>2026-04-26T16:14:00.346Z</time></trkpt><trkpt lat="46.3257692" lon="10.3215027"><ele>847.0</ele><time>2026-04-26T16:14:01.344Z</time></trkpt><trkpt lat="46.3257284" lon="10.3213962"><ele>847.0</ele><time>2026-04-26T16:14:02.345Z</time></trkpt><trkpt lat="46.3257028" lon="10.321302"><ele>847.0</ele><time>2026-04-26T16:14:03.351Z</time></trkpt><trkpt lat="46.3256626" lon="10.3212308"><ele>846.9999999999999</ele><time>2026-04-26T16:14:04.349Z</time></trkpt><trkpt lat="46.3255917" lon="10.3211082"><ele>847.0</ele><time>2026-04-26T16:14:06.347Z</time></trkpt><trkpt lat="46.3255672" lon="10.3210048"><ele>846.9999999999999</ele><time>2026-04-26T16:14:08.347Z</time></trkpt><trkpt lat="46.3255905" lon="10.3209167"><ele>847.0</ele><time>2026-04-26T16:16:58.349Z</time></trkpt><trkpt lat="46.3255468" lon="10.3210018"><ele>847.0</ele><time>2026-04-26T16:17:01.355Z</time></trkpt><trkpt lat="46.3255981" lon="10.3211472"><ele>847.0</ele><time>2026-04-26T16:17:03.344Z</time></trkpt><trkpt lat="46.3256659" lon="10.3212476"><ele>846.9999999999999</ele><time>2026-04-26T16:17:05.347Z</time></trkpt><trkpt lat="46.3257179" lon="10.3213202"><ele>847.0</ele><time>2026-04-26T16:17:06.347Z</time></trkpt><trkpt lat="46.325766" lon="10.3214125"><ele>847.0</ele><time>2026-04-26T16:17:07.347Z</time></trkpt><trkpt lat="46.325821" lon="10.3215303"><ele>847.0</ele><time>2026-04-26T16:17:08.344Z</time></trkpt><trkpt lat="46.3258613" lon="10.3216889"><ele>847.0</ele><time>2026-04-26T16:17:09.346Z</time></trkpt><trkpt lat="46.3259226" lon="10.321827"><ele>847.0</ele><time>2026-04-26T16:17:10.345Z</time></trkpt><trkpt lat="46.3259972" lon="10.3219638"><ele>847.0</ele><time>2026-04-26T16:17:11.342Z</time></trkpt><trkpt lat="46.3260509" lon="10.3221279"><ele>848.0</ele><time>2026-04-26T16:17:12.349Z</time></trkpt><trkpt lat="46.3260873" lon="10.3223392"><ele>849.0</ele><time>2026-04-26T16:17:13.344Z</time></trkpt><trkpt lat="46.3261343" lon="10.3225538"><ele>850.0</ele><time>2026-04-26T16:17:14.346Z</time></trkpt><trkpt lat="46.3261855" lon="10.3227713"><ele>850.0</ele><time>2026-04-26T16:17:15.344Z</time></trkpt><trkpt lat="46.3262398" lon="10.3229901"><ele>850.0</ele><time>2026-04-26T16:17:16.344Z</time></trkpt><trkpt lat="46.3262951" lon="10.3232126"><ele>850.0</ele><time>2026-04-26T16:17:17.343Z</time></trkpt><trkpt lat="46.3263514" lon="10.3234281"><ele>850.0</ele><time>2026-04-26T16:17:18.343Z</time></trkpt><trkpt lat="46.3264007" lon="10.3236527"><ele>850.0</ele><time>2026-04-26T16:17:19.344Z</time></trkpt><trkpt lat="46.3264415" lon="10.3238747"><ele>850.0</ele><time>2026-04-26T16:17:20.342Z</time></trkpt><trkpt lat="46.3264753" lon="10.3241039"><ele>850.0</ele><time>2026-04-26T16:17:21.353Z</time></trkpt><trkpt lat="46.3265058" lon="10.3243328"><ele>850.0</ele><time>2026-04-26T16:17:22.342Z</time></trkpt><trkpt lat="46.326529" lon="10.3245674"><ele>850.0</ele><time>2026-04-26T16:17:23.347Z</time></trkpt><trkpt lat="46.3265495" lon="10.3247956"><ele>851.3333333333333</ele><time>2026-04-26T16:17:24.344Z</time></trkpt><trkpt lat="46.3265662" lon="10.3250235"><ele>852.6666666666667</ele><time>2026-04-26T16:17:25.346Z</time></trkpt><trkpt lat="46.3265787" lon="10.3252414"><ele>854.0</ele><time>2026-04-26T16:17:26.341Z</time></trkpt><trkpt lat="46.326583" lon="10.3254581"><ele>854.0</ele><time>2026-04-26T16:17:27.354Z</time></trkpt><trkpt lat="46.3265876" lon="10.3256656"><ele>854.0</ele><time>2026-04-26T16:17:28.345Z</time></trkpt><trkpt lat="46.3265884" lon="10.3258758"><ele>854.0</ele><time>2026-04-26T16:17:29.345Z</time></trkpt><trkpt lat="46.3265888" lon="10.3260619"><ele>854.0</ele><time>2026-04-26T16:17:30.348Z</time></trkpt><trkpt lat="46.3265734" lon="10.3262593"><ele>854.25</ele><time>2026-04-26T16:17:31.344Z</time></trkpt><trkpt lat="46.3265312" lon="10.326441"><ele>854.5</ele><time>2026-04-26T16:17:32.348Z</time></trkpt><trkpt lat="46.3264724" lon="10.326598"><ele>854.75</ele><time>2026-04-26T16:17:33.346Z</time></trkpt><trkpt lat="46.3263939" lon="10.3267714"><ele>855.0</ele><time>2026-04-26T16:17:34.347Z</time></trkpt><trkpt lat="46.3263208" lon="10.3269178"><ele>856.3333333333333</ele><time>2026-04-26T16:17:35.345Z</time></trkpt><trkpt lat="46.3262378" lon="10.3270908"><ele>857.6666666666666</ele><time>2026-04-26T16:17:36.343Z</time></trkpt><trkpt lat="46.32615" lon="10.3272835"><ele>859.0</ele><time>2026-04-26T16:17:37.346Z</time></trkpt><trkpt lat="46.32606" lon="10.3274704"><ele>859.3333333333333</ele><time>2026-04-26T16:17:38.347Z</time></trkpt><trkpt lat="46.3259698" lon="10.3276655"><ele>859.6666666666667</ele><time>2026-04-26T16:17:39.346Z</time></trkpt><trkpt lat="46.3258844" lon="10.3278695"><ele>860.0</ele><time>2026-04-26T16:17:40.348Z</time></trkpt><trkpt lat="46.3258084" lon="10.3280813"><ele>860.0</ele><time>2026-04-26T16:17:41.346Z</time></trkpt><trkpt lat="46.3257376" lon="10.3282976"><ele>860.0</ele><time>2026-04-26T16:17:42.346Z</time></trkpt><trkpt lat="46.325683" lon="10.3285226"><ele>860.0</ele><time>2026-04-26T16:17:43.348Z</time></trkpt><trkpt lat="46.3256498" lon="10.3287533"><ele>860.6666666666667</ele><time>2026-04-26T16:17:44.347Z</time></trkpt><trkpt lat="46.3256378" lon="10.3289777"><ele>861.3333333333333</ele><time>2026-04-26T16:17:45.345Z</time></trkpt><trkpt lat="46.3256429" lon="10.3291992"><ele>862.0</ele><time>2026-04-26T16:17:46.345Z</time></trkpt><trkpt lat="46.3256581" lon="10.3294262"><ele>862.0</ele><time>2026-04-26T16:17:47.344Z</time></trkpt><trkpt lat="46.3256763" lon="10.3296507"><ele>862.0</ele><time>2026-04-26T16:17:48.345Z</time></trkpt><trkpt lat="46.3256932" lon="10.3298773"><ele>862.0</ele><time>2026-04-26T16:17:49.343Z</time></trkpt><trkpt lat="46.3257113" lon="10.3301"><ele>862.0</ele><time>2026-04-26T16:17:50.345Z</time></trkpt><trkpt lat="46.3257287" lon="10.3303229"><ele>862.0</ele><time>2026-04-26T16:17:51.345Z</time></trkpt><trkpt lat="46.3257447" lon="10.3305483"><ele>862.0</ele><time>2026-04-26T16:17:52.345Z</time></trkpt><trkpt lat="46.3257604" lon="10.3307744"><ele>863.0</ele><time>2026-04-26T16:17:53.348Z</time></trkpt><trkpt lat="46.3257742" lon="10.3310021"><ele>864.0</ele><time>2026-04-26T16:17:54.343Z</time></trkpt><trkpt lat="46.3257695" lon="10.3312346"><ele>865.0</ele><time>2026-04-26T16:17:55.343Z</time></trkpt><trkpt lat="46.3257482" lon="10.3314571"><ele>865.6666666666666</ele><time>2026-04-26T16:17:56.348Z</time></trkpt><trkpt lat="46.3257081" lon="10.3316798"><ele>866.3333333333333</ele><time>2026-04-26T16:17:57.345Z</time></trkpt><trkpt lat="46.3256675" lon="10.3319014"><ele>867.0</ele><time>2026-04-26T16:17:58.342Z</time></trkpt><trkpt lat="46.3256331" lon="10.3321298"><ele>866.6666666666667</ele><time>2026-04-26T16:17:59.345Z</time></trkpt><trkpt lat="46.3255974" lon="10.3323539"><ele>866.3333333333334</ele><time>2026-04-26T16:18:00.346Z</time></trkpt><trkpt lat="46.3255653" lon="10.3325675"><ele>866.0</ele><time>2026-04-26T16:18:01.348Z</time></trkpt><trkpt lat="46.3255352" lon="10.3327716"><ele>868.25</ele><time>2026-04-26T16:18:02.346Z</time></trkpt><trkpt lat="46.3255148" lon="10.3329748"><ele>870.5</ele><time>2026-04-26T16:18:03.344Z</time></trkpt><trkpt lat="46.3255013" lon="10.3331832"><ele>872.75</ele><time>2026-04-26T16:18:04.345Z</time></trkpt><trkpt lat="46.3254979" lon="10.3333902"><ele>875.0</ele><time>2026-04-26T16:18:05.345Z</time></trkpt><trkpt lat="46.3255086" lon="10.3335899"><ele>874.25</ele><time>2026-04-26T16:18:06.346Z</time></trkpt><trkpt lat="46.325526" lon="10.3337942"><ele>873.5</ele><time>2026-04-26T16:18:07.342Z</time></trkpt><trkpt lat="46.3255535" lon="10.3339955"><ele>872.75</ele><time>2026-04-26T16:18:08.342Z</time></trkpt><trkpt lat="46.3255804" lon="10.3341973"><ele>872.0</ele><time>2026-04-26T16:18:09.346Z</time></trkpt><trkpt lat="46.3256057" lon="10.3343976"><ele>872.0</ele><time>2026-04-26T16:18:10.341Z</time></trkpt><trkpt lat="46.3256373" lon="10.3345833"><ele>872.0</ele><time>2026-04-26T16:18:11.349Z</time></trkpt><trkpt lat="46.3256658" lon="10.33475"><ele>872.0</ele><time>2026-04-26T16:18:12.346Z</time></trkpt><trkpt lat="46.3256925" lon="10.3348871"><ele>872.0</ele><time>2026-04-26T16:18:13.348Z</time></trkpt><trkpt lat="46.3257122" lon="10.33501"><ele>872.0</ele><time>2026-04-26T16:18:14.35Z</time></trkpt><trkpt lat="46.3257298" lon="10.3351098"><ele>872.8</ele><time>2026-04-26T16:18:15.342Z</time></trkpt><trkpt lat="46.3257543" lon="10.3352579"><ele>873.6</ele><time>2026-04-26T16:18:17.354Z</time></trkpt><trkpt lat="46.3257648" lon="10.3354001"><ele>874.3999999999999</ele><time>2026-04-26T16:18:19.348Z</time></trkpt><trkpt lat="46.3257852" lon="10.3355508"><ele>875.1999999999999</ele><time>2026-04-26T16:18:21.379Z</time></trkpt><trkpt lat="46.3257968" lon="10.335659"><ele>876.0</ele><time>2026-04-26T16:18:22.344Z</time></trkpt><trkpt lat="46.3258026" lon="10.335789"><ele>876.5</ele><time>2026-04-26T16:18:23.356Z</time></trkpt><trkpt lat="46.3258108" lon="10.3359492"><ele>877.0</ele><time>2026-04-26T16:18:24.344Z</time></trkpt><trkpt lat="46.3258218" lon="10.3361611"><ele>877.5</ele><time>2026-04-26T16:18:25.349Z</time></trkpt><trkpt lat="46.3258452" lon="10.3364067"><ele>878.0</ele><time>2026-04-26T16:18:26.346Z</time></trkpt><trkpt lat="46.3258764" lon="10.3366721"><ele>879.3333333333334</ele><time>2026-04-26T16:18:27.345Z</time></trkpt><trkpt lat="46.3259271" lon="10.336944"><ele>880.6666666666667</ele><time>2026-04-26T16:18:28.349Z</time></trkpt><trkpt lat="46.3260058" lon="10.3372279"><ele>882.0</ele><time>2026-04-26T16:18:29.343Z</time></trkpt><trkpt lat="46.3260952" lon="10.3375046"><ele>884.3333333333333</ele><time>2026-04-26T16:18:30.343Z</time></trkpt><trkpt lat="46.3261994" lon="10.337775"><ele>886.6666666666666</ele><time>2026-04-26T16:18:31.343Z</time></trkpt><trkpt lat="46.3263137" lon="10.3380327"><ele>889.0</ele><time>2026-04-26T16:18:32.342Z</time></trkpt><trkpt lat="46.3264343" lon="10.3382854"><ele>889.0</ele><time>2026-04-26T16:18:33.352Z</time></trkpt><trkpt lat="46.3265685" lon="10.3385409"><ele>889.0</ele><time>2026-04-26T16:18:34.344Z</time></trkpt><trkpt lat="46.326708" lon="10.3387911"><ele>889.0</ele><time>2026-04-26T16:18:35.35Z</time></trkpt><trkpt lat="46.326854" lon="10.3390397"><ele>892.5</ele><time>2026-04-26T16:18:36.343Z</time></trkpt><trkpt lat="46.3270018" lon="10.3392858"><ele>896.0</ele><time>2026-04-26T16:18:37.34Z</time></trkpt><trkpt lat="46.3271467" lon="10.3395418"><ele>895.0</ele><time>2026-04-26T16:18:38.352Z</time></trkpt><trkpt lat="46.3272927" lon="10.3397931"><ele>894.0</ele><time>2026-04-26T16:18:39.347Z</time></trkpt><trkpt lat="46.3274391" lon="10.3400404"><ele>894.0</ele><time>2026-04-26T16:18:40.341Z</time></trkpt><trkpt lat="46.3275812" lon="10.3402941"><ele>894.0</ele><time>2026-04-26T16:18:41.341Z</time></trkpt><trkpt lat="46.3277202" lon="10.3405495"><ele>893.0</ele><time>2026-04-26T16:18:42.341Z</time></trkpt><trkpt lat="46.3278616" lon="10.3407976"><ele>892.0</ele><time>2026-04-26T16:18:43.346Z</time></trkpt><trkpt lat="46.3280012" lon="10.3410512"><ele>891.0</ele><time>2026-04-26T16:18:44.352Z</time></trkpt><trkpt lat="46.3281357" lon="10.3413115"><ele>893.3333333333333</ele><time>2026-04-26T16:18:45.341Z</time></trkpt><trkpt lat="46.328275" lon="10.3415782"><ele>895.6666666666666</ele><time>2026-04-26T16:18:46.356Z</time></trkpt><trkpt lat="46.3284057" lon="10.3418232"><ele>898.0</ele><time>2026-04-26T16:18:47.346Z</time></trkpt><trkpt lat="46.3285369" lon="10.3420942"><ele>900.0</ele><time>2026-04-26T16:18:48.348Z</time></trkpt><trkpt lat="46.3286683" lon="10.3423592"><ele>902.0</ele><time>2026-04-26T16:18:49.341Z</time></trkpt><trkpt lat="46.3288004" lon="10.3426225"><ele>901.6666666666667</ele><time>2026-04-26T16:18:50.343Z</time></trkpt><trkpt lat="46.3289348" lon="10.3428795"><ele>901.3333333333333</ele><time>2026-04-26T16:18:51.345Z</time></trkpt><trkpt lat="46.3290686" lon="10.343138"><ele>901.0</ele><time>2026-04-26T16:18:52.346Z</time></trkpt><trkpt lat="46.3291932" lon="10.3433913"><ele>901.3333333333333</ele><time>2026-04-26T16:18:53.345Z</time></trkpt><trkpt lat="46.3293081" lon="10.3436643"><ele>901.6666666666667</ele><time>2026-04-26T16:18:54.343Z</time></trkpt><trkpt lat="46.329418" lon="10.3439343"><ele>902.0</ele><time>2026-04-26T16:18:55.341Z</time></trkpt><trkpt lat="46.3295232" lon="10.3442096"><ele>902.0</ele><time>2026-04-26T16:18:56.345Z</time></trkpt><trkpt lat="46.3296193" lon="10.3444878"><ele>902.0</ele><time>2026-04-26T16:18:57.341Z</time></trkpt><trkpt lat="46.329713" lon="10.3447762"><ele>902.0</ele><time>2026-04-26T16:18:58.345Z</time></trkpt><trkpt lat="46.3298159" lon="10.3450622"><ele>902.0</ele><time>2026-04-26T16:18:59.342Z</time></trkpt><trkpt lat="46.3299256" lon="10.3453396"><ele>902.0</ele><time>2026-04-26T16:19:00.347Z</time></trkpt><trkpt lat="46.3300317" lon="10.3456123"><ele>902.0</ele><time>2026-04-26T16:19:01.341Z</time></trkpt><trkpt lat="46.3301398" lon="10.3458716"><ele>902.0</ele><time>2026-04-26T16:19:02.342Z</time></trkpt><trkpt lat="46.3302527" lon="10.3461232"><ele>902.0</ele><time>2026-04-26T16:19:03.344Z</time></trkpt><trkpt lat="46.3303721" lon="10.3463752"><ele>902.0</ele><time>2026-04-26T16:19:04.344Z</time></trkpt><trkpt lat="46.3304901" lon="10.3466331"><ele>901.3333333333334</ele><time>2026-04-26T16:19:05.346Z</time></trkpt><trkpt lat="46.3306125" lon="10.3468868"><ele>900.6666666666667</ele><time>2026-04-26T16:19:06.346Z</time></trkpt><trkpt lat="46.3307363" lon="10.3471359"><ele>900.0</ele><time>2026-04-26T16:19:07.351Z</time></trkpt><trkpt lat="46.3308644" lon="10.3473831"><ele>900.0</ele><time>2026-04-26T16:19:08.392Z</time></trkpt><trkpt lat="46.3309899" lon="10.3476344"><ele>900.0</ele><time>2026-04-26T16:19:09.347Z</time></trkpt><trkpt lat="46.3311133" lon="10.3478799"><ele>900.0</ele><time>2026-04-26T16:19:10.348Z</time></trkpt><trkpt lat="46.3312392" lon="10.3481174"><ele>900.6666666666667</ele><time>2026-04-26T16:19:11.346Z</time></trkpt><trkpt lat="46.331374" lon="10.3483369"><ele>901.3333333333334</ele><time>2026-04-26T16:19:12.349Z</time></trkpt><trkpt lat="46.3315199" lon="10.3485398"><ele>902.0</ele><time>2026-04-26T16:19:13.341Z</time></trkpt><trkpt lat="46.3316717" lon="10.3487241"><ele>903.6666666666667</ele><time>2026-04-26T16:19:14.343Z</time></trkpt><trkpt lat="46.3318251" lon="10.3488813"><ele>905.3333333333333</ele><time>2026-04-26T16:19:15.347Z</time></trkpt><trkpt lat="46.3319723" lon="10.3490293"><ele>907.0</ele><time>2026-04-26T16:19:16.344Z</time></trkpt><trkpt lat="46.3321223" lon="10.3491642"><ele>907.3333333333333</ele><time>2026-04-26T16:19:17.341Z</time></trkpt><trkpt lat="46.3322735" lon="10.3492928"><ele>907.6666666666667</ele><time>2026-04-26T16:19:18.347Z</time></trkpt><trkpt lat="46.3324335" lon="10.3493929"><ele>908.0</ele><time>2026-04-26T16:19:19.343Z</time></trkpt><trkpt lat="46.332607" lon="10.3494583"><ele>908.0</ele><time>2026-04-26T16:19:20.344Z</time></trkpt><trkpt lat="46.3327872" lon="10.3494795"><ele>908.0</ele><time>2026-04-26T16:19:21.344Z</time></trkpt><trkpt lat="46.3329717" lon="10.3494537"><ele>908.0</ele><time>2026-04-26T16:19:22.345Z</time></trkpt><trkpt lat="46.333158" lon="10.3493948"><ele>908.3333333333334</ele><time>2026-04-26T16:19:23.346Z</time></trkpt><trkpt lat="46.3333474" lon="10.3493338"><ele>908.6666666666667</ele><time>2026-04-26T16:19:24.342Z</time></trkpt><trkpt lat="46.3335355" lon="10.3492799"><ele>909.0</ele><time>2026-04-26T16:19:25.348Z</time></trkpt><trkpt lat="46.333731" lon="10.3492486"><ele>910.0</ele><time>2026-04-26T16:19:26.347Z</time></trkpt><trkpt lat="46.3339251" lon="10.3492589"><ele>911.0</ele><time>2026-04-26T16:19:27.344Z</time></trkpt><trkpt lat="46.3341187" lon="10.3492815"><ele>912.0</ele><time>2026-04-26T16:19:28.342Z</time></trkpt><trkpt lat="46.3343125" lon="10.3493063"><ele>912.0</ele><time>2026-04-26T16:19:29.347Z</time></trkpt><trkpt lat="46.334497" lon="10.3493314"><ele>912.0</ele><time>2026-04-26T16:19:30.345Z</time></trkpt><trkpt lat="46.3346892" lon="10.3493435"><ele>912.0</ele><time>2026-04-26T16:19:31.343Z</time></trkpt><trkpt lat="46.3348802" lon="10.3493736"><ele>913.0</ele><time>2026-04-26T16:19:32.348Z</time></trkpt><trkpt lat="46.3350628" lon="10.3494005"><ele>914.0</ele><time>2026-04-26T16:19:33.345Z</time></trkpt><trkpt lat="46.3352484" lon="10.3494311"><ele>915.0</ele><time>2026-04-26T16:19:34.347Z</time></trkpt><trkpt lat="46.3354371" lon="10.3494776"><ele>916.3333333333333</ele><time>2026-04-26T16:19:35.345Z</time></trkpt><trkpt lat="46.335628" lon="10.3495193"><ele>917.6666666666666</ele><time>2026-04-26T16:19:36.344Z</time></trkpt><trkpt lat="46.3358244" lon="10.3495652"><ele>919.0</ele><time>2026-04-26T16:19:37.344Z</time></trkpt><trkpt lat="46.3360158" lon="10.3496006"><ele>919.0</ele><time>2026-04-26T16:19:38.347Z</time></trkpt><trkpt lat="46.3362178" lon="10.3496344"><ele>919.0</ele><time>2026-04-26T16:19:39.35Z</time></trkpt><trkpt lat="46.3364148" lon="10.3496418"><ele>919.0</ele><time>2026-04-26T16:19:40.341Z</time></trkpt><trkpt lat="46.3366157" lon="10.3496539"><ele>918.6666666666666</ele><time>2026-04-26T16:19:41.343Z</time></trkpt><trkpt lat="46.3368121" lon="10.3496662"><ele>918.3333333333333</ele><time>2026-04-26T16:19:42.346Z</time></trkpt><trkpt lat="46.3370158" lon="10.3496736"><ele>918.0</ele><time>2026-04-26T16:19:43.342Z</time></trkpt><trkpt lat="46.3372254" lon="10.3496923"><ele>921.0</ele><time>2026-04-26T16:19:44.343Z</time></trkpt><trkpt lat="46.3374325" lon="10.3497163"><ele>924.0</ele><time>2026-04-26T16:19:45.35Z</time></trkpt><trkpt lat="46.3376429" lon="10.3497506"><ele>927.0</ele><time>2026-04-26T16:19:46.344Z</time></trkpt><trkpt lat="46.3378504" lon="10.3498006"><ele>928.6666666666667</ele><time>2026-04-26T16:19:47.349Z</time></trkpt><trkpt lat="46.3380539" lon="10.3498529"><ele>930.3333333333334</ele><time>2026-04-26T16:19:48.345Z</time></trkpt><trkpt lat="46.3382635" lon="10.3499007"><ele>932.0</ele><time>2026-04-26T16:19:49.347Z</time></trkpt><trkpt lat="46.3384692" lon="10.3499465"><ele>932.0</ele><time>2026-04-26T16:19:50.341Z</time></trkpt><trkpt lat="46.3386762" lon="10.3500027"><ele>932.0</ele><time>2026-04-26T16:19:51.346Z</time></trkpt><trkpt lat="46.3388826" lon="10.3500663"><ele>932.0</ele><time>2026-04-26T16:19:52.344Z</time></trkpt><trkpt lat="46.3390926" lon="10.3501358"><ele>931.3333333333334</ele><time>2026-04-26T16:19:53.341Z</time></trkpt><trkpt lat="46.3393034" lon="10.3502121"><ele>930.6666666666667</ele><time>2026-04-26T16:19:54.347Z</time></trkpt><trkpt lat="46.3395172" lon="10.3502896"><ele>930.0</ele><time>2026-04-26T16:19:55.342Z</time></trkpt><trkpt lat="46.3397316" lon="10.3503643"><ele>929.6666666666667</ele><time>2026-04-26T16:19:56.341Z</time></trkpt><trkpt lat="46.339945" lon="10.3504456"><ele>929.3333333333334</ele><time>2026-04-26T16:19:57.348Z</time></trkpt><trkpt lat="46.3401607" lon="10.3505212"><ele>929.0</ele><time>2026-04-26T16:19:58.343Z</time></trkpt><trkpt lat="46.340375" lon="10.3505964"><ele>930.3333333333334</ele><time>2026-04-26T16:19:59.342Z</time></trkpt><trkpt lat="46.3405865" lon="10.3506682"><ele>931.6666666666667</ele><time>2026-04-26T16:20:00.344Z</time></trkpt><trkpt lat="46.3407978" lon="10.3507404"><ele>933.0</ele><time>2026-04-26T16:20:01.348Z</time></trkpt><trkpt lat="46.341011" lon="10.3508164"><ele>933.0</ele><time>2026-04-26T16:20:02.343Z</time></trkpt><trkpt lat="46.3412242" lon="10.3508848"><ele>933.0</ele><time>2026-04-26T16:20:03.343Z</time></trkpt><trkpt lat="46.3414243" lon="10.3509343"><ele>933.0</ele><time>2026-04-26T16:20:04.344Z</time></trkpt><trkpt lat="46.3416241" lon="10.3509588"><ele>932.6666666666667</ele><time>2026-04-26T16:20:05.344Z</time></trkpt><trkpt lat="46.3418294" lon="10.3509504"><ele>932.3333333333334</ele><time>2026-04-26T16:20:06.343Z</time></trkpt><trkpt lat="46.3420352" lon="10.3509174"><ele>932.0</ele><time>2026-04-26T16:20:07.342Z</time></trkpt><trkpt lat="46.3422424" lon="10.3508775"><ele>932.0</ele><time>2026-04-26T16:20:08.349Z</time></trkpt><trkpt lat="46.3424521" lon="10.3508323"><ele>932.0</ele><time>2026-04-26T16:20:09.342Z</time></trkpt><trkpt lat="46.3426638" lon="10.3507902"><ele>932.0</ele><time>2026-04-26T16:20:10.344Z</time></trkpt><trkpt lat="46.3428754" lon="10.3507444"><ele>933.3333333333334</ele><time>2026-04-26T16:20:11.343Z</time></trkpt><trkpt lat="46.3430838" lon="10.3507013"><ele>934.6666666666667</ele><time>2026-04-26T16:20:12.347Z</time></trkpt><trkpt lat="46.3432937" lon="10.3506636"><ele>936.0</ele><time>2026-04-26T16:20:13.343Z</time></trkpt><trkpt lat="46.3435004" lon="10.3506298"><ele>936.0</ele><time>2026-04-26T16:20:14.344Z</time></trkpt><trkpt lat="46.3437053" lon="10.3506099"><ele>936.0</ele><time>2026-04-26T16:20:15.341Z</time></trkpt><trkpt lat="46.3439071" lon="10.3506225"><ele>936.0</ele><time>2026-04-26T16:20:16.349Z</time></trkpt><trkpt lat="46.3440958" lon="10.350674"><ele>936.6666666666667</ele><time>2026-04-26T16:20:17.344Z</time></trkpt><trkpt lat="46.3442657" lon="10.3507374"><ele>937.3333333333334</ele><time>2026-04-26T16:20:18.345Z</time></trkpt><trkpt lat="46.3444165" lon="10.3508271"><ele>938.0</ele><time>2026-04-26T16:20:19.342Z</time></trkpt><trkpt lat="46.3445383" lon="10.3509264"><ele>938.0</ele><time>2026-04-26T16:20:20.342Z</time></trkpt><trkpt lat="46.344646" lon="10.3509826"><ele>938.0</ele><time>2026-04-26T16:20:21.342Z</time></trkpt><trkpt lat="46.3447618" lon="10.3509864"><ele>938.0</ele><time>2026-04-26T16:20:22.341Z</time></trkpt><trkpt lat="46.3448773" lon="10.3509591"><ele>938.0</ele><time>2026-04-26T16:20:23.344Z</time></trkpt><trkpt lat="46.3449864" lon="10.3509455"><ele>938.3333333333334</ele><time>2026-04-26T16:20:24.348Z</time></trkpt><trkpt lat="46.3451226" lon="10.3509911"><ele>938.6666666666667</ele><time>2026-04-26T16:20:25.341Z</time></trkpt><trkpt lat="46.3452652" lon="10.3510758"><ele>939.0</ele><time>2026-04-26T16:20:26.34Z</time></trkpt><trkpt lat="46.3454134" lon="10.3511909"><ele>938.6666666666667</ele><time>2026-04-26T16:20:27.342Z</time></trkpt><trkpt lat="46.3455717" lon="10.3512833"><ele>938.3333333333334</ele><time>2026-04-26T16:20:28.345Z</time></trkpt><trkpt lat="46.3457123" lon="10.351361"><ele>938.0</ele><time>2026-04-26T16:20:29.342Z</time></trkpt><trkpt lat="46.3458292" lon="10.3514597"><ele>939.0</ele><time>2026-04-26T16:20:30.347Z</time></trkpt><trkpt lat="46.3459174" lon="10.351585"><ele>940.0</ele><time>2026-04-26T16:20:31.345Z</time></trkpt><trkpt lat="46.3460013" lon="10.3517117"><ele>941.0</ele><time>2026-04-26T16:20:32.348Z</time></trkpt><trkpt lat="46.346044" lon="10.3518844"><ele>942.0</ele><time>2026-04-26T16:20:33.343Z</time></trkpt><trkpt lat="46.346086" lon="10.3520564"><ele>942.0</ele><time>2026-04-26T16:20:34.344Z</time></trkpt><trkpt lat="46.3461082" lon="10.3521616"><ele>942.0</ele><time>2026-04-26T16:20:35.344Z</time></trkpt><trkpt lat="46.3461694" lon="10.3522581"><ele>942.0</ele><time>2026-04-26T16:20:36.345Z</time></trkpt><trkpt lat="46.3462659" lon="10.3523447"><ele>942.0</ele><time>2026-04-26T16:20:37.348Z</time></trkpt><trkpt lat="46.3463871" lon="10.3524241"><ele>942.0</ele><time>2026-04-26T16:20:38.345Z</time></trkpt><trkpt lat="46.3465184" lon="10.352531"><ele>944.3333333333333</ele><time>2026-04-26T16:20:39.348Z</time></trkpt><trkpt lat="46.3466605" lon="10.3526439"><ele>946.6666666666666</ele><time>2026-04-26T16:20:40.346Z</time></trkpt><trkpt lat="46.346811" lon="10.352766"><ele>949.0</ele><time>2026-04-26T16:20:41.344Z</time></trkpt><trkpt lat="46.3469705" lon="10.3528953"><ele>949.0</ele><time>2026-04-26T16:20:42.34Z</time></trkpt><trkpt lat="46.3471368" lon="10.3530254"><ele>949.0</ele><time>2026-04-26T16:20:43.348Z</time></trkpt><trkpt lat="46.3473158" lon="10.353161"><ele>949.0</ele><time>2026-04-26T16:20:44.344Z</time></trkpt><trkpt lat="46.3475037" lon="10.3533017"><ele>948.6666666666666</ele><time>2026-04-26T16:20:45.345Z</time></trkpt><trkpt lat="46.3477043" lon="10.353427"><ele>948.3333333333333</ele><time>2026-04-26T16:20:46.347Z</time></trkpt><trkpt lat="46.3479104" lon="10.3535476"><ele>948.0</ele><time>2026-04-26T16:20:47.349Z</time></trkpt><trkpt lat="46.3481217" lon="10.353661"><ele>948.0</ele><time>2026-04-26T16:20:48.343Z</time></trkpt><trkpt lat="46.3483273" lon="10.3537716"><ele>948.0</ele><time>2026-04-26T16:20:49.342Z</time></trkpt><trkpt lat="46.3485166" lon="10.3538951"><ele>948.0</ele><time>2026-04-26T16:20:50.347Z</time></trkpt><trkpt lat="46.3486913" lon="10.3540165"><ele>948.75</ele><time>2026-04-26T16:20:51.341Z</time></trkpt><trkpt lat="46.3488431" lon="10.3541268"><ele>949.5</ele><time>2026-04-26T16:20:52.345Z</time></trkpt><trkpt lat="46.3489647" lon="10.3542235"><ele>950.25</ele><time>2026-04-26T16:20:53.349Z</time></trkpt><trkpt lat="46.3490687" lon="10.3543185"><ele>951.0</ele><time>2026-04-26T16:20:54.343Z</time></trkpt><trkpt lat="46.3491419" lon="10.3544394"><ele>951.0</ele><time>2026-04-26T16:20:55.346Z</time></trkpt><trkpt lat="46.3491733" lon="10.3545836"><ele>950.9999999999999</ele><time>2026-04-26T16:20:56.345Z</time></trkpt><trkpt lat="46.3491802" lon="10.3547344"><ele>950.9999999999999</ele><time>2026-04-26T16:20:57.342Z</time></trkpt><trkpt lat="46.3492067" lon="10.3548878"><ele>951.0</ele><time>2026-04-26T16:20:58.34Z</time></trkpt><trkpt lat="46.3492622" lon="10.3550136"><ele>951.0</ele><time>2026-04-26T16:20:59.341Z</time></trkpt><trkpt lat="46.3493397" lon="10.3550959"><ele>951.0</ele><time>2026-04-26T16:21:00.346Z</time></trkpt><trkpt lat="46.3494284" lon="10.3551297"><ele>951.0</ele><time>2026-04-26T16:21:01.342Z</time></trkpt><trkpt lat="46.3495146" lon="10.3550996"><ele>951.0</ele><time>2026-04-26T16:21:02.345Z</time></trkpt><trkpt lat="46.3495856" lon="10.3550229"><ele>951.0</ele><time>2026-04-26T16:21:03.35Z</time></trkpt><trkpt lat="46.3496545" lon="10.3549384"><ele>951.0</ele><time>2026-04-26T16:21:04.347Z</time></trkpt><trkpt lat="46.3497331" lon="10.3548842"><ele>951.0</ele><time>2026-04-26T16:21:05.347Z</time></trkpt><trkpt lat="46.349818" lon="10.3548952"><ele>951.0</ele><time>2026-04-26T16:21:06.349Z</time></trkpt><trkpt lat="46.3499108" lon="10.3549049"><ele>950.9999999999999</ele><time>2026-04-26T16:21:07.343Z</time></trkpt><trkpt lat="46.3499924" lon="10.3548585"><ele>950.9999999999999</ele><time>2026-04-26T16:21:08.367Z</time></trkpt><trkpt lat="46.3500618" lon="10.3547694"><ele>951.0</ele><time>2026-04-26T16:21:09.341Z</time></trkpt><trkpt lat="46.3501301" lon="10.3546336"><ele>951.0</ele><time>2026-04-26T16:21:10.349Z</time></trkpt><trkpt lat="46.3501995" lon="10.3544843"><ele>950.8</ele><time>2026-04-26T16:21:11.346Z</time></trkpt><trkpt lat="46.3502662" lon="10.3543553"><ele>950.5999999999999</ele><time>2026-04-26T16:21:12.341Z</time></trkpt><trkpt lat="46.3503528" lon="10.3542879"><ele>950.4</ele><time>2026-04-26T16:21:13.347Z</time></trkpt><trkpt lat="46.350449" lon="10.354286"><ele>950.2</ele><time>2026-04-26T16:21:14.351Z</time></trkpt><trkpt lat="46.350558" lon="10.354341"><ele>950.0</ele><time>2026-04-26T16:21:15.339Z</time></trkpt><trkpt lat="46.3506719" lon="10.3544262"><ele>949.75</ele><time>2026-04-26T16:21:16.349Z</time></trkpt><trkpt lat="46.350788" lon="10.3545419"><ele>949.5</ele><time>2026-04-26T16:21:17.348Z</time></trkpt><trkpt lat="46.3509059" lon="10.354669"><ele>949.25</ele><time>2026-04-26T16:21:18.351Z</time></trkpt><trkpt lat="46.3510283" lon="10.3548009"><ele>949.0</ele><time>2026-04-26T16:21:19.341Z</time></trkpt><trkpt lat="46.3511571" lon="10.3549239"><ele>949.0</ele><time>2026-04-26T16:21:20.35Z</time></trkpt><trkpt lat="46.3512867" lon="10.3550358"><ele>949.0</ele><time>2026-04-26T16:21:21.342Z</time></trkpt><trkpt lat="46.3514139" lon="10.3551373"><ele>949.0</ele><time>2026-04-26T16:21:22.343Z</time></trkpt><trkpt lat="46.3515376" lon="10.355233"><ele>949.0</ele><time>2026-04-26T16:21:23.344Z</time></trkpt><trkpt lat="46.3516588" lon="10.3553124"><ele>952.5</ele><time>2026-04-26T16:21:24.342Z</time></trkpt><trkpt lat="46.3517887" lon="10.3553817"><ele>956.0</ele><time>2026-04-26T16:21:25.342Z</time></trkpt><trkpt lat="46.3519112" lon="10.3554316"><ele>959.5</ele><time>2026-04-26T16:21:26.341Z</time></trkpt><trkpt lat="46.352026" lon="10.3554763"><ele>963.0</ele><time>2026-04-26T16:21:27.345Z</time></trkpt><trkpt lat="46.3521495" lon="10.3555287"><ele>961.25</ele><time>2026-04-26T16:21:28.345Z</time></trkpt><trkpt lat="46.3522741" lon="10.3556047"><ele>959.5</ele><time>2026-04-26T16:21:29.347Z</time></trkpt><trkpt lat="46.3523958" lon="10.3556929"><ele>957.75</ele><time>2026-04-26T16:21:30.351Z</time></trkpt><trkpt lat="46.35252" lon="10.3557907"><ele>956.0</ele><time>2026-04-26T16:21:31.348Z</time></trkpt><trkpt lat="46.3526503" lon="10.3558842"><ele>956.0</ele><time>2026-04-26T16:21:32.35Z</time></trkpt><trkpt lat="46.3527726" lon="10.3559758"><ele>956.0</ele><time>2026-04-26T16:21:33.354Z</time></trkpt><trkpt lat="46.352908" lon="10.3560753"><ele>956.0</ele><time>2026-04-26T16:21:34.343Z</time></trkpt><trkpt lat="46.3530545" lon="10.35618"><ele>956.6666666666667</ele><time>2026-04-26T16:21:35.344Z</time></trkpt><trkpt lat="46.3532038" lon="10.3562979"><ele>957.3333333333333</ele><time>2026-04-26T16:21:36.343Z</time></trkpt><trkpt lat="46.3533577" lon="10.3564106"><ele>958.0</ele><time>2026-04-26T16:21:37.345Z</time></trkpt><trkpt lat="46.3535055" lon="10.356512"><ele>956.6666666666666</ele><time>2026-04-26T16:21:38.344Z</time></trkpt><trkpt lat="46.3536571" lon="10.3566184"><ele>955.3333333333333</ele><time>2026-04-26T16:21:39.346Z</time></trkpt><trkpt lat="46.3538077" lon="10.3566709"><ele>954.0</ele><time>2026-04-26T16:21:40.346Z</time></trkpt><trkpt lat="46.3539793" lon="10.3566851"><ele>954.0</ele><time>2026-04-26T16:21:41.348Z</time></trkpt><trkpt lat="46.3541542" lon="10.3566644"><ele>954.0</ele><time>2026-04-26T16:21:42.342Z</time></trkpt><trkpt lat="46.3543343" lon="10.3566062"><ele>954.0</ele><time>2026-04-26T16:21:43.343Z</time></trkpt><trkpt lat="46.3545164" lon="10.3565241"><ele>954.0</ele><time>2026-04-26T16:21:44.343Z</time></trkpt><trkpt lat="46.3546977" lon="10.3564194"><ele>954.0</ele><time>2026-04-26T16:21:45.347Z</time></trkpt><trkpt lat="46.3548756" lon="10.356312"><ele>954.0</ele><time>2026-04-26T16:21:46.348Z</time></trkpt><trkpt lat="46.3550526" lon="10.3562001"><ele>958.0</ele><time>2026-04-26T16:21:47.34Z</time></trkpt><trkpt lat="46.3552224" lon="10.3560847"><ele>962.0</ele><time>2026-04-26T16:21:48.346Z</time></trkpt><trkpt lat="46.3553771" lon="10.3559622"><ele>966.0</ele><time>2026-04-26T16:21:49.35Z</time></trkpt><trkpt lat="46.355525" lon="10.3558329"><ele>966.0</ele><time>2026-04-26T16:21:50.348Z</time></trkpt><trkpt lat="46.3556553" lon="10.3556832"><ele>966.0</ele><time>2026-04-26T16:21:51.342Z</time></trkpt><trkpt lat="46.355771" lon="10.3555075"><ele>966.0</ele><time>2026-04-26T16:21:52.343Z</time></trkpt><trkpt lat="46.3558677" lon="10.3552973"><ele>966.0</ele><time>2026-04-26T16:21:53.343Z</time></trkpt><trkpt lat="46.3559577" lon="10.3550639"><ele>966.0</ele><time>2026-04-26T16:21:54.344Z</time></trkpt><trkpt lat="46.3560492" lon="10.3548299"><ele>966.0</ele><time>2026-04-26T16:21:55.348Z</time></trkpt><trkpt lat="46.3561355" lon="10.354612"><ele>966.3333333333333</ele><time>2026-04-26T16:21:56.344Z</time></trkpt><trkpt lat="46.3562478" lon="10.354428"><ele>966.6666666666666</ele><time>2026-04-26T16:21:57.349Z</time></trkpt><trkpt lat="46.3563784" lon="10.3542806"><ele>967.0</ele><time>2026-04-26T16:21:58.345Z</time></trkpt><trkpt lat="46.3565281" lon="10.3541533"><ele>967.0</ele><time>2026-04-26T16:21:59.348Z</time></trkpt><trkpt lat="46.3566793" lon="10.3540674"><ele>967.0</ele><time>2026-04-26T16:22:00.351Z</time></trkpt><trkpt lat="46.356853" lon="10.3540312"><ele>967.0</ele><time>2026-04-26T16:22:01.344Z</time></trkpt><trkpt lat="46.3570341" lon="10.3540547"><ele>967.6666666666666</ele><time>2026-04-26T16:22:02.349Z</time></trkpt><trkpt lat="46.3572295" lon="10.3540613"><ele>968.3333333333333</ele><time>2026-04-26T16:22:03.35Z</time></trkpt><trkpt lat="46.3574257" lon="10.3540627"><ele>969.0</ele><time>2026-04-26T16:22:04.347Z</time></trkpt><trkpt lat="46.3576171" lon="10.3540903"><ele>969.0</ele><time>2026-04-26T16:22:05.343Z</time></trkpt><trkpt lat="46.3577933" lon="10.3541259"><ele>969.0</ele><time>2026-04-26T16:22:06.345Z</time></trkpt><trkpt lat="46.3579587" lon="10.354188"><ele>969.0</ele><time>2026-04-26T16:22:07.344Z</time></trkpt><trkpt lat="46.358115" lon="10.3542668"><ele>968.6666666666667</ele><time>2026-04-26T16:22:08.348Z</time></trkpt><trkpt lat="46.3582539" lon="10.3544171"><ele>968.3333333333334</ele><time>2026-04-26T16:22:09.342Z</time></trkpt><trkpt lat="46.3583807" lon="10.3545886"><ele>968.0</ele><time>2026-04-26T16:22:10.343Z</time></trkpt><trkpt lat="46.3584961" lon="10.3547767"><ele>968.0</ele><time>2026-04-26T16:22:11.347Z</time></trkpt><trkpt lat="46.3585827" lon="10.3549929"><ele>968.0</ele><time>2026-04-26T16:22:12.343Z</time></trkpt><trkpt lat="46.358678" lon="10.3551824"><ele>968.0</ele><time>2026-04-26T16:22:13.345Z</time></trkpt><trkpt lat="46.3587869" lon="10.3553403"><ele>968.0</ele><time>2026-04-26T16:22:14.344Z</time></trkpt><trkpt lat="46.3589168" lon="10.3554769"><ele>968.0</ele><time>2026-04-26T16:22:15.344Z</time></trkpt><trkpt lat="46.3590645" lon="10.3555642"><ele>968.0</ele><time>2026-04-26T16:22:16.342Z</time></trkpt><trkpt lat="46.3592364" lon="10.3555798"><ele>968.0</ele><time>2026-04-26T16:22:17.344Z</time></trkpt><trkpt lat="46.3594136" lon="10.3555566"><ele>968.0</ele><time>2026-04-26T16:22:18.346Z</time></trkpt><trkpt lat="46.3595868" lon="10.3554699"><ele>968.0</ele><time>2026-04-26T16:22:19.347Z</time></trkpt><trkpt lat="46.3597617" lon="10.3553708"><ele>969.0</ele><time>2026-04-26T16:22:20.349Z</time></trkpt><trkpt lat="46.359932" lon="10.3552736"><ele>970.0</ele><time>2026-04-26T16:22:21.346Z</time></trkpt><trkpt lat="46.3600768" lon="10.355127"><ele>971.0</ele><time>2026-04-26T16:22:22.346Z</time></trkpt><trkpt lat="46.3602352" lon="10.3549962"><ele>971.0</ele><time>2026-04-26T16:22:23.348Z</time></trkpt><trkpt lat="46.3603983" lon="10.3549209"><ele>971.0</ele><time>2026-04-26T16:22:24.346Z</time></trkpt><trkpt lat="46.3605857" lon="10.3548723"><ele>971.0</ele><time>2026-04-26T16:22:25.342Z</time></trkpt><trkpt lat="46.3607745" lon="10.3548429"><ele>969.6666666666667</ele><time>2026-04-26T16:22:26.346Z</time></trkpt><trkpt lat="46.3609676" lon="10.3548245"><ele>968.3333333333333</ele><time>2026-04-26T16:22:27.345Z</time></trkpt><trkpt lat="46.3611659" lon="10.3548068"><ele>967.0</ele><time>2026-04-26T16:22:28.343Z</time></trkpt><trkpt lat="46.3613693" lon="10.3547874"><ele>967.0</ele><time>2026-04-26T16:22:29.346Z</time></trkpt><trkpt lat="46.3615756" lon="10.3547714"><ele>967.0</ele><time>2026-04-26T16:22:30.349Z</time></trkpt><trkpt lat="46.3617847" lon="10.3547511"><ele>967.0</ele><time>2026-04-26T16:22:31.348Z</time></trkpt><trkpt lat="46.3620017" lon="10.3547307"><ele>966.6666666666666</ele><time>2026-04-26T16:22:32.347Z</time></trkpt><trkpt lat="46.3622161" lon="10.354716"><ele>966.3333333333333</ele><time>2026-04-26T16:22:33.345Z</time></trkpt><trkpt lat="46.3624359" lon="10.3547089"><ele>966.0</ele><time>2026-04-26T16:22:34.346Z</time></trkpt><trkpt lat="46.3626563" lon="10.354704"><ele>967.6666666666667</ele><time>2026-04-26T16:22:35.345Z</time></trkpt><trkpt lat="46.3628749" lon="10.3546947"><ele>969.3333333333334</ele><time>2026-04-26T16:22:36.349Z</time></trkpt><trkpt lat="46.3630931" lon="10.3546889"><ele>971.0</ele><time>2026-04-26T16:22:37.345Z</time></trkpt><trkpt lat="46.363314" lon="10.3546806"><ele>971.5</ele><time>2026-04-26T16:22:38.348Z</time></trkpt><trkpt lat="46.3635387" lon="10.3546725"><ele>972.0</ele><time>2026-04-26T16:22:39.345Z</time></trkpt><trkpt lat="46.3637648" lon="10.3546691"><ele>970.6666666666667</ele><time>2026-04-26T16:22:40.346Z</time></trkpt><trkpt lat="46.3639891" lon="10.3546661"><ele>969.3333333333334</ele><time>2026-04-26T16:22:41.343Z</time></trkpt><trkpt lat="46.3642113" lon="10.3546818"><ele>968.0</ele><time>2026-04-26T16:22:42.346Z</time></trkpt><trkpt lat="46.3644255" lon="10.3547216"><ele>968.0</ele><time>2026-04-26T16:22:43.344Z</time></trkpt><trkpt lat="46.364638" lon="10.3547726"><ele>968.0</ele><time>2026-04-26T16:22:44.348Z</time></trkpt><trkpt lat="46.3648514" lon="10.354846"><ele>968.0</ele><time>2026-04-26T16:22:45.347Z</time></trkpt><trkpt lat="46.3650564" lon="10.3549331"><ele>969.6666666666667</ele><time>2026-04-26T16:22:46.343Z</time></trkpt><trkpt lat="46.3652637" lon="10.3550256"><ele>971.3333333333333</ele><time>2026-04-26T16:22:47.346Z</time></trkpt><trkpt lat="46.3654704" lon="10.3551187"><ele>973.0</ele><time>2026-04-26T16:22:48.352Z</time></trkpt><trkpt lat="46.3656663" lon="10.3552181"><ele>973.6666666666666</ele><time>2026-04-26T16:22:49.348Z</time></trkpt><trkpt lat="46.3658666" lon="10.3553299"><ele>974.3333333333333</ele><time>2026-04-26T16:22:50.342Z</time></trkpt><trkpt lat="46.3660593" lon="10.3554459"><ele>975.0</ele><time>2026-04-26T16:22:51.349Z</time></trkpt><trkpt lat="46.3662501" lon="10.3555684"><ele>976.0</ele><time>2026-04-26T16:22:52.351Z</time></trkpt><trkpt lat="46.3664392" lon="10.3556971"><ele>977.0</ele><time>2026-04-26T16:22:53.341Z</time></trkpt><trkpt lat="46.3666253" lon="10.3558359"><ele>978.0</ele><time>2026-04-26T16:22:54.349Z</time></trkpt><trkpt lat="46.3668092" lon="10.3559807"><ele>978.0</ele><time>2026-04-26T16:22:55.343Z</time></trkpt><trkpt lat="46.3669857" lon="10.3561331"><ele>978.0</ele><time>2026-04-26T16:22:56.34Z</time></trkpt><trkpt lat="46.3671602" lon="10.3562793"><ele>978.0</ele><time>2026-04-26T16:22:57.343Z</time></trkpt><trkpt lat="46.3673223" lon="10.3564094"><ele>979.3333333333333</ele><time>2026-04-26T16:22:58.35Z</time></trkpt><trkpt lat="46.3674923" lon="10.3564881"><ele>980.6666666666666</ele><time>2026-04-26T16:22:59.342Z</time></trkpt><trkpt lat="46.3676634" lon="10.3565392"><ele>982.0</ele><time>2026-04-26T16:23:00.345Z</time></trkpt><trkpt lat="46.3678606" lon="10.3565439"><ele>984.6666666666666</ele><time>2026-04-26T16:23:01.343Z</time></trkpt><trkpt lat="46.3680621" lon="10.3565518"><ele>987.3333333333333</ele><time>2026-04-26T16:23:02.347Z</time></trkpt><trkpt lat="46.3682702" lon="10.3565633"><ele>990.0</ele><time>2026-04-26T16:23:03.343Z</time></trkpt><trkpt lat="46.3684666" lon="10.3565765"><ele>990.0</ele><time>2026-04-26T16:23:04.35Z</time></trkpt><trkpt lat="46.3686455" lon="10.3565922"><ele>990.0</ele><time>2026-04-26T16:23:05.342Z</time></trkpt><trkpt lat="46.3688091" lon="10.3566075"><ele>990.0</ele><time>2026-04-26T16:23:06.347Z</time></trkpt><trkpt lat="46.3689653" lon="10.3566215"><ele>993.0</ele><time>2026-04-26T16:23:07.343Z</time></trkpt><trkpt lat="46.3691263" lon="10.356627"><ele>996.0</ele><time>2026-04-26T16:23:08.346Z</time></trkpt><trkpt lat="46.3692856" lon="10.3566278"><ele>999.0</ele><time>2026-04-26T16:23:09.352Z</time></trkpt><trkpt lat="46.3694432" lon="10.356627"><ele>999.0</ele><time>2026-04-26T16:23:10.349Z</time></trkpt><trkpt lat="46.3696006" lon="10.3566165"><ele>999.0</ele><time>2026-04-26T16:23:11.348Z</time></trkpt><trkpt lat="46.3697424" lon="10.3566023"><ele>999.0</ele><time>2026-04-26T16:23:12.347Z</time></trkpt><trkpt lat="46.3698775" lon="10.356588"><ele>999.0</ele><time>2026-04-26T16:23:13.347Z</time></trkpt><trkpt lat="46.3700149" lon="10.3565858"><ele>1000.25</ele><time>2026-04-26T16:23:14.344Z</time></trkpt><trkpt lat="46.3701423" lon="10.3566203"><ele>1001.5</ele><time>2026-04-26T16:23:15.344Z</time></trkpt><trkpt lat="46.3702794" lon="10.3566754"><ele>1002.75</ele><time>2026-04-26T16:23:16.347Z</time></trkpt><trkpt lat="46.3703995" lon="10.3567787"><ele>1004.0</ele><time>2026-04-26T16:23:17.351Z</time></trkpt><trkpt lat="46.3704996" lon="10.3569085"><ele>1004.0</ele><time>2026-04-26T16:23:18.345Z</time></trkpt><trkpt lat="46.3706027" lon="10.3570418"><ele>1004.0</ele><time>2026-04-26T16:23:19.342Z</time></trkpt><trkpt lat="46.3707149" lon="10.3571564"><ele>1004.0</ele><time>2026-04-26T16:23:20.351Z</time></trkpt><trkpt lat="46.3708467" lon="10.3572496"><ele>1004.0</ele><time>2026-04-26T16:23:21.345Z</time></trkpt><trkpt lat="46.3709736" lon="10.3573231"><ele>1004.0</ele><time>2026-04-26T16:23:22.343Z</time></trkpt><trkpt lat="46.3711135" lon="10.3573611"><ele>1004.0</ele><time>2026-04-26T16:23:23.346Z</time></trkpt><trkpt lat="46.3712438" lon="10.3573704"><ele>1004.0</ele><time>2026-04-26T16:23:24.351Z</time></trkpt><trkpt lat="46.3713556" lon="10.357351"><ele>1004.0</ele><time>2026-04-26T16:23:25.344Z</time></trkpt><trkpt lat="46.3714534" lon="10.3573194"><ele>1005.8000000000001</ele><time>2026-04-26T16:23:26.347Z</time></trkpt><trkpt lat="46.3715405" lon="10.3572599"><ele>1007.6000000000001</ele><time>2026-04-26T16:23:27.346Z</time></trkpt><trkpt lat="46.3716321" lon="10.3572097"><ele>1009.4</ele><time>2026-04-26T16:23:28.343Z</time></trkpt><trkpt lat="46.3717128" lon="10.3571802"><ele>1011.2</ele><time>2026-04-26T16:23:29.349Z</time></trkpt><trkpt lat="46.3718026" lon="10.3571855"><ele>1013.0</ele><time>2026-04-26T16:23:30.346Z</time></trkpt><trkpt lat="46.3718976" lon="10.3572469"><ele>1013.0</ele><time>2026-04-26T16:23:31.346Z</time></trkpt><trkpt lat="46.372003" lon="10.3572958"><ele>1013.0</ele><time>2026-04-26T16:23:32.345Z</time></trkpt><trkpt lat="46.3721007" lon="10.3573265"><ele>1013.0</ele><time>2026-04-26T16:23:33.35Z</time></trkpt><trkpt lat="46.3722036" lon="10.3573456"><ele>1013.0</ele><time>2026-04-26T16:23:34.343Z</time></trkpt><trkpt lat="46.3723285" lon="10.3573541"><ele>1013.0</ele><time>2026-04-26T16:23:35.347Z</time></trkpt><trkpt lat="46.3724698" lon="10.3573494"><ele>1014.0</ele><time>2026-04-26T16:23:36.344Z</time></trkpt><trkpt lat="46.3726102" lon="10.3573453"><ele>1015.0</ele><time>2026-04-26T16:23:37.344Z</time></trkpt><trkpt lat="46.3727302" lon="10.3573042"><ele>1016.0</ele><time>2026-04-26T16:23:38.346Z</time></trkpt><trkpt lat="46.3728562" lon="10.3572543"><ele>1017.0</ele><time>2026-04-26T16:23:39.341Z</time></trkpt><trkpt lat="46.3729787" lon="10.357194"><ele>1018.8</ele><time>2026-04-26T16:23:40.344Z</time></trkpt><trkpt lat="46.3730986" lon="10.3571503"><ele>1020.6</ele><time>2026-04-26T16:23:41.351Z</time></trkpt><trkpt lat="46.3731818" lon="10.3571625"><ele>1022.3999999999999</ele><time>2026-04-26T16:23:42.341Z</time></trkpt><trkpt lat="46.3732784" lon="10.35721"><ele>1024.2</ele><time>2026-04-26T16:23:43.346Z</time></trkpt><trkpt lat="46.3733835" lon="10.3572269"><ele>1026.0</ele><time>2026-04-26T16:23:44.345Z</time></trkpt><trkpt lat="46.3734726" lon="10.3572009"><ele>1036.75</ele><time>2026-04-26T16:23:45.344Z</time></trkpt><trkpt lat="46.373561" lon="10.3571857"><ele>1047.5</ele><time>2026-04-26T16:23:46.34Z</time></trkpt><trkpt lat="46.3736734" lon="10.3571558"><ele>1058.25</ele><time>2026-04-26T16:23:47.347Z</time></trkpt><trkpt lat="46.3738058" lon="10.3571274"><ele>1069.0</ele><time>2026-04-26T16:23:48.343Z</time></trkpt><trkpt lat="46.3739192" lon="10.3570938"><ele>1069.2</ele><time>2026-04-26T16:23:49.347Z</time></trkpt><trkpt lat="46.3740384" lon="10.3571022"><ele>1069.4</ele><time>2026-04-26T16:23:50.35Z</time></trkpt><trkpt lat="46.3741491" lon="10.3571067"><ele>1069.6</ele><time>2026-04-26T16:23:51.344Z</time></trkpt><trkpt lat="46.3742245" lon="10.3571497"><ele>1069.8</ele><time>2026-04-26T16:23:52.339Z</time></trkpt><trkpt lat="46.3743119" lon="10.3571667"><ele>1070.0</ele><time>2026-04-26T16:23:53.342Z</time></trkpt><trkpt lat="46.3744237" lon="10.3571751"><ele>1070.0</ele><time>2026-04-26T16:23:54.343Z</time></trkpt><trkpt lat="46.3745242" lon="10.3571603"><ele>1070.0</ele><time>2026-04-26T16:23:55.346Z</time></trkpt><trkpt lat="46.374628" lon="10.3571892"><ele>1070.0</ele><time>2026-04-26T16:23:56.342Z</time></trkpt><trkpt lat="46.374734" lon="10.357196"><ele>1070.0</ele><time>2026-04-26T16:23:57.344Z</time></trkpt><trkpt lat="46.374854" lon="10.3572388"><ele>1070.0</ele><time>2026-04-26T16:23:58.348Z</time></trkpt><trkpt lat="46.3749833" lon="10.3572699"><ele>1068.25</ele><time>2026-04-26T16:23:59.342Z</time></trkpt><trkpt lat="46.3751312" lon="10.3573004"><ele>1066.5</ele><time>2026-04-26T16:24:00.347Z</time></trkpt><trkpt lat="46.375256" lon="10.3573173"><ele>1064.75</ele><time>2026-04-26T16:24:01.346Z</time></trkpt><trkpt lat="46.3753972" lon="10.3572919"><ele>1063.0</ele><time>2026-04-26T16:24:02.344Z</time></trkpt><trkpt lat="46.3755361" lon="10.3572791"><ele>1063.0</ele><time>2026-04-26T16:24:03.345Z</time></trkpt><trkpt lat="46.375678" lon="10.3572637"><ele>1063.0</ele><time>2026-04-26T16:24:04.342Z</time></trkpt><trkpt lat="46.3758246" lon="10.3572493"><ele>1063.0</ele><time>2026-04-26T16:24:05.346Z</time></trkpt><trkpt lat="46.3759668" lon="10.3572236"><ele>1063.0</ele><time>2026-04-26T16:24:06.344Z</time></trkpt><trkpt lat="46.3761068" lon="10.357208"><ele>1068.25</ele><time>2026-04-26T16:24:07.341Z</time></trkpt><trkpt lat="46.3762496" lon="10.3571906"><ele>1073.5</ele><time>2026-04-26T16:24:08.349Z</time></trkpt><trkpt lat="46.3763695" lon="10.357163"><ele>1078.75</ele><time>2026-04-26T16:24:09.345Z</time></trkpt><trkpt lat="46.3765205" lon="10.3571369"><ele>1084.0</ele><time>2026-04-26T16:24:10.344Z</time></trkpt><trkpt lat="46.3766662" lon="10.3570955"><ele>1084.25</ele><time>2026-04-26T16:24:11.345Z</time></trkpt><trkpt lat="46.3768143" lon="10.3570342"><ele>1084.5</ele><time>2026-04-26T16:24:12.347Z</time></trkpt><trkpt lat="46.3769542" lon="10.3569862"><ele>1084.75</ele><time>2026-04-26T16:24:13.344Z</time></trkpt><trkpt lat="46.3771011" lon="10.3569507"><ele>1085.0</ele><time>2026-04-26T16:24:14.346Z</time></trkpt><trkpt lat="46.3772458" lon="10.3569083"><ele>1085.0</ele><time>2026-04-26T16:24:15.339Z</time></trkpt><trkpt lat="46.3773533" lon="10.3567907"><ele>1085.0</ele><time>2026-04-26T16:24:16.356Z</time></trkpt><trkpt lat="46.3774745" lon="10.3566979"><ele>1085.0</ele><time>2026-04-26T16:24:17.347Z</time></trkpt><trkpt lat="46.3775854" lon="10.3566349"><ele>1085.0</ele><time>2026-04-26T16:24:18.342Z</time></trkpt><trkpt lat="46.3776847" lon="10.3566014"><ele>1085.0</ele><time>2026-04-26T16:24:19.346Z</time></trkpt><trkpt lat="46.3778113" lon="10.3565995"><ele>1085.0</ele><time>2026-04-26T16:24:20.341Z</time></trkpt><trkpt lat="46.3779537" lon="10.3565994"><ele>1085.0</ele><time>2026-04-26T16:24:21.346Z</time></trkpt><trkpt lat="46.378114" lon="10.3565836"><ele>1085.0</ele><time>2026-04-26T16:24:22.343Z</time></trkpt><trkpt lat="46.3782903" lon="10.3565573"><ele>1084.3333333333335</ele><time>2026-04-26T16:24:23.34Z</time></trkpt><trkpt lat="46.3784765" lon="10.3565265"><ele>1083.6666666666667</ele><time>2026-04-26T16:24:24.351Z</time></trkpt><trkpt lat="46.3786616" lon="10.3564813"><ele>1083.0</ele><time>2026-04-26T16:24:25.342Z</time></trkpt><trkpt lat="46.3788443" lon="10.3564297"><ele>1089.3333333333333</ele><time>2026-04-26T16:24:26.345Z</time></trkpt><trkpt lat="46.3790292" lon="10.3563528"><ele>1095.6666666666665</ele><time>2026-04-26T16:24:27.344Z</time></trkpt><trkpt lat="46.3791956" lon="10.3562778"><ele>1102.0</ele><time>2026-04-26T16:24:28.345Z</time></trkpt><trkpt lat="46.3793553" lon="10.3562241"><ele>1102.0</ele><time>2026-04-26T16:24:29.349Z</time></trkpt><trkpt lat="46.3795145" lon="10.3561881"><ele>1102.0</ele><time>2026-04-26T16:24:30.349Z</time></trkpt><trkpt lat="46.3796689" lon="10.3561563"><ele>1102.0</ele><time>2026-04-26T16:24:31.34Z</time></trkpt><trkpt lat="46.3798294" lon="10.3561245"><ele>1102.6666666666665</ele><time>2026-04-26T16:24:32.342Z</time></trkpt><trkpt lat="46.3799801" lon="10.3560936"><ele>1103.3333333333333</ele><time>2026-04-26T16:24:33.347Z</time></trkpt><trkpt lat="46.3801289" lon="10.3560909"><ele>1104.0</ele><time>2026-04-26T16:24:34.354Z</time></trkpt><trkpt lat="46.3803074" lon="10.3560841"><ele>1104.0</ele><time>2026-04-26T16:24:35.352Z</time></trkpt><trkpt lat="46.3804999" lon="10.3560803"><ele>1104.0</ele><time>2026-04-26T16:24:36.344Z</time></trkpt><trkpt lat="46.3807105" lon="10.3560723"><ele>1104.0</ele><time>2026-04-26T16:24:37.344Z</time></trkpt><trkpt lat="46.3809301" lon="10.3560602"><ele>1103.3333333333333</ele><time>2026-04-26T16:24:38.341Z</time></trkpt><trkpt lat="46.3811465" lon="10.3560517"><ele>1102.6666666666665</ele><time>2026-04-26T16:24:39.343Z</time></trkpt><trkpt lat="46.3813679" lon="10.3560338"><ele>1102.0</ele><time>2026-04-26T16:24:40.341Z</time></trkpt><trkpt lat="46.3815778" lon="10.3560135"><ele>1102.0</ele><time>2026-04-26T16:24:41.344Z</time></trkpt><trkpt lat="46.3817991" lon="10.356005"><ele>1102.0</ele><time>2026-04-26T16:24:42.345Z</time></trkpt><trkpt lat="46.3820235" lon="10.3559942"><ele>1102.0</ele><time>2026-04-26T16:24:43.343Z</time></trkpt><trkpt lat="46.3822703" lon="10.3559754"><ele>1102.0</ele><time>2026-04-26T16:24:44.349Z</time></trkpt><trkpt lat="46.3825066" lon="10.3559599"><ele>1102.0</ele><time>2026-04-26T16:24:45.341Z</time></trkpt><trkpt lat="46.3827623" lon="10.3559487"><ele>1102.0</ele><time>2026-04-26T16:24:46.344Z</time></trkpt><trkpt lat="46.383012" lon="10.355934"><ele>1102.0</ele><time>2026-04-26T16:24:47.341Z</time></trkpt><trkpt lat="46.3832722" lon="10.35592"><ele>1103.0</ele><time>2026-04-26T16:24:48.338Z</time></trkpt><trkpt lat="46.3835381" lon="10.3558949"><ele>1104.0</ele><time>2026-04-26T16:24:49.341Z</time></trkpt><trkpt lat="46.3837869" lon="10.3558684"><ele>1103.5</ele><time>2026-04-26T16:24:50.344Z</time></trkpt><trkpt lat="46.3840357" lon="10.3558422"><ele>1103.0</ele><time>2026-04-26T16:24:51.348Z</time></trkpt><trkpt lat="46.3842929" lon="10.3558217"><ele>1103.0</ele><time>2026-04-26T16:24:52.342Z</time></trkpt><trkpt lat="46.3845371" lon="10.3558217"><ele>1103.0</ele><time>2026-04-26T16:24:53.343Z</time></trkpt><trkpt lat="46.3847686" lon="10.3558069"><ele>1103.3333333333335</ele><time>2026-04-26T16:24:54.342Z</time></trkpt><trkpt lat="46.3849941" lon="10.3557905"><ele>1103.6666666666667</ele><time>2026-04-26T16:24:55.344Z</time></trkpt><trkpt lat="46.3852029" lon="10.3557804"><ele>1104.0</ele><time>2026-04-26T16:24:56.344Z</time></trkpt><trkpt lat="46.385419" lon="10.3557559"><ele>1104.0</ele><time>2026-04-26T16:24:57.346Z</time></trkpt><trkpt lat="46.3856497" lon="10.3557325"><ele>1104.0</ele><time>2026-04-26T16:24:58.343Z</time></trkpt><trkpt lat="46.3858693" lon="10.3556966"><ele>1104.0</ele><time>2026-04-26T16:24:59.347Z</time></trkpt><trkpt lat="46.3860736" lon="10.3556543"><ele>1104.0</ele><time>2026-04-26T16:25:00.34Z</time></trkpt><trkpt lat="46.38626" lon="10.355606"><ele>1104.0</ele><time>2026-04-26T16:25:01.349Z</time></trkpt><trkpt lat="46.3864307" lon="10.3555377"><ele>1106.0</ele><time>2026-04-26T16:25:02.35Z</time></trkpt><trkpt lat="46.3866178" lon="10.3554568"><ele>1108.0</ele><time>2026-04-26T16:25:03.345Z</time></trkpt><trkpt lat="46.3868136" lon="10.3553569"><ele>1110.0</ele><time>2026-04-26T16:25:04.344Z</time></trkpt><trkpt lat="46.3870001" lon="10.355246"><ele>1110.0</ele><time>2026-04-26T16:25:05.349Z</time></trkpt><trkpt lat="46.3871729" lon="10.3551392"><ele>1110.0</ele><time>2026-04-26T16:25:06.342Z</time></trkpt><trkpt lat="46.3873599" lon="10.3550184"><ele>1110.0</ele><time>2026-04-26T16:25:07.341Z</time></trkpt><trkpt lat="46.387554" lon="10.354883"><ele>1110.0</ele><time>2026-04-26T16:25:08.345Z</time></trkpt><trkpt lat="46.3877485" lon="10.3547454"><ele>1110.0</ele><time>2026-04-26T16:25:09.343Z</time></trkpt><trkpt lat="46.3879695" lon="10.3545577"><ele>1104.5</ele><time>2026-04-26T16:25:10.344Z</time></trkpt><trkpt lat="46.3881768" lon="10.3543873"><ele>1099.0</ele><time>2026-04-26T16:25:11.345Z</time></trkpt><trkpt lat="46.3883857" lon="10.3542293"><ele>1099.0</ele><time>2026-04-26T16:25:12.346Z</time></trkpt><trkpt lat="46.3885957" lon="10.3540795"><ele>1099.0</ele><time>2026-04-26T16:25:13.341Z</time></trkpt><trkpt lat="46.3888031" lon="10.3539214"><ele>1097.0</ele><time>2026-04-26T16:25:14.343Z</time></trkpt><trkpt lat="46.3889977" lon="10.3537714"><ele>1095.0</ele><time>2026-04-26T16:25:15.35Z</time></trkpt><trkpt lat="46.3891845" lon="10.3536281"><ele>1093.0</ele><time>2026-04-26T16:25:16.343Z</time></trkpt><trkpt lat="46.3893669" lon="10.3534837"><ele>1093.0</ele><time>2026-04-26T16:25:17.348Z</time></trkpt><trkpt lat="46.3895463" lon="10.353335"><ele>1093.0</ele><time>2026-04-26T16:25:18.344Z</time></trkpt><trkpt lat="46.3897258" lon="10.3531905"><ele>1093.0</ele><time>2026-04-26T16:25:19.344Z</time></trkpt><trkpt lat="46.3899061" lon="10.3530409"><ele>1091.6666666666665</ele><time>2026-04-26T16:25:20.37Z</time></trkpt><trkpt lat="46.3900632" lon="10.3528895"><ele>1090.3333333333333</ele><time>2026-04-26T16:25:21.347Z</time></trkpt><trkpt lat="46.3902448" lon="10.3527308"><ele>1089.0</ele><time>2026-04-26T16:25:22.344Z</time></trkpt><trkpt lat="46.3904323" lon="10.3525956"><ele>1088.3333333333333</ele><time>2026-04-26T16:25:23.348Z</time></trkpt><trkpt lat="46.3906263" lon="10.352459"><ele>1087.6666666666665</ele><time>2026-04-26T16:25:24.342Z</time></trkpt><trkpt lat="46.3908048" lon="10.3523328"><ele>1087.0</ele><time>2026-04-26T16:25:25.345Z</time></trkpt><trkpt lat="46.3909719" lon="10.3522203"><ele>1086.6666666666665</ele><time>2026-04-26T16:25:26.341Z</time></trkpt><trkpt lat="46.3911382" lon="10.3521326"><ele>1086.3333333333333</ele><time>2026-04-26T16:25:27.342Z</time></trkpt><trkpt lat="46.3912841" lon="10.3520696"><ele>1086.0</ele><time>2026-04-26T16:25:28.344Z</time></trkpt><trkpt lat="46.3914155" lon="10.3520016"><ele>1085.6666666666667</ele><time>2026-04-26T16:25:29.348Z</time></trkpt><trkpt lat="46.3914829" lon="10.3519468"><ele>1085.3333333333333</ele><time>2026-04-26T16:25:30.352Z</time></trkpt><trkpt lat="46.3915445" lon="10.35185"><ele>1085.0</ele><time>2026-04-26T16:25:31.349Z</time></trkpt><trkpt lat="46.3915929" lon="10.3517017"><ele>1084.6666666666665</ele><time>2026-04-26T16:25:32.341Z</time></trkpt><trkpt lat="46.3916196" lon="10.3515697"><ele>1084.3333333333333</ele><time>2026-04-26T16:25:33.344Z</time></trkpt><trkpt lat="46.3916513" lon="10.3514775"><ele>1084.0</ele><time>2026-04-26T16:25:34.342Z</time></trkpt><trkpt lat="46.3917123" lon="10.3514053"><ele>1084.3333333333333</ele><time>2026-04-26T16:25:35.344Z</time></trkpt><trkpt lat="46.39177" lon="10.3513624"><ele>1084.6666666666665</ele><time>2026-04-26T16:25:36.347Z</time></trkpt><trkpt lat="46.3918697" lon="10.3513126"><ele>1085.0</ele><time>2026-04-26T16:25:38.348Z</time></trkpt><trkpt lat="46.3919515" lon="10.3512907"><ele>1085.3333333333333</ele><time>2026-04-26T16:25:39.342Z</time></trkpt><trkpt lat="46.3920288" lon="10.351288"><ele>1085.6666666666667</ele><time>2026-04-26T16:25:40.35Z</time></trkpt><trkpt lat="46.3921268" lon="10.3513539"><ele>1086.0</ele><time>2026-04-26T16:25:41.344Z</time></trkpt><trkpt lat="46.3922265" lon="10.3513916"><ele>1085.0</ele><time>2026-04-26T16:25:42.339Z</time></trkpt><trkpt lat="46.3923404" lon="10.3513882"><ele>1084.0</ele><time>2026-04-26T16:25:43.344Z</time></trkpt><trkpt lat="46.3924666" lon="10.3513792"><ele>1083.0</ele><time>2026-04-26T16:25:44.354Z</time></trkpt><trkpt lat="46.3926404" lon="10.3513504"><ele>1082.0</ele><time>2026-04-26T16:25:45.348Z</time></trkpt><trkpt lat="46.3928371" lon="10.3513115"><ele>1081.0</ele><time>2026-04-26T16:25:46.347Z</time></trkpt><trkpt lat="46.3930131" lon="10.3513248"><ele>1080.0</ele><time>2026-04-26T16:25:47.34Z</time></trkpt><trkpt lat="46.3931765" lon="10.3513539"><ele>1079.0</ele><time>2026-04-26T16:25:48.346Z</time></trkpt><trkpt lat="46.393349" lon="10.3513802"><ele>1079.0</ele><time>2026-04-26T16:25:49.347Z</time></trkpt><trkpt lat="46.3935093" lon="10.3514257"><ele>1079.0</ele><time>2026-04-26T16:25:50.348Z</time></trkpt><trkpt lat="46.393626" lon="10.3514821"><ele>1079.0</ele><time>2026-04-26T16:25:51.345Z</time></trkpt><trkpt lat="46.3937113" lon="10.351554"><ele>1079.0</ele><time>2026-04-26T16:25:52.343Z</time></trkpt><trkpt lat="46.3937736" lon="10.35164"><ele>1078.25</ele><time>2026-04-26T16:25:53.342Z</time></trkpt><trkpt lat="46.3938483" lon="10.3517259"><ele>1077.5</ele><time>2026-04-26T16:25:54.346Z</time></trkpt><trkpt lat="46.393952" lon="10.3517959"><ele>1076.75</ele><time>2026-04-26T16:25:55.343Z</time></trkpt><trkpt lat="46.3940865" lon="10.3518503"><ele>1076.0</ele><time>2026-04-26T16:25:56.344Z</time></trkpt><trkpt lat="46.394261" lon="10.3518962"><ele>1076.0</ele><time>2026-04-26T16:25:57.342Z</time></trkpt><trkpt lat="46.3944556" lon="10.3519453"><ele>1076.0</ele><time>2026-04-26T16:25:58.341Z</time></trkpt><trkpt lat="46.394666" lon="10.3520024"><ele>1076.0</ele><time>2026-04-26T16:25:59.348Z</time></trkpt><trkpt lat="46.3948878" lon="10.3520679"><ele>1075.6666666666667</ele><time>2026-04-26T16:26:00.34Z</time></trkpt><trkpt lat="46.395106" lon="10.3521345"><ele>1075.3333333333333</ele><time>2026-04-26T16:26:01.346Z</time></trkpt><trkpt lat="46.3953227" lon="10.3521992"><ele>1075.0</ele><time>2026-04-26T16:26:02.34Z</time></trkpt><trkpt lat="46.39552" lon="10.3522519"><ele>1075.0</ele><time>2026-04-26T16:26:03.345Z</time></trkpt><trkpt lat="46.3956992" lon="10.3522995"><ele>1075.0</ele><time>2026-04-26T16:26:04.345Z</time></trkpt><trkpt lat="46.3958674" lon="10.3523365"><ele>1075.0</ele><time>2026-04-26T16:26:05.347Z</time></trkpt><trkpt lat="46.3960214" lon="10.3523702"><ele>1075.0</ele><time>2026-04-26T16:26:06.344Z</time></trkpt><trkpt lat="46.3961637" lon="10.352395"><ele>1075.0</ele><time>2026-04-26T16:26:07.344Z</time></trkpt><trkpt lat="46.3962768" lon="10.3524006"><ele>1075.0</ele><time>2026-04-26T16:26:08.34Z</time></trkpt><trkpt lat="46.3963437" lon="10.3524069"><ele>1075.0</ele><time>2026-04-26T16:26:09.343Z</time></trkpt><trkpt lat="46.3964002" lon="10.3524788"><ele>1075.0</ele><time>2026-04-26T16:26:11.352Z</time></trkpt><trkpt lat="46.396326" lon="10.3525794"><ele>1075.0</ele><time>2026-04-26T16:26:13.342Z</time></trkpt><trkpt lat="46.3962251" lon="10.3526156"><ele>1075.0</ele><time>2026-04-26T16:26:14.351Z</time></trkpt><trkpt lat="46.3961211" lon="10.3526521"><ele>1075.0</ele><time>2026-04-26T16:26:15.349Z</time></trkpt><trkpt lat="46.3960446" lon="10.3527071"><ele>1075.0</ele><time>2026-04-26T16:26:16.345Z</time></trkpt><trkpt lat="46.3959969" lon="10.3528021"><ele>1075.0</ele><time>2026-04-26T16:26:17.353Z</time></trkpt><trkpt lat="46.3959409" lon="10.3529181"><ele>1075.4</ele><time>2026-04-26T16:26:18.344Z</time></trkpt><trkpt lat="46.395933" lon="10.353081"><ele>1075.8</ele><time>2026-04-26T16:26:19.346Z</time></trkpt><trkpt lat="46.3959339" lon="10.3532275"><ele>1076.2</ele><time>2026-04-26T16:26:20.347Z</time></trkpt><trkpt lat="46.3959311" lon="10.3533615"><ele>1076.6</ele><time>2026-04-26T16:26:21.345Z</time></trkpt><trkpt lat="46.3959227" lon="10.3534767"><ele>1077.0</ele><time>2026-04-26T16:26:22.349Z</time></trkpt><trkpt lat="46.3959108" lon="10.353586"><ele>1077.0</ele><time>2026-04-26T16:26:23.341Z</time></trkpt><trkpt lat="46.3958928" lon="10.3537012"><ele>1077.0</ele><time>2026-04-26T16:26:24.343Z</time></trkpt><trkpt lat="46.3958689" lon="10.3538376"><ele>1077.0</ele><time>2026-04-26T16:26:25.348Z</time></trkpt><trkpt lat="46.3958381" lon="10.3540001"><ele>1077.0</ele><time>2026-04-26T16:26:26.342Z</time></trkpt><trkpt lat="46.3957979" lon="10.3541886"><ele>1077.0</ele><time>2026-04-26T16:26:27.346Z</time></trkpt><trkpt lat="46.3957456" lon="10.3543772"><ele>1077.25</ele><time>2026-04-26T16:26:28.343Z</time></trkpt><trkpt lat="46.3956837" lon="10.3545708"><ele>1077.5</ele><time>2026-04-26T16:26:29.342Z</time></trkpt><trkpt lat="46.3956171" lon="10.3547307"><ele>1077.75</ele><time>2026-04-26T16:26:30.35Z</time></trkpt><trkpt lat="46.395578" lon="10.3548443"><ele>1078.0</ele><time>2026-04-26T16:26:31.354Z</time></trkpt><trkpt lat="46.3955932" lon="10.3549971"><ele>1079.4</ele><time>2026-04-26T16:26:33.343Z</time></trkpt><trkpt lat="46.3956984" lon="10.3550683"><ele>1080.8</ele><time>2026-04-26T16:26:35.346Z</time></trkpt><trkpt lat="46.3957929" lon="10.3550522"><ele>1082.2</ele><time>2026-04-26T16:26:36.344Z</time></trkpt><trkpt lat="46.3959012" lon="10.3550447"><ele>1083.6</ele><time>2026-04-26T16:26:37.348Z</time></trkpt><trkpt lat="46.3960153" lon="10.355035"><ele>1085.0</ele><time>2026-04-26T16:26:38.34Z</time></trkpt><trkpt lat="46.3961683" lon="10.3549927"><ele>1087.0</ele><time>2026-04-26T16:26:39.34Z</time></trkpt><trkpt lat="46.3963549" lon="10.3549389"><ele>1089.0</ele><time>2026-04-26T16:26:40.344Z</time></trkpt><trkpt lat="46.3965044" lon="10.354905"><ele>1091.0</ele><time>2026-04-26T16:26:41.344Z</time></trkpt><trkpt lat="46.396639" lon="10.3548812"><ele>1091.0</ele><time>2026-04-26T16:26:42.348Z</time></trkpt><trkpt lat="46.3967436" lon="10.3548919"><ele>1091.0</ele><time>2026-04-26T16:26:43.342Z</time></trkpt><trkpt lat="46.3968389" lon="10.3549145"><ele>1091.0</ele><time>2026-04-26T16:26:44.348Z</time></trkpt><trkpt lat="46.3969401" lon="10.3549465"><ele>1091.0</ele><time>2026-04-26T16:26:45.344Z</time></trkpt><trkpt lat="46.3970571" lon="10.3549831"><ele>1091.0</ele><time>2026-04-26T16:26:46.341Z</time></trkpt><trkpt lat="46.397198" lon="10.3550257"><ele>1092.0</ele><time>2026-04-26T16:26:47.343Z</time></trkpt><trkpt lat="46.3973628" lon="10.3550622"><ele>1093.0</ele><time>2026-04-26T16:26:48.345Z</time></trkpt><trkpt lat="46.3975465" lon="10.3551058"><ele>1094.0</ele><time>2026-04-26T16:26:49.35Z</time></trkpt><trkpt lat="46.3977362" lon="10.3551214"><ele>1094.0</ele><time>2026-04-26T16:26:50.341Z</time></trkpt><trkpt lat="46.3979474" lon="10.3551212"><ele>1094.0</ele><time>2026-04-26T16:26:51.344Z</time></trkpt><trkpt lat="46.3981746" lon="10.3551128"><ele>1094.0</ele><time>2026-04-26T16:26:52.352Z</time></trkpt><trkpt lat="46.3984082" lon="10.3550829"><ele>1096.5</ele><time>2026-04-26T16:26:53.351Z</time></trkpt><trkpt lat="46.3986488" lon="10.3550451"><ele>1099.0</ele><time>2026-04-26T16:26:54.349Z</time></trkpt><trkpt lat="46.3988938" lon="10.3549996"><ele>1099.0</ele><time>2026-04-26T16:26:55.341Z</time></trkpt><trkpt lat="46.3991271" lon="10.3549553"><ele>1099.0</ele><time>2026-04-26T16:26:56.343Z</time></trkpt><trkpt lat="46.3993478" lon="10.3549171"><ele>1099.0</ele><time>2026-04-26T16:26:57.342Z</time></trkpt><trkpt lat="46.3995677" lon="10.3548741"><ele>1099.0</ele><time>2026-04-26T16:26:58.349Z</time></trkpt><trkpt lat="46.3997877" lon="10.3548188"><ele>1099.0</ele><time>2026-04-26T16:26:59.342Z</time></trkpt><trkpt lat="46.4000033" lon="10.3547527"><ele>1090.5</ele><time>2026-04-26T16:27:00.345Z</time></trkpt><trkpt lat="46.4002256" lon="10.3546666"><ele>1082.0</ele><time>2026-04-26T16:27:01.341Z</time></trkpt><trkpt lat="46.4004478" lon="10.3545712"><ele>1083.5</ele><time>2026-04-26T16:27:02.346Z</time></trkpt><trkpt lat="46.4006756" lon="10.3544853"><ele>1085.0</ele><time>2026-04-26T16:27:03.338Z</time></trkpt><trkpt lat="46.4009007" lon="10.354421"><ele>1085.0</ele><time>2026-04-26T16:27:04.342Z</time></trkpt><trkpt lat="46.40113" lon="10.3543702"><ele>1085.0</ele><time>2026-04-26T16:27:05.342Z</time></trkpt><trkpt lat="46.4013563" lon="10.3543248"><ele>1086.3333333333335</ele><time>2026-04-26T16:27:06.341Z</time></trkpt><trkpt lat="46.4015622" lon="10.3542714"><ele>1087.6666666666667</ele><time>2026-04-26T16:27:07.347Z</time></trkpt><trkpt lat="46.40177" lon="10.3542095"><ele>1089.0</ele><time>2026-04-26T16:27:08.342Z</time></trkpt><trkpt lat="46.4019759" lon="10.3541002"><ele>1091.3333333333333</ele><time>2026-04-26T16:27:09.344Z</time></trkpt><trkpt lat="46.4021738" lon="10.3539646"><ele>1093.6666666666665</ele><time>2026-04-26T16:27:10.353Z</time></trkpt><trkpt lat="46.4023281" lon="10.3537605"><ele>1096.0</ele><time>2026-04-26T16:27:11.341Z</time></trkpt><trkpt lat="46.402498" lon="10.3535708"><ele>1093.3333333333333</ele><time>2026-04-26T16:27:12.345Z</time></trkpt><trkpt lat="46.4026778" lon="10.3533866"><ele>1090.6666666666667</ele><time>2026-04-26T16:27:13.347Z</time></trkpt><trkpt lat="46.4028576" lon="10.3532056"><ele>1088.0</ele><time>2026-04-26T16:27:14.345Z</time></trkpt><trkpt lat="46.4030384" lon="10.3530278"><ele>1088.0</ele><time>2026-04-26T16:27:15.348Z</time></trkpt><trkpt lat="46.4032225" lon="10.3528598"><ele>1088.0</ele><time>2026-04-26T16:27:16.345Z</time></trkpt><trkpt lat="46.4033999" lon="10.3526886"><ele>1088.0</ele><time>2026-04-26T16:27:17.34Z</time></trkpt><trkpt lat="46.4035838" lon="10.3525057"><ele>1088.0</ele><time>2026-04-26T16:27:18.347Z</time></trkpt><trkpt lat="46.4037597" lon="10.3523361"><ele>1088.0</ele><time>2026-04-26T16:27:19.353Z</time></trkpt><trkpt lat="46.4039428" lon="10.3521634"><ele>1088.0</ele><time>2026-04-26T16:27:20.352Z</time></trkpt><trkpt lat="46.4041209" lon="10.3520243"><ele>1088.6666666666667</ele><time>2026-04-26T16:27:21.341Z</time></trkpt><trkpt lat="46.4043104" lon="10.3519136"><ele>1089.3333333333333</ele><time>2026-04-26T16:27:22.352Z</time></trkpt><trkpt lat="46.404498" lon="10.3518215"><ele>1090.0</ele><time>2026-04-26T16:27:23.351Z</time></trkpt><trkpt lat="46.404695" lon="10.3517324"><ele>1093.3333333333333</ele><time>2026-04-26T16:27:24.346Z</time></trkpt><trkpt lat="46.4048897" lon="10.3516379"><ele>1096.6666666666667</ele><time>2026-04-26T16:27:25.34Z</time></trkpt><trkpt lat="46.4050826" lon="10.3515482"><ele>1100.0</ele><time>2026-04-26T16:27:26.352Z</time></trkpt><trkpt lat="46.4052766" lon="10.3514467"><ele>1099.3333333333335</ele><time>2026-04-26T16:27:27.341Z</time></trkpt><trkpt lat="46.4054667" lon="10.3513522"><ele>1098.6666666666667</ele><time>2026-04-26T16:27:28.345Z</time></trkpt><trkpt lat="46.4056615" lon="10.3512617"><ele>1098.0</ele><time>2026-04-26T16:27:29.344Z</time></trkpt><trkpt lat="46.4058588" lon="10.3511871"><ele>1098.0</ele><time>2026-04-26T16:27:30.346Z</time></trkpt><trkpt lat="46.4060613" lon="10.3511314"><ele>1098.0</ele><time>2026-04-26T16:27:31.346Z</time></trkpt><trkpt lat="46.4062598" lon="10.3510914"><ele>1098.0</ele><time>2026-04-26T16:27:32.342Z</time></trkpt><trkpt lat="46.4064549" lon="10.3510568"><ele>1101.0</ele><time>2026-04-26T16:27:33.345Z</time></trkpt><trkpt lat="46.4066447" lon="10.3510141"><ele>1104.0</ele><time>2026-04-26T16:27:34.354Z</time></trkpt><trkpt lat="46.40682" lon="10.3509619"><ele>1107.0</ele><time>2026-04-26T16:27:35.344Z</time></trkpt><trkpt lat="46.4069977" lon="10.3509"><ele>1107.0</ele><time>2026-04-26T16:27:36.343Z</time></trkpt><trkpt lat="46.4071555" lon="10.3508638"><ele>1107.0</ele><time>2026-04-26T16:27:37.342Z</time></trkpt><trkpt lat="46.4073048" lon="10.3508344"><ele>1107.0</ele><time>2026-04-26T16:27:38.349Z</time></trkpt><trkpt lat="46.4074393" lon="10.3508084"><ele>1107.0</ele><time>2026-04-26T16:27:39.347Z</time></trkpt><trkpt lat="46.4075567" lon="10.3507946"><ele>1109.25</ele><time>2026-04-26T16:27:40.342Z</time></trkpt><trkpt lat="46.407666" lon="10.3507878"><ele>1111.5</ele><time>2026-04-26T16:27:41.342Z</time></trkpt><trkpt lat="46.4077749" lon="10.3507917"><ele>1113.75</ele><time>2026-04-26T16:27:42.342Z</time></trkpt><trkpt lat="46.4078885" lon="10.3508017"><ele>1116.0</ele><time>2026-04-26T16:27:43.347Z</time></trkpt><trkpt lat="46.4080076" lon="10.3508186"><ele>1116.0</ele><time>2026-04-26T16:27:44.353Z</time></trkpt><trkpt lat="46.4081368" lon="10.3508468"><ele>1116.0</ele><time>2026-04-26T16:27:45.339Z</time></trkpt><trkpt lat="46.4082755" lon="10.3508776"><ele>1116.0</ele><time>2026-04-26T16:27:46.344Z</time></trkpt><trkpt lat="46.4084301" lon="10.3508927"><ele>1116.0</ele><time>2026-04-26T16:27:47.344Z</time></trkpt><trkpt lat="46.4086062" lon="10.3508943"><ele>1116.0</ele><time>2026-04-26T16:27:48.343Z</time></trkpt><trkpt lat="46.4087894" lon="10.350888"><ele>1116.0</ele><time>2026-04-26T16:27:49.344Z</time></trkpt><trkpt lat="46.4089947" lon="10.3508902"><ele>1116.0</ele><time>2026-04-26T16:27:50.346Z</time></trkpt><trkpt lat="46.4092063" lon="10.3508797"><ele>1116.0</ele><time>2026-04-26T16:27:51.344Z</time></trkpt><trkpt lat="46.409426" lon="10.3508614"><ele>1116.0</ele><time>2026-04-26T16:27:52.341Z</time></trkpt><trkpt lat="46.4096504" lon="10.3508452"><ele>1116.0</ele><time>2026-04-26T16:27:53.341Z</time></trkpt><trkpt lat="46.4098762" lon="10.3508262"><ele>1116.0</ele><time>2026-04-26T16:27:54.345Z</time></trkpt><trkpt lat="46.4101017" lon="10.3508129"><ele>1116.0</ele><time>2026-04-26T16:27:55.343Z</time></trkpt><trkpt lat="46.4103192" lon="10.3508094"><ele>1116.0</ele><time>2026-04-26T16:27:56.344Z</time></trkpt><trkpt lat="46.4105365" lon="10.3508074"><ele>1118.3333333333333</ele><time>2026-04-26T16:27:57.34Z</time></trkpt><trkpt lat="46.4107438" lon="10.3508097"><ele>1120.6666666666665</ele><time>2026-04-26T16:27:58.344Z</time></trkpt><trkpt lat="46.410939" lon="10.3508149"><ele>1123.0</ele><time>2026-04-26T16:27:59.34Z</time></trkpt><trkpt lat="46.4116222" lon="10.3507371"><ele>1125.6666666666665</ele><time>2026-04-26T16:28:03.343Z</time></trkpt><trkpt lat="46.4117876" lon="10.3507051"><ele>1128.3333333333333</ele><time>2026-04-26T16:28:04.346Z</time></trkpt><trkpt lat="46.4119483" lon="10.3506748"><ele>1131.0</ele><time>2026-04-26T16:28:05.351Z</time></trkpt><trkpt lat="46.4121107" lon="10.350649"><ele>1131.0</ele><time>2026-04-26T16:28:06.339Z</time></trkpt><trkpt lat="46.4122801" lon="10.3506395"><ele>1131.0</ele><time>2026-04-26T16:28:07.344Z</time></trkpt><trkpt lat="46.4124516" lon="10.3506299"><ele>1131.0</ele><time>2026-04-26T16:28:08.344Z</time></trkpt><trkpt lat="46.4126331" lon="10.3506532"><ele>1131.0</ele><time>2026-04-26T16:28:09.346Z</time></trkpt><trkpt lat="46.412815" lon="10.3506715"><ele>1131.0</ele><time>2026-04-26T16:28:10.345Z</time></trkpt><trkpt lat="46.4130044" lon="10.3506882"><ele>1131.0</ele><time>2026-04-26T16:28:11.345Z</time></trkpt><trkpt lat="46.4132003" lon="10.3507055"><ele>1131.0</ele><time>2026-04-26T16:28:12.356Z</time></trkpt><trkpt lat="46.4133999" lon="10.3507347"><ele>1131.0</ele><time>2026-04-26T16:28:13.344Z</time></trkpt><trkpt lat="46.4135935" lon="10.3507536"><ele>1131.0</ele><time>2026-04-26T16:28:14.346Z</time></trkpt><trkpt lat="46.4137914" lon="10.3508404"><ele>1129.0</ele><time>2026-04-26T16:28:15.345Z</time></trkpt><trkpt lat="46.4139943" lon="10.3509312"><ele>1127.0</ele><time>2026-04-26T16:28:16.347Z</time></trkpt><trkpt lat="46.4141908" lon="10.3510417"><ele>1125.0</ele><time>2026-04-26T16:28:17.347Z</time></trkpt><trkpt lat="46.4143841" lon="10.3511701"><ele>1125.0</ele><time>2026-04-26T16:28:18.344Z</time></trkpt><trkpt lat="46.4145696" lon="10.3512955"><ele>1125.0</ele><time>2026-04-26T16:28:19.34Z</time></trkpt><trkpt lat="46.4147559" lon="10.351414"><ele>1125.0</ele><time>2026-04-26T16:28:20.347Z</time></trkpt><trkpt lat="46.4149384" lon="10.3515333"><ele>1125.3333333333333</ele><time>2026-04-26T16:28:21.343Z</time></trkpt><trkpt lat="46.4151263" lon="10.3516676"><ele>1125.6666666666665</ele><time>2026-04-26T16:28:22.35Z</time></trkpt><trkpt lat="46.4153189" lon="10.3517938"><ele>1126.0</ele><time>2026-04-26T16:28:23.34Z</time></trkpt><trkpt lat="46.4155081" lon="10.3519318"><ele>1124.0</ele><time>2026-04-26T16:28:24.342Z</time></trkpt><trkpt lat="46.4157041" lon="10.3520709"><ele>1122.0</ele><time>2026-04-26T16:28:25.342Z</time></trkpt><trkpt lat="46.415919" lon="10.3522122"><ele>1122.0</ele><time>2026-04-26T16:28:26.346Z</time></trkpt><trkpt lat="46.4161331" lon="10.3523531"><ele>1122.0</ele><time>2026-04-26T16:28:27.348Z</time></trkpt><trkpt lat="46.4163396" lon="10.3524725"><ele>1118.5</ele><time>2026-04-26T16:28:28.344Z</time></trkpt><trkpt lat="46.4165598" lon="10.3525733"><ele>1115.0</ele><time>2026-04-26T16:28:29.342Z</time></trkpt><trkpt lat="46.4168019" lon="10.3526533"><ele>1115.0</ele><time>2026-04-26T16:28:30.347Z</time></trkpt><trkpt lat="46.4170629" lon="10.3527273"><ele>1115.0</ele><time>2026-04-26T16:28:31.345Z</time></trkpt><trkpt lat="46.4173421" lon="10.352801"><ele>1114.0</ele><time>2026-04-26T16:28:32.344Z</time></trkpt><trkpt lat="46.4176384" lon="10.3528749"><ele>1113.0</ele><time>2026-04-26T16:28:33.35Z</time></trkpt><trkpt lat="46.4179484" lon="10.3529612"><ele>1113.5</ele><time>2026-04-26T16:28:34.346Z</time></trkpt><trkpt lat="46.418246" lon="10.3530449"><ele>1114.0</ele><time>2026-04-26T16:28:35.34Z</time></trkpt><trkpt lat="46.4185262" lon="10.353121"><ele>1114.0</ele><time>2026-04-26T16:28:36.349Z</time></trkpt><trkpt lat="46.4187919" lon="10.3531895"><ele>1114.0</ele><time>2026-04-26T16:28:37.343Z</time></trkpt><trkpt lat="46.4190394" lon="10.353253"><ele>1115.0</ele><time>2026-04-26T16:28:38.342Z</time></trkpt><trkpt lat="46.4192728" lon="10.3533191"><ele>1116.0</ele><time>2026-04-26T16:28:39.342Z</time></trkpt><trkpt lat="46.419491" lon="10.3533907"><ele>1115.6666666666667</ele><time>2026-04-26T16:28:40.341Z</time></trkpt><trkpt lat="46.4197007" lon="10.353465"><ele>1115.3333333333335</ele><time>2026-04-26T16:28:41.343Z</time></trkpt><trkpt lat="46.4199048" lon="10.3535487"><ele>1115.0</ele><time>2026-04-26T16:28:42.345Z</time></trkpt><trkpt lat="46.4200988" lon="10.3536472"><ele>1115.0</ele><time>2026-04-26T16:28:43.34Z</time></trkpt><trkpt lat="46.4202933" lon="10.3537435"><ele>1115.0</ele><time>2026-04-26T16:28:44.341Z</time></trkpt><trkpt lat="46.4204903" lon="10.3538301"><ele>1115.0</ele><time>2026-04-26T16:28:45.341Z</time></trkpt><trkpt lat="46.4206926" lon="10.3539206"><ele>1116.3333333333335</ele><time>2026-04-26T16:28:46.347Z</time></trkpt><trkpt lat="46.4208961" lon="10.3540102"><ele>1117.6666666666667</ele><time>2026-04-26T16:28:47.342Z</time></trkpt><trkpt lat="46.4210964" lon="10.3541046"><ele>1119.0</ele><time>2026-04-26T16:28:48.341Z</time></trkpt><trkpt lat="46.421288" lon="10.3541977"><ele>1119.3333333333333</ele><time>2026-04-26T16:28:49.349Z</time></trkpt><trkpt lat="46.4214678" lon="10.3542793"><ele>1119.6666666666665</ele><time>2026-04-26T16:28:50.348Z</time></trkpt><trkpt lat="46.4216388" lon="10.3543606"><ele>1120.0</ele><time>2026-04-26T16:28:51.34Z</time></trkpt><trkpt lat="46.4218109" lon="10.3544413"><ele>1120.0</ele><time>2026-04-26T16:28:52.346Z</time></trkpt><trkpt lat="46.4219786" lon="10.3545179"><ele>1120.0</ele><time>2026-04-26T16:28:53.344Z</time></trkpt><trkpt lat="46.4221477" lon="10.3545928"><ele>1120.0</ele><time>2026-04-26T16:28:54.348Z</time></trkpt><trkpt lat="46.4223166" lon="10.3546716"><ele>1121.0</ele><time>2026-04-26T16:28:55.35Z</time></trkpt><trkpt lat="46.4224858" lon="10.3547512"><ele>1122.0</ele><time>2026-04-26T16:28:56.34Z</time></trkpt><trkpt lat="46.4226536" lon="10.3548282"><ele>1123.0</ele><time>2026-04-26T16:28:57.383Z</time></trkpt><trkpt lat="46.422823" lon="10.3549041"><ele>1123.0</ele><time>2026-04-26T16:28:58.349Z</time></trkpt><trkpt lat="46.422991" lon="10.3549829"><ele>1123.0</ele><time>2026-04-26T16:28:59.345Z</time></trkpt><trkpt lat="46.4231547" lon="10.355052"><ele>1123.0</ele><time>2026-04-26T16:29:00.342Z</time></trkpt><trkpt lat="46.4233198" lon="10.3551223"><ele>1123.0</ele><time>2026-04-26T16:29:01.342Z</time></trkpt><trkpt lat="46.4234732" lon="10.3551924"><ele>1123.0</ele><time>2026-04-26T16:29:02.352Z</time></trkpt><trkpt lat="46.4236176" lon="10.3552629"><ele>1123.0</ele><time>2026-04-26T16:29:03.344Z</time></trkpt><trkpt lat="46.4237341" lon="10.3553204"><ele>1123.0</ele><time>2026-04-26T16:29:04.346Z</time></trkpt><trkpt lat="46.4238376" lon="10.3553727"><ele>1123.1666666666665</ele><time>2026-04-26T16:29:05.342Z</time></trkpt><trkpt lat="46.4239222" lon="10.3554134"><ele>1123.3333333333333</ele><time>2026-04-26T16:29:06.342Z</time></trkpt><trkpt lat="46.4239869" lon="10.3554444"><ele>1123.5</ele><time>2026-04-26T16:29:07.346Z</time></trkpt><trkpt lat="46.4240721" lon="10.3554841"><ele>1123.6666666666667</ele><time>2026-04-26T16:29:09.343Z</time></trkpt><trkpt lat="46.4241632" lon="10.3554464"><ele>1123.8333333333335</ele><time>2026-04-26T16:29:11.344Z</time></trkpt><trkpt lat="46.4241976" lon="10.35536"><ele>1124.0</ele><time>2026-04-26T16:29:12.347Z</time></trkpt><trkpt lat="46.4242362" lon="10.3552559"><ele>1124.0</ele><time>2026-04-26T16:29:13.354Z</time></trkpt><trkpt lat="46.4242864" lon="10.3551335"><ele>1124.0</ele><time>2026-04-26T16:29:14.351Z</time></trkpt><trkpt lat="46.4243385" lon="10.3550066"><ele>1124.0</ele><time>2026-04-26T16:29:15.342Z</time></trkpt><trkpt lat="46.4243912" lon="10.3549066"><ele>1124.0</ele><time>2026-04-26T16:29:16.342Z</time></trkpt><trkpt lat="46.4244586" lon="10.3548495"><ele>1124.0</ele><time>2026-04-26T16:29:17.346Z</time></trkpt><trkpt lat="46.4245323" lon="10.3547971"><ele>1124.0</ele><time>2026-04-26T16:29:18.346Z</time></trkpt><trkpt lat="46.4246219" lon="10.3547998"><ele>1124.6666666666667</ele><time>2026-04-26T16:29:19.342Z</time></trkpt><trkpt lat="46.4247649" lon="10.3549108"><ele>1125.3333333333333</ele><time>2026-04-26T16:29:20.341Z</time></trkpt><trkpt lat="46.4248976" lon="10.3549803"><ele>1126.0</ele><time>2026-04-26T16:29:21.342Z</time></trkpt><trkpt lat="46.4250358" lon="10.3550689"><ele>1126.0</ele><time>2026-04-26T16:29:22.354Z</time></trkpt><trkpt lat="46.4251663" lon="10.3551749"><ele>1126.0</ele><time>2026-04-26T16:29:23.34Z</time></trkpt><trkpt lat="46.4252868" lon="10.3552684"><ele>1126.0</ele><time>2026-04-26T16:29:24.342Z</time></trkpt><trkpt lat="46.4254079" lon="10.3553185"><ele>1126.0</ele><time>2026-04-26T16:29:25.343Z</time></trkpt><trkpt lat="46.4255383" lon="10.3553201"><ele>1127.25</ele><time>2026-04-26T16:29:26.342Z</time></trkpt><trkpt lat="46.4256625" lon="10.355306"><ele>1128.5</ele><time>2026-04-26T16:29:27.345Z</time></trkpt><trkpt lat="46.4257866" lon="10.3552996"><ele>1129.75</ele><time>2026-04-26T16:29:28.34Z</time></trkpt><trkpt lat="46.425902" lon="10.3552947"><ele>1131.0</ele><time>2026-04-26T16:29:29.348Z</time></trkpt><trkpt lat="46.4259989" lon="10.3552922"><ele>1131.0</ele><time>2026-04-26T16:29:30.341Z</time></trkpt><trkpt lat="46.4260876" lon="10.3553027"><ele>1131.0</ele><time>2026-04-26T16:29:31.35Z</time></trkpt><trkpt lat="46.4261799" lon="10.355335"><ele>1131.0</ele><time>2026-04-26T16:29:32.349Z</time></trkpt><trkpt lat="46.4262692" lon="10.3554016"><ele>1131.0</ele><time>2026-04-26T16:29:33.345Z</time></trkpt><trkpt lat="46.4263461" lon="10.3554839"><ele>1131.0</ele><time>2026-04-26T16:29:34.34Z</time></trkpt><trkpt lat="46.4264257" lon="10.3555508"><ele>1131.6</ele><time>2026-04-26T16:29:35.346Z</time></trkpt><trkpt lat="46.4264614" lon="10.3556672"><ele>1132.1999999999998</ele><time>2026-04-26T16:29:36.348Z</time></trkpt><trkpt lat="46.4265339" lon="10.3557635"><ele>1132.8000000000002</ele><time>2026-04-26T16:29:37.344Z</time></trkpt><trkpt lat="46.426632" lon="10.3558433"><ele>1133.4</ele><time>2026-04-26T16:29:38.347Z</time></trkpt><trkpt lat="46.4267408" lon="10.3559004"><ele>1134.0</ele><time>2026-04-26T16:29:39.347Z</time></trkpt><trkpt lat="46.4268571" lon="10.3559537"><ele>1134.0</ele><time>2026-04-26T16:29:40.346Z</time></trkpt><trkpt lat="46.4269859" lon="10.3559896"><ele>1134.0</ele><time>2026-04-26T16:29:41.345Z</time></trkpt><trkpt lat="46.4271163" lon="10.3560284"><ele>1134.0</ele><time>2026-04-26T16:29:42.343Z</time></trkpt><trkpt lat="46.4272464" lon="10.3560433"><ele>1134.0</ele><time>2026-04-26T16:29:43.35Z</time></trkpt><trkpt lat="46.4273793" lon="10.35604"><ele>1135.4</ele><time>2026-04-26T16:29:44.345Z</time></trkpt><trkpt lat="46.4275084" lon="10.3560358"><ele>1136.8000000000002</ele><time>2026-04-26T16:29:45.355Z</time></trkpt><trkpt lat="46.4276199" lon="10.3560551"><ele>1138.1999999999998</ele><time>2026-04-26T16:29:46.342Z</time></trkpt><trkpt lat="46.4277283" lon="10.3560595"><ele>1139.6</ele><time>2026-04-26T16:29:47.349Z</time></trkpt><trkpt lat="46.4277917" lon="10.3560613"><ele>1141.0</ele><time>2026-04-26T16:29:48.341Z</time></trkpt><trkpt lat="46.4278591" lon="10.3560492"><ele>1141.0</ele><time>2026-04-26T16:29:49.343Z</time></trkpt><trkpt lat="46.4279152" lon="10.3559933"><ele>1141.0</ele><time>2026-04-26T16:29:50.345Z</time></trkpt><trkpt lat="46.4279343" lon="10.3558864"><ele>1141.0</ele><time>2026-04-26T16:29:51.342Z</time></trkpt><trkpt lat="46.4280052" lon="10.3558228"><ele>1141.0</ele><time>2026-04-26T16:29:53.345Z</time></trkpt><trkpt lat="46.4280775" lon="10.3558256"><ele>1141.0</ele><time>2026-04-26T16:29:54.347Z</time></trkpt><trkpt lat="46.4281595" lon="10.3558613"><ele>1141.0</ele><time>2026-04-26T16:29:55.359Z</time></trkpt><trkpt lat="46.4282434" lon="10.355895"><ele>1141.5</ele><time>2026-04-26T16:29:56.351Z</time></trkpt><trkpt lat="46.4283147" lon="10.3559309"><ele>1142.0</ele><time>2026-04-26T16:29:57.343Z</time></trkpt><trkpt lat="46.4283948" lon="10.3559679"><ele>1142.5</ele><time>2026-04-26T16:29:58.343Z</time></trkpt><trkpt lat="46.4284765" lon="10.3558415"><ele>1143.0</ele><time>2026-04-26T16:30:00.352Z</time></trkpt><trkpt lat="46.4285112" lon="10.3557507"><ele>1143.5</ele><time>2026-04-26T16:30:01.348Z</time></trkpt><trkpt lat="46.4285538" lon="10.3556378"><ele>1144.0</ele><time>2026-04-26T16:30:02.342Z</time></trkpt><trkpt lat="46.4286031" lon="10.355498"><ele>1145.25</ele><time>2026-04-26T16:30:03.341Z</time></trkpt><trkpt lat="46.4286528" lon="10.3553404"><ele>1146.5</ele><time>2026-04-26T16:30:04.345Z</time></trkpt><trkpt lat="46.4287057" lon="10.3551733"><ele>1147.75</ele><time>2026-04-26T16:30:05.345Z</time></trkpt><trkpt lat="46.4287579" lon="10.3549967"><ele>1149.0</ele><time>2026-04-26T16:30:06.345Z</time></trkpt><trkpt lat="46.4288052" lon="10.3548533"><ele>1149.0</ele><time>2026-04-26T16:30:07.351Z</time></trkpt><trkpt lat="46.4288383" lon="10.3547272"><ele>1149.0</ele><time>2026-04-26T16:30:08.344Z</time></trkpt><trkpt lat="46.4288539" lon="10.3546068"><ele>1149.0</ele><time>2026-04-26T16:30:09.343Z</time></trkpt><trkpt lat="46.4288284" lon="10.354475"><ele>1149.0</ele><time>2026-04-26T16:30:10.35Z</time></trkpt><trkpt lat="46.4287825" lon="10.3543273"><ele>1149.0</ele><time>2026-04-26T16:30:11.347Z</time></trkpt><trkpt lat="46.4287454" lon="10.354167"><ele>1149.5</ele><time>2026-04-26T16:30:12.344Z</time></trkpt><trkpt lat="46.4286892" lon="10.3539935"><ele>1150.0</ele><time>2026-04-26T16:30:13.348Z</time></trkpt><trkpt lat="46.4286297" lon="10.3538271"><ele>1150.5</ele><time>2026-04-26T16:30:14.346Z</time></trkpt><trkpt lat="46.4285609" lon="10.3536633"><ele>1151.0</ele><time>2026-04-26T16:30:15.345Z</time></trkpt><trkpt lat="46.4284929" lon="10.3535149"><ele>1151.6</ele><time>2026-04-26T16:30:16.343Z</time></trkpt><trkpt lat="46.4284361" lon="10.3533893"><ele>1152.1999999999998</ele><time>2026-04-26T16:30:17.345Z</time></trkpt><trkpt lat="46.4283861" lon="10.3532768"><ele>1152.8000000000002</ele><time>2026-04-26T16:30:18.345Z</time></trkpt><trkpt lat="46.4283542" lon="10.3531851"><ele>1153.4</ele><time>2026-04-26T16:30:19.348Z</time></trkpt><trkpt lat="46.4283812" lon="10.3530735"><ele>1154.0</ele><time>2026-04-26T16:30:21.352Z</time></trkpt><trkpt lat="46.4285024" lon="10.3530804"><ele>1154.0</ele><time>2026-04-26T16:30:23.347Z</time></trkpt><trkpt lat="46.4285937" lon="10.3531178"><ele>1154.0</ele><time>2026-04-26T16:30:24.348Z</time></trkpt><trkpt lat="46.4286893" lon="10.3531413"><ele>1154.0</ele><time>2026-04-26T16:30:25.35Z</time></trkpt><trkpt lat="46.4287942" lon="10.3531426"><ele>1154.0</ele><time>2026-04-26T16:30:26.344Z</time></trkpt><trkpt lat="46.428898" lon="10.3531317"><ele>1154.0</ele><time>2026-04-26T16:30:27.343Z</time></trkpt><trkpt lat="46.4289796" lon="10.353122"><ele>1155.4</ele><time>2026-04-26T16:30:28.342Z</time></trkpt><trkpt lat="46.429066" lon="10.3531155"><ele>1156.8000000000002</ele><time>2026-04-26T16:30:29.352Z</time></trkpt><trkpt lat="46.4291635" lon="10.3531275"><ele>1158.1999999999998</ele><time>2026-04-26T16:30:30.342Z</time></trkpt><trkpt lat="46.4292733" lon="10.3531405"><ele>1159.6</ele><time>2026-04-26T16:30:31.34Z</time></trkpt><trkpt lat="46.4293976" lon="10.3531489"><ele>1161.0</ele><time>2026-04-26T16:30:32.343Z</time></trkpt><trkpt lat="46.429539" lon="10.3531438"><ele>1162.6666666666667</ele><time>2026-04-26T16:30:33.341Z</time></trkpt><trkpt lat="46.4296937" lon="10.3531306"><ele>1164.3333333333335</ele><time>2026-04-26T16:30:34.347Z</time></trkpt><trkpt lat="46.4298518" lon="10.3531244"><ele>1166.0</ele><time>2026-04-26T16:30:35.351Z</time></trkpt><trkpt lat="46.4300154" lon="10.3531381"><ele>1166.0</ele><time>2026-04-26T16:30:36.342Z</time></trkpt><trkpt lat="46.4301751" lon="10.3531839"><ele>1166.0</ele><time>2026-04-26T16:30:37.344Z</time></trkpt><trkpt lat="46.4303328" lon="10.3532489"><ele>1166.0</ele><time>2026-04-26T16:30:38.35Z</time></trkpt><trkpt lat="46.4304935" lon="10.3533072"><ele>1168.3333333333335</ele><time>2026-04-26T16:30:39.348Z</time></trkpt><trkpt lat="46.430658" lon="10.3533473"><ele>1170.6666666666667</ele><time>2026-04-26T16:30:40.346Z</time></trkpt><trkpt lat="46.4308174" lon="10.3533747"><ele>1173.0</ele><time>2026-04-26T16:30:41.345Z</time></trkpt><trkpt lat="46.4309762" lon="10.3534128"><ele>1173.0</ele><time>2026-04-26T16:30:42.344Z</time></trkpt><trkpt lat="46.4311312" lon="10.3534672"><ele>1173.0</ele><time>2026-04-26T16:30:43.345Z</time></trkpt><trkpt lat="46.4312815" lon="10.3535408"><ele>1173.0</ele><time>2026-04-26T16:30:44.342Z</time></trkpt><trkpt lat="46.4314224" lon="10.353637"><ele>1172.0</ele><time>2026-04-26T16:30:45.342Z</time></trkpt><trkpt lat="46.4315561" lon="10.3537495"><ele>1171.0</ele><time>2026-04-26T16:30:46.347Z</time></trkpt><trkpt lat="46.4316821" lon="10.3538781"><ele>1170.0</ele><time>2026-04-26T16:30:47.345Z</time></trkpt><trkpt lat="46.4318006" lon="10.3540166"><ele>1170.0</ele><time>2026-04-26T16:30:48.341Z</time></trkpt><trkpt lat="46.431915" lon="10.3541618"><ele>1170.0</ele><time>2026-04-26T16:30:49.347Z</time></trkpt><trkpt lat="46.4320357" lon="10.3543007"><ele>1170.0</ele><time>2026-04-26T16:30:50.344Z</time></trkpt><trkpt lat="46.4321681" lon="10.3544371"><ele>1170.5</ele><time>2026-04-26T16:30:51.344Z</time></trkpt><trkpt lat="46.4322977" lon="10.3545568"><ele>1171.0</ele><time>2026-04-26T16:30:52.342Z</time></trkpt><trkpt lat="46.4324163" lon="10.3546778"><ele>1171.5</ele><time>2026-04-26T16:30:53.347Z</time></trkpt><trkpt lat="46.4325304" lon="10.3547872"><ele>1172.0</ele><time>2026-04-26T16:30:54.345Z</time></trkpt><trkpt lat="46.4326397" lon="10.3548848"><ele>1172.0</ele><time>2026-04-26T16:30:55.345Z</time></trkpt><trkpt lat="46.4327489" lon="10.3549808"><ele>1172.0</ele><time>2026-04-26T16:30:56.345Z</time></trkpt><trkpt lat="46.43286" lon="10.3550891"><ele>1172.0</ele><time>2026-04-26T16:30:57.349Z</time></trkpt><trkpt lat="46.4329708" lon="10.355207"><ele>1172.0</ele><time>2026-04-26T16:30:58.346Z</time></trkpt><trkpt lat="46.4330867" lon="10.3553255"><ele>1172.25</ele><time>2026-04-26T16:30:59.345Z</time></trkpt><trkpt lat="46.433209" lon="10.3554363"><ele>1172.5</ele><time>2026-04-26T16:31:00.348Z</time></trkpt><trkpt lat="46.4333252" lon="10.3555408"><ele>1172.75</ele><time>2026-04-26T16:31:01.345Z</time></trkpt><trkpt lat="46.4334399" lon="10.355624"><ele>1173.0</ele><time>2026-04-26T16:31:02.346Z</time></trkpt><trkpt lat="46.4335462" lon="10.3557031"><ele>1173.0</ele><time>2026-04-26T16:31:03.345Z</time></trkpt><trkpt lat="46.4336494" lon="10.3557738"><ele>1173.0</ele><time>2026-04-26T16:31:04.342Z</time></trkpt><trkpt lat="46.433755" lon="10.3558401"><ele>1173.0</ele><time>2026-04-26T16:31:05.344Z</time></trkpt><trkpt lat="46.433864" lon="10.3559079"><ele>1173.0</ele><time>2026-04-26T16:31:06.344Z</time></trkpt><trkpt lat="46.4339736" lon="10.3559815"><ele>1173.8</ele><time>2026-04-26T16:31:07.341Z</time></trkpt><trkpt lat="46.4340802" lon="10.356066"><ele>1174.6</ele><time>2026-04-26T16:31:08.345Z</time></trkpt><trkpt lat="46.4341711" lon="10.3561615"><ele>1175.4</ele><time>2026-04-26T16:31:09.344Z</time></trkpt><trkpt lat="46.4342554" lon="10.3562587"><ele>1176.2</ele><time>2026-04-26T16:31:10.347Z</time></trkpt><trkpt lat="46.4343479" lon="10.3563316"><ele>1177.0</ele><time>2026-04-26T16:31:11.343Z</time></trkpt><trkpt lat="46.4344528" lon="10.3563716"><ele>1174.75</ele><time>2026-04-26T16:31:12.345Z</time></trkpt><trkpt lat="46.4345681" lon="10.3564068"><ele>1172.5</ele><time>2026-04-26T16:31:13.345Z</time></trkpt><trkpt lat="46.4346972" lon="10.356413"><ele>1170.25</ele><time>2026-04-26T16:31:14.346Z</time></trkpt><trkpt lat="46.4348204" lon="10.3564328"><ele>1168.0</ele><time>2026-04-26T16:31:15.344Z</time></trkpt><trkpt lat="46.4349385" lon="10.3564756"><ele>1168.0</ele><time>2026-04-26T16:31:16.343Z</time></trkpt><trkpt lat="46.4350381" lon="10.356516"><ele>1168.0</ele><time>2026-04-26T16:31:17.347Z</time></trkpt><trkpt lat="46.4351374" lon="10.3565508"><ele>1168.0</ele><time>2026-04-26T16:31:18.349Z</time></trkpt><trkpt lat="46.4352241" lon="10.3565672"><ele>1168.0</ele><time>2026-04-26T16:31:19.349Z</time></trkpt><trkpt lat="46.4353031" lon="10.3565779"><ele>1168.0</ele><time>2026-04-26T16:31:20.344Z</time></trkpt><trkpt lat="46.4353725" lon="10.3565745"><ele>1168.0</ele><time>2026-04-26T16:31:21.345Z</time></trkpt><trkpt lat="46.4354541" lon="10.3565414"><ele>1168.0</ele><time>2026-04-26T16:31:23.347Z</time></trkpt><trkpt lat="46.4354908" lon="10.3564374"><ele>1167.0</ele><time>2026-04-26T16:31:25.348Z</time></trkpt><trkpt lat="46.435465" lon="10.3563448"><ele>1175.0</ele><time>2026-04-26T16:31:27.349Z</time></trkpt><trkpt lat="46.4355877" lon="10.3563039"><ele>1174.0</ele><time>2026-04-26T16:31:44.345Z</time></trkpt></trkseg></trk></gpx>